<?xml version="1.0" encoding="UTF-8"?>
<gpx xmlns="http://www.topografix.com/GPX/1/1" xmlns:gpxx="http://www.garmin.com/xmlschemas/GpxExtensions/v3" xmlns:gpxtpx="http://www.garmin.com/xmlschemas/TrackPointExtension/v1" version="1.1" creator="GPSBabel - http://www.gpsbabel.org">
  <metadata>
    <time>2021-05-26T07:57:51.298Z</time>
    <bounds minlat="51.539830000" minlon="6.972540000" maxlat="51.648890000" maxlon="7.261150000"/>
  </metadata>
  <trk>
    <trkseg>
      <trkpt lat="51.546790000" lon="7.022690000">
        <ele>95</ele>
        <time>2021-04-28T08:18:43Z</time>
      </trkpt>
      <trkpt lat="51.546850000" lon="7.022670000">
        <ele>95</ele>
        <time>2021-04-28T08:20:08Z</time>
      </trkpt>
      <trkpt lat="51.546860000" lon="7.022740000">
        <ele>95</ele>
        <time>2021-04-28T08:20:33Z</time>
      </trkpt>
      <trkpt lat="51.546830000" lon="7.022830000">
        <ele>95</ele>
        <time>2021-04-28T08:20:38Z</time>
      </trkpt>
      <trkpt lat="51.546860000" lon="7.022760000">
        <ele>95</ele>
        <time>2021-04-28T08:20:58Z</time>
      </trkpt>
      <trkpt lat="51.546940000" lon="7.022670000">
        <ele>95</ele>
        <time>2021-04-28T08:21:04Z</time>
      </trkpt>
      <trkpt lat="51.547010000" lon="7.022630000">
        <ele>95</ele>
        <time>2021-04-28T08:21:06Z</time>
      </trkpt>
      <trkpt lat="51.547060000" lon="7.022590000">
        <ele>95</ele>
        <time>2021-04-28T08:21:09Z</time>
      </trkpt>
      <trkpt lat="51.547070000" lon="7.022500000">
        <ele>48</ele>
        <time>2021-04-28T08:21:13Z</time>
      </trkpt>
      <trkpt lat="51.547070000" lon="7.022420000">
        <ele>48</ele>
        <time>2021-04-28T08:21:18Z</time>
      </trkpt>
      <trkpt lat="51.547120000" lon="7.022350000">
        <ele>48</ele>
        <time>2021-04-28T08:21:24Z</time>
      </trkpt>
      <trkpt lat="51.547110000" lon="7.022270000">
        <ele>48</ele>
        <time>2021-04-28T08:21:29Z</time>
      </trkpt>
      <trkpt lat="51.547100000" lon="7.022180000">
        <ele>48</ele>
        <time>2021-04-28T08:21:37Z</time>
      </trkpt>
      <trkpt lat="51.547100000" lon="7.022080000">
        <ele>48</ele>
        <time>2021-04-28T08:21:42Z</time>
      </trkpt>
      <trkpt lat="51.547100000" lon="7.021990000">
        <ele>48</ele>
        <time>2021-04-28T08:21:48Z</time>
      </trkpt>
      <trkpt lat="51.547090000" lon="7.021860000">
        <ele>48</ele>
        <time>2021-04-28T08:21:55Z</time>
      </trkpt>
      <trkpt lat="51.547090000" lon="7.021790000">
        <ele>48</ele>
        <time>2021-04-28T08:21:59Z</time>
      </trkpt>
      <trkpt lat="51.547100000" lon="7.021700000">
        <ele>48</ele>
        <time>2021-04-28T08:22:04Z</time>
      </trkpt>
      <trkpt lat="51.547090000" lon="7.021620000">
        <ele>48</ele>
        <time>2021-04-28T08:22:09Z</time>
      </trkpt>
      <trkpt lat="51.547100000" lon="7.021540000">
        <ele>48</ele>
        <time>2021-04-28T08:22:13Z</time>
      </trkpt>
      <trkpt lat="51.547100000" lon="7.021460000">
        <ele>47</ele>
        <time>2021-04-28T08:22:17Z</time>
      </trkpt>
      <trkpt lat="51.547090000" lon="7.021390000">
        <ele>47</ele>
        <time>2021-04-28T08:22:22Z</time>
      </trkpt>
      <trkpt lat="51.547090000" lon="7.021310000">
        <ele>47</ele>
        <time>2021-04-28T08:22:28Z</time>
      </trkpt>
      <trkpt lat="51.547090000" lon="7.021240000">
        <ele>47</ele>
        <time>2021-04-28T08:22:32Z</time>
      </trkpt>
      <trkpt lat="51.547120000" lon="7.021170000">
        <ele>45</ele>
        <time>2021-04-28T08:22:37Z</time>
      </trkpt>
      <trkpt lat="51.547170000" lon="7.021130000">
        <ele>45</ele>
        <time>2021-04-28T08:22:42Z</time>
      </trkpt>
      <trkpt lat="51.547210000" lon="7.021100000">
        <ele>45</ele>
        <time>2021-04-28T08:22:46Z</time>
      </trkpt>
      <trkpt lat="51.547240000" lon="7.021040000">
        <ele>45</ele>
        <time>2021-04-28T08:22:50Z</time>
      </trkpt>
      <trkpt lat="51.547250000" lon="7.020950000">
        <ele>45</ele>
        <time>2021-04-28T08:22:56Z</time>
      </trkpt>
      <trkpt lat="51.547280000" lon="7.020890000">
        <ele>45</ele>
        <time>2021-04-28T08:22:59Z</time>
      </trkpt>
      <trkpt lat="51.547220000" lon="7.020910000">
        <ele>45</ele>
        <time>2021-04-28T08:23:18Z</time>
      </trkpt>
      <trkpt lat="51.547260000" lon="7.020850000">
        <ele>45</ele>
        <time>2021-04-28T08:23:34Z</time>
      </trkpt>
      <trkpt lat="51.547310000" lon="7.020860000">
        <ele>45</ele>
        <time>2021-04-28T08:26:10Z</time>
      </trkpt>
      <trkpt lat="51.547260000" lon="7.020880000">
        <ele>45</ele>
        <time>2021-04-28T08:28:42Z</time>
      </trkpt>
      <trkpt lat="51.547230000" lon="7.020950000">
        <ele>45</ele>
        <time>2021-04-28T08:29:09Z</time>
      </trkpt>
      <trkpt lat="51.547220000" lon="7.021030000">
        <ele>45</ele>
        <time>2021-04-28T08:29:12Z</time>
      </trkpt>
      <trkpt lat="51.547190000" lon="7.021120000">
        <ele>45</ele>
        <time>2021-04-28T08:29:14Z</time>
      </trkpt>
      <trkpt lat="51.547140000" lon="7.021190000">
        <ele>45</ele>
        <time>2021-04-28T08:29:16Z</time>
      </trkpt>
      <trkpt lat="51.547070000" lon="7.021190000">
        <ele>45</ele>
        <time>2021-04-28T08:29:19Z</time>
      </trkpt>
      <trkpt lat="51.547030000" lon="7.021090000">
        <ele>41</ele>
        <time>2021-04-28T08:29:20Z</time>
      </trkpt>
      <trkpt lat="51.547050000" lon="7.020900000">
        <ele>41</ele>
        <time>2021-04-28T08:29:22Z</time>
      </trkpt>
      <trkpt lat="51.547070000" lon="7.020770000">
        <ele>41</ele>
        <time>2021-04-28T08:29:23Z</time>
      </trkpt>
      <trkpt lat="51.547090000" lon="7.020680000">
        <ele>41</ele>
        <time>2021-04-28T08:29:25Z</time>
      </trkpt>
      <trkpt lat="51.547110000" lon="7.020590000">
        <ele>41</ele>
        <time>2021-04-28T08:29:26Z</time>
      </trkpt>
      <trkpt lat="51.547140000" lon="7.020410000">
        <ele>41</ele>
        <time>2021-04-28T08:29:28Z</time>
      </trkpt>
      <trkpt lat="51.547180000" lon="7.020260000">
        <ele>41</ele>
        <time>2021-04-28T08:29:29Z</time>
      </trkpt>
      <trkpt lat="51.547230000" lon="7.020160000">
        <ele>41</ele>
        <time>2021-04-28T08:29:31Z</time>
      </trkpt>
      <trkpt lat="51.547290000" lon="7.020020000">
        <ele>41</ele>
        <time>2021-04-28T08:29:34Z</time>
      </trkpt>
      <trkpt lat="51.547350000" lon="7.019910000">
        <ele>41</ele>
        <time>2021-04-28T08:29:36Z</time>
      </trkpt>
      <trkpt lat="51.547450000" lon="7.019950000">
        <ele>41</ele>
        <time>2021-04-28T08:29:39Z</time>
      </trkpt>
      <trkpt lat="51.547520000" lon="7.020070000">
        <ele>41</ele>
        <time>2021-04-28T08:29:40Z</time>
      </trkpt>
      <trkpt lat="51.547590000" lon="7.020200000">
        <ele>41</ele>
        <time>2021-04-28T08:29:42Z</time>
      </trkpt>
      <trkpt lat="51.547640000" lon="7.020280000">
        <ele>41</ele>
        <time>2021-04-28T08:29:44Z</time>
      </trkpt>
      <trkpt lat="51.547680000" lon="7.020340000">
        <ele>41</ele>
        <time>2021-04-28T08:29:45Z</time>
      </trkpt>
      <trkpt lat="51.547710000" lon="7.020410000">
        <ele>41</ele>
        <time>2021-04-28T08:29:46Z</time>
      </trkpt>
      <trkpt lat="51.547780000" lon="7.020550000">
        <ele>42</ele>
        <time>2021-04-28T08:29:47Z</time>
      </trkpt>
      <trkpt lat="51.547810000" lon="7.020630000">
        <ele>42</ele>
        <time>2021-04-28T08:29:49Z</time>
      </trkpt>
      <trkpt lat="51.547880000" lon="7.020790000">
        <ele>42</ele>
        <time>2021-04-28T08:29:51Z</time>
      </trkpt>
      <trkpt lat="51.547950000" lon="7.020940000">
        <ele>42</ele>
        <time>2021-04-28T08:29:53Z</time>
      </trkpt>
      <trkpt lat="51.548020000" lon="7.021080000">
        <ele>42</ele>
        <time>2021-04-28T08:29:55Z</time>
      </trkpt>
      <trkpt lat="51.548100000" lon="7.021220000">
        <ele>42</ele>
        <time>2021-04-28T08:29:57Z</time>
      </trkpt>
      <trkpt lat="51.548170000" lon="7.021370000">
        <ele>42</ele>
        <time>2021-04-28T08:29:59Z</time>
      </trkpt>
      <trkpt lat="51.548240000" lon="7.021520000">
        <ele>42</ele>
        <time>2021-04-28T08:30:01Z</time>
      </trkpt>
      <trkpt lat="51.548290000" lon="7.021660000">
        <ele>42</ele>
        <time>2021-04-28T08:30:02Z</time>
      </trkpt>
      <trkpt lat="51.548350000" lon="7.021850000">
        <ele>42</ele>
        <time>2021-04-28T08:30:04Z</time>
      </trkpt>
      <trkpt lat="51.548410000" lon="7.022050000">
        <ele>46</ele>
        <time>2021-04-28T08:30:06Z</time>
      </trkpt>
      <trkpt lat="51.548430000" lon="7.022120000">
        <ele>46</ele>
        <time>2021-04-28T08:30:08Z</time>
      </trkpt>
      <trkpt lat="51.548460000" lon="7.022200000">
        <ele>46</ele>
        <time>2021-04-28T08:30:09Z</time>
      </trkpt>
      <trkpt lat="51.548490000" lon="7.022290000">
        <ele>46</ele>
        <time>2021-04-28T08:30:10Z</time>
      </trkpt>
      <trkpt lat="51.548530000" lon="7.022450000">
        <ele>46</ele>
        <time>2021-04-28T08:30:12Z</time>
      </trkpt>
      <trkpt lat="51.548580000" lon="7.022620000">
        <ele>46</ele>
        <time>2021-04-28T08:30:13Z</time>
      </trkpt>
      <trkpt lat="51.548610000" lon="7.022700000">
        <ele>46</ele>
        <time>2021-04-28T08:30:15Z</time>
      </trkpt>
      <trkpt lat="51.548650000" lon="7.022870000">
        <ele>46</ele>
        <time>2021-04-28T08:30:17Z</time>
      </trkpt>
      <trkpt lat="51.548680000" lon="7.022940000">
        <ele>46</ele>
        <time>2021-04-28T08:30:18Z</time>
      </trkpt>
      <trkpt lat="51.548710000" lon="7.023090000">
        <ele>46</ele>
        <time>2021-04-28T08:30:20Z</time>
      </trkpt>
      <trkpt lat="51.548740000" lon="7.023270000">
        <ele>46</ele>
        <time>2021-04-28T08:30:21Z</time>
      </trkpt>
      <trkpt lat="51.548770000" lon="7.023430000">
        <ele>46</ele>
        <time>2021-04-28T08:30:23Z</time>
      </trkpt>
      <trkpt lat="51.548790000" lon="7.023520000">
        <ele>46</ele>
        <time>2021-04-28T08:30:24Z</time>
      </trkpt>
      <trkpt lat="51.548840000" lon="7.023680000">
        <ele>46</ele>
        <time>2021-04-28T08:30:26Z</time>
      </trkpt>
      <trkpt lat="51.548850000" lon="7.023760000">
        <ele>46</ele>
        <time>2021-04-28T08:30:27Z</time>
      </trkpt>
      <trkpt lat="51.548870000" lon="7.023850000">
        <ele>46</ele>
        <time>2021-04-28T08:30:28Z</time>
      </trkpt>
      <trkpt lat="51.548900000" lon="7.024010000">
        <ele>46</ele>
        <time>2021-04-28T08:30:30Z</time>
      </trkpt>
      <trkpt lat="51.548930000" lon="7.024190000">
        <ele>46</ele>
        <time>2021-04-28T08:30:32Z</time>
      </trkpt>
      <trkpt lat="51.548960000" lon="7.024380000">
        <ele>46</ele>
        <time>2021-04-28T08:30:34Z</time>
      </trkpt>
      <trkpt lat="51.548970000" lon="7.024470000">
        <ele>46</ele>
        <time>2021-04-28T08:30:35Z</time>
      </trkpt>
      <trkpt lat="51.548990000" lon="7.024660000">
        <ele>46</ele>
        <time>2021-04-28T08:30:37Z</time>
      </trkpt>
      <trkpt lat="51.548990000" lon="7.024750000">
        <ele>46</ele>
        <time>2021-04-28T08:30:38Z</time>
      </trkpt>
      <trkpt lat="51.549000000" lon="7.024830000">
        <ele>46</ele>
        <time>2021-04-28T08:30:39Z</time>
      </trkpt>
      <trkpt lat="51.549020000" lon="7.025010000">
        <ele>46</ele>
        <time>2021-04-28T08:30:41Z</time>
      </trkpt>
      <trkpt lat="51.549040000" lon="7.025100000">
        <ele>43</ele>
        <time>2021-04-28T08:30:42Z</time>
      </trkpt>
      <trkpt lat="51.549050000" lon="7.025270000">
        <ele>43</ele>
        <time>2021-04-28T08:30:44Z</time>
      </trkpt>
      <trkpt lat="51.549060000" lon="7.025360000">
        <ele>43</ele>
        <time>2021-04-28T08:30:45Z</time>
      </trkpt>
      <trkpt lat="51.549070000" lon="7.025450000">
        <ele>43</ele>
        <time>2021-04-28T08:30:46Z</time>
      </trkpt>
      <trkpt lat="51.549090000" lon="7.025630000">
        <ele>43</ele>
        <time>2021-04-28T08:30:48Z</time>
      </trkpt>
      <trkpt lat="51.549100000" lon="7.025720000">
        <ele>43</ele>
        <time>2021-04-28T08:30:49Z</time>
      </trkpt>
      <trkpt lat="51.549110000" lon="7.025810000">
        <ele>43</ele>
        <time>2021-04-28T08:30:50Z</time>
      </trkpt>
      <trkpt lat="51.549120000" lon="7.026000000">
        <ele>43</ele>
        <time>2021-04-28T08:30:52Z</time>
      </trkpt>
      <trkpt lat="51.549120000" lon="7.026180000">
        <ele>43</ele>
        <time>2021-04-28T08:30:54Z</time>
      </trkpt>
      <trkpt lat="51.549120000" lon="7.026250000">
        <ele>43</ele>
        <time>2021-04-28T08:30:55Z</time>
      </trkpt>
      <trkpt lat="51.549120000" lon="7.026320000">
        <ele>43</ele>
        <time>2021-04-28T08:30:56Z</time>
      </trkpt>
      <trkpt lat="51.549110000" lon="7.026460000">
        <ele>43</ele>
        <time>2021-04-28T08:30:58Z</time>
      </trkpt>
      <trkpt lat="51.549070000" lon="7.026550000">
        <ele>43</ele>
        <time>2021-04-28T08:31:00Z</time>
      </trkpt>
      <trkpt lat="51.549070000" lon="7.026700000">
        <ele>43</ele>
        <time>2021-04-28T08:31:03Z</time>
      </trkpt>
      <trkpt lat="51.549110000" lon="7.026750000">
        <ele>43</ele>
        <time>2021-04-28T08:31:04Z</time>
      </trkpt>
      <trkpt lat="51.549160000" lon="7.026780000">
        <ele>43</ele>
        <time>2021-04-28T08:31:06Z</time>
      </trkpt>
      <trkpt lat="51.549200000" lon="7.026890000">
        <ele>43</ele>
        <time>2021-04-28T08:31:08Z</time>
      </trkpt>
      <trkpt lat="51.549210000" lon="7.027060000">
        <ele>43</ele>
        <time>2021-04-28T08:31:10Z</time>
      </trkpt>
      <trkpt lat="51.549220000" lon="7.027240000">
        <ele>43</ele>
        <time>2021-04-28T08:31:12Z</time>
      </trkpt>
      <trkpt lat="51.549230000" lon="7.027420000">
        <ele>43</ele>
        <time>2021-04-28T08:31:14Z</time>
      </trkpt>
      <trkpt lat="51.549260000" lon="7.027600000">
        <ele>43</ele>
        <time>2021-04-28T08:31:16Z</time>
      </trkpt>
      <trkpt lat="51.549270000" lon="7.027690000">
        <ele>43</ele>
        <time>2021-04-28T08:31:17Z</time>
      </trkpt>
      <trkpt lat="51.549280000" lon="7.027790000">
        <ele>43</ele>
        <time>2021-04-28T08:31:18Z</time>
      </trkpt>
      <trkpt lat="51.549290000" lon="7.027890000">
        <ele>43</ele>
        <time>2021-04-28T08:31:19Z</time>
      </trkpt>
      <trkpt lat="51.549300000" lon="7.027990000">
        <ele>43</ele>
        <time>2021-04-28T08:31:20Z</time>
      </trkpt>
      <trkpt lat="51.549330000" lon="7.028180000">
        <ele>43</ele>
        <time>2021-04-28T08:31:22Z</time>
      </trkpt>
      <trkpt lat="51.549350000" lon="7.028270000">
        <ele>43</ele>
        <time>2021-04-28T08:31:23Z</time>
      </trkpt>
      <trkpt lat="51.549370000" lon="7.028370000">
        <ele>43</ele>
        <time>2021-04-28T08:31:24Z</time>
      </trkpt>
      <trkpt lat="51.549420000" lon="7.028570000">
        <ele>45</ele>
        <time>2021-04-28T08:31:27Z</time>
      </trkpt>
      <trkpt lat="51.549440000" lon="7.028650000">
        <ele>45</ele>
        <time>2021-04-28T08:31:27Z</time>
      </trkpt>
      <trkpt lat="51.549480000" lon="7.028820000">
        <ele>45</ele>
        <time>2021-04-28T08:31:30Z</time>
      </trkpt>
      <trkpt lat="51.549540000" lon="7.028980000">
        <ele>45</ele>
        <time>2021-04-28T08:31:32Z</time>
      </trkpt>
      <trkpt lat="51.549600000" lon="7.029160000">
        <ele>45</ele>
        <time>2021-04-28T08:31:34Z</time>
      </trkpt>
      <trkpt lat="51.549660000" lon="7.029320000">
        <ele>45</ele>
        <time>2021-04-28T08:31:35Z</time>
      </trkpt>
      <trkpt lat="51.549690000" lon="7.029410000">
        <ele>45</ele>
        <time>2021-04-28T08:31:37Z</time>
      </trkpt>
      <trkpt lat="51.549720000" lon="7.029490000">
        <ele>45</ele>
        <time>2021-04-28T08:31:38Z</time>
      </trkpt>
      <trkpt lat="51.549780000" lon="7.029640000">
        <ele>45</ele>
        <time>2021-04-28T08:31:40Z</time>
      </trkpt>
      <trkpt lat="51.549790000" lon="7.029790000">
        <ele>45</ele>
        <time>2021-04-28T08:31:41Z</time>
      </trkpt>
      <trkpt lat="51.549770000" lon="7.029860000">
        <ele>45</ele>
        <time>2021-04-28T08:31:43Z</time>
      </trkpt>
      <trkpt lat="51.549690000" lon="7.029980000">
        <ele>45</ele>
        <time>2021-04-28T08:31:44Z</time>
      </trkpt>
      <trkpt lat="51.549600000" lon="7.030110000">
        <ele>45</ele>
        <time>2021-04-28T08:31:46Z</time>
      </trkpt>
      <trkpt lat="51.549550000" lon="7.030180000">
        <ele>45</ele>
        <time>2021-04-28T08:31:48Z</time>
      </trkpt>
      <trkpt lat="51.549430000" lon="7.030320000">
        <ele>43</ele>
        <time>2021-04-28T08:31:51Z</time>
      </trkpt>
      <trkpt lat="51.549330000" lon="7.030380000">
        <ele>43</ele>
        <time>2021-04-28T08:31:53Z</time>
      </trkpt>
      <trkpt lat="51.549270000" lon="7.030430000">
        <ele>43</ele>
        <time>2021-04-28T08:31:54Z</time>
      </trkpt>
      <trkpt lat="51.549180000" lon="7.030520000">
        <ele>43</ele>
        <time>2021-04-28T08:31:55Z</time>
      </trkpt>
      <trkpt lat="51.549100000" lon="7.030570000">
        <ele>43</ele>
        <time>2021-04-28T08:31:57Z</time>
      </trkpt>
      <trkpt lat="51.549000000" lon="7.030660000">
        <ele>43</ele>
        <time>2021-04-28T08:31:59Z</time>
      </trkpt>
      <trkpt lat="51.548950000" lon="7.030710000">
        <ele>43</ele>
        <time>2021-04-28T08:32:00Z</time>
      </trkpt>
      <trkpt lat="51.548850000" lon="7.030790000">
        <ele>43</ele>
        <time>2021-04-28T08:32:02Z</time>
      </trkpt>
      <trkpt lat="51.548740000" lon="7.030850000">
        <ele>43</ele>
        <time>2021-04-28T08:32:04Z</time>
      </trkpt>
      <trkpt lat="51.548640000" lon="7.030920000">
        <ele>43</ele>
        <time>2021-04-28T08:32:05Z</time>
      </trkpt>
      <trkpt lat="51.548540000" lon="7.030990000">
        <ele>43</ele>
        <time>2021-04-28T08:32:07Z</time>
      </trkpt>
      <trkpt lat="51.548480000" lon="7.031040000">
        <ele>43</ele>
        <time>2021-04-28T08:32:09Z</time>
      </trkpt>
      <trkpt lat="51.548440000" lon="7.031190000">
        <ele>43</ele>
        <time>2021-04-28T08:32:11Z</time>
      </trkpt>
      <trkpt lat="51.548490000" lon="7.031350000">
        <ele>40</ele>
        <time>2021-04-28T08:32:13Z</time>
      </trkpt>
      <trkpt lat="51.548510000" lon="7.031440000">
        <ele>40</ele>
        <time>2021-04-28T08:32:14Z</time>
      </trkpt>
      <trkpt lat="51.548550000" lon="7.031610000">
        <ele>40</ele>
        <time>2021-04-28T08:32:16Z</time>
      </trkpt>
      <trkpt lat="51.548570000" lon="7.031710000">
        <ele>40</ele>
        <time>2021-04-28T08:32:17Z</time>
      </trkpt>
      <trkpt lat="51.548620000" lon="7.031880000">
        <ele>40</ele>
        <time>2021-04-28T08:32:19Z</time>
      </trkpt>
      <trkpt lat="51.548650000" lon="7.031970000">
        <ele>40</ele>
        <time>2021-04-28T08:32:20Z</time>
      </trkpt>
      <trkpt lat="51.548690000" lon="7.032160000">
        <ele>40</ele>
        <time>2021-04-28T08:32:22Z</time>
      </trkpt>
      <trkpt lat="51.548740000" lon="7.032340000">
        <ele>40</ele>
        <time>2021-04-28T08:32:24Z</time>
      </trkpt>
      <trkpt lat="51.548760000" lon="7.032440000">
        <ele>40</ele>
        <time>2021-04-28T08:32:25Z</time>
      </trkpt>
      <trkpt lat="51.548800000" lon="7.032610000">
        <ele>40</ele>
        <time>2021-04-28T08:32:26Z</time>
      </trkpt>
      <trkpt lat="51.548850000" lon="7.032820000">
        <ele>40</ele>
        <time>2021-04-28T08:32:29Z</time>
      </trkpt>
      <trkpt lat="51.548880000" lon="7.032890000">
        <ele>40</ele>
        <time>2021-04-28T08:32:30Z</time>
      </trkpt>
      <trkpt lat="51.548920000" lon="7.033100000">
        <ele>40</ele>
        <time>2021-04-28T08:32:32Z</time>
      </trkpt>
      <trkpt lat="51.548960000" lon="7.033270000">
        <ele>40</ele>
        <time>2021-04-28T08:32:34Z</time>
      </trkpt>
      <trkpt lat="51.549020000" lon="7.033460000">
        <ele>40</ele>
        <time>2021-04-28T08:32:36Z</time>
      </trkpt>
      <trkpt lat="51.549070000" lon="7.033640000">
        <ele>41</ele>
        <time>2021-04-28T08:32:38Z</time>
      </trkpt>
      <trkpt lat="51.549100000" lon="7.033830000">
        <ele>41</ele>
        <time>2021-04-28T08:32:39Z</time>
      </trkpt>
      <trkpt lat="51.549130000" lon="7.033980000">
        <ele>41</ele>
        <time>2021-04-28T08:32:41Z</time>
      </trkpt>
      <trkpt lat="51.549170000" lon="7.034220000">
        <ele>41</ele>
        <time>2021-04-28T08:32:43Z</time>
      </trkpt>
      <trkpt lat="51.549200000" lon="7.034410000">
        <ele>41</ele>
        <time>2021-04-28T08:32:44Z</time>
      </trkpt>
      <trkpt lat="51.549220000" lon="7.034510000">
        <ele>41</ele>
        <time>2021-04-28T08:32:46Z</time>
      </trkpt>
      <trkpt lat="51.549250000" lon="7.034690000">
        <ele>41</ele>
        <time>2021-04-28T08:32:47Z</time>
      </trkpt>
      <trkpt lat="51.549280000" lon="7.034900000">
        <ele>41</ele>
        <time>2021-04-28T08:32:49Z</time>
      </trkpt>
      <trkpt lat="51.549280000" lon="7.035010000">
        <ele>41</ele>
        <time>2021-04-28T08:32:50Z</time>
      </trkpt>
      <trkpt lat="51.549300000" lon="7.035190000">
        <ele>41</ele>
        <time>2021-04-28T08:32:52Z</time>
      </trkpt>
      <trkpt lat="51.549300000" lon="7.035300000">
        <ele>41</ele>
        <time>2021-04-28T08:32:53Z</time>
      </trkpt>
      <trkpt lat="51.549310000" lon="7.035500000">
        <ele>38</ele>
        <time>2021-04-28T08:32:55Z</time>
      </trkpt>
      <trkpt lat="51.549320000" lon="7.035610000">
        <ele>38</ele>
        <time>2021-04-28T08:32:56Z</time>
      </trkpt>
      <trkpt lat="51.549320000" lon="7.035810000">
        <ele>38</ele>
        <time>2021-04-28T08:32:58Z</time>
      </trkpt>
      <trkpt lat="51.549320000" lon="7.035990000">
        <ele>38</ele>
        <time>2021-04-28T08:33:00Z</time>
      </trkpt>
      <trkpt lat="51.549320000" lon="7.036090000">
        <ele>38</ele>
        <time>2021-04-28T08:33:01Z</time>
      </trkpt>
      <trkpt lat="51.549320000" lon="7.036180000">
        <ele>38</ele>
        <time>2021-04-28T08:33:02Z</time>
      </trkpt>
      <trkpt lat="51.549320000" lon="7.036380000">
        <ele>38</ele>
        <time>2021-04-28T08:33:04Z</time>
      </trkpt>
      <trkpt lat="51.549320000" lon="7.036470000">
        <ele>38</ele>
        <time>2021-04-28T08:33:05Z</time>
      </trkpt>
      <trkpt lat="51.549310000" lon="7.036560000">
        <ele>38</ele>
        <time>2021-04-28T08:33:06Z</time>
      </trkpt>
      <trkpt lat="51.549300000" lon="7.036750000">
        <ele>38</ele>
        <time>2021-04-28T08:33:08Z</time>
      </trkpt>
      <trkpt lat="51.549290000" lon="7.036940000">
        <ele>38</ele>
        <time>2021-04-28T08:33:10Z</time>
      </trkpt>
      <trkpt lat="51.549280000" lon="7.037030000">
        <ele>38</ele>
        <time>2021-04-28T08:33:11Z</time>
      </trkpt>
      <trkpt lat="51.549250000" lon="7.037200000">
        <ele>33</ele>
        <time>2021-04-28T08:33:13Z</time>
      </trkpt>
      <trkpt lat="51.549210000" lon="7.037360000">
        <ele>33</ele>
        <time>2021-04-28T08:33:15Z</time>
      </trkpt>
      <trkpt lat="51.549190000" lon="7.037440000">
        <ele>33</ele>
        <time>2021-04-28T08:33:16Z</time>
      </trkpt>
      <trkpt lat="51.549170000" lon="7.037530000">
        <ele>33</ele>
        <time>2021-04-28T08:33:17Z</time>
      </trkpt>
      <trkpt lat="51.549110000" lon="7.037660000">
        <ele>33</ele>
        <time>2021-04-28T08:33:19Z</time>
      </trkpt>
      <trkpt lat="51.549090000" lon="7.037750000">
        <ele>33</ele>
        <time>2021-04-28T08:33:20Z</time>
      </trkpt>
      <trkpt lat="51.549080000" lon="7.037830000">
        <ele>33</ele>
        <time>2021-04-28T08:33:21Z</time>
      </trkpt>
      <trkpt lat="51.549090000" lon="7.037920000">
        <ele>33</ele>
        <time>2021-04-28T08:33:22Z</time>
      </trkpt>
      <trkpt lat="51.549130000" lon="7.038100000">
        <ele>33</ele>
        <time>2021-04-28T08:33:24Z</time>
      </trkpt>
      <trkpt lat="51.549160000" lon="7.038250000">
        <ele>33</ele>
        <time>2021-04-28T08:33:26Z</time>
      </trkpt>
      <trkpt lat="51.549170000" lon="7.038330000">
        <ele>33</ele>
        <time>2021-04-28T08:33:27Z</time>
      </trkpt>
      <trkpt lat="51.549160000" lon="7.038470000">
        <ele>33</ele>
        <time>2021-04-28T08:33:29Z</time>
      </trkpt>
      <trkpt lat="51.549140000" lon="7.038550000">
        <ele>33</ele>
        <time>2021-04-28T08:33:30Z</time>
      </trkpt>
      <trkpt lat="51.549090000" lon="7.038690000">
        <ele>33</ele>
        <time>2021-04-28T08:33:32Z</time>
      </trkpt>
      <trkpt lat="51.549060000" lon="7.038760000">
        <ele>33</ele>
        <time>2021-04-28T08:33:33Z</time>
      </trkpt>
      <trkpt lat="51.549020000" lon="7.038840000">
        <ele>34</ele>
        <time>2021-04-28T08:33:34Z</time>
      </trkpt>
      <trkpt lat="51.548990000" lon="7.038930000">
        <ele>34</ele>
        <time>2021-04-28T08:33:35Z</time>
      </trkpt>
      <trkpt lat="51.548960000" lon="7.039020000">
        <ele>34</ele>
        <time>2021-04-28T08:33:36Z</time>
      </trkpt>
      <trkpt lat="51.548920000" lon="7.039090000">
        <ele>34</ele>
        <time>2021-04-28T08:33:37Z</time>
      </trkpt>
      <trkpt lat="51.548810000" lon="7.039210000">
        <ele>34</ele>
        <time>2021-04-28T08:33:39Z</time>
      </trkpt>
      <trkpt lat="51.548680000" lon="7.039320000">
        <ele>34</ele>
        <time>2021-04-28T08:33:41Z</time>
      </trkpt>
      <trkpt lat="51.548570000" lon="7.039410000">
        <ele>34</ele>
        <time>2021-04-28T08:33:43Z</time>
      </trkpt>
      <trkpt lat="51.548520000" lon="7.039470000">
        <ele>34</ele>
        <time>2021-04-28T08:33:44Z</time>
      </trkpt>
      <trkpt lat="51.548410000" lon="7.039580000">
        <ele>34</ele>
        <time>2021-04-28T08:33:46Z</time>
      </trkpt>
      <trkpt lat="51.548350000" lon="7.039600000">
        <ele>34</ele>
        <time>2021-04-28T08:33:47Z</time>
      </trkpt>
      <trkpt lat="51.548290000" lon="7.039650000">
        <ele>34</ele>
        <time>2021-04-28T08:33:48Z</time>
      </trkpt>
      <trkpt lat="51.548170000" lon="7.039730000">
        <ele>34</ele>
        <time>2021-04-28T08:33:50Z</time>
      </trkpt>
      <trkpt lat="51.548110000" lon="7.039760000">
        <ele>32</ele>
        <time>2021-04-28T08:33:51Z</time>
      </trkpt>
      <trkpt lat="51.548060000" lon="7.039780000">
        <ele>32</ele>
        <time>2021-04-28T08:33:52Z</time>
      </trkpt>
      <trkpt lat="51.547920000" lon="7.039850000">
        <ele>32</ele>
        <time>2021-04-28T08:33:54Z</time>
      </trkpt>
      <trkpt lat="51.547770000" lon="7.039910000">
        <ele>32</ele>
        <time>2021-04-28T08:33:56Z</time>
      </trkpt>
      <trkpt lat="51.547710000" lon="7.039940000">
        <ele>32</ele>
        <time>2021-04-28T08:33:57Z</time>
      </trkpt>
      <trkpt lat="51.547650000" lon="7.039980000">
        <ele>32</ele>
        <time>2021-04-28T08:33:58Z</time>
      </trkpt>
      <trkpt lat="51.547510000" lon="7.040030000">
        <ele>32</ele>
        <time>2021-04-28T08:34:00Z</time>
      </trkpt>
      <trkpt lat="51.547460000" lon="7.040040000">
        <ele>32</ele>
        <time>2021-04-28T08:34:01Z</time>
      </trkpt>
      <trkpt lat="51.547380000" lon="7.040080000">
        <ele>32</ele>
        <time>2021-04-28T08:34:04Z</time>
      </trkpt>
      <trkpt lat="51.547310000" lon="7.040030000">
        <ele>32</ele>
        <time>2021-04-28T08:34:06Z</time>
      </trkpt>
      <trkpt lat="51.547260000" lon="7.039970000">
        <ele>32</ele>
        <time>2021-04-28T08:34:06Z</time>
      </trkpt>
      <trkpt lat="51.547210000" lon="7.039910000">
        <ele>32</ele>
        <time>2021-04-28T08:34:08Z</time>
      </trkpt>
      <trkpt lat="51.547100000" lon="7.039810000">
        <ele>38</ele>
        <time>2021-04-28T08:34:09Z</time>
      </trkpt>
      <trkpt lat="51.547000000" lon="7.039680000">
        <ele>38</ele>
        <time>2021-04-28T08:34:11Z</time>
      </trkpt>
      <trkpt lat="51.546920000" lon="7.039610000">
        <ele>38</ele>
        <time>2021-04-28T08:34:14Z</time>
      </trkpt>
      <trkpt lat="51.546830000" lon="7.039510000">
        <ele>38</ele>
        <time>2021-04-28T08:34:16Z</time>
      </trkpt>
      <trkpt lat="51.546780000" lon="7.039560000">
        <ele>38</ele>
        <time>2021-04-28T08:34:20Z</time>
      </trkpt>
      <trkpt lat="51.546710000" lon="7.039620000">
        <ele>38</ele>
        <time>2021-04-28T08:34:22Z</time>
      </trkpt>
      <trkpt lat="51.546690000" lon="7.039690000">
        <ele>38</ele>
        <time>2021-04-28T08:34:24Z</time>
      </trkpt>
      <trkpt lat="51.546620000" lon="7.039760000">
        <ele>38</ele>
        <time>2021-04-28T08:34:26Z</time>
      </trkpt>
      <trkpt lat="51.546540000" lon="7.039810000">
        <ele>38</ele>
        <time>2021-04-28T08:34:28Z</time>
      </trkpt>
      <trkpt lat="51.546500000" lon="7.039860000">
        <ele>38</ele>
        <time>2021-04-28T08:34:29Z</time>
      </trkpt>
      <trkpt lat="51.546430000" lon="7.039960000">
        <ele>33</ele>
        <time>2021-04-28T08:34:31Z</time>
      </trkpt>
      <trkpt lat="51.546370000" lon="7.040040000">
        <ele>33</ele>
        <time>2021-04-28T08:34:33Z</time>
      </trkpt>
      <trkpt lat="51.546280000" lon="7.040170000">
        <ele>33</ele>
        <time>2021-04-28T08:34:35Z</time>
      </trkpt>
      <trkpt lat="51.546160000" lon="7.040350000">
        <ele>33</ele>
        <time>2021-04-28T08:34:37Z</time>
      </trkpt>
      <trkpt lat="51.546080000" lon="7.040460000">
        <ele>33</ele>
        <time>2021-04-28T08:34:39Z</time>
      </trkpt>
      <trkpt lat="51.546020000" lon="7.040550000">
        <ele>33</ele>
        <time>2021-04-28T08:34:41Z</time>
      </trkpt>
      <trkpt lat="51.545970000" lon="7.040580000">
        <ele>33</ele>
        <time>2021-04-28T08:34:44Z</time>
      </trkpt>
      <trkpt lat="51.545960000" lon="7.040650000">
        <ele>33</ele>
        <time>2021-04-28T08:34:47Z</time>
      </trkpt>
      <trkpt lat="51.545940000" lon="7.040750000">
        <ele>33</ele>
        <time>2021-04-28T08:34:51Z</time>
      </trkpt>
      <trkpt lat="51.545960000" lon="7.040850000">
        <ele>33</ele>
        <time>2021-04-28T08:34:54Z</time>
      </trkpt>
      <trkpt lat="51.545970000" lon="7.040940000">
        <ele>33</ele>
        <time>2021-04-28T08:34:56Z</time>
      </trkpt>
      <trkpt lat="51.545970000" lon="7.041030000">
        <ele>33</ele>
        <time>2021-04-28T08:34:57Z</time>
      </trkpt>
      <trkpt lat="51.545970000" lon="7.041110000">
        <ele>33</ele>
        <time>2021-04-28T08:34:59Z</time>
      </trkpt>
      <trkpt lat="51.545980000" lon="7.041210000">
        <ele>33</ele>
        <time>2021-04-28T08:35:02Z</time>
      </trkpt>
      <trkpt lat="51.545990000" lon="7.041320000">
        <ele>33</ele>
        <time>2021-04-28T08:35:04Z</time>
      </trkpt>
      <trkpt lat="51.546000000" lon="7.041450000">
        <ele>34</ele>
        <time>2021-04-28T08:35:06Z</time>
      </trkpt>
      <trkpt lat="51.546010000" lon="7.041580000">
        <ele>34</ele>
        <time>2021-04-28T08:35:08Z</time>
      </trkpt>
      <trkpt lat="51.546030000" lon="7.041720000">
        <ele>34</ele>
        <time>2021-04-28T08:35:09Z</time>
      </trkpt>
      <trkpt lat="51.546040000" lon="7.041830000">
        <ele>34</ele>
        <time>2021-04-28T08:35:11Z</time>
      </trkpt>
      <trkpt lat="51.546060000" lon="7.041960000">
        <ele>34</ele>
        <time>2021-04-28T08:35:14Z</time>
      </trkpt>
      <trkpt lat="51.546070000" lon="7.042110000">
        <ele>34</ele>
        <time>2021-04-28T08:35:15Z</time>
      </trkpt>
      <trkpt lat="51.546070000" lon="7.042200000">
        <ele>34</ele>
        <time>2021-04-28T08:35:17Z</time>
      </trkpt>
      <trkpt lat="51.546070000" lon="7.042300000">
        <ele>34</ele>
        <time>2021-04-28T08:35:18Z</time>
      </trkpt>
      <trkpt lat="51.546070000" lon="7.042400000">
        <ele>34</ele>
        <time>2021-04-28T08:35:19Z</time>
      </trkpt>
      <trkpt lat="51.546060000" lon="7.042570000">
        <ele>34</ele>
        <time>2021-04-28T08:35:20Z</time>
      </trkpt>
      <trkpt lat="51.546060000" lon="7.042710000">
        <ele>34</ele>
        <time>2021-04-28T08:35:22Z</time>
      </trkpt>
      <trkpt lat="51.546050000" lon="7.042900000">
        <ele>34</ele>
        <time>2021-04-28T08:35:23Z</time>
      </trkpt>
      <trkpt lat="51.546040000" lon="7.043080000">
        <ele>34</ele>
        <time>2021-04-28T08:35:25Z</time>
      </trkpt>
      <trkpt lat="51.546030000" lon="7.043240000">
        <ele>34</ele>
        <time>2021-04-28T08:35:27Z</time>
      </trkpt>
      <trkpt lat="51.546010000" lon="7.043430000">
        <ele>34</ele>
        <time>2021-04-28T08:35:29Z</time>
      </trkpt>
      <trkpt lat="51.546010000" lon="7.043560000">
        <ele>29</ele>
        <time>2021-04-28T08:35:31Z</time>
      </trkpt>
      <trkpt lat="51.546000000" lon="7.043710000">
        <ele>29</ele>
        <time>2021-04-28T08:35:32Z</time>
      </trkpt>
      <trkpt lat="51.545990000" lon="7.043810000">
        <ele>29</ele>
        <time>2021-04-28T08:35:33Z</time>
      </trkpt>
      <trkpt lat="51.545980000" lon="7.043930000">
        <ele>29</ele>
        <time>2021-04-28T08:35:35Z</time>
      </trkpt>
      <trkpt lat="51.545950000" lon="7.044090000">
        <ele>29</ele>
        <time>2021-04-28T08:35:37Z</time>
      </trkpt>
      <trkpt lat="51.545900000" lon="7.044260000">
        <ele>29</ele>
        <time>2021-04-28T08:35:39Z</time>
      </trkpt>
      <trkpt lat="51.545880000" lon="7.044360000">
        <ele>29</ele>
        <time>2021-04-28T08:35:40Z</time>
      </trkpt>
      <trkpt lat="51.545850000" lon="7.044530000">
        <ele>29</ele>
        <time>2021-04-28T08:35:41Z</time>
      </trkpt>
      <trkpt lat="51.545840000" lon="7.044740000">
        <ele>29</ele>
        <time>2021-04-28T08:35:43Z</time>
      </trkpt>
      <trkpt lat="51.545850000" lon="7.044890000">
        <ele>29</ele>
        <time>2021-04-28T08:35:45Z</time>
      </trkpt>
      <trkpt lat="51.545860000" lon="7.045090000">
        <ele>28</ele>
        <time>2021-04-28T08:35:47Z</time>
      </trkpt>
      <trkpt lat="51.545880000" lon="7.045320000">
        <ele>28</ele>
        <time>2021-04-28T08:35:48Z</time>
      </trkpt>
      <trkpt lat="51.545890000" lon="7.045470000">
        <ele>28</ele>
        <time>2021-04-28T08:35:51Z</time>
      </trkpt>
      <trkpt lat="51.545900000" lon="7.045560000">
        <ele>28</ele>
        <time>2021-04-28T08:35:52Z</time>
      </trkpt>
      <trkpt lat="51.545900000" lon="7.045690000">
        <ele>28</ele>
        <time>2021-04-28T08:35:54Z</time>
      </trkpt>
      <trkpt lat="51.545910000" lon="7.045800000">
        <ele>28</ele>
        <time>2021-04-28T08:35:57Z</time>
      </trkpt>
      <trkpt lat="51.545910000" lon="7.045910000">
        <ele>28</ele>
        <time>2021-04-28T08:36:00Z</time>
      </trkpt>
      <trkpt lat="51.545910000" lon="7.046070000">
        <ele>28</ele>
        <time>2021-04-28T08:36:02Z</time>
      </trkpt>
      <trkpt lat="51.545930000" lon="7.046210000">
        <ele>28</ele>
        <time>2021-04-28T08:36:03Z</time>
      </trkpt>
      <trkpt lat="51.545960000" lon="7.046310000">
        <ele>28</ele>
        <time>2021-04-28T08:36:06Z</time>
      </trkpt>
      <trkpt lat="51.546010000" lon="7.046430000">
        <ele>28</ele>
        <time>2021-04-28T08:36:08Z</time>
      </trkpt>
      <trkpt lat="51.546070000" lon="7.046520000">
        <ele>28</ele>
        <time>2021-04-28T08:36:09Z</time>
      </trkpt>
      <trkpt lat="51.546120000" lon="7.046580000">
        <ele>28</ele>
        <time>2021-04-28T08:36:10Z</time>
      </trkpt>
      <trkpt lat="51.546200000" lon="7.046660000">
        <ele>28</ele>
        <time>2021-04-28T08:36:12Z</time>
      </trkpt>
      <trkpt lat="51.546260000" lon="7.046720000">
        <ele>28</ele>
        <time>2021-04-28T08:36:14Z</time>
      </trkpt>
      <trkpt lat="51.546310000" lon="7.046770000">
        <ele>28</ele>
        <time>2021-04-28T08:36:16Z</time>
      </trkpt>
      <trkpt lat="51.546380000" lon="7.046870000">
        <ele>28</ele>
        <time>2021-04-28T08:36:17Z</time>
      </trkpt>
      <trkpt lat="51.546420000" lon="7.046930000">
        <ele>33</ele>
        <time>2021-04-28T08:36:19Z</time>
      </trkpt>
      <trkpt lat="51.546490000" lon="7.047080000">
        <ele>33</ele>
        <time>2021-04-28T08:36:21Z</time>
      </trkpt>
      <trkpt lat="51.546570000" lon="7.047230000">
        <ele>33</ele>
        <time>2021-04-28T08:36:22Z</time>
      </trkpt>
      <trkpt lat="51.546630000" lon="7.047350000">
        <ele>33</ele>
        <time>2021-04-28T08:36:26Z</time>
      </trkpt>
      <trkpt lat="51.546670000" lon="7.047480000">
        <ele>33</ele>
        <time>2021-04-28T08:36:28Z</time>
      </trkpt>
      <trkpt lat="51.546670000" lon="7.047680000">
        <ele>33</ele>
        <time>2021-04-28T08:36:30Z</time>
      </trkpt>
      <trkpt lat="51.546680000" lon="7.047880000">
        <ele>33</ele>
        <time>2021-04-28T08:36:31Z</time>
      </trkpt>
      <trkpt lat="51.546690000" lon="7.048050000">
        <ele>33</ele>
        <time>2021-04-28T08:36:33Z</time>
      </trkpt>
      <trkpt lat="51.546700000" lon="7.048280000">
        <ele>33</ele>
        <time>2021-04-28T08:36:36Z</time>
      </trkpt>
      <trkpt lat="51.546710000" lon="7.048470000">
        <ele>36</ele>
        <time>2021-04-28T08:36:37Z</time>
      </trkpt>
      <trkpt lat="51.546710000" lon="7.048650000">
        <ele>36</ele>
        <time>2021-04-28T08:36:40Z</time>
      </trkpt>
      <trkpt lat="51.546720000" lon="7.048830000">
        <ele>36</ele>
        <time>2021-04-28T08:36:42Z</time>
      </trkpt>
      <trkpt lat="51.546720000" lon="7.049010000">
        <ele>36</ele>
        <time>2021-04-28T08:36:43Z</time>
      </trkpt>
      <trkpt lat="51.546730000" lon="7.049110000">
        <ele>36</ele>
        <time>2021-04-28T08:36:45Z</time>
      </trkpt>
      <trkpt lat="51.546730000" lon="7.049280000">
        <ele>36</ele>
        <time>2021-04-28T08:36:47Z</time>
      </trkpt>
      <trkpt lat="51.546720000" lon="7.049360000">
        <ele>36</ele>
        <time>2021-04-28T08:36:47Z</time>
      </trkpt>
      <trkpt lat="51.546720000" lon="7.049550000">
        <ele>36</ele>
        <time>2021-04-28T08:36:50Z</time>
      </trkpt>
      <trkpt lat="51.546720000" lon="7.049640000">
        <ele>35</ele>
        <time>2021-04-28T08:36:52Z</time>
      </trkpt>
      <trkpt lat="51.546720000" lon="7.049740000">
        <ele>35</ele>
        <time>2021-04-28T08:36:53Z</time>
      </trkpt>
      <trkpt lat="51.546720000" lon="7.049830000">
        <ele>35</ele>
        <time>2021-04-28T08:36:54Z</time>
      </trkpt>
      <trkpt lat="51.546730000" lon="7.049990000">
        <ele>35</ele>
        <time>2021-04-28T08:36:56Z</time>
      </trkpt>
      <trkpt lat="51.546730000" lon="7.050070000">
        <ele>35</ele>
        <time>2021-04-28T08:36:57Z</time>
      </trkpt>
      <trkpt lat="51.546730000" lon="7.050150000">
        <ele>35</ele>
        <time>2021-04-28T08:36:58Z</time>
      </trkpt>
      <trkpt lat="51.546730000" lon="7.050230000">
        <ele>35</ele>
        <time>2021-04-28T08:36:59Z</time>
      </trkpt>
      <trkpt lat="51.546740000" lon="7.050380000">
        <ele>35</ele>
        <time>2021-04-28T08:37:02Z</time>
      </trkpt>
      <trkpt lat="51.546750000" lon="7.050530000">
        <ele>35</ele>
        <time>2021-04-28T08:37:03Z</time>
      </trkpt>
      <trkpt lat="51.546760000" lon="7.050650000">
        <ele>35</ele>
        <time>2021-04-28T08:37:05Z</time>
      </trkpt>
      <trkpt lat="51.546770000" lon="7.050830000">
        <ele>35</ele>
        <time>2021-04-28T08:37:07Z</time>
      </trkpt>
      <trkpt lat="51.546790000" lon="7.050990000">
        <ele>35</ele>
        <time>2021-04-28T08:37:09Z</time>
      </trkpt>
      <trkpt lat="51.546800000" lon="7.051070000">
        <ele>35</ele>
        <time>2021-04-28T08:37:10Z</time>
      </trkpt>
      <trkpt lat="51.546810000" lon="7.051140000">
        <ele>35</ele>
        <time>2021-04-28T08:37:11Z</time>
      </trkpt>
      <trkpt lat="51.546820000" lon="7.051260000">
        <ele>35</ele>
        <time>2021-04-28T08:37:12Z</time>
      </trkpt>
      <trkpt lat="51.546750000" lon="7.051330000">
        <ele>33</ele>
        <time>2021-04-28T08:37:15Z</time>
      </trkpt>
      <trkpt lat="51.546670000" lon="7.051380000">
        <ele>33</ele>
        <time>2021-04-28T08:37:17Z</time>
      </trkpt>
      <trkpt lat="51.546590000" lon="7.051400000">
        <ele>33</ele>
        <time>2021-04-28T08:37:20Z</time>
      </trkpt>
      <trkpt lat="51.546530000" lon="7.051420000">
        <ele>33</ele>
        <time>2021-04-28T08:37:22Z</time>
      </trkpt>
      <trkpt lat="51.546450000" lon="7.051440000">
        <ele>33</ele>
        <time>2021-04-28T08:37:23Z</time>
      </trkpt>
      <trkpt lat="51.546400000" lon="7.051440000">
        <ele>33</ele>
        <time>2021-04-28T08:37:27Z</time>
      </trkpt>
      <trkpt lat="51.546370000" lon="7.051510000">
        <ele>33</ele>
        <time>2021-04-28T08:37:47Z</time>
      </trkpt>
      <trkpt lat="51.546300000" lon="7.051530000">
        <ele>33</ele>
        <time>2021-04-28T08:37:49Z</time>
      </trkpt>
      <trkpt lat="51.546210000" lon="7.051600000">
        <ele>33</ele>
        <time>2021-04-28T08:37:50Z</time>
      </trkpt>
      <trkpt lat="51.546170000" lon="7.051630000">
        <ele>33</ele>
        <time>2021-04-28T08:37:52Z</time>
      </trkpt>
      <trkpt lat="51.546080000" lon="7.051660000">
        <ele>33</ele>
        <time>2021-04-28T08:37:53Z</time>
      </trkpt>
      <trkpt lat="51.546040000" lon="7.051690000">
        <ele>33</ele>
        <time>2021-04-28T08:37:54Z</time>
      </trkpt>
      <trkpt lat="51.545950000" lon="7.051740000">
        <ele>33</ele>
        <time>2021-04-28T08:37:56Z</time>
      </trkpt>
      <trkpt lat="51.545880000" lon="7.051770000">
        <ele>33</ele>
        <time>2021-04-28T08:37:57Z</time>
      </trkpt>
      <trkpt lat="51.545810000" lon="7.051800000">
        <ele>33</ele>
        <time>2021-04-28T08:37:59Z</time>
      </trkpt>
      <trkpt lat="51.545710000" lon="7.051850000">
        <ele>38</ele>
        <time>2021-04-28T08:38:01Z</time>
      </trkpt>
      <trkpt lat="51.545600000" lon="7.051910000">
        <ele>38</ele>
        <time>2021-04-28T08:38:03Z</time>
      </trkpt>
      <trkpt lat="51.545490000" lon="7.051970000">
        <ele>38</ele>
        <time>2021-04-28T08:38:04Z</time>
      </trkpt>
      <trkpt lat="51.545440000" lon="7.052000000">
        <ele>38</ele>
        <time>2021-04-28T08:38:06Z</time>
      </trkpt>
      <trkpt lat="51.545390000" lon="7.052020000">
        <ele>38</ele>
        <time>2021-04-28T08:38:07Z</time>
      </trkpt>
      <trkpt lat="51.545300000" lon="7.052050000">
        <ele>38</ele>
        <time>2021-04-28T08:38:08Z</time>
      </trkpt>
      <trkpt lat="51.545220000" lon="7.052090000">
        <ele>38</ele>
        <time>2021-04-28T08:38:11Z</time>
      </trkpt>
      <trkpt lat="51.545130000" lon="7.052160000">
        <ele>38</ele>
        <time>2021-04-28T08:38:12Z</time>
      </trkpt>
      <trkpt lat="51.545080000" lon="7.052200000">
        <ele>38</ele>
        <time>2021-04-28T08:38:13Z</time>
      </trkpt>
      <trkpt lat="51.545020000" lon="7.052230000">
        <ele>38</ele>
        <time>2021-04-28T08:38:15Z</time>
      </trkpt>
      <trkpt lat="51.544870000" lon="7.052280000">
        <ele>38</ele>
        <time>2021-04-28T08:38:16Z</time>
      </trkpt>
      <trkpt lat="51.544770000" lon="7.052310000">
        <ele>37</ele>
        <time>2021-04-28T08:38:18Z</time>
      </trkpt>
      <trkpt lat="51.544720000" lon="7.052360000">
        <ele>37</ele>
        <time>2021-04-28T08:38:20Z</time>
      </trkpt>
      <trkpt lat="51.544620000" lon="7.052410000">
        <ele>37</ele>
        <time>2021-04-28T08:38:21Z</time>
      </trkpt>
      <trkpt lat="51.544570000" lon="7.052460000">
        <ele>37</ele>
        <time>2021-04-28T08:38:23Z</time>
      </trkpt>
      <trkpt lat="51.544510000" lon="7.052590000">
        <ele>37</ele>
        <time>2021-04-28T08:38:25Z</time>
      </trkpt>
      <trkpt lat="51.544480000" lon="7.052760000">
        <ele>37</ele>
        <time>2021-04-28T08:38:27Z</time>
      </trkpt>
      <trkpt lat="51.544470000" lon="7.052860000">
        <ele>37</ele>
        <time>2021-04-28T08:38:28Z</time>
      </trkpt>
      <trkpt lat="51.544440000" lon="7.052940000">
        <ele>37</ele>
        <time>2021-04-28T08:38:29Z</time>
      </trkpt>
      <trkpt lat="51.544400000" lon="7.053060000">
        <ele>37</ele>
        <time>2021-04-28T08:38:30Z</time>
      </trkpt>
      <trkpt lat="51.544370000" lon="7.053140000">
        <ele>37</ele>
        <time>2021-04-28T08:38:31Z</time>
      </trkpt>
      <trkpt lat="51.544310000" lon="7.053220000">
        <ele>37</ele>
        <time>2021-04-28T08:38:33Z</time>
      </trkpt>
      <trkpt lat="51.544230000" lon="7.053320000">
        <ele>37</ele>
        <time>2021-04-28T08:38:34Z</time>
      </trkpt>
      <trkpt lat="51.544190000" lon="7.053390000">
        <ele>37</ele>
        <time>2021-04-28T08:38:36Z</time>
      </trkpt>
      <trkpt lat="51.544120000" lon="7.053500000">
        <ele>37</ele>
        <time>2021-04-28T08:38:37Z</time>
      </trkpt>
      <trkpt lat="51.544080000" lon="7.053580000">
        <ele>37</ele>
        <time>2021-04-28T08:38:38Z</time>
      </trkpt>
      <trkpt lat="51.544030000" lon="7.053680000">
        <ele>37</ele>
        <time>2021-04-28T08:38:40Z</time>
      </trkpt>
      <trkpt lat="51.543970000" lon="7.053800000">
        <ele>37</ele>
        <time>2021-04-28T08:38:41Z</time>
      </trkpt>
      <trkpt lat="51.543940000" lon="7.053870000">
        <ele>37</ele>
        <time>2021-04-28T08:38:43Z</time>
      </trkpt>
      <trkpt lat="51.543910000" lon="7.053940000">
        <ele>37</ele>
        <time>2021-04-28T08:38:44Z</time>
      </trkpt>
      <trkpt lat="51.543860000" lon="7.054080000">
        <ele>37</ele>
        <time>2021-04-28T08:38:46Z</time>
      </trkpt>
      <trkpt lat="51.543800000" lon="7.054210000">
        <ele>37</ele>
        <time>2021-04-28T08:38:48Z</time>
      </trkpt>
      <trkpt lat="51.543750000" lon="7.054370000">
        <ele>37</ele>
        <time>2021-04-28T08:38:49Z</time>
      </trkpt>
      <trkpt lat="51.543670000" lon="7.054540000">
        <ele>37</ele>
        <time>2021-04-28T08:38:51Z</time>
      </trkpt>
      <trkpt lat="51.543640000" lon="7.054630000">
        <ele>37</ele>
        <time>2021-04-28T08:38:53Z</time>
      </trkpt>
      <trkpt lat="51.543590000" lon="7.054810000">
        <ele>37</ele>
        <time>2021-04-28T08:38:55Z</time>
      </trkpt>
      <trkpt lat="51.543560000" lon="7.054900000">
        <ele>37</ele>
        <time>2021-04-28T08:38:56Z</time>
      </trkpt>
      <trkpt lat="51.543530000" lon="7.055040000">
        <ele>37</ele>
        <time>2021-04-28T08:38:57Z</time>
      </trkpt>
      <trkpt lat="51.543470000" lon="7.055280000">
        <ele>40</ele>
        <time>2021-04-28T08:38:59Z</time>
      </trkpt>
      <trkpt lat="51.543460000" lon="7.055360000">
        <ele>40</ele>
        <time>2021-04-28T08:39:01Z</time>
      </trkpt>
      <trkpt lat="51.543440000" lon="7.055440000">
        <ele>40</ele>
        <time>2021-04-28T08:39:02Z</time>
      </trkpt>
      <trkpt lat="51.543430000" lon="7.055530000">
        <ele>40</ele>
        <time>2021-04-28T08:39:03Z</time>
      </trkpt>
      <trkpt lat="51.543400000" lon="7.055700000">
        <ele>40</ele>
        <time>2021-04-28T08:39:05Z</time>
      </trkpt>
      <trkpt lat="51.543360000" lon="7.055890000">
        <ele>40</ele>
        <time>2021-04-28T08:39:06Z</time>
      </trkpt>
      <trkpt lat="51.543350000" lon="7.055970000">
        <ele>40</ele>
        <time>2021-04-28T08:39:08Z</time>
      </trkpt>
      <trkpt lat="51.543310000" lon="7.056160000">
        <ele>40</ele>
        <time>2021-04-28T08:39:09Z</time>
      </trkpt>
      <trkpt lat="51.543290000" lon="7.056240000">
        <ele>40</ele>
        <time>2021-04-28T08:39:11Z</time>
      </trkpt>
      <trkpt lat="51.543250000" lon="7.056400000">
        <ele>40</ele>
        <time>2021-04-28T08:39:12Z</time>
      </trkpt>
      <trkpt lat="51.543220000" lon="7.056570000">
        <ele>40</ele>
        <time>2021-04-28T08:39:14Z</time>
      </trkpt>
      <trkpt lat="51.543200000" lon="7.056670000">
        <ele>40</ele>
        <time>2021-04-28T08:39:15Z</time>
      </trkpt>
      <trkpt lat="51.543180000" lon="7.056760000">
        <ele>40</ele>
        <time>2021-04-28T08:39:17Z</time>
      </trkpt>
      <trkpt lat="51.543140000" lon="7.056890000">
        <ele>40</ele>
        <time>2021-04-28T08:39:18Z</time>
      </trkpt>
      <trkpt lat="51.543120000" lon="7.056980000">
        <ele>40</ele>
        <time>2021-04-28T08:39:19Z</time>
      </trkpt>
      <trkpt lat="51.543100000" lon="7.057100000">
        <ele>40</ele>
        <time>2021-04-28T08:39:20Z</time>
      </trkpt>
      <trkpt lat="51.543080000" lon="7.057180000">
        <ele>40</ele>
        <time>2021-04-28T08:39:21Z</time>
      </trkpt>
      <trkpt lat="51.543050000" lon="7.057350000">
        <ele>41</ele>
        <time>2021-04-28T08:39:23Z</time>
      </trkpt>
      <trkpt lat="51.543020000" lon="7.057470000">
        <ele>41</ele>
        <time>2021-04-28T08:39:24Z</time>
      </trkpt>
      <trkpt lat="51.542980000" lon="7.057640000">
        <ele>41</ele>
        <time>2021-04-28T08:39:27Z</time>
      </trkpt>
      <trkpt lat="51.542950000" lon="7.057810000">
        <ele>41</ele>
        <time>2021-04-28T08:39:29Z</time>
      </trkpt>
      <trkpt lat="51.542920000" lon="7.057900000">
        <ele>41</ele>
        <time>2021-04-28T08:39:30Z</time>
      </trkpt>
      <trkpt lat="51.542890000" lon="7.058060000">
        <ele>41</ele>
        <time>2021-04-28T08:39:32Z</time>
      </trkpt>
      <trkpt lat="51.542840000" lon="7.058260000">
        <ele>41</ele>
        <time>2021-04-28T08:39:34Z</time>
      </trkpt>
      <trkpt lat="51.542820000" lon="7.058340000">
        <ele>41</ele>
        <time>2021-04-28T08:39:35Z</time>
      </trkpt>
      <trkpt lat="51.542770000" lon="7.058510000">
        <ele>41</ele>
        <time>2021-04-28T08:39:36Z</time>
      </trkpt>
      <trkpt lat="51.542750000" lon="7.058600000">
        <ele>41</ele>
        <time>2021-04-28T08:39:38Z</time>
      </trkpt>
      <trkpt lat="51.542710000" lon="7.058790000">
        <ele>41</ele>
        <time>2021-04-28T08:39:39Z</time>
      </trkpt>
      <trkpt lat="51.542660000" lon="7.059020000">
        <ele>41</ele>
        <time>2021-04-28T08:39:42Z</time>
      </trkpt>
      <trkpt lat="51.542640000" lon="7.059110000">
        <ele>41</ele>
        <time>2021-04-28T08:39:43Z</time>
      </trkpt>
      <trkpt lat="51.542590000" lon="7.059290000">
        <ele>40</ele>
        <time>2021-04-28T08:39:44Z</time>
      </trkpt>
      <trkpt lat="51.542570000" lon="7.059370000">
        <ele>40</ele>
        <time>2021-04-28T08:39:45Z</time>
      </trkpt>
      <trkpt lat="51.542550000" lon="7.059460000">
        <ele>40</ele>
        <time>2021-04-28T08:39:47Z</time>
      </trkpt>
      <trkpt lat="51.542510000" lon="7.059640000">
        <ele>40</ele>
        <time>2021-04-28T08:39:49Z</time>
      </trkpt>
      <trkpt lat="51.542470000" lon="7.059800000">
        <ele>40</ele>
        <time>2021-04-28T08:39:50Z</time>
      </trkpt>
      <trkpt lat="51.542450000" lon="7.059910000">
        <ele>40</ele>
        <time>2021-04-28T08:39:52Z</time>
      </trkpt>
      <trkpt lat="51.542410000" lon="7.060090000">
        <ele>40</ele>
        <time>2021-04-28T08:39:53Z</time>
      </trkpt>
      <trkpt lat="51.542380000" lon="7.060220000">
        <ele>40</ele>
        <time>2021-04-28T08:39:55Z</time>
      </trkpt>
      <trkpt lat="51.542340000" lon="7.060410000">
        <ele>40</ele>
        <time>2021-04-28T08:39:57Z</time>
      </trkpt>
      <trkpt lat="51.542300000" lon="7.060580000">
        <ele>40</ele>
        <time>2021-04-28T08:39:58Z</time>
      </trkpt>
      <trkpt lat="51.542250000" lon="7.060730000">
        <ele>40</ele>
        <time>2021-04-28T08:40:00Z</time>
      </trkpt>
      <trkpt lat="51.542160000" lon="7.060870000">
        <ele>40</ele>
        <time>2021-04-28T08:40:02Z</time>
      </trkpt>
      <trkpt lat="51.542070000" lon="7.060910000">
        <ele>40</ele>
        <time>2021-04-28T08:40:04Z</time>
      </trkpt>
      <trkpt lat="51.542000000" lon="7.061040000">
        <ele>40</ele>
        <time>2021-04-28T08:40:06Z</time>
      </trkpt>
      <trkpt lat="51.541970000" lon="7.061140000">
        <ele>40</ele>
        <time>2021-04-28T08:40:07Z</time>
      </trkpt>
      <trkpt lat="51.541950000" lon="7.061230000">
        <ele>40</ele>
        <time>2021-04-28T08:40:08Z</time>
      </trkpt>
      <trkpt lat="51.541930000" lon="7.061320000">
        <ele>40</ele>
        <time>2021-04-28T08:40:09Z</time>
      </trkpt>
      <trkpt lat="51.541910000" lon="7.061400000">
        <ele>40</ele>
        <time>2021-04-28T08:40:10Z</time>
      </trkpt>
      <trkpt lat="51.541890000" lon="7.061500000">
        <ele>40</ele>
        <time>2021-04-28T08:40:12Z</time>
      </trkpt>
      <trkpt lat="51.541850000" lon="7.061670000">
        <ele>40</ele>
        <time>2021-04-28T08:40:13Z</time>
      </trkpt>
      <trkpt lat="51.541820000" lon="7.061750000">
        <ele>40</ele>
        <time>2021-04-28T08:40:15Z</time>
      </trkpt>
      <trkpt lat="51.541770000" lon="7.061920000">
        <ele>40</ele>
        <time>2021-04-28T08:40:17Z</time>
      </trkpt>
      <trkpt lat="51.541720000" lon="7.062090000">
        <ele>40</ele>
        <time>2021-04-28T08:40:19Z</time>
      </trkpt>
      <trkpt lat="51.541670000" lon="7.062250000">
        <ele>40</ele>
        <time>2021-04-28T08:40:20Z</time>
      </trkpt>
      <trkpt lat="51.541640000" lon="7.062340000">
        <ele>40</ele>
        <time>2021-04-28T08:40:21Z</time>
      </trkpt>
      <trkpt lat="51.541610000" lon="7.062440000">
        <ele>38</ele>
        <time>2021-04-28T08:40:23Z</time>
      </trkpt>
      <trkpt lat="51.541560000" lon="7.062590000">
        <ele>38</ele>
        <time>2021-04-28T08:40:24Z</time>
      </trkpt>
      <trkpt lat="51.541500000" lon="7.062740000">
        <ele>38</ele>
        <time>2021-04-28T08:40:26Z</time>
      </trkpt>
      <trkpt lat="51.541470000" lon="7.062810000">
        <ele>38</ele>
        <time>2021-04-28T08:40:27Z</time>
      </trkpt>
      <trkpt lat="51.541440000" lon="7.062900000">
        <ele>38</ele>
        <time>2021-04-28T08:40:29Z</time>
      </trkpt>
      <trkpt lat="51.541390000" lon="7.063040000">
        <ele>38</ele>
        <time>2021-04-28T08:40:31Z</time>
      </trkpt>
      <trkpt lat="51.541330000" lon="7.063190000">
        <ele>38</ele>
        <time>2021-04-28T08:40:33Z</time>
      </trkpt>
      <trkpt lat="51.541300000" lon="7.063330000">
        <ele>38</ele>
        <time>2021-04-28T08:40:35Z</time>
      </trkpt>
      <trkpt lat="51.541270000" lon="7.063500000">
        <ele>38</ele>
        <time>2021-04-28T08:40:37Z</time>
      </trkpt>
      <trkpt lat="51.541230000" lon="7.063660000">
        <ele>38</ele>
        <time>2021-04-28T08:40:38Z</time>
      </trkpt>
      <trkpt lat="51.541200000" lon="7.063780000">
        <ele>38</ele>
        <time>2021-04-28T08:40:40Z</time>
      </trkpt>
      <trkpt lat="51.541150000" lon="7.063910000">
        <ele>38</ele>
        <time>2021-04-28T08:40:41Z</time>
      </trkpt>
      <trkpt lat="51.541130000" lon="7.064000000">
        <ele>38</ele>
        <time>2021-04-28T08:40:42Z</time>
      </trkpt>
      <trkpt lat="51.541110000" lon="7.064110000">
        <ele>40</ele>
        <time>2021-04-28T08:40:43Z</time>
      </trkpt>
      <trkpt lat="51.541080000" lon="7.064200000">
        <ele>40</ele>
        <time>2021-04-28T08:40:45Z</time>
      </trkpt>
      <trkpt lat="51.541060000" lon="7.064280000">
        <ele>40</ele>
        <time>2021-04-28T08:40:46Z</time>
      </trkpt>
      <trkpt lat="51.541020000" lon="7.064460000">
        <ele>40</ele>
        <time>2021-04-28T08:40:48Z</time>
      </trkpt>
      <trkpt lat="51.540970000" lon="7.064610000">
        <ele>40</ele>
        <time>2021-04-28T08:40:49Z</time>
      </trkpt>
      <trkpt lat="51.540950000" lon="7.064700000">
        <ele>40</ele>
        <time>2021-04-28T08:40:50Z</time>
      </trkpt>
      <trkpt lat="51.540920000" lon="7.064810000">
        <ele>40</ele>
        <time>2021-04-28T08:40:52Z</time>
      </trkpt>
      <trkpt lat="51.540900000" lon="7.064890000">
        <ele>40</ele>
        <time>2021-04-28T08:40:53Z</time>
      </trkpt>
      <trkpt lat="51.540860000" lon="7.065060000">
        <ele>40</ele>
        <time>2021-04-28T08:40:54Z</time>
      </trkpt>
      <trkpt lat="51.540830000" lon="7.065150000">
        <ele>40</ele>
        <time>2021-04-28T08:40:56Z</time>
      </trkpt>
      <trkpt lat="51.540780000" lon="7.065320000">
        <ele>40</ele>
        <time>2021-04-28T08:40:57Z</time>
      </trkpt>
      <trkpt lat="51.540760000" lon="7.065410000">
        <ele>40</ele>
        <time>2021-04-28T08:40:58Z</time>
      </trkpt>
      <trkpt lat="51.540740000" lon="7.065500000">
        <ele>40</ele>
        <time>2021-04-28T08:41:00Z</time>
      </trkpt>
      <trkpt lat="51.540690000" lon="7.065650000">
        <ele>40</ele>
        <time>2021-04-28T08:41:01Z</time>
      </trkpt>
      <trkpt lat="51.540640000" lon="7.065840000">
        <ele>40</ele>
        <time>2021-04-28T08:41:03Z</time>
      </trkpt>
      <trkpt lat="51.540620000" lon="7.065920000">
        <ele>40</ele>
        <time>2021-04-28T08:41:04Z</time>
      </trkpt>
      <trkpt lat="51.540570000" lon="7.066090000">
        <ele>40</ele>
        <time>2021-04-28T08:41:07Z</time>
      </trkpt>
      <trkpt lat="51.540530000" lon="7.066260000">
        <ele>40</ele>
        <time>2021-04-28T08:41:09Z</time>
      </trkpt>
      <trkpt lat="51.540490000" lon="7.066430000">
        <ele>40</ele>
        <time>2021-04-28T08:41:11Z</time>
      </trkpt>
      <trkpt lat="51.540440000" lon="7.066580000">
        <ele>40</ele>
        <time>2021-04-28T08:41:13Z</time>
      </trkpt>
      <trkpt lat="51.540380000" lon="7.066790000">
        <ele>40</ele>
        <time>2021-04-28T08:41:16Z</time>
      </trkpt>
      <trkpt lat="51.540330000" lon="7.066950000">
        <ele>40</ele>
        <time>2021-04-28T08:41:17Z</time>
      </trkpt>
      <trkpt lat="51.540310000" lon="7.067050000">
        <ele>40</ele>
        <time>2021-04-28T08:41:18Z</time>
      </trkpt>
      <trkpt lat="51.540280000" lon="7.067140000">
        <ele>40</ele>
        <time>2021-04-28T08:41:20Z</time>
      </trkpt>
      <trkpt lat="51.540260000" lon="7.067220000">
        <ele>40</ele>
        <time>2021-04-28T08:41:21Z</time>
      </trkpt>
      <trkpt lat="51.540210000" lon="7.067370000">
        <ele>40</ele>
        <time>2021-04-28T08:41:22Z</time>
      </trkpt>
      <trkpt lat="51.540160000" lon="7.067570000">
        <ele>40</ele>
        <time>2021-04-28T08:41:25Z</time>
      </trkpt>
      <trkpt lat="51.540120000" lon="7.067700000">
        <ele>40</ele>
        <time>2021-04-28T08:41:26Z</time>
      </trkpt>
      <trkpt lat="51.540090000" lon="7.067810000">
        <ele>37</ele>
        <time>2021-04-28T08:41:27Z</time>
      </trkpt>
      <trkpt lat="51.540060000" lon="7.067920000">
        <ele>37</ele>
        <time>2021-04-28T08:41:28Z</time>
      </trkpt>
      <trkpt lat="51.540010000" lon="7.068070000">
        <ele>37</ele>
        <time>2021-04-28T08:41:30Z</time>
      </trkpt>
      <trkpt lat="51.539990000" lon="7.068150000">
        <ele>37</ele>
        <time>2021-04-28T08:41:32Z</time>
      </trkpt>
      <trkpt lat="51.539960000" lon="7.068240000">
        <ele>37</ele>
        <time>2021-04-28T08:41:33Z</time>
      </trkpt>
      <trkpt lat="51.539930000" lon="7.068370000">
        <ele>37</ele>
        <time>2021-04-28T08:41:34Z</time>
      </trkpt>
      <trkpt lat="51.539900000" lon="7.068490000">
        <ele>37</ele>
        <time>2021-04-28T08:41:36Z</time>
      </trkpt>
      <trkpt lat="51.539870000" lon="7.068670000">
        <ele>37</ele>
        <time>2021-04-28T08:41:38Z</time>
      </trkpt>
      <trkpt lat="51.539850000" lon="7.068830000">
        <ele>37</ele>
        <time>2021-04-28T08:41:39Z</time>
      </trkpt>
      <trkpt lat="51.539840000" lon="7.068960000">
        <ele>37</ele>
        <time>2021-04-28T08:41:41Z</time>
      </trkpt>
      <trkpt lat="51.539830000" lon="7.069110000">
        <ele>37</ele>
        <time>2021-04-28T08:41:42Z</time>
      </trkpt>
      <trkpt lat="51.539840000" lon="7.069300000">
        <ele>37</ele>
        <time>2021-04-28T08:41:44Z</time>
      </trkpt>
      <trkpt lat="51.539840000" lon="7.069470000">
        <ele>37</ele>
        <time>2021-04-28T08:41:46Z</time>
      </trkpt>
      <trkpt lat="51.539860000" lon="7.069640000">
        <ele>37</ele>
        <time>2021-04-28T08:41:48Z</time>
      </trkpt>
      <trkpt lat="51.539870000" lon="7.069730000">
        <ele>37</ele>
        <time>2021-04-28T08:41:49Z</time>
      </trkpt>
      <trkpt lat="51.539880000" lon="7.069830000">
        <ele>41</ele>
        <time>2021-04-28T08:41:50Z</time>
      </trkpt>
      <trkpt lat="51.539900000" lon="7.070030000">
        <ele>41</ele>
        <time>2021-04-28T08:41:52Z</time>
      </trkpt>
      <trkpt lat="51.539920000" lon="7.070130000">
        <ele>41</ele>
        <time>2021-04-28T08:41:53Z</time>
      </trkpt>
      <trkpt lat="51.539950000" lon="7.070230000">
        <ele>41</ele>
        <time>2021-04-28T08:41:54Z</time>
      </trkpt>
      <trkpt lat="51.539990000" lon="7.070400000">
        <ele>41</ele>
        <time>2021-04-28T08:41:56Z</time>
      </trkpt>
      <trkpt lat="51.540050000" lon="7.070570000">
        <ele>41</ele>
        <time>2021-04-28T08:41:59Z</time>
      </trkpt>
      <trkpt lat="51.540110000" lon="7.070750000">
        <ele>41</ele>
        <time>2021-04-28T08:42:01Z</time>
      </trkpt>
      <trkpt lat="51.540180000" lon="7.070920000">
        <ele>41</ele>
        <time>2021-04-28T08:42:02Z</time>
      </trkpt>
      <trkpt lat="51.540260000" lon="7.071120000">
        <ele>41</ele>
        <time>2021-04-28T08:42:04Z</time>
      </trkpt>
      <trkpt lat="51.540300000" lon="7.071220000">
        <ele>41</ele>
        <time>2021-04-28T08:42:05Z</time>
      </trkpt>
      <trkpt lat="51.540330000" lon="7.071280000">
        <ele>41</ele>
        <time>2021-04-28T08:42:06Z</time>
      </trkpt>
      <trkpt lat="51.540370000" lon="7.071360000">
        <ele>41</ele>
        <time>2021-04-28T08:42:08Z</time>
      </trkpt>
      <trkpt lat="51.540440000" lon="7.071530000">
        <ele>41</ele>
        <time>2021-04-28T08:42:10Z</time>
      </trkpt>
      <trkpt lat="51.540520000" lon="7.071670000">
        <ele>41</ele>
        <time>2021-04-28T08:42:11Z</time>
      </trkpt>
      <trkpt lat="51.540610000" lon="7.071800000">
        <ele>41</ele>
        <time>2021-04-28T08:42:13Z</time>
      </trkpt>
      <trkpt lat="51.540700000" lon="7.071940000">
        <ele>40</ele>
        <time>2021-04-28T08:42:16Z</time>
      </trkpt>
      <trkpt lat="51.540750000" lon="7.072010000">
        <ele>40</ele>
        <time>2021-04-28T08:42:17Z</time>
      </trkpt>
      <trkpt lat="51.540850000" lon="7.072150000">
        <ele>40</ele>
        <time>2021-04-28T08:42:19Z</time>
      </trkpt>
      <trkpt lat="51.540950000" lon="7.072300000">
        <ele>40</ele>
        <time>2021-04-28T08:42:21Z</time>
      </trkpt>
      <trkpt lat="51.541050000" lon="7.072420000">
        <ele>40</ele>
        <time>2021-04-28T08:42:22Z</time>
      </trkpt>
      <trkpt lat="51.541140000" lon="7.072510000">
        <ele>40</ele>
        <time>2021-04-28T08:42:24Z</time>
      </trkpt>
      <trkpt lat="51.541240000" lon="7.072620000">
        <ele>40</ele>
        <time>2021-04-28T08:42:27Z</time>
      </trkpt>
      <trkpt lat="51.541310000" lon="7.072730000">
        <ele>40</ele>
        <time>2021-04-28T08:42:29Z</time>
      </trkpt>
      <trkpt lat="51.541390000" lon="7.072850000">
        <ele>40</ele>
        <time>2021-04-28T08:42:30Z</time>
      </trkpt>
      <trkpt lat="51.541450000" lon="7.072950000">
        <ele>40</ele>
        <time>2021-04-28T08:42:32Z</time>
      </trkpt>
      <trkpt lat="51.541530000" lon="7.073090000">
        <ele>40</ele>
        <time>2021-04-28T08:42:34Z</time>
      </trkpt>
      <trkpt lat="51.541610000" lon="7.073260000">
        <ele>40</ele>
        <time>2021-04-28T08:42:36Z</time>
      </trkpt>
      <trkpt lat="51.541680000" lon="7.073430000">
        <ele>40</ele>
        <time>2021-04-28T08:42:37Z</time>
      </trkpt>
      <trkpt lat="51.541740000" lon="7.073600000">
        <ele>42</ele>
        <time>2021-04-28T08:42:40Z</time>
      </trkpt>
      <trkpt lat="51.541790000" lon="7.073790000">
        <ele>42</ele>
        <time>2021-04-28T08:42:42Z</time>
      </trkpt>
      <trkpt lat="51.541830000" lon="7.073990000">
        <ele>42</ele>
        <time>2021-04-28T08:42:43Z</time>
      </trkpt>
      <trkpt lat="51.541880000" lon="7.074190000">
        <ele>42</ele>
        <time>2021-04-28T08:42:45Z</time>
      </trkpt>
      <trkpt lat="51.541900000" lon="7.074300000">
        <ele>42</ele>
        <time>2021-04-28T08:42:46Z</time>
      </trkpt>
      <trkpt lat="51.541940000" lon="7.074490000">
        <ele>42</ele>
        <time>2021-04-28T08:42:49Z</time>
      </trkpt>
      <trkpt lat="51.541990000" lon="7.074680000">
        <ele>42</ele>
        <time>2021-04-28T08:42:51Z</time>
      </trkpt>
      <trkpt lat="51.542030000" lon="7.074900000">
        <ele>42</ele>
        <time>2021-04-28T08:42:52Z</time>
      </trkpt>
      <trkpt lat="51.542060000" lon="7.075040000">
        <ele>42</ele>
        <time>2021-04-28T08:42:54Z</time>
      </trkpt>
      <trkpt lat="51.542120000" lon="7.075220000">
        <ele>42</ele>
        <time>2021-04-28T08:42:56Z</time>
      </trkpt>
      <trkpt lat="51.542200000" lon="7.075400000">
        <ele>42</ele>
        <time>2021-04-28T08:42:58Z</time>
      </trkpt>
      <trkpt lat="51.542280000" lon="7.075580000">
        <ele>40</ele>
        <time>2021-04-28T08:42:59Z</time>
      </trkpt>
      <trkpt lat="51.542310000" lon="7.075660000">
        <ele>40</ele>
        <time>2021-04-28T08:43:01Z</time>
      </trkpt>
      <trkpt lat="51.542390000" lon="7.075820000">
        <ele>40</ele>
        <time>2021-04-28T08:43:03Z</time>
      </trkpt>
      <trkpt lat="51.542440000" lon="7.075930000">
        <ele>40</ele>
        <time>2021-04-28T08:43:04Z</time>
      </trkpt>
      <trkpt lat="51.542470000" lon="7.076000000">
        <ele>40</ele>
        <time>2021-04-28T08:43:05Z</time>
      </trkpt>
      <trkpt lat="51.542450000" lon="7.076130000">
        <ele>40</ele>
        <time>2021-04-28T08:43:08Z</time>
      </trkpt>
      <trkpt lat="51.542430000" lon="7.076280000">
        <ele>40</ele>
        <time>2021-04-28T08:43:10Z</time>
      </trkpt>
      <trkpt lat="51.542490000" lon="7.076440000">
        <ele>40</ele>
        <time>2021-04-28T08:43:13Z</time>
      </trkpt>
      <trkpt lat="51.542550000" lon="7.076600000">
        <ele>40</ele>
        <time>2021-04-28T08:43:15Z</time>
      </trkpt>
      <trkpt lat="51.542620000" lon="7.076760000">
        <ele>40</ele>
        <time>2021-04-28T08:43:16Z</time>
      </trkpt>
      <trkpt lat="51.542650000" lon="7.076830000">
        <ele>40</ele>
        <time>2021-04-28T08:43:18Z</time>
      </trkpt>
      <trkpt lat="51.542690000" lon="7.076910000">
        <ele>40</ele>
        <time>2021-04-28T08:43:19Z</time>
      </trkpt>
      <trkpt lat="51.542720000" lon="7.076990000">
        <ele>40</ele>
        <time>2021-04-28T08:43:20Z</time>
      </trkpt>
      <trkpt lat="51.542790000" lon="7.077160000">
        <ele>40</ele>
        <time>2021-04-28T08:43:21Z</time>
      </trkpt>
      <trkpt lat="51.542860000" lon="7.077320000">
        <ele>40</ele>
        <time>2021-04-28T08:43:24Z</time>
      </trkpt>
      <trkpt lat="51.542920000" lon="7.077470000">
        <ele>40</ele>
        <time>2021-04-28T08:43:25Z</time>
      </trkpt>
      <trkpt lat="51.543000000" lon="7.077640000">
        <ele>40</ele>
        <time>2021-04-28T08:43:27Z</time>
      </trkpt>
      <trkpt lat="51.543030000" lon="7.077700000">
        <ele>40</ele>
        <time>2021-04-28T08:43:28Z</time>
      </trkpt>
      <trkpt lat="51.543090000" lon="7.077860000">
        <ele>40</ele>
        <time>2021-04-28T08:43:30Z</time>
      </trkpt>
      <trkpt lat="51.543160000" lon="7.078020000">
        <ele>40</ele>
        <time>2021-04-28T08:43:32Z</time>
      </trkpt>
      <trkpt lat="51.543220000" lon="7.078170000">
        <ele>40</ele>
        <time>2021-04-28T08:43:34Z</time>
      </trkpt>
      <trkpt lat="51.543250000" lon="7.078250000">
        <ele>40</ele>
        <time>2021-04-28T08:43:36Z</time>
      </trkpt>
      <trkpt lat="51.543310000" lon="7.078380000">
        <ele>40</ele>
        <time>2021-04-28T08:43:37Z</time>
      </trkpt>
      <trkpt lat="51.543350000" lon="7.078490000">
        <ele>40</ele>
        <time>2021-04-28T08:43:39Z</time>
      </trkpt>
      <trkpt lat="51.543420000" lon="7.078640000">
        <ele>40</ele>
        <time>2021-04-28T08:43:40Z</time>
      </trkpt>
      <trkpt lat="51.543450000" lon="7.078730000">
        <ele>40</ele>
        <time>2021-04-28T08:43:41Z</time>
      </trkpt>
      <trkpt lat="51.543480000" lon="7.078810000">
        <ele>40</ele>
        <time>2021-04-28T08:43:42Z</time>
      </trkpt>
      <trkpt lat="51.543520000" lon="7.078890000">
        <ele>41</ele>
        <time>2021-04-28T08:43:44Z</time>
      </trkpt>
      <trkpt lat="51.543580000" lon="7.079030000">
        <ele>41</ele>
        <time>2021-04-28T08:43:45Z</time>
      </trkpt>
      <trkpt lat="51.543650000" lon="7.079180000">
        <ele>41</ele>
        <time>2021-04-28T08:43:47Z</time>
      </trkpt>
      <trkpt lat="51.543680000" lon="7.079260000">
        <ele>41</ele>
        <time>2021-04-28T08:43:48Z</time>
      </trkpt>
      <trkpt lat="51.543730000" lon="7.079360000">
        <ele>41</ele>
        <time>2021-04-28T08:43:50Z</time>
      </trkpt>
      <trkpt lat="51.543780000" lon="7.079490000">
        <ele>41</ele>
        <time>2021-04-28T08:43:51Z</time>
      </trkpt>
      <trkpt lat="51.543810000" lon="7.079570000">
        <ele>41</ele>
        <time>2021-04-28T08:43:52Z</time>
      </trkpt>
      <trkpt lat="51.543850000" lon="7.079650000">
        <ele>41</ele>
        <time>2021-04-28T08:43:53Z</time>
      </trkpt>
      <trkpt lat="51.543920000" lon="7.079810000">
        <ele>41</ele>
        <time>2021-04-28T08:43:55Z</time>
      </trkpt>
      <trkpt lat="51.543980000" lon="7.079960000">
        <ele>41</ele>
        <time>2021-04-28T08:43:57Z</time>
      </trkpt>
      <trkpt lat="51.544010000" lon="7.080060000">
        <ele>41</ele>
        <time>2021-04-28T08:43:59Z</time>
      </trkpt>
      <trkpt lat="51.544080000" lon="7.080220000">
        <ele>41</ele>
        <time>2021-04-28T08:44:01Z</time>
      </trkpt>
      <trkpt lat="51.544140000" lon="7.080380000">
        <ele>41</ele>
        <time>2021-04-28T08:44:02Z</time>
      </trkpt>
      <trkpt lat="51.544200000" lon="7.080550000">
        <ele>42</ele>
        <time>2021-04-28T08:44:05Z</time>
      </trkpt>
      <trkpt lat="51.544250000" lon="7.080710000">
        <ele>42</ele>
        <time>2021-04-28T08:44:06Z</time>
      </trkpt>
      <trkpt lat="51.544310000" lon="7.080880000">
        <ele>42</ele>
        <time>2021-04-28T08:44:08Z</time>
      </trkpt>
      <trkpt lat="51.544350000" lon="7.081000000">
        <ele>42</ele>
        <time>2021-04-28T08:44:09Z</time>
      </trkpt>
      <trkpt lat="51.544400000" lon="7.081160000">
        <ele>42</ele>
        <time>2021-04-28T08:44:11Z</time>
      </trkpt>
      <trkpt lat="51.544430000" lon="7.081240000">
        <ele>42</ele>
        <time>2021-04-28T08:44:12Z</time>
      </trkpt>
      <trkpt lat="51.544460000" lon="7.081320000">
        <ele>42</ele>
        <time>2021-04-28T08:44:14Z</time>
      </trkpt>
      <trkpt lat="51.544480000" lon="7.081400000">
        <ele>42</ele>
        <time>2021-04-28T08:44:15Z</time>
      </trkpt>
      <trkpt lat="51.544540000" lon="7.081560000">
        <ele>42</ele>
        <time>2021-04-28T08:44:16Z</time>
      </trkpt>
      <trkpt lat="51.544560000" lon="7.081640000">
        <ele>42</ele>
        <time>2021-04-28T08:44:18Z</time>
      </trkpt>
      <trkpt lat="51.544620000" lon="7.081800000">
        <ele>42</ele>
        <time>2021-04-28T08:44:20Z</time>
      </trkpt>
      <trkpt lat="51.544670000" lon="7.081960000">
        <ele>42</ele>
        <time>2021-04-28T08:44:22Z</time>
      </trkpt>
      <trkpt lat="51.544730000" lon="7.082130000">
        <ele>42</ele>
        <time>2021-04-28T08:44:23Z</time>
      </trkpt>
      <trkpt lat="51.544780000" lon="7.082290000">
        <ele>42</ele>
        <time>2021-04-28T08:44:26Z</time>
      </trkpt>
      <trkpt lat="51.544810000" lon="7.082420000">
        <ele>46</ele>
        <time>2021-04-28T08:44:27Z</time>
      </trkpt>
      <trkpt lat="51.544840000" lon="7.082620000">
        <ele>46</ele>
        <time>2021-04-28T08:44:29Z</time>
      </trkpt>
      <trkpt lat="51.544880000" lon="7.082780000">
        <ele>46</ele>
        <time>2021-04-28T08:44:32Z</time>
      </trkpt>
      <trkpt lat="51.544920000" lon="7.082940000">
        <ele>46</ele>
        <time>2021-04-28T08:44:34Z</time>
      </trkpt>
      <trkpt lat="51.544940000" lon="7.083090000">
        <ele>46</ele>
        <time>2021-04-28T08:44:36Z</time>
      </trkpt>
      <trkpt lat="51.544960000" lon="7.083210000">
        <ele>46</ele>
        <time>2021-04-28T08:44:37Z</time>
      </trkpt>
      <trkpt lat="51.544990000" lon="7.083330000">
        <ele>46</ele>
        <time>2021-04-28T08:44:39Z</time>
      </trkpt>
      <trkpt lat="51.545010000" lon="7.083430000">
        <ele>46</ele>
        <time>2021-04-28T08:44:40Z</time>
      </trkpt>
      <trkpt lat="51.545040000" lon="7.083520000">
        <ele>46</ele>
        <time>2021-04-28T08:44:41Z</time>
      </trkpt>
      <trkpt lat="51.545080000" lon="7.083710000">
        <ele>46</ele>
        <time>2021-04-28T08:44:43Z</time>
      </trkpt>
      <trkpt lat="51.545100000" lon="7.083800000">
        <ele>46</ele>
        <time>2021-04-28T08:44:44Z</time>
      </trkpt>
      <trkpt lat="51.545140000" lon="7.083990000">
        <ele>46</ele>
        <time>2021-04-28T08:44:46Z</time>
      </trkpt>
      <trkpt lat="51.545180000" lon="7.084170000">
        <ele>46</ele>
        <time>2021-04-28T08:44:48Z</time>
      </trkpt>
      <trkpt lat="51.545200000" lon="7.084280000">
        <ele>46</ele>
        <time>2021-04-28T08:44:50Z</time>
      </trkpt>
      <trkpt lat="51.545240000" lon="7.084470000">
        <ele>43</ele>
        <time>2021-04-28T08:44:52Z</time>
      </trkpt>
      <trkpt lat="51.545270000" lon="7.084560000">
        <ele>43</ele>
        <time>2021-04-28T08:44:53Z</time>
      </trkpt>
      <trkpt lat="51.545300000" lon="7.084710000">
        <ele>43</ele>
        <time>2021-04-28T08:44:54Z</time>
      </trkpt>
      <trkpt lat="51.545340000" lon="7.084870000">
        <ele>43</ele>
        <time>2021-04-28T08:44:57Z</time>
      </trkpt>
      <trkpt lat="51.545390000" lon="7.085060000">
        <ele>43</ele>
        <time>2021-04-28T08:44:59Z</time>
      </trkpt>
      <trkpt lat="51.545430000" lon="7.085230000">
        <ele>43</ele>
        <time>2021-04-28T08:45:00Z</time>
      </trkpt>
      <trkpt lat="51.545450000" lon="7.085320000">
        <ele>43</ele>
        <time>2021-04-28T08:45:02Z</time>
      </trkpt>
      <trkpt lat="51.545480000" lon="7.085470000">
        <ele>43</ele>
        <time>2021-04-28T08:45:03Z</time>
      </trkpt>
      <trkpt lat="51.545500000" lon="7.085580000">
        <ele>43</ele>
        <time>2021-04-28T08:45:05Z</time>
      </trkpt>
      <trkpt lat="51.545530000" lon="7.085730000">
        <ele>43</ele>
        <time>2021-04-28T08:45:06Z</time>
      </trkpt>
      <trkpt lat="51.545570000" lon="7.085890000">
        <ele>43</ele>
        <time>2021-04-28T08:45:08Z</time>
      </trkpt>
      <trkpt lat="51.545590000" lon="7.085990000">
        <ele>43</ele>
        <time>2021-04-28T08:45:09Z</time>
      </trkpt>
      <trkpt lat="51.545610000" lon="7.086100000">
        <ele>43</ele>
        <time>2021-04-28T08:45:10Z</time>
      </trkpt>
      <trkpt lat="51.545630000" lon="7.086180000">
        <ele>43</ele>
        <time>2021-04-28T08:45:12Z</time>
      </trkpt>
      <trkpt lat="51.545660000" lon="7.086360000">
        <ele>42</ele>
        <time>2021-04-28T08:45:13Z</time>
      </trkpt>
      <trkpt lat="51.545700000" lon="7.086540000">
        <ele>42</ele>
        <time>2021-04-28T08:45:15Z</time>
      </trkpt>
      <trkpt lat="51.545720000" lon="7.086630000">
        <ele>42</ele>
        <time>2021-04-28T08:45:17Z</time>
      </trkpt>
      <trkpt lat="51.545750000" lon="7.086800000">
        <ele>42</ele>
        <time>2021-04-28T08:45:19Z</time>
      </trkpt>
      <trkpt lat="51.545780000" lon="7.086980000">
        <ele>42</ele>
        <time>2021-04-28T08:45:20Z</time>
      </trkpt>
      <trkpt lat="51.545790000" lon="7.087060000">
        <ele>42</ele>
        <time>2021-04-28T08:45:21Z</time>
      </trkpt>
      <trkpt lat="51.545820000" lon="7.087220000">
        <ele>42</ele>
        <time>2021-04-28T08:45:24Z</time>
      </trkpt>
      <trkpt lat="51.545850000" lon="7.087410000">
        <ele>42</ele>
        <time>2021-04-28T08:45:26Z</time>
      </trkpt>
      <trkpt lat="51.545880000" lon="7.087580000">
        <ele>42</ele>
        <time>2021-04-28T08:45:27Z</time>
      </trkpt>
      <trkpt lat="51.545910000" lon="7.087750000">
        <ele>42</ele>
        <time>2021-04-28T08:45:29Z</time>
      </trkpt>
      <trkpt lat="51.545920000" lon="7.087860000">
        <ele>42</ele>
        <time>2021-04-28T08:45:31Z</time>
      </trkpt>
      <trkpt lat="51.545940000" lon="7.087940000">
        <ele>42</ele>
        <time>2021-04-28T08:45:32Z</time>
      </trkpt>
      <trkpt lat="51.545970000" lon="7.088110000">
        <ele>42</ele>
        <time>2021-04-28T08:45:34Z</time>
      </trkpt>
      <trkpt lat="51.546000000" lon="7.088290000">
        <ele>41</ele>
        <time>2021-04-28T08:45:36Z</time>
      </trkpt>
      <trkpt lat="51.546030000" lon="7.088470000">
        <ele>41</ele>
        <time>2021-04-28T08:45:37Z</time>
      </trkpt>
      <trkpt lat="51.546040000" lon="7.088560000">
        <ele>41</ele>
        <time>2021-04-28T08:45:38Z</time>
      </trkpt>
      <trkpt lat="51.546070000" lon="7.088740000">
        <ele>41</ele>
        <time>2021-04-28T08:45:40Z</time>
      </trkpt>
      <trkpt lat="51.546090000" lon="7.088830000">
        <ele>41</ele>
        <time>2021-04-28T08:45:42Z</time>
      </trkpt>
      <trkpt lat="51.546110000" lon="7.089010000">
        <ele>41</ele>
        <time>2021-04-28T08:45:44Z</time>
      </trkpt>
      <trkpt lat="51.546130000" lon="7.089090000">
        <ele>41</ele>
        <time>2021-04-28T08:45:45Z</time>
      </trkpt>
      <trkpt lat="51.546150000" lon="7.089250000">
        <ele>41</ele>
        <time>2021-04-28T08:45:47Z</time>
      </trkpt>
      <trkpt lat="51.546170000" lon="7.089380000">
        <ele>41</ele>
        <time>2021-04-28T08:45:48Z</time>
      </trkpt>
      <trkpt lat="51.546190000" lon="7.089500000">
        <ele>41</ele>
        <time>2021-04-28T08:45:50Z</time>
      </trkpt>
      <trkpt lat="51.546210000" lon="7.089580000">
        <ele>41</ele>
        <time>2021-04-28T08:45:52Z</time>
      </trkpt>
      <trkpt lat="51.546230000" lon="7.089700000">
        <ele>41</ele>
        <time>2021-04-28T08:45:55Z</time>
      </trkpt>
      <trkpt lat="51.546240000" lon="7.089810000">
        <ele>41</ele>
        <time>2021-04-28T08:45:58Z</time>
      </trkpt>
      <trkpt lat="51.546260000" lon="7.089890000">
        <ele>41</ele>
        <time>2021-04-28T08:46:01Z</time>
      </trkpt>
      <trkpt lat="51.546270000" lon="7.089980000">
        <ele>41</ele>
        <time>2021-04-28T08:46:05Z</time>
      </trkpt>
      <trkpt lat="51.546280000" lon="7.090060000">
        <ele>41</ele>
        <time>2021-04-28T08:46:44Z</time>
      </trkpt>
      <trkpt lat="51.546290000" lon="7.090140000">
        <ele>41</ele>
        <time>2021-04-28T08:46:49Z</time>
      </trkpt>
      <trkpt lat="51.546320000" lon="7.090210000">
        <ele>41</ele>
        <time>2021-04-28T08:46:54Z</time>
      </trkpt>
      <trkpt lat="51.546350000" lon="7.090280000">
        <ele>41</ele>
        <time>2021-04-28T08:46:58Z</time>
      </trkpt>
      <trkpt lat="51.546390000" lon="7.090430000">
        <ele>41</ele>
        <time>2021-04-28T08:47:01Z</time>
      </trkpt>
      <trkpt lat="51.546400000" lon="7.090560000">
        <ele>41</ele>
        <time>2021-04-28T08:47:04Z</time>
      </trkpt>
      <trkpt lat="51.546400000" lon="7.090720000">
        <ele>41</ele>
        <time>2021-04-28T08:47:06Z</time>
      </trkpt>
      <trkpt lat="51.546410000" lon="7.090890000">
        <ele>41</ele>
        <time>2021-04-28T08:47:08Z</time>
      </trkpt>
      <trkpt lat="51.546440000" lon="7.091070000">
        <ele>41</ele>
        <time>2021-04-28T08:47:10Z</time>
      </trkpt>
      <trkpt lat="51.546460000" lon="7.091240000">
        <ele>41</ele>
        <time>2021-04-28T08:47:11Z</time>
      </trkpt>
      <trkpt lat="51.546490000" lon="7.091460000">
        <ele>41</ele>
        <time>2021-04-28T08:47:13Z</time>
      </trkpt>
      <trkpt lat="51.546500000" lon="7.091540000">
        <ele>40</ele>
        <time>2021-04-28T08:47:15Z</time>
      </trkpt>
      <trkpt lat="51.546540000" lon="7.091710000">
        <ele>40</ele>
        <time>2021-04-28T08:47:16Z</time>
      </trkpt>
      <trkpt lat="51.546560000" lon="7.091790000">
        <ele>40</ele>
        <time>2021-04-28T08:47:18Z</time>
      </trkpt>
      <trkpt lat="51.546580000" lon="7.091870000">
        <ele>40</ele>
        <time>2021-04-28T08:47:19Z</time>
      </trkpt>
      <trkpt lat="51.546600000" lon="7.091950000">
        <ele>40</ele>
        <time>2021-04-28T08:47:20Z</time>
      </trkpt>
      <trkpt lat="51.546620000" lon="7.092120000">
        <ele>40</ele>
        <time>2021-04-28T08:47:21Z</time>
      </trkpt>
      <trkpt lat="51.546640000" lon="7.092360000">
        <ele>40</ele>
        <time>2021-04-28T08:47:24Z</time>
      </trkpt>
      <trkpt lat="51.546660000" lon="7.092550000">
        <ele>40</ele>
        <time>2021-04-28T08:47:26Z</time>
      </trkpt>
      <trkpt lat="51.546680000" lon="7.092750000">
        <ele>40</ele>
        <time>2021-04-28T08:47:27Z</time>
      </trkpt>
      <trkpt lat="51.546710000" lon="7.092940000">
        <ele>40</ele>
        <time>2021-04-28T08:47:30Z</time>
      </trkpt>
      <trkpt lat="51.546730000" lon="7.093120000">
        <ele>40</ele>
        <time>2021-04-28T08:47:31Z</time>
      </trkpt>
      <trkpt lat="51.546760000" lon="7.093310000">
        <ele>40</ele>
        <time>2021-04-28T08:47:33Z</time>
      </trkpt>
      <trkpt lat="51.546790000" lon="7.093420000">
        <ele>40</ele>
        <time>2021-04-28T08:47:34Z</time>
      </trkpt>
      <trkpt lat="51.546820000" lon="7.093590000">
        <ele>41</ele>
        <time>2021-04-28T08:47:36Z</time>
      </trkpt>
      <trkpt lat="51.546830000" lon="7.093670000">
        <ele>41</ele>
        <time>2021-04-28T08:47:37Z</time>
      </trkpt>
      <trkpt lat="51.546840000" lon="7.093760000">
        <ele>41</ele>
        <time>2021-04-28T08:47:38Z</time>
      </trkpt>
      <trkpt lat="51.546850000" lon="7.093840000">
        <ele>41</ele>
        <time>2021-04-28T08:47:40Z</time>
      </trkpt>
      <trkpt lat="51.546880000" lon="7.094030000">
        <ele>41</ele>
        <time>2021-04-28T08:47:42Z</time>
      </trkpt>
      <trkpt lat="51.546910000" lon="7.094200000">
        <ele>41</ele>
        <time>2021-04-28T08:47:43Z</time>
      </trkpt>
      <trkpt lat="51.546930000" lon="7.094290000">
        <ele>41</ele>
        <time>2021-04-28T08:47:44Z</time>
      </trkpt>
      <trkpt lat="51.546960000" lon="7.094460000">
        <ele>41</ele>
        <time>2021-04-28T08:47:47Z</time>
      </trkpt>
      <trkpt lat="51.547000000" lon="7.094650000">
        <ele>41</ele>
        <time>2021-04-28T08:47:48Z</time>
      </trkpt>
      <trkpt lat="51.547030000" lon="7.094840000">
        <ele>41</ele>
        <time>2021-04-28T08:47:51Z</time>
      </trkpt>
      <trkpt lat="51.547060000" lon="7.095010000">
        <ele>41</ele>
        <time>2021-04-28T08:47:52Z</time>
      </trkpt>
      <trkpt lat="51.547090000" lon="7.095230000">
        <ele>41</ele>
        <time>2021-04-28T08:47:54Z</time>
      </trkpt>
      <trkpt lat="51.547120000" lon="7.095380000">
        <ele>41</ele>
        <time>2021-04-28T08:47:56Z</time>
      </trkpt>
      <trkpt lat="51.547140000" lon="7.095500000">
        <ele>41</ele>
        <time>2021-04-28T08:47:57Z</time>
      </trkpt>
      <trkpt lat="51.547150000" lon="7.095590000">
        <ele>45</ele>
        <time>2021-04-28T08:47:58Z</time>
      </trkpt>
      <trkpt lat="51.547180000" lon="7.095760000">
        <ele>45</ele>
        <time>2021-04-28T08:48:00Z</time>
      </trkpt>
      <trkpt lat="51.547190000" lon="7.095850000">
        <ele>45</ele>
        <time>2021-04-28T08:48:01Z</time>
      </trkpt>
      <trkpt lat="51.547210000" lon="7.095940000">
        <ele>45</ele>
        <time>2021-04-28T08:48:03Z</time>
      </trkpt>
      <trkpt lat="51.547250000" lon="7.096130000">
        <ele>45</ele>
        <time>2021-04-28T08:48:04Z</time>
      </trkpt>
      <trkpt lat="51.547260000" lon="7.096220000">
        <ele>45</ele>
        <time>2021-04-28T08:48:05Z</time>
      </trkpt>
      <trkpt lat="51.547280000" lon="7.096310000">
        <ele>45</ele>
        <time>2021-04-28T08:48:06Z</time>
      </trkpt>
      <trkpt lat="51.547310000" lon="7.096390000">
        <ele>45</ele>
        <time>2021-04-28T08:48:08Z</time>
      </trkpt>
      <trkpt lat="51.547360000" lon="7.096570000">
        <ele>45</ele>
        <time>2021-04-28T08:48:09Z</time>
      </trkpt>
      <trkpt lat="51.547380000" lon="7.096650000">
        <ele>45</ele>
        <time>2021-04-28T08:48:11Z</time>
      </trkpt>
      <trkpt lat="51.547390000" lon="7.096850000">
        <ele>45</ele>
        <time>2021-04-28T08:48:12Z</time>
      </trkpt>
      <trkpt lat="51.547400000" lon="7.097120000">
        <ele>45</ele>
        <time>2021-04-28T08:48:14Z</time>
      </trkpt>
      <trkpt lat="51.547400000" lon="7.097200000">
        <ele>45</ele>
        <time>2021-04-28T08:48:15Z</time>
      </trkpt>
      <trkpt lat="51.547400000" lon="7.097280000">
        <ele>45</ele>
        <time>2021-04-28T08:48:17Z</time>
      </trkpt>
      <trkpt lat="51.547430000" lon="7.097450000">
        <ele>38</ele>
        <time>2021-04-28T08:48:18Z</time>
      </trkpt>
      <trkpt lat="51.547440000" lon="7.097590000">
        <ele>38</ele>
        <time>2021-04-28T08:48:20Z</time>
      </trkpt>
      <trkpt lat="51.547460000" lon="7.097700000">
        <ele>38</ele>
        <time>2021-04-28T08:48:22Z</time>
      </trkpt>
      <trkpt lat="51.547490000" lon="7.097870000">
        <ele>38</ele>
        <time>2021-04-28T08:48:23Z</time>
      </trkpt>
      <trkpt lat="51.547500000" lon="7.097950000">
        <ele>38</ele>
        <time>2021-04-28T08:48:25Z</time>
      </trkpt>
      <trkpt lat="51.547520000" lon="7.098130000">
        <ele>38</ele>
        <time>2021-04-28T08:48:26Z</time>
      </trkpt>
      <trkpt lat="51.547540000" lon="7.098320000">
        <ele>38</ele>
        <time>2021-04-28T08:48:28Z</time>
      </trkpt>
      <trkpt lat="51.547560000" lon="7.098420000">
        <ele>38</ele>
        <time>2021-04-28T08:48:30Z</time>
      </trkpt>
      <trkpt lat="51.547590000" lon="7.098620000">
        <ele>38</ele>
        <time>2021-04-28T08:48:32Z</time>
      </trkpt>
      <trkpt lat="51.547620000" lon="7.098780000">
        <ele>38</ele>
        <time>2021-04-28T08:48:33Z</time>
      </trkpt>
      <trkpt lat="51.547630000" lon="7.098880000">
        <ele>38</ele>
        <time>2021-04-28T08:48:34Z</time>
      </trkpt>
      <trkpt lat="51.547650000" lon="7.099000000">
        <ele>38</ele>
        <time>2021-04-28T08:48:35Z</time>
      </trkpt>
      <trkpt lat="51.547660000" lon="7.099080000">
        <ele>38</ele>
        <time>2021-04-28T08:48:36Z</time>
      </trkpt>
      <trkpt lat="51.547670000" lon="7.099150000">
        <ele>42</ele>
        <time>2021-04-28T08:48:38Z</time>
      </trkpt>
      <trkpt lat="51.547700000" lon="7.099340000">
        <ele>42</ele>
        <time>2021-04-28T08:48:40Z</time>
      </trkpt>
      <trkpt lat="51.547740000" lon="7.099500000">
        <ele>42</ele>
        <time>2021-04-28T08:48:41Z</time>
      </trkpt>
      <trkpt lat="51.547750000" lon="7.099590000">
        <ele>42</ele>
        <time>2021-04-28T08:48:42Z</time>
      </trkpt>
      <trkpt lat="51.547760000" lon="7.099680000">
        <ele>42</ele>
        <time>2021-04-28T08:48:44Z</time>
      </trkpt>
      <trkpt lat="51.547770000" lon="7.099770000">
        <ele>42</ele>
        <time>2021-04-28T08:48:45Z</time>
      </trkpt>
      <trkpt lat="51.547790000" lon="7.099950000">
        <ele>42</ele>
        <time>2021-04-28T08:48:46Z</time>
      </trkpt>
      <trkpt lat="51.547810000" lon="7.100040000">
        <ele>42</ele>
        <time>2021-04-28T08:48:48Z</time>
      </trkpt>
      <trkpt lat="51.547820000" lon="7.100130000">
        <ele>42</ele>
        <time>2021-04-28T08:48:49Z</time>
      </trkpt>
      <trkpt lat="51.547850000" lon="7.100320000">
        <ele>42</ele>
        <time>2021-04-28T08:48:50Z</time>
      </trkpt>
      <trkpt lat="51.547870000" lon="7.100480000">
        <ele>42</ele>
        <time>2021-04-28T08:48:52Z</time>
      </trkpt>
      <trkpt lat="51.547890000" lon="7.100610000">
        <ele>42</ele>
        <time>2021-04-28T08:48:53Z</time>
      </trkpt>
      <trkpt lat="51.547920000" lon="7.100790000">
        <ele>42</ele>
        <time>2021-04-28T08:48:55Z</time>
      </trkpt>
      <trkpt lat="51.547930000" lon="7.100910000">
        <ele>42</ele>
        <time>2021-04-28T08:48:57Z</time>
      </trkpt>
      <trkpt lat="51.547960000" lon="7.101100000">
        <ele>42</ele>
        <time>2021-04-28T08:48:58Z</time>
      </trkpt>
      <trkpt lat="51.547970000" lon="7.101190000">
        <ele>42</ele>
        <time>2021-04-28T08:48:59Z</time>
      </trkpt>
      <trkpt lat="51.547980000" lon="7.101260000">
        <ele>42</ele>
        <time>2021-04-28T08:49:01Z</time>
      </trkpt>
      <trkpt lat="51.548000000" lon="7.101430000">
        <ele>42</ele>
        <time>2021-04-28T08:49:02Z</time>
      </trkpt>
      <trkpt lat="51.548030000" lon="7.101600000">
        <ele>42</ele>
        <time>2021-04-28T08:49:05Z</time>
      </trkpt>
      <trkpt lat="51.548050000" lon="7.101770000">
        <ele>42</ele>
        <time>2021-04-28T08:49:07Z</time>
      </trkpt>
      <trkpt lat="51.548080000" lon="7.101940000">
        <ele>42</ele>
        <time>2021-04-28T08:49:08Z</time>
      </trkpt>
      <trkpt lat="51.548090000" lon="7.102030000">
        <ele>42</ele>
        <time>2021-04-28T08:49:09Z</time>
      </trkpt>
      <trkpt lat="51.548120000" lon="7.102210000">
        <ele>42</ele>
        <time>2021-04-28T08:49:12Z</time>
      </trkpt>
      <trkpt lat="51.548150000" lon="7.102380000">
        <ele>42</ele>
        <time>2021-04-28T08:49:13Z</time>
      </trkpt>
      <trkpt lat="51.548180000" lon="7.102580000">
        <ele>42</ele>
        <time>2021-04-28T08:49:15Z</time>
      </trkpt>
      <trkpt lat="51.548190000" lon="7.102700000">
        <ele>42</ele>
        <time>2021-04-28T08:49:16Z</time>
      </trkpt>
      <trkpt lat="51.548220000" lon="7.102860000">
        <ele>42</ele>
        <time>2021-04-28T08:49:18Z</time>
      </trkpt>
      <trkpt lat="51.548230000" lon="7.102940000">
        <ele>42</ele>
        <time>2021-04-28T08:49:20Z</time>
      </trkpt>
      <trkpt lat="51.548250000" lon="7.103080000">
        <ele>46</ele>
        <time>2021-04-28T08:49:21Z</time>
      </trkpt>
      <trkpt lat="51.548260000" lon="7.103170000">
        <ele>46</ele>
        <time>2021-04-28T08:49:23Z</time>
      </trkpt>
      <trkpt lat="51.548280000" lon="7.103350000">
        <ele>46</ele>
        <time>2021-04-28T08:49:24Z</time>
      </trkpt>
      <trkpt lat="51.548300000" lon="7.103450000">
        <ele>46</ele>
        <time>2021-04-28T08:49:25Z</time>
      </trkpt>
      <trkpt lat="51.548310000" lon="7.103540000">
        <ele>46</ele>
        <time>2021-04-28T08:49:27Z</time>
      </trkpt>
      <trkpt lat="51.548330000" lon="7.103730000">
        <ele>46</ele>
        <time>2021-04-28T08:49:28Z</time>
      </trkpt>
      <trkpt lat="51.548350000" lon="7.103820000">
        <ele>46</ele>
        <time>2021-04-28T08:49:30Z</time>
      </trkpt>
      <trkpt lat="51.548370000" lon="7.104000000">
        <ele>46</ele>
        <time>2021-04-28T08:49:32Z</time>
      </trkpt>
      <trkpt lat="51.548400000" lon="7.104170000">
        <ele>46</ele>
        <time>2021-04-28T08:49:34Z</time>
      </trkpt>
      <trkpt lat="51.548430000" lon="7.104320000">
        <ele>46</ele>
        <time>2021-04-28T08:49:35Z</time>
      </trkpt>
      <trkpt lat="51.548470000" lon="7.104500000">
        <ele>40</ele>
        <time>2021-04-28T08:49:37Z</time>
      </trkpt>
      <trkpt lat="51.548560000" lon="7.104580000">
        <ele>40</ele>
        <time>2021-04-28T08:49:39Z</time>
      </trkpt>
      <trkpt lat="51.548630000" lon="7.104570000">
        <ele>40</ele>
        <time>2021-04-28T08:49:41Z</time>
      </trkpt>
      <trkpt lat="51.548690000" lon="7.104550000">
        <ele>40</ele>
        <time>2021-04-28T08:49:43Z</time>
      </trkpt>
      <trkpt lat="51.548770000" lon="7.104520000">
        <ele>40</ele>
        <time>2021-04-28T08:49:44Z</time>
      </trkpt>
      <trkpt lat="51.548930000" lon="7.104420000">
        <ele>40</ele>
        <time>2021-04-28T08:49:45Z</time>
      </trkpt>
      <trkpt lat="51.549020000" lon="7.104360000">
        <ele>40</ele>
        <time>2021-04-28T08:49:47Z</time>
      </trkpt>
      <trkpt lat="51.549100000" lon="7.104310000">
        <ele>39</ele>
        <time>2021-04-28T08:49:48Z</time>
      </trkpt>
      <trkpt lat="51.549240000" lon="7.104260000">
        <ele>39</ele>
        <time>2021-04-28T08:49:50Z</time>
      </trkpt>
      <trkpt lat="51.549370000" lon="7.104170000">
        <ele>39</ele>
        <time>2021-04-28T08:49:51Z</time>
      </trkpt>
      <trkpt lat="51.549430000" lon="7.104130000">
        <ele>39</ele>
        <time>2021-04-28T08:49:53Z</time>
      </trkpt>
      <trkpt lat="51.549510000" lon="7.104000000">
        <ele>39</ele>
        <time>2021-04-28T08:49:54Z</time>
      </trkpt>
      <trkpt lat="51.549540000" lon="7.103840000">
        <ele>39</ele>
        <time>2021-04-28T08:49:56Z</time>
      </trkpt>
      <trkpt lat="51.549590000" lon="7.103750000">
        <ele>39</ele>
        <time>2021-04-28T08:49:59Z</time>
      </trkpt>
      <trkpt lat="51.549640000" lon="7.103840000">
        <ele>39</ele>
        <time>2021-04-28T08:50:10Z</time>
      </trkpt>
      <trkpt lat="51.549620000" lon="7.103970000">
        <ele>44</ele>
        <time>2021-04-28T08:50:14Z</time>
      </trkpt>
      <trkpt lat="51.549600000" lon="7.104060000">
        <ele>44</ele>
        <time>2021-04-28T08:50:15Z</time>
      </trkpt>
      <trkpt lat="51.549560000" lon="7.104160000">
        <ele>44</ele>
        <time>2021-04-28T08:50:17Z</time>
      </trkpt>
      <trkpt lat="51.549540000" lon="7.104230000">
        <ele>44</ele>
        <time>2021-04-28T08:50:19Z</time>
      </trkpt>
      <trkpt lat="51.549510000" lon="7.104300000">
        <ele>44</ele>
        <time>2021-04-28T08:50:21Z</time>
      </trkpt>
      <trkpt lat="51.549520000" lon="7.104390000">
        <ele>44</ele>
        <time>2021-04-28T08:50:24Z</time>
      </trkpt>
      <trkpt lat="51.549550000" lon="7.104470000">
        <ele>44</ele>
        <time>2021-04-28T08:50:26Z</time>
      </trkpt>
      <trkpt lat="51.549610000" lon="7.104600000">
        <ele>44</ele>
        <time>2021-04-28T08:50:28Z</time>
      </trkpt>
      <trkpt lat="51.549620000" lon="7.104680000">
        <ele>44</ele>
        <time>2021-04-28T08:50:31Z</time>
      </trkpt>
      <trkpt lat="51.549620000" lon="7.104780000">
        <ele>44</ele>
        <time>2021-04-28T08:50:34Z</time>
      </trkpt>
      <trkpt lat="51.549630000" lon="7.104880000">
        <ele>44</ele>
        <time>2021-04-28T08:50:35Z</time>
      </trkpt>
      <trkpt lat="51.549630000" lon="7.104980000">
        <ele>44</ele>
        <time>2021-04-28T08:50:53Z</time>
      </trkpt>
      <trkpt lat="51.549630000" lon="7.105110000">
        <ele>44</ele>
        <time>2021-04-28T08:50:56Z</time>
      </trkpt>
      <trkpt lat="51.549630000" lon="7.105230000">
        <ele>44</ele>
        <time>2021-04-28T08:50:57Z</time>
      </trkpt>
      <trkpt lat="51.549650000" lon="7.105300000">
        <ele>44</ele>
        <time>2021-04-28T08:50:59Z</time>
      </trkpt>
      <trkpt lat="51.549700000" lon="7.105350000">
        <ele>44</ele>
        <time>2021-04-28T08:51:19Z</time>
      </trkpt>
      <trkpt lat="51.549760000" lon="7.105480000">
        <ele>44</ele>
        <time>2021-04-28T08:51:23Z</time>
      </trkpt>
      <trkpt lat="51.549750000" lon="7.105570000">
        <ele>44</ele>
        <time>2021-04-28T08:51:24Z</time>
      </trkpt>
      <trkpt lat="51.549770000" lon="7.105720000">
        <ele>42</ele>
        <time>2021-04-28T08:51:27Z</time>
      </trkpt>
      <trkpt lat="51.549790000" lon="7.105790000">
        <ele>42</ele>
        <time>2021-04-28T08:51:28Z</time>
      </trkpt>
      <trkpt lat="51.549800000" lon="7.105860000">
        <ele>42</ele>
        <time>2021-04-28T08:51:29Z</time>
      </trkpt>
      <trkpt lat="51.549810000" lon="7.106040000">
        <ele>42</ele>
        <time>2021-04-28T08:51:30Z</time>
      </trkpt>
      <trkpt lat="51.549820000" lon="7.106220000">
        <ele>42</ele>
        <time>2021-04-28T08:51:33Z</time>
      </trkpt>
      <trkpt lat="51.549830000" lon="7.106400000">
        <ele>42</ele>
        <time>2021-04-28T08:51:35Z</time>
      </trkpt>
      <trkpt lat="51.549840000" lon="7.106580000">
        <ele>42</ele>
        <time>2021-04-28T08:51:36Z</time>
      </trkpt>
      <trkpt lat="51.549850000" lon="7.106740000">
        <ele>42</ele>
        <time>2021-04-28T08:51:38Z</time>
      </trkpt>
      <trkpt lat="51.549860000" lon="7.106960000">
        <ele>42</ele>
        <time>2021-04-28T08:51:40Z</time>
      </trkpt>
      <trkpt lat="51.549860000" lon="7.107040000">
        <ele>42</ele>
        <time>2021-04-28T08:51:41Z</time>
      </trkpt>
      <trkpt lat="51.549850000" lon="7.107120000">
        <ele>42</ele>
        <time>2021-04-28T08:51:43Z</time>
      </trkpt>
      <trkpt lat="51.549840000" lon="7.107320000">
        <ele>42</ele>
        <time>2021-04-28T08:51:44Z</time>
      </trkpt>
      <trkpt lat="51.549840000" lon="7.107390000">
        <ele>42</ele>
        <time>2021-04-28T08:51:46Z</time>
      </trkpt>
      <trkpt lat="51.549830000" lon="7.107470000">
        <ele>42</ele>
        <time>2021-04-28T08:51:47Z</time>
      </trkpt>
      <trkpt lat="51.549820000" lon="7.107650000">
        <ele>52</ele>
        <time>2021-04-28T08:51:48Z</time>
      </trkpt>
      <trkpt lat="51.549800000" lon="7.107830000">
        <ele>52</ele>
        <time>2021-04-28T08:51:50Z</time>
      </trkpt>
      <trkpt lat="51.549770000" lon="7.108050000">
        <ele>52</ele>
        <time>2021-04-28T08:51:53Z</time>
      </trkpt>
      <trkpt lat="51.549760000" lon="7.108130000">
        <ele>52</ele>
        <time>2021-04-28T08:51:55Z</time>
      </trkpt>
      <trkpt lat="51.549740000" lon="7.108220000">
        <ele>52</ele>
        <time>2021-04-28T08:51:56Z</time>
      </trkpt>
      <trkpt lat="51.549700000" lon="7.108400000">
        <ele>52</ele>
        <time>2021-04-28T08:51:57Z</time>
      </trkpt>
      <trkpt lat="51.549670000" lon="7.108570000">
        <ele>52</ele>
        <time>2021-04-28T08:51:59Z</time>
      </trkpt>
      <trkpt lat="51.549610000" lon="7.108760000">
        <ele>52</ele>
        <time>2021-04-28T08:52:01Z</time>
      </trkpt>
      <trkpt lat="51.549590000" lon="7.108860000">
        <ele>52</ele>
        <time>2021-04-28T08:52:02Z</time>
      </trkpt>
      <trkpt lat="51.549560000" lon="7.108950000">
        <ele>52</ele>
        <time>2021-04-28T08:52:04Z</time>
      </trkpt>
      <trkpt lat="51.549510000" lon="7.109090000">
        <ele>39</ele>
        <time>2021-04-28T08:52:06Z</time>
      </trkpt>
      <trkpt lat="51.549440000" lon="7.109120000">
        <ele>39</ele>
        <time>2021-04-28T08:52:07Z</time>
      </trkpt>
      <trkpt lat="51.549390000" lon="7.109080000">
        <ele>39</ele>
        <time>2021-04-28T08:52:11Z</time>
      </trkpt>
      <trkpt lat="51.549450000" lon="7.109120000">
        <ele>39</ele>
        <time>2021-04-28T08:52:19Z</time>
      </trkpt>
      <trkpt lat="51.549470000" lon="7.109190000">
        <ele>39</ele>
        <time>2021-04-28T08:52:23Z</time>
      </trkpt>
      <trkpt lat="51.549420000" lon="7.109320000">
        <ele>39</ele>
        <time>2021-04-28T08:52:25Z</time>
      </trkpt>
      <trkpt lat="51.549380000" lon="7.109400000">
        <ele>39</ele>
        <time>2021-04-28T08:52:26Z</time>
      </trkpt>
      <trkpt lat="51.549300000" lon="7.109590000">
        <ele>39</ele>
        <time>2021-04-28T08:52:28Z</time>
      </trkpt>
      <trkpt lat="51.549240000" lon="7.109730000">
        <ele>39</ele>
        <time>2021-04-28T08:52:30Z</time>
      </trkpt>
      <trkpt lat="51.549200000" lon="7.109810000">
        <ele>39</ele>
        <time>2021-04-28T08:52:31Z</time>
      </trkpt>
      <trkpt lat="51.549120000" lon="7.109970000">
        <ele>39</ele>
        <time>2021-04-28T08:52:32Z</time>
      </trkpt>
      <trkpt lat="51.549080000" lon="7.110070000">
        <ele>39</ele>
        <time>2021-04-28T08:52:33Z</time>
      </trkpt>
      <trkpt lat="51.549040000" lon="7.110160000">
        <ele>39</ele>
        <time>2021-04-28T08:52:35Z</time>
      </trkpt>
      <trkpt lat="51.549000000" lon="7.110240000">
        <ele>39</ele>
        <time>2021-04-28T08:52:36Z</time>
      </trkpt>
      <trkpt lat="51.548940000" lon="7.110390000">
        <ele>39</ele>
        <time>2021-04-28T08:52:37Z</time>
      </trkpt>
      <trkpt lat="51.548890000" lon="7.110540000">
        <ele>39</ele>
        <time>2021-04-28T08:52:39Z</time>
      </trkpt>
      <trkpt lat="51.548810000" lon="7.110690000">
        <ele>44</ele>
        <time>2021-04-28T08:52:41Z</time>
      </trkpt>
      <trkpt lat="51.548770000" lon="7.110790000">
        <ele>44</ele>
        <time>2021-04-28T08:52:42Z</time>
      </trkpt>
      <trkpt lat="51.548710000" lon="7.110930000">
        <ele>44</ele>
        <time>2021-04-28T08:52:44Z</time>
      </trkpt>
      <trkpt lat="51.548690000" lon="7.111090000">
        <ele>44</ele>
        <time>2021-04-28T08:52:47Z</time>
      </trkpt>
      <trkpt lat="51.548700000" lon="7.111270000">
        <ele>44</ele>
        <time>2021-04-28T08:52:49Z</time>
      </trkpt>
      <trkpt lat="51.548680000" lon="7.111360000">
        <ele>44</ele>
        <time>2021-04-28T08:52:50Z</time>
      </trkpt>
      <trkpt lat="51.548620000" lon="7.111530000">
        <ele>44</ele>
        <time>2021-04-28T08:52:52Z</time>
      </trkpt>
      <trkpt lat="51.548590000" lon="7.111610000">
        <ele>44</ele>
        <time>2021-04-28T08:52:52Z</time>
      </trkpt>
      <trkpt lat="51.548530000" lon="7.111800000">
        <ele>44</ele>
        <time>2021-04-28T08:52:55Z</time>
      </trkpt>
      <trkpt lat="51.548470000" lon="7.111990000">
        <ele>44</ele>
        <time>2021-04-28T08:52:56Z</time>
      </trkpt>
      <trkpt lat="51.548420000" lon="7.112210000">
        <ele>44</ele>
        <time>2021-04-28T08:52:59Z</time>
      </trkpt>
      <trkpt lat="51.548380000" lon="7.112380000">
        <ele>44</ele>
        <time>2021-04-28T08:53:00Z</time>
      </trkpt>
      <trkpt lat="51.548340000" lon="7.112560000">
        <ele>44</ele>
        <time>2021-04-28T08:53:02Z</time>
      </trkpt>
      <trkpt lat="51.548320000" lon="7.112680000">
        <ele>42</ele>
        <time>2021-04-28T08:53:03Z</time>
      </trkpt>
      <trkpt lat="51.548300000" lon="7.112760000">
        <ele>42</ele>
        <time>2021-04-28T08:53:05Z</time>
      </trkpt>
      <trkpt lat="51.548270000" lon="7.112920000">
        <ele>42</ele>
        <time>2021-04-28T08:53:06Z</time>
      </trkpt>
      <trkpt lat="51.548240000" lon="7.113100000">
        <ele>42</ele>
        <time>2021-04-28T08:53:08Z</time>
      </trkpt>
      <trkpt lat="51.548220000" lon="7.113200000">
        <ele>42</ele>
        <time>2021-04-28T08:53:10Z</time>
      </trkpt>
      <trkpt lat="51.548200000" lon="7.113370000">
        <ele>42</ele>
        <time>2021-04-28T08:53:11Z</time>
      </trkpt>
      <trkpt lat="51.548180000" lon="7.113510000">
        <ele>42</ele>
        <time>2021-04-28T08:53:12Z</time>
      </trkpt>
      <trkpt lat="51.548150000" lon="7.113740000">
        <ele>42</ele>
        <time>2021-04-28T08:53:15Z</time>
      </trkpt>
      <trkpt lat="51.548140000" lon="7.113840000">
        <ele>42</ele>
        <time>2021-04-28T08:53:16Z</time>
      </trkpt>
      <trkpt lat="51.548130000" lon="7.114030000">
        <ele>42</ele>
        <time>2021-04-28T08:53:17Z</time>
      </trkpt>
      <trkpt lat="51.548110000" lon="7.114220000">
        <ele>42</ele>
        <time>2021-04-28T08:53:20Z</time>
      </trkpt>
      <trkpt lat="51.548100000" lon="7.114320000">
        <ele>42</ele>
        <time>2021-04-28T08:53:21Z</time>
      </trkpt>
      <trkpt lat="51.548090000" lon="7.114500000">
        <ele>42</ele>
        <time>2021-04-28T08:53:22Z</time>
      </trkpt>
      <trkpt lat="51.548070000" lon="7.114750000">
        <ele>45</ele>
        <time>2021-04-28T08:53:25Z</time>
      </trkpt>
      <trkpt lat="51.548060000" lon="7.114950000">
        <ele>45</ele>
        <time>2021-04-28T08:53:26Z</time>
      </trkpt>
      <trkpt lat="51.548050000" lon="7.115050000">
        <ele>45</ele>
        <time>2021-04-28T08:53:27Z</time>
      </trkpt>
      <trkpt lat="51.548040000" lon="7.115150000">
        <ele>45</ele>
        <time>2021-04-28T08:53:28Z</time>
      </trkpt>
      <trkpt lat="51.548010000" lon="7.115330000">
        <ele>45</ele>
        <time>2021-04-28T08:53:30Z</time>
      </trkpt>
      <trkpt lat="51.547990000" lon="7.115510000">
        <ele>45</ele>
        <time>2021-04-28T08:53:32Z</time>
      </trkpt>
      <trkpt lat="51.547990000" lon="7.115610000">
        <ele>36</ele>
        <time>2021-04-28T08:53:34Z</time>
      </trkpt>
      <trkpt lat="51.547980000" lon="7.115700000">
        <ele>36</ele>
        <time>2021-04-28T08:53:35Z</time>
      </trkpt>
      <trkpt lat="51.547970000" lon="7.115870000">
        <ele>36</ele>
        <time>2021-04-28T08:53:36Z</time>
      </trkpt>
      <trkpt lat="51.547960000" lon="7.115950000">
        <ele>36</ele>
        <time>2021-04-28T08:53:38Z</time>
      </trkpt>
      <trkpt lat="51.547950000" lon="7.116100000">
        <ele>36</ele>
        <time>2021-04-28T08:53:39Z</time>
      </trkpt>
      <trkpt lat="51.547920000" lon="7.116170000">
        <ele>36</ele>
        <time>2021-04-28T08:53:41Z</time>
      </trkpt>
      <trkpt lat="51.547870000" lon="7.116190000">
        <ele>36</ele>
        <time>2021-04-28T08:53:43Z</time>
      </trkpt>
      <trkpt lat="51.547770000" lon="7.116120000">
        <ele>36</ele>
        <time>2021-04-28T08:53:46Z</time>
      </trkpt>
      <trkpt lat="51.547770000" lon="7.115980000">
        <ele>36</ele>
        <time>2021-04-28T08:53:48Z</time>
      </trkpt>
      <trkpt lat="51.547740000" lon="7.115850000">
        <ele>36</ele>
        <time>2021-04-28T08:53:52Z</time>
      </trkpt>
      <trkpt lat="51.547700000" lon="7.115870000">
        <ele>36</ele>
        <time>2021-04-28T08:53:53Z</time>
      </trkpt>
      <trkpt lat="51.547680000" lon="7.115970000">
        <ele>36</ele>
        <time>2021-04-28T08:53:56Z</time>
      </trkpt>
      <trkpt lat="51.547680000" lon="7.116120000">
        <ele>36</ele>
        <time>2021-04-28T08:53:58Z</time>
      </trkpt>
      <trkpt lat="51.547700000" lon="7.116330000">
        <ele>36</ele>
        <time>2021-04-28T08:54:00Z</time>
      </trkpt>
      <trkpt lat="51.547700000" lon="7.116450000">
        <ele>44</ele>
        <time>2021-04-28T08:54:01Z</time>
      </trkpt>
      <trkpt lat="51.547700000" lon="7.116660000">
        <ele>44</ele>
        <time>2021-04-28T08:54:02Z</time>
      </trkpt>
      <trkpt lat="51.547710000" lon="7.116850000">
        <ele>44</ele>
        <time>2021-04-28T08:54:04Z</time>
      </trkpt>
      <trkpt lat="51.547710000" lon="7.116980000">
        <ele>44</ele>
        <time>2021-04-28T08:54:05Z</time>
      </trkpt>
      <trkpt lat="51.547710000" lon="7.117130000">
        <ele>44</ele>
        <time>2021-04-28T08:54:07Z</time>
      </trkpt>
      <trkpt lat="51.547720000" lon="7.117250000">
        <ele>44</ele>
        <time>2021-04-28T08:54:08Z</time>
      </trkpt>
      <trkpt lat="51.547720000" lon="7.117440000">
        <ele>44</ele>
        <time>2021-04-28T08:54:10Z</time>
      </trkpt>
      <trkpt lat="51.547720000" lon="7.117520000">
        <ele>44</ele>
        <time>2021-04-28T08:54:12Z</time>
      </trkpt>
      <trkpt lat="51.547730000" lon="7.117710000">
        <ele>44</ele>
        <time>2021-04-28T08:54:14Z</time>
      </trkpt>
      <trkpt lat="51.547730000" lon="7.117880000">
        <ele>44</ele>
        <time>2021-04-28T08:54:16Z</time>
      </trkpt>
      <trkpt lat="51.547730000" lon="7.117980000">
        <ele>44</ele>
        <time>2021-04-28T08:54:16Z</time>
      </trkpt>
      <trkpt lat="51.547730000" lon="7.118080000">
        <ele>44</ele>
        <time>2021-04-28T08:54:18Z</time>
      </trkpt>
      <trkpt lat="51.547720000" lon="7.118260000">
        <ele>36</ele>
        <time>2021-04-28T08:54:19Z</time>
      </trkpt>
      <trkpt lat="51.547720000" lon="7.118350000">
        <ele>36</ele>
        <time>2021-04-28T08:54:22Z</time>
      </trkpt>
      <trkpt lat="51.547720000" lon="7.118440000">
        <ele>36</ele>
        <time>2021-04-28T08:54:27Z</time>
      </trkpt>
      <trkpt lat="51.547720000" lon="7.118590000">
        <ele>36</ele>
        <time>2021-04-28T08:54:28Z</time>
      </trkpt>
      <trkpt lat="51.547720000" lon="7.118680000">
        <ele>36</ele>
        <time>2021-04-28T08:54:30Z</time>
      </trkpt>
      <trkpt lat="51.547720000" lon="7.118920000">
        <ele>36</ele>
        <time>2021-04-28T08:54:31Z</time>
      </trkpt>
      <trkpt lat="51.547720000" lon="7.119020000">
        <ele>36</ele>
        <time>2021-04-28T08:54:33Z</time>
      </trkpt>
      <trkpt lat="51.547720000" lon="7.119120000">
        <ele>36</ele>
        <time>2021-04-28T08:54:34Z</time>
      </trkpt>
      <trkpt lat="51.547710000" lon="7.119310000">
        <ele>36</ele>
        <time>2021-04-28T08:54:35Z</time>
      </trkpt>
      <trkpt lat="51.547710000" lon="7.119420000">
        <ele>36</ele>
        <time>2021-04-28T08:54:36Z</time>
      </trkpt>
      <trkpt lat="51.547700000" lon="7.119520000">
        <ele>36</ele>
        <time>2021-04-28T08:54:38Z</time>
      </trkpt>
      <trkpt lat="51.547690000" lon="7.119720000">
        <ele>36</ele>
        <time>2021-04-28T08:54:40Z</time>
      </trkpt>
      <trkpt lat="51.547690000" lon="7.119860000">
        <ele>36</ele>
        <time>2021-04-28T08:54:41Z</time>
      </trkpt>
      <trkpt lat="51.547680000" lon="7.119990000">
        <ele>36</ele>
        <time>2021-04-28T08:54:42Z</time>
      </trkpt>
      <trkpt lat="51.547690000" lon="7.120150000">
        <ele>36</ele>
        <time>2021-04-28T08:54:44Z</time>
      </trkpt>
      <trkpt lat="51.547690000" lon="7.120260000">
        <ele>36</ele>
        <time>2021-04-28T08:54:45Z</time>
      </trkpt>
      <trkpt lat="51.547690000" lon="7.120390000">
        <ele>44</ele>
        <time>2021-04-28T08:54:46Z</time>
      </trkpt>
      <trkpt lat="51.547680000" lon="7.120470000">
        <ele>44</ele>
        <time>2021-04-28T08:54:48Z</time>
      </trkpt>
      <trkpt lat="51.547670000" lon="7.120640000">
        <ele>44</ele>
        <time>2021-04-28T08:54:49Z</time>
      </trkpt>
      <trkpt lat="51.547670000" lon="7.120740000">
        <ele>44</ele>
        <time>2021-04-28T08:54:51Z</time>
      </trkpt>
      <trkpt lat="51.547680000" lon="7.120930000">
        <ele>44</ele>
        <time>2021-04-28T08:54:52Z</time>
      </trkpt>
      <trkpt lat="51.547670000" lon="7.121130000">
        <ele>44</ele>
        <time>2021-04-28T08:54:54Z</time>
      </trkpt>
      <trkpt lat="51.547670000" lon="7.121230000">
        <ele>44</ele>
        <time>2021-04-28T08:54:55Z</time>
      </trkpt>
      <trkpt lat="51.547680000" lon="7.121310000">
        <ele>44</ele>
        <time>2021-04-28T08:54:57Z</time>
      </trkpt>
      <trkpt lat="51.547680000" lon="7.121510000">
        <ele>44</ele>
        <time>2021-04-28T08:54:59Z</time>
      </trkpt>
      <trkpt lat="51.547690000" lon="7.121730000">
        <ele>44</ele>
        <time>2021-04-28T08:55:01Z</time>
      </trkpt>
      <trkpt lat="51.547690000" lon="7.121840000">
        <ele>44</ele>
        <time>2021-04-28T08:55:02Z</time>
      </trkpt>
      <trkpt lat="51.547690000" lon="7.122060000">
        <ele>44</ele>
        <time>2021-04-28T08:55:04Z</time>
      </trkpt>
      <trkpt lat="51.547670000" lon="7.122270000">
        <ele>36</ele>
        <time>2021-04-28T08:55:05Z</time>
      </trkpt>
      <trkpt lat="51.547660000" lon="7.122390000">
        <ele>36</ele>
        <time>2021-04-28T08:55:06Z</time>
      </trkpt>
      <trkpt lat="51.547650000" lon="7.122530000">
        <ele>36</ele>
        <time>2021-04-28T08:55:07Z</time>
      </trkpt>
      <trkpt lat="51.547650000" lon="7.122630000">
        <ele>36</ele>
        <time>2021-04-28T08:55:09Z</time>
      </trkpt>
      <trkpt lat="51.547660000" lon="7.122800000">
        <ele>36</ele>
        <time>2021-04-28T08:55:10Z</time>
      </trkpt>
      <trkpt lat="51.547650000" lon="7.122930000">
        <ele>36</ele>
        <time>2021-04-28T08:55:11Z</time>
      </trkpt>
      <trkpt lat="51.547650000" lon="7.123020000">
        <ele>36</ele>
        <time>2021-04-28T08:55:12Z</time>
      </trkpt>
      <trkpt lat="51.547650000" lon="7.123190000">
        <ele>36</ele>
        <time>2021-04-28T08:55:14Z</time>
      </trkpt>
      <trkpt lat="51.547650000" lon="7.123300000">
        <ele>36</ele>
        <time>2021-04-28T08:55:15Z</time>
      </trkpt>
      <trkpt lat="51.547630000" lon="7.123480000">
        <ele>36</ele>
        <time>2021-04-28T08:55:18Z</time>
      </trkpt>
      <trkpt lat="51.547620000" lon="7.123570000">
        <ele>36</ele>
        <time>2021-04-28T08:55:19Z</time>
      </trkpt>
      <trkpt lat="51.547610000" lon="7.123750000">
        <ele>36</ele>
        <time>2021-04-28T08:55:21Z</time>
      </trkpt>
      <trkpt lat="51.547610000" lon="7.123840000">
        <ele>36</ele>
        <time>2021-04-28T08:55:22Z</time>
      </trkpt>
      <trkpt lat="51.547600000" lon="7.123940000">
        <ele>36</ele>
        <time>2021-04-28T08:55:23Z</time>
      </trkpt>
      <trkpt lat="51.547590000" lon="7.124140000">
        <ele>39</ele>
        <time>2021-04-28T08:55:24Z</time>
      </trkpt>
      <trkpt lat="51.547580000" lon="7.124310000">
        <ele>39</ele>
        <time>2021-04-28T08:55:26Z</time>
      </trkpt>
      <trkpt lat="51.547570000" lon="7.124430000">
        <ele>39</ele>
        <time>2021-04-28T08:55:27Z</time>
      </trkpt>
      <trkpt lat="51.547560000" lon="7.124610000">
        <ele>39</ele>
        <time>2021-04-28T08:55:29Z</time>
      </trkpt>
      <trkpt lat="51.547550000" lon="7.124700000">
        <ele>39</ele>
        <time>2021-04-28T08:55:31Z</time>
      </trkpt>
      <trkpt lat="51.547530000" lon="7.124880000">
        <ele>39</ele>
        <time>2021-04-28T08:55:33Z</time>
      </trkpt>
      <trkpt lat="51.547510000" lon="7.125080000">
        <ele>39</ele>
        <time>2021-04-28T08:55:34Z</time>
      </trkpt>
      <trkpt lat="51.547500000" lon="7.125170000">
        <ele>39</ele>
        <time>2021-04-28T08:55:36Z</time>
      </trkpt>
      <trkpt lat="51.547490000" lon="7.125320000">
        <ele>39</ele>
        <time>2021-04-28T08:55:37Z</time>
      </trkpt>
      <trkpt lat="51.547480000" lon="7.125450000">
        <ele>39</ele>
        <time>2021-04-28T08:55:39Z</time>
      </trkpt>
      <trkpt lat="51.547460000" lon="7.125610000">
        <ele>39</ele>
        <time>2021-04-28T08:55:40Z</time>
      </trkpt>
      <trkpt lat="51.547450000" lon="7.125690000">
        <ele>39</ele>
        <time>2021-04-28T08:55:42Z</time>
      </trkpt>
      <trkpt lat="51.547440000" lon="7.125770000">
        <ele>39</ele>
        <time>2021-04-28T08:55:43Z</time>
      </trkpt>
      <trkpt lat="51.547430000" lon="7.125890000">
        <ele>36</ele>
        <time>2021-04-28T08:55:44Z</time>
      </trkpt>
      <trkpt lat="51.547410000" lon="7.125990000">
        <ele>36</ele>
        <time>2021-04-28T08:55:46Z</time>
      </trkpt>
      <trkpt lat="51.547390000" lon="7.126170000">
        <ele>36</ele>
        <time>2021-04-28T08:55:49Z</time>
      </trkpt>
      <trkpt lat="51.547410000" lon="7.126260000">
        <ele>36</ele>
        <time>2021-04-28T08:55:52Z</time>
      </trkpt>
      <trkpt lat="51.547510000" lon="7.126290000">
        <ele>36</ele>
        <time>2021-04-28T08:55:55Z</time>
      </trkpt>
      <trkpt lat="51.547570000" lon="7.126320000">
        <ele>36</ele>
        <time>2021-04-28T08:55:59Z</time>
      </trkpt>
      <trkpt lat="51.547610000" lon="7.126390000">
        <ele>36</ele>
        <time>2021-04-28T08:56:01Z</time>
      </trkpt>
      <trkpt lat="51.547560000" lon="7.126570000">
        <ele>36</ele>
        <time>2021-04-28T08:56:02Z</time>
      </trkpt>
      <trkpt lat="51.547520000" lon="7.126740000">
        <ele>36</ele>
        <time>2021-04-28T08:56:05Z</time>
      </trkpt>
      <trkpt lat="51.547500000" lon="7.126900000">
        <ele>36</ele>
        <time>2021-04-28T08:56:06Z</time>
      </trkpt>
      <trkpt lat="51.547470000" lon="7.127130000">
        <ele>36</ele>
        <time>2021-04-28T08:56:09Z</time>
      </trkpt>
      <trkpt lat="51.547450000" lon="7.127340000">
        <ele>36</ele>
        <time>2021-04-28T08:56:11Z</time>
      </trkpt>
      <trkpt lat="51.547420000" lon="7.127530000">
        <ele>36</ele>
        <time>2021-04-28T08:56:13Z</time>
      </trkpt>
      <trkpt lat="51.547410000" lon="7.127710000">
        <ele>36</ele>
        <time>2021-04-28T08:56:14Z</time>
      </trkpt>
      <trkpt lat="51.547400000" lon="7.127810000">
        <ele>30</ele>
        <time>2021-04-28T08:56:16Z</time>
      </trkpt>
      <trkpt lat="51.547360000" lon="7.127990000">
        <ele>30</ele>
        <time>2021-04-28T08:56:18Z</time>
      </trkpt>
      <trkpt lat="51.547350000" lon="7.128170000">
        <ele>30</ele>
        <time>2021-04-28T08:56:19Z</time>
      </trkpt>
      <trkpt lat="51.547350000" lon="7.128270000">
        <ele>30</ele>
        <time>2021-04-28T08:56:20Z</time>
      </trkpt>
      <trkpt lat="51.547340000" lon="7.128450000">
        <ele>30</ele>
        <time>2021-04-28T08:56:22Z</time>
      </trkpt>
      <trkpt lat="51.547330000" lon="7.128580000">
        <ele>30</ele>
        <time>2021-04-28T08:56:24Z</time>
      </trkpt>
      <trkpt lat="51.547330000" lon="7.128770000">
        <ele>30</ele>
        <time>2021-04-28T08:56:26Z</time>
      </trkpt>
      <trkpt lat="51.547320000" lon="7.128960000">
        <ele>30</ele>
        <time>2021-04-28T08:56:27Z</time>
      </trkpt>
      <trkpt lat="51.547310000" lon="7.129060000">
        <ele>30</ele>
        <time>2021-04-28T08:56:28Z</time>
      </trkpt>
      <trkpt lat="51.547290000" lon="7.129180000">
        <ele>30</ele>
        <time>2021-04-28T08:56:30Z</time>
      </trkpt>
      <trkpt lat="51.547280000" lon="7.129350000">
        <ele>30</ele>
        <time>2021-04-28T08:56:32Z</time>
      </trkpt>
      <trkpt lat="51.547280000" lon="7.129550000">
        <ele>30</ele>
        <time>2021-04-28T08:56:33Z</time>
      </trkpt>
      <trkpt lat="51.547270000" lon="7.129730000">
        <ele>30</ele>
        <time>2021-04-28T08:56:36Z</time>
      </trkpt>
      <trkpt lat="51.547290000" lon="7.129910000">
        <ele>38</ele>
        <time>2021-04-28T08:56:38Z</time>
      </trkpt>
      <trkpt lat="51.547290000" lon="7.130010000">
        <ele>38</ele>
        <time>2021-04-28T08:56:39Z</time>
      </trkpt>
      <trkpt lat="51.547290000" lon="7.130180000">
        <ele>38</ele>
        <time>2021-04-28T08:56:41Z</time>
      </trkpt>
      <trkpt lat="51.547310000" lon="7.130410000">
        <ele>38</ele>
        <time>2021-04-28T08:56:42Z</time>
      </trkpt>
      <trkpt lat="51.547320000" lon="7.130490000">
        <ele>38</ele>
        <time>2021-04-28T08:56:44Z</time>
      </trkpt>
      <trkpt lat="51.547330000" lon="7.130580000">
        <ele>38</ele>
        <time>2021-04-28T08:56:45Z</time>
      </trkpt>
      <trkpt lat="51.547370000" lon="7.130780000">
        <ele>38</ele>
        <time>2021-04-28T08:56:46Z</time>
      </trkpt>
      <trkpt lat="51.547390000" lon="7.130960000">
        <ele>38</ele>
        <time>2021-04-28T08:56:48Z</time>
      </trkpt>
      <trkpt lat="51.547400000" lon="7.131070000">
        <ele>38</ele>
        <time>2021-04-28T08:56:49Z</time>
      </trkpt>
      <trkpt lat="51.547410000" lon="7.131220000">
        <ele>38</ele>
        <time>2021-04-28T08:56:50Z</time>
      </trkpt>
      <trkpt lat="51.547430000" lon="7.131410000">
        <ele>38</ele>
        <time>2021-04-28T08:56:52Z</time>
      </trkpt>
      <trkpt lat="51.547450000" lon="7.131590000">
        <ele>38</ele>
        <time>2021-04-28T08:56:54Z</time>
      </trkpt>
      <trkpt lat="51.547460000" lon="7.131760000">
        <ele>38</ele>
        <time>2021-04-28T08:56:56Z</time>
      </trkpt>
      <trkpt lat="51.547470000" lon="7.131890000">
        <ele>38</ele>
        <time>2021-04-28T08:56:57Z</time>
      </trkpt>
      <trkpt lat="51.547490000" lon="7.132080000">
        <ele>38</ele>
        <time>2021-04-28T08:57:00Z</time>
      </trkpt>
      <trkpt lat="51.547510000" lon="7.132260000">
        <ele>37</ele>
        <time>2021-04-28T08:57:01Z</time>
      </trkpt>
      <trkpt lat="51.547520000" lon="7.132350000">
        <ele>37</ele>
        <time>2021-04-28T08:57:02Z</time>
      </trkpt>
      <trkpt lat="51.547530000" lon="7.132440000">
        <ele>37</ele>
        <time>2021-04-28T08:57:03Z</time>
      </trkpt>
      <trkpt lat="51.547540000" lon="7.132530000">
        <ele>37</ele>
        <time>2021-04-28T08:57:05Z</time>
      </trkpt>
      <trkpt lat="51.547560000" lon="7.132710000">
        <ele>37</ele>
        <time>2021-04-28T08:57:07Z</time>
      </trkpt>
      <trkpt lat="51.547580000" lon="7.132860000">
        <ele>37</ele>
        <time>2021-04-28T08:57:08Z</time>
      </trkpt>
      <trkpt lat="51.547600000" lon="7.133070000">
        <ele>37</ele>
        <time>2021-04-28T08:57:11Z</time>
      </trkpt>
      <trkpt lat="51.547610000" lon="7.133260000">
        <ele>37</ele>
        <time>2021-04-28T08:57:13Z</time>
      </trkpt>
      <trkpt lat="51.547610000" lon="7.133440000">
        <ele>37</ele>
        <time>2021-04-28T08:57:14Z</time>
      </trkpt>
      <trkpt lat="51.547630000" lon="7.133650000">
        <ele>37</ele>
        <time>2021-04-28T08:57:16Z</time>
      </trkpt>
      <trkpt lat="51.547650000" lon="7.133850000">
        <ele>37</ele>
        <time>2021-04-28T08:57:18Z</time>
      </trkpt>
      <trkpt lat="51.547650000" lon="7.134050000">
        <ele>37</ele>
        <time>2021-04-28T08:57:20Z</time>
      </trkpt>
      <trkpt lat="51.547670000" lon="7.134230000">
        <ele>37</ele>
        <time>2021-04-28T08:57:23Z</time>
      </trkpt>
      <trkpt lat="51.547680000" lon="7.134390000">
        <ele>37</ele>
        <time>2021-04-28T08:57:25Z</time>
      </trkpt>
      <trkpt lat="51.547680000" lon="7.134560000">
        <ele>37</ele>
        <time>2021-04-28T08:57:26Z</time>
      </trkpt>
      <trkpt lat="51.547680000" lon="7.134640000">
        <ele>37</ele>
        <time>2021-04-28T08:57:27Z</time>
      </trkpt>
      <trkpt lat="51.547670000" lon="7.134790000">
        <ele>37</ele>
        <time>2021-04-28T08:57:29Z</time>
      </trkpt>
      <trkpt lat="51.547670000" lon="7.134890000">
        <ele>37</ele>
        <time>2021-04-28T08:57:30Z</time>
      </trkpt>
      <trkpt lat="51.547660000" lon="7.135020000">
        <ele>37</ele>
        <time>2021-04-28T08:57:32Z</time>
      </trkpt>
      <trkpt lat="51.547640000" lon="7.135210000">
        <ele>31</ele>
        <time>2021-04-28T08:57:33Z</time>
      </trkpt>
      <trkpt lat="51.547620000" lon="7.135400000">
        <ele>31</ele>
        <time>2021-04-28T08:57:36Z</time>
      </trkpt>
      <trkpt lat="51.547610000" lon="7.135570000">
        <ele>31</ele>
        <time>2021-04-28T08:57:37Z</time>
      </trkpt>
      <trkpt lat="51.547590000" lon="7.135670000">
        <ele>31</ele>
        <time>2021-04-28T08:57:38Z</time>
      </trkpt>
      <trkpt lat="51.547580000" lon="7.135760000">
        <ele>31</ele>
        <time>2021-04-28T08:57:39Z</time>
      </trkpt>
      <trkpt lat="51.547570000" lon="7.135850000">
        <ele>31</ele>
        <time>2021-04-28T08:57:41Z</time>
      </trkpt>
      <trkpt lat="51.547540000" lon="7.136030000">
        <ele>31</ele>
        <time>2021-04-28T08:57:42Z</time>
      </trkpt>
      <trkpt lat="51.547510000" lon="7.136170000">
        <ele>31</ele>
        <time>2021-04-28T08:57:45Z</time>
      </trkpt>
      <trkpt lat="51.547490000" lon="7.136350000">
        <ele>31</ele>
        <time>2021-04-28T08:57:46Z</time>
      </trkpt>
      <trkpt lat="51.547470000" lon="7.136450000">
        <ele>31</ele>
        <time>2021-04-28T08:57:47Z</time>
      </trkpt>
      <trkpt lat="51.547430000" lon="7.136590000">
        <ele>34</ele>
        <time>2021-04-28T08:57:49Z</time>
      </trkpt>
      <trkpt lat="51.547330000" lon="7.136640000">
        <ele>34</ele>
        <time>2021-04-28T08:57:51Z</time>
      </trkpt>
      <trkpt lat="51.547290000" lon="7.136580000">
        <ele>34</ele>
        <time>2021-04-28T08:57:53Z</time>
      </trkpt>
      <trkpt lat="51.547200000" lon="7.136460000">
        <ele>34</ele>
        <time>2021-04-28T08:57:54Z</time>
      </trkpt>
      <trkpt lat="51.547150000" lon="7.136380000">
        <ele>34</ele>
        <time>2021-04-28T08:57:55Z</time>
      </trkpt>
      <trkpt lat="51.547100000" lon="7.136330000">
        <ele>34</ele>
        <time>2021-04-28T08:57:56Z</time>
      </trkpt>
      <trkpt lat="51.547040000" lon="7.136280000">
        <ele>34</ele>
        <time>2021-04-28T08:57:57Z</time>
      </trkpt>
      <trkpt lat="51.547000000" lon="7.136230000">
        <ele>34</ele>
        <time>2021-04-28T08:57:58Z</time>
      </trkpt>
      <trkpt lat="51.546950000" lon="7.136200000">
        <ele>34</ele>
        <time>2021-04-28T08:57:59Z</time>
      </trkpt>
      <trkpt lat="51.546860000" lon="7.136270000">
        <ele>34</ele>
        <time>2021-04-28T08:58:01Z</time>
      </trkpt>
      <trkpt lat="51.546830000" lon="7.136350000">
        <ele>34</ele>
        <time>2021-04-28T08:58:02Z</time>
      </trkpt>
      <trkpt lat="51.546800000" lon="7.136490000">
        <ele>39</ele>
        <time>2021-04-28T08:58:04Z</time>
      </trkpt>
      <trkpt lat="51.546780000" lon="7.136580000">
        <ele>39</ele>
        <time>2021-04-28T08:58:06Z</time>
      </trkpt>
      <trkpt lat="51.546760000" lon="7.136730000">
        <ele>39</ele>
        <time>2021-04-28T08:58:07Z</time>
      </trkpt>
      <trkpt lat="51.546740000" lon="7.136810000">
        <ele>39</ele>
        <time>2021-04-28T08:58:09Z</time>
      </trkpt>
      <trkpt lat="51.546710000" lon="7.136930000">
        <ele>39</ele>
        <time>2021-04-28T08:58:10Z</time>
      </trkpt>
      <trkpt lat="51.546690000" lon="7.137010000">
        <ele>39</ele>
        <time>2021-04-28T08:58:11Z</time>
      </trkpt>
      <trkpt lat="51.546650000" lon="7.137080000">
        <ele>39</ele>
        <time>2021-04-28T08:58:13Z</time>
      </trkpt>
      <trkpt lat="51.546570000" lon="7.137110000">
        <ele>39</ele>
        <time>2021-04-28T08:58:15Z</time>
      </trkpt>
      <trkpt lat="51.546470000" lon="7.137060000">
        <ele>39</ele>
        <time>2021-04-28T08:58:17Z</time>
      </trkpt>
      <trkpt lat="51.546410000" lon="7.137060000">
        <ele>39</ele>
        <time>2021-04-28T08:58:18Z</time>
      </trkpt>
      <trkpt lat="51.546360000" lon="7.137240000">
        <ele>39</ele>
        <time>2021-04-28T08:58:20Z</time>
      </trkpt>
      <trkpt lat="51.546340000" lon="7.137410000">
        <ele>39</ele>
        <time>2021-04-28T08:58:21Z</time>
      </trkpt>
      <trkpt lat="51.546290000" lon="7.137560000">
        <ele>39</ele>
        <time>2021-04-28T08:58:23Z</time>
      </trkpt>
      <trkpt lat="51.546260000" lon="7.137630000">
        <ele>39</ele>
        <time>2021-04-28T08:58:24Z</time>
      </trkpt>
      <trkpt lat="51.546170000" lon="7.137740000">
        <ele>31</ele>
        <time>2021-04-28T08:58:26Z</time>
      </trkpt>
      <trkpt lat="51.546120000" lon="7.137760000">
        <ele>31</ele>
        <time>2021-04-28T08:58:28Z</time>
      </trkpt>
      <trkpt lat="51.546030000" lon="7.137780000">
        <ele>31</ele>
        <time>2021-04-28T08:58:29Z</time>
      </trkpt>
      <trkpt lat="51.545950000" lon="7.137740000">
        <ele>31</ele>
        <time>2021-04-28T08:58:31Z</time>
      </trkpt>
      <trkpt lat="51.545900000" lon="7.137710000">
        <ele>31</ele>
        <time>2021-04-28T08:58:32Z</time>
      </trkpt>
      <trkpt lat="51.545840000" lon="7.137760000">
        <ele>31</ele>
        <time>2021-04-28T08:58:34Z</time>
      </trkpt>
      <trkpt lat="51.545850000" lon="7.137900000">
        <ele>31</ele>
        <time>2021-04-28T08:58:36Z</time>
      </trkpt>
      <trkpt lat="51.545860000" lon="7.138000000">
        <ele>31</ele>
        <time>2021-04-28T08:58:38Z</time>
      </trkpt>
      <trkpt lat="51.545850000" lon="7.138080000">
        <ele>31</ele>
        <time>2021-04-28T08:58:40Z</time>
      </trkpt>
      <trkpt lat="51.545780000" lon="7.138120000">
        <ele>34</ele>
        <time>2021-04-28T08:58:41Z</time>
      </trkpt>
      <trkpt lat="51.545730000" lon="7.138110000">
        <ele>34</ele>
        <time>2021-04-28T08:58:42Z</time>
      </trkpt>
      <trkpt lat="51.545610000" lon="7.138050000">
        <ele>34</ele>
        <time>2021-04-28T08:58:46Z</time>
      </trkpt>
      <trkpt lat="51.545540000" lon="7.138020000">
        <ele>34</ele>
        <time>2021-04-28T08:58:47Z</time>
      </trkpt>
      <trkpt lat="51.545440000" lon="7.137970000">
        <ele>34</ele>
        <time>2021-04-28T08:58:49Z</time>
      </trkpt>
      <trkpt lat="51.545390000" lon="7.137940000">
        <ele>34</ele>
        <time>2021-04-28T08:58:50Z</time>
      </trkpt>
      <trkpt lat="51.545290000" lon="7.137900000">
        <ele>34</ele>
        <time>2021-04-28T08:58:52Z</time>
      </trkpt>
      <trkpt lat="51.545230000" lon="7.137870000">
        <ele>34</ele>
        <time>2021-04-28T08:58:54Z</time>
      </trkpt>
      <trkpt lat="51.545130000" lon="7.137790000">
        <ele>34</ele>
        <time>2021-04-28T08:58:56Z</time>
      </trkpt>
      <trkpt lat="51.545080000" lon="7.137770000">
        <ele>34</ele>
        <time>2021-04-28T08:58:58Z</time>
      </trkpt>
      <trkpt lat="51.544960000" lon="7.137710000">
        <ele>34</ele>
        <time>2021-04-28T08:58:59Z</time>
      </trkpt>
      <trkpt lat="51.544840000" lon="7.137650000">
        <ele>34</ele>
        <time>2021-04-28T08:59:02Z</time>
      </trkpt>
      <trkpt lat="51.544730000" lon="7.137590000">
        <ele>40</ele>
        <time>2021-04-28T08:59:03Z</time>
      </trkpt>
      <trkpt lat="51.544660000" lon="7.137560000">
        <ele>40</ele>
        <time>2021-04-28T08:59:05Z</time>
      </trkpt>
      <trkpt lat="51.544600000" lon="7.137540000">
        <ele>40</ele>
        <time>2021-04-28T08:59:06Z</time>
      </trkpt>
      <trkpt lat="51.544560000" lon="7.137520000">
        <ele>40</ele>
        <time>2021-04-28T08:59:07Z</time>
      </trkpt>
      <trkpt lat="51.544500000" lon="7.137530000">
        <ele>40</ele>
        <time>2021-04-28T08:59:08Z</time>
      </trkpt>
      <trkpt lat="51.544520000" lon="7.137620000">
        <ele>40</ele>
        <time>2021-04-28T08:59:10Z</time>
      </trkpt>
      <trkpt lat="51.544600000" lon="7.137690000">
        <ele>40</ele>
        <time>2021-04-28T08:59:12Z</time>
      </trkpt>
      <trkpt lat="51.544670000" lon="7.137770000">
        <ele>40</ele>
        <time>2021-04-28T08:59:14Z</time>
      </trkpt>
      <trkpt lat="51.544790000" lon="7.137870000">
        <ele>40</ele>
        <time>2021-04-28T08:59:16Z</time>
      </trkpt>
      <trkpt lat="51.544840000" lon="7.137920000">
        <ele>40</ele>
        <time>2021-04-28T08:59:17Z</time>
      </trkpt>
      <trkpt lat="51.544880000" lon="7.137990000">
        <ele>40</ele>
        <time>2021-04-28T08:59:18Z</time>
      </trkpt>
      <trkpt lat="51.544910000" lon="7.138080000">
        <ele>40</ele>
        <time>2021-04-28T08:59:20Z</time>
      </trkpt>
      <trkpt lat="51.544920000" lon="7.138170000">
        <ele>40</ele>
        <time>2021-04-28T08:59:21Z</time>
      </trkpt>
      <trkpt lat="51.544920000" lon="7.138350000">
        <ele>40</ele>
        <time>2021-04-28T08:59:23Z</time>
      </trkpt>
      <trkpt lat="51.544910000" lon="7.138440000">
        <ele>40</ele>
        <time>2021-04-28T08:59:24Z</time>
      </trkpt>
      <trkpt lat="51.544900000" lon="7.138630000">
        <ele>40</ele>
        <time>2021-04-28T08:59:25Z</time>
      </trkpt>
      <trkpt lat="51.544890000" lon="7.138730000">
        <ele>40</ele>
        <time>2021-04-28T08:59:27Z</time>
      </trkpt>
      <trkpt lat="51.544890000" lon="7.138830000">
        <ele>40</ele>
        <time>2021-04-28T08:59:28Z</time>
      </trkpt>
      <trkpt lat="51.544870000" lon="7.139020000">
        <ele>45</ele>
        <time>2021-04-28T08:59:29Z</time>
      </trkpt>
      <trkpt lat="51.544870000" lon="7.139120000">
        <ele>45</ele>
        <time>2021-04-28T08:59:31Z</time>
      </trkpt>
      <trkpt lat="51.544870000" lon="7.139210000">
        <ele>45</ele>
        <time>2021-04-28T08:59:32Z</time>
      </trkpt>
      <trkpt lat="51.544860000" lon="7.139300000">
        <ele>45</ele>
        <time>2021-04-28T08:59:33Z</time>
      </trkpt>
      <trkpt lat="51.544870000" lon="7.139470000">
        <ele>45</ele>
        <time>2021-04-28T08:59:34Z</time>
      </trkpt>
      <trkpt lat="51.544870000" lon="7.139580000">
        <ele>45</ele>
        <time>2021-04-28T08:59:35Z</time>
      </trkpt>
      <trkpt lat="51.544870000" lon="7.139700000">
        <ele>45</ele>
        <time>2021-04-28T08:59:36Z</time>
      </trkpt>
      <trkpt lat="51.544870000" lon="7.139790000">
        <ele>45</ele>
        <time>2021-04-28T08:59:38Z</time>
      </trkpt>
      <trkpt lat="51.544880000" lon="7.139980000">
        <ele>45</ele>
        <time>2021-04-28T08:59:39Z</time>
      </trkpt>
      <trkpt lat="51.544870000" lon="7.140130000">
        <ele>45</ele>
        <time>2021-04-28T08:59:41Z</time>
      </trkpt>
      <trkpt lat="51.544870000" lon="7.140250000">
        <ele>45</ele>
        <time>2021-04-28T08:59:43Z</time>
      </trkpt>
      <trkpt lat="51.544880000" lon="7.140370000">
        <ele>45</ele>
        <time>2021-04-28T08:59:44Z</time>
      </trkpt>
      <trkpt lat="51.544890000" lon="7.140560000">
        <ele>45</ele>
        <time>2021-04-28T08:59:47Z</time>
      </trkpt>
      <trkpt lat="51.544900000" lon="7.140750000">
        <ele>45</ele>
        <time>2021-04-28T08:59:48Z</time>
      </trkpt>
      <trkpt lat="51.544910000" lon="7.140960000">
        <ele>45</ele>
        <time>2021-04-28T08:59:51Z</time>
      </trkpt>
      <trkpt lat="51.544920000" lon="7.141160000">
        <ele>39</ele>
        <time>2021-04-28T08:59:53Z</time>
      </trkpt>
      <trkpt lat="51.544940000" lon="7.141340000">
        <ele>39</ele>
        <time>2021-04-28T08:59:54Z</time>
      </trkpt>
      <trkpt lat="51.544950000" lon="7.141530000">
        <ele>39</ele>
        <time>2021-04-28T08:59:56Z</time>
      </trkpt>
      <trkpt lat="51.544960000" lon="7.141640000">
        <ele>39</ele>
        <time>2021-04-28T08:59:57Z</time>
      </trkpt>
      <trkpt lat="51.544960000" lon="7.141730000">
        <ele>39</ele>
        <time>2021-04-28T08:59:59Z</time>
      </trkpt>
      <trkpt lat="51.544980000" lon="7.141930000">
        <ele>39</ele>
        <time>2021-04-28T09:00:01Z</time>
      </trkpt>
      <trkpt lat="51.544990000" lon="7.142100000">
        <ele>39</ele>
        <time>2021-04-28T09:00:02Z</time>
      </trkpt>
      <trkpt lat="51.545000000" lon="7.142200000">
        <ele>39</ele>
        <time>2021-04-28T09:00:04Z</time>
      </trkpt>
      <trkpt lat="51.545030000" lon="7.142380000">
        <ele>39</ele>
        <time>2021-04-28T09:00:05Z</time>
      </trkpt>
      <trkpt lat="51.545040000" lon="7.142490000">
        <ele>39</ele>
        <time>2021-04-28T09:00:06Z</time>
      </trkpt>
      <trkpt lat="51.545050000" lon="7.142620000">
        <ele>39</ele>
        <time>2021-04-28T09:00:07Z</time>
      </trkpt>
      <trkpt lat="51.545060000" lon="7.142790000">
        <ele>39</ele>
        <time>2021-04-28T09:00:09Z</time>
      </trkpt>
      <trkpt lat="51.545090000" lon="7.142970000">
        <ele>40</ele>
        <time>2021-04-28T09:00:12Z</time>
      </trkpt>
      <trkpt lat="51.545110000" lon="7.143160000">
        <ele>40</ele>
        <time>2021-04-28T09:00:13Z</time>
      </trkpt>
      <trkpt lat="51.545130000" lon="7.143340000">
        <ele>40</ele>
        <time>2021-04-28T09:00:15Z</time>
      </trkpt>
      <trkpt lat="51.545170000" lon="7.143550000">
        <ele>40</ele>
        <time>2021-04-28T09:00:17Z</time>
      </trkpt>
      <trkpt lat="51.545200000" lon="7.143650000">
        <ele>40</ele>
        <time>2021-04-28T09:00:18Z</time>
      </trkpt>
      <trkpt lat="51.545220000" lon="7.143720000">
        <ele>40</ele>
        <time>2021-04-28T09:00:20Z</time>
      </trkpt>
      <trkpt lat="51.545280000" lon="7.143880000">
        <ele>40</ele>
        <time>2021-04-28T09:00:22Z</time>
      </trkpt>
      <trkpt lat="51.545320000" lon="7.144050000">
        <ele>40</ele>
        <time>2021-04-28T09:00:23Z</time>
      </trkpt>
      <trkpt lat="51.545350000" lon="7.144140000">
        <ele>40</ele>
        <time>2021-04-28T09:00:25Z</time>
      </trkpt>
      <trkpt lat="51.545390000" lon="7.144310000">
        <ele>40</ele>
        <time>2021-04-28T09:00:27Z</time>
      </trkpt>
      <trkpt lat="51.545420000" lon="7.144500000">
        <ele>40</ele>
        <time>2021-04-28T09:00:28Z</time>
      </trkpt>
      <trkpt lat="51.545440000" lon="7.144590000">
        <ele>40</ele>
        <time>2021-04-28T09:00:29Z</time>
      </trkpt>
      <trkpt lat="51.545470000" lon="7.144790000">
        <ele>40</ele>
        <time>2021-04-28T09:00:31Z</time>
      </trkpt>
      <trkpt lat="51.545480000" lon="7.144880000">
        <ele>39</ele>
        <time>2021-04-28T09:00:33Z</time>
      </trkpt>
      <trkpt lat="51.545500000" lon="7.145060000">
        <ele>39</ele>
        <time>2021-04-28T09:00:34Z</time>
      </trkpt>
      <trkpt lat="51.545530000" lon="7.145240000">
        <ele>39</ele>
        <time>2021-04-28T09:00:36Z</time>
      </trkpt>
      <trkpt lat="51.545560000" lon="7.145360000">
        <ele>39</ele>
        <time>2021-04-28T09:00:38Z</time>
      </trkpt>
      <trkpt lat="51.545570000" lon="7.145480000">
        <ele>39</ele>
        <time>2021-04-28T09:00:39Z</time>
      </trkpt>
      <trkpt lat="51.545590000" lon="7.145620000">
        <ele>39</ele>
        <time>2021-04-28T09:00:41Z</time>
      </trkpt>
      <trkpt lat="51.545600000" lon="7.145730000">
        <ele>39</ele>
        <time>2021-04-28T09:00:42Z</time>
      </trkpt>
      <trkpt lat="51.545590000" lon="7.145820000">
        <ele>39</ele>
        <time>2021-04-28T09:00:44Z</time>
      </trkpt>
      <trkpt lat="51.545550000" lon="7.145940000">
        <ele>39</ele>
        <time>2021-04-28T09:00:45Z</time>
      </trkpt>
      <trkpt lat="51.545560000" lon="7.146130000">
        <ele>39</ele>
        <time>2021-04-28T09:00:47Z</time>
      </trkpt>
      <trkpt lat="51.545570000" lon="7.146210000">
        <ele>39</ele>
        <time>2021-04-28T09:00:48Z</time>
      </trkpt>
      <trkpt lat="51.545590000" lon="7.146390000">
        <ele>39</ele>
        <time>2021-04-28T09:00:50Z</time>
      </trkpt>
      <trkpt lat="51.545610000" lon="7.146590000">
        <ele>39</ele>
        <time>2021-04-28T09:00:52Z</time>
      </trkpt>
      <trkpt lat="51.545640000" lon="7.146800000">
        <ele>39</ele>
        <time>2021-04-28T09:00:55Z</time>
      </trkpt>
      <trkpt lat="51.545650000" lon="7.146880000">
        <ele>39</ele>
        <time>2021-04-28T09:00:56Z</time>
      </trkpt>
      <trkpt lat="51.545660000" lon="7.147040000">
        <ele>39</ele>
        <time>2021-04-28T09:00:57Z</time>
      </trkpt>
      <trkpt lat="51.545680000" lon="7.147250000">
        <ele>39</ele>
        <time>2021-04-28T09:00:59Z</time>
      </trkpt>
      <trkpt lat="51.545680000" lon="7.147330000">
        <ele>39</ele>
        <time>2021-04-28T09:01:01Z</time>
      </trkpt>
      <trkpt lat="51.545700000" lon="7.147490000">
        <ele>39</ele>
        <time>2021-04-28T09:01:02Z</time>
      </trkpt>
      <trkpt lat="51.545710000" lon="7.147580000">
        <ele>39</ele>
        <time>2021-04-28T09:01:03Z</time>
      </trkpt>
      <trkpt lat="51.545730000" lon="7.147770000">
        <ele>39</ele>
        <time>2021-04-28T09:01:05Z</time>
      </trkpt>
      <trkpt lat="51.545740000" lon="7.147850000">
        <ele>39</ele>
        <time>2021-04-28T09:01:07Z</time>
      </trkpt>
      <trkpt lat="51.545750000" lon="7.148020000">
        <ele>39</ele>
        <time>2021-04-28T09:01:08Z</time>
      </trkpt>
      <trkpt lat="51.545780000" lon="7.148170000">
        <ele>40</ele>
        <time>2021-04-28T09:01:10Z</time>
      </trkpt>
      <trkpt lat="51.545790000" lon="7.148250000">
        <ele>40</ele>
        <time>2021-04-28T09:01:12Z</time>
      </trkpt>
      <trkpt lat="51.545800000" lon="7.148340000">
        <ele>40</ele>
        <time>2021-04-28T09:01:13Z</time>
      </trkpt>
      <trkpt lat="51.545820000" lon="7.148520000">
        <ele>40</ele>
        <time>2021-04-28T09:01:14Z</time>
      </trkpt>
      <trkpt lat="51.545830000" lon="7.148600000">
        <ele>40</ele>
        <time>2021-04-28T09:01:15Z</time>
      </trkpt>
      <trkpt lat="51.545840000" lon="7.148750000">
        <ele>40</ele>
        <time>2021-04-28T09:01:17Z</time>
      </trkpt>
      <trkpt lat="51.545870000" lon="7.148890000">
        <ele>40</ele>
        <time>2021-04-28T09:01:19Z</time>
      </trkpt>
      <trkpt lat="51.545890000" lon="7.148970000">
        <ele>40</ele>
        <time>2021-04-28T09:01:21Z</time>
      </trkpt>
      <trkpt lat="51.545930000" lon="7.149070000">
        <ele>40</ele>
        <time>2021-04-28T09:01:22Z</time>
      </trkpt>
      <trkpt lat="51.545940000" lon="7.149140000">
        <ele>40</ele>
        <time>2021-04-28T09:01:23Z</time>
      </trkpt>
      <trkpt lat="51.545950000" lon="7.149220000">
        <ele>40</ele>
        <time>2021-04-28T09:01:24Z</time>
      </trkpt>
      <trkpt lat="51.545990000" lon="7.149360000">
        <ele>40</ele>
        <time>2021-04-28T09:01:27Z</time>
      </trkpt>
      <trkpt lat="51.546020000" lon="7.149490000">
        <ele>40</ele>
        <time>2021-04-28T09:01:28Z</time>
      </trkpt>
      <trkpt lat="51.546020000" lon="7.149640000">
        <ele>40</ele>
        <time>2021-04-28T09:01:30Z</time>
      </trkpt>
      <trkpt lat="51.546030000" lon="7.149800000">
        <ele>40</ele>
        <time>2021-04-28T09:01:32Z</time>
      </trkpt>
      <trkpt lat="51.546040000" lon="7.150050000">
        <ele>39</ele>
        <time>2021-04-28T09:01:35Z</time>
      </trkpt>
      <trkpt lat="51.546030000" lon="7.150130000">
        <ele>39</ele>
        <time>2021-04-28T09:01:36Z</time>
      </trkpt>
      <trkpt lat="51.546010000" lon="7.150240000">
        <ele>39</ele>
        <time>2021-04-28T09:01:38Z</time>
      </trkpt>
      <trkpt lat="51.546000000" lon="7.150400000">
        <ele>39</ele>
        <time>2021-04-28T09:01:41Z</time>
      </trkpt>
      <trkpt lat="51.546010000" lon="7.150520000">
        <ele>39</ele>
        <time>2021-04-28T09:01:42Z</time>
      </trkpt>
      <trkpt lat="51.546020000" lon="7.150600000">
        <ele>39</ele>
        <time>2021-04-28T09:01:44Z</time>
      </trkpt>
      <trkpt lat="51.546050000" lon="7.150730000">
        <ele>39</ele>
        <time>2021-04-28T09:01:45Z</time>
      </trkpt>
      <trkpt lat="51.546070000" lon="7.150810000">
        <ele>39</ele>
        <time>2021-04-28T09:01:47Z</time>
      </trkpt>
      <trkpt lat="51.546090000" lon="7.150950000">
        <ele>39</ele>
        <time>2021-04-28T09:01:49Z</time>
      </trkpt>
      <trkpt lat="51.546110000" lon="7.151060000">
        <ele>39</ele>
        <time>2021-04-28T09:01:50Z</time>
      </trkpt>
      <trkpt lat="51.546110000" lon="7.151140000">
        <ele>39</ele>
        <time>2021-04-28T09:01:52Z</time>
      </trkpt>
      <trkpt lat="51.546120000" lon="7.151280000">
        <ele>39</ele>
        <time>2021-04-28T09:01:53Z</time>
      </trkpt>
      <trkpt lat="51.546140000" lon="7.151380000">
        <ele>39</ele>
        <time>2021-04-28T09:01:56Z</time>
      </trkpt>
      <trkpt lat="51.546140000" lon="7.151490000">
        <ele>39</ele>
        <time>2021-04-28T09:01:58Z</time>
      </trkpt>
      <trkpt lat="51.546140000" lon="7.151600000">
        <ele>39</ele>
        <time>2021-04-28T09:02:00Z</time>
      </trkpt>
      <trkpt lat="51.546140000" lon="7.151690000">
        <ele>39</ele>
        <time>2021-04-28T09:02:02Z</time>
      </trkpt>
      <trkpt lat="51.546160000" lon="7.151870000">
        <ele>41</ele>
        <time>2021-04-28T09:02:04Z</time>
      </trkpt>
      <trkpt lat="51.546170000" lon="7.151970000">
        <ele>41</ele>
        <time>2021-04-28T09:02:05Z</time>
      </trkpt>
      <trkpt lat="51.546180000" lon="7.152180000">
        <ele>41</ele>
        <time>2021-04-28T09:02:06Z</time>
      </trkpt>
      <trkpt lat="51.546180000" lon="7.152370000">
        <ele>41</ele>
        <time>2021-04-28T09:02:09Z</time>
      </trkpt>
      <trkpt lat="51.546180000" lon="7.152550000">
        <ele>41</ele>
        <time>2021-04-28T09:02:10Z</time>
      </trkpt>
      <trkpt lat="51.546180000" lon="7.152640000">
        <ele>41</ele>
        <time>2021-04-28T09:02:11Z</time>
      </trkpt>
      <trkpt lat="51.546180000" lon="7.152810000">
        <ele>41</ele>
        <time>2021-04-28T09:02:14Z</time>
      </trkpt>
      <trkpt lat="51.546210000" lon="7.153010000">
        <ele>41</ele>
        <time>2021-04-28T09:02:15Z</time>
      </trkpt>
      <trkpt lat="51.546220000" lon="7.153110000">
        <ele>41</ele>
        <time>2021-04-28T09:02:16Z</time>
      </trkpt>
      <trkpt lat="51.546230000" lon="7.153200000">
        <ele>41</ele>
        <time>2021-04-28T09:02:17Z</time>
      </trkpt>
      <trkpt lat="51.546240000" lon="7.153300000">
        <ele>41</ele>
        <time>2021-04-28T09:02:18Z</time>
      </trkpt>
      <trkpt lat="51.546280000" lon="7.153500000">
        <ele>39</ele>
        <time>2021-04-28T09:02:20Z</time>
      </trkpt>
      <trkpt lat="51.546290000" lon="7.153620000">
        <ele>39</ele>
        <time>2021-04-28T09:02:21Z</time>
      </trkpt>
      <trkpt lat="51.546310000" lon="7.153740000">
        <ele>39</ele>
        <time>2021-04-28T09:02:23Z</time>
      </trkpt>
      <trkpt lat="51.546330000" lon="7.153920000">
        <ele>39</ele>
        <time>2021-04-28T09:02:24Z</time>
      </trkpt>
      <trkpt lat="51.546330000" lon="7.154010000">
        <ele>39</ele>
        <time>2021-04-28T09:02:25Z</time>
      </trkpt>
      <trkpt lat="51.546360000" lon="7.154210000">
        <ele>39</ele>
        <time>2021-04-28T09:02:27Z</time>
      </trkpt>
      <trkpt lat="51.546370000" lon="7.154310000">
        <ele>39</ele>
        <time>2021-04-28T09:02:28Z</time>
      </trkpt>
      <trkpt lat="51.546390000" lon="7.154410000">
        <ele>39</ele>
        <time>2021-04-28T09:02:29Z</time>
      </trkpt>
      <trkpt lat="51.546410000" lon="7.154590000">
        <ele>39</ele>
        <time>2021-04-28T09:02:31Z</time>
      </trkpt>
      <trkpt lat="51.546420000" lon="7.154690000">
        <ele>39</ele>
        <time>2021-04-28T09:02:32Z</time>
      </trkpt>
      <trkpt lat="51.546420000" lon="7.154790000">
        <ele>45</ele>
        <time>2021-04-28T09:02:34Z</time>
      </trkpt>
      <trkpt lat="51.546390000" lon="7.154940000">
        <ele>45</ele>
        <time>2021-04-28T09:02:36Z</time>
      </trkpt>
      <trkpt lat="51.546340000" lon="7.155110000">
        <ele>45</ele>
        <time>2021-04-28T09:02:37Z</time>
      </trkpt>
      <trkpt lat="51.546320000" lon="7.155180000">
        <ele>45</ele>
        <time>2021-04-28T09:02:39Z</time>
      </trkpt>
      <trkpt lat="51.546280000" lon="7.155310000">
        <ele>45</ele>
        <time>2021-04-28T09:02:40Z</time>
      </trkpt>
      <trkpt lat="51.546260000" lon="7.155390000">
        <ele>45</ele>
        <time>2021-04-28T09:02:41Z</time>
      </trkpt>
      <trkpt lat="51.546240000" lon="7.155480000">
        <ele>45</ele>
        <time>2021-04-28T09:02:43Z</time>
      </trkpt>
      <trkpt lat="51.546200000" lon="7.155630000">
        <ele>45</ele>
        <time>2021-04-28T09:02:44Z</time>
      </trkpt>
      <trkpt lat="51.546150000" lon="7.155740000">
        <ele>45</ele>
        <time>2021-04-28T09:02:46Z</time>
      </trkpt>
      <trkpt lat="51.546100000" lon="7.155820000">
        <ele>45</ele>
        <time>2021-04-28T09:02:47Z</time>
      </trkpt>
      <trkpt lat="51.546010000" lon="7.155910000">
        <ele>45</ele>
        <time>2021-04-28T09:02:49Z</time>
      </trkpt>
      <trkpt lat="51.545960000" lon="7.155940000">
        <ele>45</ele>
        <time>2021-04-28T09:02:50Z</time>
      </trkpt>
      <trkpt lat="51.545920000" lon="7.155970000">
        <ele>45</ele>
        <time>2021-04-28T09:02:51Z</time>
      </trkpt>
      <trkpt lat="51.545840000" lon="7.156050000">
        <ele>45</ele>
        <time>2021-04-28T09:02:53Z</time>
      </trkpt>
      <trkpt lat="51.545810000" lon="7.156170000">
        <ele>45</ele>
        <time>2021-04-28T09:02:55Z</time>
      </trkpt>
      <trkpt lat="51.545780000" lon="7.156370000">
        <ele>44</ele>
        <time>2021-04-28T09:02:59Z</time>
      </trkpt>
      <trkpt lat="51.545750000" lon="7.156470000">
        <ele>44</ele>
        <time>2021-04-28T09:03:00Z</time>
      </trkpt>
      <trkpt lat="51.545720000" lon="7.156540000">
        <ele>44</ele>
        <time>2021-04-28T09:03:02Z</time>
      </trkpt>
      <trkpt lat="51.545680000" lon="7.156630000">
        <ele>44</ele>
        <time>2021-04-28T09:06:38Z</time>
      </trkpt>
      <trkpt lat="51.545640000" lon="7.156680000">
        <ele>44</ele>
        <time>2021-04-28T09:06:41Z</time>
      </trkpt>
      <trkpt lat="51.545590000" lon="7.156720000">
        <ele>44</ele>
        <time>2021-04-28T09:06:43Z</time>
      </trkpt>
      <trkpt lat="51.545540000" lon="7.156750000">
        <ele>44</ele>
        <time>2021-04-28T09:06:44Z</time>
      </trkpt>
      <trkpt lat="51.545510000" lon="7.156800000">
        <ele>44</ele>
        <time>2021-04-28T09:06:46Z</time>
      </trkpt>
      <trkpt lat="51.545480000" lon="7.156910000">
        <ele>44</ele>
        <time>2021-04-28T09:06:47Z</time>
      </trkpt>
      <trkpt lat="51.545500000" lon="7.157100000">
        <ele>44</ele>
        <time>2021-04-28T09:06:50Z</time>
      </trkpt>
      <trkpt lat="51.545520000" lon="7.157250000">
        <ele>44</ele>
        <time>2021-04-28T09:06:51Z</time>
      </trkpt>
      <trkpt lat="51.545530000" lon="7.157320000">
        <ele>44</ele>
        <time>2021-04-28T09:06:53Z</time>
      </trkpt>
      <trkpt lat="51.545540000" lon="7.157480000">
        <ele>43</ele>
        <time>2021-04-28T09:06:54Z</time>
      </trkpt>
      <trkpt lat="51.545560000" lon="7.157650000">
        <ele>43</ele>
        <time>2021-04-28T09:06:57Z</time>
      </trkpt>
      <trkpt lat="51.545590000" lon="7.157810000">
        <ele>43</ele>
        <time>2021-04-28T09:06:58Z</time>
      </trkpt>
      <trkpt lat="51.545600000" lon="7.157890000">
        <ele>43</ele>
        <time>2021-04-28T09:06:59Z</time>
      </trkpt>
      <trkpt lat="51.545610000" lon="7.157970000">
        <ele>43</ele>
        <time>2021-04-28T09:07:01Z</time>
      </trkpt>
      <trkpt lat="51.545630000" lon="7.158140000">
        <ele>43</ele>
        <time>2021-04-28T09:07:02Z</time>
      </trkpt>
      <trkpt lat="51.545640000" lon="7.158220000">
        <ele>43</ele>
        <time>2021-04-28T09:07:04Z</time>
      </trkpt>
      <trkpt lat="51.545670000" lon="7.158400000">
        <ele>43</ele>
        <time>2021-04-28T09:07:06Z</time>
      </trkpt>
      <trkpt lat="51.545700000" lon="7.158560000">
        <ele>43</ele>
        <time>2021-04-28T09:07:07Z</time>
      </trkpt>
      <trkpt lat="51.545730000" lon="7.158730000">
        <ele>43</ele>
        <time>2021-04-28T09:07:09Z</time>
      </trkpt>
      <trkpt lat="51.545750000" lon="7.158840000">
        <ele>43</ele>
        <time>2021-04-28T09:07:11Z</time>
      </trkpt>
      <trkpt lat="51.545780000" lon="7.158970000">
        <ele>47</ele>
        <time>2021-04-28T09:07:12Z</time>
      </trkpt>
      <trkpt lat="51.545800000" lon="7.159070000">
        <ele>47</ele>
        <time>2021-04-28T09:07:13Z</time>
      </trkpt>
      <trkpt lat="51.545820000" lon="7.159170000">
        <ele>47</ele>
        <time>2021-04-28T09:07:14Z</time>
      </trkpt>
      <trkpt lat="51.545860000" lon="7.159230000">
        <ele>47</ele>
        <time>2021-04-28T09:07:15Z</time>
      </trkpt>
      <trkpt lat="51.545910000" lon="7.159270000">
        <ele>47</ele>
        <time>2021-04-28T09:07:16Z</time>
      </trkpt>
      <trkpt lat="51.546020000" lon="7.159260000">
        <ele>47</ele>
        <time>2021-04-28T09:07:18Z</time>
      </trkpt>
      <trkpt lat="51.546100000" lon="7.159240000">
        <ele>47</ele>
        <time>2021-04-28T09:07:20Z</time>
      </trkpt>
      <trkpt lat="51.546200000" lon="7.159200000">
        <ele>47</ele>
        <time>2021-04-28T09:07:21Z</time>
      </trkpt>
      <trkpt lat="51.546300000" lon="7.159230000">
        <ele>47</ele>
        <time>2021-04-28T09:07:23Z</time>
      </trkpt>
      <trkpt lat="51.546350000" lon="7.159380000">
        <ele>47</ele>
        <time>2021-04-28T09:07:25Z</time>
      </trkpt>
      <trkpt lat="51.546360000" lon="7.159470000">
        <ele>47</ele>
        <time>2021-04-28T09:07:27Z</time>
      </trkpt>
      <trkpt lat="51.546370000" lon="7.159650000">
        <ele>42</ele>
        <time>2021-04-28T09:07:29Z</time>
      </trkpt>
      <trkpt lat="51.546370000" lon="7.159740000">
        <ele>42</ele>
        <time>2021-04-28T09:07:30Z</time>
      </trkpt>
      <trkpt lat="51.546390000" lon="7.159900000">
        <ele>42</ele>
        <time>2021-04-28T09:07:31Z</time>
      </trkpt>
      <trkpt lat="51.546420000" lon="7.160100000">
        <ele>42</ele>
        <time>2021-04-28T09:07:33Z</time>
      </trkpt>
      <trkpt lat="51.546460000" lon="7.160170000">
        <ele>42</ele>
        <time>2021-04-28T09:07:34Z</time>
      </trkpt>
      <trkpt lat="51.546520000" lon="7.160200000">
        <ele>42</ele>
        <time>2021-04-28T09:07:35Z</time>
      </trkpt>
      <trkpt lat="51.546570000" lon="7.160170000">
        <ele>42</ele>
        <time>2021-04-28T09:07:36Z</time>
      </trkpt>
      <trkpt lat="51.546660000" lon="7.160160000">
        <ele>42</ele>
        <time>2021-04-28T09:07:39Z</time>
      </trkpt>
      <trkpt lat="51.546690000" lon="7.160260000">
        <ele>42</ele>
        <time>2021-04-28T09:07:40Z</time>
      </trkpt>
      <trkpt lat="51.546710000" lon="7.160340000">
        <ele>42</ele>
        <time>2021-04-28T09:07:42Z</time>
      </trkpt>
      <trkpt lat="51.546760000" lon="7.160470000">
        <ele>42</ele>
        <time>2021-04-28T09:07:44Z</time>
      </trkpt>
      <trkpt lat="51.546810000" lon="7.160600000">
        <ele>42</ele>
        <time>2021-04-28T09:07:45Z</time>
      </trkpt>
      <trkpt lat="51.546880000" lon="7.160700000">
        <ele>45</ele>
        <time>2021-04-28T09:07:48Z</time>
      </trkpt>
      <trkpt lat="51.546930000" lon="7.160740000">
        <ele>45</ele>
        <time>2021-04-28T09:07:49Z</time>
      </trkpt>
      <trkpt lat="51.547000000" lon="7.160750000">
        <ele>45</ele>
        <time>2021-04-28T09:07:50Z</time>
      </trkpt>
      <trkpt lat="51.547080000" lon="7.160730000">
        <ele>45</ele>
        <time>2021-04-28T09:07:52Z</time>
      </trkpt>
      <trkpt lat="51.547160000" lon="7.160690000">
        <ele>45</ele>
        <time>2021-04-28T09:07:54Z</time>
      </trkpt>
      <trkpt lat="51.547240000" lon="7.160660000">
        <ele>45</ele>
        <time>2021-04-28T09:07:57Z</time>
      </trkpt>
      <trkpt lat="51.547330000" lon="7.160630000">
        <ele>45</ele>
        <time>2021-04-28T09:07:59Z</time>
      </trkpt>
      <trkpt lat="51.547410000" lon="7.160590000">
        <ele>45</ele>
        <time>2021-04-28T09:08:01Z</time>
      </trkpt>
      <trkpt lat="51.547550000" lon="7.160640000">
        <ele>45</ele>
        <time>2021-04-28T09:08:03Z</time>
      </trkpt>
      <trkpt lat="51.547610000" lon="7.160790000">
        <ele>45</ele>
        <time>2021-04-28T09:08:05Z</time>
      </trkpt>
      <trkpt lat="51.547600000" lon="7.160880000">
        <ele>45</ele>
        <time>2021-04-28T09:08:07Z</time>
      </trkpt>
      <trkpt lat="51.547580000" lon="7.161040000">
        <ele>46</ele>
        <time>2021-04-28T09:08:09Z</time>
      </trkpt>
      <trkpt lat="51.547590000" lon="7.161190000">
        <ele>46</ele>
        <time>2021-04-28T09:08:10Z</time>
      </trkpt>
      <trkpt lat="51.547620000" lon="7.161340000">
        <ele>46</ele>
        <time>2021-04-28T09:08:12Z</time>
      </trkpt>
      <trkpt lat="51.547640000" lon="7.161550000">
        <ele>46</ele>
        <time>2021-04-28T09:08:14Z</time>
      </trkpt>
      <trkpt lat="51.547660000" lon="7.161720000">
        <ele>46</ele>
        <time>2021-04-28T09:08:17Z</time>
      </trkpt>
      <trkpt lat="51.547680000" lon="7.161880000">
        <ele>46</ele>
        <time>2021-04-28T09:08:19Z</time>
      </trkpt>
      <trkpt lat="51.547700000" lon="7.162050000">
        <ele>46</ele>
        <time>2021-04-28T09:08:20Z</time>
      </trkpt>
      <trkpt lat="51.547710000" lon="7.162140000">
        <ele>46</ele>
        <time>2021-04-28T09:08:21Z</time>
      </trkpt>
      <trkpt lat="51.547730000" lon="7.162310000">
        <ele>46</ele>
        <time>2021-04-28T09:08:23Z</time>
      </trkpt>
      <trkpt lat="51.547740000" lon="7.162390000">
        <ele>46</ele>
        <time>2021-04-28T09:08:25Z</time>
      </trkpt>
      <trkpt lat="51.547770000" lon="7.162560000">
        <ele>46</ele>
        <time>2021-04-28T09:08:26Z</time>
      </trkpt>
      <trkpt lat="51.547810000" lon="7.162710000">
        <ele>46</ele>
        <time>2021-04-28T09:08:29Z</time>
      </trkpt>
      <trkpt lat="51.547850000" lon="7.162770000">
        <ele>42</ele>
        <time>2021-04-28T09:08:29Z</time>
      </trkpt>
      <trkpt lat="51.547960000" lon="7.162780000">
        <ele>42</ele>
        <time>2021-04-28T09:08:31Z</time>
      </trkpt>
      <trkpt lat="51.548060000" lon="7.162740000">
        <ele>42</ele>
        <time>2021-04-28T09:08:33Z</time>
      </trkpt>
      <trkpt lat="51.548180000" lon="7.162710000">
        <ele>42</ele>
        <time>2021-04-28T09:08:35Z</time>
      </trkpt>
      <trkpt lat="51.548290000" lon="7.162670000">
        <ele>42</ele>
        <time>2021-04-28T09:08:38Z</time>
      </trkpt>
      <trkpt lat="51.548390000" lon="7.162620000">
        <ele>42</ele>
        <time>2021-04-28T09:08:40Z</time>
      </trkpt>
      <trkpt lat="51.548470000" lon="7.162580000">
        <ele>42</ele>
        <time>2021-04-28T09:08:42Z</time>
      </trkpt>
      <trkpt lat="51.548520000" lon="7.162620000">
        <ele>42</ele>
        <time>2021-04-28T09:08:44Z</time>
      </trkpt>
      <trkpt lat="51.548560000" lon="7.162730000">
        <ele>42</ele>
        <time>2021-04-28T09:08:45Z</time>
      </trkpt>
      <trkpt lat="51.548580000" lon="7.162890000">
        <ele>42</ele>
        <time>2021-04-28T09:08:48Z</time>
      </trkpt>
      <trkpt lat="51.548580000" lon="7.162970000">
        <ele>42</ele>
        <time>2021-04-28T09:08:49Z</time>
      </trkpt>
      <trkpt lat="51.548590000" lon="7.163130000">
        <ele>42</ele>
        <time>2021-04-28T09:08:51Z</time>
      </trkpt>
      <trkpt lat="51.548590000" lon="7.163280000">
        <ele>42</ele>
        <time>2021-04-28T09:08:52Z</time>
      </trkpt>
      <trkpt lat="51.548580000" lon="7.163480000">
        <ele>44</ele>
        <time>2021-04-28T09:08:54Z</time>
      </trkpt>
      <trkpt lat="51.548570000" lon="7.163570000">
        <ele>44</ele>
        <time>2021-04-28T09:08:55Z</time>
      </trkpt>
      <trkpt lat="51.548580000" lon="7.163680000">
        <ele>44</ele>
        <time>2021-04-28T09:08:56Z</time>
      </trkpt>
      <trkpt lat="51.548580000" lon="7.163770000">
        <ele>44</ele>
        <time>2021-04-28T09:08:57Z</time>
      </trkpt>
      <trkpt lat="51.548600000" lon="7.163930000">
        <ele>44</ele>
        <time>2021-04-28T09:08:59Z</time>
      </trkpt>
      <trkpt lat="51.548610000" lon="7.164040000">
        <ele>44</ele>
        <time>2021-04-28T09:09:01Z</time>
      </trkpt>
      <trkpt lat="51.548620000" lon="7.164220000">
        <ele>44</ele>
        <time>2021-04-28T09:09:02Z</time>
      </trkpt>
      <trkpt lat="51.548630000" lon="7.164320000">
        <ele>44</ele>
        <time>2021-04-28T09:09:04Z</time>
      </trkpt>
      <trkpt lat="51.548640000" lon="7.164410000">
        <ele>44</ele>
        <time>2021-04-28T09:09:05Z</time>
      </trkpt>
      <trkpt lat="51.548660000" lon="7.164610000">
        <ele>44</ele>
        <time>2021-04-28T09:09:06Z</time>
      </trkpt>
      <trkpt lat="51.548670000" lon="7.164700000">
        <ele>44</ele>
        <time>2021-04-28T09:09:08Z</time>
      </trkpt>
      <trkpt lat="51.548700000" lon="7.164890000">
        <ele>44</ele>
        <time>2021-04-28T09:09:10Z</time>
      </trkpt>
      <trkpt lat="51.548730000" lon="7.165080000">
        <ele>44</ele>
        <time>2021-04-28T09:09:11Z</time>
      </trkpt>
      <trkpt lat="51.548750000" lon="7.165250000">
        <ele>44</ele>
        <time>2021-04-28T09:09:13Z</time>
      </trkpt>
      <trkpt lat="51.548770000" lon="7.165430000">
        <ele>47</ele>
        <time>2021-04-28T09:09:15Z</time>
      </trkpt>
      <trkpt lat="51.548780000" lon="7.165550000">
        <ele>47</ele>
        <time>2021-04-28T09:09:16Z</time>
      </trkpt>
      <trkpt lat="51.548790000" lon="7.165630000">
        <ele>47</ele>
        <time>2021-04-28T09:09:17Z</time>
      </trkpt>
      <trkpt lat="51.548800000" lon="7.165720000">
        <ele>47</ele>
        <time>2021-04-28T09:09:18Z</time>
      </trkpt>
      <trkpt lat="51.548810000" lon="7.165810000">
        <ele>47</ele>
        <time>2021-04-28T09:09:20Z</time>
      </trkpt>
      <trkpt lat="51.548830000" lon="7.165970000">
        <ele>47</ele>
        <time>2021-04-28T09:09:21Z</time>
      </trkpt>
      <trkpt lat="51.548850000" lon="7.166080000">
        <ele>47</ele>
        <time>2021-04-28T09:09:23Z</time>
      </trkpt>
      <trkpt lat="51.548870000" lon="7.166260000">
        <ele>47</ele>
        <time>2021-04-28T09:09:24Z</time>
      </trkpt>
      <trkpt lat="51.548880000" lon="7.166430000">
        <ele>47</ele>
        <time>2021-04-28T09:09:26Z</time>
      </trkpt>
      <trkpt lat="51.548890000" lon="7.166520000">
        <ele>47</ele>
        <time>2021-04-28T09:09:28Z</time>
      </trkpt>
      <trkpt lat="51.548910000" lon="7.166690000">
        <ele>47</ele>
        <time>2021-04-28T09:09:29Z</time>
      </trkpt>
      <trkpt lat="51.548910000" lon="7.166770000">
        <ele>47</ele>
        <time>2021-04-28T09:09:31Z</time>
      </trkpt>
      <trkpt lat="51.548920000" lon="7.166850000">
        <ele>47</ele>
        <time>2021-04-28T09:09:32Z</time>
      </trkpt>
      <trkpt lat="51.548940000" lon="7.166940000">
        <ele>47</ele>
        <time>2021-04-28T09:09:33Z</time>
      </trkpt>
      <trkpt lat="51.548980000" lon="7.167120000">
        <ele>47</ele>
        <time>2021-04-28T09:09:35Z</time>
      </trkpt>
      <trkpt lat="51.549000000" lon="7.167280000">
        <ele>43</ele>
        <time>2021-04-28T09:09:36Z</time>
      </trkpt>
      <trkpt lat="51.549010000" lon="7.167460000">
        <ele>43</ele>
        <time>2021-04-28T09:09:38Z</time>
      </trkpt>
      <trkpt lat="51.549030000" lon="7.167580000">
        <ele>43</ele>
        <time>2021-04-28T09:09:39Z</time>
      </trkpt>
      <trkpt lat="51.549030000" lon="7.167660000">
        <ele>43</ele>
        <time>2021-04-28T09:09:41Z</time>
      </trkpt>
      <trkpt lat="51.549040000" lon="7.167740000">
        <ele>43</ele>
        <time>2021-04-28T09:09:42Z</time>
      </trkpt>
      <trkpt lat="51.549050000" lon="7.167910000">
        <ele>43</ele>
        <time>2021-04-28T09:09:44Z</time>
      </trkpt>
      <trkpt lat="51.549070000" lon="7.168100000">
        <ele>43</ele>
        <time>2021-04-28T09:09:46Z</time>
      </trkpt>
      <trkpt lat="51.549080000" lon="7.168190000">
        <ele>43</ele>
        <time>2021-04-28T09:09:47Z</time>
      </trkpt>
      <trkpt lat="51.549090000" lon="7.168290000">
        <ele>43</ele>
        <time>2021-04-28T09:09:48Z</time>
      </trkpt>
      <trkpt lat="51.549110000" lon="7.168490000">
        <ele>43</ele>
        <time>2021-04-28T09:09:50Z</time>
      </trkpt>
      <trkpt lat="51.549140000" lon="7.168690000">
        <ele>43</ele>
        <time>2021-04-28T09:09:52Z</time>
      </trkpt>
      <trkpt lat="51.549160000" lon="7.168890000">
        <ele>43</ele>
        <time>2021-04-28T09:09:54Z</time>
      </trkpt>
      <trkpt lat="51.549170000" lon="7.168990000">
        <ele>43</ele>
        <time>2021-04-28T09:09:55Z</time>
      </trkpt>
      <trkpt lat="51.549170000" lon="7.169190000">
        <ele>40</ele>
        <time>2021-04-28T09:09:57Z</time>
      </trkpt>
      <trkpt lat="51.549160000" lon="7.169370000">
        <ele>40</ele>
        <time>2021-04-28T09:09:58Z</time>
      </trkpt>
      <trkpt lat="51.549170000" lon="7.169570000">
        <ele>40</ele>
        <time>2021-04-28T09:10:00Z</time>
      </trkpt>
      <trkpt lat="51.549170000" lon="7.169690000">
        <ele>40</ele>
        <time>2021-04-28T09:10:02Z</time>
      </trkpt>
      <trkpt lat="51.549170000" lon="7.169870000">
        <ele>40</ele>
        <time>2021-04-28T09:10:04Z</time>
      </trkpt>
      <trkpt lat="51.549170000" lon="7.170050000">
        <ele>40</ele>
        <time>2021-04-28T09:10:05Z</time>
      </trkpt>
      <trkpt lat="51.549170000" lon="7.170160000">
        <ele>40</ele>
        <time>2021-04-28T09:10:06Z</time>
      </trkpt>
      <trkpt lat="51.549170000" lon="7.170260000">
        <ele>40</ele>
        <time>2021-04-28T09:10:07Z</time>
      </trkpt>
      <trkpt lat="51.549170000" lon="7.170370000">
        <ele>40</ele>
        <time>2021-04-28T09:10:09Z</time>
      </trkpt>
      <trkpt lat="51.549160000" lon="7.170560000">
        <ele>40</ele>
        <time>2021-04-28T09:10:11Z</time>
      </trkpt>
      <trkpt lat="51.549160000" lon="7.170660000">
        <ele>40</ele>
        <time>2021-04-28T09:10:12Z</time>
      </trkpt>
      <trkpt lat="51.549160000" lon="7.170830000">
        <ele>41</ele>
        <time>2021-04-28T09:10:13Z</time>
      </trkpt>
      <trkpt lat="51.549160000" lon="7.170930000">
        <ele>41</ele>
        <time>2021-04-28T09:10:15Z</time>
      </trkpt>
      <trkpt lat="51.549160000" lon="7.171020000">
        <ele>41</ele>
        <time>2021-04-28T09:10:16Z</time>
      </trkpt>
      <trkpt lat="51.549150000" lon="7.171210000">
        <ele>41</ele>
        <time>2021-04-28T09:10:18Z</time>
      </trkpt>
      <trkpt lat="51.549140000" lon="7.171390000">
        <ele>41</ele>
        <time>2021-04-28T09:10:19Z</time>
      </trkpt>
      <trkpt lat="51.549130000" lon="7.171560000">
        <ele>41</ele>
        <time>2021-04-28T09:10:21Z</time>
      </trkpt>
      <trkpt lat="51.549130000" lon="7.171660000">
        <ele>41</ele>
        <time>2021-04-28T09:10:22Z</time>
      </trkpt>
      <trkpt lat="51.549150000" lon="7.171810000">
        <ele>41</ele>
        <time>2021-04-28T09:10:25Z</time>
      </trkpt>
      <trkpt lat="51.549160000" lon="7.171900000">
        <ele>41</ele>
        <time>2021-04-28T09:10:26Z</time>
      </trkpt>
      <trkpt lat="51.549170000" lon="7.172030000">
        <ele>41</ele>
        <time>2021-04-28T09:10:28Z</time>
      </trkpt>
      <trkpt lat="51.549190000" lon="7.172100000">
        <ele>41</ele>
        <time>2021-04-28T09:10:29Z</time>
      </trkpt>
      <trkpt lat="51.549200000" lon="7.172190000">
        <ele>41</ele>
        <time>2021-04-28T09:10:31Z</time>
      </trkpt>
      <trkpt lat="51.549230000" lon="7.172390000">
        <ele>41</ele>
        <time>2021-04-28T09:10:33Z</time>
      </trkpt>
      <trkpt lat="51.549240000" lon="7.172470000">
        <ele>41</ele>
        <time>2021-04-28T09:10:35Z</time>
      </trkpt>
      <trkpt lat="51.549250000" lon="7.172550000">
        <ele>41</ele>
        <time>2021-04-28T09:10:36Z</time>
      </trkpt>
      <trkpt lat="51.549270000" lon="7.172720000">
        <ele>39</ele>
        <time>2021-04-28T09:10:38Z</time>
      </trkpt>
      <trkpt lat="51.549290000" lon="7.172890000">
        <ele>39</ele>
        <time>2021-04-28T09:10:39Z</time>
      </trkpt>
      <trkpt lat="51.549300000" lon="7.173060000">
        <ele>39</ele>
        <time>2021-04-28T09:10:41Z</time>
      </trkpt>
      <trkpt lat="51.549320000" lon="7.173230000">
        <ele>39</ele>
        <time>2021-04-28T09:10:43Z</time>
      </trkpt>
      <trkpt lat="51.549330000" lon="7.173350000">
        <ele>39</ele>
        <time>2021-04-28T09:10:44Z</time>
      </trkpt>
      <trkpt lat="51.549330000" lon="7.173430000">
        <ele>39</ele>
        <time>2021-04-28T09:10:45Z</time>
      </trkpt>
      <trkpt lat="51.549350000" lon="7.173600000">
        <ele>39</ele>
        <time>2021-04-28T09:10:47Z</time>
      </trkpt>
      <trkpt lat="51.549360000" lon="7.173690000">
        <ele>39</ele>
        <time>2021-04-28T09:10:49Z</time>
      </trkpt>
      <trkpt lat="51.549370000" lon="7.173770000">
        <ele>39</ele>
        <time>2021-04-28T09:10:50Z</time>
      </trkpt>
      <trkpt lat="51.549390000" lon="7.173920000">
        <ele>39</ele>
        <time>2021-04-28T09:10:51Z</time>
      </trkpt>
      <trkpt lat="51.549410000" lon="7.174120000">
        <ele>39</ele>
        <time>2021-04-28T09:10:54Z</time>
      </trkpt>
      <trkpt lat="51.549430000" lon="7.174270000">
        <ele>39</ele>
        <time>2021-04-28T09:10:55Z</time>
      </trkpt>
      <trkpt lat="51.549440000" lon="7.174350000">
        <ele>39</ele>
        <time>2021-04-28T09:10:57Z</time>
      </trkpt>
      <trkpt lat="51.549450000" lon="7.174430000">
        <ele>39</ele>
        <time>2021-04-28T09:10:58Z</time>
      </trkpt>
      <trkpt lat="51.549460000" lon="7.174510000">
        <ele>39</ele>
        <time>2021-04-28T09:10:59Z</time>
      </trkpt>
      <trkpt lat="51.549470000" lon="7.174700000">
        <ele>40</ele>
        <time>2021-04-28T09:11:00Z</time>
      </trkpt>
      <trkpt lat="51.549490000" lon="7.174870000">
        <ele>40</ele>
        <time>2021-04-28T09:11:02Z</time>
      </trkpt>
      <trkpt lat="51.549500000" lon="7.174960000">
        <ele>40</ele>
        <time>2021-04-28T09:11:03Z</time>
      </trkpt>
      <trkpt lat="51.549520000" lon="7.175060000">
        <ele>40</ele>
        <time>2021-04-28T09:11:05Z</time>
      </trkpt>
      <trkpt lat="51.549540000" lon="7.175210000">
        <ele>40</ele>
        <time>2021-04-28T09:11:06Z</time>
      </trkpt>
      <trkpt lat="51.549550000" lon="7.175380000">
        <ele>40</ele>
        <time>2021-04-28T09:11:08Z</time>
      </trkpt>
      <trkpt lat="51.549560000" lon="7.175490000">
        <ele>40</ele>
        <time>2021-04-28T09:11:10Z</time>
      </trkpt>
      <trkpt lat="51.549580000" lon="7.175650000">
        <ele>40</ele>
        <time>2021-04-28T09:11:11Z</time>
      </trkpt>
      <trkpt lat="51.549600000" lon="7.175790000">
        <ele>40</ele>
        <time>2021-04-28T09:11:13Z</time>
      </trkpt>
      <trkpt lat="51.549620000" lon="7.175900000">
        <ele>40</ele>
        <time>2021-04-28T09:11:15Z</time>
      </trkpt>
      <trkpt lat="51.549630000" lon="7.176040000">
        <ele>45</ele>
        <time>2021-04-28T09:11:16Z</time>
      </trkpt>
      <trkpt lat="51.549660000" lon="7.176150000">
        <ele>45</ele>
        <time>2021-04-28T09:11:18Z</time>
      </trkpt>
      <trkpt lat="51.549700000" lon="7.176300000">
        <ele>45</ele>
        <time>2021-04-28T09:11:20Z</time>
      </trkpt>
      <trkpt lat="51.549730000" lon="7.176440000">
        <ele>45</ele>
        <time>2021-04-28T09:11:21Z</time>
      </trkpt>
      <trkpt lat="51.549770000" lon="7.176600000">
        <ele>45</ele>
        <time>2021-04-28T09:11:23Z</time>
      </trkpt>
      <trkpt lat="51.549800000" lon="7.176710000">
        <ele>45</ele>
        <time>2021-04-28T09:11:25Z</time>
      </trkpt>
      <trkpt lat="51.549840000" lon="7.176780000">
        <ele>45</ele>
        <time>2021-04-28T09:11:26Z</time>
      </trkpt>
      <trkpt lat="51.549890000" lon="7.176940000">
        <ele>45</ele>
        <time>2021-04-28T09:11:28Z</time>
      </trkpt>
      <trkpt lat="51.549940000" lon="7.177090000">
        <ele>45</ele>
        <time>2021-04-28T09:11:29Z</time>
      </trkpt>
      <trkpt lat="51.549980000" lon="7.177230000">
        <ele>45</ele>
        <time>2021-04-28T09:11:31Z</time>
      </trkpt>
      <trkpt lat="51.550040000" lon="7.177430000">
        <ele>48</ele>
        <time>2021-04-28T09:11:34Z</time>
      </trkpt>
      <trkpt lat="51.550070000" lon="7.177550000">
        <ele>48</ele>
        <time>2021-04-28T09:11:36Z</time>
      </trkpt>
      <trkpt lat="51.550090000" lon="7.177660000">
        <ele>48</ele>
        <time>2021-04-28T09:11:38Z</time>
      </trkpt>
      <trkpt lat="51.550130000" lon="7.177810000">
        <ele>48</ele>
        <time>2021-04-28T09:11:39Z</time>
      </trkpt>
      <trkpt lat="51.550160000" lon="7.177980000">
        <ele>48</ele>
        <time>2021-04-28T09:11:42Z</time>
      </trkpt>
      <trkpt lat="51.550190000" lon="7.178130000">
        <ele>48</ele>
        <time>2021-04-28T09:11:43Z</time>
      </trkpt>
      <trkpt lat="51.550250000" lon="7.178240000">
        <ele>48</ele>
        <time>2021-04-28T09:11:45Z</time>
      </trkpt>
      <trkpt lat="51.550390000" lon="7.178200000">
        <ele>46</ele>
        <time>2021-04-28T09:11:49Z</time>
      </trkpt>
      <trkpt lat="51.550470000" lon="7.178100000">
        <ele>46</ele>
        <time>2021-04-28T09:11:50Z</time>
      </trkpt>
      <trkpt lat="51.550520000" lon="7.178060000">
        <ele>46</ele>
        <time>2021-04-28T09:11:51Z</time>
      </trkpt>
      <trkpt lat="51.550560000" lon="7.178010000">
        <ele>46</ele>
        <time>2021-04-28T09:11:52Z</time>
      </trkpt>
      <trkpt lat="51.550600000" lon="7.177970000">
        <ele>46</ele>
        <time>2021-04-28T09:11:54Z</time>
      </trkpt>
      <trkpt lat="51.550670000" lon="7.177870000">
        <ele>46</ele>
        <time>2021-04-28T09:11:56Z</time>
      </trkpt>
      <trkpt lat="51.550720000" lon="7.177770000">
        <ele>46</ele>
        <time>2021-04-28T09:11:57Z</time>
      </trkpt>
      <trkpt lat="51.550790000" lon="7.177660000">
        <ele>46</ele>
        <time>2021-04-28T09:11:59Z</time>
      </trkpt>
      <trkpt lat="51.550860000" lon="7.177650000">
        <ele>46</ele>
        <time>2021-04-28T09:12:02Z</time>
      </trkpt>
      <trkpt lat="51.550910000" lon="7.177710000">
        <ele>46</ele>
        <time>2021-04-28T09:12:04Z</time>
      </trkpt>
      <trkpt lat="51.550960000" lon="7.177770000">
        <ele>46</ele>
        <time>2021-04-28T09:12:05Z</time>
      </trkpt>
      <trkpt lat="51.551000000" lon="7.177810000">
        <ele>46</ele>
        <time>2021-04-28T09:12:06Z</time>
      </trkpt>
      <trkpt lat="51.551040000" lon="7.177840000">
        <ele>46</ele>
        <time>2021-04-28T09:12:07Z</time>
      </trkpt>
      <trkpt lat="51.551070000" lon="7.177940000">
        <ele>46</ele>
        <time>2021-04-28T09:12:10Z</time>
      </trkpt>
      <trkpt lat="51.551030000" lon="7.177990000">
        <ele>46</ele>
        <time>2021-04-28T09:12:12Z</time>
      </trkpt>
      <trkpt lat="51.550980000" lon="7.178030000">
        <ele>46</ele>
        <time>2021-04-28T09:12:14Z</time>
      </trkpt>
      <trkpt lat="51.550930000" lon="7.178100000">
        <ele>46</ele>
        <time>2021-04-28T09:12:15Z</time>
      </trkpt>
      <trkpt lat="51.550870000" lon="7.178180000">
        <ele>46</ele>
        <time>2021-04-28T09:12:18Z</time>
      </trkpt>
      <trkpt lat="51.550780000" lon="7.178300000">
        <ele>46</ele>
        <time>2021-04-28T09:12:20Z</time>
      </trkpt>
      <trkpt lat="51.550710000" lon="7.178390000">
        <ele>47</ele>
        <time>2021-04-28T09:12:23Z</time>
      </trkpt>
      <trkpt lat="51.550630000" lon="7.178460000">
        <ele>47</ele>
        <time>2021-04-28T09:12:25Z</time>
      </trkpt>
      <trkpt lat="51.550560000" lon="7.178510000">
        <ele>47</ele>
        <time>2021-04-28T09:12:26Z</time>
      </trkpt>
      <trkpt lat="51.550470000" lon="7.178550000">
        <ele>47</ele>
        <time>2021-04-28T09:12:28Z</time>
      </trkpt>
      <trkpt lat="51.550370000" lon="7.178580000">
        <ele>47</ele>
        <time>2021-04-28T09:12:30Z</time>
      </trkpt>
      <trkpt lat="51.550290000" lon="7.178610000">
        <ele>47</ele>
        <time>2021-04-28T09:12:32Z</time>
      </trkpt>
      <trkpt lat="51.550230000" lon="7.178650000">
        <ele>47</ele>
        <time>2021-04-28T09:12:33Z</time>
      </trkpt>
      <trkpt lat="51.550120000" lon="7.178730000">
        <ele>47</ele>
        <time>2021-04-28T09:12:37Z</time>
      </trkpt>
      <trkpt lat="51.550030000" lon="7.178780000">
        <ele>47</ele>
        <time>2021-04-28T09:12:39Z</time>
      </trkpt>
      <trkpt lat="51.549980000" lon="7.178810000">
        <ele>47</ele>
        <time>2021-04-28T09:12:40Z</time>
      </trkpt>
      <trkpt lat="51.549890000" lon="7.178860000">
        <ele>47</ele>
        <time>2021-04-28T09:12:41Z</time>
      </trkpt>
      <trkpt lat="51.549840000" lon="7.178890000">
        <ele>47</ele>
        <time>2021-04-28T09:12:43Z</time>
      </trkpt>
      <trkpt lat="51.549740000" lon="7.178940000">
        <ele>47</ele>
        <time>2021-04-28T09:12:44Z</time>
      </trkpt>
      <trkpt lat="51.549670000" lon="7.178990000">
        <ele>47</ele>
        <time>2021-04-28T09:12:46Z</time>
      </trkpt>
      <trkpt lat="51.549560000" lon="7.179050000">
        <ele>47</ele>
        <time>2021-04-28T09:12:48Z</time>
      </trkpt>
      <trkpt lat="51.549460000" lon="7.179140000">
        <ele>47</ele>
        <time>2021-04-28T09:12:52Z</time>
      </trkpt>
      <trkpt lat="51.549450000" lon="7.179240000">
        <ele>47</ele>
        <time>2021-04-28T09:12:54Z</time>
      </trkpt>
      <trkpt lat="51.549530000" lon="7.179280000">
        <ele>47</ele>
        <time>2021-04-28T09:12:58Z</time>
      </trkpt>
      <trkpt lat="51.549610000" lon="7.179250000">
        <ele>47</ele>
        <time>2021-04-28T09:12:59Z</time>
      </trkpt>
      <trkpt lat="51.549700000" lon="7.179210000">
        <ele>47</ele>
        <time>2021-04-28T09:13:01Z</time>
      </trkpt>
      <trkpt lat="51.549770000" lon="7.179250000">
        <ele>47</ele>
        <time>2021-04-28T09:13:04Z</time>
      </trkpt>
      <trkpt lat="51.549810000" lon="7.179380000">
        <ele>47</ele>
        <time>2021-04-28T09:13:06Z</time>
      </trkpt>
      <trkpt lat="51.549840000" lon="7.179530000">
        <ele>47</ele>
        <time>2021-04-28T09:13:07Z</time>
      </trkpt>
      <trkpt lat="51.549880000" lon="7.179730000">
        <ele>47</ele>
        <time>2021-04-28T09:13:09Z</time>
      </trkpt>
      <trkpt lat="51.549910000" lon="7.179900000">
        <ele>47</ele>
        <time>2021-04-28T09:13:12Z</time>
      </trkpt>
      <trkpt lat="51.549950000" lon="7.180070000">
        <ele>47</ele>
        <time>2021-04-28T09:13:14Z</time>
      </trkpt>
      <trkpt lat="51.549970000" lon="7.180150000">
        <ele>47</ele>
        <time>2021-04-28T09:13:15Z</time>
      </trkpt>
      <trkpt lat="51.550010000" lon="7.180300000">
        <ele>49</ele>
        <time>2021-04-28T09:13:16Z</time>
      </trkpt>
      <trkpt lat="51.550040000" lon="7.180430000">
        <ele>49</ele>
        <time>2021-04-28T09:13:18Z</time>
      </trkpt>
      <trkpt lat="51.550070000" lon="7.180590000">
        <ele>49</ele>
        <time>2021-04-28T09:13:20Z</time>
      </trkpt>
      <trkpt lat="51.550090000" lon="7.180680000">
        <ele>49</ele>
        <time>2021-04-28T09:13:21Z</time>
      </trkpt>
      <trkpt lat="51.550120000" lon="7.180860000">
        <ele>49</ele>
        <time>2021-04-28T09:13:22Z</time>
      </trkpt>
      <trkpt lat="51.550160000" lon="7.181050000">
        <ele>49</ele>
        <time>2021-04-28T09:13:25Z</time>
      </trkpt>
      <trkpt lat="51.550180000" lon="7.181140000">
        <ele>49</ele>
        <time>2021-04-28T09:13:26Z</time>
      </trkpt>
      <trkpt lat="51.550220000" lon="7.181310000">
        <ele>49</ele>
        <time>2021-04-28T09:13:27Z</time>
      </trkpt>
      <trkpt lat="51.550260000" lon="7.181490000">
        <ele>49</ele>
        <time>2021-04-28T09:13:29Z</time>
      </trkpt>
      <trkpt lat="51.550290000" lon="7.181590000">
        <ele>49</ele>
        <time>2021-04-28T09:13:31Z</time>
      </trkpt>
      <trkpt lat="51.550330000" lon="7.181750000">
        <ele>49</ele>
        <time>2021-04-28T09:13:33Z</time>
      </trkpt>
      <trkpt lat="51.550390000" lon="7.181920000">
        <ele>49</ele>
        <time>2021-04-28T09:13:35Z</time>
      </trkpt>
      <trkpt lat="51.550440000" lon="7.182080000">
        <ele>49</ele>
        <time>2021-04-28T09:13:37Z</time>
      </trkpt>
      <trkpt lat="51.550490000" lon="7.182230000">
        <ele>49</ele>
        <time>2021-04-28T09:13:39Z</time>
      </trkpt>
      <trkpt lat="51.550550000" lon="7.182390000">
        <ele>49</ele>
        <time>2021-04-28T09:13:41Z</time>
      </trkpt>
      <trkpt lat="51.550600000" lon="7.182540000">
        <ele>49</ele>
        <time>2021-04-28T09:13:42Z</time>
      </trkpt>
      <trkpt lat="51.550660000" lon="7.182680000">
        <ele>49</ele>
        <time>2021-04-28T09:13:44Z</time>
      </trkpt>
      <trkpt lat="51.550720000" lon="7.182820000">
        <ele>49</ele>
        <time>2021-04-28T09:13:47Z</time>
      </trkpt>
      <trkpt lat="51.550780000" lon="7.182970000">
        <ele>49</ele>
        <time>2021-04-28T09:13:48Z</time>
      </trkpt>
      <trkpt lat="51.550810000" lon="7.183060000">
        <ele>49</ele>
        <time>2021-04-28T09:13:49Z</time>
      </trkpt>
      <trkpt lat="51.550830000" lon="7.183150000">
        <ele>49</ele>
        <time>2021-04-28T09:13:50Z</time>
      </trkpt>
      <trkpt lat="51.550860000" lon="7.183240000">
        <ele>49</ele>
        <time>2021-04-28T09:13:52Z</time>
      </trkpt>
      <trkpt lat="51.550920000" lon="7.183390000">
        <ele>49</ele>
        <time>2021-04-28T09:13:54Z</time>
      </trkpt>
      <trkpt lat="51.550940000" lon="7.183470000">
        <ele>49</ele>
        <time>2021-04-28T09:13:55Z</time>
      </trkpt>
      <trkpt lat="51.551000000" lon="7.183630000">
        <ele>49</ele>
        <time>2021-04-28T09:13:56Z</time>
      </trkpt>
      <trkpt lat="51.551030000" lon="7.183700000">
        <ele>49</ele>
        <time>2021-04-28T09:13:57Z</time>
      </trkpt>
      <trkpt lat="51.551060000" lon="7.183790000">
        <ele>49</ele>
        <time>2021-04-28T09:13:59Z</time>
      </trkpt>
      <trkpt lat="51.551090000" lon="7.183870000">
        <ele>52</ele>
        <time>2021-04-28T09:14:00Z</time>
      </trkpt>
      <trkpt lat="51.551160000" lon="7.184010000">
        <ele>52</ele>
        <time>2021-04-28T09:14:02Z</time>
      </trkpt>
      <trkpt lat="51.551220000" lon="7.184140000">
        <ele>52</ele>
        <time>2021-04-28T09:14:03Z</time>
      </trkpt>
      <trkpt lat="51.551260000" lon="7.184240000">
        <ele>52</ele>
        <time>2021-04-28T09:14:05Z</time>
      </trkpt>
      <trkpt lat="51.551330000" lon="7.184390000">
        <ele>52</ele>
        <time>2021-04-28T09:14:07Z</time>
      </trkpt>
      <trkpt lat="51.551360000" lon="7.184460000">
        <ele>52</ele>
        <time>2021-04-28T09:14:08Z</time>
      </trkpt>
      <trkpt lat="51.551420000" lon="7.184590000">
        <ele>52</ele>
        <time>2021-04-28T09:14:09Z</time>
      </trkpt>
      <trkpt lat="51.551450000" lon="7.184680000">
        <ele>52</ele>
        <time>2021-04-28T09:14:10Z</time>
      </trkpt>
      <trkpt lat="51.551490000" lon="7.184770000">
        <ele>52</ele>
        <time>2021-04-28T09:14:12Z</time>
      </trkpt>
      <trkpt lat="51.551550000" lon="7.184890000">
        <ele>52</ele>
        <time>2021-04-28T09:14:14Z</time>
      </trkpt>
      <trkpt lat="51.551600000" lon="7.185040000">
        <ele>52</ele>
        <time>2021-04-28T09:14:16Z</time>
      </trkpt>
      <trkpt lat="51.551630000" lon="7.185120000">
        <ele>52</ele>
        <time>2021-04-28T09:14:17Z</time>
      </trkpt>
      <trkpt lat="51.551680000" lon="7.185270000">
        <ele>52</ele>
        <time>2021-04-28T09:14:19Z</time>
      </trkpt>
      <trkpt lat="51.551740000" lon="7.185420000">
        <ele>55</ele>
        <time>2021-04-28T09:14:21Z</time>
      </trkpt>
      <trkpt lat="51.551810000" lon="7.185570000">
        <ele>55</ele>
        <time>2021-04-28T09:14:22Z</time>
      </trkpt>
      <trkpt lat="51.551840000" lon="7.185640000">
        <ele>55</ele>
        <time>2021-04-28T09:14:23Z</time>
      </trkpt>
      <trkpt lat="51.551860000" lon="7.185720000">
        <ele>55</ele>
        <time>2021-04-28T09:14:25Z</time>
      </trkpt>
      <trkpt lat="51.551910000" lon="7.185880000">
        <ele>55</ele>
        <time>2021-04-28T09:14:27Z</time>
      </trkpt>
      <trkpt lat="51.551940000" lon="7.185960000">
        <ele>55</ele>
        <time>2021-04-28T09:14:27Z</time>
      </trkpt>
      <trkpt lat="51.551970000" lon="7.186040000">
        <ele>55</ele>
        <time>2021-04-28T09:14:29Z</time>
      </trkpt>
      <trkpt lat="51.552020000" lon="7.186210000">
        <ele>55</ele>
        <time>2021-04-28T09:14:30Z</time>
      </trkpt>
      <trkpt lat="51.552100000" lon="7.186380000">
        <ele>55</ele>
        <time>2021-04-28T09:14:33Z</time>
      </trkpt>
      <trkpt lat="51.552150000" lon="7.186510000">
        <ele>55</ele>
        <time>2021-04-28T09:14:35Z</time>
      </trkpt>
      <trkpt lat="51.552210000" lon="7.186660000">
        <ele>55</ele>
        <time>2021-04-28T09:14:37Z</time>
      </trkpt>
      <trkpt lat="51.552280000" lon="7.186820000">
        <ele>55</ele>
        <time>2021-04-28T09:14:39Z</time>
      </trkpt>
      <trkpt lat="51.552300000" lon="7.186900000">
        <ele>55</ele>
        <time>2021-04-28T09:14:40Z</time>
      </trkpt>
      <trkpt lat="51.552350000" lon="7.187070000">
        <ele>54</ele>
        <time>2021-04-28T09:14:42Z</time>
      </trkpt>
      <trkpt lat="51.552410000" lon="7.187240000">
        <ele>54</ele>
        <time>2021-04-28T09:14:44Z</time>
      </trkpt>
      <trkpt lat="51.552460000" lon="7.187370000">
        <ele>54</ele>
        <time>2021-04-28T09:14:46Z</time>
      </trkpt>
      <trkpt lat="51.552520000" lon="7.187510000">
        <ele>54</ele>
        <time>2021-04-28T09:14:47Z</time>
      </trkpt>
      <trkpt lat="51.552570000" lon="7.187650000">
        <ele>54</ele>
        <time>2021-04-28T09:14:49Z</time>
      </trkpt>
      <trkpt lat="51.552630000" lon="7.187810000">
        <ele>54</ele>
        <time>2021-04-28T09:14:51Z</time>
      </trkpt>
      <trkpt lat="51.552670000" lon="7.187900000">
        <ele>54</ele>
        <time>2021-04-28T09:14:53Z</time>
      </trkpt>
      <trkpt lat="51.552720000" lon="7.188040000">
        <ele>54</ele>
        <time>2021-04-28T09:14:55Z</time>
      </trkpt>
      <trkpt lat="51.552790000" lon="7.188200000">
        <ele>54</ele>
        <time>2021-04-28T09:14:57Z</time>
      </trkpt>
      <trkpt lat="51.552870000" lon="7.188330000">
        <ele>54</ele>
        <time>2021-04-28T09:14:59Z</time>
      </trkpt>
      <trkpt lat="51.552890000" lon="7.188410000">
        <ele>54</ele>
        <time>2021-04-28T09:15:00Z</time>
      </trkpt>
      <trkpt lat="51.552950000" lon="7.188560000">
        <ele>54</ele>
        <time>2021-04-28T09:15:01Z</time>
      </trkpt>
      <trkpt lat="51.552980000" lon="7.188640000">
        <ele>54</ele>
        <time>2021-04-28T09:15:03Z</time>
      </trkpt>
      <trkpt lat="51.552980000" lon="7.188720000">
        <ele>53</ele>
        <time>2021-04-28T09:15:04Z</time>
      </trkpt>
      <trkpt lat="51.553010000" lon="7.188880000">
        <ele>53</ele>
        <time>2021-04-28T09:15:06Z</time>
      </trkpt>
      <trkpt lat="51.553060000" lon="7.189010000">
        <ele>53</ele>
        <time>2021-04-28T09:15:07Z</time>
      </trkpt>
      <trkpt lat="51.553100000" lon="7.189070000">
        <ele>53</ele>
        <time>2021-04-28T09:15:09Z</time>
      </trkpt>
      <trkpt lat="51.553140000" lon="7.189150000">
        <ele>53</ele>
        <time>2021-04-28T09:15:10Z</time>
      </trkpt>
      <trkpt lat="51.553220000" lon="7.189270000">
        <ele>53</ele>
        <time>2021-04-28T09:15:11Z</time>
      </trkpt>
      <trkpt lat="51.553250000" lon="7.189360000">
        <ele>53</ele>
        <time>2021-04-28T09:15:12Z</time>
      </trkpt>
      <trkpt lat="51.553280000" lon="7.189450000">
        <ele>53</ele>
        <time>2021-04-28T09:15:14Z</time>
      </trkpt>
      <trkpt lat="51.553300000" lon="7.189520000">
        <ele>53</ele>
        <time>2021-04-28T09:15:15Z</time>
      </trkpt>
      <trkpt lat="51.553340000" lon="7.189650000">
        <ele>53</ele>
        <time>2021-04-28T09:15:17Z</time>
      </trkpt>
      <trkpt lat="51.553410000" lon="7.189760000">
        <ele>53</ele>
        <time>2021-04-28T09:15:19Z</time>
      </trkpt>
      <trkpt lat="51.553510000" lon="7.189880000">
        <ele>53</ele>
        <time>2021-04-28T09:15:21Z</time>
      </trkpt>
      <trkpt lat="51.553570000" lon="7.190000000">
        <ele>53</ele>
        <time>2021-04-28T09:15:22Z</time>
      </trkpt>
      <trkpt lat="51.553610000" lon="7.190060000">
        <ele>53</ele>
        <time>2021-04-28T09:15:24Z</time>
      </trkpt>
      <trkpt lat="51.553690000" lon="7.190190000">
        <ele>49</ele>
        <time>2021-04-28T09:15:26Z</time>
      </trkpt>
      <trkpt lat="51.553760000" lon="7.190340000">
        <ele>49</ele>
        <time>2021-04-28T09:15:27Z</time>
      </trkpt>
      <trkpt lat="51.553820000" lon="7.190480000">
        <ele>49</ele>
        <time>2021-04-28T09:15:29Z</time>
      </trkpt>
      <trkpt lat="51.553860000" lon="7.190600000">
        <ele>49</ele>
        <time>2021-04-28T09:15:31Z</time>
      </trkpt>
      <trkpt lat="51.553920000" lon="7.190740000">
        <ele>49</ele>
        <time>2021-04-28T09:15:32Z</time>
      </trkpt>
      <trkpt lat="51.553990000" lon="7.190910000">
        <ele>49</ele>
        <time>2021-04-28T09:15:35Z</time>
      </trkpt>
      <trkpt lat="51.554000000" lon="7.190980000">
        <ele>49</ele>
        <time>2021-04-28T09:15:36Z</time>
      </trkpt>
      <trkpt lat="51.554040000" lon="7.191150000">
        <ele>49</ele>
        <time>2021-04-28T09:15:38Z</time>
      </trkpt>
      <trkpt lat="51.554060000" lon="7.191240000">
        <ele>49</ele>
        <time>2021-04-28T09:15:39Z</time>
      </trkpt>
      <trkpt lat="51.554090000" lon="7.191410000">
        <ele>49</ele>
        <time>2021-04-28T09:15:41Z</time>
      </trkpt>
      <trkpt lat="51.554120000" lon="7.191490000">
        <ele>49</ele>
        <time>2021-04-28T09:15:42Z</time>
      </trkpt>
      <trkpt lat="51.554170000" lon="7.191640000">
        <ele>49</ele>
        <time>2021-04-28T09:15:43Z</time>
      </trkpt>
      <trkpt lat="51.554180000" lon="7.191730000">
        <ele>49</ele>
        <time>2021-04-28T09:15:45Z</time>
      </trkpt>
      <trkpt lat="51.554220000" lon="7.191940000">
        <ele>49</ele>
        <time>2021-04-28T09:15:47Z</time>
      </trkpt>
      <trkpt lat="51.554240000" lon="7.192100000">
        <ele>49</ele>
        <time>2021-04-28T09:15:48Z</time>
      </trkpt>
      <trkpt lat="51.554290000" lon="7.192230000">
        <ele>49</ele>
        <time>2021-04-28T09:15:50Z</time>
      </trkpt>
      <trkpt lat="51.554330000" lon="7.192330000">
        <ele>49</ele>
        <time>2021-04-28T09:15:51Z</time>
      </trkpt>
      <trkpt lat="51.554380000" lon="7.192440000">
        <ele>49</ele>
        <time>2021-04-28T09:15:53Z</time>
      </trkpt>
      <trkpt lat="51.554410000" lon="7.192530000">
        <ele>49</ele>
        <time>2021-04-28T09:15:54Z</time>
      </trkpt>
      <trkpt lat="51.554430000" lon="7.192610000">
        <ele>49</ele>
        <time>2021-04-28T09:15:56Z</time>
      </trkpt>
      <trkpt lat="51.554450000" lon="7.192700000">
        <ele>49</ele>
        <time>2021-04-28T09:15:57Z</time>
      </trkpt>
      <trkpt lat="51.554500000" lon="7.192870000">
        <ele>49</ele>
        <time>2021-04-28T09:15:59Z</time>
      </trkpt>
      <trkpt lat="51.554550000" lon="7.193020000">
        <ele>49</ele>
        <time>2021-04-28T09:16:00Z</time>
      </trkpt>
      <trkpt lat="51.554580000" lon="7.193100000">
        <ele>49</ele>
        <time>2021-04-28T09:16:02Z</time>
      </trkpt>
      <trkpt lat="51.554650000" lon="7.193260000">
        <ele>54</ele>
        <time>2021-04-28T09:16:04Z</time>
      </trkpt>
      <trkpt lat="51.554710000" lon="7.193440000">
        <ele>54</ele>
        <time>2021-04-28T09:16:05Z</time>
      </trkpt>
      <trkpt lat="51.554740000" lon="7.193530000">
        <ele>54</ele>
        <time>2021-04-28T09:16:07Z</time>
      </trkpt>
      <trkpt lat="51.554780000" lon="7.193690000">
        <ele>54</ele>
        <time>2021-04-28T09:16:08Z</time>
      </trkpt>
      <trkpt lat="51.554810000" lon="7.193810000">
        <ele>46</ele>
        <time>2021-04-28T09:16:10Z</time>
      </trkpt>
      <trkpt lat="51.554830000" lon="7.193890000">
        <ele>46</ele>
        <time>2021-04-28T09:16:11Z</time>
      </trkpt>
      <trkpt lat="51.554870000" lon="7.194020000">
        <ele>46</ele>
        <time>2021-04-28T09:16:12Z</time>
      </trkpt>
      <trkpt lat="51.554910000" lon="7.194160000">
        <ele>46</ele>
        <time>2021-04-28T09:16:14Z</time>
      </trkpt>
      <trkpt lat="51.554970000" lon="7.194310000">
        <ele>46</ele>
        <time>2021-04-28T09:16:17Z</time>
      </trkpt>
      <trkpt lat="51.555030000" lon="7.194500000">
        <ele>46</ele>
        <time>2021-04-28T09:16:21Z</time>
      </trkpt>
      <trkpt lat="51.555040000" lon="7.194660000">
        <ele>46</ele>
        <time>2021-04-28T09:16:22Z</time>
      </trkpt>
      <trkpt lat="51.555100000" lon="7.194890000">
        <ele>46</ele>
        <time>2021-04-28T09:16:26Z</time>
      </trkpt>
      <trkpt lat="51.555130000" lon="7.195040000">
        <ele>46</ele>
        <time>2021-04-28T09:16:27Z</time>
      </trkpt>
      <trkpt lat="51.555150000" lon="7.195150000">
        <ele>46</ele>
        <time>2021-04-28T09:16:29Z</time>
      </trkpt>
      <trkpt lat="51.555170000" lon="7.195230000">
        <ele>46</ele>
        <time>2021-04-28T09:16:30Z</time>
      </trkpt>
      <trkpt lat="51.555200000" lon="7.195370000">
        <ele>46</ele>
        <time>2021-04-28T09:16:31Z</time>
      </trkpt>
      <trkpt lat="51.555230000" lon="7.195480000">
        <ele>48</ele>
        <time>2021-04-28T09:16:33Z</time>
      </trkpt>
      <trkpt lat="51.555270000" lon="7.195630000">
        <ele>48</ele>
        <time>2021-04-28T09:16:34Z</time>
      </trkpt>
      <trkpt lat="51.555290000" lon="7.195710000">
        <ele>48</ele>
        <time>2021-04-28T09:16:35Z</time>
      </trkpt>
      <trkpt lat="51.555310000" lon="7.195810000">
        <ele>48</ele>
        <time>2021-04-28T09:16:37Z</time>
      </trkpt>
      <trkpt lat="51.555330000" lon="7.195960000">
        <ele>48</ele>
        <time>2021-04-28T09:16:38Z</time>
      </trkpt>
      <trkpt lat="51.555340000" lon="7.196030000">
        <ele>48</ele>
        <time>2021-04-28T09:16:39Z</time>
      </trkpt>
      <trkpt lat="51.555370000" lon="7.196140000">
        <ele>48</ele>
        <time>2021-04-28T09:16:42Z</time>
      </trkpt>
      <trkpt lat="51.555370000" lon="7.196250000">
        <ele>48</ele>
        <time>2021-04-28T09:16:44Z</time>
      </trkpt>
      <trkpt lat="51.555390000" lon="7.196330000">
        <ele>48</ele>
        <time>2021-04-28T09:16:45Z</time>
      </trkpt>
      <trkpt lat="51.555430000" lon="7.196380000">
        <ele>48</ele>
        <time>2021-04-28T09:16:47Z</time>
      </trkpt>
      <trkpt lat="51.555470000" lon="7.196440000">
        <ele>48</ele>
        <time>2021-04-28T09:16:48Z</time>
      </trkpt>
      <trkpt lat="51.555500000" lon="7.196580000">
        <ele>48</ele>
        <time>2021-04-28T09:16:50Z</time>
      </trkpt>
      <trkpt lat="51.555530000" lon="7.196730000">
        <ele>51</ele>
        <time>2021-04-28T09:16:51Z</time>
      </trkpt>
      <trkpt lat="51.555560000" lon="7.196820000">
        <ele>51</ele>
        <time>2021-04-28T09:16:53Z</time>
      </trkpt>
      <trkpt lat="51.555560000" lon="7.196910000">
        <ele>51</ele>
        <time>2021-04-28T09:16:56Z</time>
      </trkpt>
      <trkpt lat="51.555540000" lon="7.196970000">
        <ele>51</ele>
        <time>2021-04-28T09:17:34Z</time>
      </trkpt>
      <trkpt lat="51.555510000" lon="7.197040000">
        <ele>51</ele>
        <time>2021-04-28T09:17:47Z</time>
      </trkpt>
      <trkpt lat="51.555470000" lon="7.197070000">
        <ele>51</ele>
        <time>2021-04-28T09:17:52Z</time>
      </trkpt>
      <trkpt lat="51.555430000" lon="7.197100000">
        <ele>51</ele>
        <time>2021-04-28T09:17:59Z</time>
      </trkpt>
      <trkpt lat="51.555460000" lon="7.197040000">
        <ele>51</ele>
        <time>2021-04-28T09:18:32Z</time>
      </trkpt>
      <trkpt lat="51.555520000" lon="7.197050000">
        <ele>51</ele>
        <time>2021-04-28T09:20:01Z</time>
      </trkpt>
      <trkpt lat="51.555480000" lon="7.197090000">
        <ele>51</ele>
        <time>2021-04-28T09:20:41Z</time>
      </trkpt>
      <trkpt lat="51.555500000" lon="7.197010000">
        <ele>51</ele>
        <time>2021-04-28T09:22:33Z</time>
      </trkpt>
      <trkpt lat="51.555550000" lon="7.197060000">
        <ele>51</ele>
        <time>2021-04-28T09:22:43Z</time>
      </trkpt>
      <trkpt lat="51.555570000" lon="7.197160000">
        <ele>51</ele>
        <time>2021-04-28T09:22:45Z</time>
      </trkpt>
      <trkpt lat="51.555590000" lon="7.197250000">
        <ele>51</ele>
        <time>2021-04-28T09:22:46Z</time>
      </trkpt>
      <trkpt lat="51.555620000" lon="7.197390000">
        <ele>48</ele>
        <time>2021-04-28T09:22:49Z</time>
      </trkpt>
      <trkpt lat="51.555640000" lon="7.197500000">
        <ele>48</ele>
        <time>2021-04-28T09:22:51Z</time>
      </trkpt>
      <trkpt lat="51.555660000" lon="7.197620000">
        <ele>48</ele>
        <time>2021-04-28T09:22:53Z</time>
      </trkpt>
      <trkpt lat="51.555650000" lon="7.197750000">
        <ele>48</ele>
        <time>2021-04-28T09:22:55Z</time>
      </trkpt>
      <trkpt lat="51.555630000" lon="7.197870000">
        <ele>48</ele>
        <time>2021-04-28T09:22:57Z</time>
      </trkpt>
      <trkpt lat="51.555600000" lon="7.198000000">
        <ele>48</ele>
        <time>2021-04-28T09:22:58Z</time>
      </trkpt>
      <trkpt lat="51.555580000" lon="7.198090000">
        <ele>48</ele>
        <time>2021-04-28T09:23:00Z</time>
      </trkpt>
      <trkpt lat="51.555550000" lon="7.198260000">
        <ele>48</ele>
        <time>2021-04-28T09:23:03Z</time>
      </trkpt>
      <trkpt lat="51.555520000" lon="7.198400000">
        <ele>48</ele>
        <time>2021-04-28T09:23:04Z</time>
      </trkpt>
      <trkpt lat="51.555490000" lon="7.198550000">
        <ele>48</ele>
        <time>2021-04-28T09:23:06Z</time>
      </trkpt>
      <trkpt lat="51.555470000" lon="7.198720000">
        <ele>48</ele>
        <time>2021-04-28T09:23:08Z</time>
      </trkpt>
      <trkpt lat="51.555450000" lon="7.198860000">
        <ele>47</ele>
        <time>2021-04-28T09:23:10Z</time>
      </trkpt>
      <trkpt lat="51.555440000" lon="7.198930000">
        <ele>47</ele>
        <time>2021-04-28T09:23:11Z</time>
      </trkpt>
      <trkpt lat="51.555430000" lon="7.199090000">
        <ele>47</ele>
        <time>2021-04-28T09:23:13Z</time>
      </trkpt>
      <trkpt lat="51.555410000" lon="7.199240000">
        <ele>47</ele>
        <time>2021-04-28T09:23:15Z</time>
      </trkpt>
      <trkpt lat="51.555410000" lon="7.199320000">
        <ele>47</ele>
        <time>2021-04-28T09:23:16Z</time>
      </trkpt>
      <trkpt lat="51.555410000" lon="7.199390000">
        <ele>47</ele>
        <time>2021-04-28T09:23:17Z</time>
      </trkpt>
      <trkpt lat="51.555420000" lon="7.199470000">
        <ele>47</ele>
        <time>2021-04-28T09:23:18Z</time>
      </trkpt>
      <trkpt lat="51.555420000" lon="7.199550000">
        <ele>47</ele>
        <time>2021-04-28T09:23:19Z</time>
      </trkpt>
      <trkpt lat="51.555420000" lon="7.199630000">
        <ele>47</ele>
        <time>2021-04-28T09:23:20Z</time>
      </trkpt>
      <trkpt lat="51.555430000" lon="7.199780000">
        <ele>47</ele>
        <time>2021-04-28T09:23:22Z</time>
      </trkpt>
      <trkpt lat="51.555460000" lon="7.199930000">
        <ele>47</ele>
        <time>2021-04-28T09:23:24Z</time>
      </trkpt>
      <trkpt lat="51.555480000" lon="7.200020000">
        <ele>47</ele>
        <time>2021-04-28T09:23:25Z</time>
      </trkpt>
      <trkpt lat="51.555490000" lon="7.200100000">
        <ele>47</ele>
        <time>2021-04-28T09:23:26Z</time>
      </trkpt>
      <trkpt lat="51.555490000" lon="7.200280000">
        <ele>47</ele>
        <time>2021-04-28T09:23:28Z</time>
      </trkpt>
      <trkpt lat="51.555500000" lon="7.200430000">
        <ele>47</ele>
        <time>2021-04-28T09:23:30Z</time>
      </trkpt>
      <trkpt lat="51.555580000" lon="7.200540000">
        <ele>47</ele>
        <time>2021-04-28T09:23:33Z</time>
      </trkpt>
      <trkpt lat="51.555630000" lon="7.200520000">
        <ele>47</ele>
        <time>2021-04-28T09:23:34Z</time>
      </trkpt>
      <trkpt lat="51.555690000" lon="7.200490000">
        <ele>47</ele>
        <time>2021-04-28T09:23:35Z</time>
      </trkpt>
      <trkpt lat="51.555740000" lon="7.200460000">
        <ele>47</ele>
        <time>2021-04-28T09:23:36Z</time>
      </trkpt>
      <trkpt lat="51.555830000" lon="7.200410000">
        <ele>50</ele>
        <time>2021-04-28T09:23:38Z</time>
      </trkpt>
      <trkpt lat="51.555890000" lon="7.200400000">
        <ele>50</ele>
        <time>2021-04-28T09:23:39Z</time>
      </trkpt>
      <trkpt lat="51.555950000" lon="7.200390000">
        <ele>50</ele>
        <time>2021-04-28T09:23:40Z</time>
      </trkpt>
      <trkpt lat="51.556000000" lon="7.200390000">
        <ele>50</ele>
        <time>2021-04-28T09:23:41Z</time>
      </trkpt>
      <trkpt lat="51.556110000" lon="7.200360000">
        <ele>50</ele>
        <time>2021-04-28T09:23:43Z</time>
      </trkpt>
      <trkpt lat="51.556170000" lon="7.200370000">
        <ele>50</ele>
        <time>2021-04-28T09:23:44Z</time>
      </trkpt>
      <trkpt lat="51.556230000" lon="7.200370000">
        <ele>50</ele>
        <time>2021-04-28T09:23:45Z</time>
      </trkpt>
      <trkpt lat="51.556280000" lon="7.200360000">
        <ele>50</ele>
        <time>2021-04-28T09:23:46Z</time>
      </trkpt>
      <trkpt lat="51.556340000" lon="7.200370000">
        <ele>50</ele>
        <time>2021-04-28T09:23:47Z</time>
      </trkpt>
      <trkpt lat="51.556430000" lon="7.200440000">
        <ele>50</ele>
        <time>2021-04-28T09:23:49Z</time>
      </trkpt>
      <trkpt lat="51.556500000" lon="7.200640000">
        <ele>50</ele>
        <time>2021-04-28T09:23:52Z</time>
      </trkpt>
      <trkpt lat="51.556510000" lon="7.200710000">
        <ele>50</ele>
        <time>2021-04-28T09:23:53Z</time>
      </trkpt>
      <trkpt lat="51.556520000" lon="7.200780000">
        <ele>50</ele>
        <time>2021-04-28T09:23:54Z</time>
      </trkpt>
      <trkpt lat="51.556550000" lon="7.200940000">
        <ele>50</ele>
        <time>2021-04-28T09:23:56Z</time>
      </trkpt>
      <trkpt lat="51.556570000" lon="7.201010000">
        <ele>50</ele>
        <time>2021-04-28T09:23:57Z</time>
      </trkpt>
      <trkpt lat="51.556580000" lon="7.201080000">
        <ele>50</ele>
        <time>2021-04-28T09:23:58Z</time>
      </trkpt>
      <trkpt lat="51.556610000" lon="7.201230000">
        <ele>50</ele>
        <time>2021-04-28T09:24:00Z</time>
      </trkpt>
      <trkpt lat="51.556640000" lon="7.201370000">
        <ele>50</ele>
        <time>2021-04-28T09:24:02Z</time>
      </trkpt>
      <trkpt lat="51.556660000" lon="7.201450000">
        <ele>50</ele>
        <time>2021-04-28T09:24:03Z</time>
      </trkpt>
      <trkpt lat="51.556670000" lon="7.201530000">
        <ele>50</ele>
        <time>2021-04-28T09:24:04Z</time>
      </trkpt>
      <trkpt lat="51.556680000" lon="7.201610000">
        <ele>51</ele>
        <time>2021-04-28T09:24:05Z</time>
      </trkpt>
      <trkpt lat="51.556710000" lon="7.201770000">
        <ele>51</ele>
        <time>2021-04-28T09:24:07Z</time>
      </trkpt>
      <trkpt lat="51.556730000" lon="7.201850000">
        <ele>51</ele>
        <time>2021-04-28T09:24:08Z</time>
      </trkpt>
      <trkpt lat="51.556760000" lon="7.201980000">
        <ele>51</ele>
        <time>2021-04-28T09:24:10Z</time>
      </trkpt>
      <trkpt lat="51.556780000" lon="7.202070000">
        <ele>51</ele>
        <time>2021-04-28T09:24:11Z</time>
      </trkpt>
      <trkpt lat="51.556820000" lon="7.202270000">
        <ele>51</ele>
        <time>2021-04-28T09:24:14Z</time>
      </trkpt>
      <trkpt lat="51.556860000" lon="7.202440000">
        <ele>51</ele>
        <time>2021-04-28T09:24:17Z</time>
      </trkpt>
      <trkpt lat="51.556920000" lon="7.202620000">
        <ele>51</ele>
        <time>2021-04-28T09:24:20Z</time>
      </trkpt>
      <trkpt lat="51.556960000" lon="7.202750000">
        <ele>51</ele>
        <time>2021-04-28T09:24:22Z</time>
      </trkpt>
      <trkpt lat="51.557020000" lon="7.202950000">
        <ele>51</ele>
        <time>2021-04-28T09:24:24Z</time>
      </trkpt>
      <trkpt lat="51.557020000" lon="7.203030000">
        <ele>51</ele>
        <time>2021-04-28T09:24:26Z</time>
      </trkpt>
      <trkpt lat="51.557060000" lon="7.203180000">
        <ele>51</ele>
        <time>2021-04-28T09:24:28Z</time>
      </trkpt>
      <trkpt lat="51.557110000" lon="7.203350000">
        <ele>49</ele>
        <time>2021-04-28T09:24:29Z</time>
      </trkpt>
      <trkpt lat="51.557130000" lon="7.203440000">
        <ele>49</ele>
        <time>2021-04-28T09:24:30Z</time>
      </trkpt>
      <trkpt lat="51.557190000" lon="7.203630000">
        <ele>49</ele>
        <time>2021-04-28T09:24:33Z</time>
      </trkpt>
      <trkpt lat="51.557210000" lon="7.203780000">
        <ele>49</ele>
        <time>2021-04-28T09:24:35Z</time>
      </trkpt>
      <trkpt lat="51.557230000" lon="7.203860000">
        <ele>49</ele>
        <time>2021-04-28T09:24:36Z</time>
      </trkpt>
      <trkpt lat="51.557270000" lon="7.204020000">
        <ele>49</ele>
        <time>2021-04-28T09:24:38Z</time>
      </trkpt>
      <trkpt lat="51.557310000" lon="7.204160000">
        <ele>49</ele>
        <time>2021-04-28T09:24:39Z</time>
      </trkpt>
      <trkpt lat="51.557330000" lon="7.204260000">
        <ele>49</ele>
        <time>2021-04-28T09:24:41Z</time>
      </trkpt>
      <trkpt lat="51.557380000" lon="7.204410000">
        <ele>49</ele>
        <time>2021-04-28T09:24:43Z</time>
      </trkpt>
      <trkpt lat="51.557420000" lon="7.204550000">
        <ele>49</ele>
        <time>2021-04-28T09:24:44Z</time>
      </trkpt>
      <trkpt lat="51.557450000" lon="7.204670000">
        <ele>49</ele>
        <time>2021-04-28T09:24:46Z</time>
      </trkpt>
      <trkpt lat="51.557490000" lon="7.204840000">
        <ele>49</ele>
        <time>2021-04-28T09:24:48Z</time>
      </trkpt>
      <trkpt lat="51.557530000" lon="7.205000000">
        <ele>48</ele>
        <time>2021-04-28T09:24:49Z</time>
      </trkpt>
      <trkpt lat="51.557570000" lon="7.205160000">
        <ele>48</ele>
        <time>2021-04-28T09:24:51Z</time>
      </trkpt>
      <trkpt lat="51.557600000" lon="7.205260000">
        <ele>48</ele>
        <time>2021-04-28T09:24:53Z</time>
      </trkpt>
      <trkpt lat="51.557640000" lon="7.205460000">
        <ele>48</ele>
        <time>2021-04-28T09:24:56Z</time>
      </trkpt>
      <trkpt lat="51.557690000" lon="7.205640000">
        <ele>48</ele>
        <time>2021-04-28T09:24:58Z</time>
      </trkpt>
      <trkpt lat="51.557730000" lon="7.205800000">
        <ele>48</ele>
        <time>2021-04-28T09:25:00Z</time>
      </trkpt>
      <trkpt lat="51.557770000" lon="7.205960000">
        <ele>48</ele>
        <time>2021-04-28T09:25:01Z</time>
      </trkpt>
      <trkpt lat="51.557810000" lon="7.206140000">
        <ele>48</ele>
        <time>2021-04-28T09:25:04Z</time>
      </trkpt>
      <trkpt lat="51.557830000" lon="7.206290000">
        <ele>48</ele>
        <time>2021-04-28T09:25:05Z</time>
      </trkpt>
      <trkpt lat="51.557840000" lon="7.206360000">
        <ele>48</ele>
        <time>2021-04-28T09:25:07Z</time>
      </trkpt>
      <trkpt lat="51.557880000" lon="7.206530000">
        <ele>48</ele>
        <time>2021-04-28T09:25:08Z</time>
      </trkpt>
      <trkpt lat="51.557930000" lon="7.206690000">
        <ele>44</ele>
        <time>2021-04-28T09:25:10Z</time>
      </trkpt>
      <trkpt lat="51.557950000" lon="7.206780000">
        <ele>44</ele>
        <time>2021-04-28T09:25:11Z</time>
      </trkpt>
      <trkpt lat="51.557970000" lon="7.206880000">
        <ele>44</ele>
        <time>2021-04-28T09:25:12Z</time>
      </trkpt>
      <trkpt lat="51.558020000" lon="7.207040000">
        <ele>44</ele>
        <time>2021-04-28T09:25:15Z</time>
      </trkpt>
      <trkpt lat="51.558060000" lon="7.207190000">
        <ele>44</ele>
        <time>2021-04-28T09:25:17Z</time>
      </trkpt>
      <trkpt lat="51.558090000" lon="7.207350000">
        <ele>44</ele>
        <time>2021-04-28T09:25:18Z</time>
      </trkpt>
      <trkpt lat="51.558110000" lon="7.207440000">
        <ele>44</ele>
        <time>2021-04-28T09:25:20Z</time>
      </trkpt>
      <trkpt lat="51.558130000" lon="7.207520000">
        <ele>44</ele>
        <time>2021-04-28T09:25:21Z</time>
      </trkpt>
      <trkpt lat="51.558150000" lon="7.207590000">
        <ele>44</ele>
        <time>2021-04-28T09:25:22Z</time>
      </trkpt>
      <trkpt lat="51.558190000" lon="7.207770000">
        <ele>44</ele>
        <time>2021-04-28T09:25:23Z</time>
      </trkpt>
      <trkpt lat="51.558220000" lon="7.207860000">
        <ele>44</ele>
        <time>2021-04-28T09:25:25Z</time>
      </trkpt>
      <trkpt lat="51.558250000" lon="7.207950000">
        <ele>44</ele>
        <time>2021-04-28T09:25:26Z</time>
      </trkpt>
      <trkpt lat="51.558300000" lon="7.208100000">
        <ele>44</ele>
        <time>2021-04-28T09:25:27Z</time>
      </trkpt>
      <trkpt lat="51.558350000" lon="7.208290000">
        <ele>44</ele>
        <time>2021-04-28T09:25:29Z</time>
      </trkpt>
      <trkpt lat="51.558360000" lon="7.208430000">
        <ele>47</ele>
        <time>2021-04-28T09:25:31Z</time>
      </trkpt>
      <trkpt lat="51.558390000" lon="7.208620000">
        <ele>47</ele>
        <time>2021-04-28T09:25:33Z</time>
      </trkpt>
      <trkpt lat="51.558410000" lon="7.208700000">
        <ele>47</ele>
        <time>2021-04-28T09:25:35Z</time>
      </trkpt>
      <trkpt lat="51.558480000" lon="7.208880000">
        <ele>47</ele>
        <time>2021-04-28T09:25:37Z</time>
      </trkpt>
      <trkpt lat="51.558540000" lon="7.209000000">
        <ele>47</ele>
        <time>2021-04-28T09:25:38Z</time>
      </trkpt>
      <trkpt lat="51.558580000" lon="7.209070000">
        <ele>47</ele>
        <time>2021-04-28T09:25:40Z</time>
      </trkpt>
      <trkpt lat="51.558600000" lon="7.209150000">
        <ele>47</ele>
        <time>2021-04-28T09:25:42Z</time>
      </trkpt>
      <trkpt lat="51.558590000" lon="7.209270000">
        <ele>47</ele>
        <time>2021-04-28T09:25:44Z</time>
      </trkpt>
      <trkpt lat="51.558570000" lon="7.209410000">
        <ele>47</ele>
        <time>2021-04-28T09:25:45Z</time>
      </trkpt>
      <trkpt lat="51.558570000" lon="7.209490000">
        <ele>47</ele>
        <time>2021-04-28T09:25:47Z</time>
      </trkpt>
      <trkpt lat="51.558560000" lon="7.209570000">
        <ele>47</ele>
        <time>2021-04-28T09:25:48Z</time>
      </trkpt>
      <trkpt lat="51.558550000" lon="7.209650000">
        <ele>47</ele>
        <time>2021-04-28T09:25:49Z</time>
      </trkpt>
      <trkpt lat="51.558500000" lon="7.209750000">
        <ele>47</ele>
        <time>2021-04-28T09:25:51Z</time>
      </trkpt>
      <trkpt lat="51.558480000" lon="7.209860000">
        <ele>47</ele>
        <time>2021-04-28T09:25:52Z</time>
      </trkpt>
      <trkpt lat="51.558470000" lon="7.210060000">
        <ele>47</ele>
        <time>2021-04-28T09:25:55Z</time>
      </trkpt>
      <trkpt lat="51.558470000" lon="7.210220000">
        <ele>47</ele>
        <time>2021-04-28T09:25:56Z</time>
      </trkpt>
      <trkpt lat="51.558480000" lon="7.210310000">
        <ele>47</ele>
        <time>2021-04-28T09:25:58Z</time>
      </trkpt>
      <trkpt lat="51.558500000" lon="7.210500000">
        <ele>50</ele>
        <time>2021-04-28T09:26:00Z</time>
      </trkpt>
      <trkpt lat="51.558510000" lon="7.210690000">
        <ele>50</ele>
        <time>2021-04-28T09:26:02Z</time>
      </trkpt>
      <trkpt lat="51.558520000" lon="7.210860000">
        <ele>50</ele>
        <time>2021-04-28T09:26:03Z</time>
      </trkpt>
      <trkpt lat="51.558530000" lon="7.210990000">
        <ele>50</ele>
        <time>2021-04-28T09:26:05Z</time>
      </trkpt>
      <trkpt lat="51.558540000" lon="7.211140000">
        <ele>50</ele>
        <time>2021-04-28T09:26:07Z</time>
      </trkpt>
      <trkpt lat="51.558540000" lon="7.211310000">
        <ele>50</ele>
        <time>2021-04-28T09:26:08Z</time>
      </trkpt>
      <trkpt lat="51.558540000" lon="7.211390000">
        <ele>50</ele>
        <time>2021-04-28T09:26:09Z</time>
      </trkpt>
      <trkpt lat="51.558520000" lon="7.211540000">
        <ele>50</ele>
        <time>2021-04-28T09:26:11Z</time>
      </trkpt>
      <trkpt lat="51.558520000" lon="7.211670000">
        <ele>50</ele>
        <time>2021-04-28T09:26:13Z</time>
      </trkpt>
      <trkpt lat="51.558570000" lon="7.211850000">
        <ele>50</ele>
        <time>2021-04-28T09:26:16Z</time>
      </trkpt>
      <trkpt lat="51.558590000" lon="7.212000000">
        <ele>50</ele>
        <time>2021-04-28T09:26:17Z</time>
      </trkpt>
      <trkpt lat="51.558580000" lon="7.212080000">
        <ele>50</ele>
        <time>2021-04-28T09:26:19Z</time>
      </trkpt>
      <trkpt lat="51.558580000" lon="7.212250000">
        <ele>50</ele>
        <time>2021-04-28T09:26:21Z</time>
      </trkpt>
      <trkpt lat="51.558590000" lon="7.212400000">
        <ele>50</ele>
        <time>2021-04-28T09:26:22Z</time>
      </trkpt>
      <trkpt lat="51.558580000" lon="7.212480000">
        <ele>45</ele>
        <time>2021-04-28T09:26:23Z</time>
      </trkpt>
      <trkpt lat="51.558530000" lon="7.212640000">
        <ele>45</ele>
        <time>2021-04-28T09:26:25Z</time>
      </trkpt>
      <trkpt lat="51.558470000" lon="7.212800000">
        <ele>45</ele>
        <time>2021-04-28T09:26:28Z</time>
      </trkpt>
      <trkpt lat="51.558420000" lon="7.212960000">
        <ele>45</ele>
        <time>2021-04-28T09:26:30Z</time>
      </trkpt>
      <trkpt lat="51.558420000" lon="7.213130000">
        <ele>45</ele>
        <time>2021-04-28T09:26:31Z</time>
      </trkpt>
      <trkpt lat="51.558440000" lon="7.213300000">
        <ele>45</ele>
        <time>2021-04-28T09:26:33Z</time>
      </trkpt>
      <trkpt lat="51.558460000" lon="7.213510000">
        <ele>45</ele>
        <time>2021-04-28T09:26:35Z</time>
      </trkpt>
      <trkpt lat="51.558470000" lon="7.213690000">
        <ele>45</ele>
        <time>2021-04-28T09:26:38Z</time>
      </trkpt>
      <trkpt lat="51.558480000" lon="7.213770000">
        <ele>45</ele>
        <time>2021-04-28T09:26:39Z</time>
      </trkpt>
      <trkpt lat="51.558490000" lon="7.213930000">
        <ele>45</ele>
        <time>2021-04-28T09:26:41Z</time>
      </trkpt>
      <trkpt lat="51.558510000" lon="7.214020000">
        <ele>45</ele>
        <time>2021-04-28T09:26:42Z</time>
      </trkpt>
      <trkpt lat="51.558540000" lon="7.214180000">
        <ele>45</ele>
        <time>2021-04-28T09:26:43Z</time>
      </trkpt>
      <trkpt lat="51.558550000" lon="7.214310000">
        <ele>45</ele>
        <time>2021-04-28T09:26:45Z</time>
      </trkpt>
      <trkpt lat="51.558570000" lon="7.214490000">
        <ele>47</ele>
        <time>2021-04-28T09:26:47Z</time>
      </trkpt>
      <trkpt lat="51.558610000" lon="7.214640000">
        <ele>47</ele>
        <time>2021-04-28T09:26:48Z</time>
      </trkpt>
      <trkpt lat="51.558700000" lon="7.214770000">
        <ele>47</ele>
        <time>2021-04-28T09:26:51Z</time>
      </trkpt>
      <trkpt lat="51.558740000" lon="7.214850000">
        <ele>47</ele>
        <time>2021-04-28T09:26:52Z</time>
      </trkpt>
      <trkpt lat="51.558760000" lon="7.215040000">
        <ele>47</ele>
        <time>2021-04-28T09:26:53Z</time>
      </trkpt>
      <trkpt lat="51.558790000" lon="7.215230000">
        <ele>47</ele>
        <time>2021-04-28T09:26:55Z</time>
      </trkpt>
      <trkpt lat="51.558810000" lon="7.215340000">
        <ele>47</ele>
        <time>2021-04-28T09:26:57Z</time>
      </trkpt>
      <trkpt lat="51.558830000" lon="7.215420000">
        <ele>47</ele>
        <time>2021-04-28T09:26:58Z</time>
      </trkpt>
      <trkpt lat="51.558870000" lon="7.215590000">
        <ele>47</ele>
        <time>2021-04-28T09:27:00Z</time>
      </trkpt>
      <trkpt lat="51.558900000" lon="7.215780000">
        <ele>47</ele>
        <time>2021-04-28T09:27:02Z</time>
      </trkpt>
      <trkpt lat="51.558940000" lon="7.215960000">
        <ele>47</ele>
        <time>2021-04-28T09:27:03Z</time>
      </trkpt>
      <trkpt lat="51.558960000" lon="7.216050000">
        <ele>47</ele>
        <time>2021-04-28T09:27:05Z</time>
      </trkpt>
      <trkpt lat="51.558990000" lon="7.216210000">
        <ele>47</ele>
        <time>2021-04-28T09:27:06Z</time>
      </trkpt>
      <trkpt lat="51.559010000" lon="7.216330000">
        <ele>47</ele>
        <time>2021-04-28T09:27:08Z</time>
      </trkpt>
      <trkpt lat="51.559050000" lon="7.216500000">
        <ele>47</ele>
        <time>2021-04-28T09:27:10Z</time>
      </trkpt>
      <trkpt lat="51.559090000" lon="7.216680000">
        <ele>48</ele>
        <time>2021-04-28T09:27:13Z</time>
      </trkpt>
      <trkpt lat="51.559120000" lon="7.216810000">
        <ele>48</ele>
        <time>2021-04-28T09:27:14Z</time>
      </trkpt>
      <trkpt lat="51.559170000" lon="7.216950000">
        <ele>48</ele>
        <time>2021-04-28T09:27:16Z</time>
      </trkpt>
      <trkpt lat="51.559200000" lon="7.217030000">
        <ele>48</ele>
        <time>2021-04-28T09:27:18Z</time>
      </trkpt>
      <trkpt lat="51.559260000" lon="7.217160000">
        <ele>48</ele>
        <time>2021-04-28T09:27:19Z</time>
      </trkpt>
      <trkpt lat="51.559290000" lon="7.217230000">
        <ele>48</ele>
        <time>2021-04-28T09:27:21Z</time>
      </trkpt>
      <trkpt lat="51.559340000" lon="7.217390000">
        <ele>48</ele>
        <time>2021-04-28T09:27:22Z</time>
      </trkpt>
      <trkpt lat="51.559360000" lon="7.217570000">
        <ele>48</ele>
        <time>2021-04-28T09:27:25Z</time>
      </trkpt>
      <trkpt lat="51.559370000" lon="7.217760000">
        <ele>48</ele>
        <time>2021-04-28T09:27:26Z</time>
      </trkpt>
      <trkpt lat="51.559410000" lon="7.217950000">
        <ele>48</ele>
        <time>2021-04-28T09:27:29Z</time>
      </trkpt>
      <trkpt lat="51.559450000" lon="7.218130000">
        <ele>54</ele>
        <time>2021-04-28T09:27:30Z</time>
      </trkpt>
      <trkpt lat="51.559490000" lon="7.218320000">
        <ele>54</ele>
        <time>2021-04-28T09:27:33Z</time>
      </trkpt>
      <trkpt lat="51.559510000" lon="7.218400000">
        <ele>54</ele>
        <time>2021-04-28T09:27:34Z</time>
      </trkpt>
      <trkpt lat="51.559550000" lon="7.218550000">
        <ele>54</ele>
        <time>2021-04-28T09:27:35Z</time>
      </trkpt>
      <trkpt lat="51.559590000" lon="7.218760000">
        <ele>54</ele>
        <time>2021-04-28T09:27:38Z</time>
      </trkpt>
      <trkpt lat="51.559610000" lon="7.218900000">
        <ele>54</ele>
        <time>2021-04-28T09:27:39Z</time>
      </trkpt>
      <trkpt lat="51.559630000" lon="7.218980000">
        <ele>54</ele>
        <time>2021-04-28T09:27:40Z</time>
      </trkpt>
      <trkpt lat="51.559640000" lon="7.219070000">
        <ele>54</ele>
        <time>2021-04-28T09:27:42Z</time>
      </trkpt>
      <trkpt lat="51.559660000" lon="7.219230000">
        <ele>54</ele>
        <time>2021-04-28T09:27:44Z</time>
      </trkpt>
      <trkpt lat="51.559700000" lon="7.219430000">
        <ele>54</ele>
        <time>2021-04-28T09:27:45Z</time>
      </trkpt>
      <trkpt lat="51.559730000" lon="7.219590000">
        <ele>54</ele>
        <time>2021-04-28T09:27:48Z</time>
      </trkpt>
      <trkpt lat="51.559770000" lon="7.219760000">
        <ele>54</ele>
        <time>2021-04-28T09:27:50Z</time>
      </trkpt>
      <trkpt lat="51.559810000" lon="7.219950000">
        <ele>54</ele>
        <time>2021-04-28T09:27:51Z</time>
      </trkpt>
      <trkpt lat="51.559860000" lon="7.220140000">
        <ele>54</ele>
        <time>2021-04-28T09:27:54Z</time>
      </trkpt>
      <trkpt lat="51.559900000" lon="7.220320000">
        <ele>45</ele>
        <time>2021-04-28T09:27:56Z</time>
      </trkpt>
      <trkpt lat="51.559940000" lon="7.220460000">
        <ele>45</ele>
        <time>2021-04-28T09:27:57Z</time>
      </trkpt>
      <trkpt lat="51.559980000" lon="7.220630000">
        <ele>45</ele>
        <time>2021-04-28T09:27:59Z</time>
      </trkpt>
      <trkpt lat="51.560000000" lon="7.220720000">
        <ele>45</ele>
        <time>2021-04-28T09:28:00Z</time>
      </trkpt>
      <trkpt lat="51.560040000" lon="7.220920000">
        <ele>45</ele>
        <time>2021-04-28T09:28:04Z</time>
      </trkpt>
      <trkpt lat="51.560080000" lon="7.221050000">
        <ele>45</ele>
        <time>2021-04-28T09:28:05Z</time>
      </trkpt>
      <trkpt lat="51.560110000" lon="7.221110000">
        <ele>45</ele>
        <time>2021-04-28T09:28:07Z</time>
      </trkpt>
      <trkpt lat="51.560130000" lon="7.221170000">
        <ele>45</ele>
        <time>2021-04-28T09:28:08Z</time>
      </trkpt>
      <trkpt lat="51.560180000" lon="7.221300000">
        <ele>45</ele>
        <time>2021-04-28T09:28:10Z</time>
      </trkpt>
      <trkpt lat="51.560240000" lon="7.221410000">
        <ele>45</ele>
        <time>2021-04-28T09:28:11Z</time>
      </trkpt>
      <trkpt lat="51.560290000" lon="7.221500000">
        <ele>45</ele>
        <time>2021-04-28T09:28:12Z</time>
      </trkpt>
      <trkpt lat="51.560330000" lon="7.221560000">
        <ele>45</ele>
        <time>2021-04-28T09:28:14Z</time>
      </trkpt>
      <trkpt lat="51.560370000" lon="7.221630000">
        <ele>45</ele>
        <time>2021-04-28T09:28:15Z</time>
      </trkpt>
      <trkpt lat="51.560420000" lon="7.221700000">
        <ele>45</ele>
        <time>2021-04-28T09:28:16Z</time>
      </trkpt>
      <trkpt lat="51.560510000" lon="7.221820000">
        <ele>45</ele>
        <time>2021-04-28T09:28:17Z</time>
      </trkpt>
      <trkpt lat="51.560580000" lon="7.221950000">
        <ele>46</ele>
        <time>2021-04-28T09:28:19Z</time>
      </trkpt>
      <trkpt lat="51.560630000" lon="7.222030000">
        <ele>46</ele>
        <time>2021-04-28T09:28:20Z</time>
      </trkpt>
      <trkpt lat="51.560700000" lon="7.222130000">
        <ele>46</ele>
        <time>2021-04-28T09:28:22Z</time>
      </trkpt>
      <trkpt lat="51.560780000" lon="7.222280000">
        <ele>46</ele>
        <time>2021-04-28T09:28:24Z</time>
      </trkpt>
      <trkpt lat="51.560880000" lon="7.222430000">
        <ele>46</ele>
        <time>2021-04-28T09:28:25Z</time>
      </trkpt>
      <trkpt lat="51.560970000" lon="7.222610000">
        <ele>46</ele>
        <time>2021-04-28T09:28:27Z</time>
      </trkpt>
      <trkpt lat="51.561010000" lon="7.222690000">
        <ele>46</ele>
        <time>2021-04-28T09:28:28Z</time>
      </trkpt>
      <trkpt lat="51.561070000" lon="7.222770000">
        <ele>46</ele>
        <time>2021-04-28T09:28:30Z</time>
      </trkpt>
      <trkpt lat="51.561160000" lon="7.222950000">
        <ele>46</ele>
        <time>2021-04-28T09:28:32Z</time>
      </trkpt>
      <trkpt lat="51.561210000" lon="7.223140000">
        <ele>46</ele>
        <time>2021-04-28T09:28:34Z</time>
      </trkpt>
      <trkpt lat="51.561280000" lon="7.223310000">
        <ele>48</ele>
        <time>2021-04-28T09:28:36Z</time>
      </trkpt>
      <trkpt lat="51.561310000" lon="7.223380000">
        <ele>48</ele>
        <time>2021-04-28T09:28:37Z</time>
      </trkpt>
      <trkpt lat="51.561340000" lon="7.223510000">
        <ele>48</ele>
        <time>2021-04-28T09:28:38Z</time>
      </trkpt>
      <trkpt lat="51.561390000" lon="7.223670000">
        <ele>48</ele>
        <time>2021-04-28T09:28:40Z</time>
      </trkpt>
      <trkpt lat="51.561420000" lon="7.223760000">
        <ele>48</ele>
        <time>2021-04-28T09:28:41Z</time>
      </trkpt>
      <trkpt lat="51.561460000" lon="7.223890000">
        <ele>48</ele>
        <time>2021-04-28T09:28:43Z</time>
      </trkpt>
      <trkpt lat="51.561520000" lon="7.224050000">
        <ele>48</ele>
        <time>2021-04-28T09:28:45Z</time>
      </trkpt>
      <trkpt lat="51.561560000" lon="7.224240000">
        <ele>48</ele>
        <time>2021-04-28T09:28:47Z</time>
      </trkpt>
      <trkpt lat="51.561590000" lon="7.224430000">
        <ele>48</ele>
        <time>2021-04-28T09:28:49Z</time>
      </trkpt>
      <trkpt lat="51.561630000" lon="7.224610000">
        <ele>48</ele>
        <time>2021-04-28T09:28:50Z</time>
      </trkpt>
      <trkpt lat="51.561650000" lon="7.224740000">
        <ele>48</ele>
        <time>2021-04-28T09:28:51Z</time>
      </trkpt>
      <trkpt lat="51.561660000" lon="7.224820000">
        <ele>48</ele>
        <time>2021-04-28T09:28:53Z</time>
      </trkpt>
      <trkpt lat="51.561690000" lon="7.225000000">
        <ele>45</ele>
        <time>2021-04-28T09:28:54Z</time>
      </trkpt>
      <trkpt lat="51.561700000" lon="7.225090000">
        <ele>45</ele>
        <time>2021-04-28T09:28:56Z</time>
      </trkpt>
      <trkpt lat="51.561720000" lon="7.225180000">
        <ele>45</ele>
        <time>2021-04-28T09:28:57Z</time>
      </trkpt>
      <trkpt lat="51.561760000" lon="7.225350000">
        <ele>45</ele>
        <time>2021-04-28T09:28:59Z</time>
      </trkpt>
      <trkpt lat="51.561790000" lon="7.225490000">
        <ele>45</ele>
        <time>2021-04-28T09:29:00Z</time>
      </trkpt>
      <trkpt lat="51.561800000" lon="7.225580000">
        <ele>45</ele>
        <time>2021-04-28T09:29:01Z</time>
      </trkpt>
      <trkpt lat="51.561820000" lon="7.225700000">
        <ele>45</ele>
        <time>2021-04-28T09:29:03Z</time>
      </trkpt>
      <trkpt lat="51.561840000" lon="7.225850000">
        <ele>45</ele>
        <time>2021-04-28T09:29:04Z</time>
      </trkpt>
      <trkpt lat="51.561860000" lon="7.225990000">
        <ele>45</ele>
        <time>2021-04-28T09:29:07Z</time>
      </trkpt>
      <trkpt lat="51.561920000" lon="7.226160000">
        <ele>45</ele>
        <time>2021-04-28T09:29:09Z</time>
      </trkpt>
      <trkpt lat="51.561960000" lon="7.226330000">
        <ele>45</ele>
        <time>2021-04-28T09:29:10Z</time>
      </trkpt>
      <trkpt lat="51.561980000" lon="7.226420000">
        <ele>45</ele>
        <time>2021-04-28T09:29:11Z</time>
      </trkpt>
      <trkpt lat="51.561990000" lon="7.226510000">
        <ele>45</ele>
        <time>2021-04-28T09:29:12Z</time>
      </trkpt>
      <trkpt lat="51.562010000" lon="7.226610000">
        <ele>45</ele>
        <time>2021-04-28T09:29:14Z</time>
      </trkpt>
      <trkpt lat="51.562020000" lon="7.226700000">
        <ele>45</ele>
        <time>2021-04-28T09:29:15Z</time>
      </trkpt>
      <trkpt lat="51.562060000" lon="7.226880000">
        <ele>45</ele>
        <time>2021-04-28T09:29:16Z</time>
      </trkpt>
      <trkpt lat="51.562090000" lon="7.226970000">
        <ele>45</ele>
        <time>2021-04-28T09:29:18Z</time>
      </trkpt>
      <trkpt lat="51.562100000" lon="7.227060000">
        <ele>45</ele>
        <time>2021-04-28T09:29:19Z</time>
      </trkpt>
      <trkpt lat="51.562140000" lon="7.227220000">
        <ele>45</ele>
        <time>2021-04-28T09:29:20Z</time>
      </trkpt>
      <trkpt lat="51.562170000" lon="7.227400000">
        <ele>45</ele>
        <time>2021-04-28T09:29:22Z</time>
      </trkpt>
      <trkpt lat="51.562200000" lon="7.227510000">
        <ele>45</ele>
        <time>2021-04-28T09:29:24Z</time>
      </trkpt>
      <trkpt lat="51.562210000" lon="7.227580000">
        <ele>45</ele>
        <time>2021-04-28T09:29:25Z</time>
      </trkpt>
      <trkpt lat="51.562220000" lon="7.227730000">
        <ele>45</ele>
        <time>2021-04-28T09:29:26Z</time>
      </trkpt>
      <trkpt lat="51.562230000" lon="7.227850000">
        <ele>45</ele>
        <time>2021-04-28T09:29:28Z</time>
      </trkpt>
      <trkpt lat="51.562240000" lon="7.228030000">
        <ele>45</ele>
        <time>2021-04-28T09:29:29Z</time>
      </trkpt>
      <trkpt lat="51.562270000" lon="7.228200000">
        <ele>45</ele>
        <time>2021-04-28T09:29:31Z</time>
      </trkpt>
      <trkpt lat="51.562280000" lon="7.228300000">
        <ele>45</ele>
        <time>2021-04-28T09:29:32Z</time>
      </trkpt>
      <trkpt lat="51.562300000" lon="7.228400000">
        <ele>45</ele>
        <time>2021-04-28T09:29:34Z</time>
      </trkpt>
      <trkpt lat="51.562310000" lon="7.228490000">
        <ele>45</ele>
        <time>2021-04-28T09:29:35Z</time>
      </trkpt>
      <trkpt lat="51.562350000" lon="7.228680000">
        <ele>45</ele>
        <time>2021-04-28T09:29:37Z</time>
      </trkpt>
      <trkpt lat="51.562370000" lon="7.228770000">
        <ele>45</ele>
        <time>2021-04-28T09:29:38Z</time>
      </trkpt>
      <trkpt lat="51.562420000" lon="7.228950000">
        <ele>45</ele>
        <time>2021-04-28T09:29:40Z</time>
      </trkpt>
      <trkpt lat="51.562440000" lon="7.229120000">
        <ele>45</ele>
        <time>2021-04-28T09:29:41Z</time>
      </trkpt>
      <trkpt lat="51.562480000" lon="7.229300000">
        <ele>45</ele>
        <time>2021-04-28T09:29:43Z</time>
      </trkpt>
      <trkpt lat="51.562510000" lon="7.229420000">
        <ele>45</ele>
        <time>2021-04-28T09:29:45Z</time>
      </trkpt>
      <trkpt lat="51.562560000" lon="7.229560000">
        <ele>45</ele>
        <time>2021-04-28T09:29:46Z</time>
      </trkpt>
      <trkpt lat="51.562590000" lon="7.229670000">
        <ele>45</ele>
        <time>2021-04-28T09:29:48Z</time>
      </trkpt>
      <trkpt lat="51.562630000" lon="7.229850000">
        <ele>45</ele>
        <time>2021-04-28T09:29:49Z</time>
      </trkpt>
      <trkpt lat="51.562640000" lon="7.229940000">
        <ele>45</ele>
        <time>2021-04-28T09:29:51Z</time>
      </trkpt>
      <trkpt lat="51.562670000" lon="7.230120000">
        <ele>45</ele>
        <time>2021-04-28T09:29:52Z</time>
      </trkpt>
      <trkpt lat="51.562680000" lon="7.230210000">
        <ele>45</ele>
        <time>2021-04-28T09:29:53Z</time>
      </trkpt>
      <trkpt lat="51.562700000" lon="7.230300000">
        <ele>47</ele>
        <time>2021-04-28T09:29:55Z</time>
      </trkpt>
      <trkpt lat="51.562740000" lon="7.230460000">
        <ele>47</ele>
        <time>2021-04-28T09:29:57Z</time>
      </trkpt>
      <trkpt lat="51.562780000" lon="7.230630000">
        <ele>47</ele>
        <time>2021-04-28T09:29:59Z</time>
      </trkpt>
      <trkpt lat="51.562810000" lon="7.230780000">
        <ele>47</ele>
        <time>2021-04-28T09:30:00Z</time>
      </trkpt>
      <trkpt lat="51.562840000" lon="7.230900000">
        <ele>47</ele>
        <time>2021-04-28T09:30:01Z</time>
      </trkpt>
      <trkpt lat="51.562870000" lon="7.231060000">
        <ele>47</ele>
        <time>2021-04-28T09:30:03Z</time>
      </trkpt>
      <trkpt lat="51.562890000" lon="7.231160000">
        <ele>47</ele>
        <time>2021-04-28T09:30:04Z</time>
      </trkpt>
      <trkpt lat="51.562920000" lon="7.231350000">
        <ele>47</ele>
        <time>2021-04-28T09:30:06Z</time>
      </trkpt>
      <trkpt lat="51.562950000" lon="7.231460000">
        <ele>47</ele>
        <time>2021-04-28T09:30:07Z</time>
      </trkpt>
      <trkpt lat="51.562970000" lon="7.231550000">
        <ele>47</ele>
        <time>2021-04-28T09:30:09Z</time>
      </trkpt>
      <trkpt lat="51.562990000" lon="7.231730000">
        <ele>47</ele>
        <time>2021-04-28T09:30:11Z</time>
      </trkpt>
      <trkpt lat="51.563000000" lon="7.231830000">
        <ele>47</ele>
        <time>2021-04-28T09:30:12Z</time>
      </trkpt>
      <trkpt lat="51.563020000" lon="7.231930000">
        <ele>47</ele>
        <time>2021-04-28T09:30:13Z</time>
      </trkpt>
      <trkpt lat="51.563050000" lon="7.232090000">
        <ele>43</ele>
        <time>2021-04-28T09:30:14Z</time>
      </trkpt>
      <trkpt lat="51.563060000" lon="7.232160000">
        <ele>43</ele>
        <time>2021-04-28T09:30:16Z</time>
      </trkpt>
      <trkpt lat="51.563090000" lon="7.232330000">
        <ele>43</ele>
        <time>2021-04-28T09:30:18Z</time>
      </trkpt>
      <trkpt lat="51.563120000" lon="7.232500000">
        <ele>43</ele>
        <time>2021-04-28T09:30:20Z</time>
      </trkpt>
      <trkpt lat="51.563160000" lon="7.232650000">
        <ele>43</ele>
        <time>2021-04-28T09:30:21Z</time>
      </trkpt>
      <trkpt lat="51.563170000" lon="7.232780000">
        <ele>43</ele>
        <time>2021-04-28T09:30:23Z</time>
      </trkpt>
      <trkpt lat="51.563180000" lon="7.232860000">
        <ele>43</ele>
        <time>2021-04-28T09:30:24Z</time>
      </trkpt>
      <trkpt lat="51.563200000" lon="7.232950000">
        <ele>43</ele>
        <time>2021-04-28T09:30:25Z</time>
      </trkpt>
      <trkpt lat="51.563210000" lon="7.233030000">
        <ele>43</ele>
        <time>2021-04-28T09:30:27Z</time>
      </trkpt>
      <trkpt lat="51.563240000" lon="7.233180000">
        <ele>43</ele>
        <time>2021-04-28T09:30:28Z</time>
      </trkpt>
      <trkpt lat="51.563260000" lon="7.233290000">
        <ele>46</ele>
        <time>2021-04-28T09:30:30Z</time>
      </trkpt>
      <trkpt lat="51.563270000" lon="7.233440000">
        <ele>46</ele>
        <time>2021-04-28T09:30:31Z</time>
      </trkpt>
      <trkpt lat="51.563280000" lon="7.233550000">
        <ele>46</ele>
        <time>2021-04-28T09:30:32Z</time>
      </trkpt>
      <trkpt lat="51.563280000" lon="7.233720000">
        <ele>46</ele>
        <time>2021-04-28T09:30:34Z</time>
      </trkpt>
      <trkpt lat="51.563290000" lon="7.233810000">
        <ele>46</ele>
        <time>2021-04-28T09:30:36Z</time>
      </trkpt>
      <trkpt lat="51.563290000" lon="7.233990000">
        <ele>46</ele>
        <time>2021-04-28T09:30:38Z</time>
      </trkpt>
      <trkpt lat="51.563300000" lon="7.234090000">
        <ele>46</ele>
        <time>2021-04-28T09:30:39Z</time>
      </trkpt>
      <trkpt lat="51.563300000" lon="7.234260000">
        <ele>46</ele>
        <time>2021-04-28T09:30:41Z</time>
      </trkpt>
      <trkpt lat="51.563310000" lon="7.234400000">
        <ele>46</ele>
        <time>2021-04-28T09:30:42Z</time>
      </trkpt>
      <trkpt lat="51.563370000" lon="7.234540000">
        <ele>46</ele>
        <time>2021-04-28T09:30:44Z</time>
      </trkpt>
      <trkpt lat="51.563420000" lon="7.234610000">
        <ele>46</ele>
        <time>2021-04-28T09:30:46Z</time>
      </trkpt>
      <trkpt lat="51.563480000" lon="7.234720000">
        <ele>46</ele>
        <time>2021-04-28T09:30:48Z</time>
      </trkpt>
      <trkpt lat="51.563500000" lon="7.234840000">
        <ele>46</ele>
        <time>2021-04-28T09:30:49Z</time>
      </trkpt>
      <trkpt lat="51.563510000" lon="7.235030000">
        <ele>42</ele>
        <time>2021-04-28T09:30:53Z</time>
      </trkpt>
      <trkpt lat="51.563500000" lon="7.235180000">
        <ele>42</ele>
        <time>2021-04-28T09:30:55Z</time>
      </trkpt>
      <trkpt lat="51.563510000" lon="7.235310000">
        <ele>42</ele>
        <time>2021-04-28T09:30:57Z</time>
      </trkpt>
      <trkpt lat="51.563510000" lon="7.235460000">
        <ele>42</ele>
        <time>2021-04-28T09:30:59Z</time>
      </trkpt>
      <trkpt lat="51.563510000" lon="7.235600000">
        <ele>42</ele>
        <time>2021-04-28T09:31:01Z</time>
      </trkpt>
      <trkpt lat="51.563520000" lon="7.235740000">
        <ele>42</ele>
        <time>2021-04-28T09:31:03Z</time>
      </trkpt>
      <trkpt lat="51.563520000" lon="7.235870000">
        <ele>42</ele>
        <time>2021-04-28T09:31:04Z</time>
      </trkpt>
      <trkpt lat="51.563530000" lon="7.235950000">
        <ele>42</ele>
        <time>2021-04-28T09:31:05Z</time>
      </trkpt>
      <trkpt lat="51.563530000" lon="7.236050000">
        <ele>42</ele>
        <time>2021-04-28T09:31:06Z</time>
      </trkpt>
      <trkpt lat="51.563540000" lon="7.236180000">
        <ele>42</ele>
        <time>2021-04-28T09:31:08Z</time>
      </trkpt>
      <trkpt lat="51.563560000" lon="7.236310000">
        <ele>42</ele>
        <time>2021-04-28T09:31:11Z</time>
      </trkpt>
      <trkpt lat="51.563560000" lon="7.236430000">
        <ele>42</ele>
        <time>2021-04-28T09:31:12Z</time>
      </trkpt>
      <trkpt lat="51.563570000" lon="7.236520000">
        <ele>42</ele>
        <time>2021-04-28T09:31:14Z</time>
      </trkpt>
      <trkpt lat="51.563580000" lon="7.236610000">
        <ele>49</ele>
        <time>2021-04-28T09:31:16Z</time>
      </trkpt>
      <trkpt lat="51.563570000" lon="7.236680000">
        <ele>49</ele>
        <time>2021-04-28T09:33:47Z</time>
      </trkpt>
      <trkpt lat="51.563560000" lon="7.236760000">
        <ele>49</ele>
        <time>2021-04-28T09:33:48Z</time>
      </trkpt>
      <trkpt lat="51.563510000" lon="7.236830000">
        <ele>49</ele>
        <time>2021-04-28T09:33:50Z</time>
      </trkpt>
      <trkpt lat="51.563450000" lon="7.236880000">
        <ele>49</ele>
        <time>2021-04-28T09:33:53Z</time>
      </trkpt>
      <trkpt lat="51.563400000" lon="7.236960000">
        <ele>49</ele>
        <time>2021-04-28T09:33:54Z</time>
      </trkpt>
      <trkpt lat="51.563400000" lon="7.237110000">
        <ele>49</ele>
        <time>2021-04-28T09:33:57Z</time>
      </trkpt>
      <trkpt lat="51.563400000" lon="7.237180000">
        <ele>49</ele>
        <time>2021-04-28T09:33:58Z</time>
      </trkpt>
      <trkpt lat="51.563420000" lon="7.237350000">
        <ele>49</ele>
        <time>2021-04-28T09:34:00Z</time>
      </trkpt>
      <trkpt lat="51.563430000" lon="7.237480000">
        <ele>49</ele>
        <time>2021-04-28T09:34:02Z</time>
      </trkpt>
      <trkpt lat="51.563430000" lon="7.237610000">
        <ele>56</ele>
        <time>2021-04-28T09:34:04Z</time>
      </trkpt>
      <trkpt lat="51.563410000" lon="7.237750000">
        <ele>56</ele>
        <time>2021-04-28T09:34:06Z</time>
      </trkpt>
      <trkpt lat="51.563410000" lon="7.237830000">
        <ele>56</ele>
        <time>2021-04-28T09:34:07Z</time>
      </trkpt>
      <trkpt lat="51.563420000" lon="7.238050000">
        <ele>56</ele>
        <time>2021-04-28T09:34:09Z</time>
      </trkpt>
      <trkpt lat="51.563410000" lon="7.238130000">
        <ele>56</ele>
        <time>2021-04-28T09:34:10Z</time>
      </trkpt>
      <trkpt lat="51.563420000" lon="7.238320000">
        <ele>56</ele>
        <time>2021-04-28T09:34:14Z</time>
      </trkpt>
      <trkpt lat="51.563430000" lon="7.238460000">
        <ele>56</ele>
        <time>2021-04-28T09:34:16Z</time>
      </trkpt>
      <trkpt lat="51.563440000" lon="7.238600000">
        <ele>56</ele>
        <time>2021-04-28T09:34:18Z</time>
      </trkpt>
      <trkpt lat="51.563460000" lon="7.238750000">
        <ele>56</ele>
        <time>2021-04-28T09:34:20Z</time>
      </trkpt>
      <trkpt lat="51.563470000" lon="7.238880000">
        <ele>56</ele>
        <time>2021-04-28T09:34:22Z</time>
      </trkpt>
      <trkpt lat="51.563460000" lon="7.238960000">
        <ele>56</ele>
        <time>2021-04-28T09:34:23Z</time>
      </trkpt>
      <trkpt lat="51.563460000" lon="7.239090000">
        <ele>56</ele>
        <time>2021-04-28T09:34:25Z</time>
      </trkpt>
      <trkpt lat="51.563480000" lon="7.239210000">
        <ele>56</ele>
        <time>2021-04-28T09:34:27Z</time>
      </trkpt>
      <trkpt lat="51.563510000" lon="7.239370000">
        <ele>56</ele>
        <time>2021-04-28T09:34:29Z</time>
      </trkpt>
      <trkpt lat="51.563520000" lon="7.239480000">
        <ele>56</ele>
        <time>2021-04-28T09:34:31Z</time>
      </trkpt>
      <trkpt lat="51.563540000" lon="7.239630000">
        <ele>56</ele>
        <time>2021-04-28T09:34:34Z</time>
      </trkpt>
      <trkpt lat="51.563550000" lon="7.239710000">
        <ele>56</ele>
        <time>2021-04-28T09:34:36Z</time>
      </trkpt>
      <trkpt lat="51.563560000" lon="7.239790000">
        <ele>56</ele>
        <time>2021-04-28T09:34:37Z</time>
      </trkpt>
      <trkpt lat="51.563570000" lon="7.239940000">
        <ele>56</ele>
        <time>2021-04-28T09:34:41Z</time>
      </trkpt>
      <trkpt lat="51.563580000" lon="7.240040000">
        <ele>56</ele>
        <time>2021-04-28T09:34:43Z</time>
      </trkpt>
      <trkpt lat="51.563580000" lon="7.240140000">
        <ele>56</ele>
        <time>2021-04-28T09:34:45Z</time>
      </trkpt>
      <trkpt lat="51.563600000" lon="7.240210000">
        <ele>56</ele>
        <time>2021-04-28T09:34:47Z</time>
      </trkpt>
      <trkpt lat="51.563610000" lon="7.240290000">
        <ele>56</ele>
        <time>2021-04-28T09:34:48Z</time>
      </trkpt>
      <trkpt lat="51.563630000" lon="7.240440000">
        <ele>56</ele>
        <time>2021-04-28T09:34:51Z</time>
      </trkpt>
      <trkpt lat="51.563640000" lon="7.240530000">
        <ele>56</ele>
        <time>2021-04-28T09:34:53Z</time>
      </trkpt>
      <trkpt lat="51.563650000" lon="7.240640000">
        <ele>56</ele>
        <time>2021-04-28T09:34:57Z</time>
      </trkpt>
      <trkpt lat="51.563660000" lon="7.240760000">
        <ele>56</ele>
        <time>2021-04-28T09:35:00Z</time>
      </trkpt>
      <trkpt lat="51.563700000" lon="7.240870000">
        <ele>56</ele>
        <time>2021-04-28T09:35:03Z</time>
      </trkpt>
      <trkpt lat="51.563770000" lon="7.240940000">
        <ele>56</ele>
        <time>2021-04-28T09:35:07Z</time>
      </trkpt>
      <trkpt lat="51.563840000" lon="7.240920000">
        <ele>56</ele>
        <time>2021-04-28T09:35:09Z</time>
      </trkpt>
      <trkpt lat="51.563910000" lon="7.240890000">
        <ele>56</ele>
        <time>2021-04-28T09:35:11Z</time>
      </trkpt>
      <trkpt lat="51.563960000" lon="7.240880000">
        <ele>56</ele>
        <time>2021-04-28T09:35:12Z</time>
      </trkpt>
      <trkpt lat="51.564020000" lon="7.240870000">
        <ele>56</ele>
        <time>2021-04-28T09:35:15Z</time>
      </trkpt>
      <trkpt lat="51.564070000" lon="7.240860000">
        <ele>56</ele>
        <time>2021-04-28T09:35:18Z</time>
      </trkpt>
      <trkpt lat="51.564140000" lon="7.240890000">
        <ele>56</ele>
        <time>2021-04-28T09:35:23Z</time>
      </trkpt>
      <trkpt lat="51.564190000" lon="7.240870000">
        <ele>56</ele>
        <time>2021-04-28T09:35:25Z</time>
      </trkpt>
      <trkpt lat="51.564310000" lon="7.240860000">
        <ele>56</ele>
        <time>2021-04-28T09:35:28Z</time>
      </trkpt>
      <trkpt lat="51.564440000" lon="7.240850000">
        <ele>56</ele>
        <time>2021-04-28T09:35:31Z</time>
      </trkpt>
      <trkpt lat="51.564510000" lon="7.240830000">
        <ele>56</ele>
        <time>2021-04-28T09:35:32Z</time>
      </trkpt>
      <trkpt lat="51.564620000" lon="7.240820000">
        <ele>56</ele>
        <time>2021-04-28T09:35:35Z</time>
      </trkpt>
      <trkpt lat="51.564750000" lon="7.240800000">
        <ele>56</ele>
        <time>2021-04-28T09:35:38Z</time>
      </trkpt>
      <trkpt lat="51.564840000" lon="7.240780000">
        <ele>56</ele>
        <time>2021-04-28T09:35:40Z</time>
      </trkpt>
      <trkpt lat="51.564890000" lon="7.240770000">
        <ele>56</ele>
        <time>2021-04-28T09:35:41Z</time>
      </trkpt>
      <trkpt lat="51.564940000" lon="7.240770000">
        <ele>55</ele>
        <time>2021-04-28T09:35:41Z</time>
      </trkpt>
      <trkpt lat="51.565040000" lon="7.240760000">
        <ele>55</ele>
        <time>2021-04-28T09:35:43Z</time>
      </trkpt>
      <trkpt lat="51.565090000" lon="7.240750000">
        <ele>55</ele>
        <time>2021-04-28T09:35:44Z</time>
      </trkpt>
      <trkpt lat="51.565140000" lon="7.240740000">
        <ele>55</ele>
        <time>2021-04-28T09:35:46Z</time>
      </trkpt>
      <trkpt lat="51.565180000" lon="7.240740000">
        <ele>55</ele>
        <time>2021-04-28T09:35:47Z</time>
      </trkpt>
      <trkpt lat="51.565240000" lon="7.240790000">
        <ele>55</ele>
        <time>2021-04-28T09:35:49Z</time>
      </trkpt>
      <trkpt lat="51.565270000" lon="7.240980000">
        <ele>55</ele>
        <time>2021-04-28T09:35:52Z</time>
      </trkpt>
      <trkpt lat="51.565280000" lon="7.241120000">
        <ele>55</ele>
        <time>2021-04-28T09:35:53Z</time>
      </trkpt>
      <trkpt lat="51.565290000" lon="7.241300000">
        <ele>55</ele>
        <time>2021-04-28T09:35:55Z</time>
      </trkpt>
      <trkpt lat="51.565290000" lon="7.241400000">
        <ele>55</ele>
        <time>2021-04-28T09:35:56Z</time>
      </trkpt>
      <trkpt lat="51.565290000" lon="7.241490000">
        <ele>55</ele>
        <time>2021-04-28T09:35:58Z</time>
      </trkpt>
      <trkpt lat="51.565290000" lon="7.241670000">
        <ele>55</ele>
        <time>2021-04-28T09:36:00Z</time>
      </trkpt>
      <trkpt lat="51.565300000" lon="7.241850000">
        <ele>55</ele>
        <time>2021-04-28T09:36:02Z</time>
      </trkpt>
      <trkpt lat="51.565300000" lon="7.242030000">
        <ele>59</ele>
        <time>2021-04-28T09:36:04Z</time>
      </trkpt>
      <trkpt lat="51.565290000" lon="7.242120000">
        <ele>59</ele>
        <time>2021-04-28T09:36:04Z</time>
      </trkpt>
      <trkpt lat="51.565280000" lon="7.242280000">
        <ele>59</ele>
        <time>2021-04-28T09:36:06Z</time>
      </trkpt>
      <trkpt lat="51.565270000" lon="7.242400000">
        <ele>59</ele>
        <time>2021-04-28T09:36:07Z</time>
      </trkpt>
      <trkpt lat="51.565270000" lon="7.242540000">
        <ele>59</ele>
        <time>2021-04-28T09:36:09Z</time>
      </trkpt>
      <trkpt lat="51.565260000" lon="7.242630000">
        <ele>59</ele>
        <time>2021-04-28T09:36:11Z</time>
      </trkpt>
      <trkpt lat="51.565230000" lon="7.242830000">
        <ele>59</ele>
        <time>2021-04-28T09:36:13Z</time>
      </trkpt>
      <trkpt lat="51.565230000" lon="7.242990000">
        <ele>59</ele>
        <time>2021-04-28T09:36:15Z</time>
      </trkpt>
      <trkpt lat="51.565240000" lon="7.243100000">
        <ele>59</ele>
        <time>2021-04-28T09:36:17Z</time>
      </trkpt>
      <trkpt lat="51.565240000" lon="7.243250000">
        <ele>59</ele>
        <time>2021-04-28T09:36:19Z</time>
      </trkpt>
      <trkpt lat="51.565250000" lon="7.243400000">
        <ele>59</ele>
        <time>2021-04-28T09:36:20Z</time>
      </trkpt>
      <trkpt lat="51.565260000" lon="7.243470000">
        <ele>59</ele>
        <time>2021-04-28T09:36:22Z</time>
      </trkpt>
      <trkpt lat="51.565250000" lon="7.243620000">
        <ele>59</ele>
        <time>2021-04-28T09:36:24Z</time>
      </trkpt>
      <trkpt lat="51.565250000" lon="7.243770000">
        <ele>59</ele>
        <time>2021-04-28T09:36:25Z</time>
      </trkpt>
      <trkpt lat="51.565250000" lon="7.243850000">
        <ele>59</ele>
        <time>2021-04-28T09:36:26Z</time>
      </trkpt>
      <trkpt lat="51.565250000" lon="7.244020000">
        <ele>59</ele>
        <time>2021-04-28T09:36:28Z</time>
      </trkpt>
      <trkpt lat="51.565240000" lon="7.244110000">
        <ele>59</ele>
        <time>2021-04-28T09:36:30Z</time>
      </trkpt>
      <trkpt lat="51.565230000" lon="7.244190000">
        <ele>59</ele>
        <time>2021-04-28T09:36:31Z</time>
      </trkpt>
      <trkpt lat="51.565210000" lon="7.244380000">
        <ele>61</ele>
        <time>2021-04-28T09:36:33Z</time>
      </trkpt>
      <trkpt lat="51.565210000" lon="7.244520000">
        <ele>61</ele>
        <time>2021-04-28T09:36:34Z</time>
      </trkpt>
      <trkpt lat="51.565220000" lon="7.244610000">
        <ele>61</ele>
        <time>2021-04-28T09:36:35Z</time>
      </trkpt>
      <trkpt lat="51.565230000" lon="7.244720000">
        <ele>61</ele>
        <time>2021-04-28T09:36:37Z</time>
      </trkpt>
      <trkpt lat="51.565250000" lon="7.244880000">
        <ele>61</ele>
        <time>2021-04-28T09:36:38Z</time>
      </trkpt>
      <trkpt lat="51.565260000" lon="7.244970000">
        <ele>61</ele>
        <time>2021-04-28T09:36:39Z</time>
      </trkpt>
      <trkpt lat="51.565270000" lon="7.245130000">
        <ele>61</ele>
        <time>2021-04-28T09:36:42Z</time>
      </trkpt>
      <trkpt lat="51.565280000" lon="7.245260000">
        <ele>61</ele>
        <time>2021-04-28T09:36:43Z</time>
      </trkpt>
      <trkpt lat="51.565280000" lon="7.245370000">
        <ele>61</ele>
        <time>2021-04-28T09:36:45Z</time>
      </trkpt>
      <trkpt lat="51.565290000" lon="7.245450000">
        <ele>61</ele>
        <time>2021-04-28T09:36:46Z</time>
      </trkpt>
      <trkpt lat="51.565300000" lon="7.245620000">
        <ele>61</ele>
        <time>2021-04-28T09:36:48Z</time>
      </trkpt>
      <trkpt lat="51.565310000" lon="7.245700000">
        <ele>61</ele>
        <time>2021-04-28T09:36:49Z</time>
      </trkpt>
      <trkpt lat="51.565320000" lon="7.245870000">
        <ele>61</ele>
        <time>2021-04-28T09:36:51Z</time>
      </trkpt>
      <trkpt lat="51.565340000" lon="7.246020000">
        <ele>61</ele>
        <time>2021-04-28T09:36:53Z</time>
      </trkpt>
      <trkpt lat="51.565340000" lon="7.246100000">
        <ele>61</ele>
        <time>2021-04-28T09:36:54Z</time>
      </trkpt>
      <trkpt lat="51.565350000" lon="7.246290000">
        <ele>61</ele>
        <time>2021-04-28T09:36:56Z</time>
      </trkpt>
      <trkpt lat="51.565360000" lon="7.246450000">
        <ele>61</ele>
        <time>2021-04-28T09:36:57Z</time>
      </trkpt>
      <trkpt lat="51.565370000" lon="7.246570000">
        <ele>61</ele>
        <time>2021-04-28T09:36:59Z</time>
      </trkpt>
      <trkpt lat="51.565370000" lon="7.246780000">
        <ele>61</ele>
        <time>2021-04-28T09:37:01Z</time>
      </trkpt>
      <trkpt lat="51.565370000" lon="7.246960000">
        <ele>61</ele>
        <time>2021-04-28T09:37:03Z</time>
      </trkpt>
      <trkpt lat="51.565370000" lon="7.247130000">
        <ele>61</ele>
        <time>2021-04-28T09:37:05Z</time>
      </trkpt>
      <trkpt lat="51.565380000" lon="7.247320000">
        <ele>61</ele>
        <time>2021-04-28T09:37:07Z</time>
      </trkpt>
      <trkpt lat="51.565390000" lon="7.247490000">
        <ele>61</ele>
        <time>2021-04-28T09:37:09Z</time>
      </trkpt>
      <trkpt lat="51.565400000" lon="7.247680000">
        <ele>61</ele>
        <time>2021-04-28T09:37:11Z</time>
      </trkpt>
      <trkpt lat="51.565420000" lon="7.247860000">
        <ele>58</ele>
        <time>2021-04-28T09:37:12Z</time>
      </trkpt>
      <trkpt lat="51.565420000" lon="7.248040000">
        <ele>58</ele>
        <time>2021-04-28T09:37:15Z</time>
      </trkpt>
      <trkpt lat="51.565440000" lon="7.248200000">
        <ele>58</ele>
        <time>2021-04-28T09:37:16Z</time>
      </trkpt>
      <trkpt lat="51.565450000" lon="7.248430000">
        <ele>58</ele>
        <time>2021-04-28T09:37:18Z</time>
      </trkpt>
      <trkpt lat="51.565460000" lon="7.248530000">
        <ele>58</ele>
        <time>2021-04-28T09:37:20Z</time>
      </trkpt>
      <trkpt lat="51.565460000" lon="7.248610000">
        <ele>58</ele>
        <time>2021-04-28T09:37:21Z</time>
      </trkpt>
      <trkpt lat="51.565470000" lon="7.248780000">
        <ele>58</ele>
        <time>2021-04-28T09:37:23Z</time>
      </trkpt>
      <trkpt lat="51.565480000" lon="7.248930000">
        <ele>58</ele>
        <time>2021-04-28T09:37:24Z</time>
      </trkpt>
      <trkpt lat="51.565480000" lon="7.249010000">
        <ele>58</ele>
        <time>2021-04-28T09:37:26Z</time>
      </trkpt>
      <trkpt lat="51.565490000" lon="7.249170000">
        <ele>58</ele>
        <time>2021-04-28T09:37:28Z</time>
      </trkpt>
      <trkpt lat="51.565490000" lon="7.249260000">
        <ele>58</ele>
        <time>2021-04-28T09:37:29Z</time>
      </trkpt>
      <trkpt lat="51.565500000" lon="7.249450000">
        <ele>54</ele>
        <time>2021-04-28T09:37:31Z</time>
      </trkpt>
      <trkpt lat="51.565510000" lon="7.249620000">
        <ele>54</ele>
        <time>2021-04-28T09:37:32Z</time>
      </trkpt>
      <trkpt lat="51.565520000" lon="7.249700000">
        <ele>54</ele>
        <time>2021-04-28T09:37:34Z</time>
      </trkpt>
      <trkpt lat="51.565510000" lon="7.249790000">
        <ele>54</ele>
        <time>2021-04-28T09:37:35Z</time>
      </trkpt>
      <trkpt lat="51.565530000" lon="7.249940000">
        <ele>54</ele>
        <time>2021-04-28T09:37:36Z</time>
      </trkpt>
      <trkpt lat="51.565540000" lon="7.250040000">
        <ele>54</ele>
        <time>2021-04-28T09:37:37Z</time>
      </trkpt>
      <trkpt lat="51.565570000" lon="7.250140000">
        <ele>54</ele>
        <time>2021-04-28T09:37:38Z</time>
      </trkpt>
      <trkpt lat="51.565590000" lon="7.250210000">
        <ele>54</ele>
        <time>2021-04-28T09:37:39Z</time>
      </trkpt>
      <trkpt lat="51.565620000" lon="7.250370000">
        <ele>54</ele>
        <time>2021-04-28T09:37:42Z</time>
      </trkpt>
      <trkpt lat="51.565640000" lon="7.250450000">
        <ele>54</ele>
        <time>2021-04-28T09:37:43Z</time>
      </trkpt>
      <trkpt lat="51.565670000" lon="7.250610000">
        <ele>54</ele>
        <time>2021-04-28T09:37:45Z</time>
      </trkpt>
      <trkpt lat="51.565680000" lon="7.250770000">
        <ele>54</ele>
        <time>2021-04-28T09:37:47Z</time>
      </trkpt>
      <trkpt lat="51.565680000" lon="7.250950000">
        <ele>54</ele>
        <time>2021-04-28T09:37:48Z</time>
      </trkpt>
      <trkpt lat="51.565690000" lon="7.251100000">
        <ele>51</ele>
        <time>2021-04-28T09:37:50Z</time>
      </trkpt>
      <trkpt lat="51.565700000" lon="7.251220000">
        <ele>51</ele>
        <time>2021-04-28T09:37:52Z</time>
      </trkpt>
      <trkpt lat="51.565700000" lon="7.251300000">
        <ele>51</ele>
        <time>2021-04-28T09:37:53Z</time>
      </trkpt>
      <trkpt lat="51.565710000" lon="7.251390000">
        <ele>51</ele>
        <time>2021-04-28T09:37:54Z</time>
      </trkpt>
      <trkpt lat="51.565720000" lon="7.251570000">
        <ele>51</ele>
        <time>2021-04-28T09:37:56Z</time>
      </trkpt>
      <trkpt lat="51.565730000" lon="7.251720000">
        <ele>51</ele>
        <time>2021-04-28T09:37:57Z</time>
      </trkpt>
      <trkpt lat="51.565740000" lon="7.251810000">
        <ele>51</ele>
        <time>2021-04-28T09:37:58Z</time>
      </trkpt>
      <trkpt lat="51.565750000" lon="7.251920000">
        <ele>51</ele>
        <time>2021-04-28T09:38:00Z</time>
      </trkpt>
      <trkpt lat="51.565780000" lon="7.252050000">
        <ele>51</ele>
        <time>2021-04-28T09:38:01Z</time>
      </trkpt>
      <trkpt lat="51.565810000" lon="7.252160000">
        <ele>51</ele>
        <time>2021-04-28T09:38:02Z</time>
      </trkpt>
      <trkpt lat="51.565830000" lon="7.252240000">
        <ele>51</ele>
        <time>2021-04-28T09:38:04Z</time>
      </trkpt>
      <trkpt lat="51.565880000" lon="7.252380000">
        <ele>51</ele>
        <time>2021-04-28T09:38:06Z</time>
      </trkpt>
      <trkpt lat="51.565930000" lon="7.252510000">
        <ele>51</ele>
        <time>2021-04-28T09:38:08Z</time>
      </trkpt>
      <trkpt lat="51.565950000" lon="7.252580000">
        <ele>51</ele>
        <time>2021-04-28T09:38:09Z</time>
      </trkpt>
      <trkpt lat="51.565990000" lon="7.252690000">
        <ele>51</ele>
        <time>2021-04-28T09:38:10Z</time>
      </trkpt>
      <trkpt lat="51.566020000" lon="7.252780000">
        <ele>51</ele>
        <time>2021-04-28T09:38:11Z</time>
      </trkpt>
      <trkpt lat="51.566030000" lon="7.252870000">
        <ele>59</ele>
        <time>2021-04-28T09:38:13Z</time>
      </trkpt>
      <trkpt lat="51.566030000" lon="7.253050000">
        <ele>59</ele>
        <time>2021-04-28T09:38:15Z</time>
      </trkpt>
      <trkpt lat="51.566040000" lon="7.253140000">
        <ele>59</ele>
        <time>2021-04-28T09:38:16Z</time>
      </trkpt>
      <trkpt lat="51.566050000" lon="7.253220000">
        <ele>59</ele>
        <time>2021-04-28T09:38:17Z</time>
      </trkpt>
      <trkpt lat="51.566080000" lon="7.253370000">
        <ele>59</ele>
        <time>2021-04-28T09:38:18Z</time>
      </trkpt>
      <trkpt lat="51.566100000" lon="7.253460000">
        <ele>59</ele>
        <time>2021-04-28T09:38:19Z</time>
      </trkpt>
      <trkpt lat="51.566130000" lon="7.253560000">
        <ele>59</ele>
        <time>2021-04-28T09:38:20Z</time>
      </trkpt>
      <trkpt lat="51.566180000" lon="7.253590000">
        <ele>59</ele>
        <time>2021-04-28T09:38:22Z</time>
      </trkpt>
      <trkpt lat="51.566250000" lon="7.253690000">
        <ele>59</ele>
        <time>2021-04-28T09:38:24Z</time>
      </trkpt>
      <trkpt lat="51.566310000" lon="7.253820000">
        <ele>59</ele>
        <time>2021-04-28T09:38:26Z</time>
      </trkpt>
      <trkpt lat="51.566370000" lon="7.253970000">
        <ele>59</ele>
        <time>2021-04-28T09:38:28Z</time>
      </trkpt>
      <trkpt lat="51.566420000" lon="7.254110000">
        <ele>58</ele>
        <time>2021-04-28T09:38:29Z</time>
      </trkpt>
      <trkpt lat="51.566460000" lon="7.254180000">
        <ele>58</ele>
        <time>2021-04-28T09:38:30Z</time>
      </trkpt>
      <trkpt lat="51.566480000" lon="7.254250000">
        <ele>58</ele>
        <time>2021-04-28T09:38:32Z</time>
      </trkpt>
      <trkpt lat="51.566500000" lon="7.254320000">
        <ele>58</ele>
        <time>2021-04-28T09:38:33Z</time>
      </trkpt>
      <trkpt lat="51.566570000" lon="7.254450000">
        <ele>58</ele>
        <time>2021-04-28T09:38:35Z</time>
      </trkpt>
      <trkpt lat="51.566590000" lon="7.254510000">
        <ele>58</ele>
        <time>2021-04-28T09:38:36Z</time>
      </trkpt>
      <trkpt lat="51.566650000" lon="7.254640000">
        <ele>58</ele>
        <time>2021-04-28T09:38:37Z</time>
      </trkpt>
      <trkpt lat="51.566690000" lon="7.254780000">
        <ele>58</ele>
        <time>2021-04-28T09:38:39Z</time>
      </trkpt>
      <trkpt lat="51.566720000" lon="7.254880000">
        <ele>58</ele>
        <time>2021-04-28T09:38:41Z</time>
      </trkpt>
      <trkpt lat="51.566740000" lon="7.254940000">
        <ele>58</ele>
        <time>2021-04-28T09:38:42Z</time>
      </trkpt>
      <trkpt lat="51.566790000" lon="7.255100000">
        <ele>58</ele>
        <time>2021-04-28T09:38:43Z</time>
      </trkpt>
      <trkpt lat="51.566830000" lon="7.255280000">
        <ele>58</ele>
        <time>2021-04-28T09:38:46Z</time>
      </trkpt>
      <trkpt lat="51.566890000" lon="7.255480000">
        <ele>58</ele>
        <time>2021-04-28T09:38:49Z</time>
      </trkpt>
      <trkpt lat="51.566940000" lon="7.255620000">
        <ele>52</ele>
        <time>2021-04-28T09:38:50Z</time>
      </trkpt>
      <trkpt lat="51.566990000" lon="7.255740000">
        <ele>52</ele>
        <time>2021-04-28T09:38:53Z</time>
      </trkpt>
      <trkpt lat="51.567040000" lon="7.255870000">
        <ele>52</ele>
        <time>2021-04-28T09:38:54Z</time>
      </trkpt>
      <trkpt lat="51.567070000" lon="7.255940000">
        <ele>52</ele>
        <time>2021-04-28T09:38:55Z</time>
      </trkpt>
      <trkpt lat="51.567100000" lon="7.256000000">
        <ele>52</ele>
        <time>2021-04-28T09:38:56Z</time>
      </trkpt>
      <trkpt lat="51.567120000" lon="7.256080000">
        <ele>52</ele>
        <time>2021-04-28T09:38:58Z</time>
      </trkpt>
      <trkpt lat="51.567170000" lon="7.256190000">
        <ele>52</ele>
        <time>2021-04-28T09:38:59Z</time>
      </trkpt>
      <trkpt lat="51.567200000" lon="7.256260000">
        <ele>52</ele>
        <time>2021-04-28T09:39:00Z</time>
      </trkpt>
      <trkpt lat="51.567220000" lon="7.256340000">
        <ele>52</ele>
        <time>2021-04-28T09:39:01Z</time>
      </trkpt>
      <trkpt lat="51.567260000" lon="7.256470000">
        <ele>52</ele>
        <time>2021-04-28T09:39:04Z</time>
      </trkpt>
      <trkpt lat="51.567310000" lon="7.256590000">
        <ele>52</ele>
        <time>2021-04-28T09:39:06Z</time>
      </trkpt>
      <trkpt lat="51.567360000" lon="7.256720000">
        <ele>52</ele>
        <time>2021-04-28T09:39:08Z</time>
      </trkpt>
      <trkpt lat="51.567380000" lon="7.256790000">
        <ele>50</ele>
        <time>2021-04-28T09:39:09Z</time>
      </trkpt>
      <trkpt lat="51.567440000" lon="7.256920000">
        <ele>50</ele>
        <time>2021-04-28T09:39:11Z</time>
      </trkpt>
      <trkpt lat="51.567490000" lon="7.257060000">
        <ele>50</ele>
        <time>2021-04-28T09:39:13Z</time>
      </trkpt>
      <trkpt lat="51.567510000" lon="7.257130000">
        <ele>50</ele>
        <time>2021-04-28T09:39:14Z</time>
      </trkpt>
      <trkpt lat="51.567530000" lon="7.257200000">
        <ele>50</ele>
        <time>2021-04-28T09:39:15Z</time>
      </trkpt>
      <trkpt lat="51.567590000" lon="7.257320000">
        <ele>50</ele>
        <time>2021-04-28T09:39:17Z</time>
      </trkpt>
      <trkpt lat="51.567640000" lon="7.257450000">
        <ele>50</ele>
        <time>2021-04-28T09:39:18Z</time>
      </trkpt>
      <trkpt lat="51.567670000" lon="7.257510000">
        <ele>50</ele>
        <time>2021-04-28T09:39:19Z</time>
      </trkpt>
      <trkpt lat="51.567720000" lon="7.257600000">
        <ele>50</ele>
        <time>2021-04-28T09:39:21Z</time>
      </trkpt>
      <trkpt lat="51.567770000" lon="7.257710000">
        <ele>50</ele>
        <time>2021-04-28T09:39:24Z</time>
      </trkpt>
      <trkpt lat="51.567850000" lon="7.257880000">
        <ele>50</ele>
        <time>2021-04-28T09:39:27Z</time>
      </trkpt>
      <trkpt lat="51.567880000" lon="7.258010000">
        <ele>50</ele>
        <time>2021-04-28T09:39:29Z</time>
      </trkpt>
      <trkpt lat="51.567940000" lon="7.258080000">
        <ele>50</ele>
        <time>2021-04-28T09:39:31Z</time>
      </trkpt>
      <trkpt lat="51.568000000" lon="7.258180000">
        <ele>50</ele>
        <time>2021-04-28T09:39:33Z</time>
      </trkpt>
      <trkpt lat="51.568040000" lon="7.258250000">
        <ele>50</ele>
        <time>2021-04-28T09:39:34Z</time>
      </trkpt>
      <trkpt lat="51.568060000" lon="7.258320000">
        <ele>50</ele>
        <time>2021-04-28T09:39:36Z</time>
      </trkpt>
      <trkpt lat="51.568100000" lon="7.258460000">
        <ele>51</ele>
        <time>2021-04-28T09:39:39Z</time>
      </trkpt>
      <trkpt lat="51.568130000" lon="7.258530000">
        <ele>51</ele>
        <time>2021-04-28T09:39:40Z</time>
      </trkpt>
      <trkpt lat="51.568160000" lon="7.258610000">
        <ele>51</ele>
        <time>2021-04-28T09:39:45Z</time>
      </trkpt>
      <trkpt lat="51.568210000" lon="7.258600000">
        <ele>51</ele>
        <time>2021-04-28T09:41:16Z</time>
      </trkpt>
      <trkpt lat="51.568220000" lon="7.258680000">
        <ele>51</ele>
        <time>2021-04-28T09:42:40Z</time>
      </trkpt>
      <trkpt lat="51.568270000" lon="7.258740000">
        <ele>51</ele>
        <time>2021-04-28T09:42:43Z</time>
      </trkpt>
      <trkpt lat="51.568310000" lon="7.258860000">
        <ele>51</ele>
        <time>2021-04-28T09:42:46Z</time>
      </trkpt>
      <trkpt lat="51.568300000" lon="7.259010000">
        <ele>51</ele>
        <time>2021-04-28T09:42:48Z</time>
      </trkpt>
      <trkpt lat="51.568320000" lon="7.259130000">
        <ele>51</ele>
        <time>2021-04-28T09:42:50Z</time>
      </trkpt>
      <trkpt lat="51.568370000" lon="7.259310000">
        <ele>51</ele>
        <time>2021-04-28T09:42:54Z</time>
      </trkpt>
      <trkpt lat="51.568410000" lon="7.259390000">
        <ele>51</ele>
        <time>2021-04-28T09:42:56Z</time>
      </trkpt>
      <trkpt lat="51.568420000" lon="7.259490000">
        <ele>51</ele>
        <time>2021-04-28T09:42:58Z</time>
      </trkpt>
      <trkpt lat="51.568430000" lon="7.259580000">
        <ele>51</ele>
        <time>2021-04-28T09:43:00Z</time>
      </trkpt>
      <trkpt lat="51.568440000" lon="7.259680000">
        <ele>51</ele>
        <time>2021-04-28T09:43:02Z</time>
      </trkpt>
      <trkpt lat="51.568480000" lon="7.259800000">
        <ele>54</ele>
        <time>2021-04-28T09:43:04Z</time>
      </trkpt>
      <trkpt lat="51.568520000" lon="7.259940000">
        <ele>54</ele>
        <time>2021-04-28T09:43:06Z</time>
      </trkpt>
      <trkpt lat="51.568580000" lon="7.260030000">
        <ele>54</ele>
        <time>2021-04-28T09:43:07Z</time>
      </trkpt>
      <trkpt lat="51.568620000" lon="7.260080000">
        <ele>54</ele>
        <time>2021-04-28T09:43:08Z</time>
      </trkpt>
      <trkpt lat="51.568720000" lon="7.260170000">
        <ele>54</ele>
        <time>2021-04-28T09:43:11Z</time>
      </trkpt>
      <trkpt lat="51.568780000" lon="7.260250000">
        <ele>54</ele>
        <time>2021-04-28T09:43:13Z</time>
      </trkpt>
      <trkpt lat="51.568880000" lon="7.260340000">
        <ele>54</ele>
        <time>2021-04-28T09:43:15Z</time>
      </trkpt>
      <trkpt lat="51.568920000" lon="7.260380000">
        <ele>54</ele>
        <time>2021-04-28T09:43:16Z</time>
      </trkpt>
      <trkpt lat="51.569050000" lon="7.260420000">
        <ele>54</ele>
        <time>2021-04-28T09:43:20Z</time>
      </trkpt>
      <trkpt lat="51.569130000" lon="7.260430000">
        <ele>54</ele>
        <time>2021-04-28T09:43:22Z</time>
      </trkpt>
      <trkpt lat="51.569260000" lon="7.260460000">
        <ele>54</ele>
        <time>2021-04-28T09:43:25Z</time>
      </trkpt>
      <trkpt lat="51.569390000" lon="7.260500000">
        <ele>54</ele>
        <time>2021-04-28T09:43:27Z</time>
      </trkpt>
      <trkpt lat="51.569470000" lon="7.260520000">
        <ele>54</ele>
        <time>2021-04-28T09:43:29Z</time>
      </trkpt>
      <trkpt lat="51.569570000" lon="7.260550000">
        <ele>56</ele>
        <time>2021-04-28T09:43:31Z</time>
      </trkpt>
      <trkpt lat="51.569620000" lon="7.260560000">
        <ele>56</ele>
        <time>2021-04-28T09:43:32Z</time>
      </trkpt>
      <trkpt lat="51.569670000" lon="7.260570000">
        <ele>56</ele>
        <time>2021-04-28T09:43:33Z</time>
      </trkpt>
      <trkpt lat="51.569770000" lon="7.260580000">
        <ele>56</ele>
        <time>2021-04-28T09:43:35Z</time>
      </trkpt>
      <trkpt lat="51.569830000" lon="7.260590000">
        <ele>56</ele>
        <time>2021-04-28T09:43:37Z</time>
      </trkpt>
      <trkpt lat="51.569920000" lon="7.260630000">
        <ele>56</ele>
        <time>2021-04-28T09:43:39Z</time>
      </trkpt>
      <trkpt lat="51.570010000" lon="7.260680000">
        <ele>56</ele>
        <time>2021-04-28T09:43:40Z</time>
      </trkpt>
      <trkpt lat="51.570060000" lon="7.260690000">
        <ele>56</ele>
        <time>2021-04-28T09:43:41Z</time>
      </trkpt>
      <trkpt lat="51.570120000" lon="7.260700000">
        <ele>56</ele>
        <time>2021-04-28T09:43:43Z</time>
      </trkpt>
      <trkpt lat="51.570170000" lon="7.260700000">
        <ele>56</ele>
        <time>2021-04-28T09:43:44Z</time>
      </trkpt>
      <trkpt lat="51.570290000" lon="7.260710000">
        <ele>56</ele>
        <time>2021-04-28T09:43:46Z</time>
      </trkpt>
      <trkpt lat="51.570390000" lon="7.260730000">
        <ele>56</ele>
        <time>2021-04-28T09:43:47Z</time>
      </trkpt>
      <trkpt lat="51.570450000" lon="7.260740000">
        <ele>56</ele>
        <time>2021-04-28T09:43:48Z</time>
      </trkpt>
      <trkpt lat="51.570540000" lon="7.260760000">
        <ele>56</ele>
        <time>2021-04-28T09:43:50Z</time>
      </trkpt>
      <trkpt lat="51.570600000" lon="7.260770000">
        <ele>56</ele>
        <time>2021-04-28T09:43:51Z</time>
      </trkpt>
      <trkpt lat="51.570670000" lon="7.260780000">
        <ele>57</ele>
        <time>2021-04-28T09:43:53Z</time>
      </trkpt>
      <trkpt lat="51.570720000" lon="7.260800000">
        <ele>57</ele>
        <time>2021-04-28T09:43:54Z</time>
      </trkpt>
      <trkpt lat="51.570840000" lon="7.260830000">
        <ele>57</ele>
        <time>2021-04-28T09:43:56Z</time>
      </trkpt>
      <trkpt lat="51.570950000" lon="7.260870000">
        <ele>57</ele>
        <time>2021-04-28T09:43:57Z</time>
      </trkpt>
      <trkpt lat="51.571050000" lon="7.260890000">
        <ele>57</ele>
        <time>2021-04-28T09:44:00Z</time>
      </trkpt>
      <trkpt lat="51.571110000" lon="7.260900000">
        <ele>57</ele>
        <time>2021-04-28T09:44:01Z</time>
      </trkpt>
      <trkpt lat="51.571220000" lon="7.260920000">
        <ele>57</ele>
        <time>2021-04-28T09:44:02Z</time>
      </trkpt>
      <trkpt lat="51.571340000" lon="7.260950000">
        <ele>57</ele>
        <time>2021-04-28T09:44:05Z</time>
      </trkpt>
      <trkpt lat="51.571450000" lon="7.260970000">
        <ele>57</ele>
        <time>2021-04-28T09:44:07Z</time>
      </trkpt>
      <trkpt lat="51.571560000" lon="7.260980000">
        <ele>57</ele>
        <time>2021-04-28T09:44:09Z</time>
      </trkpt>
      <trkpt lat="51.571660000" lon="7.261010000">
        <ele>57</ele>
        <time>2021-04-28T09:44:10Z</time>
      </trkpt>
      <trkpt lat="51.571780000" lon="7.261040000">
        <ele>57</ele>
        <time>2021-04-28T09:44:12Z</time>
      </trkpt>
      <trkpt lat="51.571850000" lon="7.261040000">
        <ele>57</ele>
        <time>2021-04-28T09:44:14Z</time>
      </trkpt>
      <trkpt lat="51.571940000" lon="7.261060000">
        <ele>57</ele>
        <time>2021-04-28T09:44:15Z</time>
      </trkpt>
      <trkpt lat="51.572070000" lon="7.261080000">
        <ele>57</ele>
        <time>2021-04-28T09:44:18Z</time>
      </trkpt>
      <trkpt lat="51.572120000" lon="7.261090000">
        <ele>57</ele>
        <time>2021-04-28T09:44:19Z</time>
      </trkpt>
      <trkpt lat="51.572220000" lon="7.261120000">
        <ele>57</ele>
        <time>2021-04-28T09:44:20Z</time>
      </trkpt>
      <trkpt lat="51.572280000" lon="7.261130000">
        <ele>57</ele>
        <time>2021-04-28T09:44:22Z</time>
      </trkpt>
      <trkpt lat="51.572330000" lon="7.261140000">
        <ele>57</ele>
        <time>2021-04-28T09:44:23Z</time>
      </trkpt>
      <trkpt lat="51.572440000" lon="7.261150000">
        <ele>57</ele>
        <time>2021-04-28T09:44:24Z</time>
      </trkpt>
      <trkpt lat="51.572490000" lon="7.261140000">
        <ele>57</ele>
        <time>2021-04-28T09:44:25Z</time>
      </trkpt>
      <trkpt lat="51.572550000" lon="7.261130000">
        <ele>57</ele>
        <time>2021-04-28T09:44:27Z</time>
      </trkpt>
      <trkpt lat="51.572670000" lon="7.261090000">
        <ele>57</ele>
        <time>2021-04-28T09:44:29Z</time>
      </trkpt>
      <trkpt lat="51.572720000" lon="7.261080000">
        <ele>57</ele>
        <time>2021-04-28T09:44:30Z</time>
      </trkpt>
      <trkpt lat="51.572780000" lon="7.261080000">
        <ele>57</ele>
        <time>2021-04-28T09:44:31Z</time>
      </trkpt>
      <trkpt lat="51.572880000" lon="7.261080000">
        <ele>57</ele>
        <time>2021-04-28T09:44:32Z</time>
      </trkpt>
      <trkpt lat="51.572980000" lon="7.261070000">
        <ele>57</ele>
        <time>2021-04-28T09:44:34Z</time>
      </trkpt>
      <trkpt lat="51.573060000" lon="7.261060000">
        <ele>57</ele>
        <time>2021-04-28T09:44:35Z</time>
      </trkpt>
      <trkpt lat="51.573110000" lon="7.261040000">
        <ele>57</ele>
        <time>2021-04-28T09:44:36Z</time>
      </trkpt>
      <trkpt lat="51.573170000" lon="7.261030000">
        <ele>57</ele>
        <time>2021-04-28T09:44:37Z</time>
      </trkpt>
      <trkpt lat="51.573230000" lon="7.261020000">
        <ele>59</ele>
        <time>2021-04-28T09:44:39Z</time>
      </trkpt>
      <trkpt lat="51.573340000" lon="7.260980000">
        <ele>59</ele>
        <time>2021-04-28T09:44:41Z</time>
      </trkpt>
      <trkpt lat="51.573470000" lon="7.260940000">
        <ele>59</ele>
        <time>2021-04-28T09:44:43Z</time>
      </trkpt>
      <trkpt lat="51.573570000" lon="7.260890000">
        <ele>59</ele>
        <time>2021-04-28T09:44:45Z</time>
      </trkpt>
      <trkpt lat="51.573680000" lon="7.260820000">
        <ele>59</ele>
        <time>2021-04-28T09:44:46Z</time>
      </trkpt>
      <trkpt lat="51.573800000" lon="7.260770000">
        <ele>59</ele>
        <time>2021-04-28T09:44:48Z</time>
      </trkpt>
      <trkpt lat="51.573940000" lon="7.260660000">
        <ele>59</ele>
        <time>2021-04-28T09:44:52Z</time>
      </trkpt>
      <trkpt lat="51.574040000" lon="7.260570000">
        <ele>59</ele>
        <time>2021-04-28T09:44:53Z</time>
      </trkpt>
      <trkpt lat="51.574150000" lon="7.260450000">
        <ele>59</ele>
        <time>2021-04-28T09:44:55Z</time>
      </trkpt>
      <trkpt lat="51.574220000" lon="7.260390000">
        <ele>61</ele>
        <time>2021-04-28T09:44:57Z</time>
      </trkpt>
      <trkpt lat="51.574310000" lon="7.260270000">
        <ele>61</ele>
        <time>2021-04-28T09:44:59Z</time>
      </trkpt>
      <trkpt lat="51.574390000" lon="7.260150000">
        <ele>61</ele>
        <time>2021-04-28T09:45:01Z</time>
      </trkpt>
      <trkpt lat="51.574490000" lon="7.260010000">
        <ele>61</ele>
        <time>2021-04-28T09:45:03Z</time>
      </trkpt>
      <trkpt lat="51.574520000" lon="7.259930000">
        <ele>61</ele>
        <time>2021-04-28T09:45:04Z</time>
      </trkpt>
      <trkpt lat="51.574590000" lon="7.259790000">
        <ele>61</ele>
        <time>2021-04-28T09:45:06Z</time>
      </trkpt>
      <trkpt lat="51.574630000" lon="7.259730000">
        <ele>61</ele>
        <time>2021-04-28T09:45:07Z</time>
      </trkpt>
      <trkpt lat="51.574700000" lon="7.259590000">
        <ele>61</ele>
        <time>2021-04-28T09:45:09Z</time>
      </trkpt>
      <trkpt lat="51.574760000" lon="7.259470000">
        <ele>61</ele>
        <time>2021-04-28T09:45:10Z</time>
      </trkpt>
      <trkpt lat="51.574810000" lon="7.259380000">
        <ele>61</ele>
        <time>2021-04-28T09:45:12Z</time>
      </trkpt>
      <trkpt lat="51.574880000" lon="7.259390000">
        <ele>61</ele>
        <time>2021-04-28T09:45:13Z</time>
      </trkpt>
      <trkpt lat="51.574940000" lon="7.259430000">
        <ele>61</ele>
        <time>2021-04-28T09:45:15Z</time>
      </trkpt>
      <trkpt lat="51.574990000" lon="7.259400000">
        <ele>61</ele>
        <time>2021-04-28T09:45:17Z</time>
      </trkpt>
      <trkpt lat="51.575080000" lon="7.259220000">
        <ele>61</ele>
        <time>2021-04-28T09:45:20Z</time>
      </trkpt>
      <trkpt lat="51.575110000" lon="7.259150000">
        <ele>61</ele>
        <time>2021-04-28T09:45:21Z</time>
      </trkpt>
      <trkpt lat="51.575150000" lon="7.259080000">
        <ele>57</ele>
        <time>2021-04-28T09:45:22Z</time>
      </trkpt>
      <trkpt lat="51.575200000" lon="7.259000000">
        <ele>57</ele>
        <time>2021-04-28T09:45:23Z</time>
      </trkpt>
      <trkpt lat="51.575280000" lon="7.258850000">
        <ele>57</ele>
        <time>2021-04-28T09:45:25Z</time>
      </trkpt>
      <trkpt lat="51.575320000" lon="7.258780000">
        <ele>57</ele>
        <time>2021-04-28T09:45:26Z</time>
      </trkpt>
      <trkpt lat="51.575410000" lon="7.258640000">
        <ele>57</ele>
        <time>2021-04-28T09:45:28Z</time>
      </trkpt>
      <trkpt lat="51.575450000" lon="7.258560000">
        <ele>57</ele>
        <time>2021-04-28T09:45:29Z</time>
      </trkpt>
      <trkpt lat="51.575490000" lon="7.258500000">
        <ele>57</ele>
        <time>2021-04-28T09:45:30Z</time>
      </trkpt>
      <trkpt lat="51.575530000" lon="7.258430000">
        <ele>57</ele>
        <time>2021-04-28T09:45:31Z</time>
      </trkpt>
      <trkpt lat="51.575610000" lon="7.258300000">
        <ele>57</ele>
        <time>2021-04-28T09:45:32Z</time>
      </trkpt>
      <trkpt lat="51.575660000" lon="7.258200000">
        <ele>57</ele>
        <time>2021-04-28T09:45:34Z</time>
      </trkpt>
      <trkpt lat="51.575710000" lon="7.258080000">
        <ele>57</ele>
        <time>2021-04-28T09:45:35Z</time>
      </trkpt>
      <trkpt lat="51.575800000" lon="7.257900000">
        <ele>57</ele>
        <time>2021-04-28T09:45:37Z</time>
      </trkpt>
      <trkpt lat="51.575880000" lon="7.257760000">
        <ele>57</ele>
        <time>2021-04-28T09:45:40Z</time>
      </trkpt>
      <trkpt lat="51.575920000" lon="7.257690000">
        <ele>57</ele>
        <time>2021-04-28T09:45:41Z</time>
      </trkpt>
      <trkpt lat="51.576000000" lon="7.257550000">
        <ele>55</ele>
        <time>2021-04-28T09:45:43Z</time>
      </trkpt>
      <trkpt lat="51.576030000" lon="7.257480000">
        <ele>55</ele>
        <time>2021-04-28T09:45:44Z</time>
      </trkpt>
      <trkpt lat="51.576070000" lon="7.257410000">
        <ele>55</ele>
        <time>2021-04-28T09:45:45Z</time>
      </trkpt>
      <trkpt lat="51.576140000" lon="7.257260000">
        <ele>55</ele>
        <time>2021-04-28T09:45:47Z</time>
      </trkpt>
      <trkpt lat="51.576230000" lon="7.257120000">
        <ele>55</ele>
        <time>2021-04-28T09:45:48Z</time>
      </trkpt>
      <trkpt lat="51.576310000" lon="7.256970000">
        <ele>55</ele>
        <time>2021-04-28T09:45:51Z</time>
      </trkpt>
      <trkpt lat="51.576350000" lon="7.256900000">
        <ele>55</ele>
        <time>2021-04-28T09:45:52Z</time>
      </trkpt>
      <trkpt lat="51.576420000" lon="7.256760000">
        <ele>55</ele>
        <time>2021-04-28T09:45:53Z</time>
      </trkpt>
      <trkpt lat="51.576500000" lon="7.256630000">
        <ele>55</ele>
        <time>2021-04-28T09:45:55Z</time>
      </trkpt>
      <trkpt lat="51.576580000" lon="7.256480000">
        <ele>55</ele>
        <time>2021-04-28T09:45:57Z</time>
      </trkpt>
      <trkpt lat="51.576640000" lon="7.256390000">
        <ele>55</ele>
        <time>2021-04-28T09:45:59Z</time>
      </trkpt>
      <trkpt lat="51.576720000" lon="7.256260000">
        <ele>55</ele>
        <time>2021-04-28T09:46:00Z</time>
      </trkpt>
      <trkpt lat="51.576760000" lon="7.256190000">
        <ele>55</ele>
        <time>2021-04-28T09:46:01Z</time>
      </trkpt>
      <trkpt lat="51.576800000" lon="7.256110000">
        <ele>55</ele>
        <time>2021-04-28T09:46:03Z</time>
      </trkpt>
      <trkpt lat="51.576890000" lon="7.255960000">
        <ele>55</ele>
        <time>2021-04-28T09:46:04Z</time>
      </trkpt>
      <trkpt lat="51.576930000" lon="7.255880000">
        <ele>55</ele>
        <time>2021-04-28T09:46:06Z</time>
      </trkpt>
      <trkpt lat="51.576970000" lon="7.255810000">
        <ele>55</ele>
        <time>2021-04-28T09:46:07Z</time>
      </trkpt>
      <trkpt lat="51.577050000" lon="7.255660000">
        <ele>55</ele>
        <time>2021-04-28T09:46:09Z</time>
      </trkpt>
      <trkpt lat="51.577140000" lon="7.255520000">
        <ele>55</ele>
        <time>2021-04-28T09:46:11Z</time>
      </trkpt>
      <trkpt lat="51.577210000" lon="7.255400000">
        <ele>55</ele>
        <time>2021-04-28T09:46:12Z</time>
      </trkpt>
      <trkpt lat="51.577260000" lon="7.255300000">
        <ele>55</ele>
        <time>2021-04-28T09:46:14Z</time>
      </trkpt>
      <trkpt lat="51.577340000" lon="7.255170000">
        <ele>55</ele>
        <time>2021-04-28T09:46:15Z</time>
      </trkpt>
      <trkpt lat="51.577420000" lon="7.255010000">
        <ele>55</ele>
        <time>2021-04-28T09:46:17Z</time>
      </trkpt>
      <trkpt lat="51.577470000" lon="7.254920000">
        <ele>55</ele>
        <time>2021-04-28T09:46:18Z</time>
      </trkpt>
      <trkpt lat="51.577510000" lon="7.254860000">
        <ele>55</ele>
        <time>2021-04-28T09:46:20Z</time>
      </trkpt>
      <trkpt lat="51.577600000" lon="7.254710000">
        <ele>56</ele>
        <time>2021-04-28T09:46:22Z</time>
      </trkpt>
      <trkpt lat="51.577660000" lon="7.254580000">
        <ele>56</ele>
        <time>2021-04-28T09:46:23Z</time>
      </trkpt>
      <trkpt lat="51.577710000" lon="7.254480000">
        <ele>56</ele>
        <time>2021-04-28T09:46:24Z</time>
      </trkpt>
      <trkpt lat="51.577750000" lon="7.254410000">
        <ele>56</ele>
        <time>2021-04-28T09:46:25Z</time>
      </trkpt>
      <trkpt lat="51.577780000" lon="7.254340000">
        <ele>56</ele>
        <time>2021-04-28T09:46:27Z</time>
      </trkpt>
      <trkpt lat="51.577860000" lon="7.254180000">
        <ele>56</ele>
        <time>2021-04-28T09:46:29Z</time>
      </trkpt>
      <trkpt lat="51.577930000" lon="7.254040000">
        <ele>56</ele>
        <time>2021-04-28T09:46:31Z</time>
      </trkpt>
      <trkpt lat="51.577960000" lon="7.253970000">
        <ele>56</ele>
        <time>2021-04-28T09:46:32Z</time>
      </trkpt>
      <trkpt lat="51.577990000" lon="7.253900000">
        <ele>56</ele>
        <time>2021-04-28T09:46:33Z</time>
      </trkpt>
      <trkpt lat="51.578060000" lon="7.253740000">
        <ele>56</ele>
        <time>2021-04-28T09:46:35Z</time>
      </trkpt>
      <trkpt lat="51.578090000" lon="7.253660000">
        <ele>56</ele>
        <time>2021-04-28T09:46:36Z</time>
      </trkpt>
      <trkpt lat="51.578150000" lon="7.253530000">
        <ele>56</ele>
        <time>2021-04-28T09:46:37Z</time>
      </trkpt>
      <trkpt lat="51.578180000" lon="7.253440000">
        <ele>56</ele>
        <time>2021-04-28T09:46:38Z</time>
      </trkpt>
      <trkpt lat="51.578220000" lon="7.253340000">
        <ele>56</ele>
        <time>2021-04-28T09:46:40Z</time>
      </trkpt>
      <trkpt lat="51.578290000" lon="7.253190000">
        <ele>57</ele>
        <time>2021-04-28T09:46:42Z</time>
      </trkpt>
      <trkpt lat="51.578330000" lon="7.253110000">
        <ele>57</ele>
        <time>2021-04-28T09:46:43Z</time>
      </trkpt>
      <trkpt lat="51.578400000" lon="7.252940000">
        <ele>57</ele>
        <time>2021-04-28T09:46:45Z</time>
      </trkpt>
      <trkpt lat="51.578430000" lon="7.252860000">
        <ele>57</ele>
        <time>2021-04-28T09:46:46Z</time>
      </trkpt>
      <trkpt lat="51.578500000" lon="7.252710000">
        <ele>57</ele>
        <time>2021-04-28T09:46:47Z</time>
      </trkpt>
      <trkpt lat="51.578530000" lon="7.252630000">
        <ele>57</ele>
        <time>2021-04-28T09:46:49Z</time>
      </trkpt>
      <trkpt lat="51.578560000" lon="7.252540000">
        <ele>57</ele>
        <time>2021-04-28T09:46:50Z</time>
      </trkpt>
      <trkpt lat="51.578590000" lon="7.252460000">
        <ele>57</ele>
        <time>2021-04-28T09:46:51Z</time>
      </trkpt>
      <trkpt lat="51.578650000" lon="7.252300000">
        <ele>57</ele>
        <time>2021-04-28T09:46:53Z</time>
      </trkpt>
      <trkpt lat="51.578680000" lon="7.252220000">
        <ele>57</ele>
        <time>2021-04-28T09:46:54Z</time>
      </trkpt>
      <trkpt lat="51.578750000" lon="7.252060000">
        <ele>57</ele>
        <time>2021-04-28T09:46:56Z</time>
      </trkpt>
      <trkpt lat="51.578810000" lon="7.251920000">
        <ele>57</ele>
        <time>2021-04-28T09:46:57Z</time>
      </trkpt>
      <trkpt lat="51.578870000" lon="7.251770000">
        <ele>57</ele>
        <time>2021-04-28T09:46:59Z</time>
      </trkpt>
      <trkpt lat="51.578910000" lon="7.251670000">
        <ele>57</ele>
        <time>2021-04-28T09:47:01Z</time>
      </trkpt>
      <trkpt lat="51.578960000" lon="7.251530000">
        <ele>57</ele>
        <time>2021-04-28T09:47:02Z</time>
      </trkpt>
      <trkpt lat="51.579000000" lon="7.251450000">
        <ele>53</ele>
        <time>2021-04-28T09:47:04Z</time>
      </trkpt>
      <trkpt lat="51.579030000" lon="7.251370000">
        <ele>53</ele>
        <time>2021-04-28T09:47:05Z</time>
      </trkpt>
      <trkpt lat="51.579090000" lon="7.251220000">
        <ele>53</ele>
        <time>2021-04-28T09:47:06Z</time>
      </trkpt>
      <trkpt lat="51.579120000" lon="7.251140000">
        <ele>53</ele>
        <time>2021-04-28T09:47:08Z</time>
      </trkpt>
      <trkpt lat="51.579180000" lon="7.251000000">
        <ele>53</ele>
        <time>2021-04-28T09:47:09Z</time>
      </trkpt>
      <trkpt lat="51.579210000" lon="7.250930000">
        <ele>53</ele>
        <time>2021-04-28T09:47:11Z</time>
      </trkpt>
      <trkpt lat="51.579270000" lon="7.250760000">
        <ele>53</ele>
        <time>2021-04-28T09:47:13Z</time>
      </trkpt>
      <trkpt lat="51.579300000" lon="7.250680000">
        <ele>53</ele>
        <time>2021-04-28T09:47:14Z</time>
      </trkpt>
      <trkpt lat="51.579340000" lon="7.250600000">
        <ele>53</ele>
        <time>2021-04-28T09:47:15Z</time>
      </trkpt>
      <trkpt lat="51.579400000" lon="7.250440000">
        <ele>53</ele>
        <time>2021-04-28T09:47:17Z</time>
      </trkpt>
      <trkpt lat="51.579450000" lon="7.250300000">
        <ele>53</ele>
        <time>2021-04-28T09:47:18Z</time>
      </trkpt>
      <trkpt lat="51.579520000" lon="7.250130000">
        <ele>53</ele>
        <time>2021-04-28T09:47:20Z</time>
      </trkpt>
      <trkpt lat="51.579560000" lon="7.250030000">
        <ele>53</ele>
        <time>2021-04-28T09:47:22Z</time>
      </trkpt>
      <trkpt lat="51.579590000" lon="7.249900000">
        <ele>53</ele>
        <time>2021-04-28T09:47:23Z</time>
      </trkpt>
      <trkpt lat="51.579660000" lon="7.249710000">
        <ele>53</ele>
        <time>2021-04-28T09:47:26Z</time>
      </trkpt>
      <trkpt lat="51.579700000" lon="7.249640000">
        <ele>53</ele>
        <time>2021-04-28T09:47:27Z</time>
      </trkpt>
      <trkpt lat="51.579770000" lon="7.249490000">
        <ele>60</ele>
        <time>2021-04-28T09:47:28Z</time>
      </trkpt>
      <trkpt lat="51.579830000" lon="7.249320000">
        <ele>60</ele>
        <time>2021-04-28T09:47:31Z</time>
      </trkpt>
      <trkpt lat="51.579890000" lon="7.249160000">
        <ele>60</ele>
        <time>2021-04-28T09:47:32Z</time>
      </trkpt>
      <trkpt lat="51.579920000" lon="7.249080000">
        <ele>60</ele>
        <time>2021-04-28T09:47:34Z</time>
      </trkpt>
      <trkpt lat="51.579990000" lon="7.248920000">
        <ele>60</ele>
        <time>2021-04-28T09:47:36Z</time>
      </trkpt>
      <trkpt lat="51.580050000" lon="7.248760000">
        <ele>60</ele>
        <time>2021-04-28T09:47:38Z</time>
      </trkpt>
      <trkpt lat="51.580120000" lon="7.248630000">
        <ele>60</ele>
        <time>2021-04-28T09:47:39Z</time>
      </trkpt>
      <trkpt lat="51.580200000" lon="7.248440000">
        <ele>60</ele>
        <time>2021-04-28T09:47:42Z</time>
      </trkpt>
      <trkpt lat="51.580230000" lon="7.248370000">
        <ele>60</ele>
        <time>2021-04-28T09:47:43Z</time>
      </trkpt>
      <trkpt lat="51.580300000" lon="7.248210000">
        <ele>60</ele>
        <time>2021-04-28T09:47:45Z</time>
      </trkpt>
      <trkpt lat="51.580360000" lon="7.248060000">
        <ele>60</ele>
        <time>2021-04-28T09:47:46Z</time>
      </trkpt>
      <trkpt lat="51.580420000" lon="7.247890000">
        <ele>59</ele>
        <time>2021-04-28T09:47:49Z</time>
      </trkpt>
      <trkpt lat="51.580480000" lon="7.247740000">
        <ele>59</ele>
        <time>2021-04-28T09:47:51Z</time>
      </trkpt>
      <trkpt lat="51.580550000" lon="7.247590000">
        <ele>59</ele>
        <time>2021-04-28T09:47:53Z</time>
      </trkpt>
      <trkpt lat="51.580610000" lon="7.247430000">
        <ele>59</ele>
        <time>2021-04-28T09:47:55Z</time>
      </trkpt>
      <trkpt lat="51.580670000" lon="7.247270000">
        <ele>59</ele>
        <time>2021-04-28T09:47:57Z</time>
      </trkpt>
      <trkpt lat="51.580720000" lon="7.247130000">
        <ele>59</ele>
        <time>2021-04-28T09:47:59Z</time>
      </trkpt>
      <trkpt lat="51.580780000" lon="7.246990000">
        <ele>59</ele>
        <time>2021-04-28T09:48:00Z</time>
      </trkpt>
      <trkpt lat="51.580830000" lon="7.246890000">
        <ele>59</ele>
        <time>2021-04-28T09:48:02Z</time>
      </trkpt>
      <trkpt lat="51.580890000" lon="7.246740000">
        <ele>59</ele>
        <time>2021-04-28T09:48:03Z</time>
      </trkpt>
      <trkpt lat="51.580930000" lon="7.246660000">
        <ele>59</ele>
        <time>2021-04-28T09:48:05Z</time>
      </trkpt>
      <trkpt lat="51.581010000" lon="7.246500000">
        <ele>59</ele>
        <time>2021-04-28T09:48:06Z</time>
      </trkpt>
      <trkpt lat="51.581040000" lon="7.246420000">
        <ele>59</ele>
        <time>2021-04-28T09:48:08Z</time>
      </trkpt>
      <trkpt lat="51.581080000" lon="7.246280000">
        <ele>59</ele>
        <time>2021-04-28T09:48:09Z</time>
      </trkpt>
      <trkpt lat="51.581120000" lon="7.246190000">
        <ele>60</ele>
        <time>2021-04-28T09:48:10Z</time>
      </trkpt>
      <trkpt lat="51.581140000" lon="7.246110000">
        <ele>60</ele>
        <time>2021-04-28T09:48:12Z</time>
      </trkpt>
      <trkpt lat="51.581210000" lon="7.245950000">
        <ele>60</ele>
        <time>2021-04-28T09:48:14Z</time>
      </trkpt>
      <trkpt lat="51.581240000" lon="7.245860000">
        <ele>60</ele>
        <time>2021-04-28T09:48:15Z</time>
      </trkpt>
      <trkpt lat="51.581310000" lon="7.245700000">
        <ele>60</ele>
        <time>2021-04-28T09:48:17Z</time>
      </trkpt>
      <trkpt lat="51.581340000" lon="7.245620000">
        <ele>60</ele>
        <time>2021-04-28T09:48:18Z</time>
      </trkpt>
      <trkpt lat="51.581410000" lon="7.245460000">
        <ele>60</ele>
        <time>2021-04-28T09:48:19Z</time>
      </trkpt>
      <trkpt lat="51.581460000" lon="7.245300000">
        <ele>60</ele>
        <time>2021-04-28T09:48:21Z</time>
      </trkpt>
      <trkpt lat="51.581500000" lon="7.245200000">
        <ele>60</ele>
        <time>2021-04-28T09:48:22Z</time>
      </trkpt>
      <trkpt lat="51.581530000" lon="7.245130000">
        <ele>60</ele>
        <time>2021-04-28T09:48:23Z</time>
      </trkpt>
      <trkpt lat="51.581560000" lon="7.245050000">
        <ele>60</ele>
        <time>2021-04-28T09:48:25Z</time>
      </trkpt>
      <trkpt lat="51.581590000" lon="7.244980000">
        <ele>60</ele>
        <time>2021-04-28T09:48:26Z</time>
      </trkpt>
      <trkpt lat="51.581650000" lon="7.244820000">
        <ele>60</ele>
        <time>2021-04-28T09:48:27Z</time>
      </trkpt>
      <trkpt lat="51.581720000" lon="7.244650000">
        <ele>60</ele>
        <time>2021-04-28T09:48:30Z</time>
      </trkpt>
      <trkpt lat="51.581770000" lon="7.244500000">
        <ele>60</ele>
        <time>2021-04-28T09:48:32Z</time>
      </trkpt>
      <trkpt lat="51.581830000" lon="7.244340000">
        <ele>64</ele>
        <time>2021-04-28T09:48:33Z</time>
      </trkpt>
      <trkpt lat="51.581870000" lon="7.244260000">
        <ele>64</ele>
        <time>2021-04-28T09:48:35Z</time>
      </trkpt>
      <trkpt lat="51.581930000" lon="7.244100000">
        <ele>64</ele>
        <time>2021-04-28T09:48:37Z</time>
      </trkpt>
      <trkpt lat="51.581990000" lon="7.243930000">
        <ele>64</ele>
        <time>2021-04-28T09:48:39Z</time>
      </trkpt>
      <trkpt lat="51.582040000" lon="7.243790000">
        <ele>64</ele>
        <time>2021-04-28T09:48:40Z</time>
      </trkpt>
      <trkpt lat="51.582100000" lon="7.243630000">
        <ele>64</ele>
        <time>2021-04-28T09:48:42Z</time>
      </trkpt>
      <trkpt lat="51.582130000" lon="7.243530000">
        <ele>64</ele>
        <time>2021-04-28T09:48:44Z</time>
      </trkpt>
      <trkpt lat="51.582190000" lon="7.243380000">
        <ele>64</ele>
        <time>2021-04-28T09:48:45Z</time>
      </trkpt>
      <trkpt lat="51.582250000" lon="7.243210000">
        <ele>64</ele>
        <time>2021-04-28T09:48:48Z</time>
      </trkpt>
      <trkpt lat="51.582300000" lon="7.243050000">
        <ele>64</ele>
        <time>2021-04-28T09:48:50Z</time>
      </trkpt>
      <trkpt lat="51.582360000" lon="7.242880000">
        <ele>64</ele>
        <time>2021-04-28T09:48:51Z</time>
      </trkpt>
      <trkpt lat="51.582390000" lon="7.242800000">
        <ele>64</ele>
        <time>2021-04-28T09:48:53Z</time>
      </trkpt>
      <trkpt lat="51.582420000" lon="7.242710000">
        <ele>60</ele>
        <time>2021-04-28T09:48:54Z</time>
      </trkpt>
      <trkpt lat="51.582450000" lon="7.242630000">
        <ele>60</ele>
        <time>2021-04-28T09:48:55Z</time>
      </trkpt>
      <trkpt lat="51.582510000" lon="7.242470000">
        <ele>60</ele>
        <time>2021-04-28T09:48:56Z</time>
      </trkpt>
      <trkpt lat="51.582580000" lon="7.242320000">
        <ele>60</ele>
        <time>2021-04-28T09:48:58Z</time>
      </trkpt>
      <trkpt lat="51.582650000" lon="7.242170000">
        <ele>60</ele>
        <time>2021-04-28T09:49:01Z</time>
      </trkpt>
      <trkpt lat="51.582730000" lon="7.242050000">
        <ele>60</ele>
        <time>2021-04-28T09:49:02Z</time>
      </trkpt>
      <trkpt lat="51.582770000" lon="7.241970000">
        <ele>60</ele>
        <time>2021-04-28T09:49:03Z</time>
      </trkpt>
      <trkpt lat="51.582820000" lon="7.241900000">
        <ele>60</ele>
        <time>2021-04-28T09:49:05Z</time>
      </trkpt>
      <trkpt lat="51.582900000" lon="7.241780000">
        <ele>60</ele>
        <time>2021-04-28T09:49:07Z</time>
      </trkpt>
      <trkpt lat="51.582990000" lon="7.241680000">
        <ele>60</ele>
        <time>2021-04-28T09:49:09Z</time>
      </trkpt>
      <trkpt lat="51.583080000" lon="7.241590000">
        <ele>60</ele>
        <time>2021-04-28T09:49:11Z</time>
      </trkpt>
      <trkpt lat="51.583170000" lon="7.241490000">
        <ele>60</ele>
        <time>2021-04-28T09:49:12Z</time>
      </trkpt>
      <trkpt lat="51.583220000" lon="7.241450000">
        <ele>60</ele>
        <time>2021-04-28T09:49:14Z</time>
      </trkpt>
      <trkpt lat="51.583330000" lon="7.241370000">
        <ele>62</ele>
        <time>2021-04-28T09:49:15Z</time>
      </trkpt>
      <trkpt lat="51.583380000" lon="7.241320000">
        <ele>62</ele>
        <time>2021-04-28T09:49:17Z</time>
      </trkpt>
      <trkpt lat="51.583420000" lon="7.241280000">
        <ele>62</ele>
        <time>2021-04-28T09:49:18Z</time>
      </trkpt>
      <trkpt lat="51.583520000" lon="7.241190000">
        <ele>62</ele>
        <time>2021-04-28T09:49:20Z</time>
      </trkpt>
      <trkpt lat="51.583620000" lon="7.241110000">
        <ele>62</ele>
        <time>2021-04-28T09:49:21Z</time>
      </trkpt>
      <trkpt lat="51.583720000" lon="7.241030000">
        <ele>62</ele>
        <time>2021-04-28T09:49:23Z</time>
      </trkpt>
      <trkpt lat="51.583780000" lon="7.240990000">
        <ele>62</ele>
        <time>2021-04-28T09:49:24Z</time>
      </trkpt>
      <trkpt lat="51.583890000" lon="7.240890000">
        <ele>62</ele>
        <time>2021-04-28T09:49:27Z</time>
      </trkpt>
      <trkpt lat="51.583980000" lon="7.240820000">
        <ele>62</ele>
        <time>2021-04-28T09:49:28Z</time>
      </trkpt>
      <trkpt lat="51.584100000" lon="7.240710000">
        <ele>62</ele>
        <time>2021-04-28T09:49:31Z</time>
      </trkpt>
      <trkpt lat="51.584190000" lon="7.240620000">
        <ele>62</ele>
        <time>2021-04-28T09:49:33Z</time>
      </trkpt>
      <trkpt lat="51.584240000" lon="7.240570000">
        <ele>62</ele>
        <time>2021-04-28T09:49:34Z</time>
      </trkpt>
      <trkpt lat="51.584290000" lon="7.240530000">
        <ele>62</ele>
        <time>2021-04-28T09:49:35Z</time>
      </trkpt>
      <trkpt lat="51.584390000" lon="7.240440000">
        <ele>62</ele>
        <time>2021-04-28T09:49:37Z</time>
      </trkpt>
      <trkpt lat="51.584440000" lon="7.240400000">
        <ele>65</ele>
        <time>2021-04-28T09:49:38Z</time>
      </trkpt>
      <trkpt lat="51.584490000" lon="7.240360000">
        <ele>65</ele>
        <time>2021-04-28T09:49:39Z</time>
      </trkpt>
      <trkpt lat="51.584600000" lon="7.240280000">
        <ele>65</ele>
        <time>2021-04-28T09:49:41Z</time>
      </trkpt>
      <trkpt lat="51.584700000" lon="7.240200000">
        <ele>65</ele>
        <time>2021-04-28T09:49:42Z</time>
      </trkpt>
      <trkpt lat="51.584800000" lon="7.240110000">
        <ele>65</ele>
        <time>2021-04-28T09:49:44Z</time>
      </trkpt>
      <trkpt lat="51.584860000" lon="7.240050000">
        <ele>65</ele>
        <time>2021-04-28T09:49:46Z</time>
      </trkpt>
      <trkpt lat="51.584960000" lon="7.239960000">
        <ele>65</ele>
        <time>2021-04-28T09:49:48Z</time>
      </trkpt>
      <trkpt lat="51.585060000" lon="7.239880000">
        <ele>65</ele>
        <time>2021-04-28T09:49:50Z</time>
      </trkpt>
      <trkpt lat="51.585160000" lon="7.239790000">
        <ele>65</ele>
        <time>2021-04-28T09:49:52Z</time>
      </trkpt>
      <trkpt lat="51.585250000" lon="7.239710000">
        <ele>65</ele>
        <time>2021-04-28T09:49:54Z</time>
      </trkpt>
      <trkpt lat="51.585350000" lon="7.239630000">
        <ele>65</ele>
        <time>2021-04-28T09:49:56Z</time>
      </trkpt>
      <trkpt lat="51.585390000" lon="7.239590000">
        <ele>65</ele>
        <time>2021-04-28T09:49:57Z</time>
      </trkpt>
      <trkpt lat="51.585500000" lon="7.239510000">
        <ele>62</ele>
        <time>2021-04-28T09:49:58Z</time>
      </trkpt>
      <trkpt lat="51.585540000" lon="7.239470000">
        <ele>62</ele>
        <time>2021-04-28T09:50:00Z</time>
      </trkpt>
      <trkpt lat="51.585590000" lon="7.239430000">
        <ele>62</ele>
        <time>2021-04-28T09:50:01Z</time>
      </trkpt>
      <trkpt lat="51.585630000" lon="7.239400000">
        <ele>62</ele>
        <time>2021-04-28T09:50:02Z</time>
      </trkpt>
      <trkpt lat="51.585710000" lon="7.239340000">
        <ele>62</ele>
        <time>2021-04-28T09:50:03Z</time>
      </trkpt>
      <trkpt lat="51.585780000" lon="7.239280000">
        <ele>62</ele>
        <time>2021-04-28T09:50:05Z</time>
      </trkpt>
      <trkpt lat="51.585860000" lon="7.239220000">
        <ele>62</ele>
        <time>2021-04-28T09:50:08Z</time>
      </trkpt>
      <trkpt lat="51.585910000" lon="7.239200000">
        <ele>62</ele>
        <time>2021-04-28T09:50:10Z</time>
      </trkpt>
      <trkpt lat="51.585950000" lon="7.239190000">
        <ele>62</ele>
        <time>2021-04-28T09:55:08Z</time>
      </trkpt>
      <trkpt lat="51.585970000" lon="7.239070000">
        <ele>62</ele>
        <time>2021-04-28T09:55:13Z</time>
      </trkpt>
      <trkpt lat="51.586060000" lon="7.239010000">
        <ele>62</ele>
        <time>2021-04-28T09:55:18Z</time>
      </trkpt>
      <trkpt lat="51.586150000" lon="7.238970000">
        <ele>62</ele>
        <time>2021-04-28T09:55:20Z</time>
      </trkpt>
      <trkpt lat="51.586240000" lon="7.238890000">
        <ele>62</ele>
        <time>2021-04-28T09:55:21Z</time>
      </trkpt>
      <trkpt lat="51.586290000" lon="7.238840000">
        <ele>62</ele>
        <time>2021-04-28T09:55:23Z</time>
      </trkpt>
      <trkpt lat="51.586390000" lon="7.238760000">
        <ele>62</ele>
        <time>2021-04-28T09:55:26Z</time>
      </trkpt>
      <trkpt lat="51.586480000" lon="7.238680000">
        <ele>62</ele>
        <time>2021-04-28T09:55:27Z</time>
      </trkpt>
      <trkpt lat="51.586590000" lon="7.238600000">
        <ele>62</ele>
        <time>2021-04-28T09:55:30Z</time>
      </trkpt>
      <trkpt lat="51.586670000" lon="7.238520000">
        <ele>62</ele>
        <time>2021-04-28T09:55:32Z</time>
      </trkpt>
      <trkpt lat="51.586720000" lon="7.238480000">
        <ele>62</ele>
        <time>2021-04-28T09:55:33Z</time>
      </trkpt>
      <trkpt lat="51.586810000" lon="7.238430000">
        <ele>62</ele>
        <time>2021-04-28T09:55:34Z</time>
      </trkpt>
      <trkpt lat="51.586890000" lon="7.238340000">
        <ele>62</ele>
        <time>2021-04-28T09:55:36Z</time>
      </trkpt>
      <trkpt lat="51.586940000" lon="7.238300000">
        <ele>62</ele>
        <time>2021-04-28T09:55:37Z</time>
      </trkpt>
      <trkpt lat="51.586990000" lon="7.238260000">
        <ele>62</ele>
        <time>2021-04-28T09:55:38Z</time>
      </trkpt>
      <trkpt lat="51.587040000" lon="7.238230000">
        <ele>62</ele>
        <time>2021-04-28T09:55:39Z</time>
      </trkpt>
      <trkpt lat="51.587080000" lon="7.238200000">
        <ele>62</ele>
        <time>2021-04-28T09:55:41Z</time>
      </trkpt>
      <trkpt lat="51.587130000" lon="7.238170000">
        <ele>62</ele>
        <time>2021-04-28T09:55:42Z</time>
      </trkpt>
      <trkpt lat="51.587210000" lon="7.238110000">
        <ele>62</ele>
        <time>2021-04-28T09:55:44Z</time>
      </trkpt>
      <trkpt lat="51.587250000" lon="7.238070000">
        <ele>60</ele>
        <time>2021-04-28T09:55:45Z</time>
      </trkpt>
      <trkpt lat="51.587330000" lon="7.238010000">
        <ele>60</ele>
        <time>2021-04-28T09:55:47Z</time>
      </trkpt>
      <trkpt lat="51.587400000" lon="7.237970000">
        <ele>60</ele>
        <time>2021-04-28T09:55:49Z</time>
      </trkpt>
      <trkpt lat="51.587450000" lon="7.237920000">
        <ele>60</ele>
        <time>2021-04-28T09:55:52Z</time>
      </trkpt>
      <trkpt lat="51.587520000" lon="7.237880000">
        <ele>60</ele>
        <time>2021-04-28T09:55:54Z</time>
      </trkpt>
      <trkpt lat="51.587630000" lon="7.237820000">
        <ele>60</ele>
        <time>2021-04-28T09:55:56Z</time>
      </trkpt>
      <trkpt lat="51.587720000" lon="7.237790000">
        <ele>60</ele>
        <time>2021-04-28T09:55:58Z</time>
      </trkpt>
      <trkpt lat="51.587770000" lon="7.237770000">
        <ele>60</ele>
        <time>2021-04-28T09:56:00Z</time>
      </trkpt>
      <trkpt lat="51.587870000" lon="7.237720000">
        <ele>60</ele>
        <time>2021-04-28T09:56:02Z</time>
      </trkpt>
      <trkpt lat="51.587970000" lon="7.237710000">
        <ele>60</ele>
        <time>2021-04-28T09:56:04Z</time>
      </trkpt>
      <trkpt lat="51.588050000" lon="7.237710000">
        <ele>60</ele>
        <time>2021-04-28T09:56:05Z</time>
      </trkpt>
      <trkpt lat="51.588100000" lon="7.237700000">
        <ele>60</ele>
        <time>2021-04-28T09:56:07Z</time>
      </trkpt>
      <trkpt lat="51.588210000" lon="7.237700000">
        <ele>60</ele>
        <time>2021-04-28T09:56:09Z</time>
      </trkpt>
      <trkpt lat="51.588260000" lon="7.237710000">
        <ele>60</ele>
        <time>2021-04-28T09:56:10Z</time>
      </trkpt>
      <trkpt lat="51.588400000" lon="7.237710000">
        <ele>60</ele>
        <time>2021-04-28T09:56:13Z</time>
      </trkpt>
      <trkpt lat="51.588500000" lon="7.237710000">
        <ele>57</ele>
        <time>2021-04-28T09:56:15Z</time>
      </trkpt>
      <trkpt lat="51.588590000" lon="7.237700000">
        <ele>57</ele>
        <time>2021-04-28T09:56:16Z</time>
      </trkpt>
      <trkpt lat="51.588700000" lon="7.237690000">
        <ele>57</ele>
        <time>2021-04-28T09:56:18Z</time>
      </trkpt>
      <trkpt lat="51.588770000" lon="7.237660000">
        <ele>57</ele>
        <time>2021-04-28T09:56:20Z</time>
      </trkpt>
      <trkpt lat="51.588890000" lon="7.237700000">
        <ele>57</ele>
        <time>2021-04-28T09:56:22Z</time>
      </trkpt>
      <trkpt lat="51.588940000" lon="7.237730000">
        <ele>57</ele>
        <time>2021-04-28T09:56:23Z</time>
      </trkpt>
      <trkpt lat="51.589050000" lon="7.237740000">
        <ele>57</ele>
        <time>2021-04-28T09:56:25Z</time>
      </trkpt>
      <trkpt lat="51.589110000" lon="7.237740000">
        <ele>57</ele>
        <time>2021-04-28T09:56:26Z</time>
      </trkpt>
      <trkpt lat="51.589200000" lon="7.237740000">
        <ele>57</ele>
        <time>2021-04-28T09:56:27Z</time>
      </trkpt>
      <trkpt lat="51.589300000" lon="7.237730000">
        <ele>57</ele>
        <time>2021-04-28T09:56:29Z</time>
      </trkpt>
      <trkpt lat="51.589350000" lon="7.237720000">
        <ele>57</ele>
        <time>2021-04-28T09:56:31Z</time>
      </trkpt>
      <trkpt lat="51.589470000" lon="7.237740000">
        <ele>57</ele>
        <time>2021-04-28T09:56:33Z</time>
      </trkpt>
      <trkpt lat="51.589530000" lon="7.237750000">
        <ele>57</ele>
        <time>2021-04-28T09:56:34Z</time>
      </trkpt>
      <trkpt lat="51.589670000" lon="7.237770000">
        <ele>57</ele>
        <time>2021-04-28T09:56:36Z</time>
      </trkpt>
      <trkpt lat="51.589780000" lon="7.237770000">
        <ele>57</ele>
        <time>2021-04-28T09:56:37Z</time>
      </trkpt>
      <trkpt lat="51.589840000" lon="7.237770000">
        <ele>57</ele>
        <time>2021-04-28T09:56:38Z</time>
      </trkpt>
      <trkpt lat="51.589910000" lon="7.237760000">
        <ele>57</ele>
        <time>2021-04-28T09:56:40Z</time>
      </trkpt>
      <trkpt lat="51.589970000" lon="7.237770000">
        <ele>57</ele>
        <time>2021-04-28T09:56:41Z</time>
      </trkpt>
      <trkpt lat="51.590080000" lon="7.237770000">
        <ele>57</ele>
        <time>2021-04-28T09:56:43Z</time>
      </trkpt>
      <trkpt lat="51.590200000" lon="7.237770000">
        <ele>57</ele>
        <time>2021-04-28T09:56:45Z</time>
      </trkpt>
      <trkpt lat="51.590320000" lon="7.237800000">
        <ele>57</ele>
        <time>2021-04-28T09:56:47Z</time>
      </trkpt>
      <trkpt lat="51.590370000" lon="7.237830000">
        <ele>57</ele>
        <time>2021-04-28T09:56:48Z</time>
      </trkpt>
      <trkpt lat="51.590430000" lon="7.237830000">
        <ele>57</ele>
        <time>2021-04-28T09:56:49Z</time>
      </trkpt>
      <trkpt lat="51.590540000" lon="7.237830000">
        <ele>57</ele>
        <time>2021-04-28T09:56:50Z</time>
      </trkpt>
      <trkpt lat="51.590630000" lon="7.237850000">
        <ele>57</ele>
        <time>2021-04-28T09:56:53Z</time>
      </trkpt>
      <trkpt lat="51.590670000" lon="7.237850000">
        <ele>57</ele>
        <time>2021-04-28T09:56:54Z</time>
      </trkpt>
      <trkpt lat="51.590780000" lon="7.237860000">
        <ele>58</ele>
        <time>2021-04-28T09:56:56Z</time>
      </trkpt>
      <trkpt lat="51.590880000" lon="7.237870000">
        <ele>58</ele>
        <time>2021-04-28T09:56:57Z</time>
      </trkpt>
      <trkpt lat="51.590970000" lon="7.237830000">
        <ele>58</ele>
        <time>2021-04-28T09:56:59Z</time>
      </trkpt>
      <trkpt lat="51.591030000" lon="7.237790000">
        <ele>58</ele>
        <time>2021-04-28T09:57:00Z</time>
      </trkpt>
      <trkpt lat="51.591080000" lon="7.237780000">
        <ele>58</ele>
        <time>2021-04-28T09:57:02Z</time>
      </trkpt>
      <trkpt lat="51.591210000" lon="7.237820000">
        <ele>58</ele>
        <time>2021-04-28T09:57:04Z</time>
      </trkpt>
      <trkpt lat="51.591340000" lon="7.237840000">
        <ele>58</ele>
        <time>2021-04-28T09:57:05Z</time>
      </trkpt>
      <trkpt lat="51.591390000" lon="7.237850000">
        <ele>58</ele>
        <time>2021-04-28T09:57:07Z</time>
      </trkpt>
      <trkpt lat="51.591480000" lon="7.237860000">
        <ele>58</ele>
        <time>2021-04-28T09:57:08Z</time>
      </trkpt>
      <trkpt lat="51.591560000" lon="7.237870000">
        <ele>58</ele>
        <time>2021-04-28T09:57:10Z</time>
      </trkpt>
      <trkpt lat="51.591610000" lon="7.237870000">
        <ele>58</ele>
        <time>2021-04-28T09:57:10Z</time>
      </trkpt>
      <trkpt lat="51.591670000" lon="7.237880000">
        <ele>58</ele>
        <time>2021-04-28T09:57:12Z</time>
      </trkpt>
      <trkpt lat="51.591800000" lon="7.237880000">
        <ele>58</ele>
        <time>2021-04-28T09:57:13Z</time>
      </trkpt>
      <trkpt lat="51.591910000" lon="7.237880000">
        <ele>58</ele>
        <time>2021-04-28T09:57:16Z</time>
      </trkpt>
      <trkpt lat="51.592020000" lon="7.237890000">
        <ele>65</ele>
        <time>2021-04-28T09:57:18Z</time>
      </trkpt>
      <trkpt lat="51.592130000" lon="7.237910000">
        <ele>65</ele>
        <time>2021-04-28T09:57:19Z</time>
      </trkpt>
      <trkpt lat="51.592200000" lon="7.237920000">
        <ele>65</ele>
        <time>2021-04-28T09:57:20Z</time>
      </trkpt>
      <trkpt lat="51.592300000" lon="7.237950000">
        <ele>65</ele>
        <time>2021-04-28T09:57:22Z</time>
      </trkpt>
      <trkpt lat="51.592410000" lon="7.237960000">
        <ele>65</ele>
        <time>2021-04-28T09:57:23Z</time>
      </trkpt>
      <trkpt lat="51.592470000" lon="7.237970000">
        <ele>65</ele>
        <time>2021-04-28T09:57:25Z</time>
      </trkpt>
      <trkpt lat="51.592590000" lon="7.237960000">
        <ele>65</ele>
        <time>2021-04-28T09:57:27Z</time>
      </trkpt>
      <trkpt lat="51.592690000" lon="7.237960000">
        <ele>65</ele>
        <time>2021-04-28T09:57:29Z</time>
      </trkpt>
      <trkpt lat="51.592790000" lon="7.237980000">
        <ele>65</ele>
        <time>2021-04-28T09:57:30Z</time>
      </trkpt>
      <trkpt lat="51.592870000" lon="7.237980000">
        <ele>65</ele>
        <time>2021-04-28T09:57:32Z</time>
      </trkpt>
      <trkpt lat="51.592970000" lon="7.237980000">
        <ele>65</ele>
        <time>2021-04-28T09:57:34Z</time>
      </trkpt>
      <trkpt lat="51.593020000" lon="7.237990000">
        <ele>65</ele>
        <time>2021-04-28T09:57:35Z</time>
      </trkpt>
      <trkpt lat="51.593140000" lon="7.238000000">
        <ele>65</ele>
        <time>2021-04-28T09:57:37Z</time>
      </trkpt>
      <trkpt lat="51.593190000" lon="7.238010000">
        <ele>65</ele>
        <time>2021-04-28T09:57:38Z</time>
      </trkpt>
      <trkpt lat="51.593300000" lon="7.238020000">
        <ele>69</ele>
        <time>2021-04-28T09:57:39Z</time>
      </trkpt>
      <trkpt lat="51.593460000" lon="7.238040000">
        <ele>69</ele>
        <time>2021-04-28T09:57:41Z</time>
      </trkpt>
      <trkpt lat="51.593580000" lon="7.238050000">
        <ele>69</ele>
        <time>2021-04-28T09:57:44Z</time>
      </trkpt>
      <trkpt lat="51.593700000" lon="7.238080000">
        <ele>69</ele>
        <time>2021-04-28T09:57:45Z</time>
      </trkpt>
      <trkpt lat="51.593760000" lon="7.238080000">
        <ele>69</ele>
        <time>2021-04-28T09:57:47Z</time>
      </trkpt>
      <trkpt lat="51.593820000" lon="7.238100000">
        <ele>69</ele>
        <time>2021-04-28T09:57:48Z</time>
      </trkpt>
      <trkpt lat="51.593940000" lon="7.238100000">
        <ele>69</ele>
        <time>2021-04-28T09:57:50Z</time>
      </trkpt>
      <trkpt lat="51.594050000" lon="7.238100000">
        <ele>69</ele>
        <time>2021-04-28T09:57:52Z</time>
      </trkpt>
      <trkpt lat="51.594160000" lon="7.238100000">
        <ele>69</ele>
        <time>2021-04-28T09:57:53Z</time>
      </trkpt>
      <trkpt lat="51.594220000" lon="7.238120000">
        <ele>69</ele>
        <time>2021-04-28T09:57:55Z</time>
      </trkpt>
      <trkpt lat="51.594300000" lon="7.238120000">
        <ele>69</ele>
        <time>2021-04-28T09:57:56Z</time>
      </trkpt>
      <trkpt lat="51.594370000" lon="7.238120000">
        <ele>69</ele>
        <time>2021-04-28T09:57:58Z</time>
      </trkpt>
      <trkpt lat="51.594420000" lon="7.238120000">
        <ele>69</ele>
        <time>2021-04-28T09:57:59Z</time>
      </trkpt>
      <trkpt lat="51.594520000" lon="7.238120000">
        <ele>69</ele>
        <time>2021-04-28T09:58:00Z</time>
      </trkpt>
      <trkpt lat="51.594640000" lon="7.238120000">
        <ele>67</ele>
        <time>2021-04-28T09:58:03Z</time>
      </trkpt>
      <trkpt lat="51.594740000" lon="7.238130000">
        <ele>67</ele>
        <time>2021-04-28T09:58:05Z</time>
      </trkpt>
      <trkpt lat="51.594840000" lon="7.238140000">
        <ele>67</ele>
        <time>2021-04-28T09:58:07Z</time>
      </trkpt>
      <trkpt lat="51.594890000" lon="7.238150000">
        <ele>67</ele>
        <time>2021-04-28T09:58:08Z</time>
      </trkpt>
      <trkpt lat="51.595000000" lon="7.238150000">
        <ele>67</ele>
        <time>2021-04-28T09:58:10Z</time>
      </trkpt>
      <trkpt lat="51.595050000" lon="7.238150000">
        <ele>67</ele>
        <time>2021-04-28T09:58:11Z</time>
      </trkpt>
      <trkpt lat="51.595160000" lon="7.238150000">
        <ele>67</ele>
        <time>2021-04-28T09:58:13Z</time>
      </trkpt>
      <trkpt lat="51.595280000" lon="7.238170000">
        <ele>67</ele>
        <time>2021-04-28T09:58:15Z</time>
      </trkpt>
      <trkpt lat="51.595390000" lon="7.238160000">
        <ele>67</ele>
        <time>2021-04-28T09:58:16Z</time>
      </trkpt>
      <trkpt lat="51.595490000" lon="7.238170000">
        <ele>67</ele>
        <time>2021-04-28T09:58:18Z</time>
      </trkpt>
      <trkpt lat="51.595610000" lon="7.238170000">
        <ele>67</ele>
        <time>2021-04-28T09:58:20Z</time>
      </trkpt>
      <trkpt lat="51.595720000" lon="7.238180000">
        <ele>67</ele>
        <time>2021-04-28T09:58:21Z</time>
      </trkpt>
      <trkpt lat="51.595790000" lon="7.238180000">
        <ele>67</ele>
        <time>2021-04-28T09:58:22Z</time>
      </trkpt>
      <trkpt lat="51.595860000" lon="7.238190000">
        <ele>67</ele>
        <time>2021-04-28T09:58:24Z</time>
      </trkpt>
      <trkpt lat="51.595970000" lon="7.238210000">
        <ele>71</ele>
        <time>2021-04-28T09:58:26Z</time>
      </trkpt>
      <trkpt lat="51.596090000" lon="7.238220000">
        <ele>71</ele>
        <time>2021-04-28T09:58:28Z</time>
      </trkpt>
      <trkpt lat="51.596200000" lon="7.238210000">
        <ele>71</ele>
        <time>2021-04-28T09:58:30Z</time>
      </trkpt>
      <trkpt lat="51.596320000" lon="7.238220000">
        <ele>71</ele>
        <time>2021-04-28T09:58:32Z</time>
      </trkpt>
      <trkpt lat="51.596420000" lon="7.238220000">
        <ele>71</ele>
        <time>2021-04-28T09:58:34Z</time>
      </trkpt>
      <trkpt lat="51.596470000" lon="7.238220000">
        <ele>71</ele>
        <time>2021-04-28T09:58:35Z</time>
      </trkpt>
      <trkpt lat="51.596580000" lon="7.238230000">
        <ele>71</ele>
        <time>2021-04-28T09:58:37Z</time>
      </trkpt>
      <trkpt lat="51.596700000" lon="7.238250000">
        <ele>71</ele>
        <time>2021-04-28T09:58:39Z</time>
      </trkpt>
      <trkpt lat="51.596800000" lon="7.238260000">
        <ele>71</ele>
        <time>2021-04-28T09:58:40Z</time>
      </trkpt>
      <trkpt lat="51.596910000" lon="7.238270000">
        <ele>71</ele>
        <time>2021-04-28T09:58:42Z</time>
      </trkpt>
      <trkpt lat="51.596980000" lon="7.238280000">
        <ele>71</ele>
        <time>2021-04-28T09:58:44Z</time>
      </trkpt>
      <trkpt lat="51.597090000" lon="7.238280000">
        <ele>71</ele>
        <time>2021-04-28T09:58:46Z</time>
      </trkpt>
      <trkpt lat="51.597200000" lon="7.238300000">
        <ele>74</ele>
        <time>2021-04-28T09:58:48Z</time>
      </trkpt>
      <trkpt lat="51.597320000" lon="7.238310000">
        <ele>74</ele>
        <time>2021-04-28T09:58:50Z</time>
      </trkpt>
      <trkpt lat="51.597420000" lon="7.238320000">
        <ele>74</ele>
        <time>2021-04-28T09:58:52Z</time>
      </trkpt>
      <trkpt lat="51.597470000" lon="7.238330000">
        <ele>74</ele>
        <time>2021-04-28T09:58:53Z</time>
      </trkpt>
      <trkpt lat="51.597580000" lon="7.238330000">
        <ele>74</ele>
        <time>2021-04-28T09:58:55Z</time>
      </trkpt>
      <trkpt lat="51.597680000" lon="7.238330000">
        <ele>74</ele>
        <time>2021-04-28T09:58:57Z</time>
      </trkpt>
      <trkpt lat="51.597780000" lon="7.238340000">
        <ele>74</ele>
        <time>2021-04-28T09:58:59Z</time>
      </trkpt>
      <trkpt lat="51.597880000" lon="7.238340000">
        <ele>74</ele>
        <time>2021-04-28T09:59:01Z</time>
      </trkpt>
      <trkpt lat="51.597960000" lon="7.238350000">
        <ele>74</ele>
        <time>2021-04-28T09:59:02Z</time>
      </trkpt>
      <trkpt lat="51.598010000" lon="7.238360000">
        <ele>74</ele>
        <time>2021-04-28T09:59:03Z</time>
      </trkpt>
      <trkpt lat="51.598070000" lon="7.238360000">
        <ele>74</ele>
        <time>2021-04-28T09:59:05Z</time>
      </trkpt>
      <trkpt lat="51.598160000" lon="7.238370000">
        <ele>74</ele>
        <time>2021-04-28T09:59:07Z</time>
      </trkpt>
      <trkpt lat="51.598270000" lon="7.238380000">
        <ele>74</ele>
        <time>2021-04-28T09:59:09Z</time>
      </trkpt>
      <trkpt lat="51.598380000" lon="7.238380000">
        <ele>74</ele>
        <time>2021-04-28T09:59:11Z</time>
      </trkpt>
      <trkpt lat="51.598500000" lon="7.238380000">
        <ele>74</ele>
        <time>2021-04-28T09:59:13Z</time>
      </trkpt>
      <trkpt lat="51.598600000" lon="7.238400000">
        <ele>74</ele>
        <time>2021-04-28T09:59:15Z</time>
      </trkpt>
      <trkpt lat="51.598710000" lon="7.238410000">
        <ele>74</ele>
        <time>2021-04-28T09:59:16Z</time>
      </trkpt>
      <trkpt lat="51.598820000" lon="7.238420000">
        <ele>74</ele>
        <time>2021-04-28T09:59:18Z</time>
      </trkpt>
      <trkpt lat="51.598900000" lon="7.238420000">
        <ele>74</ele>
        <time>2021-04-28T09:59:20Z</time>
      </trkpt>
      <trkpt lat="51.599020000" lon="7.238430000">
        <ele>74</ele>
        <time>2021-04-28T09:59:22Z</time>
      </trkpt>
      <trkpt lat="51.599120000" lon="7.238440000">
        <ele>74</ele>
        <time>2021-04-28T09:59:23Z</time>
      </trkpt>
      <trkpt lat="51.599250000" lon="7.238450000">
        <ele>74</ele>
        <time>2021-04-28T09:59:25Z</time>
      </trkpt>
      <trkpt lat="51.599350000" lon="7.238430000">
        <ele>74</ele>
        <time>2021-04-28T09:59:28Z</time>
      </trkpt>
      <trkpt lat="51.599400000" lon="7.238440000">
        <ele>74</ele>
        <time>2021-04-28T09:59:29Z</time>
      </trkpt>
      <trkpt lat="51.599460000" lon="7.238450000">
        <ele>74</ele>
        <time>2021-04-28T09:59:30Z</time>
      </trkpt>
      <trkpt lat="51.599520000" lon="7.238460000">
        <ele>74</ele>
        <time>2021-04-28T09:59:31Z</time>
      </trkpt>
      <trkpt lat="51.599620000" lon="7.238460000">
        <ele>74</ele>
        <time>2021-04-28T09:59:32Z</time>
      </trkpt>
      <trkpt lat="51.599740000" lon="7.238460000">
        <ele>74</ele>
        <time>2021-04-28T09:59:35Z</time>
      </trkpt>
      <trkpt lat="51.599830000" lon="7.238460000">
        <ele>72</ele>
        <time>2021-04-28T09:59:36Z</time>
      </trkpt>
      <trkpt lat="51.599910000" lon="7.238460000">
        <ele>72</ele>
        <time>2021-04-28T09:59:38Z</time>
      </trkpt>
      <trkpt lat="51.599960000" lon="7.238450000">
        <ele>72</ele>
        <time>2021-04-28T09:59:39Z</time>
      </trkpt>
      <trkpt lat="51.600050000" lon="7.238470000">
        <ele>72</ele>
        <time>2021-04-28T09:59:40Z</time>
      </trkpt>
      <trkpt lat="51.600100000" lon="7.238480000">
        <ele>72</ele>
        <time>2021-04-28T09:59:42Z</time>
      </trkpt>
      <trkpt lat="51.600200000" lon="7.238490000">
        <ele>72</ele>
        <time>2021-04-28T09:59:43Z</time>
      </trkpt>
      <trkpt lat="51.600330000" lon="7.238500000">
        <ele>72</ele>
        <time>2021-04-28T09:59:46Z</time>
      </trkpt>
      <trkpt lat="51.600470000" lon="7.238530000">
        <ele>72</ele>
        <time>2021-04-28T09:59:49Z</time>
      </trkpt>
      <trkpt lat="51.600580000" lon="7.238540000">
        <ele>72</ele>
        <time>2021-04-28T09:59:51Z</time>
      </trkpt>
      <trkpt lat="51.600690000" lon="7.238530000">
        <ele>72</ele>
        <time>2021-04-28T09:59:52Z</time>
      </trkpt>
      <trkpt lat="51.600740000" lon="7.238520000">
        <ele>72</ele>
        <time>2021-04-28T09:59:54Z</time>
      </trkpt>
      <trkpt lat="51.600830000" lon="7.238520000">
        <ele>72</ele>
        <time>2021-04-28T09:59:55Z</time>
      </trkpt>
      <trkpt lat="51.600910000" lon="7.238530000">
        <ele>72</ele>
        <time>2021-04-28T09:59:57Z</time>
      </trkpt>
      <trkpt lat="51.601010000" lon="7.238540000">
        <ele>72</ele>
        <time>2021-04-28T09:59:58Z</time>
      </trkpt>
      <trkpt lat="51.601110000" lon="7.238540000">
        <ele>72</ele>
        <time>2021-04-28T10:00:00Z</time>
      </trkpt>
      <trkpt lat="51.601240000" lon="7.238560000">
        <ele>75</ele>
        <time>2021-04-28T10:00:02Z</time>
      </trkpt>
      <trkpt lat="51.601370000" lon="7.238580000">
        <ele>75</ele>
        <time>2021-04-28T10:00:03Z</time>
      </trkpt>
      <trkpt lat="51.601480000" lon="7.238580000">
        <ele>75</ele>
        <time>2021-04-28T10:00:05Z</time>
      </trkpt>
      <trkpt lat="51.601550000" lon="7.238590000">
        <ele>75</ele>
        <time>2021-04-28T10:00:07Z</time>
      </trkpt>
      <trkpt lat="51.601640000" lon="7.238620000">
        <ele>75</ele>
        <time>2021-04-28T10:00:09Z</time>
      </trkpt>
      <trkpt lat="51.601750000" lon="7.238620000">
        <ele>75</ele>
        <time>2021-04-28T10:00:11Z</time>
      </trkpt>
      <trkpt lat="51.601880000" lon="7.238630000">
        <ele>75</ele>
        <time>2021-04-28T10:00:13Z</time>
      </trkpt>
      <trkpt lat="51.602000000" lon="7.238660000">
        <ele>75</ele>
        <time>2021-04-28T10:00:15Z</time>
      </trkpt>
      <trkpt lat="51.602060000" lon="7.238670000">
        <ele>75</ele>
        <time>2021-04-28T10:00:16Z</time>
      </trkpt>
      <trkpt lat="51.602170000" lon="7.238700000">
        <ele>75</ele>
        <time>2021-04-28T10:00:18Z</time>
      </trkpt>
      <trkpt lat="51.602270000" lon="7.238740000">
        <ele>74</ele>
        <time>2021-04-28T10:00:20Z</time>
      </trkpt>
      <trkpt lat="51.602370000" lon="7.238770000">
        <ele>74</ele>
        <time>2021-04-28T10:00:21Z</time>
      </trkpt>
      <trkpt lat="51.602420000" lon="7.238800000">
        <ele>74</ele>
        <time>2021-04-28T10:00:22Z</time>
      </trkpt>
      <trkpt lat="51.602510000" lon="7.238860000">
        <ele>74</ele>
        <time>2021-04-28T10:00:24Z</time>
      </trkpt>
      <trkpt lat="51.602600000" lon="7.238920000">
        <ele>74</ele>
        <time>2021-04-28T10:00:26Z</time>
      </trkpt>
      <trkpt lat="51.602650000" lon="7.238980000">
        <ele>74</ele>
        <time>2021-04-28T10:00:29Z</time>
      </trkpt>
      <trkpt lat="51.602700000" lon="7.239030000">
        <ele>74</ele>
        <time>2021-04-28T10:00:31Z</time>
      </trkpt>
      <trkpt lat="51.602780000" lon="7.238990000">
        <ele>74</ele>
        <time>2021-04-28T10:00:32Z</time>
      </trkpt>
      <trkpt lat="51.602870000" lon="7.238930000">
        <ele>74</ele>
        <time>2021-04-28T10:00:35Z</time>
      </trkpt>
      <trkpt lat="51.602950000" lon="7.238850000">
        <ele>74</ele>
        <time>2021-04-28T10:00:37Z</time>
      </trkpt>
      <trkpt lat="51.603050000" lon="7.238770000">
        <ele>74</ele>
        <time>2021-04-28T10:00:38Z</time>
      </trkpt>
      <trkpt lat="51.603090000" lon="7.238730000">
        <ele>74</ele>
        <time>2021-04-28T10:00:39Z</time>
      </trkpt>
      <trkpt lat="51.603140000" lon="7.238700000">
        <ele>74</ele>
        <time>2021-04-28T10:00:40Z</time>
      </trkpt>
      <trkpt lat="51.603220000" lon="7.238620000">
        <ele>74</ele>
        <time>2021-04-28T10:00:43Z</time>
      </trkpt>
      <trkpt lat="51.603310000" lon="7.238560000">
        <ele>73</ele>
        <time>2021-04-28T10:00:44Z</time>
      </trkpt>
      <trkpt lat="51.603390000" lon="7.238480000">
        <ele>73</ele>
        <time>2021-04-28T10:00:46Z</time>
      </trkpt>
      <trkpt lat="51.603490000" lon="7.238400000">
        <ele>73</ele>
        <time>2021-04-28T10:00:48Z</time>
      </trkpt>
      <trkpt lat="51.603560000" lon="7.238340000">
        <ele>73</ele>
        <time>2021-04-28T10:00:50Z</time>
      </trkpt>
      <trkpt lat="51.603650000" lon="7.238260000">
        <ele>73</ele>
        <time>2021-04-28T10:00:52Z</time>
      </trkpt>
      <trkpt lat="51.603710000" lon="7.238220000">
        <ele>73</ele>
        <time>2021-04-28T10:00:54Z</time>
      </trkpt>
      <trkpt lat="51.603790000" lon="7.238150000">
        <ele>73</ele>
        <time>2021-04-28T10:00:56Z</time>
      </trkpt>
      <trkpt lat="51.603830000" lon="7.238110000">
        <ele>73</ele>
        <time>2021-04-28T10:00:57Z</time>
      </trkpt>
      <trkpt lat="51.603920000" lon="7.238030000">
        <ele>73</ele>
        <time>2021-04-28T10:00:59Z</time>
      </trkpt>
      <trkpt lat="51.603970000" lon="7.238000000">
        <ele>73</ele>
        <time>2021-04-28T10:01:00Z</time>
      </trkpt>
      <trkpt lat="51.604060000" lon="7.237930000">
        <ele>73</ele>
        <time>2021-04-28T10:01:02Z</time>
      </trkpt>
      <trkpt lat="51.604110000" lon="7.237890000">
        <ele>73</ele>
        <time>2021-04-28T10:01:03Z</time>
      </trkpt>
      <trkpt lat="51.604210000" lon="7.237820000">
        <ele>77</ele>
        <time>2021-04-28T10:01:05Z</time>
      </trkpt>
      <trkpt lat="51.604280000" lon="7.237760000">
        <ele>77</ele>
        <time>2021-04-28T10:01:06Z</time>
      </trkpt>
      <trkpt lat="51.604380000" lon="7.237700000">
        <ele>77</ele>
        <time>2021-04-28T10:01:08Z</time>
      </trkpt>
      <trkpt lat="51.604470000" lon="7.237650000">
        <ele>77</ele>
        <time>2021-04-28T10:01:12Z</time>
      </trkpt>
      <trkpt lat="51.604550000" lon="7.237590000">
        <ele>77</ele>
        <time>2021-04-28T10:01:14Z</time>
      </trkpt>
      <trkpt lat="51.604600000" lon="7.237560000">
        <ele>77</ele>
        <time>2021-04-28T10:01:16Z</time>
      </trkpt>
      <trkpt lat="51.604670000" lon="7.237550000">
        <ele>77</ele>
        <time>2021-04-28T10:01:18Z</time>
      </trkpt>
      <trkpt lat="51.604720000" lon="7.237550000">
        <ele>77</ele>
        <time>2021-04-28T10:05:00Z</time>
      </trkpt>
      <trkpt lat="51.604780000" lon="7.237520000">
        <ele>77</ele>
        <time>2021-04-28T10:05:02Z</time>
      </trkpt>
      <trkpt lat="51.604860000" lon="7.237500000">
        <ele>77</ele>
        <time>2021-04-28T10:05:04Z</time>
      </trkpt>
      <trkpt lat="51.604990000" lon="7.237490000">
        <ele>77</ele>
        <time>2021-04-28T10:05:07Z</time>
      </trkpt>
      <trkpt lat="51.605090000" lon="7.237480000">
        <ele>77</ele>
        <time>2021-04-28T10:05:09Z</time>
      </trkpt>
      <trkpt lat="51.605140000" lon="7.237480000">
        <ele>77</ele>
        <time>2021-04-28T10:05:10Z</time>
      </trkpt>
      <trkpt lat="51.605190000" lon="7.237470000">
        <ele>77</ele>
        <time>2021-04-28T10:05:11Z</time>
      </trkpt>
      <trkpt lat="51.605290000" lon="7.237470000">
        <ele>75</ele>
        <time>2021-04-28T10:05:13Z</time>
      </trkpt>
      <trkpt lat="51.605330000" lon="7.237460000">
        <ele>75</ele>
        <time>2021-04-28T10:05:14Z</time>
      </trkpt>
      <trkpt lat="51.605430000" lon="7.237450000">
        <ele>75</ele>
        <time>2021-04-28T10:05:16Z</time>
      </trkpt>
      <trkpt lat="51.605510000" lon="7.237420000">
        <ele>75</ele>
        <time>2021-04-28T10:05:18Z</time>
      </trkpt>
      <trkpt lat="51.605590000" lon="7.237360000">
        <ele>75</ele>
        <time>2021-04-28T10:05:20Z</time>
      </trkpt>
      <trkpt lat="51.605680000" lon="7.237290000">
        <ele>75</ele>
        <time>2021-04-28T10:05:22Z</time>
      </trkpt>
      <trkpt lat="51.605760000" lon="7.237240000">
        <ele>75</ele>
        <time>2021-04-28T10:05:24Z</time>
      </trkpt>
      <trkpt lat="51.605800000" lon="7.237210000">
        <ele>75</ele>
        <time>2021-04-28T10:05:25Z</time>
      </trkpt>
      <trkpt lat="51.605840000" lon="7.237180000">
        <ele>75</ele>
        <time>2021-04-28T10:05:26Z</time>
      </trkpt>
      <trkpt lat="51.605880000" lon="7.237160000">
        <ele>75</ele>
        <time>2021-04-28T10:05:27Z</time>
      </trkpt>
      <trkpt lat="51.605930000" lon="7.237140000">
        <ele>75</ele>
        <time>2021-04-28T10:05:28Z</time>
      </trkpt>
      <trkpt lat="51.605980000" lon="7.237120000">
        <ele>75</ele>
        <time>2021-04-28T10:05:29Z</time>
      </trkpt>
      <trkpt lat="51.606020000" lon="7.237110000">
        <ele>75</ele>
        <time>2021-04-28T10:05:30Z</time>
      </trkpt>
      <trkpt lat="51.606110000" lon="7.237090000">
        <ele>75</ele>
        <time>2021-04-28T10:05:32Z</time>
      </trkpt>
      <trkpt lat="51.606230000" lon="7.237050000">
        <ele>76</ele>
        <time>2021-04-28T10:05:35Z</time>
      </trkpt>
      <trkpt lat="51.606270000" lon="7.237030000">
        <ele>76</ele>
        <time>2021-04-28T10:05:36Z</time>
      </trkpt>
      <trkpt lat="51.606360000" lon="7.236980000">
        <ele>76</ele>
        <time>2021-04-28T10:05:38Z</time>
      </trkpt>
      <trkpt lat="51.606480000" lon="7.236890000">
        <ele>76</ele>
        <time>2021-04-28T10:05:41Z</time>
      </trkpt>
      <trkpt lat="51.606520000" lon="7.236870000">
        <ele>76</ele>
        <time>2021-04-28T10:05:42Z</time>
      </trkpt>
      <trkpt lat="51.606570000" lon="7.236840000">
        <ele>76</ele>
        <time>2021-04-28T10:05:43Z</time>
      </trkpt>
      <trkpt lat="51.606690000" lon="7.236770000">
        <ele>76</ele>
        <time>2021-04-28T10:05:46Z</time>
      </trkpt>
      <trkpt lat="51.606770000" lon="7.236700000">
        <ele>76</ele>
        <time>2021-04-28T10:05:48Z</time>
      </trkpt>
      <trkpt lat="51.606850000" lon="7.236630000">
        <ele>76</ele>
        <time>2021-04-28T10:05:50Z</time>
      </trkpt>
      <trkpt lat="51.606900000" lon="7.236580000">
        <ele>76</ele>
        <time>2021-04-28T10:05:51Z</time>
      </trkpt>
      <trkpt lat="51.606940000" lon="7.236540000">
        <ele>76</ele>
        <time>2021-04-28T10:05:52Z</time>
      </trkpt>
      <trkpt lat="51.607020000" lon="7.236440000">
        <ele>76</ele>
        <time>2021-04-28T10:05:54Z</time>
      </trkpt>
      <trkpt lat="51.607060000" lon="7.236400000">
        <ele>83</ele>
        <time>2021-04-28T10:05:55Z</time>
      </trkpt>
      <trkpt lat="51.607100000" lon="7.236350000">
        <ele>83</ele>
        <time>2021-04-28T10:05:56Z</time>
      </trkpt>
      <trkpt lat="51.607180000" lon="7.236270000">
        <ele>83</ele>
        <time>2021-04-28T10:05:58Z</time>
      </trkpt>
      <trkpt lat="51.607220000" lon="7.236230000">
        <ele>83</ele>
        <time>2021-04-28T10:05:59Z</time>
      </trkpt>
      <trkpt lat="51.607310000" lon="7.236160000">
        <ele>83</ele>
        <time>2021-04-28T10:06:01Z</time>
      </trkpt>
      <trkpt lat="51.607400000" lon="7.236090000">
        <ele>83</ele>
        <time>2021-04-28T10:06:03Z</time>
      </trkpt>
      <trkpt lat="51.607440000" lon="7.236050000">
        <ele>83</ele>
        <time>2021-04-28T10:06:04Z</time>
      </trkpt>
      <trkpt lat="51.607540000" lon="7.235970000">
        <ele>83</ele>
        <time>2021-04-28T10:06:06Z</time>
      </trkpt>
      <trkpt lat="51.607580000" lon="7.235930000">
        <ele>83</ele>
        <time>2021-04-28T10:06:07Z</time>
      </trkpt>
      <trkpt lat="51.607670000" lon="7.235840000">
        <ele>83</ele>
        <time>2021-04-28T10:06:09Z</time>
      </trkpt>
      <trkpt lat="51.607760000" lon="7.235750000">
        <ele>83</ele>
        <time>2021-04-28T10:06:11Z</time>
      </trkpt>
      <trkpt lat="51.607800000" lon="7.235700000">
        <ele>83</ele>
        <time>2021-04-28T10:06:12Z</time>
      </trkpt>
      <trkpt lat="51.607900000" lon="7.235610000">
        <ele>83</ele>
        <time>2021-04-28T10:06:14Z</time>
      </trkpt>
      <trkpt lat="51.607940000" lon="7.235560000">
        <ele>83</ele>
        <time>2021-04-28T10:06:15Z</time>
      </trkpt>
      <trkpt lat="51.607990000" lon="7.235500000">
        <ele>85</ele>
        <time>2021-04-28T10:06:16Z</time>
      </trkpt>
      <trkpt lat="51.608100000" lon="7.235420000">
        <ele>85</ele>
        <time>2021-04-28T10:06:18Z</time>
      </trkpt>
      <trkpt lat="51.608150000" lon="7.235370000">
        <ele>85</ele>
        <time>2021-04-28T10:06:19Z</time>
      </trkpt>
      <trkpt lat="51.608240000" lon="7.235260000">
        <ele>85</ele>
        <time>2021-04-28T10:06:21Z</time>
      </trkpt>
      <trkpt lat="51.608290000" lon="7.235220000">
        <ele>85</ele>
        <time>2021-04-28T10:06:22Z</time>
      </trkpt>
      <trkpt lat="51.608340000" lon="7.235170000">
        <ele>85</ele>
        <time>2021-04-28T10:06:23Z</time>
      </trkpt>
      <trkpt lat="51.608400000" lon="7.235130000">
        <ele>85</ele>
        <time>2021-04-28T10:06:25Z</time>
      </trkpt>
      <trkpt lat="51.608490000" lon="7.235070000">
        <ele>85</ele>
        <time>2021-04-28T10:06:27Z</time>
      </trkpt>
      <trkpt lat="51.608590000" lon="7.234990000">
        <ele>85</ele>
        <time>2021-04-28T10:06:29Z</time>
      </trkpt>
      <trkpt lat="51.608680000" lon="7.234910000">
        <ele>85</ele>
        <time>2021-04-28T10:06:30Z</time>
      </trkpt>
      <trkpt lat="51.608740000" lon="7.234870000">
        <ele>85</ele>
        <time>2021-04-28T10:06:31Z</time>
      </trkpt>
      <trkpt lat="51.608800000" lon="7.234840000">
        <ele>85</ele>
        <time>2021-04-28T10:06:33Z</time>
      </trkpt>
      <trkpt lat="51.608910000" lon="7.234820000">
        <ele>85</ele>
        <time>2021-04-28T10:06:34Z</time>
      </trkpt>
      <trkpt lat="51.608960000" lon="7.234810000">
        <ele>85</ele>
        <time>2021-04-28T10:06:36Z</time>
      </trkpt>
      <trkpt lat="51.609070000" lon="7.234820000">
        <ele>85</ele>
        <time>2021-04-28T10:06:38Z</time>
      </trkpt>
      <trkpt lat="51.609190000" lon="7.234840000">
        <ele>87</ele>
        <time>2021-04-28T10:06:39Z</time>
      </trkpt>
      <trkpt lat="51.609320000" lon="7.234860000">
        <ele>87</ele>
        <time>2021-04-28T10:06:42Z</time>
      </trkpt>
      <trkpt lat="51.609440000" lon="7.234880000">
        <ele>87</ele>
        <time>2021-04-28T10:06:44Z</time>
      </trkpt>
      <trkpt lat="51.609550000" lon="7.234900000">
        <ele>87</ele>
        <time>2021-04-28T10:06:46Z</time>
      </trkpt>
      <trkpt lat="51.609660000" lon="7.234930000">
        <ele>87</ele>
        <time>2021-04-28T10:06:48Z</time>
      </trkpt>
      <trkpt lat="51.609720000" lon="7.234940000">
        <ele>87</ele>
        <time>2021-04-28T10:06:49Z</time>
      </trkpt>
      <trkpt lat="51.609820000" lon="7.234970000">
        <ele>87</ele>
        <time>2021-04-28T10:06:50Z</time>
      </trkpt>
      <trkpt lat="51.609940000" lon="7.235010000">
        <ele>87</ele>
        <time>2021-04-28T10:06:52Z</time>
      </trkpt>
      <trkpt lat="51.610010000" lon="7.235040000">
        <ele>87</ele>
        <time>2021-04-28T10:06:53Z</time>
      </trkpt>
      <trkpt lat="51.610120000" lon="7.235070000">
        <ele>87</ele>
        <time>2021-04-28T10:06:55Z</time>
      </trkpt>
      <trkpt lat="51.610180000" lon="7.235090000">
        <ele>87</ele>
        <time>2021-04-28T10:06:56Z</time>
      </trkpt>
      <trkpt lat="51.610300000" lon="7.235110000">
        <ele>89</ele>
        <time>2021-04-28T10:06:58Z</time>
      </trkpt>
      <trkpt lat="51.610360000" lon="7.235120000">
        <ele>89</ele>
        <time>2021-04-28T10:06:59Z</time>
      </trkpt>
      <trkpt lat="51.610420000" lon="7.235130000">
        <ele>89</ele>
        <time>2021-04-28T10:07:00Z</time>
      </trkpt>
      <trkpt lat="51.610530000" lon="7.235100000">
        <ele>89</ele>
        <time>2021-04-28T10:07:02Z</time>
      </trkpt>
      <trkpt lat="51.610580000" lon="7.235060000">
        <ele>89</ele>
        <time>2021-04-28T10:07:03Z</time>
      </trkpt>
      <trkpt lat="51.610670000" lon="7.234940000">
        <ele>89</ele>
        <time>2021-04-28T10:07:05Z</time>
      </trkpt>
      <trkpt lat="51.610710000" lon="7.234860000">
        <ele>89</ele>
        <time>2021-04-28T10:07:06Z</time>
      </trkpt>
      <trkpt lat="51.610750000" lon="7.234790000">
        <ele>89</ele>
        <time>2021-04-28T10:07:07Z</time>
      </trkpt>
      <trkpt lat="51.610830000" lon="7.234640000">
        <ele>89</ele>
        <time>2021-04-28T10:07:09Z</time>
      </trkpt>
      <trkpt lat="51.610860000" lon="7.234560000">
        <ele>89</ele>
        <time>2021-04-28T10:07:10Z</time>
      </trkpt>
      <trkpt lat="51.610900000" lon="7.234490000">
        <ele>89</ele>
        <time>2021-04-28T10:07:11Z</time>
      </trkpt>
      <trkpt lat="51.610940000" lon="7.234410000">
        <ele>89</ele>
        <time>2021-04-28T10:07:12Z</time>
      </trkpt>
      <trkpt lat="51.610980000" lon="7.234340000">
        <ele>89</ele>
        <time>2021-04-28T10:07:13Z</time>
      </trkpt>
      <trkpt lat="51.611050000" lon="7.234190000">
        <ele>89</ele>
        <time>2021-04-28T10:07:15Z</time>
      </trkpt>
      <trkpt lat="51.611080000" lon="7.234110000">
        <ele>93</ele>
        <time>2021-04-28T10:07:16Z</time>
      </trkpt>
      <trkpt lat="51.611150000" lon="7.233970000">
        <ele>93</ele>
        <time>2021-04-28T10:07:18Z</time>
      </trkpt>
      <trkpt lat="51.611210000" lon="7.233810000">
        <ele>93</ele>
        <time>2021-04-28T10:07:20Z</time>
      </trkpt>
      <trkpt lat="51.611240000" lon="7.233740000">
        <ele>93</ele>
        <time>2021-04-28T10:07:21Z</time>
      </trkpt>
      <trkpt lat="51.611270000" lon="7.233670000">
        <ele>93</ele>
        <time>2021-04-28T10:07:22Z</time>
      </trkpt>
      <trkpt lat="51.611330000" lon="7.233540000">
        <ele>93</ele>
        <time>2021-04-28T10:07:24Z</time>
      </trkpt>
      <trkpt lat="51.611400000" lon="7.233420000">
        <ele>93</ele>
        <time>2021-04-28T10:07:26Z</time>
      </trkpt>
      <trkpt lat="51.611460000" lon="7.233290000">
        <ele>93</ele>
        <time>2021-04-28T10:07:28Z</time>
      </trkpt>
      <trkpt lat="51.611530000" lon="7.233160000">
        <ele>93</ele>
        <time>2021-04-28T10:07:30Z</time>
      </trkpt>
      <trkpt lat="51.611600000" lon="7.233040000">
        <ele>93</ele>
        <time>2021-04-28T10:07:32Z</time>
      </trkpt>
      <trkpt lat="51.611660000" lon="7.232920000">
        <ele>93</ele>
        <time>2021-04-28T10:07:34Z</time>
      </trkpt>
      <trkpt lat="51.611690000" lon="7.232870000">
        <ele>93</ele>
        <time>2021-04-28T10:07:35Z</time>
      </trkpt>
      <trkpt lat="51.611760000" lon="7.232760000">
        <ele>89</ele>
        <time>2021-04-28T10:07:37Z</time>
      </trkpt>
      <trkpt lat="51.611810000" lon="7.232710000">
        <ele>89</ele>
        <time>2021-04-28T10:07:38Z</time>
      </trkpt>
      <trkpt lat="51.611850000" lon="7.232670000">
        <ele>89</ele>
        <time>2021-04-28T10:07:39Z</time>
      </trkpt>
      <trkpt lat="51.611890000" lon="7.232630000">
        <ele>89</ele>
        <time>2021-04-28T10:07:40Z</time>
      </trkpt>
      <trkpt lat="51.611970000" lon="7.232570000">
        <ele>89</ele>
        <time>2021-04-28T10:07:43Z</time>
      </trkpt>
      <trkpt lat="51.611970000" lon="7.232360000">
        <ele>89</ele>
        <time>2021-04-28T10:07:46Z</time>
      </trkpt>
      <trkpt lat="51.611950000" lon="7.232200000">
        <ele>89</ele>
        <time>2021-04-28T10:07:48Z</time>
      </trkpt>
      <trkpt lat="51.611930000" lon="7.232110000">
        <ele>89</ele>
        <time>2021-04-28T10:07:49Z</time>
      </trkpt>
      <trkpt lat="51.611920000" lon="7.232020000">
        <ele>89</ele>
        <time>2021-04-28T10:07:50Z</time>
      </trkpt>
      <trkpt lat="51.611880000" lon="7.231850000">
        <ele>89</ele>
        <time>2021-04-28T10:07:52Z</time>
      </trkpt>
      <trkpt lat="51.611840000" lon="7.231670000">
        <ele>89</ele>
        <time>2021-04-28T10:07:55Z</time>
      </trkpt>
      <trkpt lat="51.611820000" lon="7.231490000">
        <ele>89</ele>
        <time>2021-04-28T10:07:57Z</time>
      </trkpt>
      <trkpt lat="51.611800000" lon="7.231330000">
        <ele>89</ele>
        <time>2021-04-28T10:07:59Z</time>
      </trkpt>
      <trkpt lat="51.611770000" lon="7.231180000">
        <ele>91</ele>
        <time>2021-04-28T10:08:00Z</time>
      </trkpt>
      <trkpt lat="51.611750000" lon="7.231070000">
        <ele>91</ele>
        <time>2021-04-28T10:08:02Z</time>
      </trkpt>
      <trkpt lat="51.611720000" lon="7.230930000">
        <ele>91</ele>
        <time>2021-04-28T10:08:04Z</time>
      </trkpt>
      <trkpt lat="51.611690000" lon="7.230790000">
        <ele>91</ele>
        <time>2021-04-28T10:08:06Z</time>
      </trkpt>
      <trkpt lat="51.611660000" lon="7.230650000">
        <ele>91</ele>
        <time>2021-04-28T10:08:08Z</time>
      </trkpt>
      <trkpt lat="51.611660000" lon="7.230570000">
        <ele>91</ele>
        <time>2021-04-28T10:08:09Z</time>
      </trkpt>
      <trkpt lat="51.611650000" lon="7.230420000">
        <ele>91</ele>
        <time>2021-04-28T10:08:11Z</time>
      </trkpt>
      <trkpt lat="51.611640000" lon="7.230330000">
        <ele>91</ele>
        <time>2021-04-28T10:08:12Z</time>
      </trkpt>
      <trkpt lat="51.611630000" lon="7.230180000">
        <ele>91</ele>
        <time>2021-04-28T10:08:13Z</time>
      </trkpt>
      <trkpt lat="51.611630000" lon="7.230090000">
        <ele>91</ele>
        <time>2021-04-28T10:08:14Z</time>
      </trkpt>
      <trkpt lat="51.611640000" lon="7.229990000">
        <ele>91</ele>
        <time>2021-04-28T10:08:15Z</time>
      </trkpt>
      <trkpt lat="51.611640000" lon="7.229850000">
        <ele>91</ele>
        <time>2021-04-28T10:08:18Z</time>
      </trkpt>
      <trkpt lat="51.611650000" lon="7.229690000">
        <ele>91</ele>
        <time>2021-04-28T10:08:20Z</time>
      </trkpt>
      <trkpt lat="51.611670000" lon="7.229510000">
        <ele>91</ele>
        <time>2021-04-28T10:08:22Z</time>
      </trkpt>
      <trkpt lat="51.611680000" lon="7.229320000">
        <ele>97</ele>
        <time>2021-04-28T10:08:23Z</time>
      </trkpt>
      <trkpt lat="51.611680000" lon="7.229220000">
        <ele>97</ele>
        <time>2021-04-28T10:08:25Z</time>
      </trkpt>
      <trkpt lat="51.611670000" lon="7.229010000">
        <ele>97</ele>
        <time>2021-04-28T10:08:27Z</time>
      </trkpt>
      <trkpt lat="51.611680000" lon="7.228820000">
        <ele>97</ele>
        <time>2021-04-28T10:08:28Z</time>
      </trkpt>
      <trkpt lat="51.611680000" lon="7.228720000">
        <ele>97</ele>
        <time>2021-04-28T10:08:29Z</time>
      </trkpt>
      <trkpt lat="51.611700000" lon="7.228610000">
        <ele>97</ele>
        <time>2021-04-28T10:08:30Z</time>
      </trkpt>
      <trkpt lat="51.611700000" lon="7.228500000">
        <ele>97</ele>
        <time>2021-04-28T10:08:31Z</time>
      </trkpt>
      <trkpt lat="51.611700000" lon="7.228400000">
        <ele>97</ele>
        <time>2021-04-28T10:08:32Z</time>
      </trkpt>
      <trkpt lat="51.611690000" lon="7.228300000">
        <ele>97</ele>
        <time>2021-04-28T10:08:33Z</time>
      </trkpt>
      <trkpt lat="51.611690000" lon="7.228090000">
        <ele>97</ele>
        <time>2021-04-28T10:08:35Z</time>
      </trkpt>
      <trkpt lat="51.611690000" lon="7.227980000">
        <ele>97</ele>
        <time>2021-04-28T10:08:36Z</time>
      </trkpt>
      <trkpt lat="51.611710000" lon="7.227870000">
        <ele>97</ele>
        <time>2021-04-28T10:08:37Z</time>
      </trkpt>
      <trkpt lat="51.611740000" lon="7.227630000">
        <ele>97</ele>
        <time>2021-04-28T10:08:39Z</time>
      </trkpt>
      <trkpt lat="51.611760000" lon="7.227510000">
        <ele>97</ele>
        <time>2021-04-28T10:08:40Z</time>
      </trkpt>
      <trkpt lat="51.611800000" lon="7.227250000">
        <ele>97</ele>
        <time>2021-04-28T10:08:42Z</time>
      </trkpt>
      <trkpt lat="51.611820000" lon="7.227120000">
        <ele>88</ele>
        <time>2021-04-28T10:08:43Z</time>
      </trkpt>
      <trkpt lat="51.611840000" lon="7.226980000">
        <ele>88</ele>
        <time>2021-04-28T10:08:44Z</time>
      </trkpt>
      <trkpt lat="51.611860000" lon="7.226830000">
        <ele>88</ele>
        <time>2021-04-28T10:08:45Z</time>
      </trkpt>
      <trkpt lat="51.611890000" lon="7.226550000">
        <ele>88</ele>
        <time>2021-04-28T10:08:47Z</time>
      </trkpt>
      <trkpt lat="51.611890000" lon="7.226410000">
        <ele>88</ele>
        <time>2021-04-28T10:08:48Z</time>
      </trkpt>
      <trkpt lat="51.611900000" lon="7.226290000">
        <ele>88</ele>
        <time>2021-04-28T10:08:49Z</time>
      </trkpt>
      <trkpt lat="51.611900000" lon="7.226100000">
        <ele>88</ele>
        <time>2021-04-28T10:08:51Z</time>
      </trkpt>
      <trkpt lat="51.611910000" lon="7.226010000">
        <ele>88</ele>
        <time>2021-04-28T10:08:52Z</time>
      </trkpt>
      <trkpt lat="51.611920000" lon="7.225840000">
        <ele>88</ele>
        <time>2021-04-28T10:08:54Z</time>
      </trkpt>
      <trkpt lat="51.611920000" lon="7.225750000">
        <ele>88</ele>
        <time>2021-04-28T10:08:55Z</time>
      </trkpt>
      <trkpt lat="51.611920000" lon="7.225640000">
        <ele>88</ele>
        <time>2021-04-28T10:08:56Z</time>
      </trkpt>
      <trkpt lat="51.611930000" lon="7.225450000">
        <ele>88</ele>
        <time>2021-04-28T10:08:58Z</time>
      </trkpt>
      <trkpt lat="51.611920000" lon="7.225340000">
        <ele>88</ele>
        <time>2021-04-28T10:08:59Z</time>
      </trkpt>
      <trkpt lat="51.611920000" lon="7.225130000">
        <ele>81</ele>
        <time>2021-04-28T10:09:01Z</time>
      </trkpt>
      <trkpt lat="51.611910000" lon="7.225020000">
        <ele>81</ele>
        <time>2021-04-28T10:09:02Z</time>
      </trkpt>
      <trkpt lat="51.611900000" lon="7.224800000">
        <ele>81</ele>
        <time>2021-04-28T10:09:04Z</time>
      </trkpt>
      <trkpt lat="51.611910000" lon="7.224680000">
        <ele>81</ele>
        <time>2021-04-28T10:09:05Z</time>
      </trkpt>
      <trkpt lat="51.611910000" lon="7.224560000">
        <ele>81</ele>
        <time>2021-04-28T10:09:06Z</time>
      </trkpt>
      <trkpt lat="51.611910000" lon="7.224310000">
        <ele>81</ele>
        <time>2021-04-28T10:09:08Z</time>
      </trkpt>
      <trkpt lat="51.611910000" lon="7.224050000">
        <ele>81</ele>
        <time>2021-04-28T10:09:10Z</time>
      </trkpt>
      <trkpt lat="51.611910000" lon="7.223940000">
        <ele>81</ele>
        <time>2021-04-28T10:09:11Z</time>
      </trkpt>
      <trkpt lat="51.611900000" lon="7.223830000">
        <ele>81</ele>
        <time>2021-04-28T10:09:12Z</time>
      </trkpt>
      <trkpt lat="51.611890000" lon="7.223730000">
        <ele>81</ele>
        <time>2021-04-28T10:09:13Z</time>
      </trkpt>
      <trkpt lat="51.611900000" lon="7.223530000">
        <ele>82</ele>
        <time>2021-04-28T10:09:15Z</time>
      </trkpt>
      <trkpt lat="51.611920000" lon="7.223450000">
        <ele>82</ele>
        <time>2021-04-28T10:09:16Z</time>
      </trkpt>
      <trkpt lat="51.611940000" lon="7.223380000">
        <ele>82</ele>
        <time>2021-04-28T10:09:18Z</time>
      </trkpt>
      <trkpt lat="51.611900000" lon="7.223240000">
        <ele>82</ele>
        <time>2021-04-28T10:09:43Z</time>
      </trkpt>
      <trkpt lat="51.611800000" lon="7.223180000">
        <ele>82</ele>
        <time>2021-04-28T10:09:45Z</time>
      </trkpt>
      <trkpt lat="51.611730000" lon="7.223180000">
        <ele>82</ele>
        <time>2021-04-28T10:09:46Z</time>
      </trkpt>
      <trkpt lat="51.611650000" lon="7.223150000">
        <ele>82</ele>
        <time>2021-04-28T10:09:48Z</time>
      </trkpt>
      <trkpt lat="51.611540000" lon="7.223110000">
        <ele>82</ele>
        <time>2021-04-28T10:09:49Z</time>
      </trkpt>
      <trkpt lat="51.611400000" lon="7.223060000">
        <ele>82</ele>
        <time>2021-04-28T10:09:51Z</time>
      </trkpt>
      <trkpt lat="51.611350000" lon="7.223050000">
        <ele>82</ele>
        <time>2021-04-28T10:09:52Z</time>
      </trkpt>
      <trkpt lat="51.611300000" lon="7.223030000">
        <ele>82</ele>
        <time>2021-04-28T10:09:53Z</time>
      </trkpt>
      <trkpt lat="51.611280000" lon="7.222900000">
        <ele>72</ele>
        <time>2021-04-28T10:09:56Z</time>
      </trkpt>
      <trkpt lat="51.611300000" lon="7.222770000">
        <ele>72</ele>
        <time>2021-04-28T10:09:57Z</time>
      </trkpt>
      <trkpt lat="51.611320000" lon="7.222680000">
        <ele>72</ele>
        <time>2021-04-28T10:09:58Z</time>
      </trkpt>
      <trkpt lat="51.611350000" lon="7.222490000">
        <ele>72</ele>
        <time>2021-04-28T10:10:00Z</time>
      </trkpt>
      <trkpt lat="51.611370000" lon="7.222390000">
        <ele>72</ele>
        <time>2021-04-28T10:10:01Z</time>
      </trkpt>
      <trkpt lat="51.611390000" lon="7.222280000">
        <ele>72</ele>
        <time>2021-04-28T10:10:02Z</time>
      </trkpt>
      <trkpt lat="51.611410000" lon="7.222060000">
        <ele>72</ele>
        <time>2021-04-28T10:10:04Z</time>
      </trkpt>
      <trkpt lat="51.611410000" lon="7.221950000">
        <ele>72</ele>
        <time>2021-04-28T10:10:05Z</time>
      </trkpt>
      <trkpt lat="51.611420000" lon="7.221850000">
        <ele>72</ele>
        <time>2021-04-28T10:10:06Z</time>
      </trkpt>
      <trkpt lat="51.611430000" lon="7.221740000">
        <ele>72</ele>
        <time>2021-04-28T10:10:07Z</time>
      </trkpt>
      <trkpt lat="51.611420000" lon="7.221640000">
        <ele>72</ele>
        <time>2021-04-28T10:10:08Z</time>
      </trkpt>
      <trkpt lat="51.611400000" lon="7.221430000">
        <ele>72</ele>
        <time>2021-04-28T10:10:10Z</time>
      </trkpt>
      <trkpt lat="51.611380000" lon="7.221310000">
        <ele>72</ele>
        <time>2021-04-28T10:10:11Z</time>
      </trkpt>
      <trkpt lat="51.611370000" lon="7.221210000">
        <ele>72</ele>
        <time>2021-04-28T10:10:12Z</time>
      </trkpt>
      <trkpt lat="51.611340000" lon="7.220980000">
        <ele>70</ele>
        <time>2021-04-28T10:10:14Z</time>
      </trkpt>
      <trkpt lat="51.611330000" lon="7.220870000">
        <ele>70</ele>
        <time>2021-04-28T10:10:15Z</time>
      </trkpt>
      <trkpt lat="51.611300000" lon="7.220770000">
        <ele>70</ele>
        <time>2021-04-28T10:10:16Z</time>
      </trkpt>
      <trkpt lat="51.611230000" lon="7.220580000">
        <ele>70</ele>
        <time>2021-04-28T10:10:18Z</time>
      </trkpt>
      <trkpt lat="51.611180000" lon="7.220500000">
        <ele>70</ele>
        <time>2021-04-28T10:10:19Z</time>
      </trkpt>
      <trkpt lat="51.611140000" lon="7.220430000">
        <ele>70</ele>
        <time>2021-04-28T10:10:20Z</time>
      </trkpt>
      <trkpt lat="51.611040000" lon="7.220280000">
        <ele>70</ele>
        <time>2021-04-28T10:10:22Z</time>
      </trkpt>
      <trkpt lat="51.610980000" lon="7.220210000">
        <ele>70</ele>
        <time>2021-04-28T10:10:24Z</time>
      </trkpt>
      <trkpt lat="51.610860000" lon="7.220080000">
        <ele>70</ele>
        <time>2021-04-28T10:10:27Z</time>
      </trkpt>
      <trkpt lat="51.610740000" lon="7.220020000">
        <ele>70</ele>
        <time>2021-04-28T10:10:29Z</time>
      </trkpt>
      <trkpt lat="51.610660000" lon="7.219970000">
        <ele>70</ele>
        <time>2021-04-28T10:10:31Z</time>
      </trkpt>
      <trkpt lat="51.610600000" lon="7.219930000">
        <ele>70</ele>
        <time>2021-04-28T10:10:33Z</time>
      </trkpt>
      <trkpt lat="51.610600000" lon="7.219810000">
        <ele>72</ele>
        <time>2021-04-28T10:10:34Z</time>
      </trkpt>
      <trkpt lat="51.610620000" lon="7.219710000">
        <ele>72</ele>
        <time>2021-04-28T10:10:35Z</time>
      </trkpt>
      <trkpt lat="51.610630000" lon="7.219620000">
        <ele>72</ele>
        <time>2021-04-28T10:10:36Z</time>
      </trkpt>
      <trkpt lat="51.610640000" lon="7.219420000">
        <ele>72</ele>
        <time>2021-04-28T10:10:38Z</time>
      </trkpt>
      <trkpt lat="51.610640000" lon="7.219310000">
        <ele>72</ele>
        <time>2021-04-28T10:10:39Z</time>
      </trkpt>
      <trkpt lat="51.610640000" lon="7.219090000">
        <ele>72</ele>
        <time>2021-04-28T10:10:41Z</time>
      </trkpt>
      <trkpt lat="51.610620000" lon="7.218990000">
        <ele>72</ele>
        <time>2021-04-28T10:10:42Z</time>
      </trkpt>
      <trkpt lat="51.610580000" lon="7.218790000">
        <ele>72</ele>
        <time>2021-04-28T10:10:44Z</time>
      </trkpt>
      <trkpt lat="51.610550000" lon="7.218580000">
        <ele>72</ele>
        <time>2021-04-28T10:10:46Z</time>
      </trkpt>
      <trkpt lat="51.610530000" lon="7.218470000">
        <ele>72</ele>
        <time>2021-04-28T10:10:47Z</time>
      </trkpt>
      <trkpt lat="51.610490000" lon="7.218270000">
        <ele>72</ele>
        <time>2021-04-28T10:10:49Z</time>
      </trkpt>
      <trkpt lat="51.610470000" lon="7.218160000">
        <ele>72</ele>
        <time>2021-04-28T10:10:50Z</time>
      </trkpt>
      <trkpt lat="51.610440000" lon="7.218050000">
        <ele>72</ele>
        <time>2021-04-28T10:10:51Z</time>
      </trkpt>
      <trkpt lat="51.610420000" lon="7.217950000">
        <ele>72</ele>
        <time>2021-04-28T10:10:52Z</time>
      </trkpt>
      <trkpt lat="51.610400000" lon="7.217840000">
        <ele>72</ele>
        <time>2021-04-28T10:10:53Z</time>
      </trkpt>
      <trkpt lat="51.610370000" lon="7.217730000">
        <ele>72</ele>
        <time>2021-04-28T10:10:54Z</time>
      </trkpt>
      <trkpt lat="51.610330000" lon="7.217510000">
        <ele>72</ele>
        <time>2021-04-28T10:10:56Z</time>
      </trkpt>
      <trkpt lat="51.610310000" lon="7.217400000">
        <ele>72</ele>
        <time>2021-04-28T10:10:57Z</time>
      </trkpt>
      <trkpt lat="51.610220000" lon="7.217230000">
        <ele>72</ele>
        <time>2021-04-28T10:10:59Z</time>
      </trkpt>
      <trkpt lat="51.610090000" lon="7.217130000">
        <ele>72</ele>
        <time>2021-04-28T10:11:01Z</time>
      </trkpt>
      <trkpt lat="51.610020000" lon="7.217110000">
        <ele>72</ele>
        <time>2021-04-28T10:11:02Z</time>
      </trkpt>
      <trkpt lat="51.609880000" lon="7.217110000">
        <ele>72</ele>
        <time>2021-04-28T10:11:04Z</time>
      </trkpt>
      <trkpt lat="51.609780000" lon="7.217090000">
        <ele>72</ele>
        <time>2021-04-28T10:11:06Z</time>
      </trkpt>
      <trkpt lat="51.609720000" lon="7.217070000">
        <ele>72</ele>
        <time>2021-04-28T10:11:08Z</time>
      </trkpt>
      <trkpt lat="51.609640000" lon="7.217030000">
        <ele>70</ele>
        <time>2021-04-28T10:11:10Z</time>
      </trkpt>
      <trkpt lat="51.609600000" lon="7.216890000">
        <ele>70</ele>
        <time>2021-04-28T10:11:12Z</time>
      </trkpt>
      <trkpt lat="51.609590000" lon="7.216810000">
        <ele>70</ele>
        <time>2021-04-28T10:11:13Z</time>
      </trkpt>
      <trkpt lat="51.609590000" lon="7.216700000">
        <ele>70</ele>
        <time>2021-04-28T10:11:14Z</time>
      </trkpt>
      <trkpt lat="51.609580000" lon="7.216490000">
        <ele>70</ele>
        <time>2021-04-28T10:11:16Z</time>
      </trkpt>
      <trkpt lat="51.609570000" lon="7.216380000">
        <ele>70</ele>
        <time>2021-04-28T10:11:17Z</time>
      </trkpt>
      <trkpt lat="51.609550000" lon="7.216280000">
        <ele>70</ele>
        <time>2021-04-28T10:11:18Z</time>
      </trkpt>
      <trkpt lat="51.609550000" lon="7.216160000">
        <ele>70</ele>
        <time>2021-04-28T10:11:19Z</time>
      </trkpt>
      <trkpt lat="51.609530000" lon="7.215940000">
        <ele>70</ele>
        <time>2021-04-28T10:11:21Z</time>
      </trkpt>
      <trkpt lat="51.609520000" lon="7.215730000">
        <ele>70</ele>
        <time>2021-04-28T10:11:23Z</time>
      </trkpt>
      <trkpt lat="51.609510000" lon="7.215560000">
        <ele>70</ele>
        <time>2021-04-28T10:11:25Z</time>
      </trkpt>
      <trkpt lat="51.609480000" lon="7.215430000">
        <ele>70</ele>
        <time>2021-04-28T10:11:27Z</time>
      </trkpt>
      <trkpt lat="51.609470000" lon="7.215340000">
        <ele>70</ele>
        <time>2021-04-28T10:11:28Z</time>
      </trkpt>
      <trkpt lat="51.609450000" lon="7.215220000">
        <ele>63</ele>
        <time>2021-04-28T10:11:31Z</time>
      </trkpt>
      <trkpt lat="51.609390000" lon="7.215140000">
        <ele>63</ele>
        <time>2021-04-28T10:11:32Z</time>
      </trkpt>
      <trkpt lat="51.609340000" lon="7.215160000">
        <ele>63</ele>
        <time>2021-04-28T10:11:34Z</time>
      </trkpt>
      <trkpt lat="51.609200000" lon="7.215130000">
        <ele>63</ele>
        <time>2021-04-28T10:11:36Z</time>
      </trkpt>
      <trkpt lat="51.609080000" lon="7.215050000">
        <ele>63</ele>
        <time>2021-04-28T10:11:37Z</time>
      </trkpt>
      <trkpt lat="51.609020000" lon="7.215010000">
        <ele>63</ele>
        <time>2021-04-28T10:11:39Z</time>
      </trkpt>
      <trkpt lat="51.608900000" lon="7.214930000">
        <ele>63</ele>
        <time>2021-04-28T10:11:40Z</time>
      </trkpt>
      <trkpt lat="51.608840000" lon="7.214870000">
        <ele>63</ele>
        <time>2021-04-28T10:11:41Z</time>
      </trkpt>
      <trkpt lat="51.608800000" lon="7.214810000">
        <ele>63</ele>
        <time>2021-04-28T10:11:42Z</time>
      </trkpt>
      <trkpt lat="51.608710000" lon="7.214710000">
        <ele>63</ele>
        <time>2021-04-28T10:11:44Z</time>
      </trkpt>
      <trkpt lat="51.608590000" lon="7.214590000">
        <ele>63</ele>
        <time>2021-04-28T10:11:46Z</time>
      </trkpt>
      <trkpt lat="51.608530000" lon="7.214560000">
        <ele>63</ele>
        <time>2021-04-28T10:11:47Z</time>
      </trkpt>
      <trkpt lat="51.608400000" lon="7.214530000">
        <ele>65</ele>
        <time>2021-04-28T10:11:49Z</time>
      </trkpt>
      <trkpt lat="51.608300000" lon="7.214540000">
        <ele>65</ele>
        <time>2021-04-28T10:11:51Z</time>
      </trkpt>
      <trkpt lat="51.608170000" lon="7.214570000">
        <ele>65</ele>
        <time>2021-04-28T10:11:54Z</time>
      </trkpt>
      <trkpt lat="51.608080000" lon="7.214460000">
        <ele>65</ele>
        <time>2021-04-28T10:11:57Z</time>
      </trkpt>
      <trkpt lat="51.608060000" lon="7.214380000">
        <ele>65</ele>
        <time>2021-04-28T10:11:58Z</time>
      </trkpt>
      <trkpt lat="51.608050000" lon="7.214280000">
        <ele>65</ele>
        <time>2021-04-28T10:11:59Z</time>
      </trkpt>
      <trkpt lat="51.608010000" lon="7.214070000">
        <ele>65</ele>
        <time>2021-04-28T10:12:01Z</time>
      </trkpt>
      <trkpt lat="51.607960000" lon="7.213870000">
        <ele>65</ele>
        <time>2021-04-28T10:12:03Z</time>
      </trkpt>
      <trkpt lat="51.607940000" lon="7.213750000">
        <ele>65</ele>
        <time>2021-04-28T10:12:05Z</time>
      </trkpt>
      <trkpt lat="51.607940000" lon="7.213630000">
        <ele>65</ele>
        <time>2021-04-28T10:12:08Z</time>
      </trkpt>
      <trkpt lat="51.607900000" lon="7.213460000">
        <ele>61</ele>
        <time>2021-04-28T10:12:10Z</time>
      </trkpt>
      <trkpt lat="51.607850000" lon="7.213290000">
        <ele>61</ele>
        <time>2021-04-28T10:12:12Z</time>
      </trkpt>
      <trkpt lat="51.607810000" lon="7.213100000">
        <ele>61</ele>
        <time>2021-04-28T10:12:14Z</time>
      </trkpt>
      <trkpt lat="51.607790000" lon="7.213010000">
        <ele>61</ele>
        <time>2021-04-28T10:12:15Z</time>
      </trkpt>
      <trkpt lat="51.607740000" lon="7.212830000">
        <ele>61</ele>
        <time>2021-04-28T10:12:17Z</time>
      </trkpt>
      <trkpt lat="51.607720000" lon="7.212740000">
        <ele>61</ele>
        <time>2021-04-28T10:12:18Z</time>
      </trkpt>
      <trkpt lat="51.607690000" lon="7.212640000">
        <ele>61</ele>
        <time>2021-04-28T10:12:19Z</time>
      </trkpt>
      <trkpt lat="51.607630000" lon="7.212470000">
        <ele>61</ele>
        <time>2021-04-28T10:12:21Z</time>
      </trkpt>
      <trkpt lat="51.607580000" lon="7.212390000">
        <ele>61</ele>
        <time>2021-04-28T10:12:22Z</time>
      </trkpt>
      <trkpt lat="51.607530000" lon="7.212320000">
        <ele>64</ele>
        <time>2021-04-28T10:12:23Z</time>
      </trkpt>
      <trkpt lat="51.607490000" lon="7.212250000">
        <ele>64</ele>
        <time>2021-04-28T10:12:24Z</time>
      </trkpt>
      <trkpt lat="51.607420000" lon="7.212120000">
        <ele>64</ele>
        <time>2021-04-28T10:12:26Z</time>
      </trkpt>
      <trkpt lat="51.607390000" lon="7.212000000">
        <ele>64</ele>
        <time>2021-04-28T10:12:28Z</time>
      </trkpt>
      <trkpt lat="51.607450000" lon="7.211880000">
        <ele>64</ele>
        <time>2021-04-28T10:12:33Z</time>
      </trkpt>
      <trkpt lat="51.607510000" lon="7.211820000">
        <ele>64</ele>
        <time>2021-04-28T10:12:35Z</time>
      </trkpt>
      <trkpt lat="51.607570000" lon="7.211720000">
        <ele>64</ele>
        <time>2021-04-28T10:12:37Z</time>
      </trkpt>
      <trkpt lat="51.607640000" lon="7.211630000">
        <ele>64</ele>
        <time>2021-04-28T10:12:39Z</time>
      </trkpt>
      <trkpt lat="51.607710000" lon="7.211550000">
        <ele>64</ele>
        <time>2021-04-28T10:12:41Z</time>
      </trkpt>
      <trkpt lat="51.607780000" lon="7.211460000">
        <ele>64</ele>
        <time>2021-04-28T10:12:43Z</time>
      </trkpt>
      <trkpt lat="51.607850000" lon="7.211370000">
        <ele>64</ele>
        <time>2021-04-28T10:12:45Z</time>
      </trkpt>
      <trkpt lat="51.607940000" lon="7.211290000">
        <ele>62</ele>
        <time>2021-04-28T10:12:48Z</time>
      </trkpt>
      <trkpt lat="51.607990000" lon="7.211180000">
        <ele>62</ele>
        <time>2021-04-28T10:12:51Z</time>
      </trkpt>
      <trkpt lat="51.608030000" lon="7.211120000">
        <ele>62</ele>
        <time>2021-04-28T10:13:28Z</time>
      </trkpt>
      <trkpt lat="51.608080000" lon="7.211060000">
        <ele>62</ele>
        <time>2021-04-28T10:13:30Z</time>
      </trkpt>
      <trkpt lat="51.608090000" lon="7.210980000">
        <ele>62</ele>
        <time>2021-04-28T10:13:31Z</time>
      </trkpt>
      <trkpt lat="51.608140000" lon="7.210880000">
        <ele>62</ele>
        <time>2021-04-28T10:13:33Z</time>
      </trkpt>
      <trkpt lat="51.608200000" lon="7.210780000">
        <ele>62</ele>
        <time>2021-04-28T10:13:36Z</time>
      </trkpt>
      <trkpt lat="51.608190000" lon="7.210700000">
        <ele>62</ele>
        <time>2021-04-28T10:13:37Z</time>
      </trkpt>
      <trkpt lat="51.608090000" lon="7.210750000">
        <ele>62</ele>
        <time>2021-04-28T10:13:40Z</time>
      </trkpt>
      <trkpt lat="51.608030000" lon="7.210870000">
        <ele>62</ele>
        <time>2021-04-28T10:13:42Z</time>
      </trkpt>
      <trkpt lat="51.607910000" lon="7.211050000">
        <ele>62</ele>
        <time>2021-04-28T10:13:44Z</time>
      </trkpt>
      <trkpt lat="51.607820000" lon="7.211170000">
        <ele>62</ele>
        <time>2021-04-28T10:13:45Z</time>
      </trkpt>
      <trkpt lat="51.607760000" lon="7.211250000">
        <ele>62</ele>
        <time>2021-04-28T10:13:46Z</time>
      </trkpt>
      <trkpt lat="51.607720000" lon="7.211310000">
        <ele>62</ele>
        <time>2021-04-28T10:13:48Z</time>
      </trkpt>
      <trkpt lat="51.607680000" lon="7.211350000">
        <ele>62</ele>
        <time>2021-04-28T10:13:49Z</time>
      </trkpt>
      <trkpt lat="51.607590000" lon="7.211430000">
        <ele>62</ele>
        <time>2021-04-28T10:13:51Z</time>
      </trkpt>
      <trkpt lat="51.607500000" lon="7.211510000">
        <ele>65</ele>
        <time>2021-04-28T10:13:52Z</time>
      </trkpt>
      <trkpt lat="51.607450000" lon="7.211570000">
        <ele>65</ele>
        <time>2021-04-28T10:13:53Z</time>
      </trkpt>
      <trkpt lat="51.607390000" lon="7.211600000">
        <ele>65</ele>
        <time>2021-04-28T10:13:54Z</time>
      </trkpt>
      <trkpt lat="51.607320000" lon="7.211590000">
        <ele>65</ele>
        <time>2021-04-28T10:13:56Z</time>
      </trkpt>
      <trkpt lat="51.607270000" lon="7.211540000">
        <ele>65</ele>
        <time>2021-04-28T10:13:58Z</time>
      </trkpt>
      <trkpt lat="51.607280000" lon="7.211460000">
        <ele>65</ele>
        <time>2021-04-28T10:14:03Z</time>
      </trkpt>
      <trkpt lat="51.607250000" lon="7.211400000">
        <ele>65</ele>
        <time>2021-04-28T10:14:06Z</time>
      </trkpt>
      <trkpt lat="51.607190000" lon="7.211280000">
        <ele>65</ele>
        <time>2021-04-28T10:14:09Z</time>
      </trkpt>
      <trkpt lat="51.607120000" lon="7.211140000">
        <ele>65</ele>
        <time>2021-04-28T10:14:10Z</time>
      </trkpt>
      <trkpt lat="51.607040000" lon="7.211010000">
        <ele>65</ele>
        <time>2021-04-28T10:14:12Z</time>
      </trkpt>
      <trkpt lat="51.606950000" lon="7.210830000">
        <ele>61</ele>
        <time>2021-04-28T10:14:14Z</time>
      </trkpt>
      <trkpt lat="51.606920000" lon="7.210760000">
        <ele>61</ele>
        <time>2021-04-28T10:14:15Z</time>
      </trkpt>
      <trkpt lat="51.606850000" lon="7.210600000">
        <ele>61</ele>
        <time>2021-04-28T10:14:18Z</time>
      </trkpt>
      <trkpt lat="51.606770000" lon="7.210440000">
        <ele>61</ele>
        <time>2021-04-28T10:14:20Z</time>
      </trkpt>
      <trkpt lat="51.606710000" lon="7.210300000">
        <ele>61</ele>
        <time>2021-04-28T10:14:21Z</time>
      </trkpt>
      <trkpt lat="51.606660000" lon="7.210200000">
        <ele>61</ele>
        <time>2021-04-28T10:14:23Z</time>
      </trkpt>
      <trkpt lat="51.606620000" lon="7.210140000">
        <ele>61</ele>
        <time>2021-04-28T10:14:24Z</time>
      </trkpt>
      <trkpt lat="51.606570000" lon="7.210000000">
        <ele>61</ele>
        <time>2021-04-28T10:14:26Z</time>
      </trkpt>
      <trkpt lat="51.606520000" lon="7.209840000">
        <ele>61</ele>
        <time>2021-04-28T10:14:28Z</time>
      </trkpt>
      <trkpt lat="51.606470000" lon="7.209680000">
        <ele>61</ele>
        <time>2021-04-28T10:14:30Z</time>
      </trkpt>
      <trkpt lat="51.606420000" lon="7.209550000">
        <ele>62</ele>
        <time>2021-04-28T10:14:32Z</time>
      </trkpt>
      <trkpt lat="51.606420000" lon="7.209440000">
        <ele>62</ele>
        <time>2021-04-28T10:14:35Z</time>
      </trkpt>
      <trkpt lat="51.606370000" lon="7.209470000">
        <ele>62</ele>
        <time>2021-04-28T10:14:45Z</time>
      </trkpt>
      <trkpt lat="51.606330000" lon="7.209640000">
        <ele>62</ele>
        <time>2021-04-28T10:14:49Z</time>
      </trkpt>
      <trkpt lat="51.606300000" lon="7.209700000">
        <ele>62</ele>
        <time>2021-04-28T10:14:51Z</time>
      </trkpt>
      <trkpt lat="51.606280000" lon="7.209770000">
        <ele>62</ele>
        <time>2021-04-28T10:16:16Z</time>
      </trkpt>
      <trkpt lat="51.606200000" lon="7.209880000">
        <ele>62</ele>
        <time>2021-04-28T10:16:21Z</time>
      </trkpt>
      <trkpt lat="51.606140000" lon="7.209940000">
        <ele>62</ele>
        <time>2021-04-28T10:16:22Z</time>
      </trkpt>
      <trkpt lat="51.606050000" lon="7.210050000">
        <ele>62</ele>
        <time>2021-04-28T10:16:24Z</time>
      </trkpt>
      <trkpt lat="51.605970000" lon="7.210170000">
        <ele>62</ele>
        <time>2021-04-28T10:16:26Z</time>
      </trkpt>
      <trkpt lat="51.605920000" lon="7.210210000">
        <ele>62</ele>
        <time>2021-04-28T10:16:27Z</time>
      </trkpt>
      <trkpt lat="51.605810000" lon="7.210330000">
        <ele>62</ele>
        <time>2021-04-28T10:16:29Z</time>
      </trkpt>
      <trkpt lat="51.605770000" lon="7.210380000">
        <ele>62</ele>
        <time>2021-04-28T10:16:30Z</time>
      </trkpt>
      <trkpt lat="51.605670000" lon="7.210500000">
        <ele>60</ele>
        <time>2021-04-28T10:16:32Z</time>
      </trkpt>
      <trkpt lat="51.605570000" lon="7.210630000">
        <ele>60</ele>
        <time>2021-04-28T10:16:34Z</time>
      </trkpt>
      <trkpt lat="51.605470000" lon="7.210760000">
        <ele>60</ele>
        <time>2021-04-28T10:16:36Z</time>
      </trkpt>
      <trkpt lat="51.605420000" lon="7.210820000">
        <ele>60</ele>
        <time>2021-04-28T10:16:37Z</time>
      </trkpt>
      <trkpt lat="51.605320000" lon="7.210950000">
        <ele>60</ele>
        <time>2021-04-28T10:16:39Z</time>
      </trkpt>
      <trkpt lat="51.605270000" lon="7.211000000">
        <ele>60</ele>
        <time>2021-04-28T10:16:40Z</time>
      </trkpt>
      <trkpt lat="51.605170000" lon="7.211090000">
        <ele>60</ele>
        <time>2021-04-28T10:16:42Z</time>
      </trkpt>
      <trkpt lat="51.605070000" lon="7.211160000">
        <ele>60</ele>
        <time>2021-04-28T10:16:44Z</time>
      </trkpt>
      <trkpt lat="51.605000000" lon="7.211190000">
        <ele>60</ele>
        <time>2021-04-28T10:16:46Z</time>
      </trkpt>
      <trkpt lat="51.604960000" lon="7.211110000">
        <ele>60</ele>
        <time>2021-04-28T10:16:48Z</time>
      </trkpt>
      <trkpt lat="51.604930000" lon="7.210980000">
        <ele>60</ele>
        <time>2021-04-28T10:16:50Z</time>
      </trkpt>
      <trkpt lat="51.604920000" lon="7.210820000">
        <ele>60</ele>
        <time>2021-04-28T10:16:52Z</time>
      </trkpt>
      <trkpt lat="51.604920000" lon="7.210720000">
        <ele>60</ele>
        <time>2021-04-28T10:16:53Z</time>
      </trkpt>
      <trkpt lat="51.604950000" lon="7.210520000">
        <ele>60</ele>
        <time>2021-04-28T10:16:55Z</time>
      </trkpt>
      <trkpt lat="51.604980000" lon="7.210320000">
        <ele>60</ele>
        <time>2021-04-28T10:16:57Z</time>
      </trkpt>
      <trkpt lat="51.605000000" lon="7.210220000">
        <ele>60</ele>
        <time>2021-04-28T10:16:58Z</time>
      </trkpt>
      <trkpt lat="51.605040000" lon="7.210000000">
        <ele>60</ele>
        <time>2021-04-28T10:17:00Z</time>
      </trkpt>
      <trkpt lat="51.605060000" lon="7.209900000">
        <ele>60</ele>
        <time>2021-04-28T10:17:01Z</time>
      </trkpt>
      <trkpt lat="51.605050000" lon="7.209700000">
        <ele>60</ele>
        <time>2021-04-28T10:17:03Z</time>
      </trkpt>
      <trkpt lat="51.605020000" lon="7.209610000">
        <ele>60</ele>
        <time>2021-04-28T10:17:04Z</time>
      </trkpt>
      <trkpt lat="51.604980000" lon="7.209530000">
        <ele>60</ele>
        <time>2021-04-28T10:17:05Z</time>
      </trkpt>
      <trkpt lat="51.604940000" lon="7.209460000">
        <ele>60</ele>
        <time>2021-04-28T10:17:06Z</time>
      </trkpt>
      <trkpt lat="51.604890000" lon="7.209290000">
        <ele>60</ele>
        <time>2021-04-28T10:17:08Z</time>
      </trkpt>
      <trkpt lat="51.604880000" lon="7.209160000">
        <ele>60</ele>
        <time>2021-04-28T10:17:10Z</time>
      </trkpt>
      <trkpt lat="51.604880000" lon="7.209080000">
        <ele>60</ele>
        <time>2021-04-28T10:17:11Z</time>
      </trkpt>
      <trkpt lat="51.604850000" lon="7.208930000">
        <ele>53</ele>
        <time>2021-04-28T10:17:13Z</time>
      </trkpt>
      <trkpt lat="51.604820000" lon="7.208840000">
        <ele>53</ele>
        <time>2021-04-28T10:17:15Z</time>
      </trkpt>
      <trkpt lat="51.604800000" lon="7.208770000">
        <ele>53</ele>
        <time>2021-04-28T10:17:19Z</time>
      </trkpt>
      <trkpt lat="51.604770000" lon="7.208680000">
        <ele>53</ele>
        <time>2021-04-28T10:17:27Z</time>
      </trkpt>
      <trkpt lat="51.604730000" lon="7.208550000">
        <ele>53</ele>
        <time>2021-04-28T10:17:29Z</time>
      </trkpt>
      <trkpt lat="51.604700000" lon="7.208410000">
        <ele>53</ele>
        <time>2021-04-28T10:17:31Z</time>
      </trkpt>
      <trkpt lat="51.604640000" lon="7.208220000">
        <ele>53</ele>
        <time>2021-04-28T10:17:34Z</time>
      </trkpt>
      <trkpt lat="51.604640000" lon="7.208030000">
        <ele>53</ele>
        <time>2021-04-28T10:17:36Z</time>
      </trkpt>
      <trkpt lat="51.604640000" lon="7.207930000">
        <ele>53</ele>
        <time>2021-04-28T10:17:37Z</time>
      </trkpt>
      <trkpt lat="51.604600000" lon="7.207740000">
        <ele>53</ele>
        <time>2021-04-28T10:17:39Z</time>
      </trkpt>
      <trkpt lat="51.604560000" lon="7.207540000">
        <ele>53</ele>
        <time>2021-04-28T10:17:41Z</time>
      </trkpt>
      <trkpt lat="51.604540000" lon="7.207440000">
        <ele>53</ele>
        <time>2021-04-28T10:17:42Z</time>
      </trkpt>
      <trkpt lat="51.604520000" lon="7.207370000">
        <ele>55</ele>
        <time>2021-04-28T10:17:43Z</time>
      </trkpt>
      <trkpt lat="51.604550000" lon="7.207210000">
        <ele>59</ele>
        <time>2021-04-28T10:17:46Z</time>
      </trkpt>
      <trkpt lat="51.604630000" lon="7.207170000">
        <ele>59</ele>
        <time>2021-04-28T10:17:48Z</time>
      </trkpt>
      <trkpt lat="51.604670000" lon="7.207010000">
        <ele>59</ele>
        <time>2021-04-28T10:17:51Z</time>
      </trkpt>
      <trkpt lat="51.604660000" lon="7.206910000">
        <ele>59</ele>
        <time>2021-04-28T10:17:53Z</time>
      </trkpt>
      <trkpt lat="51.604620000" lon="7.206720000">
        <ele>59</ele>
        <time>2021-04-28T10:17:56Z</time>
      </trkpt>
      <trkpt lat="51.604580000" lon="7.206580000">
        <ele>59</ele>
        <time>2021-04-28T10:17:58Z</time>
      </trkpt>
      <trkpt lat="51.604560000" lon="7.206500000">
        <ele>59</ele>
        <time>2021-04-28T10:17:59Z</time>
      </trkpt>
      <trkpt lat="51.604510000" lon="7.206330000">
        <ele>59</ele>
        <time>2021-04-28T10:18:01Z</time>
      </trkpt>
      <trkpt lat="51.604490000" lon="7.206240000">
        <ele>59</ele>
        <time>2021-04-28T10:18:02Z</time>
      </trkpt>
      <trkpt lat="51.604470000" lon="7.206150000">
        <ele>59</ele>
        <time>2021-04-28T10:18:03Z</time>
      </trkpt>
      <trkpt lat="51.604450000" lon="7.206060000">
        <ele>59</ele>
        <time>2021-04-28T10:18:04Z</time>
      </trkpt>
      <trkpt lat="51.604400000" lon="7.205900000">
        <ele>59</ele>
        <time>2021-04-28T10:18:06Z</time>
      </trkpt>
      <trkpt lat="51.604360000" lon="7.205710000">
        <ele>56</ele>
        <time>2021-04-28T10:18:08Z</time>
      </trkpt>
      <trkpt lat="51.604350000" lon="7.205610000">
        <ele>56</ele>
        <time>2021-04-28T10:18:09Z</time>
      </trkpt>
      <trkpt lat="51.604330000" lon="7.205510000">
        <ele>56</ele>
        <time>2021-04-28T10:18:10Z</time>
      </trkpt>
      <trkpt lat="51.604300000" lon="7.205310000">
        <ele>56</ele>
        <time>2021-04-28T10:18:12Z</time>
      </trkpt>
      <trkpt lat="51.604280000" lon="7.205220000">
        <ele>56</ele>
        <time>2021-04-28T10:18:13Z</time>
      </trkpt>
      <trkpt lat="51.604260000" lon="7.205130000">
        <ele>56</ele>
        <time>2021-04-28T10:18:14Z</time>
      </trkpt>
      <trkpt lat="51.604240000" lon="7.205030000">
        <ele>56</ele>
        <time>2021-04-28T10:18:15Z</time>
      </trkpt>
      <trkpt lat="51.604200000" lon="7.204840000">
        <ele>56</ele>
        <time>2021-04-28T10:18:17Z</time>
      </trkpt>
      <trkpt lat="51.604170000" lon="7.204740000">
        <ele>56</ele>
        <time>2021-04-28T10:18:18Z</time>
      </trkpt>
      <trkpt lat="51.604130000" lon="7.204540000">
        <ele>56</ele>
        <time>2021-04-28T10:18:20Z</time>
      </trkpt>
      <trkpt lat="51.604100000" lon="7.204350000">
        <ele>56</ele>
        <time>2021-04-28T10:18:22Z</time>
      </trkpt>
      <trkpt lat="51.604080000" lon="7.204270000">
        <ele>60</ele>
        <time>2021-04-28T10:18:23Z</time>
      </trkpt>
      <trkpt lat="51.604070000" lon="7.204200000">
        <ele>60</ele>
        <time>2021-04-28T10:18:24Z</time>
      </trkpt>
      <trkpt lat="51.604040000" lon="7.204110000">
        <ele>60</ele>
        <time>2021-04-28T10:18:27Z</time>
      </trkpt>
      <trkpt lat="51.603980000" lon="7.204150000">
        <ele>60</ele>
        <time>2021-04-28T10:18:28Z</time>
      </trkpt>
      <trkpt lat="51.603940000" lon="7.204260000">
        <ele>60</ele>
        <time>2021-04-28T10:18:31Z</time>
      </trkpt>
      <trkpt lat="51.603890000" lon="7.204260000">
        <ele>60</ele>
        <time>2021-04-28T10:18:32Z</time>
      </trkpt>
      <trkpt lat="51.603790000" lon="7.204230000">
        <ele>60</ele>
        <time>2021-04-28T10:18:36Z</time>
      </trkpt>
      <trkpt lat="51.603740000" lon="7.204260000">
        <ele>60</ele>
        <time>2021-04-28T10:18:38Z</time>
      </trkpt>
      <trkpt lat="51.603700000" lon="7.204360000">
        <ele>60</ele>
        <time>2021-04-28T10:21:12Z</time>
      </trkpt>
      <trkpt lat="51.603710000" lon="7.204510000">
        <ele>60</ele>
        <time>2021-04-28T10:21:16Z</time>
      </trkpt>
      <trkpt lat="51.603800000" lon="7.204580000">
        <ele>60</ele>
        <time>2021-04-28T10:21:18Z</time>
      </trkpt>
      <trkpt lat="51.603860000" lon="7.204550000">
        <ele>60</ele>
        <time>2021-04-28T10:21:19Z</time>
      </trkpt>
      <trkpt lat="51.603930000" lon="7.204420000">
        <ele>60</ele>
        <time>2021-04-28T10:21:21Z</time>
      </trkpt>
      <trkpt lat="51.603950000" lon="7.204250000">
        <ele>60</ele>
        <time>2021-04-28T10:21:23Z</time>
      </trkpt>
      <trkpt lat="51.604010000" lon="7.204150000">
        <ele>60</ele>
        <time>2021-04-28T10:21:25Z</time>
      </trkpt>
      <trkpt lat="51.604040000" lon="7.204030000">
        <ele>60</ele>
        <time>2021-04-28T10:21:26Z</time>
      </trkpt>
      <trkpt lat="51.604040000" lon="7.203950000">
        <ele>60</ele>
        <time>2021-04-28T10:21:27Z</time>
      </trkpt>
      <trkpt lat="51.604020000" lon="7.203850000">
        <ele>53</ele>
        <time>2021-04-28T10:21:28Z</time>
      </trkpt>
      <trkpt lat="51.604000000" lon="7.203780000">
        <ele>53</ele>
        <time>2021-04-28T10:21:29Z</time>
      </trkpt>
      <trkpt lat="51.603970000" lon="7.203710000">
        <ele>53</ele>
        <time>2021-04-28T10:21:31Z</time>
      </trkpt>
      <trkpt lat="51.603930000" lon="7.203550000">
        <ele>53</ele>
        <time>2021-04-28T10:21:33Z</time>
      </trkpt>
      <trkpt lat="51.603900000" lon="7.203380000">
        <ele>53</ele>
        <time>2021-04-28T10:21:34Z</time>
      </trkpt>
      <trkpt lat="51.603880000" lon="7.203300000">
        <ele>53</ele>
        <time>2021-04-28T10:21:35Z</time>
      </trkpt>
      <trkpt lat="51.603870000" lon="7.203220000">
        <ele>53</ele>
        <time>2021-04-28T10:21:36Z</time>
      </trkpt>
      <trkpt lat="51.603850000" lon="7.203130000">
        <ele>53</ele>
        <time>2021-04-28T10:21:38Z</time>
      </trkpt>
      <trkpt lat="51.603820000" lon="7.202950000">
        <ele>53</ele>
        <time>2021-04-28T10:21:40Z</time>
      </trkpt>
      <trkpt lat="51.603790000" lon="7.202770000">
        <ele>53</ele>
        <time>2021-04-28T10:21:42Z</time>
      </trkpt>
      <trkpt lat="51.603780000" lon="7.202680000">
        <ele>53</ele>
        <time>2021-04-28T10:21:43Z</time>
      </trkpt>
      <trkpt lat="51.603750000" lon="7.202500000">
        <ele>53</ele>
        <time>2021-04-28T10:21:44Z</time>
      </trkpt>
      <trkpt lat="51.603710000" lon="7.202320000">
        <ele>53</ele>
        <time>2021-04-28T10:21:46Z</time>
      </trkpt>
      <trkpt lat="51.603670000" lon="7.202150000">
        <ele>58</ele>
        <time>2021-04-28T10:21:48Z</time>
      </trkpt>
      <trkpt lat="51.603650000" lon="7.202070000">
        <ele>58</ele>
        <time>2021-04-28T10:21:49Z</time>
      </trkpt>
      <trkpt lat="51.603620000" lon="7.201950000">
        <ele>58</ele>
        <time>2021-04-28T10:21:51Z</time>
      </trkpt>
      <trkpt lat="51.603630000" lon="7.201870000">
        <ele>58</ele>
        <time>2021-04-28T10:22:04Z</time>
      </trkpt>
      <trkpt lat="51.603610000" lon="7.201750000">
        <ele>58</ele>
        <time>2021-04-28T10:22:06Z</time>
      </trkpt>
      <trkpt lat="51.603580000" lon="7.201610000">
        <ele>58</ele>
        <time>2021-04-28T10:22:08Z</time>
      </trkpt>
      <trkpt lat="51.603560000" lon="7.201540000">
        <ele>58</ele>
        <time>2021-04-28T10:22:09Z</time>
      </trkpt>
      <trkpt lat="51.603540000" lon="7.201400000">
        <ele>58</ele>
        <time>2021-04-28T10:22:11Z</time>
      </trkpt>
      <trkpt lat="51.603520000" lon="7.201270000">
        <ele>58</ele>
        <time>2021-04-28T10:22:13Z</time>
      </trkpt>
      <trkpt lat="51.603500000" lon="7.201210000">
        <ele>58</ele>
        <time>2021-04-28T10:22:14Z</time>
      </trkpt>
      <trkpt lat="51.603480000" lon="7.201140000">
        <ele>58</ele>
        <time>2021-04-28T10:22:15Z</time>
      </trkpt>
      <trkpt lat="51.603450000" lon="7.200990000">
        <ele>58</ele>
        <time>2021-04-28T10:22:17Z</time>
      </trkpt>
      <trkpt lat="51.603440000" lon="7.200910000">
        <ele>58</ele>
        <time>2021-04-28T10:22:18Z</time>
      </trkpt>
      <trkpt lat="51.603420000" lon="7.200790000">
        <ele>58</ele>
        <time>2021-04-28T10:22:20Z</time>
      </trkpt>
      <trkpt lat="51.603390000" lon="7.200730000">
        <ele>58</ele>
        <time>2021-04-28T10:22:21Z</time>
      </trkpt>
      <trkpt lat="51.603340000" lon="7.200570000">
        <ele>57</ele>
        <time>2021-04-28T10:22:23Z</time>
      </trkpt>
      <trkpt lat="51.603300000" lon="7.200380000">
        <ele>57</ele>
        <time>2021-04-28T10:22:25Z</time>
      </trkpt>
      <trkpt lat="51.603260000" lon="7.200250000">
        <ele>57</ele>
        <time>2021-04-28T10:22:26Z</time>
      </trkpt>
      <trkpt lat="51.603240000" lon="7.200140000">
        <ele>57</ele>
        <time>2021-04-28T10:22:27Z</time>
      </trkpt>
      <trkpt lat="51.603190000" lon="7.199930000">
        <ele>57</ele>
        <time>2021-04-28T10:22:29Z</time>
      </trkpt>
      <trkpt lat="51.603170000" lon="7.199830000">
        <ele>57</ele>
        <time>2021-04-28T10:22:30Z</time>
      </trkpt>
      <trkpt lat="51.603150000" lon="7.199730000">
        <ele>57</ele>
        <time>2021-04-28T10:22:31Z</time>
      </trkpt>
      <trkpt lat="51.603120000" lon="7.199570000">
        <ele>57</ele>
        <time>2021-04-28T10:22:33Z</time>
      </trkpt>
      <trkpt lat="51.603090000" lon="7.199380000">
        <ele>57</ele>
        <time>2021-04-28T10:22:35Z</time>
      </trkpt>
      <trkpt lat="51.603050000" lon="7.199220000">
        <ele>57</ele>
        <time>2021-04-28T10:22:37Z</time>
      </trkpt>
      <trkpt lat="51.603050000" lon="7.199140000">
        <ele>57</ele>
        <time>2021-04-28T10:22:38Z</time>
      </trkpt>
      <trkpt lat="51.603040000" lon="7.199050000">
        <ele>57</ele>
        <time>2021-04-28T10:22:41Z</time>
      </trkpt>
      <trkpt lat="51.603010000" lon="7.198930000">
        <ele>57</ele>
        <time>2021-04-28T10:22:44Z</time>
      </trkpt>
      <trkpt lat="51.603000000" lon="7.198840000">
        <ele>61</ele>
        <time>2021-04-28T10:22:45Z</time>
      </trkpt>
      <trkpt lat="51.602950000" lon="7.198650000">
        <ele>61</ele>
        <time>2021-04-28T10:22:47Z</time>
      </trkpt>
      <trkpt lat="51.602940000" lon="7.198570000">
        <ele>61</ele>
        <time>2021-04-28T10:22:48Z</time>
      </trkpt>
      <trkpt lat="51.602910000" lon="7.198480000">
        <ele>61</ele>
        <time>2021-04-28T10:22:49Z</time>
      </trkpt>
      <trkpt lat="51.602870000" lon="7.198290000">
        <ele>61</ele>
        <time>2021-04-28T10:22:51Z</time>
      </trkpt>
      <trkpt lat="51.602830000" lon="7.198090000">
        <ele>61</ele>
        <time>2021-04-28T10:22:53Z</time>
      </trkpt>
      <trkpt lat="51.602810000" lon="7.197990000">
        <ele>61</ele>
        <time>2021-04-28T10:22:54Z</time>
      </trkpt>
      <trkpt lat="51.602770000" lon="7.197830000">
        <ele>61</ele>
        <time>2021-04-28T10:22:56Z</time>
      </trkpt>
      <trkpt lat="51.602760000" lon="7.197740000">
        <ele>61</ele>
        <time>2021-04-28T10:22:57Z</time>
      </trkpt>
      <trkpt lat="51.602730000" lon="7.197560000">
        <ele>61</ele>
        <time>2021-04-28T10:22:59Z</time>
      </trkpt>
      <trkpt lat="51.602720000" lon="7.197460000">
        <ele>61</ele>
        <time>2021-04-28T10:23:00Z</time>
      </trkpt>
      <trkpt lat="51.602710000" lon="7.197350000">
        <ele>61</ele>
        <time>2021-04-28T10:23:01Z</time>
      </trkpt>
      <trkpt lat="51.602700000" lon="7.197240000">
        <ele>61</ele>
        <time>2021-04-28T10:23:02Z</time>
      </trkpt>
      <trkpt lat="51.602690000" lon="7.197150000">
        <ele>61</ele>
        <time>2021-04-28T10:23:03Z</time>
      </trkpt>
      <trkpt lat="51.602640000" lon="7.196960000">
        <ele>61</ele>
        <time>2021-04-28T10:23:05Z</time>
      </trkpt>
      <trkpt lat="51.602600000" lon="7.196770000">
        <ele>52</ele>
        <time>2021-04-28T10:23:07Z</time>
      </trkpt>
      <trkpt lat="51.602580000" lon="7.196680000">
        <ele>52</ele>
        <time>2021-04-28T10:23:08Z</time>
      </trkpt>
      <trkpt lat="51.602560000" lon="7.196590000">
        <ele>52</ele>
        <time>2021-04-28T10:23:09Z</time>
      </trkpt>
      <trkpt lat="51.602530000" lon="7.196400000">
        <ele>52</ele>
        <time>2021-04-28T10:23:11Z</time>
      </trkpt>
      <trkpt lat="51.602510000" lon="7.196310000">
        <ele>52</ele>
        <time>2021-04-28T10:23:12Z</time>
      </trkpt>
      <trkpt lat="51.602490000" lon="7.196210000">
        <ele>52</ele>
        <time>2021-04-28T10:23:13Z</time>
      </trkpt>
      <trkpt lat="51.602470000" lon="7.196110000">
        <ele>52</ele>
        <time>2021-04-28T10:23:14Z</time>
      </trkpt>
      <trkpt lat="51.602440000" lon="7.195930000">
        <ele>52</ele>
        <time>2021-04-28T10:23:16Z</time>
      </trkpt>
      <trkpt lat="51.602430000" lon="7.195840000">
        <ele>52</ele>
        <time>2021-04-28T10:23:17Z</time>
      </trkpt>
      <trkpt lat="51.602410000" lon="7.195740000">
        <ele>52</ele>
        <time>2021-04-28T10:23:18Z</time>
      </trkpt>
      <trkpt lat="51.602360000" lon="7.195570000">
        <ele>52</ele>
        <time>2021-04-28T10:23:20Z</time>
      </trkpt>
      <trkpt lat="51.602330000" lon="7.195480000">
        <ele>52</ele>
        <time>2021-04-28T10:23:21Z</time>
      </trkpt>
      <trkpt lat="51.602300000" lon="7.195290000">
        <ele>52</ele>
        <time>2021-04-28T10:23:23Z</time>
      </trkpt>
      <trkpt lat="51.602280000" lon="7.195190000">
        <ele>52</ele>
        <time>2021-04-28T10:23:24Z</time>
      </trkpt>
      <trkpt lat="51.602250000" lon="7.195100000">
        <ele>52</ele>
        <time>2021-04-28T10:23:25Z</time>
      </trkpt>
      <trkpt lat="51.602190000" lon="7.194920000">
        <ele>59</ele>
        <time>2021-04-28T10:23:27Z</time>
      </trkpt>
      <trkpt lat="51.602170000" lon="7.194820000">
        <ele>59</ele>
        <time>2021-04-28T10:23:28Z</time>
      </trkpt>
      <trkpt lat="51.602140000" lon="7.194640000">
        <ele>59</ele>
        <time>2021-04-28T10:23:30Z</time>
      </trkpt>
      <trkpt lat="51.602110000" lon="7.194560000">
        <ele>59</ele>
        <time>2021-04-28T10:23:31Z</time>
      </trkpt>
      <trkpt lat="51.602090000" lon="7.194450000">
        <ele>59</ele>
        <time>2021-04-28T10:23:32Z</time>
      </trkpt>
      <trkpt lat="51.602070000" lon="7.194370000">
        <ele>59</ele>
        <time>2021-04-28T10:23:33Z</time>
      </trkpt>
      <trkpt lat="51.602040000" lon="7.194210000">
        <ele>59</ele>
        <time>2021-04-28T10:23:35Z</time>
      </trkpt>
      <trkpt lat="51.601990000" lon="7.194020000">
        <ele>59</ele>
        <time>2021-04-28T10:23:37Z</time>
      </trkpt>
      <trkpt lat="51.601970000" lon="7.193900000">
        <ele>59</ele>
        <time>2021-04-28T10:23:39Z</time>
      </trkpt>
      <trkpt lat="51.601940000" lon="7.193710000">
        <ele>59</ele>
        <time>2021-04-28T10:23:41Z</time>
      </trkpt>
      <trkpt lat="51.601930000" lon="7.193510000">
        <ele>59</ele>
        <time>2021-04-28T10:23:43Z</time>
      </trkpt>
      <trkpt lat="51.601900000" lon="7.193310000">
        <ele>59</ele>
        <time>2021-04-28T10:23:45Z</time>
      </trkpt>
      <trkpt lat="51.601870000" lon="7.193140000">
        <ele>59</ele>
        <time>2021-04-28T10:23:46Z</time>
      </trkpt>
      <trkpt lat="51.601840000" lon="7.193020000">
        <ele>55</ele>
        <time>2021-04-28T10:23:48Z</time>
      </trkpt>
      <trkpt lat="51.601800000" lon="7.192850000">
        <ele>55</ele>
        <time>2021-04-28T10:23:50Z</time>
      </trkpt>
      <trkpt lat="51.601770000" lon="7.192760000">
        <ele>55</ele>
        <time>2021-04-28T10:23:51Z</time>
      </trkpt>
      <trkpt lat="51.601730000" lon="7.192610000">
        <ele>55</ele>
        <time>2021-04-28T10:23:52Z</time>
      </trkpt>
      <trkpt lat="51.601680000" lon="7.192430000">
        <ele>55</ele>
        <time>2021-04-28T10:23:54Z</time>
      </trkpt>
      <trkpt lat="51.601660000" lon="7.192310000">
        <ele>55</ele>
        <time>2021-04-28T10:23:55Z</time>
      </trkpt>
      <trkpt lat="51.601660000" lon="7.192220000">
        <ele>55</ele>
        <time>2021-04-28T10:23:57Z</time>
      </trkpt>
      <trkpt lat="51.601640000" lon="7.192040000">
        <ele>55</ele>
        <time>2021-04-28T10:23:58Z</time>
      </trkpt>
      <trkpt lat="51.601600000" lon="7.191840000">
        <ele>55</ele>
        <time>2021-04-28T10:24:01Z</time>
      </trkpt>
      <trkpt lat="51.601580000" lon="7.191750000">
        <ele>55</ele>
        <time>2021-04-28T10:24:02Z</time>
      </trkpt>
      <trkpt lat="51.601560000" lon="7.191670000">
        <ele>55</ele>
        <time>2021-04-28T10:24:03Z</time>
      </trkpt>
      <trkpt lat="51.601550000" lon="7.191580000">
        <ele>55</ele>
        <time>2021-04-28T10:24:04Z</time>
      </trkpt>
      <trkpt lat="51.601540000" lon="7.191490000">
        <ele>55</ele>
        <time>2021-04-28T10:24:05Z</time>
      </trkpt>
      <trkpt lat="51.601510000" lon="7.191320000">
        <ele>55</ele>
        <time>2021-04-28T10:24:07Z</time>
      </trkpt>
      <trkpt lat="51.601470000" lon="7.191160000">
        <ele>55</ele>
        <time>2021-04-28T10:24:08Z</time>
      </trkpt>
      <trkpt lat="51.601440000" lon="7.191040000">
        <ele>55</ele>
        <time>2021-04-28T10:24:10Z</time>
      </trkpt>
      <trkpt lat="51.601400000" lon="7.190880000">
        <ele>55</ele>
        <time>2021-04-28T10:24:12Z</time>
      </trkpt>
      <trkpt lat="51.601380000" lon="7.190700000">
        <ele>55</ele>
        <time>2021-04-28T10:24:13Z</time>
      </trkpt>
      <trkpt lat="51.601340000" lon="7.190510000">
        <ele>55</ele>
        <time>2021-04-28T10:24:15Z</time>
      </trkpt>
      <trkpt lat="51.601330000" lon="7.190390000">
        <ele>55</ele>
        <time>2021-04-28T10:24:17Z</time>
      </trkpt>
      <trkpt lat="51.601310000" lon="7.190300000">
        <ele>55</ele>
        <time>2021-04-28T10:24:18Z</time>
      </trkpt>
      <trkpt lat="51.601280000" lon="7.190140000">
        <ele>55</ele>
        <time>2021-04-28T10:24:19Z</time>
      </trkpt>
      <trkpt lat="51.601250000" lon="7.190020000">
        <ele>55</ele>
        <time>2021-04-28T10:24:21Z</time>
      </trkpt>
      <trkpt lat="51.601230000" lon="7.189940000">
        <ele>55</ele>
        <time>2021-04-28T10:24:22Z</time>
      </trkpt>
      <trkpt lat="51.601180000" lon="7.189760000">
        <ele>55</ele>
        <time>2021-04-28T10:24:24Z</time>
      </trkpt>
      <trkpt lat="51.601160000" lon="7.189680000">
        <ele>55</ele>
        <time>2021-04-28T10:24:25Z</time>
      </trkpt>
      <trkpt lat="51.601140000" lon="7.189590000">
        <ele>55</ele>
        <time>2021-04-28T10:24:26Z</time>
      </trkpt>
      <trkpt lat="51.601110000" lon="7.189410000">
        <ele>55</ele>
        <time>2021-04-28T10:24:28Z</time>
      </trkpt>
      <trkpt lat="51.601080000" lon="7.189210000">
        <ele>55</ele>
        <time>2021-04-28T10:24:30Z</time>
      </trkpt>
      <trkpt lat="51.601040000" lon="7.189020000">
        <ele>55</ele>
        <time>2021-04-28T10:24:32Z</time>
      </trkpt>
      <trkpt lat="51.601020000" lon="7.188920000">
        <ele>55</ele>
        <time>2021-04-28T10:24:33Z</time>
      </trkpt>
      <trkpt lat="51.600990000" lon="7.188760000">
        <ele>55</ele>
        <time>2021-04-28T10:24:34Z</time>
      </trkpt>
      <trkpt lat="51.600950000" lon="7.188530000">
        <ele>57</ele>
        <time>2021-04-28T10:24:37Z</time>
      </trkpt>
      <trkpt lat="51.600930000" lon="7.188450000">
        <ele>57</ele>
        <time>2021-04-28T10:24:38Z</time>
      </trkpt>
      <trkpt lat="51.600900000" lon="7.188260000">
        <ele>57</ele>
        <time>2021-04-28T10:24:40Z</time>
      </trkpt>
      <trkpt lat="51.600860000" lon="7.188080000">
        <ele>57</ele>
        <time>2021-04-28T10:24:42Z</time>
      </trkpt>
      <trkpt lat="51.600830000" lon="7.187870000">
        <ele>57</ele>
        <time>2021-04-28T10:24:44Z</time>
      </trkpt>
      <trkpt lat="51.600780000" lon="7.187690000">
        <ele>57</ele>
        <time>2021-04-28T10:24:46Z</time>
      </trkpt>
      <trkpt lat="51.600740000" lon="7.187510000">
        <ele>57</ele>
        <time>2021-04-28T10:24:47Z</time>
      </trkpt>
      <trkpt lat="51.600720000" lon="7.187410000">
        <ele>57</ele>
        <time>2021-04-28T10:24:49Z</time>
      </trkpt>
      <trkpt lat="51.600690000" lon="7.187240000">
        <ele>57</ele>
        <time>2021-04-28T10:24:50Z</time>
      </trkpt>
      <trkpt lat="51.600660000" lon="7.187060000">
        <ele>57</ele>
        <time>2021-04-28T10:24:52Z</time>
      </trkpt>
      <trkpt lat="51.600630000" lon="7.186930000">
        <ele>53</ele>
        <time>2021-04-28T10:24:54Z</time>
      </trkpt>
      <trkpt lat="51.600600000" lon="7.186770000">
        <ele>53</ele>
        <time>2021-04-28T10:24:55Z</time>
      </trkpt>
      <trkpt lat="51.600550000" lon="7.186550000">
        <ele>53</ele>
        <time>2021-04-28T10:24:58Z</time>
      </trkpt>
      <trkpt lat="51.600510000" lon="7.186360000">
        <ele>53</ele>
        <time>2021-04-28T10:25:00Z</time>
      </trkpt>
      <trkpt lat="51.600470000" lon="7.186170000">
        <ele>53</ele>
        <time>2021-04-28T10:25:02Z</time>
      </trkpt>
      <trkpt lat="51.600440000" lon="7.185990000">
        <ele>53</ele>
        <time>2021-04-28T10:25:04Z</time>
      </trkpt>
      <trkpt lat="51.600420000" lon="7.185890000">
        <ele>53</ele>
        <time>2021-04-28T10:25:05Z</time>
      </trkpt>
      <trkpt lat="51.600380000" lon="7.185690000">
        <ele>53</ele>
        <time>2021-04-28T10:25:07Z</time>
      </trkpt>
      <trkpt lat="51.600330000" lon="7.185510000">
        <ele>53</ele>
        <time>2021-04-28T10:25:09Z</time>
      </trkpt>
      <trkpt lat="51.600290000" lon="7.185310000">
        <ele>53</ele>
        <time>2021-04-28T10:25:11Z</time>
      </trkpt>
      <trkpt lat="51.600260000" lon="7.185120000">
        <ele>58</ele>
        <time>2021-04-28T10:25:13Z</time>
      </trkpt>
      <trkpt lat="51.600230000" lon="7.184930000">
        <ele>58</ele>
        <time>2021-04-28T10:25:15Z</time>
      </trkpt>
      <trkpt lat="51.600200000" lon="7.184760000">
        <ele>58</ele>
        <time>2021-04-28T10:25:16Z</time>
      </trkpt>
      <trkpt lat="51.600170000" lon="7.184580000">
        <ele>58</ele>
        <time>2021-04-28T10:25:18Z</time>
      </trkpt>
      <trkpt lat="51.600160000" lon="7.184500000">
        <ele>58</ele>
        <time>2021-04-28T10:25:20Z</time>
      </trkpt>
      <trkpt lat="51.600130000" lon="7.184350000">
        <ele>58</ele>
        <time>2021-04-28T10:25:22Z</time>
      </trkpt>
      <trkpt lat="51.600090000" lon="7.184220000">
        <ele>58</ele>
        <time>2021-04-28T10:25:23Z</time>
      </trkpt>
      <trkpt lat="51.600070000" lon="7.184130000">
        <ele>58</ele>
        <time>2021-04-28T10:25:26Z</time>
      </trkpt>
      <trkpt lat="51.600040000" lon="7.184070000">
        <ele>58</ele>
        <time>2021-04-28T10:25:39Z</time>
      </trkpt>
      <trkpt lat="51.600060000" lon="7.184130000">
        <ele>58</ele>
        <time>2021-04-28T10:26:02Z</time>
      </trkpt>
      <trkpt lat="51.600040000" lon="7.184020000">
        <ele>58</ele>
        <time>2021-04-28T10:27:08Z</time>
      </trkpt>
      <trkpt lat="51.600010000" lon="7.183900000">
        <ele>58</ele>
        <time>2021-04-28T10:27:09Z</time>
      </trkpt>
      <trkpt lat="51.599980000" lon="7.183780000">
        <ele>58</ele>
        <time>2021-04-28T10:27:11Z</time>
      </trkpt>
      <trkpt lat="51.599950000" lon="7.183620000">
        <ele>64</ele>
        <time>2021-04-28T10:27:13Z</time>
      </trkpt>
      <trkpt lat="51.599900000" lon="7.183460000">
        <ele>64</ele>
        <time>2021-04-28T10:27:15Z</time>
      </trkpt>
      <trkpt lat="51.599870000" lon="7.183300000">
        <ele>64</ele>
        <time>2021-04-28T10:27:17Z</time>
      </trkpt>
      <trkpt lat="51.599850000" lon="7.183220000">
        <ele>64</ele>
        <time>2021-04-28T10:27:18Z</time>
      </trkpt>
      <trkpt lat="51.599810000" lon="7.183050000">
        <ele>64</ele>
        <time>2021-04-28T10:27:19Z</time>
      </trkpt>
      <trkpt lat="51.599790000" lon="7.182870000">
        <ele>64</ele>
        <time>2021-04-28T10:27:21Z</time>
      </trkpt>
      <trkpt lat="51.599770000" lon="7.182750000">
        <ele>64</ele>
        <time>2021-04-28T10:27:23Z</time>
      </trkpt>
      <trkpt lat="51.599750000" lon="7.182570000">
        <ele>64</ele>
        <time>2021-04-28T10:27:25Z</time>
      </trkpt>
      <trkpt lat="51.599730000" lon="7.182390000">
        <ele>64</ele>
        <time>2021-04-28T10:27:27Z</time>
      </trkpt>
      <trkpt lat="51.599710000" lon="7.182300000">
        <ele>64</ele>
        <time>2021-04-28T10:27:28Z</time>
      </trkpt>
      <trkpt lat="51.599700000" lon="7.182130000">
        <ele>64</ele>
        <time>2021-04-28T10:27:29Z</time>
      </trkpt>
      <trkpt lat="51.599690000" lon="7.182010000">
        <ele>64</ele>
        <time>2021-04-28T10:27:31Z</time>
      </trkpt>
      <trkpt lat="51.599690000" lon="7.181850000">
        <ele>66</ele>
        <time>2021-04-28T10:27:33Z</time>
      </trkpt>
      <trkpt lat="51.599680000" lon="7.181680000">
        <ele>66</ele>
        <time>2021-04-28T10:27:35Z</time>
      </trkpt>
      <trkpt lat="51.599670000" lon="7.181520000">
        <ele>66</ele>
        <time>2021-04-28T10:27:37Z</time>
      </trkpt>
      <trkpt lat="51.599660000" lon="7.181380000">
        <ele>66</ele>
        <time>2021-04-28T10:27:38Z</time>
      </trkpt>
      <trkpt lat="51.599660000" lon="7.181230000">
        <ele>66</ele>
        <time>2021-04-28T10:27:40Z</time>
      </trkpt>
      <trkpt lat="51.599660000" lon="7.181140000">
        <ele>66</ele>
        <time>2021-04-28T10:27:41Z</time>
      </trkpt>
      <trkpt lat="51.599660000" lon="7.181060000">
        <ele>66</ele>
        <time>2021-04-28T10:27:43Z</time>
      </trkpt>
      <trkpt lat="51.599660000" lon="7.180930000">
        <ele>66</ele>
        <time>2021-04-28T10:27:45Z</time>
      </trkpt>
      <trkpt lat="51.599650000" lon="7.180830000">
        <ele>66</ele>
        <time>2021-04-28T10:27:47Z</time>
      </trkpt>
      <trkpt lat="51.599640000" lon="7.180690000">
        <ele>66</ele>
        <time>2021-04-28T10:27:49Z</time>
      </trkpt>
      <trkpt lat="51.599640000" lon="7.180540000">
        <ele>66</ele>
        <time>2021-04-28T10:27:51Z</time>
      </trkpt>
      <trkpt lat="51.599670000" lon="7.180370000">
        <ele>66</ele>
        <time>2021-04-28T10:27:53Z</time>
      </trkpt>
      <trkpt lat="51.599690000" lon="7.180240000">
        <ele>66</ele>
        <time>2021-04-28T10:27:55Z</time>
      </trkpt>
      <trkpt lat="51.599720000" lon="7.180110000">
        <ele>66</ele>
        <time>2021-04-28T10:27:57Z</time>
      </trkpt>
      <trkpt lat="51.599740000" lon="7.179990000">
        <ele>66</ele>
        <time>2021-04-28T10:27:59Z</time>
      </trkpt>
      <trkpt lat="51.599750000" lon="7.179870000">
        <ele>66</ele>
        <time>2021-04-28T10:28:00Z</time>
      </trkpt>
      <trkpt lat="51.599770000" lon="7.179710000">
        <ele>72</ele>
        <time>2021-04-28T10:28:02Z</time>
      </trkpt>
      <trkpt lat="51.599780000" lon="7.179640000">
        <ele>72</ele>
        <time>2021-04-28T10:28:03Z</time>
      </trkpt>
      <trkpt lat="51.599790000" lon="7.179510000">
        <ele>72</ele>
        <time>2021-04-28T10:28:06Z</time>
      </trkpt>
      <trkpt lat="51.599770000" lon="7.179430000">
        <ele>72</ele>
        <time>2021-04-28T10:28:12Z</time>
      </trkpt>
      <trkpt lat="51.599790000" lon="7.179330000">
        <ele>72</ele>
        <time>2021-04-28T10:30:09Z</time>
      </trkpt>
      <trkpt lat="51.599810000" lon="7.179250000">
        <ele>72</ele>
        <time>2021-04-28T10:30:12Z</time>
      </trkpt>
      <trkpt lat="51.599850000" lon="7.179030000">
        <ele>72</ele>
        <time>2021-04-28T10:30:15Z</time>
      </trkpt>
      <trkpt lat="51.599870000" lon="7.178940000">
        <ele>72</ele>
        <time>2021-04-28T10:30:16Z</time>
      </trkpt>
      <trkpt lat="51.599900000" lon="7.178740000">
        <ele>72</ele>
        <time>2021-04-28T10:30:18Z</time>
      </trkpt>
      <trkpt lat="51.599930000" lon="7.178590000">
        <ele>72</ele>
        <time>2021-04-28T10:30:19Z</time>
      </trkpt>
      <trkpt lat="51.599960000" lon="7.178490000">
        <ele>72</ele>
        <time>2021-04-28T10:30:20Z</time>
      </trkpt>
      <trkpt lat="51.599980000" lon="7.178370000">
        <ele>72</ele>
        <time>2021-04-28T10:30:21Z</time>
      </trkpt>
      <trkpt lat="51.600000000" lon="7.178280000">
        <ele>72</ele>
        <time>2021-04-28T10:30:23Z</time>
      </trkpt>
      <trkpt lat="51.600030000" lon="7.178190000">
        <ele>72</ele>
        <time>2021-04-28T10:30:24Z</time>
      </trkpt>
      <trkpt lat="51.600070000" lon="7.178020000">
        <ele>72</ele>
        <time>2021-04-28T10:30:25Z</time>
      </trkpt>
      <trkpt lat="51.600120000" lon="7.177870000">
        <ele>72</ele>
        <time>2021-04-28T10:30:27Z</time>
      </trkpt>
      <trkpt lat="51.600150000" lon="7.177780000">
        <ele>69</ele>
        <time>2021-04-28T10:30:28Z</time>
      </trkpt>
      <trkpt lat="51.600180000" lon="7.177660000">
        <ele>69</ele>
        <time>2021-04-28T10:30:30Z</time>
      </trkpt>
      <trkpt lat="51.600230000" lon="7.177500000">
        <ele>69</ele>
        <time>2021-04-28T10:30:32Z</time>
      </trkpt>
      <trkpt lat="51.600290000" lon="7.177330000">
        <ele>69</ele>
        <time>2021-04-28T10:30:34Z</time>
      </trkpt>
      <trkpt lat="51.600320000" lon="7.177240000">
        <ele>69</ele>
        <time>2021-04-28T10:30:35Z</time>
      </trkpt>
      <trkpt lat="51.600380000" lon="7.177050000">
        <ele>69</ele>
        <time>2021-04-28T10:30:37Z</time>
      </trkpt>
      <trkpt lat="51.600440000" lon="7.176890000">
        <ele>69</ele>
        <time>2021-04-28T10:30:38Z</time>
      </trkpt>
      <trkpt lat="51.600480000" lon="7.176770000">
        <ele>69</ele>
        <time>2021-04-28T10:30:40Z</time>
      </trkpt>
      <trkpt lat="51.600520000" lon="7.176600000">
        <ele>69</ele>
        <time>2021-04-28T10:30:42Z</time>
      </trkpt>
      <trkpt lat="51.600540000" lon="7.176510000">
        <ele>69</ele>
        <time>2021-04-28T10:30:43Z</time>
      </trkpt>
      <trkpt lat="51.600590000" lon="7.176330000">
        <ele>69</ele>
        <time>2021-04-28T10:30:44Z</time>
      </trkpt>
      <trkpt lat="51.600620000" lon="7.176250000">
        <ele>69</ele>
        <time>2021-04-28T10:30:46Z</time>
      </trkpt>
      <trkpt lat="51.600670000" lon="7.176110000">
        <ele>69</ele>
        <time>2021-04-28T10:30:47Z</time>
      </trkpt>
      <trkpt lat="51.600730000" lon="7.175920000">
        <ele>72</ele>
        <time>2021-04-28T10:30:49Z</time>
      </trkpt>
      <trkpt lat="51.600770000" lon="7.175820000">
        <ele>72</ele>
        <time>2021-04-28T10:30:51Z</time>
      </trkpt>
      <trkpt lat="51.600820000" lon="7.175640000">
        <ele>72</ele>
        <time>2021-04-28T10:30:52Z</time>
      </trkpt>
      <trkpt lat="51.600850000" lon="7.175560000">
        <ele>72</ele>
        <time>2021-04-28T10:30:54Z</time>
      </trkpt>
      <trkpt lat="51.600900000" lon="7.175380000">
        <ele>72</ele>
        <time>2021-04-28T10:30:56Z</time>
      </trkpt>
      <trkpt lat="51.600930000" lon="7.175310000">
        <ele>72</ele>
        <time>2021-04-28T10:30:57Z</time>
      </trkpt>
      <trkpt lat="51.600950000" lon="7.175230000">
        <ele>72</ele>
        <time>2021-04-28T10:30:58Z</time>
      </trkpt>
      <trkpt lat="51.600990000" lon="7.175050000">
        <ele>72</ele>
        <time>2021-04-28T10:31:00Z</time>
      </trkpt>
      <trkpt lat="51.601040000" lon="7.174850000">
        <ele>72</ele>
        <time>2021-04-28T10:31:02Z</time>
      </trkpt>
      <trkpt lat="51.601100000" lon="7.174690000">
        <ele>72</ele>
        <time>2021-04-28T10:31:03Z</time>
      </trkpt>
      <trkpt lat="51.601130000" lon="7.174600000">
        <ele>72</ele>
        <time>2021-04-28T10:31:04Z</time>
      </trkpt>
      <trkpt lat="51.601150000" lon="7.174510000">
        <ele>72</ele>
        <time>2021-04-28T10:31:06Z</time>
      </trkpt>
      <trkpt lat="51.601180000" lon="7.174320000">
        <ele>72</ele>
        <time>2021-04-28T10:31:07Z</time>
      </trkpt>
      <trkpt lat="51.601230000" lon="7.174140000">
        <ele>72</ele>
        <time>2021-04-28T10:31:09Z</time>
      </trkpt>
      <trkpt lat="51.601260000" lon="7.174030000">
        <ele>72</ele>
        <time>2021-04-28T10:31:11Z</time>
      </trkpt>
      <trkpt lat="51.601320000" lon="7.173870000">
        <ele>67</ele>
        <time>2021-04-28T10:31:13Z</time>
      </trkpt>
      <trkpt lat="51.601360000" lon="7.173710000">
        <ele>67</ele>
        <time>2021-04-28T10:31:14Z</time>
      </trkpt>
      <trkpt lat="51.601390000" lon="7.173590000">
        <ele>67</ele>
        <time>2021-04-28T10:31:15Z</time>
      </trkpt>
      <trkpt lat="51.601420000" lon="7.173510000">
        <ele>67</ele>
        <time>2021-04-28T10:31:17Z</time>
      </trkpt>
      <trkpt lat="51.601480000" lon="7.173320000">
        <ele>67</ele>
        <time>2021-04-28T10:31:19Z</time>
      </trkpt>
      <trkpt lat="51.601520000" lon="7.173140000">
        <ele>67</ele>
        <time>2021-04-28T10:31:21Z</time>
      </trkpt>
      <trkpt lat="51.601540000" lon="7.173070000">
        <ele>67</ele>
        <time>2021-04-28T10:31:22Z</time>
      </trkpt>
      <trkpt lat="51.601570000" lon="7.172870000">
        <ele>67</ele>
        <time>2021-04-28T10:31:23Z</time>
      </trkpt>
      <trkpt lat="51.601600000" lon="7.172660000">
        <ele>67</ele>
        <time>2021-04-28T10:31:26Z</time>
      </trkpt>
      <trkpt lat="51.601650000" lon="7.172500000">
        <ele>67</ele>
        <time>2021-04-28T10:31:27Z</time>
      </trkpt>
      <trkpt lat="51.601680000" lon="7.172380000">
        <ele>67</ele>
        <time>2021-04-28T10:31:28Z</time>
      </trkpt>
      <trkpt lat="51.601710000" lon="7.172280000">
        <ele>67</ele>
        <time>2021-04-28T10:31:29Z</time>
      </trkpt>
      <trkpt lat="51.601750000" lon="7.172090000">
        <ele>67</ele>
        <time>2021-04-28T10:31:32Z</time>
      </trkpt>
      <trkpt lat="51.601790000" lon="7.171880000">
        <ele>67</ele>
        <time>2021-04-28T10:31:34Z</time>
      </trkpt>
      <trkpt lat="51.601830000" lon="7.171660000">
        <ele>67</ele>
        <time>2021-04-28T10:31:36Z</time>
      </trkpt>
      <trkpt lat="51.601880000" lon="7.171490000">
        <ele>67</ele>
        <time>2021-04-28T10:31:38Z</time>
      </trkpt>
      <trkpt lat="51.601910000" lon="7.171350000">
        <ele>67</ele>
        <time>2021-04-28T10:31:39Z</time>
      </trkpt>
      <trkpt lat="51.601930000" lon="7.171210000">
        <ele>67</ele>
        <time>2021-04-28T10:31:41Z</time>
      </trkpt>
      <trkpt lat="51.601970000" lon="7.170990000">
        <ele>67</ele>
        <time>2021-04-28T10:31:43Z</time>
      </trkpt>
      <trkpt lat="51.601990000" lon="7.170890000">
        <ele>67</ele>
        <time>2021-04-28T10:31:44Z</time>
      </trkpt>
      <trkpt lat="51.602020000" lon="7.170790000">
        <ele>67</ele>
        <time>2021-04-28T10:31:45Z</time>
      </trkpt>
      <trkpt lat="51.602060000" lon="7.170580000">
        <ele>67</ele>
        <time>2021-04-28T10:31:47Z</time>
      </trkpt>
      <trkpt lat="51.602070000" lon="7.170490000">
        <ele>67</ele>
        <time>2021-04-28T10:31:48Z</time>
      </trkpt>
      <trkpt lat="51.602090000" lon="7.170350000">
        <ele>67</ele>
        <time>2021-04-28T10:31:49Z</time>
      </trkpt>
      <trkpt lat="51.602120000" lon="7.170240000">
        <ele>67</ele>
        <time>2021-04-28T10:31:50Z</time>
      </trkpt>
      <trkpt lat="51.602150000" lon="7.170100000">
        <ele>67</ele>
        <time>2021-04-28T10:31:52Z</time>
      </trkpt>
      <trkpt lat="51.602190000" lon="7.169900000">
        <ele>67</ele>
        <time>2021-04-28T10:31:54Z</time>
      </trkpt>
      <trkpt lat="51.602230000" lon="7.169700000">
        <ele>67</ele>
        <time>2021-04-28T10:31:56Z</time>
      </trkpt>
      <trkpt lat="51.602270000" lon="7.169490000">
        <ele>67</ele>
        <time>2021-04-28T10:31:58Z</time>
      </trkpt>
      <trkpt lat="51.602310000" lon="7.169290000">
        <ele>64</ele>
        <time>2021-04-28T10:32:00Z</time>
      </trkpt>
      <trkpt lat="51.602350000" lon="7.169080000">
        <ele>64</ele>
        <time>2021-04-28T10:32:02Z</time>
      </trkpt>
      <trkpt lat="51.602400000" lon="7.168890000">
        <ele>64</ele>
        <time>2021-04-28T10:32:03Z</time>
      </trkpt>
      <trkpt lat="51.602460000" lon="7.168700000">
        <ele>64</ele>
        <time>2021-04-28T10:32:06Z</time>
      </trkpt>
      <trkpt lat="51.602520000" lon="7.168530000">
        <ele>64</ele>
        <time>2021-04-28T10:32:08Z</time>
      </trkpt>
      <trkpt lat="51.602560000" lon="7.168360000">
        <ele>64</ele>
        <time>2021-04-28T10:32:09Z</time>
      </trkpt>
      <trkpt lat="51.602600000" lon="7.168160000">
        <ele>64</ele>
        <time>2021-04-28T10:32:11Z</time>
      </trkpt>
      <trkpt lat="51.602630000" lon="7.168040000">
        <ele>64</ele>
        <time>2021-04-28T10:32:13Z</time>
      </trkpt>
      <trkpt lat="51.602680000" lon="7.167850000">
        <ele>64</ele>
        <time>2021-04-28T10:32:15Z</time>
      </trkpt>
      <trkpt lat="51.602730000" lon="7.167650000">
        <ele>64</ele>
        <time>2021-04-28T10:32:17Z</time>
      </trkpt>
      <trkpt lat="51.602750000" lon="7.167550000">
        <ele>64</ele>
        <time>2021-04-28T10:32:18Z</time>
      </trkpt>
      <trkpt lat="51.602790000" lon="7.167360000">
        <ele>64</ele>
        <time>2021-04-28T10:32:19Z</time>
      </trkpt>
      <trkpt lat="51.602840000" lon="7.167170000">
        <ele>66</ele>
        <time>2021-04-28T10:32:21Z</time>
      </trkpt>
      <trkpt lat="51.602870000" lon="7.167060000">
        <ele>66</ele>
        <time>2021-04-28T10:32:23Z</time>
      </trkpt>
      <trkpt lat="51.602910000" lon="7.166880000">
        <ele>66</ele>
        <time>2021-04-28T10:32:25Z</time>
      </trkpt>
      <trkpt lat="51.602930000" lon="7.166790000">
        <ele>66</ele>
        <time>2021-04-28T10:32:26Z</time>
      </trkpt>
      <trkpt lat="51.602990000" lon="7.166590000">
        <ele>66</ele>
        <time>2021-04-28T10:32:28Z</time>
      </trkpt>
      <trkpt lat="51.603030000" lon="7.166410000">
        <ele>66</ele>
        <time>2021-04-28T10:32:30Z</time>
      </trkpt>
      <trkpt lat="51.603070000" lon="7.166260000">
        <ele>66</ele>
        <time>2021-04-28T10:32:31Z</time>
      </trkpt>
      <trkpt lat="51.603100000" lon="7.166130000">
        <ele>66</ele>
        <time>2021-04-28T10:32:33Z</time>
      </trkpt>
      <trkpt lat="51.603130000" lon="7.166030000">
        <ele>66</ele>
        <time>2021-04-28T10:32:34Z</time>
      </trkpt>
      <trkpt lat="51.603170000" lon="7.165930000">
        <ele>66</ele>
        <time>2021-04-28T10:32:36Z</time>
      </trkpt>
      <trkpt lat="51.603230000" lon="7.165740000">
        <ele>66</ele>
        <time>2021-04-28T10:32:38Z</time>
      </trkpt>
      <trkpt lat="51.603270000" lon="7.165560000">
        <ele>66</ele>
        <time>2021-04-28T10:32:40Z</time>
      </trkpt>
      <trkpt lat="51.603310000" lon="7.165360000">
        <ele>66</ele>
        <time>2021-04-28T10:32:42Z</time>
      </trkpt>
      <trkpt lat="51.603350000" lon="7.165160000">
        <ele>66</ele>
        <time>2021-04-28T10:32:44Z</time>
      </trkpt>
      <trkpt lat="51.603400000" lon="7.164980000">
        <ele>66</ele>
        <time>2021-04-28T10:32:46Z</time>
      </trkpt>
      <trkpt lat="51.603430000" lon="7.164810000">
        <ele>66</ele>
        <time>2021-04-28T10:32:47Z</time>
      </trkpt>
      <trkpt lat="51.603450000" lon="7.164720000">
        <ele>66</ele>
        <time>2021-04-28T10:32:49Z</time>
      </trkpt>
      <trkpt lat="51.603470000" lon="7.164620000">
        <ele>66</ele>
        <time>2021-04-28T10:32:50Z</time>
      </trkpt>
      <trkpt lat="51.603510000" lon="7.164440000">
        <ele>66</ele>
        <time>2021-04-28T10:32:51Z</time>
      </trkpt>
      <trkpt lat="51.603570000" lon="7.164270000">
        <ele>66</ele>
        <time>2021-04-28T10:32:53Z</time>
      </trkpt>
      <trkpt lat="51.603600000" lon="7.164160000">
        <ele>66</ele>
        <time>2021-04-28T10:32:55Z</time>
      </trkpt>
      <trkpt lat="51.603640000" lon="7.164010000">
        <ele>66</ele>
        <time>2021-04-28T10:32:57Z</time>
      </trkpt>
      <trkpt lat="51.603690000" lon="7.163950000">
        <ele>66</ele>
        <time>2021-04-28T10:32:59Z</time>
      </trkpt>
      <trkpt lat="51.603740000" lon="7.163770000">
        <ele>66</ele>
        <time>2021-04-28T10:33:03Z</time>
      </trkpt>
      <trkpt lat="51.603780000" lon="7.163590000">
        <ele>66</ele>
        <time>2021-04-28T10:33:06Z</time>
      </trkpt>
      <trkpt lat="51.603800000" lon="7.163470000">
        <ele>66</ele>
        <time>2021-04-28T10:33:07Z</time>
      </trkpt>
      <trkpt lat="51.603850000" lon="7.163270000">
        <ele>64</ele>
        <time>2021-04-28T10:33:11Z</time>
      </trkpt>
      <trkpt lat="51.603900000" lon="7.163140000">
        <ele>64</ele>
        <time>2021-04-28T10:33:12Z</time>
      </trkpt>
      <trkpt lat="51.603930000" lon="7.163050000">
        <ele>64</ele>
        <time>2021-04-28T10:33:13Z</time>
      </trkpt>
      <trkpt lat="51.603950000" lon="7.162940000">
        <ele>64</ele>
        <time>2021-04-28T10:33:15Z</time>
      </trkpt>
      <trkpt lat="51.603990000" lon="7.162770000">
        <ele>64</ele>
        <time>2021-04-28T10:33:17Z</time>
      </trkpt>
      <trkpt lat="51.604020000" lon="7.162700000">
        <ele>64</ele>
        <time>2021-04-28T10:33:18Z</time>
      </trkpt>
      <trkpt lat="51.604070000" lon="7.162550000">
        <ele>64</ele>
        <time>2021-04-28T10:33:20Z</time>
      </trkpt>
      <trkpt lat="51.604140000" lon="7.162400000">
        <ele>64</ele>
        <time>2021-04-28T10:33:22Z</time>
      </trkpt>
      <trkpt lat="51.604210000" lon="7.162250000">
        <ele>64</ele>
        <time>2021-04-28T10:33:23Z</time>
      </trkpt>
      <trkpt lat="51.604250000" lon="7.162180000">
        <ele>64</ele>
        <time>2021-04-28T10:33:24Z</time>
      </trkpt>
      <trkpt lat="51.604340000" lon="7.162050000">
        <ele>64</ele>
        <time>2021-04-28T10:33:26Z</time>
      </trkpt>
      <trkpt lat="51.604390000" lon="7.161980000">
        <ele>64</ele>
        <time>2021-04-28T10:33:27Z</time>
      </trkpt>
      <trkpt lat="51.604440000" lon="7.161920000">
        <ele>64</ele>
        <time>2021-04-28T10:33:29Z</time>
      </trkpt>
      <trkpt lat="51.604490000" lon="7.161870000">
        <ele>64</ele>
        <time>2021-04-28T10:33:30Z</time>
      </trkpt>
      <trkpt lat="51.604580000" lon="7.161760000">
        <ele>64</ele>
        <time>2021-04-28T10:33:32Z</time>
      </trkpt>
      <trkpt lat="51.604680000" lon="7.161680000">
        <ele>68</ele>
        <time>2021-04-28T10:33:33Z</time>
      </trkpt>
      <trkpt lat="51.604820000" lon="7.161590000">
        <ele>68</ele>
        <time>2021-04-28T10:33:36Z</time>
      </trkpt>
      <trkpt lat="51.604920000" lon="7.161520000">
        <ele>68</ele>
        <time>2021-04-28T10:33:38Z</time>
      </trkpt>
      <trkpt lat="51.604980000" lon="7.161480000">
        <ele>68</ele>
        <time>2021-04-28T10:33:39Z</time>
      </trkpt>
      <trkpt lat="51.605090000" lon="7.161380000">
        <ele>68</ele>
        <time>2021-04-28T10:33:41Z</time>
      </trkpt>
      <trkpt lat="51.605190000" lon="7.161280000">
        <ele>68</ele>
        <time>2021-04-28T10:33:42Z</time>
      </trkpt>
      <trkpt lat="51.605250000" lon="7.161250000">
        <ele>68</ele>
        <time>2021-04-28T10:33:43Z</time>
      </trkpt>
      <trkpt lat="51.605370000" lon="7.161160000">
        <ele>68</ele>
        <time>2021-04-28T10:33:46Z</time>
      </trkpt>
      <trkpt lat="51.605480000" lon="7.161070000">
        <ele>68</ele>
        <time>2021-04-28T10:33:48Z</time>
      </trkpt>
      <trkpt lat="51.605580000" lon="7.161000000">
        <ele>68</ele>
        <time>2021-04-28T10:33:49Z</time>
      </trkpt>
      <trkpt lat="51.605650000" lon="7.160940000">
        <ele>68</ele>
        <time>2021-04-28T10:33:51Z</time>
      </trkpt>
      <trkpt lat="51.605770000" lon="7.160870000">
        <ele>68</ele>
        <time>2021-04-28T10:33:52Z</time>
      </trkpt>
      <trkpt lat="51.605870000" lon="7.160810000">
        <ele>68</ele>
        <time>2021-04-28T10:33:54Z</time>
      </trkpt>
      <trkpt lat="51.605940000" lon="7.160760000">
        <ele>68</ele>
        <time>2021-04-28T10:33:55Z</time>
      </trkpt>
      <trkpt lat="51.606020000" lon="7.160720000">
        <ele>68</ele>
        <time>2021-04-28T10:33:56Z</time>
      </trkpt>
      <trkpt lat="51.606070000" lon="7.160690000">
        <ele>68</ele>
        <time>2021-04-28T10:33:58Z</time>
      </trkpt>
      <trkpt lat="51.606190000" lon="7.160650000">
        <ele>68</ele>
        <time>2021-04-28T10:33:59Z</time>
      </trkpt>
      <trkpt lat="51.606310000" lon="7.160620000">
        <ele>68</ele>
        <time>2021-04-28T10:34:02Z</time>
      </trkpt>
      <trkpt lat="51.606430000" lon="7.160620000">
        <ele>68</ele>
        <time>2021-04-28T10:34:04Z</time>
      </trkpt>
      <trkpt lat="51.606560000" lon="7.160610000">
        <ele>68</ele>
        <time>2021-04-28T10:34:06Z</time>
      </trkpt>
      <trkpt lat="51.606660000" lon="7.160610000">
        <ele>68</ele>
        <time>2021-04-28T10:34:08Z</time>
      </trkpt>
      <trkpt lat="51.606730000" lon="7.160630000">
        <ele>68</ele>
        <time>2021-04-28T10:34:09Z</time>
      </trkpt>
      <trkpt lat="51.606840000" lon="7.160670000">
        <ele>68</ele>
        <time>2021-04-28T10:34:11Z</time>
      </trkpt>
      <trkpt lat="51.606900000" lon="7.160690000">
        <ele>68</ele>
        <time>2021-04-28T10:34:12Z</time>
      </trkpt>
      <trkpt lat="51.606960000" lon="7.160700000">
        <ele>68</ele>
        <time>2021-04-28T10:34:13Z</time>
      </trkpt>
      <trkpt lat="51.607060000" lon="7.160730000">
        <ele>71</ele>
        <time>2021-04-28T10:34:14Z</time>
      </trkpt>
      <trkpt lat="51.607210000" lon="7.160760000">
        <ele>71</ele>
        <time>2021-04-28T10:34:17Z</time>
      </trkpt>
      <trkpt lat="51.607330000" lon="7.160800000">
        <ele>71</ele>
        <time>2021-04-28T10:34:19Z</time>
      </trkpt>
      <trkpt lat="51.607450000" lon="7.160820000">
        <ele>71</ele>
        <time>2021-04-28T10:34:20Z</time>
      </trkpt>
      <trkpt lat="51.607510000" lon="7.160840000">
        <ele>71</ele>
        <time>2021-04-28T10:34:21Z</time>
      </trkpt>
      <trkpt lat="51.607570000" lon="7.160860000">
        <ele>71</ele>
        <time>2021-04-28T10:34:23Z</time>
      </trkpt>
      <trkpt lat="51.607690000" lon="7.160880000">
        <ele>71</ele>
        <time>2021-04-28T10:34:25Z</time>
      </trkpt>
      <trkpt lat="51.607750000" lon="7.160900000">
        <ele>71</ele>
        <time>2021-04-28T10:34:26Z</time>
      </trkpt>
      <trkpt lat="51.607880000" lon="7.160930000">
        <ele>71</ele>
        <time>2021-04-28T10:34:28Z</time>
      </trkpt>
      <trkpt lat="51.608000000" lon="7.160960000">
        <ele>71</ele>
        <time>2021-04-28T10:34:30Z</time>
      </trkpt>
      <trkpt lat="51.608110000" lon="7.160990000">
        <ele>71</ele>
        <time>2021-04-28T10:34:31Z</time>
      </trkpt>
      <trkpt lat="51.608170000" lon="7.161000000">
        <ele>74</ele>
        <time>2021-04-28T10:34:33Z</time>
      </trkpt>
      <trkpt lat="51.608280000" lon="7.161020000">
        <ele>74</ele>
        <time>2021-04-28T10:34:34Z</time>
      </trkpt>
      <trkpt lat="51.608350000" lon="7.161040000">
        <ele>74</ele>
        <time>2021-04-28T10:34:36Z</time>
      </trkpt>
      <trkpt lat="51.608460000" lon="7.161070000">
        <ele>74</ele>
        <time>2021-04-28T10:34:37Z</time>
      </trkpt>
      <trkpt lat="51.608520000" lon="7.161080000">
        <ele>74</ele>
        <time>2021-04-28T10:34:38Z</time>
      </trkpt>
      <trkpt lat="51.608590000" lon="7.161100000">
        <ele>74</ele>
        <time>2021-04-28T10:34:40Z</time>
      </trkpt>
      <trkpt lat="51.608670000" lon="7.161120000">
        <ele>74</ele>
        <time>2021-04-28T10:34:41Z</time>
      </trkpt>
      <trkpt lat="51.608810000" lon="7.161130000">
        <ele>74</ele>
        <time>2021-04-28T10:34:43Z</time>
      </trkpt>
      <trkpt lat="51.608870000" lon="7.161130000">
        <ele>74</ele>
        <time>2021-04-28T10:34:45Z</time>
      </trkpt>
      <trkpt lat="51.608990000" lon="7.161120000">
        <ele>74</ele>
        <time>2021-04-28T10:34:46Z</time>
      </trkpt>
      <trkpt lat="51.609060000" lon="7.161100000">
        <ele>74</ele>
        <time>2021-04-28T10:34:48Z</time>
      </trkpt>
      <trkpt lat="51.609160000" lon="7.161070000">
        <ele>74</ele>
        <time>2021-04-28T10:34:49Z</time>
      </trkpt>
      <trkpt lat="51.609230000" lon="7.161050000">
        <ele>74</ele>
        <time>2021-04-28T10:34:50Z</time>
      </trkpt>
      <trkpt lat="51.609290000" lon="7.161030000">
        <ele>74</ele>
        <time>2021-04-28T10:34:52Z</time>
      </trkpt>
      <trkpt lat="51.609350000" lon="7.161010000">
        <ele>76</ele>
        <time>2021-04-28T10:34:53Z</time>
      </trkpt>
      <trkpt lat="51.609450000" lon="7.160970000">
        <ele>76</ele>
        <time>2021-04-28T10:34:54Z</time>
      </trkpt>
      <trkpt lat="51.609520000" lon="7.160930000">
        <ele>76</ele>
        <time>2021-04-28T10:34:55Z</time>
      </trkpt>
      <trkpt lat="51.609620000" lon="7.160870000">
        <ele>76</ele>
        <time>2021-04-28T10:34:57Z</time>
      </trkpt>
      <trkpt lat="51.609680000" lon="7.160830000">
        <ele>76</ele>
        <time>2021-04-28T10:34:58Z</time>
      </trkpt>
      <trkpt lat="51.609750000" lon="7.160800000">
        <ele>76</ele>
        <time>2021-04-28T10:35:00Z</time>
      </trkpt>
      <trkpt lat="51.609840000" lon="7.160730000">
        <ele>76</ele>
        <time>2021-04-28T10:35:02Z</time>
      </trkpt>
      <trkpt lat="51.609920000" lon="7.160660000">
        <ele>76</ele>
        <time>2021-04-28T10:35:04Z</time>
      </trkpt>
      <trkpt lat="51.609990000" lon="7.160550000">
        <ele>76</ele>
        <time>2021-04-28T10:35:06Z</time>
      </trkpt>
      <trkpt lat="51.610100000" lon="7.160470000">
        <ele>76</ele>
        <time>2021-04-28T10:35:08Z</time>
      </trkpt>
      <trkpt lat="51.610190000" lon="7.160370000">
        <ele>76</ele>
        <time>2021-04-28T10:35:10Z</time>
      </trkpt>
      <trkpt lat="51.610280000" lon="7.160250000">
        <ele>78</ele>
        <time>2021-04-28T10:35:11Z</time>
      </trkpt>
      <trkpt lat="51.610330000" lon="7.160190000">
        <ele>78</ele>
        <time>2021-04-28T10:35:13Z</time>
      </trkpt>
      <trkpt lat="51.610370000" lon="7.160120000">
        <ele>78</ele>
        <time>2021-04-28T10:35:14Z</time>
      </trkpt>
      <trkpt lat="51.610460000" lon="7.159990000">
        <ele>78</ele>
        <time>2021-04-28T10:35:16Z</time>
      </trkpt>
      <trkpt lat="51.610530000" lon="7.159860000">
        <ele>78</ele>
        <time>2021-04-28T10:35:17Z</time>
      </trkpt>
      <trkpt lat="51.610600000" lon="7.159720000">
        <ele>78</ele>
        <time>2021-04-28T10:35:19Z</time>
      </trkpt>
      <trkpt lat="51.610650000" lon="7.159630000">
        <ele>78</ele>
        <time>2021-04-28T10:35:21Z</time>
      </trkpt>
      <trkpt lat="51.610680000" lon="7.159560000">
        <ele>78</ele>
        <time>2021-04-28T10:35:22Z</time>
      </trkpt>
      <trkpt lat="51.610710000" lon="7.159490000">
        <ele>78</ele>
        <time>2021-04-28T10:35:23Z</time>
      </trkpt>
      <trkpt lat="51.610770000" lon="7.159340000">
        <ele>78</ele>
        <time>2021-04-28T10:35:24Z</time>
      </trkpt>
      <trkpt lat="51.610800000" lon="7.159230000">
        <ele>78</ele>
        <time>2021-04-28T10:35:26Z</time>
      </trkpt>
      <trkpt lat="51.610850000" lon="7.159090000">
        <ele>78</ele>
        <time>2021-04-28T10:35:28Z</time>
      </trkpt>
      <trkpt lat="51.610870000" lon="7.159010000">
        <ele>78</ele>
        <time>2021-04-28T10:35:29Z</time>
      </trkpt>
      <trkpt lat="51.610900000" lon="7.158920000">
        <ele>78</ele>
        <time>2021-04-28T10:35:30Z</time>
      </trkpt>
      <trkpt lat="51.610950000" lon="7.158780000">
        <ele>78</ele>
        <time>2021-04-28T10:35:32Z</time>
      </trkpt>
      <trkpt lat="51.611010000" lon="7.158620000">
        <ele>78</ele>
        <time>2021-04-28T10:35:34Z</time>
      </trkpt>
      <trkpt lat="51.611050000" lon="7.158470000">
        <ele>78</ele>
        <time>2021-04-28T10:35:35Z</time>
      </trkpt>
      <trkpt lat="51.611080000" lon="7.158360000">
        <ele>80</ele>
        <time>2021-04-28T10:35:36Z</time>
      </trkpt>
      <trkpt lat="51.611140000" lon="7.158210000">
        <ele>80</ele>
        <time>2021-04-28T10:35:38Z</time>
      </trkpt>
      <trkpt lat="51.611160000" lon="7.158120000">
        <ele>80</ele>
        <time>2021-04-28T10:35:39Z</time>
      </trkpt>
      <trkpt lat="51.611190000" lon="7.158020000">
        <ele>80</ele>
        <time>2021-04-28T10:35:41Z</time>
      </trkpt>
      <trkpt lat="51.611210000" lon="7.157950000">
        <ele>80</ele>
        <time>2021-04-28T10:35:42Z</time>
      </trkpt>
      <trkpt lat="51.611240000" lon="7.157880000">
        <ele>80</ele>
        <time>2021-04-28T10:35:43Z</time>
      </trkpt>
      <trkpt lat="51.611280000" lon="7.157700000">
        <ele>80</ele>
        <time>2021-04-28T10:35:45Z</time>
      </trkpt>
      <trkpt lat="51.611300000" lon="7.157600000">
        <ele>80</ele>
        <time>2021-04-28T10:35:46Z</time>
      </trkpt>
      <trkpt lat="51.611320000" lon="7.157440000">
        <ele>80</ele>
        <time>2021-04-28T10:35:48Z</time>
      </trkpt>
      <trkpt lat="51.611340000" lon="7.157260000">
        <ele>80</ele>
        <time>2021-04-28T10:35:50Z</time>
      </trkpt>
      <trkpt lat="51.611360000" lon="7.157080000">
        <ele>80</ele>
        <time>2021-04-28T10:35:52Z</time>
      </trkpt>
      <trkpt lat="51.611390000" lon="7.156920000">
        <ele>80</ele>
        <time>2021-04-28T10:35:55Z</time>
      </trkpt>
      <trkpt lat="51.611410000" lon="7.156720000">
        <ele>80</ele>
        <time>2021-04-28T10:35:57Z</time>
      </trkpt>
      <trkpt lat="51.611450000" lon="7.156550000">
        <ele>80</ele>
        <time>2021-04-28T10:35:58Z</time>
      </trkpt>
      <trkpt lat="51.611460000" lon="7.156340000">
        <ele>74</ele>
        <time>2021-04-28T10:36:00Z</time>
      </trkpt>
      <trkpt lat="51.611450000" lon="7.156230000">
        <ele>74</ele>
        <time>2021-04-28T10:36:02Z</time>
      </trkpt>
      <trkpt lat="51.611430000" lon="7.156030000">
        <ele>74</ele>
        <time>2021-04-28T10:36:03Z</time>
      </trkpt>
      <trkpt lat="51.611410000" lon="7.155830000">
        <ele>74</ele>
        <time>2021-04-28T10:36:06Z</time>
      </trkpt>
      <trkpt lat="51.611380000" lon="7.155690000">
        <ele>74</ele>
        <time>2021-04-28T10:36:08Z</time>
      </trkpt>
      <trkpt lat="51.611330000" lon="7.155520000">
        <ele>74</ele>
        <time>2021-04-28T10:36:10Z</time>
      </trkpt>
      <trkpt lat="51.611300000" lon="7.155450000">
        <ele>74</ele>
        <time>2021-04-28T10:36:11Z</time>
      </trkpt>
      <trkpt lat="51.611250000" lon="7.155260000">
        <ele>74</ele>
        <time>2021-04-28T10:36:12Z</time>
      </trkpt>
      <trkpt lat="51.611220000" lon="7.155170000">
        <ele>74</ele>
        <time>2021-04-28T10:36:14Z</time>
      </trkpt>
      <trkpt lat="51.611200000" lon="7.155030000">
        <ele>74</ele>
        <time>2021-04-28T10:36:16Z</time>
      </trkpt>
      <trkpt lat="51.611170000" lon="7.154850000">
        <ele>74</ele>
        <time>2021-04-28T10:36:18Z</time>
      </trkpt>
      <trkpt lat="51.611150000" lon="7.154780000">
        <ele>74</ele>
        <time>2021-04-28T10:36:19Z</time>
      </trkpt>
      <trkpt lat="51.611110000" lon="7.154680000">
        <ele>74</ele>
        <time>2021-04-28T10:36:20Z</time>
      </trkpt>
      <trkpt lat="51.611090000" lon="7.154530000">
        <ele>74</ele>
        <time>2021-04-28T10:36:22Z</time>
      </trkpt>
      <trkpt lat="51.611070000" lon="7.154440000">
        <ele>74</ele>
        <time>2021-04-28T10:36:24Z</time>
      </trkpt>
      <trkpt lat="51.611030000" lon="7.154320000">
        <ele>74</ele>
        <time>2021-04-28T10:36:26Z</time>
      </trkpt>
      <trkpt lat="51.611000000" lon="7.154180000">
        <ele>74</ele>
        <time>2021-04-28T10:36:28Z</time>
      </trkpt>
      <trkpt lat="51.610950000" lon="7.153980000">
        <ele>74</ele>
        <time>2021-04-28T10:36:30Z</time>
      </trkpt>
      <trkpt lat="51.610920000" lon="7.153740000">
        <ele>74</ele>
        <time>2021-04-28T10:36:32Z</time>
      </trkpt>
      <trkpt lat="51.610880000" lon="7.153550000">
        <ele>74</ele>
        <time>2021-04-28T10:36:33Z</time>
      </trkpt>
      <trkpt lat="51.610860000" lon="7.153460000">
        <ele>74</ele>
        <time>2021-04-28T10:36:34Z</time>
      </trkpt>
      <trkpt lat="51.610790000" lon="7.153300000">
        <ele>74</ele>
        <time>2021-04-28T10:36:37Z</time>
      </trkpt>
      <trkpt lat="51.610740000" lon="7.153070000">
        <ele>74</ele>
        <time>2021-04-28T10:36:39Z</time>
      </trkpt>
      <trkpt lat="51.610710000" lon="7.152920000">
        <ele>74</ele>
        <time>2021-04-28T10:36:40Z</time>
      </trkpt>
      <trkpt lat="51.610680000" lon="7.152780000">
        <ele>80</ele>
        <time>2021-04-28T10:36:41Z</time>
      </trkpt>
      <trkpt lat="51.610640000" lon="7.152630000">
        <ele>80</ele>
        <time>2021-04-28T10:36:43Z</time>
      </trkpt>
      <trkpt lat="51.610610000" lon="7.152510000">
        <ele>80</ele>
        <time>2021-04-28T10:36:45Z</time>
      </trkpt>
      <trkpt lat="51.610560000" lon="7.152310000">
        <ele>80</ele>
        <time>2021-04-28T10:36:47Z</time>
      </trkpt>
      <trkpt lat="51.610530000" lon="7.152160000">
        <ele>80</ele>
        <time>2021-04-28T10:36:48Z</time>
      </trkpt>
      <trkpt lat="51.610510000" lon="7.152030000">
        <ele>80</ele>
        <time>2021-04-28T10:36:50Z</time>
      </trkpt>
      <trkpt lat="51.610480000" lon="7.151850000">
        <ele>80</ele>
        <time>2021-04-28T10:36:52Z</time>
      </trkpt>
      <trkpt lat="51.610440000" lon="7.151730000">
        <ele>80</ele>
        <time>2021-04-28T10:36:53Z</time>
      </trkpt>
      <trkpt lat="51.610420000" lon="7.151620000">
        <ele>80</ele>
        <time>2021-04-28T10:36:55Z</time>
      </trkpt>
      <trkpt lat="51.610400000" lon="7.151550000">
        <ele>80</ele>
        <time>2021-04-28T10:36:56Z</time>
      </trkpt>
      <trkpt lat="51.610380000" lon="7.151390000">
        <ele>80</ele>
        <time>2021-04-28T10:36:57Z</time>
      </trkpt>
      <trkpt lat="51.610370000" lon="7.151280000">
        <ele>80</ele>
        <time>2021-04-28T10:36:59Z</time>
      </trkpt>
      <trkpt lat="51.610360000" lon="7.151190000">
        <ele>80</ele>
        <time>2021-04-28T10:37:00Z</time>
      </trkpt>
      <trkpt lat="51.610370000" lon="7.151020000">
        <ele>80</ele>
        <time>2021-04-28T10:37:01Z</time>
      </trkpt>
      <trkpt lat="51.610380000" lon="7.150820000">
        <ele>80</ele>
        <time>2021-04-28T10:37:03Z</time>
      </trkpt>
      <trkpt lat="51.610400000" lon="7.150710000">
        <ele>80</ele>
        <time>2021-04-28T10:37:04Z</time>
      </trkpt>
      <trkpt lat="51.610400000" lon="7.150620000">
        <ele>80</ele>
        <time>2021-04-28T10:37:05Z</time>
      </trkpt>
      <trkpt lat="51.610400000" lon="7.150530000">
        <ele>82</ele>
        <time>2021-04-28T10:37:06Z</time>
      </trkpt>
      <trkpt lat="51.610400000" lon="7.150440000">
        <ele>82</ele>
        <time>2021-04-28T10:37:07Z</time>
      </trkpt>
      <trkpt lat="51.610400000" lon="7.150330000">
        <ele>82</ele>
        <time>2021-04-28T10:37:09Z</time>
      </trkpt>
      <trkpt lat="51.610390000" lon="7.150110000">
        <ele>82</ele>
        <time>2021-04-28T10:37:11Z</time>
      </trkpt>
      <trkpt lat="51.610350000" lon="7.149920000">
        <ele>82</ele>
        <time>2021-04-28T10:37:13Z</time>
      </trkpt>
      <trkpt lat="51.610340000" lon="7.149750000">
        <ele>82</ele>
        <time>2021-04-28T10:37:15Z</time>
      </trkpt>
      <trkpt lat="51.610320000" lon="7.149530000">
        <ele>82</ele>
        <time>2021-04-28T10:37:17Z</time>
      </trkpt>
      <trkpt lat="51.610300000" lon="7.149340000">
        <ele>82</ele>
        <time>2021-04-28T10:37:19Z</time>
      </trkpt>
      <trkpt lat="51.610280000" lon="7.149150000">
        <ele>82</ele>
        <time>2021-04-28T10:37:21Z</time>
      </trkpt>
      <trkpt lat="51.610260000" lon="7.148980000">
        <ele>82</ele>
        <time>2021-04-28T10:37:22Z</time>
      </trkpt>
      <trkpt lat="51.610260000" lon="7.148880000">
        <ele>82</ele>
        <time>2021-04-28T10:37:23Z</time>
      </trkpt>
      <trkpt lat="51.610250000" lon="7.148770000">
        <ele>82</ele>
        <time>2021-04-28T10:37:24Z</time>
      </trkpt>
      <trkpt lat="51.610240000" lon="7.148590000">
        <ele>82</ele>
        <time>2021-04-28T10:37:26Z</time>
      </trkpt>
      <trkpt lat="51.610230000" lon="7.148470000">
        <ele>84</ele>
        <time>2021-04-28T10:37:28Z</time>
      </trkpt>
      <trkpt lat="51.610220000" lon="7.148290000">
        <ele>84</ele>
        <time>2021-04-28T10:37:30Z</time>
      </trkpt>
      <trkpt lat="51.610210000" lon="7.148100000">
        <ele>84</ele>
        <time>2021-04-28T10:37:32Z</time>
      </trkpt>
      <trkpt lat="51.610190000" lon="7.147920000">
        <ele>84</ele>
        <time>2021-04-28T10:37:34Z</time>
      </trkpt>
      <trkpt lat="51.610180000" lon="7.147730000">
        <ele>84</ele>
        <time>2021-04-28T10:37:36Z</time>
      </trkpt>
      <trkpt lat="51.610170000" lon="7.147570000">
        <ele>84</ele>
        <time>2021-04-28T10:37:37Z</time>
      </trkpt>
      <trkpt lat="51.610160000" lon="7.147430000">
        <ele>84</ele>
        <time>2021-04-28T10:37:39Z</time>
      </trkpt>
      <trkpt lat="51.610170000" lon="7.147250000">
        <ele>84</ele>
        <time>2021-04-28T10:37:41Z</time>
      </trkpt>
      <trkpt lat="51.610160000" lon="7.147160000">
        <ele>84</ele>
        <time>2021-04-28T10:37:42Z</time>
      </trkpt>
      <trkpt lat="51.610140000" lon="7.147000000">
        <ele>84</ele>
        <time>2021-04-28T10:37:43Z</time>
      </trkpt>
      <trkpt lat="51.610120000" lon="7.146780000">
        <ele>84</ele>
        <time>2021-04-28T10:37:46Z</time>
      </trkpt>
      <trkpt lat="51.610120000" lon="7.146600000">
        <ele>86</ele>
        <time>2021-04-28T10:37:47Z</time>
      </trkpt>
      <trkpt lat="51.610100000" lon="7.146480000">
        <ele>86</ele>
        <time>2021-04-28T10:37:49Z</time>
      </trkpt>
      <trkpt lat="51.610090000" lon="7.146310000">
        <ele>86</ele>
        <time>2021-04-28T10:37:51Z</time>
      </trkpt>
      <trkpt lat="51.610080000" lon="7.146220000">
        <ele>86</ele>
        <time>2021-04-28T10:37:52Z</time>
      </trkpt>
      <trkpt lat="51.610060000" lon="7.146040000">
        <ele>86</ele>
        <time>2021-04-28T10:37:53Z</time>
      </trkpt>
      <trkpt lat="51.610040000" lon="7.145950000">
        <ele>86</ele>
        <time>2021-04-28T10:37:55Z</time>
      </trkpt>
      <trkpt lat="51.610020000" lon="7.145760000">
        <ele>86</ele>
        <time>2021-04-28T10:37:57Z</time>
      </trkpt>
      <trkpt lat="51.610020000" lon="7.145670000">
        <ele>86</ele>
        <time>2021-04-28T10:37:58Z</time>
      </trkpt>
      <trkpt lat="51.610010000" lon="7.145480000">
        <ele>86</ele>
        <time>2021-04-28T10:37:59Z</time>
      </trkpt>
      <trkpt lat="51.610000000" lon="7.145380000">
        <ele>86</ele>
        <time>2021-04-28T10:38:01Z</time>
      </trkpt>
      <trkpt lat="51.610000000" lon="7.145180000">
        <ele>86</ele>
        <time>2021-04-28T10:38:02Z</time>
      </trkpt>
      <trkpt lat="51.609980000" lon="7.145010000">
        <ele>86</ele>
        <time>2021-04-28T10:38:04Z</time>
      </trkpt>
      <trkpt lat="51.609980000" lon="7.144920000">
        <ele>86</ele>
        <time>2021-04-28T10:38:05Z</time>
      </trkpt>
      <trkpt lat="51.609960000" lon="7.144820000">
        <ele>89</ele>
        <time>2021-04-28T10:38:07Z</time>
      </trkpt>
      <trkpt lat="51.609950000" lon="7.144650000">
        <ele>89</ele>
        <time>2021-04-28T10:38:08Z</time>
      </trkpt>
      <trkpt lat="51.609950000" lon="7.144560000">
        <ele>89</ele>
        <time>2021-04-28T10:38:10Z</time>
      </trkpt>
      <trkpt lat="51.609950000" lon="7.144440000">
        <ele>89</ele>
        <time>2021-04-28T10:38:12Z</time>
      </trkpt>
      <trkpt lat="51.609960000" lon="7.144300000">
        <ele>89</ele>
        <time>2021-04-28T10:38:16Z</time>
      </trkpt>
      <trkpt lat="51.609920000" lon="7.144150000">
        <ele>89</ele>
        <time>2021-04-28T10:38:18Z</time>
      </trkpt>
      <trkpt lat="51.609900000" lon="7.144000000">
        <ele>89</ele>
        <time>2021-04-28T10:38:19Z</time>
      </trkpt>
      <trkpt lat="51.609870000" lon="7.143840000">
        <ele>89</ele>
        <time>2021-04-28T10:38:22Z</time>
      </trkpt>
      <trkpt lat="51.609850000" lon="7.143690000">
        <ele>89</ele>
        <time>2021-04-28T10:38:23Z</time>
      </trkpt>
      <trkpt lat="51.609840000" lon="7.143490000">
        <ele>89</ele>
        <time>2021-04-28T10:38:25Z</time>
      </trkpt>
      <trkpt lat="51.609830000" lon="7.143370000">
        <ele>89</ele>
        <time>2021-04-28T10:38:27Z</time>
      </trkpt>
      <trkpt lat="51.609840000" lon="7.143180000">
        <ele>89</ele>
        <time>2021-04-28T10:38:29Z</time>
      </trkpt>
      <trkpt lat="51.609850000" lon="7.143090000">
        <ele>89</ele>
        <time>2021-04-28T10:38:30Z</time>
      </trkpt>
      <trkpt lat="51.609850000" lon="7.143010000">
        <ele>89</ele>
        <time>2021-04-28T10:38:31Z</time>
      </trkpt>
      <trkpt lat="51.609810000" lon="7.142850000">
        <ele>89</ele>
        <time>2021-04-28T10:38:33Z</time>
      </trkpt>
      <trkpt lat="51.609800000" lon="7.142760000">
        <ele>89</ele>
        <time>2021-04-28T10:38:34Z</time>
      </trkpt>
      <trkpt lat="51.609780000" lon="7.142660000">
        <ele>89</ele>
        <time>2021-04-28T10:38:35Z</time>
      </trkpt>
      <trkpt lat="51.609780000" lon="7.142480000">
        <ele>91</ele>
        <time>2021-04-28T10:38:37Z</time>
      </trkpt>
      <trkpt lat="51.609760000" lon="7.142310000">
        <ele>91</ele>
        <time>2021-04-28T10:38:39Z</time>
      </trkpt>
      <trkpt lat="51.609760000" lon="7.142190000">
        <ele>91</ele>
        <time>2021-04-28T10:38:40Z</time>
      </trkpt>
      <trkpt lat="51.609760000" lon="7.142060000">
        <ele>91</ele>
        <time>2021-04-28T10:38:42Z</time>
      </trkpt>
      <trkpt lat="51.609770000" lon="7.141860000">
        <ele>91</ele>
        <time>2021-04-28T10:38:44Z</time>
      </trkpt>
      <trkpt lat="51.609780000" lon="7.141650000">
        <ele>91</ele>
        <time>2021-04-28T10:38:45Z</time>
      </trkpt>
      <trkpt lat="51.609770000" lon="7.141420000">
        <ele>91</ele>
        <time>2021-04-28T10:38:48Z</time>
      </trkpt>
      <trkpt lat="51.609760000" lon="7.141350000">
        <ele>91</ele>
        <time>2021-04-28T10:38:49Z</time>
      </trkpt>
      <trkpt lat="51.609740000" lon="7.141130000">
        <ele>91</ele>
        <time>2021-04-28T10:38:51Z</time>
      </trkpt>
      <trkpt lat="51.609740000" lon="7.140920000">
        <ele>91</ele>
        <time>2021-04-28T10:38:53Z</time>
      </trkpt>
      <trkpt lat="51.609740000" lon="7.140840000">
        <ele>91</ele>
        <time>2021-04-28T10:38:54Z</time>
      </trkpt>
      <trkpt lat="51.609740000" lon="7.140750000">
        <ele>91</ele>
        <time>2021-04-28T10:38:55Z</time>
      </trkpt>
      <trkpt lat="51.609740000" lon="7.140550000">
        <ele>92</ele>
        <time>2021-04-28T10:38:57Z</time>
      </trkpt>
      <trkpt lat="51.609720000" lon="7.140360000">
        <ele>92</ele>
        <time>2021-04-28T10:38:59Z</time>
      </trkpt>
      <trkpt lat="51.609700000" lon="7.140180000">
        <ele>92</ele>
        <time>2021-04-28T10:39:01Z</time>
      </trkpt>
      <trkpt lat="51.609680000" lon="7.140000000">
        <ele>92</ele>
        <time>2021-04-28T10:39:03Z</time>
      </trkpt>
      <trkpt lat="51.609660000" lon="7.139810000">
        <ele>92</ele>
        <time>2021-04-28T10:39:05Z</time>
      </trkpt>
      <trkpt lat="51.609640000" lon="7.139650000">
        <ele>92</ele>
        <time>2021-04-28T10:39:06Z</time>
      </trkpt>
      <trkpt lat="51.609630000" lon="7.139550000">
        <ele>92</ele>
        <time>2021-04-28T10:39:07Z</time>
      </trkpt>
      <trkpt lat="51.609610000" lon="7.139430000">
        <ele>92</ele>
        <time>2021-04-28T10:39:09Z</time>
      </trkpt>
      <trkpt lat="51.609600000" lon="7.139300000">
        <ele>92</ele>
        <time>2021-04-28T10:39:10Z</time>
      </trkpt>
      <trkpt lat="51.609590000" lon="7.139100000">
        <ele>92</ele>
        <time>2021-04-28T10:39:12Z</time>
      </trkpt>
      <trkpt lat="51.609580000" lon="7.139000000">
        <ele>92</ele>
        <time>2021-04-28T10:39:14Z</time>
      </trkpt>
      <trkpt lat="51.609570000" lon="7.138860000">
        <ele>92</ele>
        <time>2021-04-28T10:39:16Z</time>
      </trkpt>
      <trkpt lat="51.609540000" lon="7.138670000">
        <ele>92</ele>
        <time>2021-04-28T10:39:17Z</time>
      </trkpt>
      <trkpt lat="51.609550000" lon="7.138590000">
        <ele>92</ele>
        <time>2021-04-28T10:39:19Z</time>
      </trkpt>
      <trkpt lat="51.609570000" lon="7.138330000">
        <ele>92</ele>
        <time>2021-04-28T10:39:22Z</time>
      </trkpt>
      <trkpt lat="51.609560000" lon="7.138160000">
        <ele>92</ele>
        <time>2021-04-28T10:39:24Z</time>
      </trkpt>
      <trkpt lat="51.609550000" lon="7.138080000">
        <ele>96</ele>
        <time>2021-04-28T10:39:25Z</time>
      </trkpt>
      <trkpt lat="51.609520000" lon="7.137850000">
        <ele>96</ele>
        <time>2021-04-28T10:39:26Z</time>
      </trkpt>
      <trkpt lat="51.609510000" lon="7.137600000">
        <ele>96</ele>
        <time>2021-04-28T10:39:29Z</time>
      </trkpt>
      <trkpt lat="51.609500000" lon="7.137440000">
        <ele>96</ele>
        <time>2021-04-28T10:39:30Z</time>
      </trkpt>
      <trkpt lat="51.609510000" lon="7.137280000">
        <ele>96</ele>
        <time>2021-04-28T10:39:32Z</time>
      </trkpt>
      <trkpt lat="51.609540000" lon="7.137100000">
        <ele>96</ele>
        <time>2021-04-28T10:39:34Z</time>
      </trkpt>
      <trkpt lat="51.609550000" lon="7.136900000">
        <ele>96</ele>
        <time>2021-04-28T10:39:36Z</time>
      </trkpt>
      <trkpt lat="51.609540000" lon="7.136750000">
        <ele>96</ele>
        <time>2021-04-28T10:39:38Z</time>
      </trkpt>
      <trkpt lat="51.609560000" lon="7.136590000">
        <ele>96</ele>
        <time>2021-04-28T10:39:40Z</time>
      </trkpt>
      <trkpt lat="51.609630000" lon="7.136410000">
        <ele>96</ele>
        <time>2021-04-28T10:39:42Z</time>
      </trkpt>
      <trkpt lat="51.609680000" lon="7.136220000">
        <ele>96</ele>
        <time>2021-04-28T10:39:43Z</time>
      </trkpt>
      <trkpt lat="51.609710000" lon="7.136070000">
        <ele>98</ele>
        <time>2021-04-28T10:39:45Z</time>
      </trkpt>
      <trkpt lat="51.609740000" lon="7.135890000">
        <ele>98</ele>
        <time>2021-04-28T10:39:46Z</time>
      </trkpt>
      <trkpt lat="51.609780000" lon="7.135700000">
        <ele>98</ele>
        <time>2021-04-28T10:39:48Z</time>
      </trkpt>
      <trkpt lat="51.609800000" lon="7.135580000">
        <ele>98</ele>
        <time>2021-04-28T10:39:49Z</time>
      </trkpt>
      <trkpt lat="51.609810000" lon="7.135500000">
        <ele>98</ele>
        <time>2021-04-28T10:39:51Z</time>
      </trkpt>
      <trkpt lat="51.609830000" lon="7.135340000">
        <ele>98</ele>
        <time>2021-04-28T10:39:52Z</time>
      </trkpt>
      <trkpt lat="51.609850000" lon="7.135260000">
        <ele>98</ele>
        <time>2021-04-28T10:39:54Z</time>
      </trkpt>
      <trkpt lat="51.609860000" lon="7.135100000">
        <ele>98</ele>
        <time>2021-04-28T10:39:56Z</time>
      </trkpt>
      <trkpt lat="51.609860000" lon="7.135000000">
        <ele>98</ele>
        <time>2021-04-28T10:39:58Z</time>
      </trkpt>
      <trkpt lat="51.609950000" lon="7.134920000">
        <ele>98</ele>
        <time>2021-04-28T10:40:01Z</time>
      </trkpt>
      <trkpt lat="51.609950000" lon="7.134680000">
        <ele>98</ele>
        <time>2021-04-28T10:40:04Z</time>
      </trkpt>
      <trkpt lat="51.609990000" lon="7.134500000">
        <ele>99</ele>
        <time>2021-04-28T10:40:05Z</time>
      </trkpt>
      <trkpt lat="51.610030000" lon="7.134310000">
        <ele>99</ele>
        <time>2021-04-28T10:40:07Z</time>
      </trkpt>
      <trkpt lat="51.610060000" lon="7.134170000">
        <ele>99</ele>
        <time>2021-04-28T10:40:09Z</time>
      </trkpt>
      <trkpt lat="51.610070000" lon="7.134040000">
        <ele>99</ele>
        <time>2021-04-28T10:40:11Z</time>
      </trkpt>
      <trkpt lat="51.610090000" lon="7.133850000">
        <ele>99</ele>
        <time>2021-04-28T10:40:13Z</time>
      </trkpt>
      <trkpt lat="51.610080000" lon="7.133670000">
        <ele>99</ele>
        <time>2021-04-28T10:40:15Z</time>
      </trkpt>
      <trkpt lat="51.610090000" lon="7.133570000">
        <ele>99</ele>
        <time>2021-04-28T10:40:16Z</time>
      </trkpt>
      <trkpt lat="51.610100000" lon="7.133380000">
        <ele>99</ele>
        <time>2021-04-28T10:40:18Z</time>
      </trkpt>
      <trkpt lat="51.610100000" lon="7.133290000">
        <ele>99</ele>
        <time>2021-04-28T10:40:20Z</time>
      </trkpt>
      <trkpt lat="51.610100000" lon="7.133220000">
        <ele>99</ele>
        <time>2021-04-28T10:40:24Z</time>
      </trkpt>
      <trkpt lat="51.610080000" lon="7.133090000">
        <ele>99</ele>
        <time>2021-04-28T10:40:26Z</time>
      </trkpt>
      <trkpt lat="51.610080000" lon="7.132930000">
        <ele>99</ele>
        <time>2021-04-28T10:40:27Z</time>
      </trkpt>
      <trkpt lat="51.610100000" lon="7.132750000">
        <ele>99</ele>
        <time>2021-04-28T10:40:29Z</time>
      </trkpt>
      <trkpt lat="51.610100000" lon="7.132640000">
        <ele>97</ele>
        <time>2021-04-28T10:40:31Z</time>
      </trkpt>
      <trkpt lat="51.610090000" lon="7.132560000">
        <ele>97</ele>
        <time>2021-04-28T10:40:32Z</time>
      </trkpt>
      <trkpt lat="51.610070000" lon="7.132380000">
        <ele>97</ele>
        <time>2021-04-28T10:40:33Z</time>
      </trkpt>
      <trkpt lat="51.610070000" lon="7.132280000">
        <ele>97</ele>
        <time>2021-04-28T10:40:35Z</time>
      </trkpt>
      <trkpt lat="51.610070000" lon="7.132200000">
        <ele>97</ele>
        <time>2021-04-28T10:40:36Z</time>
      </trkpt>
      <trkpt lat="51.610040000" lon="7.132040000">
        <ele>97</ele>
        <time>2021-04-28T10:40:37Z</time>
      </trkpt>
      <trkpt lat="51.610010000" lon="7.131920000">
        <ele>97</ele>
        <time>2021-04-28T10:40:38Z</time>
      </trkpt>
      <trkpt lat="51.609990000" lon="7.131820000">
        <ele>97</ele>
        <time>2021-04-28T10:40:40Z</time>
      </trkpt>
      <trkpt lat="51.609960000" lon="7.131650000">
        <ele>97</ele>
        <time>2021-04-28T10:40:42Z</time>
      </trkpt>
      <trkpt lat="51.609910000" lon="7.131470000">
        <ele>97</ele>
        <time>2021-04-28T10:40:44Z</time>
      </trkpt>
      <trkpt lat="51.609880000" lon="7.131380000">
        <ele>97</ele>
        <time>2021-04-28T10:40:45Z</time>
      </trkpt>
      <trkpt lat="51.609860000" lon="7.131300000">
        <ele>97</ele>
        <time>2021-04-28T10:40:46Z</time>
      </trkpt>
      <trkpt lat="51.609780000" lon="7.131140000">
        <ele>97</ele>
        <time>2021-04-28T10:40:48Z</time>
      </trkpt>
      <trkpt lat="51.609760000" lon="7.130950000">
        <ele>97</ele>
        <time>2021-04-28T10:40:49Z</time>
      </trkpt>
      <trkpt lat="51.609710000" lon="7.130730000">
        <ele>98</ele>
        <time>2021-04-28T10:40:51Z</time>
      </trkpt>
      <trkpt lat="51.609690000" lon="7.130650000">
        <ele>98</ele>
        <time>2021-04-28T10:40:52Z</time>
      </trkpt>
      <trkpt lat="51.609670000" lon="7.130570000">
        <ele>98</ele>
        <time>2021-04-28T10:40:54Z</time>
      </trkpt>
      <trkpt lat="51.609650000" lon="7.130490000">
        <ele>98</ele>
        <time>2021-04-28T10:40:55Z</time>
      </trkpt>
      <trkpt lat="51.609630000" lon="7.130400000">
        <ele>98</ele>
        <time>2021-04-28T10:40:56Z</time>
      </trkpt>
      <trkpt lat="51.609600000" lon="7.130200000">
        <ele>98</ele>
        <time>2021-04-28T10:40:58Z</time>
      </trkpt>
      <trkpt lat="51.609560000" lon="7.130010000">
        <ele>98</ele>
        <time>2021-04-28T10:41:00Z</time>
      </trkpt>
      <trkpt lat="51.609530000" lon="7.129850000">
        <ele>98</ele>
        <time>2021-04-28T10:41:01Z</time>
      </trkpt>
      <trkpt lat="51.609500000" lon="7.129730000">
        <ele>98</ele>
        <time>2021-04-28T10:41:03Z</time>
      </trkpt>
      <trkpt lat="51.609460000" lon="7.129540000">
        <ele>98</ele>
        <time>2021-04-28T10:41:04Z</time>
      </trkpt>
      <trkpt lat="51.609430000" lon="7.129450000">
        <ele>98</ele>
        <time>2021-04-28T10:41:06Z</time>
      </trkpt>
      <trkpt lat="51.609390000" lon="7.129260000">
        <ele>98</ele>
        <time>2021-04-28T10:41:08Z</time>
      </trkpt>
      <trkpt lat="51.609370000" lon="7.129160000">
        <ele>98</ele>
        <time>2021-04-28T10:41:09Z</time>
      </trkpt>
      <trkpt lat="51.609340000" lon="7.128980000">
        <ele>98</ele>
        <time>2021-04-28T10:41:10Z</time>
      </trkpt>
      <trkpt lat="51.609330000" lon="7.128860000">
        <ele>98</ele>
        <time>2021-04-28T10:41:12Z</time>
      </trkpt>
      <trkpt lat="51.609300000" lon="7.128660000">
        <ele>98</ele>
        <time>2021-04-28T10:41:13Z</time>
      </trkpt>
      <trkpt lat="51.609270000" lon="7.128570000">
        <ele>100</ele>
        <time>2021-04-28T10:41:15Z</time>
      </trkpt>
      <trkpt lat="51.609220000" lon="7.128380000">
        <ele>100</ele>
        <time>2021-04-28T10:41:16Z</time>
      </trkpt>
      <trkpt lat="51.609200000" lon="7.128280000">
        <ele>100</ele>
        <time>2021-04-28T10:41:18Z</time>
      </trkpt>
      <trkpt lat="51.609150000" lon="7.128090000">
        <ele>100</ele>
        <time>2021-04-28T10:41:20Z</time>
      </trkpt>
      <trkpt lat="51.609120000" lon="7.127990000">
        <ele>100</ele>
        <time>2021-04-28T10:41:21Z</time>
      </trkpt>
      <trkpt lat="51.609090000" lon="7.127780000">
        <ele>100</ele>
        <time>2021-04-28T10:41:23Z</time>
      </trkpt>
      <trkpt lat="51.609050000" lon="7.127560000">
        <ele>100</ele>
        <time>2021-04-28T10:41:25Z</time>
      </trkpt>
      <trkpt lat="51.609020000" lon="7.127380000">
        <ele>100</ele>
        <time>2021-04-28T10:41:27Z</time>
      </trkpt>
      <trkpt lat="51.608990000" lon="7.127210000">
        <ele>100</ele>
        <time>2021-04-28T10:41:29Z</time>
      </trkpt>
      <trkpt lat="51.608940000" lon="7.127040000">
        <ele>100</ele>
        <time>2021-04-28T10:41:30Z</time>
      </trkpt>
      <trkpt lat="51.608920000" lon="7.126940000">
        <ele>100</ele>
        <time>2021-04-28T10:41:31Z</time>
      </trkpt>
      <trkpt lat="51.608890000" lon="7.126820000">
        <ele>100</ele>
        <time>2021-04-28T10:41:33Z</time>
      </trkpt>
      <trkpt lat="51.608830000" lon="7.126640000">
        <ele>100</ele>
        <time>2021-04-28T10:41:34Z</time>
      </trkpt>
      <trkpt lat="51.608790000" lon="7.126520000">
        <ele>100</ele>
        <time>2021-04-28T10:41:36Z</time>
      </trkpt>
      <trkpt lat="51.608740000" lon="7.126340000">
        <ele>98</ele>
        <time>2021-04-28T10:41:38Z</time>
      </trkpt>
      <trkpt lat="51.608710000" lon="7.126240000">
        <ele>98</ele>
        <time>2021-04-28T10:41:39Z</time>
      </trkpt>
      <trkpt lat="51.608670000" lon="7.126060000">
        <ele>98</ele>
        <time>2021-04-28T10:41:41Z</time>
      </trkpt>
      <trkpt lat="51.608650000" lon="7.125950000">
        <ele>98</ele>
        <time>2021-04-28T10:41:42Z</time>
      </trkpt>
      <trkpt lat="51.608610000" lon="7.125800000">
        <ele>98</ele>
        <time>2021-04-28T10:41:43Z</time>
      </trkpt>
      <trkpt lat="51.608580000" lon="7.125680000">
        <ele>98</ele>
        <time>2021-04-28T10:41:45Z</time>
      </trkpt>
      <trkpt lat="51.608550000" lon="7.125490000">
        <ele>98</ele>
        <time>2021-04-28T10:41:46Z</time>
      </trkpt>
      <trkpt lat="51.608520000" lon="7.125380000">
        <ele>98</ele>
        <time>2021-04-28T10:41:48Z</time>
      </trkpt>
      <trkpt lat="51.608480000" lon="7.125160000">
        <ele>98</ele>
        <time>2021-04-28T10:41:50Z</time>
      </trkpt>
      <trkpt lat="51.608440000" lon="7.124960000">
        <ele>98</ele>
        <time>2021-04-28T10:41:51Z</time>
      </trkpt>
      <trkpt lat="51.608420000" lon="7.124830000">
        <ele>94</ele>
        <time>2021-04-28T10:41:52Z</time>
      </trkpt>
      <trkpt lat="51.608390000" lon="7.124690000">
        <ele>94</ele>
        <time>2021-04-28T10:41:54Z</time>
      </trkpt>
      <trkpt lat="51.608350000" lon="7.124500000">
        <ele>94</ele>
        <time>2021-04-28T10:41:55Z</time>
      </trkpt>
      <trkpt lat="51.608320000" lon="7.124380000">
        <ele>94</ele>
        <time>2021-04-28T10:41:56Z</time>
      </trkpt>
      <trkpt lat="51.608300000" lon="7.124250000">
        <ele>94</ele>
        <time>2021-04-28T10:41:58Z</time>
      </trkpt>
      <trkpt lat="51.608260000" lon="7.124070000">
        <ele>94</ele>
        <time>2021-04-28T10:42:00Z</time>
      </trkpt>
      <trkpt lat="51.608240000" lon="7.124000000">
        <ele>94</ele>
        <time>2021-04-28T10:42:01Z</time>
      </trkpt>
      <trkpt lat="51.608220000" lon="7.123860000">
        <ele>94</ele>
        <time>2021-04-28T10:42:03Z</time>
      </trkpt>
      <trkpt lat="51.608240000" lon="7.123790000">
        <ele>94</ele>
        <time>2021-04-28T10:42:05Z</time>
      </trkpt>
      <trkpt lat="51.608210000" lon="7.123710000">
        <ele>94</ele>
        <time>2021-04-28T10:42:15Z</time>
      </trkpt>
      <trkpt lat="51.608160000" lon="7.123550000">
        <ele>94</ele>
        <time>2021-04-28T10:42:39Z</time>
      </trkpt>
      <trkpt lat="51.608120000" lon="7.123420000">
        <ele>94</ele>
        <time>2021-04-28T10:42:41Z</time>
      </trkpt>
      <trkpt lat="51.608090000" lon="7.123260000">
        <ele>94</ele>
        <time>2021-04-28T10:42:43Z</time>
      </trkpt>
      <trkpt lat="51.608070000" lon="7.123180000">
        <ele>94</ele>
        <time>2021-04-28T10:42:44Z</time>
      </trkpt>
      <trkpt lat="51.608050000" lon="7.123090000">
        <ele>94</ele>
        <time>2021-04-28T10:42:45Z</time>
      </trkpt>
      <trkpt lat="51.608030000" lon="7.123000000">
        <ele>94</ele>
        <time>2021-04-28T10:42:46Z</time>
      </trkpt>
      <trkpt lat="51.607980000" lon="7.122810000">
        <ele>89</ele>
        <time>2021-04-28T10:42:48Z</time>
      </trkpt>
      <trkpt lat="51.607930000" lon="7.122610000">
        <ele>89</ele>
        <time>2021-04-28T10:42:50Z</time>
      </trkpt>
      <trkpt lat="51.607910000" lon="7.122500000">
        <ele>89</ele>
        <time>2021-04-28T10:42:51Z</time>
      </trkpt>
      <trkpt lat="51.607870000" lon="7.122300000">
        <ele>89</ele>
        <time>2021-04-28T10:42:53Z</time>
      </trkpt>
      <trkpt lat="51.607840000" lon="7.122200000">
        <ele>89</ele>
        <time>2021-04-28T10:42:54Z</time>
      </trkpt>
      <trkpt lat="51.607820000" lon="7.122110000">
        <ele>89</ele>
        <time>2021-04-28T10:42:55Z</time>
      </trkpt>
      <trkpt lat="51.607800000" lon="7.122000000">
        <ele>89</ele>
        <time>2021-04-28T10:42:56Z</time>
      </trkpt>
      <trkpt lat="51.607750000" lon="7.121800000">
        <ele>89</ele>
        <time>2021-04-28T10:42:58Z</time>
      </trkpt>
      <trkpt lat="51.607710000" lon="7.121600000">
        <ele>89</ele>
        <time>2021-04-28T10:43:00Z</time>
      </trkpt>
      <trkpt lat="51.607670000" lon="7.121400000">
        <ele>89</ele>
        <time>2021-04-28T10:43:02Z</time>
      </trkpt>
      <trkpt lat="51.607650000" lon="7.121300000">
        <ele>93</ele>
        <time>2021-04-28T10:43:03Z</time>
      </trkpt>
      <trkpt lat="51.607630000" lon="7.121200000">
        <ele>93</ele>
        <time>2021-04-28T10:43:04Z</time>
      </trkpt>
      <trkpt lat="51.607610000" lon="7.121100000">
        <ele>93</ele>
        <time>2021-04-28T10:43:05Z</time>
      </trkpt>
      <trkpt lat="51.607600000" lon="7.121000000">
        <ele>93</ele>
        <time>2021-04-28T10:43:06Z</time>
      </trkpt>
      <trkpt lat="51.607590000" lon="7.120900000">
        <ele>93</ele>
        <time>2021-04-28T10:43:07Z</time>
      </trkpt>
      <trkpt lat="51.607580000" lon="7.120690000">
        <ele>93</ele>
        <time>2021-04-28T10:43:09Z</time>
      </trkpt>
      <trkpt lat="51.607590000" lon="7.120580000">
        <ele>93</ele>
        <time>2021-04-28T10:43:10Z</time>
      </trkpt>
      <trkpt lat="51.607610000" lon="7.120480000">
        <ele>93</ele>
        <time>2021-04-28T10:43:11Z</time>
      </trkpt>
      <trkpt lat="51.607640000" lon="7.120270000">
        <ele>93</ele>
        <time>2021-04-28T10:43:13Z</time>
      </trkpt>
      <trkpt lat="51.607670000" lon="7.120170000">
        <ele>93</ele>
        <time>2021-04-28T10:43:14Z</time>
      </trkpt>
      <trkpt lat="51.607690000" lon="7.120070000">
        <ele>93</ele>
        <time>2021-04-28T10:43:15Z</time>
      </trkpt>
      <trkpt lat="51.607720000" lon="7.119970000">
        <ele>93</ele>
        <time>2021-04-28T10:43:16Z</time>
      </trkpt>
      <trkpt lat="51.607750000" lon="7.119880000">
        <ele>93</ele>
        <time>2021-04-28T10:43:17Z</time>
      </trkpt>
      <trkpt lat="51.607820000" lon="7.119690000">
        <ele>93</ele>
        <time>2021-04-28T10:43:19Z</time>
      </trkpt>
      <trkpt lat="51.607850000" lon="7.119600000">
        <ele>93</ele>
        <time>2021-04-28T10:43:20Z</time>
      </trkpt>
      <trkpt lat="51.607890000" lon="7.119510000">
        <ele>93</ele>
        <time>2021-04-28T10:43:21Z</time>
      </trkpt>
      <trkpt lat="51.607950000" lon="7.119330000">
        <ele>93</ele>
        <time>2021-04-28T10:43:23Z</time>
      </trkpt>
      <trkpt lat="51.607990000" lon="7.119240000">
        <ele>92</ele>
        <time>2021-04-28T10:43:24Z</time>
      </trkpt>
      <trkpt lat="51.608050000" lon="7.119070000">
        <ele>92</ele>
        <time>2021-04-28T10:43:26Z</time>
      </trkpt>
      <trkpt lat="51.608120000" lon="7.118900000">
        <ele>92</ele>
        <time>2021-04-28T10:43:28Z</time>
      </trkpt>
      <trkpt lat="51.608150000" lon="7.118810000">
        <ele>92</ele>
        <time>2021-04-28T10:43:29Z</time>
      </trkpt>
      <trkpt lat="51.608190000" lon="7.118720000">
        <ele>92</ele>
        <time>2021-04-28T10:43:30Z</time>
      </trkpt>
      <trkpt lat="51.608260000" lon="7.118560000">
        <ele>92</ele>
        <time>2021-04-28T10:43:32Z</time>
      </trkpt>
      <trkpt lat="51.608290000" lon="7.118480000">
        <ele>92</ele>
        <time>2021-04-28T10:43:33Z</time>
      </trkpt>
      <trkpt lat="51.608340000" lon="7.118320000">
        <ele>92</ele>
        <time>2021-04-28T10:43:35Z</time>
      </trkpt>
      <trkpt lat="51.608410000" lon="7.118150000">
        <ele>92</ele>
        <time>2021-04-28T10:43:37Z</time>
      </trkpt>
      <trkpt lat="51.608470000" lon="7.117980000">
        <ele>92</ele>
        <time>2021-04-28T10:43:39Z</time>
      </trkpt>
      <trkpt lat="51.608490000" lon="7.117890000">
        <ele>92</ele>
        <time>2021-04-28T10:43:40Z</time>
      </trkpt>
      <trkpt lat="51.608550000" lon="7.117710000">
        <ele>92</ele>
        <time>2021-04-28T10:43:42Z</time>
      </trkpt>
      <trkpt lat="51.608620000" lon="7.117550000">
        <ele>92</ele>
        <time>2021-04-28T10:43:44Z</time>
      </trkpt>
      <trkpt lat="51.608690000" lon="7.117380000">
        <ele>90</ele>
        <time>2021-04-28T10:43:46Z</time>
      </trkpt>
      <trkpt lat="51.608720000" lon="7.117300000">
        <ele>90</ele>
        <time>2021-04-28T10:43:47Z</time>
      </trkpt>
      <trkpt lat="51.608780000" lon="7.117140000">
        <ele>90</ele>
        <time>2021-04-28T10:43:49Z</time>
      </trkpt>
      <trkpt lat="51.608810000" lon="7.117050000">
        <ele>90</ele>
        <time>2021-04-28T10:43:50Z</time>
      </trkpt>
      <trkpt lat="51.608880000" lon="7.116870000">
        <ele>90</ele>
        <time>2021-04-28T10:43:53Z</time>
      </trkpt>
      <trkpt lat="51.608930000" lon="7.116720000">
        <ele>90</ele>
        <time>2021-04-28T10:43:54Z</time>
      </trkpt>
      <trkpt lat="51.609000000" lon="7.116540000">
        <ele>90</ele>
        <time>2021-04-28T10:43:57Z</time>
      </trkpt>
      <trkpt lat="51.609050000" lon="7.116390000">
        <ele>90</ele>
        <time>2021-04-28T10:43:58Z</time>
      </trkpt>
      <trkpt lat="51.609120000" lon="7.116200000">
        <ele>90</ele>
        <time>2021-04-28T10:44:00Z</time>
      </trkpt>
      <trkpt lat="51.609180000" lon="7.116060000">
        <ele>90</ele>
        <time>2021-04-28T10:44:02Z</time>
      </trkpt>
      <trkpt lat="51.609210000" lon="7.115960000">
        <ele>90</ele>
        <time>2021-04-28T10:44:03Z</time>
      </trkpt>
      <trkpt lat="51.609260000" lon="7.115860000">
        <ele>90</ele>
        <time>2021-04-28T10:44:05Z</time>
      </trkpt>
      <trkpt lat="51.609290000" lon="7.115780000">
        <ele>90</ele>
        <time>2021-04-28T10:44:06Z</time>
      </trkpt>
      <trkpt lat="51.609350000" lon="7.115620000">
        <ele>90</ele>
        <time>2021-04-28T10:44:07Z</time>
      </trkpt>
      <trkpt lat="51.609380000" lon="7.115520000">
        <ele>90</ele>
        <time>2021-04-28T10:44:09Z</time>
      </trkpt>
      <trkpt lat="51.609450000" lon="7.115350000">
        <ele>91</ele>
        <time>2021-04-28T10:44:10Z</time>
      </trkpt>
      <trkpt lat="51.609520000" lon="7.115170000">
        <ele>91</ele>
        <time>2021-04-28T10:44:13Z</time>
      </trkpt>
      <trkpt lat="51.609580000" lon="7.114990000">
        <ele>91</ele>
        <time>2021-04-28T10:44:15Z</time>
      </trkpt>
      <trkpt lat="51.609610000" lon="7.114890000">
        <ele>91</ele>
        <time>2021-04-28T10:44:16Z</time>
      </trkpt>
      <trkpt lat="51.609660000" lon="7.114720000">
        <ele>91</ele>
        <time>2021-04-28T10:44:17Z</time>
      </trkpt>
      <trkpt lat="51.609710000" lon="7.114530000">
        <ele>91</ele>
        <time>2021-04-28T10:44:19Z</time>
      </trkpt>
      <trkpt lat="51.609740000" lon="7.114410000">
        <ele>91</ele>
        <time>2021-04-28T10:44:21Z</time>
      </trkpt>
      <trkpt lat="51.609780000" lon="7.114230000">
        <ele>91</ele>
        <time>2021-04-28T10:44:22Z</time>
      </trkpt>
      <trkpt lat="51.609820000" lon="7.114030000">
        <ele>91</ele>
        <time>2021-04-28T10:44:25Z</time>
      </trkpt>
      <trkpt lat="51.609860000" lon="7.113820000">
        <ele>91</ele>
        <time>2021-04-28T10:44:26Z</time>
      </trkpt>
      <trkpt lat="51.609910000" lon="7.113630000">
        <ele>91</ele>
        <time>2021-04-28T10:44:28Z</time>
      </trkpt>
      <trkpt lat="51.609930000" lon="7.113490000">
        <ele>91</ele>
        <time>2021-04-28T10:44:30Z</time>
      </trkpt>
      <trkpt lat="51.609980000" lon="7.113300000">
        <ele>91</ele>
        <time>2021-04-28T10:44:32Z</time>
      </trkpt>
      <trkpt lat="51.610020000" lon="7.113100000">
        <ele>89</ele>
        <time>2021-04-28T10:44:34Z</time>
      </trkpt>
      <trkpt lat="51.610050000" lon="7.112920000">
        <ele>89</ele>
        <time>2021-04-28T10:44:36Z</time>
      </trkpt>
      <trkpt lat="51.610080000" lon="7.112690000">
        <ele>89</ele>
        <time>2021-04-28T10:44:38Z</time>
      </trkpt>
      <trkpt lat="51.610100000" lon="7.112460000">
        <ele>89</ele>
        <time>2021-04-28T10:44:39Z</time>
      </trkpt>
      <trkpt lat="51.610110000" lon="7.112330000">
        <ele>89</ele>
        <time>2021-04-28T10:44:40Z</time>
      </trkpt>
      <trkpt lat="51.610120000" lon="7.112200000">
        <ele>89</ele>
        <time>2021-04-28T10:44:41Z</time>
      </trkpt>
      <trkpt lat="51.610110000" lon="7.111980000">
        <ele>89</ele>
        <time>2021-04-28T10:44:43Z</time>
      </trkpt>
      <trkpt lat="51.610080000" lon="7.111750000">
        <ele>89</ele>
        <time>2021-04-28T10:44:45Z</time>
      </trkpt>
      <trkpt lat="51.610060000" lon="7.111630000">
        <ele>89</ele>
        <time>2021-04-28T10:44:46Z</time>
      </trkpt>
      <trkpt lat="51.610040000" lon="7.111510000">
        <ele>89</ele>
        <time>2021-04-28T10:44:47Z</time>
      </trkpt>
      <trkpt lat="51.610020000" lon="7.111390000">
        <ele>89</ele>
        <time>2021-04-28T10:44:48Z</time>
      </trkpt>
      <trkpt lat="51.610000000" lon="7.111270000">
        <ele>89</ele>
        <time>2021-04-28T10:44:49Z</time>
      </trkpt>
      <trkpt lat="51.609980000" lon="7.111170000">
        <ele>88</ele>
        <time>2021-04-28T10:44:50Z</time>
      </trkpt>
      <trkpt lat="51.609950000" lon="7.111070000">
        <ele>88</ele>
        <time>2021-04-28T10:44:51Z</time>
      </trkpt>
      <trkpt lat="51.609880000" lon="7.110870000">
        <ele>88</ele>
        <time>2021-04-28T10:44:53Z</time>
      </trkpt>
      <trkpt lat="51.609830000" lon="7.110770000">
        <ele>88</ele>
        <time>2021-04-28T10:44:54Z</time>
      </trkpt>
      <trkpt lat="51.609790000" lon="7.110690000">
        <ele>88</ele>
        <time>2021-04-28T10:44:55Z</time>
      </trkpt>
      <trkpt lat="51.609700000" lon="7.110500000">
        <ele>88</ele>
        <time>2021-04-28T10:44:57Z</time>
      </trkpt>
      <trkpt lat="51.609650000" lon="7.110410000">
        <ele>88</ele>
        <time>2021-04-28T10:44:58Z</time>
      </trkpt>
      <trkpt lat="51.609610000" lon="7.110340000">
        <ele>88</ele>
        <time>2021-04-28T10:44:59Z</time>
      </trkpt>
      <trkpt lat="51.609560000" lon="7.110260000">
        <ele>88</ele>
        <time>2021-04-28T10:45:00Z</time>
      </trkpt>
      <trkpt lat="51.609470000" lon="7.110070000">
        <ele>88</ele>
        <time>2021-04-28T10:45:02Z</time>
      </trkpt>
      <trkpt lat="51.609420000" lon="7.109960000">
        <ele>88</ele>
        <time>2021-04-28T10:45:03Z</time>
      </trkpt>
      <trkpt lat="51.609330000" lon="7.109760000">
        <ele>88</ele>
        <time>2021-04-28T10:45:05Z</time>
      </trkpt>
      <trkpt lat="51.609290000" lon="7.109650000">
        <ele>88</ele>
        <time>2021-04-28T10:45:06Z</time>
      </trkpt>
      <trkpt lat="51.609240000" lon="7.109540000">
        <ele>88</ele>
        <time>2021-04-28T10:45:07Z</time>
      </trkpt>
      <trkpt lat="51.609130000" lon="7.109330000">
        <ele>81</ele>
        <time>2021-04-28T10:45:09Z</time>
      </trkpt>
      <trkpt lat="51.609070000" lon="7.109260000">
        <ele>81</ele>
        <time>2021-04-28T10:45:10Z</time>
      </trkpt>
      <trkpt lat="51.608970000" lon="7.109070000">
        <ele>81</ele>
        <time>2021-04-28T10:45:12Z</time>
      </trkpt>
      <trkpt lat="51.608930000" lon="7.108970000">
        <ele>81</ele>
        <time>2021-04-28T10:45:13Z</time>
      </trkpt>
      <trkpt lat="51.608890000" lon="7.108870000">
        <ele>81</ele>
        <time>2021-04-28T10:45:14Z</time>
      </trkpt>
      <trkpt lat="51.608820000" lon="7.108660000">
        <ele>81</ele>
        <time>2021-04-28T10:45:16Z</time>
      </trkpt>
      <trkpt lat="51.608790000" lon="7.108550000">
        <ele>81</ele>
        <time>2021-04-28T10:45:17Z</time>
      </trkpt>
      <trkpt lat="51.608700000" lon="7.108360000">
        <ele>81</ele>
        <time>2021-04-28T10:45:19Z</time>
      </trkpt>
      <trkpt lat="51.608660000" lon="7.108280000">
        <ele>81</ele>
        <time>2021-04-28T10:45:20Z</time>
      </trkpt>
      <trkpt lat="51.608620000" lon="7.108180000">
        <ele>81</ele>
        <time>2021-04-28T10:45:21Z</time>
      </trkpt>
      <trkpt lat="51.608580000" lon="7.108070000">
        <ele>81</ele>
        <time>2021-04-28T10:45:22Z</time>
      </trkpt>
      <trkpt lat="51.608480000" lon="7.107850000">
        <ele>81</ele>
        <time>2021-04-28T10:45:24Z</time>
      </trkpt>
      <trkpt lat="51.608430000" lon="7.107750000">
        <ele>81</ele>
        <time>2021-04-28T10:45:25Z</time>
      </trkpt>
      <trkpt lat="51.608330000" lon="7.107550000">
        <ele>81</ele>
        <time>2021-04-28T10:45:27Z</time>
      </trkpt>
      <trkpt lat="51.608240000" lon="7.107350000">
        <ele>79</ele>
        <time>2021-04-28T10:45:29Z</time>
      </trkpt>
      <trkpt lat="51.608190000" lon="7.107250000">
        <ele>79</ele>
        <time>2021-04-28T10:45:30Z</time>
      </trkpt>
      <trkpt lat="51.608140000" lon="7.107140000">
        <ele>79</ele>
        <time>2021-04-28T10:45:31Z</time>
      </trkpt>
      <trkpt lat="51.608050000" lon="7.106930000">
        <ele>79</ele>
        <time>2021-04-28T10:45:33Z</time>
      </trkpt>
      <trkpt lat="51.607980000" lon="7.106730000">
        <ele>79</ele>
        <time>2021-04-28T10:45:35Z</time>
      </trkpt>
      <trkpt lat="51.607940000" lon="7.106630000">
        <ele>79</ele>
        <time>2021-04-28T10:45:36Z</time>
      </trkpt>
      <trkpt lat="51.607850000" lon="7.106430000">
        <ele>79</ele>
        <time>2021-04-28T10:45:38Z</time>
      </trkpt>
      <trkpt lat="51.607810000" lon="7.106330000">
        <ele>79</ele>
        <time>2021-04-28T10:45:39Z</time>
      </trkpt>
      <trkpt lat="51.607760000" lon="7.106250000">
        <ele>79</ele>
        <time>2021-04-28T10:45:40Z</time>
      </trkpt>
      <trkpt lat="51.607720000" lon="7.106160000">
        <ele>79</ele>
        <time>2021-04-28T10:45:41Z</time>
      </trkpt>
      <trkpt lat="51.607630000" lon="7.105960000">
        <ele>79</ele>
        <time>2021-04-28T10:45:43Z</time>
      </trkpt>
      <trkpt lat="51.607550000" lon="7.105740000">
        <ele>79</ele>
        <time>2021-04-28T10:45:45Z</time>
      </trkpt>
      <trkpt lat="51.607460000" lon="7.105570000">
        <ele>79</ele>
        <time>2021-04-28T10:45:47Z</time>
      </trkpt>
      <trkpt lat="51.607420000" lon="7.105460000">
        <ele>79</ele>
        <time>2021-04-28T10:45:48Z</time>
      </trkpt>
      <trkpt lat="51.607320000" lon="7.105300000">
        <ele>79</ele>
        <time>2021-04-28T10:45:50Z</time>
      </trkpt>
      <trkpt lat="51.607280000" lon="7.105210000">
        <ele>79</ele>
        <time>2021-04-28T10:45:51Z</time>
      </trkpt>
      <trkpt lat="51.607230000" lon="7.105100000">
        <ele>76</ele>
        <time>2021-04-28T10:45:53Z</time>
      </trkpt>
      <trkpt lat="51.607140000" lon="7.104920000">
        <ele>76</ele>
        <time>2021-04-28T10:45:55Z</time>
      </trkpt>
      <trkpt lat="51.607060000" lon="7.104740000">
        <ele>76</ele>
        <time>2021-04-28T10:45:57Z</time>
      </trkpt>
      <trkpt lat="51.606960000" lon="7.104540000">
        <ele>76</ele>
        <time>2021-04-28T10:45:59Z</time>
      </trkpt>
      <trkpt lat="51.606880000" lon="7.104360000">
        <ele>76</ele>
        <time>2021-04-28T10:46:00Z</time>
      </trkpt>
      <trkpt lat="51.606800000" lon="7.104150000">
        <ele>76</ele>
        <time>2021-04-28T10:46:02Z</time>
      </trkpt>
      <trkpt lat="51.606760000" lon="7.104030000">
        <ele>76</ele>
        <time>2021-04-28T10:46:04Z</time>
      </trkpt>
      <trkpt lat="51.606700000" lon="7.103860000">
        <ele>76</ele>
        <time>2021-04-28T10:46:05Z</time>
      </trkpt>
      <trkpt lat="51.606670000" lon="7.103740000">
        <ele>76</ele>
        <time>2021-04-28T10:46:06Z</time>
      </trkpt>
      <trkpt lat="51.606590000" lon="7.103520000">
        <ele>76</ele>
        <time>2021-04-28T10:46:08Z</time>
      </trkpt>
      <trkpt lat="51.606530000" lon="7.103310000">
        <ele>76</ele>
        <time>2021-04-28T10:46:10Z</time>
      </trkpt>
      <trkpt lat="51.606470000" lon="7.103100000">
        <ele>76</ele>
        <time>2021-04-28T10:46:12Z</time>
      </trkpt>
      <trkpt lat="51.606440000" lon="7.102990000">
        <ele>71</ele>
        <time>2021-04-28T10:46:13Z</time>
      </trkpt>
      <trkpt lat="51.606370000" lon="7.102770000">
        <ele>71</ele>
        <time>2021-04-28T10:46:15Z</time>
      </trkpt>
      <trkpt lat="51.606340000" lon="7.102640000">
        <ele>71</ele>
        <time>2021-04-28T10:46:17Z</time>
      </trkpt>
      <trkpt lat="51.606270000" lon="7.102440000">
        <ele>71</ele>
        <time>2021-04-28T10:46:19Z</time>
      </trkpt>
      <trkpt lat="51.606240000" lon="7.102330000">
        <ele>71</ele>
        <time>2021-04-28T10:46:20Z</time>
      </trkpt>
      <trkpt lat="51.606170000" lon="7.102130000">
        <ele>71</ele>
        <time>2021-04-28T10:46:21Z</time>
      </trkpt>
      <trkpt lat="51.606100000" lon="7.101910000">
        <ele>71</ele>
        <time>2021-04-28T10:46:23Z</time>
      </trkpt>
      <trkpt lat="51.606070000" lon="7.101790000">
        <ele>71</ele>
        <time>2021-04-28T10:46:24Z</time>
      </trkpt>
      <trkpt lat="51.605990000" lon="7.101580000">
        <ele>71</ele>
        <time>2021-04-28T10:46:26Z</time>
      </trkpt>
      <trkpt lat="51.605960000" lon="7.101460000">
        <ele>71</ele>
        <time>2021-04-28T10:46:28Z</time>
      </trkpt>
      <trkpt lat="51.605900000" lon="7.101250000">
        <ele>71</ele>
        <time>2021-04-28T10:46:29Z</time>
      </trkpt>
      <trkpt lat="51.605870000" lon="7.101140000">
        <ele>71</ele>
        <time>2021-04-28T10:46:31Z</time>
      </trkpt>
      <trkpt lat="51.605820000" lon="7.100920000">
        <ele>71</ele>
        <time>2021-04-28T10:46:33Z</time>
      </trkpt>
      <trkpt lat="51.605740000" lon="7.100730000">
        <ele>72</ele>
        <time>2021-04-28T10:46:35Z</time>
      </trkpt>
      <trkpt lat="51.605670000" lon="7.100530000">
        <ele>72</ele>
        <time>2021-04-28T10:46:37Z</time>
      </trkpt>
      <trkpt lat="51.605610000" lon="7.100330000">
        <ele>72</ele>
        <time>2021-04-28T10:46:38Z</time>
      </trkpt>
      <trkpt lat="51.605590000" lon="7.100220000">
        <ele>72</ele>
        <time>2021-04-28T10:46:39Z</time>
      </trkpt>
      <trkpt lat="51.605510000" lon="7.100030000">
        <ele>72</ele>
        <time>2021-04-28T10:46:41Z</time>
      </trkpt>
      <trkpt lat="51.605480000" lon="7.099940000">
        <ele>72</ele>
        <time>2021-04-28T10:46:42Z</time>
      </trkpt>
      <trkpt lat="51.605420000" lon="7.099750000">
        <ele>72</ele>
        <time>2021-04-28T10:46:44Z</time>
      </trkpt>
      <trkpt lat="51.605390000" lon="7.099670000">
        <ele>72</ele>
        <time>2021-04-28T10:46:45Z</time>
      </trkpt>
      <trkpt lat="51.605370000" lon="7.099560000">
        <ele>72</ele>
        <time>2021-04-28T10:46:46Z</time>
      </trkpt>
      <trkpt lat="51.605320000" lon="7.099390000">
        <ele>72</ele>
        <time>2021-04-28T10:46:48Z</time>
      </trkpt>
      <trkpt lat="51.605250000" lon="7.099230000">
        <ele>72</ele>
        <time>2021-04-28T10:46:50Z</time>
      </trkpt>
      <trkpt lat="51.605230000" lon="7.099130000">
        <ele>72</ele>
        <time>2021-04-28T10:46:51Z</time>
      </trkpt>
      <trkpt lat="51.605170000" lon="7.098950000">
        <ele>72</ele>
        <time>2021-04-28T10:46:53Z</time>
      </trkpt>
      <trkpt lat="51.605110000" lon="7.098770000">
        <ele>68</ele>
        <time>2021-04-28T10:46:55Z</time>
      </trkpt>
      <trkpt lat="51.605080000" lon="7.098690000">
        <ele>68</ele>
        <time>2021-04-28T10:46:56Z</time>
      </trkpt>
      <trkpt lat="51.605030000" lon="7.098530000">
        <ele>68</ele>
        <time>2021-04-28T10:46:58Z</time>
      </trkpt>
      <trkpt lat="51.604970000" lon="7.098360000">
        <ele>68</ele>
        <time>2021-04-28T10:47:00Z</time>
      </trkpt>
      <trkpt lat="51.604950000" lon="7.098260000">
        <ele>68</ele>
        <time>2021-04-28T10:47:01Z</time>
      </trkpt>
      <trkpt lat="51.604900000" lon="7.098090000">
        <ele>68</ele>
        <time>2021-04-28T10:47:03Z</time>
      </trkpt>
      <trkpt lat="51.604870000" lon="7.098000000">
        <ele>68</ele>
        <time>2021-04-28T10:47:04Z</time>
      </trkpt>
      <trkpt lat="51.604840000" lon="7.097910000">
        <ele>68</ele>
        <time>2021-04-28T10:47:05Z</time>
      </trkpt>
      <trkpt lat="51.604810000" lon="7.097820000">
        <ele>68</ele>
        <time>2021-04-28T10:47:06Z</time>
      </trkpt>
      <trkpt lat="51.604760000" lon="7.097660000">
        <ele>68</ele>
        <time>2021-04-28T10:47:08Z</time>
      </trkpt>
      <trkpt lat="51.604730000" lon="7.097570000">
        <ele>68</ele>
        <time>2021-04-28T10:47:09Z</time>
      </trkpt>
      <trkpt lat="51.604670000" lon="7.097380000">
        <ele>68</ele>
        <time>2021-04-28T10:47:11Z</time>
      </trkpt>
      <trkpt lat="51.604610000" lon="7.097190000">
        <ele>68</ele>
        <time>2021-04-28T10:47:13Z</time>
      </trkpt>
      <trkpt lat="51.604580000" lon="7.097100000">
        <ele>70</ele>
        <time>2021-04-28T10:47:14Z</time>
      </trkpt>
      <trkpt lat="51.604570000" lon="7.097000000">
        <ele>70</ele>
        <time>2021-04-28T10:47:15Z</time>
      </trkpt>
      <trkpt lat="51.604520000" lon="7.096800000">
        <ele>70</ele>
        <time>2021-04-28T10:47:17Z</time>
      </trkpt>
      <trkpt lat="51.604480000" lon="7.096620000">
        <ele>70</ele>
        <time>2021-04-28T10:47:19Z</time>
      </trkpt>
      <trkpt lat="51.604450000" lon="7.096530000">
        <ele>70</ele>
        <time>2021-04-28T10:47:20Z</time>
      </trkpt>
      <trkpt lat="51.604430000" lon="7.096430000">
        <ele>70</ele>
        <time>2021-04-28T10:47:21Z</time>
      </trkpt>
      <trkpt lat="51.604380000" lon="7.096240000">
        <ele>70</ele>
        <time>2021-04-28T10:47:23Z</time>
      </trkpt>
      <trkpt lat="51.604360000" lon="7.096140000">
        <ele>70</ele>
        <time>2021-04-28T10:47:24Z</time>
      </trkpt>
      <trkpt lat="51.604310000" lon="7.095940000">
        <ele>70</ele>
        <time>2021-04-28T10:47:26Z</time>
      </trkpt>
      <trkpt lat="51.604300000" lon="7.095850000">
        <ele>70</ele>
        <time>2021-04-28T10:47:27Z</time>
      </trkpt>
      <trkpt lat="51.604280000" lon="7.095650000">
        <ele>70</ele>
        <time>2021-04-28T10:47:29Z</time>
      </trkpt>
      <trkpt lat="51.604260000" lon="7.095540000">
        <ele>70</ele>
        <time>2021-04-28T10:47:30Z</time>
      </trkpt>
      <trkpt lat="51.604250000" lon="7.095440000">
        <ele>70</ele>
        <time>2021-04-28T10:47:31Z</time>
      </trkpt>
      <trkpt lat="51.604240000" lon="7.095220000">
        <ele>70</ele>
        <time>2021-04-28T10:47:33Z</time>
      </trkpt>
      <trkpt lat="51.604220000" lon="7.095030000">
        <ele>68</ele>
        <time>2021-04-28T10:47:35Z</time>
      </trkpt>
      <trkpt lat="51.604210000" lon="7.094830000">
        <ele>68</ele>
        <time>2021-04-28T10:47:37Z</time>
      </trkpt>
      <trkpt lat="51.604190000" lon="7.094620000">
        <ele>68</ele>
        <time>2021-04-28T10:47:39Z</time>
      </trkpt>
      <trkpt lat="51.604180000" lon="7.094520000">
        <ele>68</ele>
        <time>2021-04-28T10:47:40Z</time>
      </trkpt>
      <trkpt lat="51.604190000" lon="7.094340000">
        <ele>68</ele>
        <time>2021-04-28T10:47:42Z</time>
      </trkpt>
      <trkpt lat="51.604220000" lon="7.094270000">
        <ele>68</ele>
        <time>2021-04-28T10:47:44Z</time>
      </trkpt>
      <trkpt lat="51.604260000" lon="7.094190000">
        <ele>68</ele>
        <time>2021-04-28T10:47:48Z</time>
      </trkpt>
      <trkpt lat="51.604330000" lon="7.094230000">
        <ele>68</ele>
        <time>2021-04-28T10:47:50Z</time>
      </trkpt>
      <trkpt lat="51.604430000" lon="7.094260000">
        <ele>68</ele>
        <time>2021-04-28T10:47:52Z</time>
      </trkpt>
      <trkpt lat="51.604480000" lon="7.094230000">
        <ele>68</ele>
        <time>2021-04-28T10:47:53Z</time>
      </trkpt>
      <trkpt lat="51.604560000" lon="7.094110000">
        <ele>68</ele>
        <time>2021-04-28T10:47:55Z</time>
      </trkpt>
      <trkpt lat="51.604610000" lon="7.094050000">
        <ele>68</ele>
        <time>2021-04-28T10:47:56Z</time>
      </trkpt>
      <trkpt lat="51.604710000" lon="7.093940000">
        <ele>69</ele>
        <time>2021-04-28T10:47:58Z</time>
      </trkpt>
      <trkpt lat="51.604810000" lon="7.093820000">
        <ele>69</ele>
        <time>2021-04-28T10:48:00Z</time>
      </trkpt>
      <trkpt lat="51.604850000" lon="7.093760000">
        <ele>69</ele>
        <time>2021-04-28T10:48:01Z</time>
      </trkpt>
      <trkpt lat="51.604910000" lon="7.093710000">
        <ele>69</ele>
        <time>2021-04-28T10:48:02Z</time>
      </trkpt>
      <trkpt lat="51.605010000" lon="7.093620000">
        <ele>69</ele>
        <time>2021-04-28T10:48:04Z</time>
      </trkpt>
      <trkpt lat="51.605070000" lon="7.093560000">
        <ele>69</ele>
        <time>2021-04-28T10:48:05Z</time>
      </trkpt>
      <trkpt lat="51.605120000" lon="7.093490000">
        <ele>69</ele>
        <time>2021-04-28T10:48:06Z</time>
      </trkpt>
      <trkpt lat="51.605230000" lon="7.093380000">
        <ele>69</ele>
        <time>2021-04-28T10:48:08Z</time>
      </trkpt>
      <trkpt lat="51.605280000" lon="7.093330000">
        <ele>69</ele>
        <time>2021-04-28T10:48:09Z</time>
      </trkpt>
      <trkpt lat="51.605360000" lon="7.093220000">
        <ele>69</ele>
        <time>2021-04-28T10:48:11Z</time>
      </trkpt>
      <trkpt lat="51.605410000" lon="7.093160000">
        <ele>69</ele>
        <time>2021-04-28T10:48:12Z</time>
      </trkpt>
      <trkpt lat="51.605460000" lon="7.093110000">
        <ele>69</ele>
        <time>2021-04-28T10:48:13Z</time>
      </trkpt>
      <trkpt lat="51.605520000" lon="7.093050000">
        <ele>69</ele>
        <time>2021-04-28T10:48:14Z</time>
      </trkpt>
      <trkpt lat="51.605640000" lon="7.092950000">
        <ele>69</ele>
        <time>2021-04-28T10:48:16Z</time>
      </trkpt>
      <trkpt lat="51.605700000" lon="7.092900000">
        <ele>62</ele>
        <time>2021-04-28T10:48:17Z</time>
      </trkpt>
      <trkpt lat="51.605780000" lon="7.092780000">
        <ele>62</ele>
        <time>2021-04-28T10:48:19Z</time>
      </trkpt>
      <trkpt lat="51.605830000" lon="7.092720000">
        <ele>62</ele>
        <time>2021-04-28T10:48:20Z</time>
      </trkpt>
      <trkpt lat="51.605870000" lon="7.092660000">
        <ele>62</ele>
        <time>2021-04-28T10:48:21Z</time>
      </trkpt>
      <trkpt lat="51.605980000" lon="7.092530000">
        <ele>62</ele>
        <time>2021-04-28T10:48:23Z</time>
      </trkpt>
      <trkpt lat="51.606100000" lon="7.092410000">
        <ele>62</ele>
        <time>2021-04-28T10:48:25Z</time>
      </trkpt>
      <trkpt lat="51.606150000" lon="7.092360000">
        <ele>62</ele>
        <time>2021-04-28T10:48:26Z</time>
      </trkpt>
      <trkpt lat="51.606210000" lon="7.092310000">
        <ele>62</ele>
        <time>2021-04-28T10:48:27Z</time>
      </trkpt>
      <trkpt lat="51.606280000" lon="7.092270000">
        <ele>62</ele>
        <time>2021-04-28T10:48:28Z</time>
      </trkpt>
      <trkpt lat="51.606400000" lon="7.092220000">
        <ele>62</ele>
        <time>2021-04-28T10:48:30Z</time>
      </trkpt>
      <trkpt lat="51.606480000" lon="7.092190000">
        <ele>62</ele>
        <time>2021-04-28T10:48:32Z</time>
      </trkpt>
      <trkpt lat="51.606540000" lon="7.092180000">
        <ele>62</ele>
        <time>2021-04-28T10:48:33Z</time>
      </trkpt>
      <trkpt lat="51.606600000" lon="7.092150000">
        <ele>62</ele>
        <time>2021-04-28T10:48:34Z</time>
      </trkpt>
      <trkpt lat="51.606720000" lon="7.092090000">
        <ele>62</ele>
        <time>2021-04-28T10:48:36Z</time>
      </trkpt>
      <trkpt lat="51.606850000" lon="7.092030000">
        <ele>63</ele>
        <time>2021-04-28T10:48:38Z</time>
      </trkpt>
      <trkpt lat="51.606970000" lon="7.091980000">
        <ele>63</ele>
        <time>2021-04-28T10:48:40Z</time>
      </trkpt>
      <trkpt lat="51.607030000" lon="7.091950000">
        <ele>63</ele>
        <time>2021-04-28T10:48:41Z</time>
      </trkpt>
      <trkpt lat="51.607130000" lon="7.091910000">
        <ele>63</ele>
        <time>2021-04-28T10:48:42Z</time>
      </trkpt>
      <trkpt lat="51.607210000" lon="7.091870000">
        <ele>63</ele>
        <time>2021-04-28T10:48:44Z</time>
      </trkpt>
      <trkpt lat="51.607330000" lon="7.091810000">
        <ele>63</ele>
        <time>2021-04-28T10:48:46Z</time>
      </trkpt>
      <trkpt lat="51.607390000" lon="7.091770000">
        <ele>63</ele>
        <time>2021-04-28T10:48:47Z</time>
      </trkpt>
      <trkpt lat="51.607510000" lon="7.091700000">
        <ele>63</ele>
        <time>2021-04-28T10:48:48Z</time>
      </trkpt>
      <trkpt lat="51.607630000" lon="7.091640000">
        <ele>63</ele>
        <time>2021-04-28T10:48:50Z</time>
      </trkpt>
      <trkpt lat="51.607690000" lon="7.091610000">
        <ele>63</ele>
        <time>2021-04-28T10:48:51Z</time>
      </trkpt>
      <trkpt lat="51.607740000" lon="7.091590000">
        <ele>63</ele>
        <time>2021-04-28T10:48:52Z</time>
      </trkpt>
      <trkpt lat="51.607830000" lon="7.091570000">
        <ele>63</ele>
        <time>2021-04-28T10:48:54Z</time>
      </trkpt>
      <trkpt lat="51.607940000" lon="7.091550000">
        <ele>63</ele>
        <time>2021-04-28T10:48:55Z</time>
      </trkpt>
      <trkpt lat="51.608100000" lon="7.091500000">
        <ele>66</ele>
        <time>2021-04-28T10:48:58Z</time>
      </trkpt>
      <trkpt lat="51.608230000" lon="7.091460000">
        <ele>66</ele>
        <time>2021-04-28T10:49:00Z</time>
      </trkpt>
      <trkpt lat="51.608350000" lon="7.091420000">
        <ele>66</ele>
        <time>2021-04-28T10:49:02Z</time>
      </trkpt>
      <trkpt lat="51.608420000" lon="7.091390000">
        <ele>66</ele>
        <time>2021-04-28T10:49:04Z</time>
      </trkpt>
      <trkpt lat="51.608460000" lon="7.091400000">
        <ele>66</ele>
        <time>2021-04-28T10:49:06Z</time>
      </trkpt>
      <trkpt lat="51.608520000" lon="7.091250000">
        <ele>66</ele>
        <time>2021-04-28T10:49:09Z</time>
      </trkpt>
      <trkpt lat="51.608490000" lon="7.091110000">
        <ele>66</ele>
        <time>2021-04-28T10:49:10Z</time>
      </trkpt>
      <trkpt lat="51.608460000" lon="7.090880000">
        <ele>66</ele>
        <time>2021-04-28T10:49:13Z</time>
      </trkpt>
      <trkpt lat="51.608440000" lon="7.090690000">
        <ele>63</ele>
        <time>2021-04-28T10:49:15Z</time>
      </trkpt>
      <trkpt lat="51.608460000" lon="7.090480000">
        <ele>63</ele>
        <time>2021-04-28T10:49:17Z</time>
      </trkpt>
      <trkpt lat="51.608540000" lon="7.090380000">
        <ele>63</ele>
        <time>2021-04-28T10:49:19Z</time>
      </trkpt>
      <trkpt lat="51.608640000" lon="7.090440000">
        <ele>63</ele>
        <time>2021-04-28T10:49:20Z</time>
      </trkpt>
      <trkpt lat="51.608700000" lon="7.090470000">
        <ele>63</ele>
        <time>2021-04-28T10:49:21Z</time>
      </trkpt>
      <trkpt lat="51.608810000" lon="7.090570000">
        <ele>63</ele>
        <time>2021-04-28T10:49:23Z</time>
      </trkpt>
      <trkpt lat="51.608920000" lon="7.090670000">
        <ele>63</ele>
        <time>2021-04-28T10:49:25Z</time>
      </trkpt>
      <trkpt lat="51.608970000" lon="7.090720000">
        <ele>63</ele>
        <time>2021-04-28T10:49:26Z</time>
      </trkpt>
      <trkpt lat="51.609080000" lon="7.090820000">
        <ele>63</ele>
        <time>2021-04-28T10:49:29Z</time>
      </trkpt>
      <trkpt lat="51.609180000" lon="7.090880000">
        <ele>63</ele>
        <time>2021-04-28T10:49:30Z</time>
      </trkpt>
      <trkpt lat="51.609270000" lon="7.090910000">
        <ele>63</ele>
        <time>2021-04-28T10:49:32Z</time>
      </trkpt>
      <trkpt lat="51.609370000" lon="7.090960000">
        <ele>63</ele>
        <time>2021-04-28T10:49:34Z</time>
      </trkpt>
      <trkpt lat="51.609430000" lon="7.090980000">
        <ele>63</ele>
        <time>2021-04-28T10:49:35Z</time>
      </trkpt>
      <trkpt lat="51.609560000" lon="7.091000000">
        <ele>61</ele>
        <time>2021-04-28T10:49:37Z</time>
      </trkpt>
      <trkpt lat="51.609680000" lon="7.090980000">
        <ele>61</ele>
        <time>2021-04-28T10:49:39Z</time>
      </trkpt>
      <trkpt lat="51.609740000" lon="7.090980000">
        <ele>61</ele>
        <time>2021-04-28T10:49:40Z</time>
      </trkpt>
      <trkpt lat="51.609860000" lon="7.090950000">
        <ele>61</ele>
        <time>2021-04-28T10:49:42Z</time>
      </trkpt>
      <trkpt lat="51.609910000" lon="7.090930000">
        <ele>61</ele>
        <time>2021-04-28T10:49:43Z</time>
      </trkpt>
      <trkpt lat="51.609980000" lon="7.090880000">
        <ele>61</ele>
        <time>2021-04-28T10:49:45Z</time>
      </trkpt>
      <trkpt lat="51.610070000" lon="7.090740000">
        <ele>61</ele>
        <time>2021-04-28T10:49:47Z</time>
      </trkpt>
      <trkpt lat="51.610190000" lon="7.090580000">
        <ele>61</ele>
        <time>2021-04-28T10:49:49Z</time>
      </trkpt>
      <trkpt lat="51.610280000" lon="7.090440000">
        <ele>61</ele>
        <time>2021-04-28T10:49:51Z</time>
      </trkpt>
      <trkpt lat="51.610380000" lon="7.090290000">
        <ele>61</ele>
        <time>2021-04-28T10:49:52Z</time>
      </trkpt>
      <trkpt lat="51.610470000" lon="7.090140000">
        <ele>62</ele>
        <time>2021-04-28T10:49:54Z</time>
      </trkpt>
      <trkpt lat="51.610520000" lon="7.090060000">
        <ele>62</ele>
        <time>2021-04-28T10:49:55Z</time>
      </trkpt>
      <trkpt lat="51.610570000" lon="7.090000000">
        <ele>62</ele>
        <time>2021-04-28T10:49:56Z</time>
      </trkpt>
      <trkpt lat="51.610630000" lon="7.089960000">
        <ele>62</ele>
        <time>2021-04-28T10:49:57Z</time>
      </trkpt>
      <trkpt lat="51.610750000" lon="7.089870000">
        <ele>62</ele>
        <time>2021-04-28T10:49:59Z</time>
      </trkpt>
      <trkpt lat="51.610850000" lon="7.089790000">
        <ele>62</ele>
        <time>2021-04-28T10:50:01Z</time>
      </trkpt>
      <trkpt lat="51.610910000" lon="7.089750000">
        <ele>62</ele>
        <time>2021-04-28T10:50:02Z</time>
      </trkpt>
      <trkpt lat="51.610960000" lon="7.089710000">
        <ele>62</ele>
        <time>2021-04-28T10:50:03Z</time>
      </trkpt>
      <trkpt lat="51.611010000" lon="7.089670000">
        <ele>62</ele>
        <time>2021-04-28T10:50:04Z</time>
      </trkpt>
      <trkpt lat="51.611110000" lon="7.089590000">
        <ele>62</ele>
        <time>2021-04-28T10:50:06Z</time>
      </trkpt>
      <trkpt lat="51.611200000" lon="7.089520000">
        <ele>67</ele>
        <time>2021-04-28T10:50:08Z</time>
      </trkpt>
      <trkpt lat="51.611280000" lon="7.089450000">
        <ele>67</ele>
        <time>2021-04-28T10:50:10Z</time>
      </trkpt>
      <trkpt lat="51.611350000" lon="7.089370000">
        <ele>67</ele>
        <time>2021-04-28T10:50:12Z</time>
      </trkpt>
      <trkpt lat="51.611450000" lon="7.089260000">
        <ele>67</ele>
        <time>2021-04-28T10:50:15Z</time>
      </trkpt>
      <trkpt lat="51.611500000" lon="7.089200000">
        <ele>67</ele>
        <time>2021-04-28T10:50:17Z</time>
      </trkpt>
      <trkpt lat="51.611580000" lon="7.089150000">
        <ele>67</ele>
        <time>2021-04-28T10:50:19Z</time>
      </trkpt>
      <trkpt lat="51.611620000" lon="7.089080000">
        <ele>67</ele>
        <time>2021-04-28T10:50:21Z</time>
      </trkpt>
      <trkpt lat="51.611650000" lon="7.089030000">
        <ele>67</ele>
        <time>2021-04-28T10:50:24Z</time>
      </trkpt>
      <trkpt lat="51.611640000" lon="7.088940000">
        <ele>67</ele>
        <time>2021-04-28T10:56:41Z</time>
      </trkpt>
      <trkpt lat="51.611610000" lon="7.088870000">
        <ele>67</ele>
        <time>2021-04-28T10:56:44Z</time>
      </trkpt>
      <trkpt lat="51.611610000" lon="7.088780000">
        <ele>67</ele>
        <time>2021-04-28T10:56:45Z</time>
      </trkpt>
      <trkpt lat="51.611610000" lon="7.088710000">
        <ele>67</ele>
        <time>2021-04-28T10:56:46Z</time>
      </trkpt>
      <trkpt lat="51.611630000" lon="7.088620000">
        <ele>67</ele>
        <time>2021-04-28T10:56:47Z</time>
      </trkpt>
      <trkpt lat="51.611630000" lon="7.088470000">
        <ele>67</ele>
        <time>2021-04-28T10:56:49Z</time>
      </trkpt>
      <trkpt lat="51.611630000" lon="7.088350000">
        <ele>67</ele>
        <time>2021-04-28T10:56:51Z</time>
      </trkpt>
      <trkpt lat="51.611630000" lon="7.088170000">
        <ele>67</ele>
        <time>2021-04-28T10:56:53Z</time>
      </trkpt>
      <trkpt lat="51.611630000" lon="7.088070000">
        <ele>67</ele>
        <time>2021-04-28T10:56:54Z</time>
      </trkpt>
      <trkpt lat="51.611630000" lon="7.087890000">
        <ele>63</ele>
        <time>2021-04-28T10:56:55Z</time>
      </trkpt>
      <trkpt lat="51.611630000" lon="7.087780000">
        <ele>63</ele>
        <time>2021-04-28T10:56:57Z</time>
      </trkpt>
      <trkpt lat="51.611640000" lon="7.087570000">
        <ele>63</ele>
        <time>2021-04-28T10:56:59Z</time>
      </trkpt>
      <trkpt lat="51.611640000" lon="7.087470000">
        <ele>63</ele>
        <time>2021-04-28T10:57:00Z</time>
      </trkpt>
      <trkpt lat="51.611630000" lon="7.087300000">
        <ele>63</ele>
        <time>2021-04-28T10:57:02Z</time>
      </trkpt>
      <trkpt lat="51.611640000" lon="7.087200000">
        <ele>63</ele>
        <time>2021-04-28T10:57:03Z</time>
      </trkpt>
      <trkpt lat="51.611630000" lon="7.087030000">
        <ele>63</ele>
        <time>2021-04-28T10:57:05Z</time>
      </trkpt>
      <trkpt lat="51.611640000" lon="7.086840000">
        <ele>63</ele>
        <time>2021-04-28T10:57:06Z</time>
      </trkpt>
      <trkpt lat="51.611630000" lon="7.086590000">
        <ele>63</ele>
        <time>2021-04-28T10:57:09Z</time>
      </trkpt>
      <trkpt lat="51.611630000" lon="7.086400000">
        <ele>63</ele>
        <time>2021-04-28T10:57:11Z</time>
      </trkpt>
      <trkpt lat="51.611650000" lon="7.086230000">
        <ele>65</ele>
        <time>2021-04-28T10:57:12Z</time>
      </trkpt>
      <trkpt lat="51.611640000" lon="7.086150000">
        <ele>65</ele>
        <time>2021-04-28T10:57:13Z</time>
      </trkpt>
      <trkpt lat="51.611640000" lon="7.085960000">
        <ele>65</ele>
        <time>2021-04-28T10:57:15Z</time>
      </trkpt>
      <trkpt lat="51.611640000" lon="7.085840000">
        <ele>65</ele>
        <time>2021-04-28T10:57:17Z</time>
      </trkpt>
      <trkpt lat="51.611640000" lon="7.085730000">
        <ele>65</ele>
        <time>2021-04-28T10:57:18Z</time>
      </trkpt>
      <trkpt lat="51.611640000" lon="7.085630000">
        <ele>65</ele>
        <time>2021-04-28T10:57:19Z</time>
      </trkpt>
      <trkpt lat="51.611640000" lon="7.085430000">
        <ele>65</ele>
        <time>2021-04-28T10:57:20Z</time>
      </trkpt>
      <trkpt lat="51.611630000" lon="7.085280000">
        <ele>65</ele>
        <time>2021-04-28T10:57:22Z</time>
      </trkpt>
      <trkpt lat="51.611630000" lon="7.085140000">
        <ele>65</ele>
        <time>2021-04-28T10:57:24Z</time>
      </trkpt>
      <trkpt lat="51.611570000" lon="7.085030000">
        <ele>65</ele>
        <time>2021-04-28T10:57:26Z</time>
      </trkpt>
      <trkpt lat="51.611500000" lon="7.085000000">
        <ele>65</ele>
        <time>2021-04-28T10:57:29Z</time>
      </trkpt>
      <trkpt lat="51.611480000" lon="7.084870000">
        <ele>65</ele>
        <time>2021-04-28T10:57:32Z</time>
      </trkpt>
      <trkpt lat="51.611510000" lon="7.084790000">
        <ele>65</ele>
        <time>2021-04-28T10:57:34Z</time>
      </trkpt>
      <trkpt lat="51.611590000" lon="7.084760000">
        <ele>65</ele>
        <time>2021-04-28T10:57:36Z</time>
      </trkpt>
      <trkpt lat="51.611650000" lon="7.084690000">
        <ele>65</ele>
        <time>2021-04-28T10:57:38Z</time>
      </trkpt>
      <trkpt lat="51.611700000" lon="7.084510000">
        <ele>65</ele>
        <time>2021-04-28T10:57:41Z</time>
      </trkpt>
      <trkpt lat="51.611710000" lon="7.084330000">
        <ele>53</ele>
        <time>2021-04-28T10:57:43Z</time>
      </trkpt>
      <trkpt lat="51.611720000" lon="7.084160000">
        <ele>53</ele>
        <time>2021-04-28T10:57:45Z</time>
      </trkpt>
      <trkpt lat="51.611750000" lon="7.083960000">
        <ele>53</ele>
        <time>2021-04-28T10:57:46Z</time>
      </trkpt>
      <trkpt lat="51.611790000" lon="7.083710000">
        <ele>53</ele>
        <time>2021-04-28T10:57:48Z</time>
      </trkpt>
      <trkpt lat="51.611840000" lon="7.083550000">
        <ele>53</ele>
        <time>2021-04-28T10:57:50Z</time>
      </trkpt>
      <trkpt lat="51.611900000" lon="7.083360000">
        <ele>53</ele>
        <time>2021-04-28T10:57:52Z</time>
      </trkpt>
      <trkpt lat="51.611970000" lon="7.083170000">
        <ele>53</ele>
        <time>2021-04-28T10:57:54Z</time>
      </trkpt>
      <trkpt lat="51.612080000" lon="7.083000000">
        <ele>53</ele>
        <time>2021-04-28T10:57:56Z</time>
      </trkpt>
      <trkpt lat="51.612130000" lon="7.082940000">
        <ele>53</ele>
        <time>2021-04-28T10:57:57Z</time>
      </trkpt>
      <trkpt lat="51.612180000" lon="7.082880000">
        <ele>53</ele>
        <time>2021-04-28T10:57:58Z</time>
      </trkpt>
      <trkpt lat="51.612250000" lon="7.082740000">
        <ele>58</ele>
        <time>2021-04-28T10:58:00Z</time>
      </trkpt>
      <trkpt lat="51.612270000" lon="7.082680000">
        <ele>58</ele>
        <time>2021-04-28T10:58:01Z</time>
      </trkpt>
      <trkpt lat="51.612320000" lon="7.082550000">
        <ele>58</ele>
        <time>2021-04-28T10:58:02Z</time>
      </trkpt>
      <trkpt lat="51.612380000" lon="7.082440000">
        <ele>58</ele>
        <time>2021-04-28T10:58:04Z</time>
      </trkpt>
      <trkpt lat="51.612410000" lon="7.082310000">
        <ele>58</ele>
        <time>2021-04-28T10:58:05Z</time>
      </trkpt>
      <trkpt lat="51.612430000" lon="7.082200000">
        <ele>58</ele>
        <time>2021-04-28T10:58:06Z</time>
      </trkpt>
      <trkpt lat="51.612430000" lon="7.082040000">
        <ele>58</ele>
        <time>2021-04-28T10:58:08Z</time>
      </trkpt>
      <trkpt lat="51.612430000" lon="7.081950000">
        <ele>58</ele>
        <time>2021-04-28T10:58:09Z</time>
      </trkpt>
      <trkpt lat="51.612440000" lon="7.081830000">
        <ele>58</ele>
        <time>2021-04-28T10:58:10Z</time>
      </trkpt>
      <trkpt lat="51.612460000" lon="7.081760000">
        <ele>58</ele>
        <time>2021-04-28T10:58:12Z</time>
      </trkpt>
      <trkpt lat="51.612510000" lon="7.081640000">
        <ele>58</ele>
        <time>2021-04-28T10:58:13Z</time>
      </trkpt>
      <trkpt lat="51.612560000" lon="7.081450000">
        <ele>58</ele>
        <time>2021-04-28T10:58:16Z</time>
      </trkpt>
      <trkpt lat="51.612610000" lon="7.081310000">
        <ele>58</ele>
        <time>2021-04-28T10:58:17Z</time>
      </trkpt>
      <trkpt lat="51.612640000" lon="7.081200000">
        <ele>58</ele>
        <time>2021-04-28T10:58:19Z</time>
      </trkpt>
      <trkpt lat="51.612660000" lon="7.081000000">
        <ele>63</ele>
        <time>2021-04-28T10:58:21Z</time>
      </trkpt>
      <trkpt lat="51.612690000" lon="7.080860000">
        <ele>63</ele>
        <time>2021-04-28T10:58:23Z</time>
      </trkpt>
      <trkpt lat="51.612630000" lon="7.080730000">
        <ele>63</ele>
        <time>2021-04-28T10:58:26Z</time>
      </trkpt>
      <trkpt lat="51.612560000" lon="7.080650000">
        <ele>63</ele>
        <time>2021-04-28T10:58:27Z</time>
      </trkpt>
      <trkpt lat="51.612490000" lon="7.080580000">
        <ele>63</ele>
        <time>2021-04-28T10:58:29Z</time>
      </trkpt>
      <trkpt lat="51.612400000" lon="7.080460000">
        <ele>63</ele>
        <time>2021-04-28T10:58:33Z</time>
      </trkpt>
      <trkpt lat="51.612300000" lon="7.080440000">
        <ele>63</ele>
        <time>2021-04-28T10:58:36Z</time>
      </trkpt>
      <trkpt lat="51.612240000" lon="7.080430000">
        <ele>63</ele>
        <time>2021-04-28T10:58:37Z</time>
      </trkpt>
      <trkpt lat="51.612120000" lon="7.080380000">
        <ele>63</ele>
        <time>2021-04-28T10:58:38Z</time>
      </trkpt>
      <trkpt lat="51.612040000" lon="7.080310000">
        <ele>63</ele>
        <time>2021-04-28T10:58:39Z</time>
      </trkpt>
      <trkpt lat="51.611940000" lon="7.080170000">
        <ele>63</ele>
        <time>2021-04-28T10:58:41Z</time>
      </trkpt>
      <trkpt lat="51.611880000" lon="7.080100000">
        <ele>63</ele>
        <time>2021-04-28T10:58:42Z</time>
      </trkpt>
      <trkpt lat="51.611830000" lon="7.080010000">
        <ele>63</ele>
        <time>2021-04-28T10:58:43Z</time>
      </trkpt>
      <trkpt lat="51.611790000" lon="7.079930000">
        <ele>63</ele>
        <time>2021-04-28T10:58:44Z</time>
      </trkpt>
      <trkpt lat="51.611780000" lon="7.079820000">
        <ele>60</ele>
        <time>2021-04-28T10:58:45Z</time>
      </trkpt>
      <trkpt lat="51.611790000" lon="7.079580000">
        <ele>60</ele>
        <time>2021-04-28T10:58:47Z</time>
      </trkpt>
      <trkpt lat="51.611800000" lon="7.079380000">
        <ele>60</ele>
        <time>2021-04-28T10:58:49Z</time>
      </trkpt>
      <trkpt lat="51.611810000" lon="7.079290000">
        <ele>60</ele>
        <time>2021-04-28T10:58:50Z</time>
      </trkpt>
      <trkpt lat="51.611820000" lon="7.079100000">
        <ele>60</ele>
        <time>2021-04-28T10:58:52Z</time>
      </trkpt>
      <trkpt lat="51.611830000" lon="7.079020000">
        <ele>60</ele>
        <time>2021-04-28T10:58:53Z</time>
      </trkpt>
      <trkpt lat="51.611840000" lon="7.078850000">
        <ele>60</ele>
        <time>2021-04-28T10:58:55Z</time>
      </trkpt>
      <trkpt lat="51.611850000" lon="7.078760000">
        <ele>60</ele>
        <time>2021-04-28T10:58:56Z</time>
      </trkpt>
      <trkpt lat="51.611900000" lon="7.078580000">
        <ele>60</ele>
        <time>2021-04-28T10:58:58Z</time>
      </trkpt>
      <trkpt lat="51.611940000" lon="7.078390000">
        <ele>60</ele>
        <time>2021-04-28T10:59:00Z</time>
      </trkpt>
      <trkpt lat="51.611960000" lon="7.078300000">
        <ele>60</ele>
        <time>2021-04-28T10:59:01Z</time>
      </trkpt>
      <trkpt lat="51.611980000" lon="7.078200000">
        <ele>60</ele>
        <time>2021-04-28T10:59:02Z</time>
      </trkpt>
      <trkpt lat="51.612050000" lon="7.078000000">
        <ele>60</ele>
        <time>2021-04-28T10:59:04Z</time>
      </trkpt>
      <trkpt lat="51.612090000" lon="7.077900000">
        <ele>60</ele>
        <time>2021-04-28T10:59:05Z</time>
      </trkpt>
      <trkpt lat="51.612150000" lon="7.077690000">
        <ele>60</ele>
        <time>2021-04-28T10:59:07Z</time>
      </trkpt>
      <trkpt lat="51.612180000" lon="7.077510000">
        <ele>60</ele>
        <time>2021-04-28T10:59:09Z</time>
      </trkpt>
      <trkpt lat="51.612190000" lon="7.077340000">
        <ele>60</ele>
        <time>2021-04-28T10:59:11Z</time>
      </trkpt>
      <trkpt lat="51.612210000" lon="7.077110000">
        <ele>60</ele>
        <time>2021-04-28T10:59:13Z</time>
      </trkpt>
      <trkpt lat="51.612220000" lon="7.076890000">
        <ele>60</ele>
        <time>2021-04-28T10:59:15Z</time>
      </trkpt>
      <trkpt lat="51.612220000" lon="7.076780000">
        <ele>60</ele>
        <time>2021-04-28T10:59:16Z</time>
      </trkpt>
      <trkpt lat="51.612230000" lon="7.076570000">
        <ele>60</ele>
        <time>2021-04-28T10:59:18Z</time>
      </trkpt>
      <trkpt lat="51.612230000" lon="7.076360000">
        <ele>60</ele>
        <time>2021-04-28T10:59:20Z</time>
      </trkpt>
      <trkpt lat="51.612230000" lon="7.076210000">
        <ele>60</ele>
        <time>2021-04-28T10:59:22Z</time>
      </trkpt>
      <trkpt lat="51.612260000" lon="7.076000000">
        <ele>60</ele>
        <time>2021-04-28T10:59:24Z</time>
      </trkpt>
      <trkpt lat="51.612290000" lon="7.075780000">
        <ele>60</ele>
        <time>2021-04-28T10:59:25Z</time>
      </trkpt>
      <trkpt lat="51.612300000" lon="7.075570000">
        <ele>60</ele>
        <time>2021-04-28T10:59:27Z</time>
      </trkpt>
      <trkpt lat="51.612290000" lon="7.075330000">
        <ele>57</ele>
        <time>2021-04-28T10:59:29Z</time>
      </trkpt>
      <trkpt lat="51.612280000" lon="7.075210000">
        <ele>57</ele>
        <time>2021-04-28T10:59:30Z</time>
      </trkpt>
      <trkpt lat="51.612250000" lon="7.075010000">
        <ele>57</ele>
        <time>2021-04-28T10:59:32Z</time>
      </trkpt>
      <trkpt lat="51.612240000" lon="7.074920000">
        <ele>57</ele>
        <time>2021-04-28T10:59:33Z</time>
      </trkpt>
      <trkpt lat="51.612220000" lon="7.074820000">
        <ele>57</ele>
        <time>2021-04-28T10:59:34Z</time>
      </trkpt>
      <trkpt lat="51.612220000" lon="7.074720000">
        <ele>57</ele>
        <time>2021-04-28T10:59:35Z</time>
      </trkpt>
      <trkpt lat="51.612210000" lon="7.074630000">
        <ele>57</ele>
        <time>2021-04-28T10:59:36Z</time>
      </trkpt>
      <trkpt lat="51.612190000" lon="7.074470000">
        <ele>57</ele>
        <time>2021-04-28T10:59:38Z</time>
      </trkpt>
      <trkpt lat="51.612150000" lon="7.074290000">
        <ele>57</ele>
        <time>2021-04-28T10:59:40Z</time>
      </trkpt>
      <trkpt lat="51.612140000" lon="7.074200000">
        <ele>57</ele>
        <time>2021-04-28T10:59:41Z</time>
      </trkpt>
      <trkpt lat="51.612110000" lon="7.074030000">
        <ele>57</ele>
        <time>2021-04-28T10:59:43Z</time>
      </trkpt>
      <trkpt lat="51.612080000" lon="7.073930000">
        <ele>57</ele>
        <time>2021-04-28T10:59:44Z</time>
      </trkpt>
      <trkpt lat="51.612030000" lon="7.073760000">
        <ele>56</ele>
        <time>2021-04-28T10:59:46Z</time>
      </trkpt>
      <trkpt lat="51.612010000" lon="7.073690000">
        <ele>56</ele>
        <time>2021-04-28T10:59:47Z</time>
      </trkpt>
      <trkpt lat="51.611990000" lon="7.073620000">
        <ele>56</ele>
        <time>2021-04-28T10:59:48Z</time>
      </trkpt>
      <trkpt lat="51.611970000" lon="7.073540000">
        <ele>56</ele>
        <time>2021-04-28T10:59:49Z</time>
      </trkpt>
      <trkpt lat="51.611950000" lon="7.073460000">
        <ele>56</ele>
        <time>2021-04-28T10:59:50Z</time>
      </trkpt>
      <trkpt lat="51.611930000" lon="7.073390000">
        <ele>56</ele>
        <time>2021-04-28T10:59:51Z</time>
      </trkpt>
      <trkpt lat="51.611910000" lon="7.073220000">
        <ele>56</ele>
        <time>2021-04-28T10:59:53Z</time>
      </trkpt>
      <trkpt lat="51.611890000" lon="7.073130000">
        <ele>56</ele>
        <time>2021-04-28T10:59:54Z</time>
      </trkpt>
      <trkpt lat="51.611890000" lon="7.072950000">
        <ele>56</ele>
        <time>2021-04-28T10:59:56Z</time>
      </trkpt>
      <trkpt lat="51.611900000" lon="7.072760000">
        <ele>56</ele>
        <time>2021-04-28T10:59:58Z</time>
      </trkpt>
      <trkpt lat="51.611900000" lon="7.072660000">
        <ele>56</ele>
        <time>2021-04-28T10:59:59Z</time>
      </trkpt>
      <trkpt lat="51.611910000" lon="7.072450000">
        <ele>56</ele>
        <time>2021-04-28T11:00:01Z</time>
      </trkpt>
      <trkpt lat="51.611930000" lon="7.072340000">
        <ele>56</ele>
        <time>2021-04-28T11:00:02Z</time>
      </trkpt>
      <trkpt lat="51.611940000" lon="7.072140000">
        <ele>61</ele>
        <time>2021-04-28T11:00:04Z</time>
      </trkpt>
      <trkpt lat="51.611960000" lon="7.071930000">
        <ele>61</ele>
        <time>2021-04-28T11:00:06Z</time>
      </trkpt>
      <trkpt lat="51.611970000" lon="7.071820000">
        <ele>61</ele>
        <time>2021-04-28T11:00:07Z</time>
      </trkpt>
      <trkpt lat="51.611970000" lon="7.071720000">
        <ele>61</ele>
        <time>2021-04-28T11:00:08Z</time>
      </trkpt>
      <trkpt lat="51.611970000" lon="7.071620000">
        <ele>61</ele>
        <time>2021-04-28T11:00:09Z</time>
      </trkpt>
      <trkpt lat="51.611980000" lon="7.071530000">
        <ele>61</ele>
        <time>2021-04-28T11:00:10Z</time>
      </trkpt>
      <trkpt lat="51.612000000" lon="7.071460000">
        <ele>61</ele>
        <time>2021-04-28T11:00:11Z</time>
      </trkpt>
      <trkpt lat="51.612030000" lon="7.071400000">
        <ele>61</ele>
        <time>2021-04-28T11:00:12Z</time>
      </trkpt>
      <trkpt lat="51.612100000" lon="7.071310000">
        <ele>61</ele>
        <time>2021-04-28T11:00:14Z</time>
      </trkpt>
      <trkpt lat="51.612210000" lon="7.071230000">
        <ele>61</ele>
        <time>2021-04-28T11:00:16Z</time>
      </trkpt>
      <trkpt lat="51.612320000" lon="7.071120000">
        <ele>61</ele>
        <time>2021-04-28T11:00:18Z</time>
      </trkpt>
      <trkpt lat="51.612440000" lon="7.071040000">
        <ele>61</ele>
        <time>2021-04-28T11:00:20Z</time>
      </trkpt>
      <trkpt lat="51.612500000" lon="7.071000000">
        <ele>55</ele>
        <time>2021-04-28T11:00:21Z</time>
      </trkpt>
      <trkpt lat="51.612560000" lon="7.070960000">
        <ele>55</ele>
        <time>2021-04-28T11:00:22Z</time>
      </trkpt>
      <trkpt lat="51.612680000" lon="7.070890000">
        <ele>55</ele>
        <time>2021-04-28T11:00:24Z</time>
      </trkpt>
      <trkpt lat="51.612730000" lon="7.070840000">
        <ele>55</ele>
        <time>2021-04-28T11:00:25Z</time>
      </trkpt>
      <trkpt lat="51.612780000" lon="7.070780000">
        <ele>55</ele>
        <time>2021-04-28T11:00:26Z</time>
      </trkpt>
      <trkpt lat="51.612830000" lon="7.070710000">
        <ele>55</ele>
        <time>2021-04-28T11:00:27Z</time>
      </trkpt>
      <trkpt lat="51.612870000" lon="7.070630000">
        <ele>55</ele>
        <time>2021-04-28T11:00:28Z</time>
      </trkpt>
      <trkpt lat="51.612910000" lon="7.070550000">
        <ele>55</ele>
        <time>2021-04-28T11:00:29Z</time>
      </trkpt>
      <trkpt lat="51.612940000" lon="7.070460000">
        <ele>55</ele>
        <time>2021-04-28T11:00:30Z</time>
      </trkpt>
      <trkpt lat="51.613010000" lon="7.070290000">
        <ele>55</ele>
        <time>2021-04-28T11:00:32Z</time>
      </trkpt>
      <trkpt lat="51.613090000" lon="7.070140000">
        <ele>55</ele>
        <time>2021-04-28T11:00:34Z</time>
      </trkpt>
      <trkpt lat="51.613180000" lon="7.070000000">
        <ele>55</ele>
        <time>2021-04-28T11:00:36Z</time>
      </trkpt>
      <trkpt lat="51.613230000" lon="7.069940000">
        <ele>55</ele>
        <time>2021-04-28T11:00:37Z</time>
      </trkpt>
      <trkpt lat="51.613290000" lon="7.069870000">
        <ele>55</ele>
        <time>2021-04-28T11:00:38Z</time>
      </trkpt>
      <trkpt lat="51.613330000" lon="7.069800000">
        <ele>55</ele>
        <time>2021-04-28T11:00:39Z</time>
      </trkpt>
      <trkpt lat="51.613420000" lon="7.069680000">
        <ele>55</ele>
        <time>2021-04-28T11:00:41Z</time>
      </trkpt>
      <trkpt lat="51.613470000" lon="7.069620000">
        <ele>55</ele>
        <time>2021-04-28T11:00:42Z</time>
      </trkpt>
      <trkpt lat="51.613530000" lon="7.069560000">
        <ele>55</ele>
        <time>2021-04-28T11:00:43Z</time>
      </trkpt>
      <trkpt lat="51.613630000" lon="7.069420000">
        <ele>55</ele>
        <time>2021-04-28T11:00:45Z</time>
      </trkpt>
      <trkpt lat="51.613670000" lon="7.069360000">
        <ele>55</ele>
        <time>2021-04-28T11:00:46Z</time>
      </trkpt>
      <trkpt lat="51.613720000" lon="7.069290000">
        <ele>55</ele>
        <time>2021-04-28T11:00:47Z</time>
      </trkpt>
      <trkpt lat="51.613820000" lon="7.069170000">
        <ele>55</ele>
        <time>2021-04-28T11:00:49Z</time>
      </trkpt>
      <trkpt lat="51.613870000" lon="7.069110000">
        <ele>55</ele>
        <time>2021-04-28T11:00:50Z</time>
      </trkpt>
      <trkpt lat="51.613920000" lon="7.069050000">
        <ele>55</ele>
        <time>2021-04-28T11:00:51Z</time>
      </trkpt>
      <trkpt lat="51.613970000" lon="7.068990000">
        <ele>55</ele>
        <time>2021-04-28T11:00:52Z</time>
      </trkpt>
      <trkpt lat="51.614090000" lon="7.068890000">
        <ele>55</ele>
        <time>2021-04-28T11:00:54Z</time>
      </trkpt>
      <trkpt lat="51.614150000" lon="7.068850000">
        <ele>55</ele>
        <time>2021-04-28T11:00:55Z</time>
      </trkpt>
      <trkpt lat="51.614200000" lon="7.068800000">
        <ele>55</ele>
        <time>2021-04-28T11:00:56Z</time>
      </trkpt>
      <trkpt lat="51.614260000" lon="7.068740000">
        <ele>55</ele>
        <time>2021-04-28T11:00:57Z</time>
      </trkpt>
      <trkpt lat="51.614300000" lon="7.068670000">
        <ele>55</ele>
        <time>2021-04-28T11:00:58Z</time>
      </trkpt>
      <trkpt lat="51.614370000" lon="7.068500000">
        <ele>53</ele>
        <time>2021-04-28T11:01:00Z</time>
      </trkpt>
      <trkpt lat="51.614430000" lon="7.068330000">
        <ele>53</ele>
        <time>2021-04-28T11:01:02Z</time>
      </trkpt>
      <trkpt lat="51.614470000" lon="7.068250000">
        <ele>53</ele>
        <time>2021-04-28T11:01:03Z</time>
      </trkpt>
      <trkpt lat="51.614560000" lon="7.068110000">
        <ele>53</ele>
        <time>2021-04-28T11:01:05Z</time>
      </trkpt>
      <trkpt lat="51.614600000" lon="7.068040000">
        <ele>53</ele>
        <time>2021-04-28T11:01:06Z</time>
      </trkpt>
      <trkpt lat="51.614720000" lon="7.067910000">
        <ele>53</ele>
        <time>2021-04-28T11:01:08Z</time>
      </trkpt>
      <trkpt lat="51.614810000" lon="7.067770000">
        <ele>53</ele>
        <time>2021-04-28T11:01:10Z</time>
      </trkpt>
      <trkpt lat="51.614860000" lon="7.067700000">
        <ele>53</ele>
        <time>2021-04-28T11:01:11Z</time>
      </trkpt>
      <trkpt lat="51.614920000" lon="7.067620000">
        <ele>53</ele>
        <time>2021-04-28T11:01:12Z</time>
      </trkpt>
      <trkpt lat="51.615010000" lon="7.067470000">
        <ele>53</ele>
        <time>2021-04-28T11:01:14Z</time>
      </trkpt>
      <trkpt lat="51.615080000" lon="7.067340000">
        <ele>53</ele>
        <time>2021-04-28T11:01:16Z</time>
      </trkpt>
      <trkpt lat="51.615170000" lon="7.067200000">
        <ele>56</ele>
        <time>2021-04-28T11:01:18Z</time>
      </trkpt>
      <trkpt lat="51.615210000" lon="7.067120000">
        <ele>56</ele>
        <time>2021-04-28T11:01:19Z</time>
      </trkpt>
      <trkpt lat="51.615310000" lon="7.067000000">
        <ele>56</ele>
        <time>2021-04-28T11:01:21Z</time>
      </trkpt>
      <trkpt lat="51.615350000" lon="7.066930000">
        <ele>56</ele>
        <time>2021-04-28T11:01:22Z</time>
      </trkpt>
      <trkpt lat="51.615390000" lon="7.066870000">
        <ele>56</ele>
        <time>2021-04-28T11:01:23Z</time>
      </trkpt>
      <trkpt lat="51.615480000" lon="7.066750000">
        <ele>56</ele>
        <time>2021-04-28T11:01:25Z</time>
      </trkpt>
      <trkpt lat="51.615530000" lon="7.066680000">
        <ele>56</ele>
        <time>2021-04-28T11:01:26Z</time>
      </trkpt>
      <trkpt lat="51.615580000" lon="7.066620000">
        <ele>56</ele>
        <time>2021-04-28T11:01:27Z</time>
      </trkpt>
      <trkpt lat="51.615620000" lon="7.066550000">
        <ele>56</ele>
        <time>2021-04-28T11:01:28Z</time>
      </trkpt>
      <trkpt lat="51.615690000" lon="7.066430000">
        <ele>56</ele>
        <time>2021-04-28T11:01:30Z</time>
      </trkpt>
      <trkpt lat="51.615780000" lon="7.066310000">
        <ele>56</ele>
        <time>2021-04-28T11:01:32Z</time>
      </trkpt>
      <trkpt lat="51.615860000" lon="7.066180000">
        <ele>56</ele>
        <time>2021-04-28T11:01:34Z</time>
      </trkpt>
      <trkpt lat="51.615910000" lon="7.066120000">
        <ele>56</ele>
        <time>2021-04-28T11:01:35Z</time>
      </trkpt>
      <trkpt lat="51.616010000" lon="7.066000000">
        <ele>56</ele>
        <time>2021-04-28T11:01:37Z</time>
      </trkpt>
      <trkpt lat="51.616050000" lon="7.065940000">
        <ele>57</ele>
        <time>2021-04-28T11:01:39Z</time>
      </trkpt>
      <trkpt lat="51.616090000" lon="7.065890000">
        <ele>57</ele>
        <time>2021-04-28T11:01:40Z</time>
      </trkpt>
      <trkpt lat="51.616170000" lon="7.065760000">
        <ele>57</ele>
        <time>2021-04-28T11:01:42Z</time>
      </trkpt>
      <trkpt lat="51.616250000" lon="7.065640000">
        <ele>57</ele>
        <time>2021-04-28T11:01:44Z</time>
      </trkpt>
      <trkpt lat="51.616340000" lon="7.065520000">
        <ele>57</ele>
        <time>2021-04-28T11:01:46Z</time>
      </trkpt>
      <trkpt lat="51.616400000" lon="7.065390000">
        <ele>57</ele>
        <time>2021-04-28T11:01:48Z</time>
      </trkpt>
      <trkpt lat="51.616480000" lon="7.065290000">
        <ele>57</ele>
        <time>2021-04-28T11:01:49Z</time>
      </trkpt>
      <trkpt lat="51.616520000" lon="7.065220000">
        <ele>57</ele>
        <time>2021-04-28T11:01:50Z</time>
      </trkpt>
      <trkpt lat="51.616570000" lon="7.065130000">
        <ele>57</ele>
        <time>2021-04-28T11:01:52Z</time>
      </trkpt>
      <trkpt lat="51.616610000" lon="7.065080000">
        <ele>57</ele>
        <time>2021-04-28T11:01:52Z</time>
      </trkpt>
      <trkpt lat="51.616680000" lon="7.064960000">
        <ele>57</ele>
        <time>2021-04-28T11:01:55Z</time>
      </trkpt>
      <trkpt lat="51.616750000" lon="7.064850000">
        <ele>57</ele>
        <time>2021-04-28T11:01:56Z</time>
      </trkpt>
      <trkpt lat="51.616790000" lon="7.064790000">
        <ele>57</ele>
        <time>2021-04-28T11:01:57Z</time>
      </trkpt>
      <trkpt lat="51.616840000" lon="7.064720000">
        <ele>57</ele>
        <time>2021-04-28T11:01:59Z</time>
      </trkpt>
      <trkpt lat="51.616860000" lon="7.064670000">
        <ele>61</ele>
        <time>2021-04-28T11:02:00Z</time>
      </trkpt>
      <trkpt lat="51.616920000" lon="7.064570000">
        <ele>61</ele>
        <time>2021-04-28T11:02:01Z</time>
      </trkpt>
      <trkpt lat="51.616960000" lon="7.064510000">
        <ele>61</ele>
        <time>2021-04-28T11:02:02Z</time>
      </trkpt>
      <trkpt lat="51.617060000" lon="7.064380000">
        <ele>61</ele>
        <time>2021-04-28T11:02:05Z</time>
      </trkpt>
      <trkpt lat="51.617130000" lon="7.064280000">
        <ele>61</ele>
        <time>2021-04-28T11:02:06Z</time>
      </trkpt>
      <trkpt lat="51.617220000" lon="7.064150000">
        <ele>61</ele>
        <time>2021-04-28T11:02:09Z</time>
      </trkpt>
      <trkpt lat="51.617300000" lon="7.064040000">
        <ele>61</ele>
        <time>2021-04-28T11:02:10Z</time>
      </trkpt>
      <trkpt lat="51.617340000" lon="7.063970000">
        <ele>61</ele>
        <time>2021-04-28T11:02:12Z</time>
      </trkpt>
      <trkpt lat="51.617410000" lon="7.063840000">
        <ele>61</ele>
        <time>2021-04-28T11:02:14Z</time>
      </trkpt>
      <trkpt lat="51.617470000" lon="7.063690000">
        <ele>61</ele>
        <time>2021-04-28T11:02:16Z</time>
      </trkpt>
      <trkpt lat="51.617510000" lon="7.063560000">
        <ele>61</ele>
        <time>2021-04-28T11:02:17Z</time>
      </trkpt>
      <trkpt lat="51.617560000" lon="7.063390000">
        <ele>61</ele>
        <time>2021-04-28T11:02:19Z</time>
      </trkpt>
      <trkpt lat="51.617600000" lon="7.063290000">
        <ele>61</ele>
        <time>2021-04-28T11:02:20Z</time>
      </trkpt>
      <trkpt lat="51.617630000" lon="7.063220000">
        <ele>61</ele>
        <time>2021-04-28T11:02:22Z</time>
      </trkpt>
      <trkpt lat="51.617680000" lon="7.063050000">
        <ele>64</ele>
        <time>2021-04-28T11:02:24Z</time>
      </trkpt>
      <trkpt lat="51.617710000" lon="7.062970000">
        <ele>64</ele>
        <time>2021-04-28T11:02:25Z</time>
      </trkpt>
      <trkpt lat="51.617770000" lon="7.062800000">
        <ele>64</ele>
        <time>2021-04-28T11:02:26Z</time>
      </trkpt>
      <trkpt lat="51.617790000" lon="7.062720000">
        <ele>64</ele>
        <time>2021-04-28T11:02:28Z</time>
      </trkpt>
      <trkpt lat="51.617810000" lon="7.062650000">
        <ele>64</ele>
        <time>2021-04-28T11:02:29Z</time>
      </trkpt>
      <trkpt lat="51.617870000" lon="7.062490000">
        <ele>64</ele>
        <time>2021-04-28T11:02:31Z</time>
      </trkpt>
      <trkpt lat="51.617940000" lon="7.062320000">
        <ele>64</ele>
        <time>2021-04-28T11:02:33Z</time>
      </trkpt>
      <trkpt lat="51.617970000" lon="7.062240000">
        <ele>64</ele>
        <time>2021-04-28T11:02:34Z</time>
      </trkpt>
      <trkpt lat="51.618040000" lon="7.062050000">
        <ele>64</ele>
        <time>2021-04-28T11:02:36Z</time>
      </trkpt>
      <trkpt lat="51.618090000" lon="7.061890000">
        <ele>64</ele>
        <time>2021-04-28T11:02:38Z</time>
      </trkpt>
      <trkpt lat="51.618150000" lon="7.061740000">
        <ele>64</ele>
        <time>2021-04-28T11:02:39Z</time>
      </trkpt>
      <trkpt lat="51.618210000" lon="7.061560000">
        <ele>64</ele>
        <time>2021-04-28T11:02:42Z</time>
      </trkpt>
      <trkpt lat="51.618270000" lon="7.061400000">
        <ele>64</ele>
        <time>2021-04-28T11:02:44Z</time>
      </trkpt>
      <trkpt lat="51.618350000" lon="7.061220000">
        <ele>60</ele>
        <time>2021-04-28T11:02:46Z</time>
      </trkpt>
      <trkpt lat="51.618420000" lon="7.061060000">
        <ele>60</ele>
        <time>2021-04-28T11:02:48Z</time>
      </trkpt>
      <trkpt lat="51.618490000" lon="7.060880000">
        <ele>60</ele>
        <time>2021-04-28T11:02:50Z</time>
      </trkpt>
      <trkpt lat="51.618560000" lon="7.060730000">
        <ele>60</ele>
        <time>2021-04-28T11:02:52Z</time>
      </trkpt>
      <trkpt lat="51.618580000" lon="7.060650000">
        <ele>60</ele>
        <time>2021-04-28T11:02:53Z</time>
      </trkpt>
      <trkpt lat="51.618620000" lon="7.060520000">
        <ele>60</ele>
        <time>2021-04-28T11:02:54Z</time>
      </trkpt>
      <trkpt lat="51.618660000" lon="7.060410000">
        <ele>60</ele>
        <time>2021-04-28T11:02:56Z</time>
      </trkpt>
      <trkpt lat="51.618710000" lon="7.060330000">
        <ele>60</ele>
        <time>2021-04-28T11:02:57Z</time>
      </trkpt>
      <trkpt lat="51.618750000" lon="7.060260000">
        <ele>60</ele>
        <time>2021-04-28T11:02:58Z</time>
      </trkpt>
      <trkpt lat="51.618820000" lon="7.060140000">
        <ele>60</ele>
        <time>2021-04-28T11:02:59Z</time>
      </trkpt>
      <trkpt lat="51.618910000" lon="7.059960000">
        <ele>60</ele>
        <time>2021-04-28T11:03:02Z</time>
      </trkpt>
      <trkpt lat="51.618980000" lon="7.059820000">
        <ele>60</ele>
        <time>2021-04-28T11:03:03Z</time>
      </trkpt>
      <trkpt lat="51.619070000" lon="7.059660000">
        <ele>60</ele>
        <time>2021-04-28T11:03:05Z</time>
      </trkpt>
      <trkpt lat="51.619120000" lon="7.059580000">
        <ele>60</ele>
        <time>2021-04-28T11:03:07Z</time>
      </trkpt>
      <trkpt lat="51.619150000" lon="7.059520000">
        <ele>60</ele>
        <time>2021-04-28T11:03:08Z</time>
      </trkpt>
      <trkpt lat="51.619210000" lon="7.059380000">
        <ele>60</ele>
        <time>2021-04-28T11:03:09Z</time>
      </trkpt>
      <trkpt lat="51.619310000" lon="7.059200000">
        <ele>60</ele>
        <time>2021-04-28T11:03:12Z</time>
      </trkpt>
      <trkpt lat="51.619390000" lon="7.059060000">
        <ele>60</ele>
        <time>2021-04-28T11:03:14Z</time>
      </trkpt>
      <trkpt lat="51.619460000" lon="7.058910000">
        <ele>60</ele>
        <time>2021-04-28T11:03:16Z</time>
      </trkpt>
      <trkpt lat="51.619510000" lon="7.058830000">
        <ele>60</ele>
        <time>2021-04-28T11:03:17Z</time>
      </trkpt>
      <trkpt lat="51.619600000" lon="7.058690000">
        <ele>60</ele>
        <time>2021-04-28T11:03:19Z</time>
      </trkpt>
      <trkpt lat="51.619670000" lon="7.058570000">
        <ele>60</ele>
        <time>2021-04-28T11:03:20Z</time>
      </trkpt>
      <trkpt lat="51.619700000" lon="7.058500000">
        <ele>60</ele>
        <time>2021-04-28T11:03:21Z</time>
      </trkpt>
      <trkpt lat="51.619750000" lon="7.058420000">
        <ele>60</ele>
        <time>2021-04-28T11:03:23Z</time>
      </trkpt>
      <trkpt lat="51.619800000" lon="7.058360000">
        <ele>60</ele>
        <time>2021-04-28T11:03:24Z</time>
      </trkpt>
      <trkpt lat="51.619890000" lon="7.058240000">
        <ele>60</ele>
        <time>2021-04-28T11:03:25Z</time>
      </trkpt>
      <trkpt lat="51.619960000" lon="7.058130000">
        <ele>60</ele>
        <time>2021-04-28T11:03:27Z</time>
      </trkpt>
      <trkpt lat="51.620040000" lon="7.058010000">
        <ele>60</ele>
        <time>2021-04-28T11:03:29Z</time>
      </trkpt>
      <trkpt lat="51.620130000" lon="7.057850000">
        <ele>60</ele>
        <time>2021-04-28T11:03:31Z</time>
      </trkpt>
      <trkpt lat="51.620230000" lon="7.057700000">
        <ele>55</ele>
        <time>2021-04-28T11:03:32Z</time>
      </trkpt>
      <trkpt lat="51.620270000" lon="7.057620000">
        <ele>55</ele>
        <time>2021-04-28T11:03:34Z</time>
      </trkpt>
      <trkpt lat="51.620310000" lon="7.057550000">
        <ele>55</ele>
        <time>2021-04-28T11:03:35Z</time>
      </trkpt>
      <trkpt lat="51.620400000" lon="7.057410000">
        <ele>55</ele>
        <time>2021-04-28T11:03:37Z</time>
      </trkpt>
      <trkpt lat="51.620490000" lon="7.057260000">
        <ele>55</ele>
        <time>2021-04-28T11:03:39Z</time>
      </trkpt>
      <trkpt lat="51.620570000" lon="7.057110000">
        <ele>55</ele>
        <time>2021-04-28T11:03:40Z</time>
      </trkpt>
      <trkpt lat="51.620630000" lon="7.056940000">
        <ele>55</ele>
        <time>2021-04-28T11:03:42Z</time>
      </trkpt>
      <trkpt lat="51.620660000" lon="7.056840000">
        <ele>55</ele>
        <time>2021-04-28T11:03:44Z</time>
      </trkpt>
      <trkpt lat="51.620730000" lon="7.056710000">
        <ele>55</ele>
        <time>2021-04-28T11:03:46Z</time>
      </trkpt>
      <trkpt lat="51.620830000" lon="7.056590000">
        <ele>55</ele>
        <time>2021-04-28T11:03:48Z</time>
      </trkpt>
      <trkpt lat="51.620880000" lon="7.056520000">
        <ele>55</ele>
        <time>2021-04-28T11:03:49Z</time>
      </trkpt>
      <trkpt lat="51.620970000" lon="7.056390000">
        <ele>55</ele>
        <time>2021-04-28T11:03:51Z</time>
      </trkpt>
      <trkpt lat="51.621040000" lon="7.056250000">
        <ele>55</ele>
        <time>2021-04-28T11:03:52Z</time>
      </trkpt>
      <trkpt lat="51.621130000" lon="7.056100000">
        <ele>56</ele>
        <time>2021-04-28T11:03:55Z</time>
      </trkpt>
      <trkpt lat="51.621220000" lon="7.055950000">
        <ele>56</ele>
        <time>2021-04-28T11:03:57Z</time>
      </trkpt>
      <trkpt lat="51.621270000" lon="7.055790000">
        <ele>56</ele>
        <time>2021-04-28T11:03:59Z</time>
      </trkpt>
      <trkpt lat="51.621290000" lon="7.055710000">
        <ele>56</ele>
        <time>2021-04-28T11:04:00Z</time>
      </trkpt>
      <trkpt lat="51.621370000" lon="7.055580000">
        <ele>56</ele>
        <time>2021-04-28T11:04:01Z</time>
      </trkpt>
      <trkpt lat="51.621420000" lon="7.055510000">
        <ele>56</ele>
        <time>2021-04-28T11:04:02Z</time>
      </trkpt>
      <trkpt lat="51.621530000" lon="7.055380000">
        <ele>56</ele>
        <time>2021-04-28T11:04:04Z</time>
      </trkpt>
      <trkpt lat="51.621580000" lon="7.055340000">
        <ele>56</ele>
        <time>2021-04-28T11:04:05Z</time>
      </trkpt>
      <trkpt lat="51.621620000" lon="7.055300000">
        <ele>56</ele>
        <time>2021-04-28T11:04:06Z</time>
      </trkpt>
      <trkpt lat="51.621730000" lon="7.055210000">
        <ele>56</ele>
        <time>2021-04-28T11:04:08Z</time>
      </trkpt>
      <trkpt lat="51.621850000" lon="7.055100000">
        <ele>56</ele>
        <time>2021-04-28T11:04:10Z</time>
      </trkpt>
      <trkpt lat="51.621960000" lon="7.055020000">
        <ele>56</ele>
        <time>2021-04-28T11:04:12Z</time>
      </trkpt>
      <trkpt lat="51.622020000" lon="7.054980000">
        <ele>58</ele>
        <time>2021-04-28T11:04:13Z</time>
      </trkpt>
      <trkpt lat="51.622080000" lon="7.054940000">
        <ele>58</ele>
        <time>2021-04-28T11:04:14Z</time>
      </trkpt>
      <trkpt lat="51.622150000" lon="7.054890000">
        <ele>58</ele>
        <time>2021-04-28T11:04:15Z</time>
      </trkpt>
      <trkpt lat="51.622210000" lon="7.054830000">
        <ele>58</ele>
        <time>2021-04-28T11:04:16Z</time>
      </trkpt>
      <trkpt lat="51.622320000" lon="7.054740000">
        <ele>58</ele>
        <time>2021-04-28T11:04:18Z</time>
      </trkpt>
      <trkpt lat="51.622440000" lon="7.054660000">
        <ele>58</ele>
        <time>2021-04-28T11:04:20Z</time>
      </trkpt>
      <trkpt lat="51.622500000" lon="7.054620000">
        <ele>58</ele>
        <time>2021-04-28T11:04:21Z</time>
      </trkpt>
      <trkpt lat="51.622620000" lon="7.054540000">
        <ele>58</ele>
        <time>2021-04-28T11:04:23Z</time>
      </trkpt>
      <trkpt lat="51.622730000" lon="7.054460000">
        <ele>58</ele>
        <time>2021-04-28T11:04:25Z</time>
      </trkpt>
      <trkpt lat="51.622840000" lon="7.054370000">
        <ele>58</ele>
        <time>2021-04-28T11:04:27Z</time>
      </trkpt>
      <trkpt lat="51.622950000" lon="7.054280000">
        <ele>58</ele>
        <time>2021-04-28T11:04:29Z</time>
      </trkpt>
      <trkpt lat="51.623000000" lon="7.054240000">
        <ele>58</ele>
        <time>2021-04-28T11:04:30Z</time>
      </trkpt>
      <trkpt lat="51.623050000" lon="7.054190000">
        <ele>58</ele>
        <time>2021-04-28T11:04:31Z</time>
      </trkpt>
      <trkpt lat="51.623110000" lon="7.054140000">
        <ele>58</ele>
        <time>2021-04-28T11:04:32Z</time>
      </trkpt>
      <trkpt lat="51.623160000" lon="7.054110000">
        <ele>58</ele>
        <time>2021-04-28T11:04:33Z</time>
      </trkpt>
      <trkpt lat="51.623270000" lon="7.054050000">
        <ele>58</ele>
        <time>2021-04-28T11:04:35Z</time>
      </trkpt>
      <trkpt lat="51.623330000" lon="7.054020000">
        <ele>58</ele>
        <time>2021-04-28T11:04:36Z</time>
      </trkpt>
      <trkpt lat="51.623390000" lon="7.053990000">
        <ele>58</ele>
        <time>2021-04-28T11:04:37Z</time>
      </trkpt>
      <trkpt lat="51.623490000" lon="7.053940000">
        <ele>58</ele>
        <time>2021-04-28T11:04:39Z</time>
      </trkpt>
      <trkpt lat="51.623580000" lon="7.053820000">
        <ele>58</ele>
        <time>2021-04-28T11:04:41Z</time>
      </trkpt>
      <trkpt lat="51.623580000" lon="7.053720000">
        <ele>58</ele>
        <time>2021-04-28T11:04:42Z</time>
      </trkpt>
      <trkpt lat="51.623570000" lon="7.053520000">
        <ele>58</ele>
        <time>2021-04-28T11:04:44Z</time>
      </trkpt>
      <trkpt lat="51.623570000" lon="7.053310000">
        <ele>58</ele>
        <time>2021-04-28T11:04:46Z</time>
      </trkpt>
      <trkpt lat="51.623580000" lon="7.053210000">
        <ele>58</ele>
        <time>2021-04-28T11:04:47Z</time>
      </trkpt>
      <trkpt lat="51.623590000" lon="7.053000000">
        <ele>58</ele>
        <time>2021-04-28T11:04:49Z</time>
      </trkpt>
      <trkpt lat="51.623590000" lon="7.052900000">
        <ele>58</ele>
        <time>2021-04-28T11:04:50Z</time>
      </trkpt>
      <trkpt lat="51.623590000" lon="7.052800000">
        <ele>58</ele>
        <time>2021-04-28T11:04:51Z</time>
      </trkpt>
      <trkpt lat="51.623590000" lon="7.052690000">
        <ele>58</ele>
        <time>2021-04-28T11:04:52Z</time>
      </trkpt>
      <trkpt lat="51.623600000" lon="7.052600000">
        <ele>55</ele>
        <time>2021-04-28T11:04:53Z</time>
      </trkpt>
      <trkpt lat="51.623620000" lon="7.052390000">
        <ele>55</ele>
        <time>2021-04-28T11:04:55Z</time>
      </trkpt>
      <trkpt lat="51.623640000" lon="7.052180000">
        <ele>55</ele>
        <time>2021-04-28T11:04:57Z</time>
      </trkpt>
      <trkpt lat="51.623660000" lon="7.051970000">
        <ele>55</ele>
        <time>2021-04-28T11:04:59Z</time>
      </trkpt>
      <trkpt lat="51.623660000" lon="7.051860000">
        <ele>55</ele>
        <time>2021-04-28T11:05:00Z</time>
      </trkpt>
      <trkpt lat="51.623680000" lon="7.051640000">
        <ele>55</ele>
        <time>2021-04-28T11:05:02Z</time>
      </trkpt>
      <trkpt lat="51.623690000" lon="7.051440000">
        <ele>55</ele>
        <time>2021-04-28T11:05:04Z</time>
      </trkpt>
      <trkpt lat="51.623700000" lon="7.051230000">
        <ele>55</ele>
        <time>2021-04-28T11:05:06Z</time>
      </trkpt>
      <trkpt lat="51.623710000" lon="7.051130000">
        <ele>55</ele>
        <time>2021-04-28T11:05:07Z</time>
      </trkpt>
      <trkpt lat="51.623730000" lon="7.050930000">
        <ele>57</ele>
        <time>2021-04-28T11:05:09Z</time>
      </trkpt>
      <trkpt lat="51.623740000" lon="7.050740000">
        <ele>57</ele>
        <time>2021-04-28T11:05:11Z</time>
      </trkpt>
      <trkpt lat="51.623760000" lon="7.050670000">
        <ele>57</ele>
        <time>2021-04-28T11:05:12Z</time>
      </trkpt>
      <trkpt lat="51.623800000" lon="7.050590000">
        <ele>57</ele>
        <time>2021-04-28T11:05:14Z</time>
      </trkpt>
      <trkpt lat="51.623950000" lon="7.050630000">
        <ele>57</ele>
        <time>2021-04-28T11:05:17Z</time>
      </trkpt>
      <trkpt lat="51.624010000" lon="7.050660000">
        <ele>57</ele>
        <time>2021-04-28T11:05:18Z</time>
      </trkpt>
      <trkpt lat="51.624120000" lon="7.050700000">
        <ele>57</ele>
        <time>2021-04-28T11:05:20Z</time>
      </trkpt>
      <trkpt lat="51.624240000" lon="7.050740000">
        <ele>57</ele>
        <time>2021-04-28T11:05:22Z</time>
      </trkpt>
      <trkpt lat="51.624350000" lon="7.050790000">
        <ele>57</ele>
        <time>2021-04-28T11:05:24Z</time>
      </trkpt>
      <trkpt lat="51.624460000" lon="7.050850000">
        <ele>57</ele>
        <time>2021-04-28T11:05:26Z</time>
      </trkpt>
      <trkpt lat="51.624520000" lon="7.050880000">
        <ele>57</ele>
        <time>2021-04-28T11:05:27Z</time>
      </trkpt>
      <trkpt lat="51.624630000" lon="7.050940000">
        <ele>58</ele>
        <time>2021-04-28T11:05:29Z</time>
      </trkpt>
      <trkpt lat="51.624680000" lon="7.050980000">
        <ele>58</ele>
        <time>2021-04-28T11:05:30Z</time>
      </trkpt>
      <trkpt lat="51.624780000" lon="7.051060000">
        <ele>58</ele>
        <time>2021-04-28T11:05:32Z</time>
      </trkpt>
      <trkpt lat="51.624880000" lon="7.051160000">
        <ele>58</ele>
        <time>2021-04-28T11:05:34Z</time>
      </trkpt>
      <trkpt lat="51.624990000" lon="7.051260000">
        <ele>58</ele>
        <time>2021-04-28T11:05:36Z</time>
      </trkpt>
      <trkpt lat="51.625040000" lon="7.051310000">
        <ele>58</ele>
        <time>2021-04-28T11:05:37Z</time>
      </trkpt>
      <trkpt lat="51.625090000" lon="7.051360000">
        <ele>56</ele>
        <time>2021-04-28T11:05:38Z</time>
      </trkpt>
      <trkpt lat="51.625140000" lon="7.051410000">
        <ele>56</ele>
        <time>2021-04-28T11:05:39Z</time>
      </trkpt>
      <trkpt lat="51.625220000" lon="7.051500000">
        <ele>56</ele>
        <time>2021-04-28T11:05:41Z</time>
      </trkpt>
      <trkpt lat="51.625300000" lon="7.051600000">
        <ele>56</ele>
        <time>2021-04-28T11:05:43Z</time>
      </trkpt>
      <trkpt lat="51.625360000" lon="7.051570000">
        <ele>56</ele>
        <time>2021-04-28T11:05:45Z</time>
      </trkpt>
      <trkpt lat="51.625430000" lon="7.051570000">
        <ele>56</ele>
        <time>2021-04-28T11:05:47Z</time>
      </trkpt>
      <trkpt lat="51.625550000" lon="7.051580000">
        <ele>56</ele>
        <time>2021-04-28T11:05:50Z</time>
      </trkpt>
      <trkpt lat="51.625610000" lon="7.051570000">
        <ele>59</ele>
        <time>2021-04-28T11:05:52Z</time>
      </trkpt>
      <trkpt lat="51.625650000" lon="7.051570000">
        <ele>59</ele>
        <time>2021-04-28T11:05:54Z</time>
      </trkpt>
      <trkpt lat="51.625670000" lon="7.051460000">
        <ele>59</ele>
        <time>2021-04-28T11:05:57Z</time>
      </trkpt>
      <trkpt lat="51.625650000" lon="7.051350000">
        <ele>59</ele>
        <time>2021-04-28T11:05:59Z</time>
      </trkpt>
      <trkpt lat="51.625630000" lon="7.051240000">
        <ele>59</ele>
        <time>2021-04-28T11:06:01Z</time>
      </trkpt>
      <trkpt lat="51.625610000" lon="7.051140000">
        <ele>59</ele>
        <time>2021-04-28T11:06:03Z</time>
      </trkpt>
      <trkpt lat="51.625600000" lon="7.051040000">
        <ele>59</ele>
        <time>2021-04-28T11:06:05Z</time>
      </trkpt>
      <trkpt lat="51.625590000" lon="7.050950000">
        <ele>59</ele>
        <time>2021-04-28T11:06:07Z</time>
      </trkpt>
      <trkpt lat="51.625540000" lon="7.050810000">
        <ele>59</ele>
        <time>2021-04-28T11:06:10Z</time>
      </trkpt>
      <trkpt lat="51.625510000" lon="7.050740000">
        <ele>59</ele>
        <time>2021-04-28T11:06:12Z</time>
      </trkpt>
      <trkpt lat="51.625440000" lon="7.050720000">
        <ele>59</ele>
        <time>2021-04-28T11:06:13Z</time>
      </trkpt>
      <trkpt lat="51.625390000" lon="7.050700000">
        <ele>59</ele>
        <time>2021-04-28T11:06:14Z</time>
      </trkpt>
      <trkpt lat="51.625340000" lon="7.050670000">
        <ele>59</ele>
        <time>2021-04-28T11:06:15Z</time>
      </trkpt>
      <trkpt lat="51.625290000" lon="7.050620000">
        <ele>59</ele>
        <time>2021-04-28T11:06:17Z</time>
      </trkpt>
      <trkpt lat="51.625300000" lon="7.050530000">
        <ele>59</ele>
        <time>2021-04-28T11:06:19Z</time>
      </trkpt>
      <trkpt lat="51.625250000" lon="7.050510000">
        <ele>59</ele>
        <time>2021-04-28T11:07:00Z</time>
      </trkpt>
      <trkpt lat="51.625200000" lon="7.050490000">
        <ele>59</ele>
        <time>2021-04-28T11:07:12Z</time>
      </trkpt>
      <trkpt lat="51.625250000" lon="7.050480000">
        <ele>59</ele>
        <time>2021-04-28T11:08:20Z</time>
      </trkpt>
      <trkpt lat="51.625280000" lon="7.050410000">
        <ele>59</ele>
        <time>2021-04-28T11:10:19Z</time>
      </trkpt>
      <trkpt lat="51.625290000" lon="7.050340000">
        <ele>59</ele>
        <time>2021-04-28T11:10:21Z</time>
      </trkpt>
      <trkpt lat="51.625270000" lon="7.050220000">
        <ele>53</ele>
        <time>2021-04-28T11:11:35Z</time>
      </trkpt>
      <trkpt lat="51.625270000" lon="7.050050000">
        <ele>53</ele>
        <time>2021-04-28T11:11:38Z</time>
      </trkpt>
      <trkpt lat="51.625290000" lon="7.049980000">
        <ele>53</ele>
        <time>2021-04-28T11:11:39Z</time>
      </trkpt>
      <trkpt lat="51.625360000" lon="7.049890000">
        <ele>53</ele>
        <time>2021-04-28T11:11:41Z</time>
      </trkpt>
      <trkpt lat="51.625410000" lon="7.049810000">
        <ele>53</ele>
        <time>2021-04-28T11:11:43Z</time>
      </trkpt>
      <trkpt lat="51.625400000" lon="7.049670000">
        <ele>53</ele>
        <time>2021-04-28T11:11:45Z</time>
      </trkpt>
      <trkpt lat="51.625340000" lon="7.049530000">
        <ele>53</ele>
        <time>2021-04-28T11:11:47Z</time>
      </trkpt>
      <trkpt lat="51.625320000" lon="7.049470000">
        <ele>53</ele>
        <time>2021-04-28T11:11:48Z</time>
      </trkpt>
      <trkpt lat="51.625300000" lon="7.049400000">
        <ele>53</ele>
        <time>2021-04-28T11:11:49Z</time>
      </trkpt>
      <trkpt lat="51.625270000" lon="7.049250000">
        <ele>53</ele>
        <time>2021-04-28T11:11:51Z</time>
      </trkpt>
      <trkpt lat="51.625250000" lon="7.049060000">
        <ele>53</ele>
        <time>2021-04-28T11:11:53Z</time>
      </trkpt>
      <trkpt lat="51.625250000" lon="7.048840000">
        <ele>53</ele>
        <time>2021-04-28T11:11:55Z</time>
      </trkpt>
      <trkpt lat="51.625260000" lon="7.048640000">
        <ele>53</ele>
        <time>2021-04-28T11:11:57Z</time>
      </trkpt>
      <trkpt lat="51.625240000" lon="7.048530000">
        <ele>53</ele>
        <time>2021-04-28T11:11:58Z</time>
      </trkpt>
      <trkpt lat="51.625230000" lon="7.048430000">
        <ele>53</ele>
        <time>2021-04-28T11:11:59Z</time>
      </trkpt>
      <trkpt lat="51.625220000" lon="7.048340000">
        <ele>51</ele>
        <time>2021-04-28T11:12:00Z</time>
      </trkpt>
      <trkpt lat="51.625200000" lon="7.048140000">
        <ele>51</ele>
        <time>2021-04-28T11:12:02Z</time>
      </trkpt>
      <trkpt lat="51.625190000" lon="7.047940000">
        <ele>51</ele>
        <time>2021-04-28T11:12:04Z</time>
      </trkpt>
      <trkpt lat="51.625180000" lon="7.047830000">
        <ele>51</ele>
        <time>2021-04-28T11:12:05Z</time>
      </trkpt>
      <trkpt lat="51.625170000" lon="7.047730000">
        <ele>51</ele>
        <time>2021-04-28T11:12:06Z</time>
      </trkpt>
      <trkpt lat="51.625140000" lon="7.047520000">
        <ele>51</ele>
        <time>2021-04-28T11:12:08Z</time>
      </trkpt>
      <trkpt lat="51.625130000" lon="7.047420000">
        <ele>51</ele>
        <time>2021-04-28T11:12:09Z</time>
      </trkpt>
      <trkpt lat="51.625130000" lon="7.047310000">
        <ele>51</ele>
        <time>2021-04-28T11:12:10Z</time>
      </trkpt>
      <trkpt lat="51.625120000" lon="7.047090000">
        <ele>51</ele>
        <time>2021-04-28T11:12:12Z</time>
      </trkpt>
      <trkpt lat="51.625120000" lon="7.046990000">
        <ele>51</ele>
        <time>2021-04-28T11:12:13Z</time>
      </trkpt>
      <trkpt lat="51.625090000" lon="7.046780000">
        <ele>51</ele>
        <time>2021-04-28T11:12:15Z</time>
      </trkpt>
      <trkpt lat="51.625070000" lon="7.046560000">
        <ele>49</ele>
        <time>2021-04-28T11:12:17Z</time>
      </trkpt>
      <trkpt lat="51.625050000" lon="7.046350000">
        <ele>49</ele>
        <time>2021-04-28T11:12:19Z</time>
      </trkpt>
      <trkpt lat="51.625040000" lon="7.046240000">
        <ele>49</ele>
        <time>2021-04-28T11:12:20Z</time>
      </trkpt>
      <trkpt lat="51.625030000" lon="7.046140000">
        <ele>49</ele>
        <time>2021-04-28T11:12:21Z</time>
      </trkpt>
      <trkpt lat="51.625020000" lon="7.046040000">
        <ele>49</ele>
        <time>2021-04-28T11:12:22Z</time>
      </trkpt>
      <trkpt lat="51.625050000" lon="7.045940000">
        <ele>49</ele>
        <time>2021-04-28T11:12:23Z</time>
      </trkpt>
      <trkpt lat="51.625090000" lon="7.045870000">
        <ele>49</ele>
        <time>2021-04-28T11:12:24Z</time>
      </trkpt>
      <trkpt lat="51.625170000" lon="7.045720000">
        <ele>49</ele>
        <time>2021-04-28T11:12:26Z</time>
      </trkpt>
      <trkpt lat="51.625210000" lon="7.045650000">
        <ele>49</ele>
        <time>2021-04-28T11:12:27Z</time>
      </trkpt>
      <trkpt lat="51.625310000" lon="7.045540000">
        <ele>49</ele>
        <time>2021-04-28T11:12:29Z</time>
      </trkpt>
      <trkpt lat="51.625360000" lon="7.045490000">
        <ele>49</ele>
        <time>2021-04-28T11:12:30Z</time>
      </trkpt>
      <trkpt lat="51.625470000" lon="7.045380000">
        <ele>49</ele>
        <time>2021-04-28T11:12:32Z</time>
      </trkpt>
      <trkpt lat="51.625510000" lon="7.045330000">
        <ele>45</ele>
        <time>2021-04-28T11:12:33Z</time>
      </trkpt>
      <trkpt lat="51.625570000" lon="7.045260000">
        <ele>45</ele>
        <time>2021-04-28T11:12:35Z</time>
      </trkpt>
      <trkpt lat="51.625600000" lon="7.045200000">
        <ele>45</ele>
        <time>2021-04-28T11:12:36Z</time>
      </trkpt>
      <trkpt lat="51.625660000" lon="7.045040000">
        <ele>45</ele>
        <time>2021-04-28T11:12:37Z</time>
      </trkpt>
      <trkpt lat="51.625730000" lon="7.044900000">
        <ele>45</ele>
        <time>2021-04-28T11:12:39Z</time>
      </trkpt>
      <trkpt lat="51.625760000" lon="7.044820000">
        <ele>45</ele>
        <time>2021-04-28T11:12:40Z</time>
      </trkpt>
      <trkpt lat="51.625830000" lon="7.044680000">
        <ele>45</ele>
        <time>2021-04-28T11:12:42Z</time>
      </trkpt>
      <trkpt lat="51.625910000" lon="7.044530000">
        <ele>45</ele>
        <time>2021-04-28T11:12:44Z</time>
      </trkpt>
      <trkpt lat="51.625940000" lon="7.044450000">
        <ele>45</ele>
        <time>2021-04-28T11:12:45Z</time>
      </trkpt>
      <trkpt lat="51.626000000" lon="7.044320000">
        <ele>45</ele>
        <time>2021-04-28T11:12:47Z</time>
      </trkpt>
      <trkpt lat="51.626030000" lon="7.044230000">
        <ele>45</ele>
        <time>2021-04-28T11:12:48Z</time>
      </trkpt>
      <trkpt lat="51.626070000" lon="7.044160000">
        <ele>45</ele>
        <time>2021-04-28T11:12:49Z</time>
      </trkpt>
      <trkpt lat="51.626100000" lon="7.044080000">
        <ele>45</ele>
        <time>2021-04-28T11:12:50Z</time>
      </trkpt>
      <trkpt lat="51.626140000" lon="7.044010000">
        <ele>45</ele>
        <time>2021-04-28T11:12:51Z</time>
      </trkpt>
      <trkpt lat="51.626170000" lon="7.043930000">
        <ele>45</ele>
        <time>2021-04-28T11:12:52Z</time>
      </trkpt>
      <trkpt lat="51.626200000" lon="7.043860000">
        <ele>45</ele>
        <time>2021-04-28T11:12:53Z</time>
      </trkpt>
      <trkpt lat="51.626230000" lon="7.043790000">
        <ele>40</ele>
        <time>2021-04-28T11:12:54Z</time>
      </trkpt>
      <trkpt lat="51.626290000" lon="7.043650000">
        <ele>40</ele>
        <time>2021-04-28T11:12:56Z</time>
      </trkpt>
      <trkpt lat="51.626330000" lon="7.043580000">
        <ele>40</ele>
        <time>2021-04-28T11:12:57Z</time>
      </trkpt>
      <trkpt lat="51.626360000" lon="7.043500000">
        <ele>40</ele>
        <time>2021-04-28T11:12:58Z</time>
      </trkpt>
      <trkpt lat="51.626400000" lon="7.043430000">
        <ele>40</ele>
        <time>2021-04-28T11:12:59Z</time>
      </trkpt>
      <trkpt lat="51.626470000" lon="7.043280000">
        <ele>40</ele>
        <time>2021-04-28T11:13:01Z</time>
      </trkpt>
      <trkpt lat="51.626560000" lon="7.043170000">
        <ele>40</ele>
        <time>2021-04-28T11:13:03Z</time>
      </trkpt>
      <trkpt lat="51.626640000" lon="7.043030000">
        <ele>40</ele>
        <time>2021-04-28T11:13:05Z</time>
      </trkpt>
      <trkpt lat="51.626670000" lon="7.042940000">
        <ele>40</ele>
        <time>2021-04-28T11:13:06Z</time>
      </trkpt>
      <trkpt lat="51.626730000" lon="7.042790000">
        <ele>40</ele>
        <time>2021-04-28T11:13:08Z</time>
      </trkpt>
      <trkpt lat="51.626770000" lon="7.042720000">
        <ele>40</ele>
        <time>2021-04-28T11:13:09Z</time>
      </trkpt>
      <trkpt lat="51.626840000" lon="7.042590000">
        <ele>40</ele>
        <time>2021-04-28T11:13:11Z</time>
      </trkpt>
      <trkpt lat="51.626900000" lon="7.042440000">
        <ele>45</ele>
        <time>2021-04-28T11:13:13Z</time>
      </trkpt>
      <trkpt lat="51.626940000" lon="7.042370000">
        <ele>45</ele>
        <time>2021-04-28T11:13:14Z</time>
      </trkpt>
      <trkpt lat="51.627020000" lon="7.042240000">
        <ele>45</ele>
        <time>2021-04-28T11:13:16Z</time>
      </trkpt>
      <trkpt lat="51.627100000" lon="7.042100000">
        <ele>45</ele>
        <time>2021-04-28T11:13:18Z</time>
      </trkpt>
      <trkpt lat="51.627140000" lon="7.042040000">
        <ele>45</ele>
        <time>2021-04-28T11:13:19Z</time>
      </trkpt>
      <trkpt lat="51.627170000" lon="7.041970000">
        <ele>45</ele>
        <time>2021-04-28T11:13:20Z</time>
      </trkpt>
      <trkpt lat="51.627200000" lon="7.041900000">
        <ele>45</ele>
        <time>2021-04-28T11:13:21Z</time>
      </trkpt>
      <trkpt lat="51.627280000" lon="7.041760000">
        <ele>45</ele>
        <time>2021-04-28T11:13:23Z</time>
      </trkpt>
      <trkpt lat="51.627370000" lon="7.041610000">
        <ele>45</ele>
        <time>2021-04-28T11:13:25Z</time>
      </trkpt>
      <trkpt lat="51.627400000" lon="7.041540000">
        <ele>45</ele>
        <time>2021-04-28T11:13:26Z</time>
      </trkpt>
      <trkpt lat="51.627440000" lon="7.041470000">
        <ele>45</ele>
        <time>2021-04-28T11:13:27Z</time>
      </trkpt>
      <trkpt lat="51.627480000" lon="7.041400000">
        <ele>45</ele>
        <time>2021-04-28T11:13:28Z</time>
      </trkpt>
      <trkpt lat="51.627530000" lon="7.041330000">
        <ele>45</ele>
        <time>2021-04-28T11:13:29Z</time>
      </trkpt>
      <trkpt lat="51.627600000" lon="7.041180000">
        <ele>45</ele>
        <time>2021-04-28T11:13:31Z</time>
      </trkpt>
      <trkpt lat="51.627680000" lon="7.041020000">
        <ele>47</ele>
        <time>2021-04-28T11:13:33Z</time>
      </trkpt>
      <trkpt lat="51.627720000" lon="7.040940000">
        <ele>47</ele>
        <time>2021-04-28T11:13:34Z</time>
      </trkpt>
      <trkpt lat="51.627760000" lon="7.040870000">
        <ele>47</ele>
        <time>2021-04-28T11:13:35Z</time>
      </trkpt>
      <trkpt lat="51.627810000" lon="7.040790000">
        <ele>47</ele>
        <time>2021-04-28T11:13:36Z</time>
      </trkpt>
      <trkpt lat="51.627850000" lon="7.040710000">
        <ele>47</ele>
        <time>2021-04-28T11:13:37Z</time>
      </trkpt>
      <trkpt lat="51.627890000" lon="7.040630000">
        <ele>47</ele>
        <time>2021-04-28T11:13:38Z</time>
      </trkpt>
      <trkpt lat="51.627970000" lon="7.040480000">
        <ele>47</ele>
        <time>2021-04-28T11:13:40Z</time>
      </trkpt>
      <trkpt lat="51.628050000" lon="7.040320000">
        <ele>47</ele>
        <time>2021-04-28T11:13:42Z</time>
      </trkpt>
      <trkpt lat="51.628100000" lon="7.040240000">
        <ele>47</ele>
        <time>2021-04-28T11:13:43Z</time>
      </trkpt>
      <trkpt lat="51.628140000" lon="7.040160000">
        <ele>47</ele>
        <time>2021-04-28T11:13:44Z</time>
      </trkpt>
      <trkpt lat="51.628220000" lon="7.040000000">
        <ele>47</ele>
        <time>2021-04-28T11:13:46Z</time>
      </trkpt>
      <trkpt lat="51.628300000" lon="7.039850000">
        <ele>47</ele>
        <time>2021-04-28T11:13:48Z</time>
      </trkpt>
      <trkpt lat="51.628350000" lon="7.039770000">
        <ele>47</ele>
        <time>2021-04-28T11:13:49Z</time>
      </trkpt>
      <trkpt lat="51.628390000" lon="7.039690000">
        <ele>47</ele>
        <time>2021-04-28T11:13:50Z</time>
      </trkpt>
      <trkpt lat="51.628420000" lon="7.039610000">
        <ele>47</ele>
        <time>2021-04-28T11:13:51Z</time>
      </trkpt>
      <trkpt lat="51.628500000" lon="7.039460000">
        <ele>48</ele>
        <time>2021-04-28T11:13:53Z</time>
      </trkpt>
      <trkpt lat="51.628550000" lon="7.039380000">
        <ele>48</ele>
        <time>2021-04-28T11:13:54Z</time>
      </trkpt>
      <trkpt lat="51.628630000" lon="7.039220000">
        <ele>48</ele>
        <time>2021-04-28T11:13:56Z</time>
      </trkpt>
      <trkpt lat="51.628680000" lon="7.039150000">
        <ele>48</ele>
        <time>2021-04-28T11:13:57Z</time>
      </trkpt>
      <trkpt lat="51.628720000" lon="7.039070000">
        <ele>48</ele>
        <time>2021-04-28T11:13:58Z</time>
      </trkpt>
      <trkpt lat="51.628760000" lon="7.038990000">
        <ele>48</ele>
        <time>2021-04-28T11:13:59Z</time>
      </trkpt>
      <trkpt lat="51.628860000" lon="7.038830000">
        <ele>48</ele>
        <time>2021-04-28T11:14:01Z</time>
      </trkpt>
      <trkpt lat="51.628900000" lon="7.038740000">
        <ele>48</ele>
        <time>2021-04-28T11:14:02Z</time>
      </trkpt>
      <trkpt lat="51.628980000" lon="7.038600000">
        <ele>48</ele>
        <time>2021-04-28T11:14:04Z</time>
      </trkpt>
      <trkpt lat="51.629050000" lon="7.038450000">
        <ele>48</ele>
        <time>2021-04-28T11:14:06Z</time>
      </trkpt>
      <trkpt lat="51.629090000" lon="7.038360000">
        <ele>48</ele>
        <time>2021-04-28T11:14:07Z</time>
      </trkpt>
      <trkpt lat="51.629170000" lon="7.038200000">
        <ele>48</ele>
        <time>2021-04-28T11:14:09Z</time>
      </trkpt>
      <trkpt lat="51.629250000" lon="7.038040000">
        <ele>48</ele>
        <time>2021-04-28T11:14:11Z</time>
      </trkpt>
      <trkpt lat="51.629290000" lon="7.037950000">
        <ele>49</ele>
        <time>2021-04-28T11:14:12Z</time>
      </trkpt>
      <trkpt lat="51.629370000" lon="7.037780000">
        <ele>49</ele>
        <time>2021-04-28T11:14:14Z</time>
      </trkpt>
      <trkpt lat="51.629390000" lon="7.037700000">
        <ele>49</ele>
        <time>2021-04-28T11:14:15Z</time>
      </trkpt>
      <trkpt lat="51.629450000" lon="7.037540000">
        <ele>49</ele>
        <time>2021-04-28T11:14:17Z</time>
      </trkpt>
      <trkpt lat="51.629470000" lon="7.037450000">
        <ele>49</ele>
        <time>2021-04-28T11:14:18Z</time>
      </trkpt>
      <trkpt lat="51.629520000" lon="7.037260000">
        <ele>49</ele>
        <time>2021-04-28T11:14:20Z</time>
      </trkpt>
      <trkpt lat="51.629530000" lon="7.037160000">
        <ele>49</ele>
        <time>2021-04-28T11:14:21Z</time>
      </trkpt>
      <trkpt lat="51.629550000" lon="7.037060000">
        <ele>49</ele>
        <time>2021-04-28T11:14:22Z</time>
      </trkpt>
      <trkpt lat="51.629560000" lon="7.036970000">
        <ele>49</ele>
        <time>2021-04-28T11:14:23Z</time>
      </trkpt>
      <trkpt lat="51.629570000" lon="7.036850000">
        <ele>49</ele>
        <time>2021-04-28T11:14:25Z</time>
      </trkpt>
      <trkpt lat="51.629580000" lon="7.036660000">
        <ele>49</ele>
        <time>2021-04-28T11:14:27Z</time>
      </trkpt>
      <trkpt lat="51.629580000" lon="7.036480000">
        <ele>49</ele>
        <time>2021-04-28T11:14:29Z</time>
      </trkpt>
      <trkpt lat="51.629580000" lon="7.036310000">
        <ele>49</ele>
        <time>2021-04-28T11:14:30Z</time>
      </trkpt>
      <trkpt lat="51.629580000" lon="7.036200000">
        <ele>49</ele>
        <time>2021-04-28T11:14:31Z</time>
      </trkpt>
      <trkpt lat="51.629590000" lon="7.035980000">
        <ele>49</ele>
        <time>2021-04-28T11:14:33Z</time>
      </trkpt>
      <trkpt lat="51.629590000" lon="7.035880000">
        <ele>49</ele>
        <time>2021-04-28T11:14:35Z</time>
      </trkpt>
      <trkpt lat="51.629580000" lon="7.035720000">
        <ele>49</ele>
        <time>2021-04-28T11:14:36Z</time>
      </trkpt>
      <trkpt lat="51.629580000" lon="7.035570000">
        <ele>43</ele>
        <time>2021-04-28T11:14:38Z</time>
      </trkpt>
      <trkpt lat="51.629570000" lon="7.035380000">
        <ele>43</ele>
        <time>2021-04-28T11:14:40Z</time>
      </trkpt>
      <trkpt lat="51.629560000" lon="7.035280000">
        <ele>43</ele>
        <time>2021-04-28T11:14:41Z</time>
      </trkpt>
      <trkpt lat="51.629560000" lon="7.035070000">
        <ele>43</ele>
        <time>2021-04-28T11:14:43Z</time>
      </trkpt>
      <trkpt lat="51.629540000" lon="7.034860000">
        <ele>43</ele>
        <time>2021-04-28T11:14:45Z</time>
      </trkpt>
      <trkpt lat="51.629520000" lon="7.034620000">
        <ele>43</ele>
        <time>2021-04-28T11:14:47Z</time>
      </trkpt>
      <trkpt lat="51.629500000" lon="7.034390000">
        <ele>43</ele>
        <time>2021-04-28T11:14:49Z</time>
      </trkpt>
      <trkpt lat="51.629490000" lon="7.034190000">
        <ele>43</ele>
        <time>2021-04-28T11:14:50Z</time>
      </trkpt>
      <trkpt lat="51.629480000" lon="7.033950000">
        <ele>43</ele>
        <time>2021-04-28T11:14:52Z</time>
      </trkpt>
      <trkpt lat="51.629490000" lon="7.033790000">
        <ele>43</ele>
        <time>2021-04-28T11:14:54Z</time>
      </trkpt>
      <trkpt lat="51.629490000" lon="7.033680000">
        <ele>43</ele>
        <time>2021-04-28T11:14:55Z</time>
      </trkpt>
      <trkpt lat="51.629470000" lon="7.033470000">
        <ele>43</ele>
        <time>2021-04-28T11:14:56Z</time>
      </trkpt>
      <trkpt lat="51.629460000" lon="7.033190000">
        <ele>43</ele>
        <time>2021-04-28T11:14:59Z</time>
      </trkpt>
      <trkpt lat="51.629520000" lon="7.033080000">
        <ele>43</ele>
        <time>2021-04-28T11:15:01Z</time>
      </trkpt>
      <trkpt lat="51.629580000" lon="7.033060000">
        <ele>43</ele>
        <time>2021-04-28T11:15:02Z</time>
      </trkpt>
      <trkpt lat="51.629690000" lon="7.033060000">
        <ele>43</ele>
        <time>2021-04-28T11:15:03Z</time>
      </trkpt>
      <trkpt lat="51.629780000" lon="7.033050000">
        <ele>43</ele>
        <time>2021-04-28T11:15:05Z</time>
      </trkpt>
      <trkpt lat="51.629850000" lon="7.033060000">
        <ele>43</ele>
        <time>2021-04-28T11:15:06Z</time>
      </trkpt>
      <trkpt lat="51.629990000" lon="7.033080000">
        <ele>43</ele>
        <time>2021-04-28T11:15:08Z</time>
      </trkpt>
      <trkpt lat="51.630130000" lon="7.033070000">
        <ele>43</ele>
        <time>2021-04-28T11:15:10Z</time>
      </trkpt>
      <trkpt lat="51.630230000" lon="7.033060000">
        <ele>45</ele>
        <time>2021-04-28T11:15:11Z</time>
      </trkpt>
      <trkpt lat="51.630380000" lon="7.033070000">
        <ele>45</ele>
        <time>2021-04-28T11:15:14Z</time>
      </trkpt>
      <trkpt lat="51.630470000" lon="7.033070000">
        <ele>45</ele>
        <time>2021-04-28T11:15:15Z</time>
      </trkpt>
      <trkpt lat="51.630540000" lon="7.033060000">
        <ele>45</ele>
        <time>2021-04-28T11:15:17Z</time>
      </trkpt>
      <trkpt lat="51.630650000" lon="7.033070000">
        <ele>45</ele>
        <time>2021-04-28T11:15:19Z</time>
      </trkpt>
      <trkpt lat="51.630760000" lon="7.033070000">
        <ele>45</ele>
        <time>2021-04-28T11:15:21Z</time>
      </trkpt>
      <trkpt lat="51.630870000" lon="7.033070000">
        <ele>45</ele>
        <time>2021-04-28T11:15:23Z</time>
      </trkpt>
      <trkpt lat="51.630920000" lon="7.033060000">
        <ele>45</ele>
        <time>2021-04-28T11:15:24Z</time>
      </trkpt>
      <trkpt lat="51.630980000" lon="7.033060000">
        <ele>45</ele>
        <time>2021-04-28T11:15:25Z</time>
      </trkpt>
      <trkpt lat="51.631090000" lon="7.033070000">
        <ele>45</ele>
        <time>2021-04-28T11:15:27Z</time>
      </trkpt>
      <trkpt lat="51.631200000" lon="7.033070000">
        <ele>45</ele>
        <time>2021-04-28T11:15:29Z</time>
      </trkpt>
      <trkpt lat="51.631300000" lon="7.033070000">
        <ele>45</ele>
        <time>2021-04-28T11:15:31Z</time>
      </trkpt>
      <trkpt lat="51.631400000" lon="7.033070000">
        <ele>45</ele>
        <time>2021-04-28T11:15:32Z</time>
      </trkpt>
      <trkpt lat="51.631460000" lon="7.033060000">
        <ele>49</ele>
        <time>2021-04-28T11:15:33Z</time>
      </trkpt>
      <trkpt lat="51.631530000" lon="7.033040000">
        <ele>49</ele>
        <time>2021-04-28T11:15:35Z</time>
      </trkpt>
      <trkpt lat="51.631580000" lon="7.033030000">
        <ele>49</ele>
        <time>2021-04-28T11:15:36Z</time>
      </trkpt>
      <trkpt lat="51.631660000" lon="7.033010000">
        <ele>49</ele>
        <time>2021-04-28T11:15:37Z</time>
      </trkpt>
      <trkpt lat="51.631740000" lon="7.032980000">
        <ele>49</ele>
        <time>2021-04-28T11:15:39Z</time>
      </trkpt>
      <trkpt lat="51.631830000" lon="7.032950000">
        <ele>49</ele>
        <time>2021-04-28T11:15:40Z</time>
      </trkpt>
      <trkpt lat="51.631910000" lon="7.032910000">
        <ele>49</ele>
        <time>2021-04-28T11:15:42Z</time>
      </trkpt>
      <trkpt lat="51.632020000" lon="7.032860000">
        <ele>49</ele>
        <time>2021-04-28T11:15:44Z</time>
      </trkpt>
      <trkpt lat="51.632110000" lon="7.032820000">
        <ele>49</ele>
        <time>2021-04-28T11:15:45Z</time>
      </trkpt>
      <trkpt lat="51.632190000" lon="7.032790000">
        <ele>49</ele>
        <time>2021-04-28T11:15:47Z</time>
      </trkpt>
      <trkpt lat="51.632240000" lon="7.032760000">
        <ele>49</ele>
        <time>2021-04-28T11:15:48Z</time>
      </trkpt>
      <trkpt lat="51.632350000" lon="7.032710000">
        <ele>49</ele>
        <time>2021-04-28T11:15:50Z</time>
      </trkpt>
      <trkpt lat="51.632410000" lon="7.032680000">
        <ele>49</ele>
        <time>2021-04-28T11:15:51Z</time>
      </trkpt>
      <trkpt lat="51.632530000" lon="7.032630000">
        <ele>49</ele>
        <time>2021-04-28T11:15:52Z</time>
      </trkpt>
      <trkpt lat="51.632640000" lon="7.032580000">
        <ele>41</ele>
        <time>2021-04-28T11:15:54Z</time>
      </trkpt>
      <trkpt lat="51.632720000" lon="7.032540000">
        <ele>41</ele>
        <time>2021-04-28T11:15:56Z</time>
      </trkpt>
      <trkpt lat="51.632830000" lon="7.032500000">
        <ele>41</ele>
        <time>2021-04-28T11:15:58Z</time>
      </trkpt>
      <trkpt lat="51.632950000" lon="7.032450000">
        <ele>41</ele>
        <time>2021-04-28T11:16:00Z</time>
      </trkpt>
      <trkpt lat="51.633010000" lon="7.032430000">
        <ele>41</ele>
        <time>2021-04-28T11:16:01Z</time>
      </trkpt>
      <trkpt lat="51.633120000" lon="7.032380000">
        <ele>41</ele>
        <time>2021-04-28T11:16:03Z</time>
      </trkpt>
      <trkpt lat="51.633180000" lon="7.032370000">
        <ele>41</ele>
        <time>2021-04-28T11:16:04Z</time>
      </trkpt>
      <trkpt lat="51.633310000" lon="7.032320000">
        <ele>41</ele>
        <time>2021-04-28T11:16:06Z</time>
      </trkpt>
      <trkpt lat="51.633430000" lon="7.032280000">
        <ele>41</ele>
        <time>2021-04-28T11:16:08Z</time>
      </trkpt>
      <trkpt lat="51.633490000" lon="7.032250000">
        <ele>41</ele>
        <time>2021-04-28T11:16:09Z</time>
      </trkpt>
      <trkpt lat="51.633610000" lon="7.032150000">
        <ele>41</ele>
        <time>2021-04-28T11:16:11Z</time>
      </trkpt>
      <trkpt lat="51.633650000" lon="7.031960000">
        <ele>41</ele>
        <time>2021-04-28T11:16:12Z</time>
      </trkpt>
      <trkpt lat="51.633670000" lon="7.031770000">
        <ele>41</ele>
        <time>2021-04-28T11:16:14Z</time>
      </trkpt>
      <trkpt lat="51.633670000" lon="7.031630000">
        <ele>41</ele>
        <time>2021-04-28T11:16:16Z</time>
      </trkpt>
      <trkpt lat="51.633690000" lon="7.031450000">
        <ele>39</ele>
        <time>2021-04-28T11:16:17Z</time>
      </trkpt>
      <trkpt lat="51.633710000" lon="7.031230000">
        <ele>39</ele>
        <time>2021-04-28T11:16:19Z</time>
      </trkpt>
      <trkpt lat="51.633730000" lon="7.031120000">
        <ele>39</ele>
        <time>2021-04-28T11:16:20Z</time>
      </trkpt>
      <trkpt lat="51.633740000" lon="7.031010000">
        <ele>39</ele>
        <time>2021-04-28T11:16:21Z</time>
      </trkpt>
      <trkpt lat="51.633760000" lon="7.030790000">
        <ele>39</ele>
        <time>2021-04-28T11:16:23Z</time>
      </trkpt>
      <trkpt lat="51.633770000" lon="7.030680000">
        <ele>39</ele>
        <time>2021-04-28T11:16:24Z</time>
      </trkpt>
      <trkpt lat="51.633810000" lon="7.030450000">
        <ele>39</ele>
        <time>2021-04-28T11:16:26Z</time>
      </trkpt>
      <trkpt lat="51.633830000" lon="7.030220000">
        <ele>39</ele>
        <time>2021-04-28T11:16:28Z</time>
      </trkpt>
      <trkpt lat="51.633840000" lon="7.030100000">
        <ele>39</ele>
        <time>2021-04-28T11:16:29Z</time>
      </trkpt>
      <trkpt lat="51.633850000" lon="7.030000000">
        <ele>39</ele>
        <time>2021-04-28T11:16:30Z</time>
      </trkpt>
      <trkpt lat="51.633850000" lon="7.029770000">
        <ele>40</ele>
        <time>2021-04-28T11:16:32Z</time>
      </trkpt>
      <trkpt lat="51.633850000" lon="7.029560000">
        <ele>40</ele>
        <time>2021-04-28T11:16:34Z</time>
      </trkpt>
      <trkpt lat="51.633850000" lon="7.029450000">
        <ele>40</ele>
        <time>2021-04-28T11:16:35Z</time>
      </trkpt>
      <trkpt lat="51.633850000" lon="7.029230000">
        <ele>40</ele>
        <time>2021-04-28T11:16:37Z</time>
      </trkpt>
      <trkpt lat="51.633850000" lon="7.029020000">
        <ele>40</ele>
        <time>2021-04-28T11:16:39Z</time>
      </trkpt>
      <trkpt lat="51.633840000" lon="7.028920000">
        <ele>40</ele>
        <time>2021-04-28T11:16:40Z</time>
      </trkpt>
      <trkpt lat="51.633840000" lon="7.028820000">
        <ele>40</ele>
        <time>2021-04-28T11:16:41Z</time>
      </trkpt>
      <trkpt lat="51.633850000" lon="7.028640000">
        <ele>40</ele>
        <time>2021-04-28T11:16:43Z</time>
      </trkpt>
      <trkpt lat="51.633850000" lon="7.028530000">
        <ele>40</ele>
        <time>2021-04-28T11:16:44Z</time>
      </trkpt>
      <trkpt lat="51.633850000" lon="7.028430000">
        <ele>40</ele>
        <time>2021-04-28T11:16:45Z</time>
      </trkpt>
      <trkpt lat="51.633840000" lon="7.028330000">
        <ele>40</ele>
        <time>2021-04-28T11:16:46Z</time>
      </trkpt>
      <trkpt lat="51.633840000" lon="7.028210000">
        <ele>40</ele>
        <time>2021-04-28T11:16:47Z</time>
      </trkpt>
      <trkpt lat="51.633830000" lon="7.028010000">
        <ele>40</ele>
        <time>2021-04-28T11:16:49Z</time>
      </trkpt>
      <trkpt lat="51.633830000" lon="7.027910000">
        <ele>39</ele>
        <time>2021-04-28T11:16:50Z</time>
      </trkpt>
      <trkpt lat="51.633830000" lon="7.027810000">
        <ele>39</ele>
        <time>2021-04-28T11:16:51Z</time>
      </trkpt>
      <trkpt lat="51.633820000" lon="7.027720000">
        <ele>39</ele>
        <time>2021-04-28T11:16:52Z</time>
      </trkpt>
      <trkpt lat="51.633820000" lon="7.027550000">
        <ele>39</ele>
        <time>2021-04-28T11:16:54Z</time>
      </trkpt>
      <trkpt lat="51.633830000" lon="7.027370000">
        <ele>39</ele>
        <time>2021-04-28T11:16:56Z</time>
      </trkpt>
      <trkpt lat="51.633820000" lon="7.027270000">
        <ele>39</ele>
        <time>2021-04-28T11:16:57Z</time>
      </trkpt>
      <trkpt lat="51.633820000" lon="7.027170000">
        <ele>39</ele>
        <time>2021-04-28T11:16:58Z</time>
      </trkpt>
      <trkpt lat="51.633810000" lon="7.026980000">
        <ele>39</ele>
        <time>2021-04-28T11:17:00Z</time>
      </trkpt>
      <trkpt lat="51.633810000" lon="7.026880000">
        <ele>39</ele>
        <time>2021-04-28T11:17:01Z</time>
      </trkpt>
      <trkpt lat="51.633810000" lon="7.026790000">
        <ele>39</ele>
        <time>2021-04-28T11:17:02Z</time>
      </trkpt>
      <trkpt lat="51.633810000" lon="7.026580000">
        <ele>39</ele>
        <time>2021-04-28T11:17:04Z</time>
      </trkpt>
      <trkpt lat="51.633820000" lon="7.026490000">
        <ele>39</ele>
        <time>2021-04-28T11:17:05Z</time>
      </trkpt>
      <trkpt lat="51.633830000" lon="7.026280000">
        <ele>39</ele>
        <time>2021-04-28T11:17:07Z</time>
      </trkpt>
      <trkpt lat="51.633840000" lon="7.026180000">
        <ele>39</ele>
        <time>2021-04-28T11:17:08Z</time>
      </trkpt>
      <trkpt lat="51.633840000" lon="7.026080000">
        <ele>39</ele>
        <time>2021-04-28T11:17:09Z</time>
      </trkpt>
      <trkpt lat="51.633870000" lon="7.025890000">
        <ele>39</ele>
        <time>2021-04-28T11:17:11Z</time>
      </trkpt>
      <trkpt lat="51.633890000" lon="7.025800000">
        <ele>39</ele>
        <time>2021-04-28T11:17:12Z</time>
      </trkpt>
      <trkpt lat="51.633950000" lon="7.025630000">
        <ele>39</ele>
        <time>2021-04-28T11:17:14Z</time>
      </trkpt>
      <trkpt lat="51.634020000" lon="7.025480000">
        <ele>39</ele>
        <time>2021-04-28T11:17:16Z</time>
      </trkpt>
      <trkpt lat="51.634060000" lon="7.025400000">
        <ele>39</ele>
        <time>2021-04-28T11:17:17Z</time>
      </trkpt>
      <trkpt lat="51.634110000" lon="7.025340000">
        <ele>39</ele>
        <time>2021-04-28T11:17:18Z</time>
      </trkpt>
      <trkpt lat="51.634200000" lon="7.025220000">
        <ele>39</ele>
        <time>2021-04-28T11:17:20Z</time>
      </trkpt>
      <trkpt lat="51.634250000" lon="7.025160000">
        <ele>39</ele>
        <time>2021-04-28T11:17:21Z</time>
      </trkpt>
      <trkpt lat="51.634350000" lon="7.025050000">
        <ele>39</ele>
        <time>2021-04-28T11:17:23Z</time>
      </trkpt>
      <trkpt lat="51.634400000" lon="7.025000000">
        <ele>39</ele>
        <time>2021-04-28T11:17:24Z</time>
      </trkpt>
      <trkpt lat="51.634500000" lon="7.024900000">
        <ele>39</ele>
        <time>2021-04-28T11:17:26Z</time>
      </trkpt>
      <trkpt lat="51.634550000" lon="7.024860000">
        <ele>39</ele>
        <time>2021-04-28T11:17:27Z</time>
      </trkpt>
      <trkpt lat="51.634650000" lon="7.024760000">
        <ele>39</ele>
        <time>2021-04-28T11:17:29Z</time>
      </trkpt>
      <trkpt lat="51.634770000" lon="7.024640000">
        <ele>45</ele>
        <time>2021-04-28T11:17:32Z</time>
      </trkpt>
      <trkpt lat="51.634880000" lon="7.024520000">
        <ele>45</ele>
        <time>2021-04-28T11:17:34Z</time>
      </trkpt>
      <trkpt lat="51.634980000" lon="7.024430000">
        <ele>45</ele>
        <time>2021-04-28T11:17:35Z</time>
      </trkpt>
      <trkpt lat="51.635080000" lon="7.024330000">
        <ele>45</ele>
        <time>2021-04-28T11:17:37Z</time>
      </trkpt>
      <trkpt lat="51.635150000" lon="7.024260000">
        <ele>45</ele>
        <time>2021-04-28T11:17:39Z</time>
      </trkpt>
      <trkpt lat="51.635230000" lon="7.024180000">
        <ele>45</ele>
        <time>2021-04-28T11:17:40Z</time>
      </trkpt>
      <trkpt lat="51.635270000" lon="7.024130000">
        <ele>45</ele>
        <time>2021-04-28T11:17:41Z</time>
      </trkpt>
      <trkpt lat="51.635340000" lon="7.024060000">
        <ele>45</ele>
        <time>2021-04-28T11:17:43Z</time>
      </trkpt>
      <trkpt lat="51.635430000" lon="7.023970000">
        <ele>45</ele>
        <time>2021-04-28T11:17:44Z</time>
      </trkpt>
      <trkpt lat="51.635500000" lon="7.023910000">
        <ele>45</ele>
        <time>2021-04-28T11:17:46Z</time>
      </trkpt>
      <trkpt lat="51.635590000" lon="7.023810000">
        <ele>45</ele>
        <time>2021-04-28T11:17:48Z</time>
      </trkpt>
      <trkpt lat="51.635690000" lon="7.023710000">
        <ele>45</ele>
        <time>2021-04-28T11:17:49Z</time>
      </trkpt>
      <trkpt lat="51.635760000" lon="7.023650000">
        <ele>45</ele>
        <time>2021-04-28T11:17:51Z</time>
      </trkpt>
      <trkpt lat="51.635800000" lon="7.023600000">
        <ele>45</ele>
        <time>2021-04-28T11:17:52Z</time>
      </trkpt>
      <trkpt lat="51.635850000" lon="7.023550000">
        <ele>42</ele>
        <time>2021-04-28T11:17:53Z</time>
      </trkpt>
      <trkpt lat="51.635940000" lon="7.023460000">
        <ele>42</ele>
        <time>2021-04-28T11:17:55Z</time>
      </trkpt>
      <trkpt lat="51.636050000" lon="7.023370000">
        <ele>42</ele>
        <time>2021-04-28T11:17:56Z</time>
      </trkpt>
      <trkpt lat="51.636140000" lon="7.023260000">
        <ele>42</ele>
        <time>2021-04-28T11:17:58Z</time>
      </trkpt>
      <trkpt lat="51.636210000" lon="7.023200000">
        <ele>42</ele>
        <time>2021-04-28T11:18:00Z</time>
      </trkpt>
      <trkpt lat="51.636310000" lon="7.023090000">
        <ele>42</ele>
        <time>2021-04-28T11:18:02Z</time>
      </trkpt>
      <trkpt lat="51.636360000" lon="7.023030000">
        <ele>42</ele>
        <time>2021-04-28T11:18:03Z</time>
      </trkpt>
      <trkpt lat="51.636400000" lon="7.022970000">
        <ele>42</ele>
        <time>2021-04-28T11:18:04Z</time>
      </trkpt>
      <trkpt lat="51.636500000" lon="7.022860000">
        <ele>42</ele>
        <time>2021-04-28T11:18:06Z</time>
      </trkpt>
      <trkpt lat="51.636550000" lon="7.022810000">
        <ele>42</ele>
        <time>2021-04-28T11:18:07Z</time>
      </trkpt>
      <trkpt lat="51.636610000" lon="7.022780000">
        <ele>42</ele>
        <time>2021-04-28T11:18:08Z</time>
      </trkpt>
      <trkpt lat="51.636710000" lon="7.022690000">
        <ele>42</ele>
        <time>2021-04-28T11:18:10Z</time>
      </trkpt>
      <trkpt lat="51.636760000" lon="7.022630000">
        <ele>42</ele>
        <time>2021-04-28T11:18:11Z</time>
      </trkpt>
      <trkpt lat="51.636880000" lon="7.022510000">
        <ele>42</ele>
        <time>2021-04-28T11:18:13Z</time>
      </trkpt>
      <trkpt lat="51.636970000" lon="7.022410000">
        <ele>42</ele>
        <time>2021-04-28T11:18:15Z</time>
      </trkpt>
      <trkpt lat="51.637070000" lon="7.022320000">
        <ele>42</ele>
        <time>2021-04-28T11:18:16Z</time>
      </trkpt>
      <trkpt lat="51.637170000" lon="7.022220000">
        <ele>42</ele>
        <time>2021-04-28T11:18:18Z</time>
      </trkpt>
      <trkpt lat="51.637230000" lon="7.022160000">
        <ele>42</ele>
        <time>2021-04-28T11:18:20Z</time>
      </trkpt>
      <trkpt lat="51.637270000" lon="7.022100000">
        <ele>42</ele>
        <time>2021-04-28T11:18:21Z</time>
      </trkpt>
      <trkpt lat="51.637360000" lon="7.021990000">
        <ele>42</ele>
        <time>2021-04-28T11:18:23Z</time>
      </trkpt>
      <trkpt lat="51.637450000" lon="7.021860000">
        <ele>42</ele>
        <time>2021-04-28T11:18:25Z</time>
      </trkpt>
      <trkpt lat="51.637530000" lon="7.021710000">
        <ele>42</ele>
        <time>2021-04-28T11:18:27Z</time>
      </trkpt>
      <trkpt lat="51.637560000" lon="7.021640000">
        <ele>42</ele>
        <time>2021-04-28T11:18:28Z</time>
      </trkpt>
      <trkpt lat="51.637600000" lon="7.021550000">
        <ele>42</ele>
        <time>2021-04-28T11:18:29Z</time>
      </trkpt>
      <trkpt lat="51.637670000" lon="7.021380000">
        <ele>42</ele>
        <time>2021-04-28T11:18:31Z</time>
      </trkpt>
      <trkpt lat="51.637750000" lon="7.021210000">
        <ele>42</ele>
        <time>2021-04-28T11:18:33Z</time>
      </trkpt>
      <trkpt lat="51.637780000" lon="7.021130000">
        <ele>42</ele>
        <time>2021-04-28T11:18:34Z</time>
      </trkpt>
      <trkpt lat="51.637820000" lon="7.021040000">
        <ele>42</ele>
        <time>2021-04-28T11:18:35Z</time>
      </trkpt>
      <trkpt lat="51.637850000" lon="7.020970000">
        <ele>43</ele>
        <time>2021-04-28T11:18:36Z</time>
      </trkpt>
      <trkpt lat="51.637910000" lon="7.020820000">
        <ele>43</ele>
        <time>2021-04-28T11:18:37Z</time>
      </trkpt>
      <trkpt lat="51.637980000" lon="7.020660000">
        <ele>43</ele>
        <time>2021-04-28T11:18:39Z</time>
      </trkpt>
      <trkpt lat="51.638020000" lon="7.020560000">
        <ele>43</ele>
        <time>2021-04-28T11:18:41Z</time>
      </trkpt>
      <trkpt lat="51.638090000" lon="7.020390000">
        <ele>43</ele>
        <time>2021-04-28T11:18:43Z</time>
      </trkpt>
      <trkpt lat="51.638120000" lon="7.020310000">
        <ele>43</ele>
        <time>2021-04-28T11:18:44Z</time>
      </trkpt>
      <trkpt lat="51.638190000" lon="7.020140000">
        <ele>43</ele>
        <time>2021-04-28T11:18:46Z</time>
      </trkpt>
      <trkpt lat="51.638220000" lon="7.020060000">
        <ele>43</ele>
        <time>2021-04-28T11:18:47Z</time>
      </trkpt>
      <trkpt lat="51.638290000" lon="7.019910000">
        <ele>43</ele>
        <time>2021-04-28T11:18:49Z</time>
      </trkpt>
      <trkpt lat="51.638350000" lon="7.019750000">
        <ele>43</ele>
        <time>2021-04-28T11:18:51Z</time>
      </trkpt>
      <trkpt lat="51.638420000" lon="7.019610000">
        <ele>43</ele>
        <time>2021-04-28T11:18:53Z</time>
      </trkpt>
      <trkpt lat="51.638460000" lon="7.019520000">
        <ele>43</ele>
        <time>2021-04-28T11:18:55Z</time>
      </trkpt>
      <trkpt lat="51.638480000" lon="7.019450000">
        <ele>43</ele>
        <time>2021-04-28T11:18:56Z</time>
      </trkpt>
      <trkpt lat="51.638550000" lon="7.019290000">
        <ele>43</ele>
        <time>2021-04-28T11:18:58Z</time>
      </trkpt>
      <trkpt lat="51.638610000" lon="7.019140000">
        <ele>43</ele>
        <time>2021-04-28T11:18:59Z</time>
      </trkpt>
      <trkpt lat="51.638700000" lon="7.018920000">
        <ele>43</ele>
        <time>2021-04-28T11:19:02Z</time>
      </trkpt>
      <trkpt lat="51.638770000" lon="7.018740000">
        <ele>43</ele>
        <time>2021-04-28T11:19:04Z</time>
      </trkpt>
      <trkpt lat="51.638800000" lon="7.018650000">
        <ele>43</ele>
        <time>2021-04-28T11:19:05Z</time>
      </trkpt>
      <trkpt lat="51.638870000" lon="7.018500000">
        <ele>43</ele>
        <time>2021-04-28T11:19:07Z</time>
      </trkpt>
      <trkpt lat="51.638940000" lon="7.018310000">
        <ele>43</ele>
        <time>2021-04-28T11:19:09Z</time>
      </trkpt>
      <trkpt lat="51.638970000" lon="7.018220000">
        <ele>43</ele>
        <time>2021-04-28T11:19:10Z</time>
      </trkpt>
      <trkpt lat="51.639020000" lon="7.018140000">
        <ele>43</ele>
        <time>2021-04-28T11:19:11Z</time>
      </trkpt>
      <trkpt lat="51.639090000" lon="7.017980000">
        <ele>43</ele>
        <time>2021-04-28T11:19:13Z</time>
      </trkpt>
      <trkpt lat="51.639160000" lon="7.017820000">
        <ele>43</ele>
        <time>2021-04-28T11:19:15Z</time>
      </trkpt>
      <trkpt lat="51.639230000" lon="7.017670000">
        <ele>43</ele>
        <time>2021-04-28T11:19:17Z</time>
      </trkpt>
      <trkpt lat="51.639300000" lon="7.017530000">
        <ele>43</ele>
        <time>2021-04-28T11:19:18Z</time>
      </trkpt>
      <trkpt lat="51.639380000" lon="7.017370000">
        <ele>39</ele>
        <time>2021-04-28T11:19:20Z</time>
      </trkpt>
      <trkpt lat="51.639420000" lon="7.017270000">
        <ele>39</ele>
        <time>2021-04-28T11:19:22Z</time>
      </trkpt>
      <trkpt lat="51.639470000" lon="7.017110000">
        <ele>39</ele>
        <time>2021-04-28T11:19:24Z</time>
      </trkpt>
      <trkpt lat="51.639550000" lon="7.016940000">
        <ele>39</ele>
        <time>2021-04-28T11:19:26Z</time>
      </trkpt>
      <trkpt lat="51.639600000" lon="7.016800000">
        <ele>39</ele>
        <time>2021-04-28T11:19:28Z</time>
      </trkpt>
      <trkpt lat="51.639640000" lon="7.016740000">
        <ele>39</ele>
        <time>2021-04-28T11:19:29Z</time>
      </trkpt>
      <trkpt lat="51.639710000" lon="7.016590000">
        <ele>39</ele>
        <time>2021-04-28T11:19:31Z</time>
      </trkpt>
      <trkpt lat="51.639760000" lon="7.016460000">
        <ele>39</ele>
        <time>2021-04-28T11:19:33Z</time>
      </trkpt>
      <trkpt lat="51.639790000" lon="7.016370000">
        <ele>39</ele>
        <time>2021-04-28T11:19:35Z</time>
      </trkpt>
      <trkpt lat="51.639850000" lon="7.016240000">
        <ele>39</ele>
        <time>2021-04-28T11:19:37Z</time>
      </trkpt>
      <trkpt lat="51.639890000" lon="7.016160000">
        <ele>39</ele>
        <time>2021-04-28T11:19:38Z</time>
      </trkpt>
      <trkpt lat="51.639960000" lon="7.016000000">
        <ele>39</ele>
        <time>2021-04-28T11:19:39Z</time>
      </trkpt>
      <trkpt lat="51.640020000" lon="7.015850000">
        <ele>39</ele>
        <time>2021-04-28T11:19:41Z</time>
      </trkpt>
      <trkpt lat="51.640060000" lon="7.015760000">
        <ele>39</ele>
        <time>2021-04-28T11:19:43Z</time>
      </trkpt>
      <trkpt lat="51.640090000" lon="7.015700000">
        <ele>39</ele>
        <time>2021-04-28T11:19:44Z</time>
      </trkpt>
      <trkpt lat="51.640160000" lon="7.015550000">
        <ele>39</ele>
        <time>2021-04-28T11:19:46Z</time>
      </trkpt>
      <trkpt lat="51.640220000" lon="7.015400000">
        <ele>39</ele>
        <time>2021-04-28T11:19:48Z</time>
      </trkpt>
      <trkpt lat="51.640290000" lon="7.015240000">
        <ele>41</ele>
        <time>2021-04-28T11:19:50Z</time>
      </trkpt>
      <trkpt lat="51.640360000" lon="7.015050000">
        <ele>41</ele>
        <time>2021-04-28T11:19:52Z</time>
      </trkpt>
      <trkpt lat="51.640460000" lon="7.014850000">
        <ele>41</ele>
        <time>2021-04-28T11:19:54Z</time>
      </trkpt>
      <trkpt lat="51.640530000" lon="7.014680000">
        <ele>41</ele>
        <time>2021-04-28T11:19:56Z</time>
      </trkpt>
      <trkpt lat="51.640570000" lon="7.014590000">
        <ele>41</ele>
        <time>2021-04-28T11:19:57Z</time>
      </trkpt>
      <trkpt lat="51.640650000" lon="7.014410000">
        <ele>41</ele>
        <time>2021-04-28T11:19:59Z</time>
      </trkpt>
      <trkpt lat="51.640720000" lon="7.014240000">
        <ele>41</ele>
        <time>2021-04-28T11:20:00Z</time>
      </trkpt>
      <trkpt lat="51.640800000" lon="7.014070000">
        <ele>41</ele>
        <time>2021-04-28T11:20:02Z</time>
      </trkpt>
      <trkpt lat="51.640840000" lon="7.013970000">
        <ele>41</ele>
        <time>2021-04-28T11:20:04Z</time>
      </trkpt>
      <trkpt lat="51.640900000" lon="7.013830000">
        <ele>41</ele>
        <time>2021-04-28T11:20:05Z</time>
      </trkpt>
      <trkpt lat="51.640940000" lon="7.013730000">
        <ele>41</ele>
        <time>2021-04-28T11:20:06Z</time>
      </trkpt>
      <trkpt lat="51.640990000" lon="7.013600000">
        <ele>41</ele>
        <time>2021-04-28T11:20:08Z</time>
      </trkpt>
      <trkpt lat="51.641060000" lon="7.013440000">
        <ele>41</ele>
        <time>2021-04-28T11:20:10Z</time>
      </trkpt>
      <trkpt lat="51.641130000" lon="7.013280000">
        <ele>34</ele>
        <time>2021-04-28T11:20:12Z</time>
      </trkpt>
      <trkpt lat="51.641210000" lon="7.013090000">
        <ele>34</ele>
        <time>2021-04-28T11:20:14Z</time>
      </trkpt>
      <trkpt lat="51.641250000" lon="7.013000000">
        <ele>34</ele>
        <time>2021-04-28T11:20:15Z</time>
      </trkpt>
      <trkpt lat="51.641320000" lon="7.012830000">
        <ele>34</ele>
        <time>2021-04-28T11:20:17Z</time>
      </trkpt>
      <trkpt lat="51.641360000" lon="7.012740000">
        <ele>34</ele>
        <time>2021-04-28T11:20:18Z</time>
      </trkpt>
      <trkpt lat="51.641440000" lon="7.012560000">
        <ele>34</ele>
        <time>2021-04-28T11:20:20Z</time>
      </trkpt>
      <trkpt lat="51.641510000" lon="7.012420000">
        <ele>34</ele>
        <time>2021-04-28T11:20:21Z</time>
      </trkpt>
      <trkpt lat="51.641600000" lon="7.012250000">
        <ele>34</ele>
        <time>2021-04-28T11:20:24Z</time>
      </trkpt>
      <trkpt lat="51.641630000" lon="7.012190000">
        <ele>34</ele>
        <time>2021-04-28T11:20:25Z</time>
      </trkpt>
      <trkpt lat="51.641700000" lon="7.012030000">
        <ele>34</ele>
        <time>2021-04-28T11:20:27Z</time>
      </trkpt>
      <trkpt lat="51.641730000" lon="7.011960000">
        <ele>34</ele>
        <time>2021-04-28T11:20:28Z</time>
      </trkpt>
      <trkpt lat="51.641750000" lon="7.011890000">
        <ele>34</ele>
        <time>2021-04-28T11:20:29Z</time>
      </trkpt>
      <trkpt lat="51.641780000" lon="7.011710000">
        <ele>33</ele>
        <time>2021-04-28T11:20:31Z</time>
      </trkpt>
      <trkpt lat="51.641790000" lon="7.011610000">
        <ele>33</ele>
        <time>2021-04-28T11:20:32Z</time>
      </trkpt>
      <trkpt lat="51.641800000" lon="7.011500000">
        <ele>33</ele>
        <time>2021-04-28T11:20:33Z</time>
      </trkpt>
      <trkpt lat="51.641820000" lon="7.011400000">
        <ele>33</ele>
        <time>2021-04-28T11:20:34Z</time>
      </trkpt>
      <trkpt lat="51.641840000" lon="7.011170000">
        <ele>33</ele>
        <time>2021-04-28T11:20:36Z</time>
      </trkpt>
      <trkpt lat="51.641870000" lon="7.010970000">
        <ele>33</ele>
        <time>2021-04-28T11:20:38Z</time>
      </trkpt>
      <trkpt lat="51.641900000" lon="7.010890000">
        <ele>33</ele>
        <time>2021-04-28T11:20:39Z</time>
      </trkpt>
      <trkpt lat="51.641960000" lon="7.010680000">
        <ele>33</ele>
        <time>2021-04-28T11:20:41Z</time>
      </trkpt>
      <trkpt lat="51.641990000" lon="7.010500000">
        <ele>33</ele>
        <time>2021-04-28T11:20:42Z</time>
      </trkpt>
      <trkpt lat="51.642020000" lon="7.010380000">
        <ele>33</ele>
        <time>2021-04-28T11:20:43Z</time>
      </trkpt>
      <trkpt lat="51.642060000" lon="7.010240000">
        <ele>33</ele>
        <time>2021-04-28T11:20:45Z</time>
      </trkpt>
      <trkpt lat="51.642100000" lon="7.010060000">
        <ele>33</ele>
        <time>2021-04-28T11:20:47Z</time>
      </trkpt>
      <trkpt lat="51.642140000" lon="7.009860000">
        <ele>33</ele>
        <time>2021-04-28T11:20:48Z</time>
      </trkpt>
      <trkpt lat="51.642160000" lon="7.009720000">
        <ele>27</ele>
        <time>2021-04-28T11:20:50Z</time>
      </trkpt>
      <trkpt lat="51.642200000" lon="7.009540000">
        <ele>27</ele>
        <time>2021-04-28T11:20:51Z</time>
      </trkpt>
      <trkpt lat="51.642240000" lon="7.009410000">
        <ele>27</ele>
        <time>2021-04-28T11:20:53Z</time>
      </trkpt>
      <trkpt lat="51.642300000" lon="7.009220000">
        <ele>27</ele>
        <time>2021-04-28T11:20:55Z</time>
      </trkpt>
      <trkpt lat="51.642320000" lon="7.009140000">
        <ele>27</ele>
        <time>2021-04-28T11:20:56Z</time>
      </trkpt>
      <trkpt lat="51.642350000" lon="7.009060000">
        <ele>27</ele>
        <time>2021-04-28T11:20:57Z</time>
      </trkpt>
      <trkpt lat="51.642410000" lon="7.008980000">
        <ele>27</ele>
        <time>2021-04-28T11:20:58Z</time>
      </trkpt>
      <trkpt lat="51.642500000" lon="7.008830000">
        <ele>27</ele>
        <time>2021-04-28T11:21:00Z</time>
      </trkpt>
      <trkpt lat="51.642580000" lon="7.008700000">
        <ele>27</ele>
        <time>2021-04-28T11:21:02Z</time>
      </trkpt>
      <trkpt lat="51.642670000" lon="7.008550000">
        <ele>27</ele>
        <time>2021-04-28T11:21:03Z</time>
      </trkpt>
      <trkpt lat="51.642730000" lon="7.008460000">
        <ele>27</ele>
        <time>2021-04-28T11:21:04Z</time>
      </trkpt>
      <trkpt lat="51.642790000" lon="7.008360000">
        <ele>27</ele>
        <time>2021-04-28T11:21:06Z</time>
      </trkpt>
      <trkpt lat="51.642880000" lon="7.008230000">
        <ele>27</ele>
        <time>2021-04-28T11:21:07Z</time>
      </trkpt>
      <trkpt lat="51.642930000" lon="7.008140000">
        <ele>27</ele>
        <time>2021-04-28T11:21:08Z</time>
      </trkpt>
      <trkpt lat="51.642990000" lon="7.008060000">
        <ele>27</ele>
        <time>2021-04-28T11:21:09Z</time>
      </trkpt>
      <trkpt lat="51.643030000" lon="7.007980000">
        <ele>27</ele>
        <time>2021-04-28T11:21:10Z</time>
      </trkpt>
      <trkpt lat="51.643080000" lon="7.007900000">
        <ele>27</ele>
        <time>2021-04-28T11:21:11Z</time>
      </trkpt>
      <trkpt lat="51.643120000" lon="7.007820000">
        <ele>27</ele>
        <time>2021-04-28T11:21:12Z</time>
      </trkpt>
      <trkpt lat="51.643200000" lon="7.007620000">
        <ele>27</ele>
        <time>2021-04-28T11:21:14Z</time>
      </trkpt>
      <trkpt lat="51.643220000" lon="7.007510000">
        <ele>27</ele>
        <time>2021-04-28T11:21:15Z</time>
      </trkpt>
      <trkpt lat="51.643250000" lon="7.007400000">
        <ele>27</ele>
        <time>2021-04-28T11:21:16Z</time>
      </trkpt>
      <trkpt lat="51.643280000" lon="7.007190000">
        <ele>27</ele>
        <time>2021-04-28T11:21:18Z</time>
      </trkpt>
      <trkpt lat="51.643290000" lon="7.007090000">
        <ele>27</ele>
        <time>2021-04-28T11:21:19Z</time>
      </trkpt>
      <trkpt lat="51.643310000" lon="7.006870000">
        <ele>27</ele>
        <time>2021-04-28T11:21:21Z</time>
      </trkpt>
      <trkpt lat="51.643310000" lon="7.006750000">
        <ele>27</ele>
        <time>2021-04-28T11:21:22Z</time>
      </trkpt>
      <trkpt lat="51.643320000" lon="7.006530000">
        <ele>27</ele>
        <time>2021-04-28T11:21:24Z</time>
      </trkpt>
      <trkpt lat="51.643320000" lon="7.006420000">
        <ele>27</ele>
        <time>2021-04-28T11:21:25Z</time>
      </trkpt>
      <trkpt lat="51.643320000" lon="7.006200000">
        <ele>33</ele>
        <time>2021-04-28T11:21:27Z</time>
      </trkpt>
      <trkpt lat="51.643330000" lon="7.005990000">
        <ele>33</ele>
        <time>2021-04-28T11:21:29Z</time>
      </trkpt>
      <trkpt lat="51.643330000" lon="7.005880000">
        <ele>33</ele>
        <time>2021-04-28T11:21:30Z</time>
      </trkpt>
      <trkpt lat="51.643320000" lon="7.005680000">
        <ele>33</ele>
        <time>2021-04-28T11:21:32Z</time>
      </trkpt>
      <trkpt lat="51.643320000" lon="7.005470000">
        <ele>33</ele>
        <time>2021-04-28T11:21:34Z</time>
      </trkpt>
      <trkpt lat="51.643330000" lon="7.005270000">
        <ele>33</ele>
        <time>2021-04-28T11:21:36Z</time>
      </trkpt>
      <trkpt lat="51.643330000" lon="7.005170000">
        <ele>33</ele>
        <time>2021-04-28T11:21:37Z</time>
      </trkpt>
      <trkpt lat="51.643320000" lon="7.004980000">
        <ele>33</ele>
        <time>2021-04-28T11:21:39Z</time>
      </trkpt>
      <trkpt lat="51.643320000" lon="7.004890000">
        <ele>33</ele>
        <time>2021-04-28T11:21:40Z</time>
      </trkpt>
      <trkpt lat="51.643320000" lon="7.004790000">
        <ele>33</ele>
        <time>2021-04-28T11:21:41Z</time>
      </trkpt>
      <trkpt lat="51.643330000" lon="7.004570000">
        <ele>33</ele>
        <time>2021-04-28T11:21:43Z</time>
      </trkpt>
      <trkpt lat="51.643340000" lon="7.004470000">
        <ele>33</ele>
        <time>2021-04-28T11:21:44Z</time>
      </trkpt>
      <trkpt lat="51.643340000" lon="7.004360000">
        <ele>33</ele>
        <time>2021-04-28T11:21:45Z</time>
      </trkpt>
      <trkpt lat="51.643340000" lon="7.004140000">
        <ele>30</ele>
        <time>2021-04-28T11:21:47Z</time>
      </trkpt>
      <trkpt lat="51.643340000" lon="7.004040000">
        <ele>30</ele>
        <time>2021-04-28T11:21:48Z</time>
      </trkpt>
      <trkpt lat="51.643350000" lon="7.003830000">
        <ele>30</ele>
        <time>2021-04-28T11:21:50Z</time>
      </trkpt>
      <trkpt lat="51.643350000" lon="7.003650000">
        <ele>30</ele>
        <time>2021-04-28T11:21:52Z</time>
      </trkpt>
      <trkpt lat="51.643360000" lon="7.003550000">
        <ele>30</ele>
        <time>2021-04-28T11:21:53Z</time>
      </trkpt>
      <trkpt lat="51.643360000" lon="7.003450000">
        <ele>30</ele>
        <time>2021-04-28T11:21:54Z</time>
      </trkpt>
      <trkpt lat="51.643370000" lon="7.003250000">
        <ele>30</ele>
        <time>2021-04-28T11:21:56Z</time>
      </trkpt>
      <trkpt lat="51.643370000" lon="7.003150000">
        <ele>30</ele>
        <time>2021-04-28T11:21:57Z</time>
      </trkpt>
      <trkpt lat="51.643370000" lon="7.003050000">
        <ele>30</ele>
        <time>2021-04-28T11:21:58Z</time>
      </trkpt>
      <trkpt lat="51.643380000" lon="7.002950000">
        <ele>30</ele>
        <time>2021-04-28T11:21:59Z</time>
      </trkpt>
      <trkpt lat="51.643380000" lon="7.002840000">
        <ele>30</ele>
        <time>2021-04-28T11:22:00Z</time>
      </trkpt>
      <trkpt lat="51.643380000" lon="7.002660000">
        <ele>30</ele>
        <time>2021-04-28T11:22:02Z</time>
      </trkpt>
      <trkpt lat="51.643390000" lon="7.002560000">
        <ele>30</ele>
        <time>2021-04-28T11:22:03Z</time>
      </trkpt>
      <trkpt lat="51.643390000" lon="7.002470000">
        <ele>30</ele>
        <time>2021-04-28T11:22:04Z</time>
      </trkpt>
      <trkpt lat="51.643390000" lon="7.002290000">
        <ele>30</ele>
        <time>2021-04-28T11:22:06Z</time>
      </trkpt>
      <trkpt lat="51.643390000" lon="7.002110000">
        <ele>30</ele>
        <time>2021-04-28T11:22:08Z</time>
      </trkpt>
      <trkpt lat="51.643390000" lon="7.002010000">
        <ele>30</ele>
        <time>2021-04-28T11:22:09Z</time>
      </trkpt>
      <trkpt lat="51.643390000" lon="7.001920000">
        <ele>30</ele>
        <time>2021-04-28T11:22:10Z</time>
      </trkpt>
      <trkpt lat="51.643390000" lon="7.001730000">
        <ele>30</ele>
        <time>2021-04-28T11:22:12Z</time>
      </trkpt>
      <trkpt lat="51.643390000" lon="7.001530000">
        <ele>30</ele>
        <time>2021-04-28T11:22:14Z</time>
      </trkpt>
      <trkpt lat="51.643400000" lon="7.001450000">
        <ele>30</ele>
        <time>2021-04-28T11:22:15Z</time>
      </trkpt>
      <trkpt lat="51.643400000" lon="7.001360000">
        <ele>30</ele>
        <time>2021-04-28T11:22:16Z</time>
      </trkpt>
      <trkpt lat="51.643400000" lon="7.001270000">
        <ele>30</ele>
        <time>2021-04-28T11:22:17Z</time>
      </trkpt>
      <trkpt lat="51.643410000" lon="7.001180000">
        <ele>30</ele>
        <time>2021-04-28T11:22:18Z</time>
      </trkpt>
      <trkpt lat="51.643410000" lon="7.001090000">
        <ele>30</ele>
        <time>2021-04-28T11:22:19Z</time>
      </trkpt>
      <trkpt lat="51.643410000" lon="7.000910000">
        <ele>29</ele>
        <time>2021-04-28T11:22:21Z</time>
      </trkpt>
      <trkpt lat="51.643420000" lon="7.000820000">
        <ele>29</ele>
        <time>2021-04-28T11:22:22Z</time>
      </trkpt>
      <trkpt lat="51.643420000" lon="7.000730000">
        <ele>29</ele>
        <time>2021-04-28T11:22:23Z</time>
      </trkpt>
      <trkpt lat="51.643430000" lon="7.000640000">
        <ele>29</ele>
        <time>2021-04-28T11:22:24Z</time>
      </trkpt>
      <trkpt lat="51.643460000" lon="7.000470000">
        <ele>29</ele>
        <time>2021-04-28T11:22:26Z</time>
      </trkpt>
      <trkpt lat="51.643490000" lon="7.000380000">
        <ele>29</ele>
        <time>2021-04-28T11:22:27Z</time>
      </trkpt>
      <trkpt lat="51.643530000" lon="7.000280000">
        <ele>29</ele>
        <time>2021-04-28T11:22:28Z</time>
      </trkpt>
      <trkpt lat="51.643560000" lon="7.000200000">
        <ele>29</ele>
        <time>2021-04-28T11:22:30Z</time>
      </trkpt>
      <trkpt lat="51.643610000" lon="7.000090000">
        <ele>29</ele>
        <time>2021-04-28T11:22:31Z</time>
      </trkpt>
      <trkpt lat="51.643650000" lon="7.000020000">
        <ele>29</ele>
        <time>2021-04-28T11:22:33Z</time>
      </trkpt>
      <trkpt lat="51.643680000" lon="6.999950000">
        <ele>29</ele>
        <time>2021-04-28T11:22:34Z</time>
      </trkpt>
      <trkpt lat="51.643760000" lon="6.999800000">
        <ele>29</ele>
        <time>2021-04-28T11:22:36Z</time>
      </trkpt>
      <trkpt lat="51.643820000" lon="6.999690000">
        <ele>29</ele>
        <time>2021-04-28T11:22:37Z</time>
      </trkpt>
      <trkpt lat="51.643860000" lon="6.999590000">
        <ele>29</ele>
        <time>2021-04-28T11:22:38Z</time>
      </trkpt>
      <trkpt lat="51.643920000" lon="6.999450000">
        <ele>36</ele>
        <time>2021-04-28T11:22:41Z</time>
      </trkpt>
      <trkpt lat="51.643980000" lon="6.999300000">
        <ele>36</ele>
        <time>2021-04-28T11:22:43Z</time>
      </trkpt>
      <trkpt lat="51.644040000" lon="6.999190000">
        <ele>36</ele>
        <time>2021-04-28T11:22:44Z</time>
      </trkpt>
      <trkpt lat="51.644090000" lon="6.999110000">
        <ele>36</ele>
        <time>2021-04-28T11:22:46Z</time>
      </trkpt>
      <trkpt lat="51.644160000" lon="6.998990000">
        <ele>36</ele>
        <time>2021-04-28T11:22:47Z</time>
      </trkpt>
      <trkpt lat="51.644200000" lon="6.998920000">
        <ele>36</ele>
        <time>2021-04-28T11:22:48Z</time>
      </trkpt>
      <trkpt lat="51.644280000" lon="6.998770000">
        <ele>36</ele>
        <time>2021-04-28T11:22:50Z</time>
      </trkpt>
      <trkpt lat="51.644320000" lon="6.998690000">
        <ele>36</ele>
        <time>2021-04-28T11:22:51Z</time>
      </trkpt>
      <trkpt lat="51.644350000" lon="6.998620000">
        <ele>36</ele>
        <time>2021-04-28T11:22:52Z</time>
      </trkpt>
      <trkpt lat="51.644400000" lon="6.998540000">
        <ele>36</ele>
        <time>2021-04-28T11:22:53Z</time>
      </trkpt>
      <trkpt lat="51.644470000" lon="6.998410000">
        <ele>36</ele>
        <time>2021-04-28T11:22:55Z</time>
      </trkpt>
      <trkpt lat="51.644500000" lon="6.998350000">
        <ele>36</ele>
        <time>2021-04-28T11:22:56Z</time>
      </trkpt>
      <trkpt lat="51.644550000" lon="6.998280000">
        <ele>36</ele>
        <time>2021-04-28T11:22:57Z</time>
      </trkpt>
      <trkpt lat="51.644610000" lon="6.998150000">
        <ele>36</ele>
        <time>2021-04-28T11:22:59Z</time>
      </trkpt>
      <trkpt lat="51.644670000" lon="6.998020000">
        <ele>36</ele>
        <time>2021-04-28T11:23:01Z</time>
      </trkpt>
      <trkpt lat="51.644700000" lon="6.997950000">
        <ele>36</ele>
        <time>2021-04-28T11:23:02Z</time>
      </trkpt>
      <trkpt lat="51.644750000" lon="6.997800000">
        <ele>36</ele>
        <time>2021-04-28T11:23:04Z</time>
      </trkpt>
      <trkpt lat="51.644780000" lon="6.997720000">
        <ele>36</ele>
        <time>2021-04-28T11:23:05Z</time>
      </trkpt>
      <trkpt lat="51.644810000" lon="6.997640000">
        <ele>36</ele>
        <time>2021-04-28T11:23:06Z</time>
      </trkpt>
      <trkpt lat="51.644870000" lon="6.997490000">
        <ele>36</ele>
        <time>2021-04-28T11:23:08Z</time>
      </trkpt>
      <trkpt lat="51.644900000" lon="6.997420000">
        <ele>36</ele>
        <time>2021-04-28T11:23:09Z</time>
      </trkpt>
      <trkpt lat="51.644940000" lon="6.997350000">
        <ele>36</ele>
        <time>2021-04-28T11:23:10Z</time>
      </trkpt>
      <trkpt lat="51.644970000" lon="6.997280000">
        <ele>36</ele>
        <time>2021-04-28T11:23:11Z</time>
      </trkpt>
      <trkpt lat="51.645050000" lon="6.997110000">
        <ele>36</ele>
        <time>2021-04-28T11:23:13Z</time>
      </trkpt>
      <trkpt lat="51.645100000" lon="6.997040000">
        <ele>36</ele>
        <time>2021-04-28T11:23:14Z</time>
      </trkpt>
      <trkpt lat="51.645190000" lon="6.996920000">
        <ele>36</ele>
        <time>2021-04-28T11:23:16Z</time>
      </trkpt>
      <trkpt lat="51.645230000" lon="6.996850000">
        <ele>36</ele>
        <time>2021-04-28T11:23:17Z</time>
      </trkpt>
      <trkpt lat="51.645260000" lon="6.996770000">
        <ele>34</ele>
        <time>2021-04-28T11:23:18Z</time>
      </trkpt>
      <trkpt lat="51.645320000" lon="6.996630000">
        <ele>34</ele>
        <time>2021-04-28T11:23:20Z</time>
      </trkpt>
      <trkpt lat="51.645360000" lon="6.996550000">
        <ele>34</ele>
        <time>2021-04-28T11:23:21Z</time>
      </trkpt>
      <trkpt lat="51.645430000" lon="6.996400000">
        <ele>34</ele>
        <time>2021-04-28T11:23:23Z</time>
      </trkpt>
      <trkpt lat="51.645460000" lon="6.996320000">
        <ele>34</ele>
        <time>2021-04-28T11:23:24Z</time>
      </trkpt>
      <trkpt lat="51.645540000" lon="6.996170000">
        <ele>34</ele>
        <time>2021-04-28T11:23:26Z</time>
      </trkpt>
      <trkpt lat="51.645580000" lon="6.996090000">
        <ele>34</ele>
        <time>2021-04-28T11:23:27Z</time>
      </trkpt>
      <trkpt lat="51.645610000" lon="6.996010000">
        <ele>34</ele>
        <time>2021-04-28T11:23:28Z</time>
      </trkpt>
      <trkpt lat="51.645670000" lon="6.995880000">
        <ele>34</ele>
        <time>2021-04-28T11:23:30Z</time>
      </trkpt>
      <trkpt lat="51.645730000" lon="6.995750000">
        <ele>34</ele>
        <time>2021-04-28T11:23:32Z</time>
      </trkpt>
      <trkpt lat="51.645760000" lon="6.995670000">
        <ele>34</ele>
        <time>2021-04-28T11:23:33Z</time>
      </trkpt>
      <trkpt lat="51.645800000" lon="6.995590000">
        <ele>34</ele>
        <time>2021-04-28T11:23:34Z</time>
      </trkpt>
      <trkpt lat="51.645830000" lon="6.995520000">
        <ele>34</ele>
        <time>2021-04-28T11:23:35Z</time>
      </trkpt>
      <trkpt lat="51.645910000" lon="6.995370000">
        <ele>34</ele>
        <time>2021-04-28T11:23:37Z</time>
      </trkpt>
      <trkpt lat="51.645990000" lon="6.995230000">
        <ele>37</ele>
        <time>2021-04-28T11:23:39Z</time>
      </trkpt>
      <trkpt lat="51.646070000" lon="6.995080000">
        <ele>37</ele>
        <time>2021-04-28T11:23:41Z</time>
      </trkpt>
      <trkpt lat="51.646100000" lon="6.995000000">
        <ele>37</ele>
        <time>2021-04-28T11:23:42Z</time>
      </trkpt>
      <trkpt lat="51.646140000" lon="6.994920000">
        <ele>37</ele>
        <time>2021-04-28T11:23:43Z</time>
      </trkpt>
      <trkpt lat="51.646190000" lon="6.994840000">
        <ele>37</ele>
        <time>2021-04-28T11:23:44Z</time>
      </trkpt>
      <trkpt lat="51.646260000" lon="6.994690000">
        <ele>37</ele>
        <time>2021-04-28T11:23:46Z</time>
      </trkpt>
      <trkpt lat="51.646330000" lon="6.994510000">
        <ele>37</ele>
        <time>2021-04-28T11:23:48Z</time>
      </trkpt>
      <trkpt lat="51.646400000" lon="6.994340000">
        <ele>37</ele>
        <time>2021-04-28T11:23:50Z</time>
      </trkpt>
      <trkpt lat="51.646420000" lon="6.994260000">
        <ele>37</ele>
        <time>2021-04-28T11:23:52Z</time>
      </trkpt>
      <trkpt lat="51.646490000" lon="6.994120000">
        <ele>37</ele>
        <time>2021-04-28T11:23:54Z</time>
      </trkpt>
      <trkpt lat="51.646560000" lon="6.993990000">
        <ele>37</ele>
        <time>2021-04-28T11:23:56Z</time>
      </trkpt>
      <trkpt lat="51.646600000" lon="6.993920000">
        <ele>37</ele>
        <time>2021-04-28T11:23:57Z</time>
      </trkpt>
      <trkpt lat="51.646680000" lon="6.993770000">
        <ele>37</ele>
        <time>2021-04-28T11:23:59Z</time>
      </trkpt>
      <trkpt lat="51.646760000" lon="6.993610000">
        <ele>37</ele>
        <time>2021-04-28T11:24:01Z</time>
      </trkpt>
      <trkpt lat="51.646820000" lon="6.993470000">
        <ele>37</ele>
        <time>2021-04-28T11:24:03Z</time>
      </trkpt>
      <trkpt lat="51.646890000" lon="6.993310000">
        <ele>37</ele>
        <time>2021-04-28T11:24:05Z</time>
      </trkpt>
      <trkpt lat="51.646960000" lon="6.993150000">
        <ele>37</ele>
        <time>2021-04-28T11:24:07Z</time>
      </trkpt>
      <trkpt lat="51.647000000" lon="6.993070000">
        <ele>37</ele>
        <time>2021-04-28T11:24:08Z</time>
      </trkpt>
      <trkpt lat="51.647080000" lon="6.992930000">
        <ele>37</ele>
        <time>2021-04-28T11:24:09Z</time>
      </trkpt>
      <trkpt lat="51.647160000" lon="6.992760000">
        <ele>37</ele>
        <time>2021-04-28T11:24:12Z</time>
      </trkpt>
      <trkpt lat="51.647230000" lon="6.992600000">
        <ele>37</ele>
        <time>2021-04-28T11:24:14Z</time>
      </trkpt>
      <trkpt lat="51.647300000" lon="6.992450000">
        <ele>37</ele>
        <time>2021-04-28T11:24:16Z</time>
      </trkpt>
      <trkpt lat="51.647380000" lon="6.992290000">
        <ele>37</ele>
        <time>2021-04-28T11:24:18Z</time>
      </trkpt>
      <trkpt lat="51.647440000" lon="6.992140000">
        <ele>37</ele>
        <time>2021-04-28T11:24:20Z</time>
      </trkpt>
      <trkpt lat="51.647500000" lon="6.991980000">
        <ele>37</ele>
        <time>2021-04-28T11:24:22Z</time>
      </trkpt>
      <trkpt lat="51.647520000" lon="6.991900000">
        <ele>37</ele>
        <time>2021-04-28T11:24:23Z</time>
      </trkpt>
      <trkpt lat="51.647550000" lon="6.991710000">
        <ele>37</ele>
        <time>2021-04-28T11:24:25Z</time>
      </trkpt>
      <trkpt lat="51.647570000" lon="6.991530000">
        <ele>38</ele>
        <time>2021-04-28T11:24:27Z</time>
      </trkpt>
      <trkpt lat="51.647590000" lon="6.991430000">
        <ele>38</ele>
        <time>2021-04-28T11:24:28Z</time>
      </trkpt>
      <trkpt lat="51.647610000" lon="6.991240000">
        <ele>38</ele>
        <time>2021-04-28T11:24:29Z</time>
      </trkpt>
      <trkpt lat="51.647620000" lon="6.991040000">
        <ele>38</ele>
        <time>2021-04-28T11:24:31Z</time>
      </trkpt>
      <trkpt lat="51.647630000" lon="6.990910000">
        <ele>38</ele>
        <time>2021-04-28T11:24:33Z</time>
      </trkpt>
      <trkpt lat="51.647640000" lon="6.990820000">
        <ele>38</ele>
        <time>2021-04-28T11:24:34Z</time>
      </trkpt>
      <trkpt lat="51.647640000" lon="6.990600000">
        <ele>38</ele>
        <time>2021-04-28T11:24:36Z</time>
      </trkpt>
      <trkpt lat="51.647660000" lon="6.990410000">
        <ele>38</ele>
        <time>2021-04-28T11:24:38Z</time>
      </trkpt>
      <trkpt lat="51.647670000" lon="6.990310000">
        <ele>38</ele>
        <time>2021-04-28T11:24:39Z</time>
      </trkpt>
      <trkpt lat="51.647700000" lon="6.990120000">
        <ele>38</ele>
        <time>2021-04-28T11:24:41Z</time>
      </trkpt>
      <trkpt lat="51.647730000" lon="6.989930000">
        <ele>38</ele>
        <time>2021-04-28T11:24:43Z</time>
      </trkpt>
      <trkpt lat="51.647760000" lon="6.989730000">
        <ele>38</ele>
        <time>2021-04-28T11:24:45Z</time>
      </trkpt>
      <trkpt lat="51.647780000" lon="6.989570000">
        <ele>38</ele>
        <time>2021-04-28T11:24:46Z</time>
      </trkpt>
      <trkpt lat="51.647790000" lon="6.989420000">
        <ele>38</ele>
        <time>2021-04-28T11:24:48Z</time>
      </trkpt>
      <trkpt lat="51.647810000" lon="6.989260000">
        <ele>31</ele>
        <time>2021-04-28T11:24:49Z</time>
      </trkpt>
      <trkpt lat="51.647810000" lon="6.989150000">
        <ele>31</ele>
        <time>2021-04-28T11:24:50Z</time>
      </trkpt>
      <trkpt lat="51.647840000" lon="6.988920000">
        <ele>31</ele>
        <time>2021-04-28T11:24:53Z</time>
      </trkpt>
      <trkpt lat="51.647830000" lon="6.988830000">
        <ele>31</ele>
        <time>2021-04-28T11:24:54Z</time>
      </trkpt>
      <trkpt lat="51.647840000" lon="6.988620000">
        <ele>31</ele>
        <time>2021-04-28T11:24:56Z</time>
      </trkpt>
      <trkpt lat="51.647860000" lon="6.988420000">
        <ele>31</ele>
        <time>2021-04-28T11:24:58Z</time>
      </trkpt>
      <trkpt lat="51.647860000" lon="6.988240000">
        <ele>31</ele>
        <time>2021-04-28T11:25:00Z</time>
      </trkpt>
      <trkpt lat="51.647830000" lon="6.988060000">
        <ele>31</ele>
        <time>2021-04-28T11:25:01Z</time>
      </trkpt>
      <trkpt lat="51.647800000" lon="6.987830000">
        <ele>31</ele>
        <time>2021-04-28T11:25:04Z</time>
      </trkpt>
      <trkpt lat="51.647790000" lon="6.987750000">
        <ele>31</ele>
        <time>2021-04-28T11:25:05Z</time>
      </trkpt>
      <trkpt lat="51.647770000" lon="6.987660000">
        <ele>31</ele>
        <time>2021-04-28T11:25:06Z</time>
      </trkpt>
      <trkpt lat="51.647730000" lon="6.987470000">
        <ele>31</ele>
        <time>2021-04-28T11:25:07Z</time>
      </trkpt>
      <trkpt lat="51.647700000" lon="6.987360000">
        <ele>31</ele>
        <time>2021-04-28T11:25:09Z</time>
      </trkpt>
      <trkpt lat="51.647680000" lon="6.987260000">
        <ele>35</ele>
        <time>2021-04-28T11:25:10Z</time>
      </trkpt>
      <trkpt lat="51.647650000" lon="6.987090000">
        <ele>35</ele>
        <time>2021-04-28T11:25:11Z</time>
      </trkpt>
      <trkpt lat="51.647600000" lon="6.986850000">
        <ele>35</ele>
        <time>2021-04-28T11:25:14Z</time>
      </trkpt>
      <trkpt lat="51.647570000" lon="6.986770000">
        <ele>35</ele>
        <time>2021-04-28T11:25:15Z</time>
      </trkpt>
      <trkpt lat="51.647550000" lon="6.986670000">
        <ele>35</ele>
        <time>2021-04-28T11:25:16Z</time>
      </trkpt>
      <trkpt lat="51.647510000" lon="6.986460000">
        <ele>35</ele>
        <time>2021-04-28T11:25:18Z</time>
      </trkpt>
      <trkpt lat="51.647480000" lon="6.986270000">
        <ele>35</ele>
        <time>2021-04-28T11:25:20Z</time>
      </trkpt>
      <trkpt lat="51.647440000" lon="6.986080000">
        <ele>35</ele>
        <time>2021-04-28T11:25:22Z</time>
      </trkpt>
      <trkpt lat="51.647410000" lon="6.985890000">
        <ele>35</ele>
        <time>2021-04-28T11:25:24Z</time>
      </trkpt>
      <trkpt lat="51.647360000" lon="6.985680000">
        <ele>35</ele>
        <time>2021-04-28T11:25:26Z</time>
      </trkpt>
      <trkpt lat="51.647330000" lon="6.985520000">
        <ele>35</ele>
        <time>2021-04-28T11:25:27Z</time>
      </trkpt>
      <trkpt lat="51.647310000" lon="6.985420000">
        <ele>35</ele>
        <time>2021-04-28T11:25:28Z</time>
      </trkpt>
      <trkpt lat="51.647280000" lon="6.985300000">
        <ele>35</ele>
        <time>2021-04-28T11:25:30Z</time>
      </trkpt>
      <trkpt lat="51.647260000" lon="6.985220000">
        <ele>39</ele>
        <time>2021-04-28T11:25:31Z</time>
      </trkpt>
      <trkpt lat="51.647240000" lon="6.985080000">
        <ele>39</ele>
        <time>2021-04-28T11:25:32Z</time>
      </trkpt>
      <trkpt lat="51.647210000" lon="6.984890000">
        <ele>39</ele>
        <time>2021-04-28T11:25:35Z</time>
      </trkpt>
      <trkpt lat="51.647180000" lon="6.984780000">
        <ele>39</ele>
        <time>2021-04-28T11:25:37Z</time>
      </trkpt>
      <trkpt lat="51.647160000" lon="6.984720000">
        <ele>39</ele>
        <time>2021-04-28T11:25:46Z</time>
      </trkpt>
      <trkpt lat="51.647150000" lon="6.984620000">
        <ele>39</ele>
        <time>2021-04-28T11:26:11Z</time>
      </trkpt>
      <trkpt lat="51.647130000" lon="6.984530000">
        <ele>39</ele>
        <time>2021-04-28T11:26:12Z</time>
      </trkpt>
      <trkpt lat="51.647100000" lon="6.984420000">
        <ele>39</ele>
        <time>2021-04-28T11:26:14Z</time>
      </trkpt>
      <trkpt lat="51.647090000" lon="6.984340000">
        <ele>39</ele>
        <time>2021-04-28T11:26:16Z</time>
      </trkpt>
      <trkpt lat="51.647070000" lon="6.984220000">
        <ele>39</ele>
        <time>2021-04-28T11:26:17Z</time>
      </trkpt>
      <trkpt lat="51.647060000" lon="6.984100000">
        <ele>39</ele>
        <time>2021-04-28T11:26:19Z</time>
      </trkpt>
      <trkpt lat="51.647030000" lon="6.983940000">
        <ele>39</ele>
        <time>2021-04-28T11:26:21Z</time>
      </trkpt>
      <trkpt lat="51.647010000" lon="6.983860000">
        <ele>39</ele>
        <time>2021-04-28T11:26:22Z</time>
      </trkpt>
      <trkpt lat="51.646970000" lon="6.983680000">
        <ele>39</ele>
        <time>2021-04-28T11:26:24Z</time>
      </trkpt>
      <trkpt lat="51.646940000" lon="6.983530000">
        <ele>39</ele>
        <time>2021-04-28T11:26:25Z</time>
      </trkpt>
      <trkpt lat="51.646910000" lon="6.983400000">
        <ele>39</ele>
        <time>2021-04-28T11:26:27Z</time>
      </trkpt>
      <trkpt lat="51.646870000" lon="6.983230000">
        <ele>39</ele>
        <time>2021-04-28T11:26:29Z</time>
      </trkpt>
      <trkpt lat="51.646880000" lon="6.983060000">
        <ele>39</ele>
        <time>2021-04-28T11:26:31Z</time>
      </trkpt>
      <trkpt lat="51.646920000" lon="6.982940000">
        <ele>39</ele>
        <time>2021-04-28T11:26:32Z</time>
      </trkpt>
      <trkpt lat="51.647000000" lon="6.982790000">
        <ele>39</ele>
        <time>2021-04-28T11:26:34Z</time>
      </trkpt>
      <trkpt lat="51.647040000" lon="6.982740000">
        <ele>39</ele>
        <time>2021-04-28T11:26:35Z</time>
      </trkpt>
      <trkpt lat="51.647090000" lon="6.982680000">
        <ele>39</ele>
        <time>2021-04-28T11:26:36Z</time>
      </trkpt>
      <trkpt lat="51.647150000" lon="6.982620000">
        <ele>39</ele>
        <time>2021-04-28T11:26:38Z</time>
      </trkpt>
      <trkpt lat="51.647190000" lon="6.982560000">
        <ele>39</ele>
        <time>2021-04-28T11:26:39Z</time>
      </trkpt>
      <trkpt lat="51.647260000" lon="6.982440000">
        <ele>39</ele>
        <time>2021-04-28T11:26:40Z</time>
      </trkpt>
      <trkpt lat="51.647320000" lon="6.982360000">
        <ele>39</ele>
        <time>2021-04-28T11:26:41Z</time>
      </trkpt>
      <trkpt lat="51.647370000" lon="6.982290000">
        <ele>39</ele>
        <time>2021-04-28T11:26:42Z</time>
      </trkpt>
      <trkpt lat="51.647460000" lon="6.982190000">
        <ele>36</ele>
        <time>2021-04-28T11:26:44Z</time>
      </trkpt>
      <trkpt lat="51.647510000" lon="6.982140000">
        <ele>36</ele>
        <time>2021-04-28T11:26:45Z</time>
      </trkpt>
      <trkpt lat="51.647610000" lon="6.982010000">
        <ele>36</ele>
        <time>2021-04-28T11:26:47Z</time>
      </trkpt>
      <trkpt lat="51.647710000" lon="6.981900000">
        <ele>36</ele>
        <time>2021-04-28T11:26:49Z</time>
      </trkpt>
      <trkpt lat="51.647770000" lon="6.981840000">
        <ele>36</ele>
        <time>2021-04-28T11:26:50Z</time>
      </trkpt>
      <trkpt lat="51.647860000" lon="6.981760000">
        <ele>36</ele>
        <time>2021-04-28T11:26:52Z</time>
      </trkpt>
      <trkpt lat="51.647960000" lon="6.981660000">
        <ele>36</ele>
        <time>2021-04-28T11:26:54Z</time>
      </trkpt>
      <trkpt lat="51.648070000" lon="6.981590000">
        <ele>36</ele>
        <time>2021-04-28T11:26:56Z</time>
      </trkpt>
      <trkpt lat="51.648130000" lon="6.981540000">
        <ele>36</ele>
        <time>2021-04-28T11:26:58Z</time>
      </trkpt>
      <trkpt lat="51.648180000" lon="6.981490000">
        <ele>36</ele>
        <time>2021-04-28T11:26:59Z</time>
      </trkpt>
      <trkpt lat="51.648290000" lon="6.981400000">
        <ele>36</ele>
        <time>2021-04-28T11:27:01Z</time>
      </trkpt>
      <trkpt lat="51.648370000" lon="6.981290000">
        <ele>36</ele>
        <time>2021-04-28T11:27:03Z</time>
      </trkpt>
      <trkpt lat="51.648410000" lon="6.981240000">
        <ele>36</ele>
        <time>2021-04-28T11:27:04Z</time>
      </trkpt>
      <trkpt lat="51.648450000" lon="6.981200000">
        <ele>31</ele>
        <time>2021-04-28T11:27:05Z</time>
      </trkpt>
      <trkpt lat="51.648490000" lon="6.981150000">
        <ele>31</ele>
        <time>2021-04-28T11:27:06Z</time>
      </trkpt>
      <trkpt lat="51.648610000" lon="6.981050000">
        <ele>31</ele>
        <time>2021-04-28T11:27:08Z</time>
      </trkpt>
      <trkpt lat="51.648690000" lon="6.980960000">
        <ele>31</ele>
        <time>2021-04-28T11:27:10Z</time>
      </trkpt>
      <trkpt lat="51.648740000" lon="6.980930000">
        <ele>31</ele>
        <time>2021-04-28T11:27:11Z</time>
      </trkpt>
      <trkpt lat="51.648840000" lon="6.980790000">
        <ele>31</ele>
        <time>2021-04-28T11:27:14Z</time>
      </trkpt>
      <trkpt lat="51.648850000" lon="6.980630000">
        <ele>31</ele>
        <time>2021-04-28T11:27:16Z</time>
      </trkpt>
      <trkpt lat="51.648860000" lon="6.980520000">
        <ele>31</ele>
        <time>2021-04-28T11:27:20Z</time>
      </trkpt>
      <trkpt lat="51.648890000" lon="6.980350000">
        <ele>31</ele>
        <time>2021-04-28T11:27:24Z</time>
      </trkpt>
      <trkpt lat="51.648870000" lon="6.980240000">
        <ele>31</ele>
        <time>2021-04-28T11:27:26Z</time>
      </trkpt>
      <trkpt lat="51.648820000" lon="6.980110000">
        <ele>31</ele>
        <time>2021-04-28T11:27:28Z</time>
      </trkpt>
      <trkpt lat="51.648780000" lon="6.979980000">
        <ele>44</ele>
        <time>2021-04-28T11:27:30Z</time>
      </trkpt>
      <trkpt lat="51.648740000" lon="6.979860000">
        <ele>44</ele>
        <time>2021-04-28T11:27:31Z</time>
      </trkpt>
      <trkpt lat="51.648690000" lon="6.979750000">
        <ele>44</ele>
        <time>2021-04-28T11:27:33Z</time>
      </trkpt>
      <trkpt lat="51.648660000" lon="6.979670000">
        <ele>44</ele>
        <time>2021-04-28T11:27:34Z</time>
      </trkpt>
      <trkpt lat="51.648590000" lon="6.979490000">
        <ele>44</ele>
        <time>2021-04-28T11:27:36Z</time>
      </trkpt>
      <trkpt lat="51.648540000" lon="6.979340000">
        <ele>44</ele>
        <time>2021-04-28T11:27:37Z</time>
      </trkpt>
      <trkpt lat="51.648510000" lon="6.979230000">
        <ele>44</ele>
        <time>2021-04-28T11:27:38Z</time>
      </trkpt>
      <trkpt lat="51.648480000" lon="6.979110000">
        <ele>44</ele>
        <time>2021-04-28T11:27:40Z</time>
      </trkpt>
      <trkpt lat="51.648440000" lon="6.978940000">
        <ele>44</ele>
        <time>2021-04-28T11:27:42Z</time>
      </trkpt>
      <trkpt lat="51.648400000" lon="6.978760000">
        <ele>44</ele>
        <time>2021-04-28T11:27:44Z</time>
      </trkpt>
      <trkpt lat="51.648350000" lon="6.978620000">
        <ele>44</ele>
        <time>2021-04-28T11:27:45Z</time>
      </trkpt>
      <trkpt lat="51.648320000" lon="6.978490000">
        <ele>44</ele>
        <time>2021-04-28T11:27:47Z</time>
      </trkpt>
      <trkpt lat="51.648260000" lon="6.978300000">
        <ele>44</ele>
        <time>2021-04-28T11:27:49Z</time>
      </trkpt>
      <trkpt lat="51.648210000" lon="6.978100000">
        <ele>44</ele>
        <time>2021-04-28T11:27:51Z</time>
      </trkpt>
      <trkpt lat="51.648200000" lon="6.978000000">
        <ele>40</ele>
        <time>2021-04-28T11:27:52Z</time>
      </trkpt>
      <trkpt lat="51.648170000" lon="6.977830000">
        <ele>40</ele>
        <time>2021-04-28T11:27:54Z</time>
      </trkpt>
      <trkpt lat="51.648130000" lon="6.977690000">
        <ele>40</ele>
        <time>2021-04-28T11:27:56Z</time>
      </trkpt>
      <trkpt lat="51.648040000" lon="6.977600000">
        <ele>40</ele>
        <time>2021-04-28T11:27:58Z</time>
      </trkpt>
      <trkpt lat="51.648010000" lon="6.977510000">
        <ele>40</ele>
        <time>2021-04-28T11:27:59Z</time>
      </trkpt>
      <trkpt lat="51.648010000" lon="6.977350000">
        <ele>40</ele>
        <time>2021-04-28T11:28:02Z</time>
      </trkpt>
      <trkpt lat="51.648000000" lon="6.977220000">
        <ele>40</ele>
        <time>2021-04-28T11:28:03Z</time>
      </trkpt>
      <trkpt lat="51.648000000" lon="6.977100000">
        <ele>40</ele>
        <time>2021-04-28T11:28:05Z</time>
      </trkpt>
      <trkpt lat="51.647990000" lon="6.976910000">
        <ele>40</ele>
        <time>2021-04-28T11:28:07Z</time>
      </trkpt>
      <trkpt lat="51.647980000" lon="6.976720000">
        <ele>40</ele>
        <time>2021-04-28T11:28:09Z</time>
      </trkpt>
      <trkpt lat="51.647970000" lon="6.976620000">
        <ele>40</ele>
        <time>2021-04-28T11:28:10Z</time>
      </trkpt>
      <trkpt lat="51.647950000" lon="6.976430000">
        <ele>40</ele>
        <time>2021-04-28T11:28:12Z</time>
      </trkpt>
      <trkpt lat="51.647940000" lon="6.976330000">
        <ele>40</ele>
        <time>2021-04-28T11:28:13Z</time>
      </trkpt>
      <trkpt lat="51.647940000" lon="6.976240000">
        <ele>39</ele>
        <time>2021-04-28T11:28:14Z</time>
      </trkpt>
      <trkpt lat="51.647930000" lon="6.976040000">
        <ele>39</ele>
        <time>2021-04-28T11:28:16Z</time>
      </trkpt>
      <trkpt lat="51.647920000" lon="6.975940000">
        <ele>39</ele>
        <time>2021-04-28T11:28:17Z</time>
      </trkpt>
      <trkpt lat="51.647910000" lon="6.975840000">
        <ele>39</ele>
        <time>2021-04-28T11:28:18Z</time>
      </trkpt>
      <trkpt lat="51.647900000" lon="6.975650000">
        <ele>39</ele>
        <time>2021-04-28T11:28:20Z</time>
      </trkpt>
      <trkpt lat="51.647890000" lon="6.975490000">
        <ele>39</ele>
        <time>2021-04-28T11:28:21Z</time>
      </trkpt>
      <trkpt lat="51.647880000" lon="6.975370000">
        <ele>39</ele>
        <time>2021-04-28T11:28:23Z</time>
      </trkpt>
      <trkpt lat="51.647870000" lon="6.975280000">
        <ele>39</ele>
        <time>2021-04-28T11:28:24Z</time>
      </trkpt>
      <trkpt lat="51.647870000" lon="6.975120000">
        <ele>39</ele>
        <time>2021-04-28T11:28:25Z</time>
      </trkpt>
      <trkpt lat="51.647860000" lon="6.975010000">
        <ele>39</ele>
        <time>2021-04-28T11:28:26Z</time>
      </trkpt>
      <trkpt lat="51.647850000" lon="6.974910000">
        <ele>39</ele>
        <time>2021-04-28T11:28:27Z</time>
      </trkpt>
      <trkpt lat="51.647850000" lon="6.974790000">
        <ele>39</ele>
        <time>2021-04-28T11:28:29Z</time>
      </trkpt>
      <trkpt lat="51.647840000" lon="6.974630000">
        <ele>39</ele>
        <time>2021-04-28T11:28:30Z</time>
      </trkpt>
      <trkpt lat="51.647830000" lon="6.974520000">
        <ele>35</ele>
        <time>2021-04-28T11:28:31Z</time>
      </trkpt>
      <trkpt lat="51.647820000" lon="6.974390000">
        <ele>35</ele>
        <time>2021-04-28T11:28:33Z</time>
      </trkpt>
      <trkpt lat="51.647820000" lon="6.974300000">
        <ele>35</ele>
        <time>2021-04-28T11:28:34Z</time>
      </trkpt>
      <trkpt lat="51.647810000" lon="6.974220000">
        <ele>35</ele>
        <time>2021-04-28T11:28:35Z</time>
      </trkpt>
      <trkpt lat="51.647800000" lon="6.974020000">
        <ele>35</ele>
        <time>2021-04-28T11:28:37Z</time>
      </trkpt>
      <trkpt lat="51.647790000" lon="6.973930000">
        <ele>35</ele>
        <time>2021-04-28T11:28:38Z</time>
      </trkpt>
      <trkpt lat="51.647780000" lon="6.973730000">
        <ele>35</ele>
        <time>2021-04-28T11:28:40Z</time>
      </trkpt>
      <trkpt lat="51.647770000" lon="6.973570000">
        <ele>35</ele>
        <time>2021-04-28T11:28:41Z</time>
      </trkpt>
      <trkpt lat="51.647770000" lon="6.973460000">
        <ele>35</ele>
        <time>2021-04-28T11:28:42Z</time>
      </trkpt>
      <trkpt lat="51.647770000" lon="6.973360000">
        <ele>35</ele>
        <time>2021-04-28T11:28:43Z</time>
      </trkpt>
      <trkpt lat="51.647760000" lon="6.973140000">
        <ele>35</ele>
        <time>2021-04-28T11:28:46Z</time>
      </trkpt>
      <trkpt lat="51.647770000" lon="6.973050000">
        <ele>35</ele>
        <time>2021-04-28T11:28:47Z</time>
      </trkpt>
      <trkpt lat="51.647780000" lon="6.972960000">
        <ele>35</ele>
        <time>2021-04-28T11:28:48Z</time>
      </trkpt>
      <trkpt lat="51.647800000" lon="6.972800000">
        <ele>38</ele>
        <time>2021-04-28T11:28:49Z</time>
      </trkpt>
      <trkpt lat="51.647840000" lon="6.972680000">
        <ele>38</ele>
        <time>2021-04-28T11:28:51Z</time>
      </trkpt>
      <trkpt lat="51.647820000" lon="6.972560000">
        <ele>38</ele>
        <time>2021-04-28T11:28:54Z</time>
      </trkpt>
      <trkpt lat="51.647690000" lon="6.972540000">
        <ele>38</ele>
        <time>2021-04-28T11:28:58Z</time>
      </trkpt>
      <trkpt lat="51.647590000" lon="6.972550000">
        <ele>38</ele>
        <time>2021-04-28T11:29:00Z</time>
      </trkpt>
      <trkpt lat="51.647480000" lon="6.972590000">
        <ele>38</ele>
        <time>2021-04-28T11:29:01Z</time>
      </trkpt>
      <trkpt lat="51.647320000" lon="6.972610000">
        <ele>38</ele>
        <time>2021-04-28T11:29:04Z</time>
      </trkpt>
      <trkpt lat="51.647190000" lon="6.972610000">
        <ele>38</ele>
        <time>2021-04-28T11:29:06Z</time>
      </trkpt>
      <trkpt lat="51.647100000" lon="6.972650000">
        <ele>38</ele>
        <time>2021-04-28T11:29:07Z</time>
      </trkpt>
      <trkpt lat="51.647010000" lon="6.972680000">
        <ele>38</ele>
        <time>2021-04-28T11:29:09Z</time>
      </trkpt>
      <trkpt lat="51.646960000" lon="6.972700000">
        <ele>38</ele>
        <time>2021-04-28T11:29:10Z</time>
      </trkpt>
      <trkpt lat="51.646840000" lon="6.972750000">
        <ele>38</ele>
        <time>2021-04-28T11:29:12Z</time>
      </trkpt>
      <trkpt lat="51.646790000" lon="6.972780000">
        <ele>38</ele>
        <time>2021-04-28T11:29:13Z</time>
      </trkpt>
      <trkpt lat="51.646670000" lon="6.972830000">
        <ele>30</ele>
        <time>2021-04-28T11:29:15Z</time>
      </trkpt>
      <trkpt lat="51.646620000" lon="6.972850000">
        <ele>30</ele>
        <time>2021-04-28T11:29:16Z</time>
      </trkpt>
      <trkpt lat="51.646520000" lon="6.972900000">
        <ele>30</ele>
        <time>2021-04-28T11:29:18Z</time>
      </trkpt>
      <trkpt lat="51.646410000" lon="6.972970000">
        <ele>30</ele>
        <time>2021-04-28T11:29:20Z</time>
      </trkpt>
      <trkpt lat="51.646300000" lon="6.973030000">
        <ele>30</ele>
        <time>2021-04-28T11:29:21Z</time>
      </trkpt>
      <trkpt lat="51.646190000" lon="6.973090000">
        <ele>30</ele>
        <time>2021-04-28T11:29:23Z</time>
      </trkpt>
      <trkpt lat="51.646120000" lon="6.973110000">
        <ele>30</ele>
        <time>2021-04-28T11:29:25Z</time>
      </trkpt>
      <trkpt lat="51.646010000" lon="6.973170000">
        <ele>30</ele>
        <time>2021-04-28T11:29:27Z</time>
      </trkpt>
      <trkpt lat="51.645960000" lon="6.973200000">
        <ele>30</ele>
        <time>2021-04-28T11:29:28Z</time>
      </trkpt>
      <trkpt lat="51.645840000" lon="6.973260000">
        <ele>30</ele>
        <time>2021-04-28T11:29:29Z</time>
      </trkpt>
      <trkpt lat="51.645770000" lon="6.973300000">
        <ele>30</ele>
        <time>2021-04-28T11:29:31Z</time>
      </trkpt>
      <trkpt lat="51.645680000" lon="6.973340000">
        <ele>30</ele>
        <time>2021-04-28T11:29:32Z</time>
      </trkpt>
      <trkpt lat="51.645600000" lon="6.973380000">
        <ele>30</ele>
        <time>2021-04-28T11:29:34Z</time>
      </trkpt>
      <trkpt lat="51.645490000" lon="6.973430000">
        <ele>30</ele>
        <time>2021-04-28T11:29:36Z</time>
      </trkpt>
      <trkpt lat="51.645380000" lon="6.973490000">
        <ele>33</ele>
        <time>2021-04-28T11:29:38Z</time>
      </trkpt>
      <trkpt lat="51.645330000" lon="6.973520000">
        <ele>33</ele>
        <time>2021-04-28T11:29:39Z</time>
      </trkpt>
      <trkpt lat="51.645230000" lon="6.973560000">
        <ele>33</ele>
        <time>2021-04-28T11:29:40Z</time>
      </trkpt>
      <trkpt lat="51.645150000" lon="6.973600000">
        <ele>33</ele>
        <time>2021-04-28T11:29:42Z</time>
      </trkpt>
      <trkpt lat="51.645060000" lon="6.973650000">
        <ele>33</ele>
        <time>2021-04-28T11:29:43Z</time>
      </trkpt>
      <trkpt lat="51.645000000" lon="6.973680000">
        <ele>33</ele>
        <time>2021-04-28T11:29:44Z</time>
      </trkpt>
      <trkpt lat="51.644920000" lon="6.973710000">
        <ele>33</ele>
        <time>2021-04-28T11:29:46Z</time>
      </trkpt>
      <trkpt lat="51.644810000" lon="6.973750000">
        <ele>33</ele>
        <time>2021-04-28T11:29:48Z</time>
      </trkpt>
      <trkpt lat="51.644750000" lon="6.973760000">
        <ele>33</ele>
        <time>2021-04-28T11:29:49Z</time>
      </trkpt>
      <trkpt lat="51.644650000" lon="6.973790000">
        <ele>33</ele>
        <time>2021-04-28T11:29:51Z</time>
      </trkpt>
      <trkpt lat="51.644540000" lon="6.973840000">
        <ele>33</ele>
        <time>2021-04-28T11:29:53Z</time>
      </trkpt>
      <trkpt lat="51.644430000" lon="6.973860000">
        <ele>33</ele>
        <time>2021-04-28T11:29:55Z</time>
      </trkpt>
      <trkpt lat="51.644380000" lon="6.973870000">
        <ele>33</ele>
        <time>2021-04-28T11:29:56Z</time>
      </trkpt>
      <trkpt lat="51.644280000" lon="6.973890000">
        <ele>33</ele>
        <time>2021-04-28T11:29:58Z</time>
      </trkpt>
      <trkpt lat="51.644160000" lon="6.973900000">
        <ele>32</ele>
        <time>2021-04-28T11:30:00Z</time>
      </trkpt>
      <trkpt lat="51.644050000" lon="6.973910000">
        <ele>32</ele>
        <time>2021-04-28T11:30:02Z</time>
      </trkpt>
      <trkpt lat="51.643970000" lon="6.973930000">
        <ele>32</ele>
        <time>2021-04-28T11:30:03Z</time>
      </trkpt>
      <trkpt lat="51.643840000" lon="6.973940000">
        <ele>32</ele>
        <time>2021-04-28T11:30:05Z</time>
      </trkpt>
      <trkpt lat="51.643710000" lon="6.973940000">
        <ele>32</ele>
        <time>2021-04-28T11:30:08Z</time>
      </trkpt>
      <trkpt lat="51.643620000" lon="6.973960000">
        <ele>32</ele>
        <time>2021-04-28T11:30:09Z</time>
      </trkpt>
      <trkpt lat="51.643560000" lon="6.973960000">
        <ele>32</ele>
        <time>2021-04-28T11:30:10Z</time>
      </trkpt>
      <trkpt lat="51.643500000" lon="6.973960000">
        <ele>32</ele>
        <time>2021-04-28T11:30:11Z</time>
      </trkpt>
      <trkpt lat="51.643390000" lon="6.973980000">
        <ele>32</ele>
        <time>2021-04-28T11:30:13Z</time>
      </trkpt>
      <trkpt lat="51.643270000" lon="6.973990000">
        <ele>32</ele>
        <time>2021-04-28T11:30:15Z</time>
      </trkpt>
      <trkpt lat="51.643210000" lon="6.973990000">
        <ele>32</ele>
        <time>2021-04-28T11:30:16Z</time>
      </trkpt>
      <trkpt lat="51.643140000" lon="6.974010000">
        <ele>32</ele>
        <time>2021-04-28T11:30:18Z</time>
      </trkpt>
      <trkpt lat="51.643040000" lon="6.974060000">
        <ele>32</ele>
        <time>2021-04-28T11:30:20Z</time>
      </trkpt>
      <trkpt lat="51.642950000" lon="6.974140000">
        <ele>32</ele>
        <time>2021-04-28T11:30:21Z</time>
      </trkpt>
      <trkpt lat="51.642850000" lon="6.974280000">
        <ele>32</ele>
        <time>2021-04-28T11:30:24Z</time>
      </trkpt>
      <trkpt lat="51.642780000" lon="6.974400000">
        <ele>32</ele>
        <time>2021-04-28T11:30:25Z</time>
      </trkpt>
      <trkpt lat="51.642740000" lon="6.974480000">
        <ele>32</ele>
        <time>2021-04-28T11:30:26Z</time>
      </trkpt>
      <trkpt lat="51.642700000" lon="6.974570000">
        <ele>32</ele>
        <time>2021-04-28T11:30:28Z</time>
      </trkpt>
      <trkpt lat="51.642670000" lon="6.974640000">
        <ele>32</ele>
        <time>2021-04-28T11:30:29Z</time>
      </trkpt>
      <trkpt lat="51.642610000" lon="6.974790000">
        <ele>32</ele>
        <time>2021-04-28T11:30:30Z</time>
      </trkpt>
      <trkpt lat="51.642570000" lon="6.974870000">
        <ele>32</ele>
        <time>2021-04-28T11:30:31Z</time>
      </trkpt>
      <trkpt lat="51.642500000" lon="6.975040000">
        <ele>32</ele>
        <time>2021-04-28T11:30:34Z</time>
      </trkpt>
      <trkpt lat="51.642440000" lon="6.975190000">
        <ele>32</ele>
        <time>2021-04-28T11:30:36Z</time>
      </trkpt>
      <trkpt lat="51.642380000" lon="6.975330000">
        <ele>32</ele>
        <time>2021-04-28T11:30:38Z</time>
      </trkpt>
      <trkpt lat="51.642320000" lon="6.975460000">
        <ele>32</ele>
        <time>2021-04-28T11:30:39Z</time>
      </trkpt>
      <trkpt lat="51.642260000" lon="6.975600000">
        <ele>32</ele>
        <time>2021-04-28T11:30:41Z</time>
      </trkpt>
      <trkpt lat="51.642230000" lon="6.975660000">
        <ele>32</ele>
        <time>2021-04-28T11:30:42Z</time>
      </trkpt>
      <trkpt lat="51.642170000" lon="6.975830000">
        <ele>36</ele>
        <time>2021-04-28T11:30:44Z</time>
      </trkpt>
      <trkpt lat="51.642150000" lon="6.975900000">
        <ele>36</ele>
        <time>2021-04-28T11:30:45Z</time>
      </trkpt>
      <trkpt lat="51.642110000" lon="6.975970000">
        <ele>36</ele>
        <time>2021-04-28T11:30:46Z</time>
      </trkpt>
      <trkpt lat="51.642070000" lon="6.976040000">
        <ele>36</ele>
        <time>2021-04-28T11:30:47Z</time>
      </trkpt>
      <trkpt lat="51.642010000" lon="6.976190000">
        <ele>36</ele>
        <time>2021-04-28T11:30:49Z</time>
      </trkpt>
      <trkpt lat="51.641980000" lon="6.976260000">
        <ele>36</ele>
        <time>2021-04-28T11:30:50Z</time>
      </trkpt>
      <trkpt lat="51.641910000" lon="6.976390000">
        <ele>36</ele>
        <time>2021-04-28T11:30:52Z</time>
      </trkpt>
      <trkpt lat="51.641880000" lon="6.976450000">
        <ele>36</ele>
        <time>2021-04-28T11:30:53Z</time>
      </trkpt>
      <trkpt lat="51.641820000" lon="6.976590000">
        <ele>36</ele>
        <time>2021-04-28T11:30:55Z</time>
      </trkpt>
      <trkpt lat="51.641790000" lon="6.976670000">
        <ele>36</ele>
        <time>2021-04-28T11:30:56Z</time>
      </trkpt>
      <trkpt lat="51.641720000" lon="6.976800000">
        <ele>36</ele>
        <time>2021-04-28T11:30:58Z</time>
      </trkpt>
      <trkpt lat="51.641620000" lon="6.976870000">
        <ele>36</ele>
        <time>2021-04-28T11:31:00Z</time>
      </trkpt>
      <trkpt lat="51.641570000" lon="6.976890000">
        <ele>38</ele>
        <time>2021-04-28T11:31:01Z</time>
      </trkpt>
      <trkpt lat="51.641520000" lon="6.976910000">
        <ele>38</ele>
        <time>2021-04-28T11:31:02Z</time>
      </trkpt>
      <trkpt lat="51.641410000" lon="6.976960000">
        <ele>38</ele>
        <time>2021-04-28T11:31:04Z</time>
      </trkpt>
      <trkpt lat="51.641350000" lon="6.976990000">
        <ele>38</ele>
        <time>2021-04-28T11:31:05Z</time>
      </trkpt>
      <trkpt lat="51.641300000" lon="6.977020000">
        <ele>38</ele>
        <time>2021-04-28T11:31:06Z</time>
      </trkpt>
      <trkpt lat="51.641250000" lon="6.977050000">
        <ele>38</ele>
        <time>2021-04-28T11:31:07Z</time>
      </trkpt>
      <trkpt lat="51.641150000" lon="6.977120000">
        <ele>38</ele>
        <time>2021-04-28T11:31:09Z</time>
      </trkpt>
      <trkpt lat="51.641050000" lon="6.977170000">
        <ele>38</ele>
        <time>2021-04-28T11:31:11Z</time>
      </trkpt>
      <trkpt lat="51.640970000" lon="6.977230000">
        <ele>38</ele>
        <time>2021-04-28T11:31:13Z</time>
      </trkpt>
      <trkpt lat="51.640840000" lon="6.977310000">
        <ele>38</ele>
        <time>2021-04-28T11:31:15Z</time>
      </trkpt>
      <trkpt lat="51.640780000" lon="6.977350000">
        <ele>38</ele>
        <time>2021-04-28T11:31:16Z</time>
      </trkpt>
      <trkpt lat="51.640630000" lon="6.977400000">
        <ele>38</ele>
        <time>2021-04-28T11:31:18Z</time>
      </trkpt>
      <trkpt lat="51.640570000" lon="6.977420000">
        <ele>38</ele>
        <time>2021-04-28T11:31:19Z</time>
      </trkpt>
      <trkpt lat="51.640510000" lon="6.977450000">
        <ele>38</ele>
        <time>2021-04-28T11:31:20Z</time>
      </trkpt>
      <trkpt lat="51.640450000" lon="6.977470000">
        <ele>38</ele>
        <time>2021-04-28T11:31:21Z</time>
      </trkpt>
      <trkpt lat="51.640400000" lon="6.977490000">
        <ele>38</ele>
        <time>2021-04-28T11:31:22Z</time>
      </trkpt>
      <trkpt lat="51.640300000" lon="6.977550000">
        <ele>38</ele>
        <time>2021-04-28T11:31:24Z</time>
      </trkpt>
      <trkpt lat="51.640250000" lon="6.977570000">
        <ele>38</ele>
        <time>2021-04-28T11:31:25Z</time>
      </trkpt>
      <trkpt lat="51.640190000" lon="6.977590000">
        <ele>38</ele>
        <time>2021-04-28T11:31:26Z</time>
      </trkpt>
      <trkpt lat="51.640070000" lon="6.977660000">
        <ele>38</ele>
        <time>2021-04-28T11:31:29Z</time>
      </trkpt>
      <trkpt lat="51.640020000" lon="6.977680000">
        <ele>38</ele>
        <time>2021-04-28T11:31:30Z</time>
      </trkpt>
      <trkpt lat="51.639980000" lon="6.977700000">
        <ele>38</ele>
        <time>2021-04-28T11:31:31Z</time>
      </trkpt>
      <trkpt lat="51.639930000" lon="6.977730000">
        <ele>38</ele>
        <time>2021-04-28T11:31:32Z</time>
      </trkpt>
      <trkpt lat="51.639810000" lon="6.977790000">
        <ele>38</ele>
        <time>2021-04-28T11:31:34Z</time>
      </trkpt>
      <trkpt lat="51.639750000" lon="6.977820000">
        <ele>38</ele>
        <time>2021-04-28T11:31:35Z</time>
      </trkpt>
      <trkpt lat="51.639700000" lon="6.977850000">
        <ele>38</ele>
        <time>2021-04-28T11:31:36Z</time>
      </trkpt>
      <trkpt lat="51.639590000" lon="6.977910000">
        <ele>38</ele>
        <time>2021-04-28T11:31:38Z</time>
      </trkpt>
      <trkpt lat="51.639490000" lon="6.977970000">
        <ele>34</ele>
        <time>2021-04-28T11:31:40Z</time>
      </trkpt>
      <trkpt lat="51.639370000" lon="6.978020000">
        <ele>34</ele>
        <time>2021-04-28T11:31:42Z</time>
      </trkpt>
      <trkpt lat="51.639300000" lon="6.978060000">
        <ele>34</ele>
        <time>2021-04-28T11:31:43Z</time>
      </trkpt>
      <trkpt lat="51.639180000" lon="6.978130000">
        <ele>34</ele>
        <time>2021-04-28T11:31:45Z</time>
      </trkpt>
      <trkpt lat="51.639110000" lon="6.978160000">
        <ele>34</ele>
        <time>2021-04-28T11:31:46Z</time>
      </trkpt>
      <trkpt lat="51.639050000" lon="6.978180000">
        <ele>34</ele>
        <time>2021-04-28T11:31:47Z</time>
      </trkpt>
      <trkpt lat="51.638940000" lon="6.978220000">
        <ele>34</ele>
        <time>2021-04-28T11:31:49Z</time>
      </trkpt>
      <trkpt lat="51.638890000" lon="6.978250000">
        <ele>34</ele>
        <time>2021-04-28T11:31:50Z</time>
      </trkpt>
      <trkpt lat="51.638780000" lon="6.978310000">
        <ele>34</ele>
        <time>2021-04-28T11:31:52Z</time>
      </trkpt>
      <trkpt lat="51.638670000" lon="6.978370000">
        <ele>34</ele>
        <time>2021-04-28T11:31:54Z</time>
      </trkpt>
      <trkpt lat="51.638560000" lon="6.978440000">
        <ele>34</ele>
        <time>2021-04-28T11:31:57Z</time>
      </trkpt>
      <trkpt lat="51.638510000" lon="6.978460000">
        <ele>34</ele>
        <time>2021-04-28T11:31:58Z</time>
      </trkpt>
      <trkpt lat="51.638400000" lon="6.978490000">
        <ele>34</ele>
        <time>2021-04-28T11:32:00Z</time>
      </trkpt>
      <trkpt lat="51.638280000" lon="6.978560000">
        <ele>34</ele>
        <time>2021-04-28T11:32:02Z</time>
      </trkpt>
      <trkpt lat="51.638180000" lon="6.978610000">
        <ele>29</ele>
        <time>2021-04-28T11:32:04Z</time>
      </trkpt>
      <trkpt lat="51.638070000" lon="6.978660000">
        <ele>29</ele>
        <time>2021-04-28T11:32:06Z</time>
      </trkpt>
      <trkpt lat="51.637960000" lon="6.978720000">
        <ele>29</ele>
        <time>2021-04-28T11:32:08Z</time>
      </trkpt>
      <trkpt lat="51.637860000" lon="6.978770000">
        <ele>29</ele>
        <time>2021-04-28T11:32:09Z</time>
      </trkpt>
      <trkpt lat="51.637730000" lon="6.978830000">
        <ele>29</ele>
        <time>2021-04-28T11:32:12Z</time>
      </trkpt>
      <trkpt lat="51.637640000" lon="6.978870000">
        <ele>29</ele>
        <time>2021-04-28T11:32:13Z</time>
      </trkpt>
      <trkpt lat="51.637560000" lon="6.978910000">
        <ele>29</ele>
        <time>2021-04-28T11:32:15Z</time>
      </trkpt>
      <trkpt lat="51.637450000" lon="6.978960000">
        <ele>29</ele>
        <time>2021-04-28T11:32:17Z</time>
      </trkpt>
      <trkpt lat="51.637340000" lon="6.979010000">
        <ele>29</ele>
        <time>2021-04-28T11:32:19Z</time>
      </trkpt>
      <trkpt lat="51.637220000" lon="6.979080000">
        <ele>29</ele>
        <time>2021-04-28T11:32:21Z</time>
      </trkpt>
      <trkpt lat="51.637160000" lon="6.979110000">
        <ele>29</ele>
        <time>2021-04-28T11:32:22Z</time>
      </trkpt>
      <trkpt lat="51.637070000" lon="6.979160000">
        <ele>29</ele>
        <time>2021-04-28T11:32:23Z</time>
      </trkpt>
      <trkpt lat="51.636990000" lon="6.979190000">
        <ele>29</ele>
        <time>2021-04-28T11:32:25Z</time>
      </trkpt>
      <trkpt lat="51.636940000" lon="6.979210000">
        <ele>29</ele>
        <time>2021-04-28T11:32:26Z</time>
      </trkpt>
      <trkpt lat="51.636820000" lon="6.979260000">
        <ele>30</ele>
        <time>2021-04-28T11:32:28Z</time>
      </trkpt>
      <trkpt lat="51.636770000" lon="6.979280000">
        <ele>30</ele>
        <time>2021-04-28T11:32:29Z</time>
      </trkpt>
      <trkpt lat="51.636680000" lon="6.979330000">
        <ele>30</ele>
        <time>2021-04-28T11:32:30Z</time>
      </trkpt>
      <trkpt lat="51.636620000" lon="6.979360000">
        <ele>30</ele>
        <time>2021-04-28T11:32:31Z</time>
      </trkpt>
      <trkpt lat="51.636550000" lon="6.979390000">
        <ele>30</ele>
        <time>2021-04-28T11:32:33Z</time>
      </trkpt>
      <trkpt lat="51.636460000" lon="6.979440000">
        <ele>30</ele>
        <time>2021-04-28T11:32:34Z</time>
      </trkpt>
      <trkpt lat="51.636380000" lon="6.979470000">
        <ele>30</ele>
        <time>2021-04-28T11:32:36Z</time>
      </trkpt>
      <trkpt lat="51.636270000" lon="6.979550000">
        <ele>30</ele>
        <time>2021-04-28T11:32:38Z</time>
      </trkpt>
      <trkpt lat="51.636150000" lon="6.979630000">
        <ele>30</ele>
        <time>2021-04-28T11:32:40Z</time>
      </trkpt>
      <trkpt lat="51.636030000" lon="6.979700000">
        <ele>30</ele>
        <time>2021-04-28T11:32:42Z</time>
      </trkpt>
      <trkpt lat="51.635980000" lon="6.979720000">
        <ele>30</ele>
        <time>2021-04-28T11:32:43Z</time>
      </trkpt>
      <trkpt lat="51.635860000" lon="6.979780000">
        <ele>30</ele>
        <time>2021-04-28T11:32:45Z</time>
      </trkpt>
      <trkpt lat="51.635760000" lon="6.979830000">
        <ele>30</ele>
        <time>2021-04-28T11:32:46Z</time>
      </trkpt>
      <trkpt lat="51.635680000" lon="6.979870000">
        <ele>31</ele>
        <time>2021-04-28T11:32:48Z</time>
      </trkpt>
      <trkpt lat="51.635580000" lon="6.979920000">
        <ele>31</ele>
        <time>2021-04-28T11:32:49Z</time>
      </trkpt>
      <trkpt lat="51.635480000" lon="6.979980000">
        <ele>31</ele>
        <time>2021-04-28T11:32:51Z</time>
      </trkpt>
      <trkpt lat="51.635410000" lon="6.980020000">
        <ele>31</ele>
        <time>2021-04-28T11:32:53Z</time>
      </trkpt>
      <trkpt lat="51.635300000" lon="6.980080000">
        <ele>31</ele>
        <time>2021-04-28T11:32:54Z</time>
      </trkpt>
      <trkpt lat="51.635180000" lon="6.980150000">
        <ele>31</ele>
        <time>2021-04-28T11:32:57Z</time>
      </trkpt>
      <trkpt lat="51.635070000" lon="6.980200000">
        <ele>31</ele>
        <time>2021-04-28T11:32:59Z</time>
      </trkpt>
      <trkpt lat="51.634960000" lon="6.980270000">
        <ele>31</ele>
        <time>2021-04-28T11:33:01Z</time>
      </trkpt>
      <trkpt lat="51.634840000" lon="6.980330000">
        <ele>31</ele>
        <time>2021-04-28T11:33:03Z</time>
      </trkpt>
      <trkpt lat="51.634750000" lon="6.980390000">
        <ele>31</ele>
        <time>2021-04-28T11:33:05Z</time>
      </trkpt>
      <trkpt lat="51.634660000" lon="6.980450000">
        <ele>31</ele>
        <time>2021-04-28T11:33:07Z</time>
      </trkpt>
      <trkpt lat="51.634550000" lon="6.980510000">
        <ele>31</ele>
        <time>2021-04-28T11:33:09Z</time>
      </trkpt>
      <trkpt lat="51.634440000" lon="6.980560000">
        <ele>31</ele>
        <time>2021-04-28T11:33:10Z</time>
      </trkpt>
      <trkpt lat="51.634330000" lon="6.980610000">
        <ele>39</ele>
        <time>2021-04-28T11:33:12Z</time>
      </trkpt>
      <trkpt lat="51.634260000" lon="6.980650000">
        <ele>39</ele>
        <time>2021-04-28T11:33:14Z</time>
      </trkpt>
      <trkpt lat="51.634170000" lon="6.980700000">
        <ele>39</ele>
        <time>2021-04-28T11:33:16Z</time>
      </trkpt>
      <trkpt lat="51.634060000" lon="6.980760000">
        <ele>39</ele>
        <time>2021-04-28T11:33:18Z</time>
      </trkpt>
      <trkpt lat="51.634010000" lon="6.980780000">
        <ele>39</ele>
        <time>2021-04-28T11:33:19Z</time>
      </trkpt>
      <trkpt lat="51.633890000" lon="6.980850000">
        <ele>39</ele>
        <time>2021-04-28T11:33:21Z</time>
      </trkpt>
      <trkpt lat="51.633780000" lon="6.980900000">
        <ele>39</ele>
        <time>2021-04-28T11:33:23Z</time>
      </trkpt>
      <trkpt lat="51.633660000" lon="6.980960000">
        <ele>39</ele>
        <time>2021-04-28T11:33:25Z</time>
      </trkpt>
      <trkpt lat="51.633570000" lon="6.981010000">
        <ele>39</ele>
        <time>2021-04-28T11:33:27Z</time>
      </trkpt>
      <trkpt lat="51.633470000" lon="6.981070000">
        <ele>39</ele>
        <time>2021-04-28T11:33:29Z</time>
      </trkpt>
      <trkpt lat="51.633360000" lon="6.981120000">
        <ele>39</ele>
        <time>2021-04-28T11:33:31Z</time>
      </trkpt>
      <trkpt lat="51.633260000" lon="6.981170000">
        <ele>39</ele>
        <time>2021-04-28T11:33:32Z</time>
      </trkpt>
      <trkpt lat="51.633180000" lon="6.981220000">
        <ele>39</ele>
        <time>2021-04-28T11:33:34Z</time>
      </trkpt>
      <trkpt lat="51.633120000" lon="6.981250000">
        <ele>39</ele>
        <time>2021-04-28T11:33:35Z</time>
      </trkpt>
      <trkpt lat="51.633070000" lon="6.981270000">
        <ele>39</ele>
        <time>2021-04-28T11:33:36Z</time>
      </trkpt>
      <trkpt lat="51.633020000" lon="6.981300000">
        <ele>39</ele>
        <time>2021-04-28T11:33:37Z</time>
      </trkpt>
      <trkpt lat="51.632970000" lon="6.981320000">
        <ele>41</ele>
        <time>2021-04-28T11:33:38Z</time>
      </trkpt>
      <trkpt lat="51.632850000" lon="6.981380000">
        <ele>41</ele>
        <time>2021-04-28T11:33:40Z</time>
      </trkpt>
      <trkpt lat="51.632740000" lon="6.981420000">
        <ele>41</ele>
        <time>2021-04-28T11:33:42Z</time>
      </trkpt>
      <trkpt lat="51.632640000" lon="6.981470000">
        <ele>41</ele>
        <time>2021-04-28T11:33:44Z</time>
      </trkpt>
      <trkpt lat="51.632570000" lon="6.981500000">
        <ele>41</ele>
        <time>2021-04-28T11:33:45Z</time>
      </trkpt>
      <trkpt lat="51.632510000" lon="6.981520000">
        <ele>41</ele>
        <time>2021-04-28T11:33:46Z</time>
      </trkpt>
      <trkpt lat="51.632400000" lon="6.981550000">
        <ele>41</ele>
        <time>2021-04-28T11:33:48Z</time>
      </trkpt>
      <trkpt lat="51.632280000" lon="6.981590000">
        <ele>41</ele>
        <time>2021-04-28T11:33:50Z</time>
      </trkpt>
      <trkpt lat="51.632150000" lon="6.981630000">
        <ele>41</ele>
        <time>2021-04-28T11:33:52Z</time>
      </trkpt>
      <trkpt lat="51.632040000" lon="6.981670000">
        <ele>41</ele>
        <time>2021-04-28T11:33:53Z</time>
      </trkpt>
      <trkpt lat="51.631960000" lon="6.981710000">
        <ele>41</ele>
        <time>2021-04-28T11:33:54Z</time>
      </trkpt>
      <trkpt lat="51.631880000" lon="6.981730000">
        <ele>41</ele>
        <time>2021-04-28T11:33:56Z</time>
      </trkpt>
      <trkpt lat="51.631770000" lon="6.981780000">
        <ele>40</ele>
        <time>2021-04-28T11:33:58Z</time>
      </trkpt>
      <trkpt lat="51.631660000" lon="6.981820000">
        <ele>40</ele>
        <time>2021-04-28T11:34:00Z</time>
      </trkpt>
      <trkpt lat="51.631550000" lon="6.981870000">
        <ele>40</ele>
        <time>2021-04-28T11:34:02Z</time>
      </trkpt>
      <trkpt lat="51.631430000" lon="6.981920000">
        <ele>40</ele>
        <time>2021-04-28T11:34:04Z</time>
      </trkpt>
      <trkpt lat="51.631320000" lon="6.981960000">
        <ele>40</ele>
        <time>2021-04-28T11:34:06Z</time>
      </trkpt>
      <trkpt lat="51.631270000" lon="6.981970000">
        <ele>40</ele>
        <time>2021-04-28T11:34:07Z</time>
      </trkpt>
      <trkpt lat="51.631150000" lon="6.982010000">
        <ele>40</ele>
        <time>2021-04-28T11:34:09Z</time>
      </trkpt>
      <trkpt lat="51.631030000" lon="6.982050000">
        <ele>40</ele>
        <time>2021-04-28T11:34:11Z</time>
      </trkpt>
      <trkpt lat="51.630930000" lon="6.982090000">
        <ele>40</ele>
        <time>2021-04-28T11:34:12Z</time>
      </trkpt>
      <trkpt lat="51.630830000" lon="6.982150000">
        <ele>40</ele>
        <time>2021-04-28T11:34:14Z</time>
      </trkpt>
      <trkpt lat="51.630760000" lon="6.982180000">
        <ele>40</ele>
        <time>2021-04-28T11:34:16Z</time>
      </trkpt>
      <trkpt lat="51.630650000" lon="6.982220000">
        <ele>40</ele>
        <time>2021-04-28T11:34:18Z</time>
      </trkpt>
      <trkpt lat="51.630600000" lon="6.982250000">
        <ele>40</ele>
        <time>2021-04-28T11:34:19Z</time>
      </trkpt>
      <trkpt lat="51.630540000" lon="6.982270000">
        <ele>40</ele>
        <time>2021-04-28T11:34:20Z</time>
      </trkpt>
      <trkpt lat="51.630430000" lon="6.982310000">
        <ele>35</ele>
        <time>2021-04-28T11:34:21Z</time>
      </trkpt>
      <trkpt lat="51.630350000" lon="6.982340000">
        <ele>35</ele>
        <time>2021-04-28T11:34:23Z</time>
      </trkpt>
      <trkpt lat="51.630250000" lon="6.982390000">
        <ele>35</ele>
        <time>2021-04-28T11:34:25Z</time>
      </trkpt>
      <trkpt lat="51.630190000" lon="6.982420000">
        <ele>35</ele>
        <time>2021-04-28T11:34:26Z</time>
      </trkpt>
      <trkpt lat="51.630080000" lon="6.982470000">
        <ele>35</ele>
        <time>2021-04-28T11:34:28Z</time>
      </trkpt>
      <trkpt lat="51.629960000" lon="6.982510000">
        <ele>35</ele>
        <time>2021-04-28T11:34:30Z</time>
      </trkpt>
      <trkpt lat="51.629900000" lon="6.982540000">
        <ele>35</ele>
        <time>2021-04-28T11:34:31Z</time>
      </trkpt>
      <trkpt lat="51.629850000" lon="6.982560000">
        <ele>35</ele>
        <time>2021-04-28T11:34:32Z</time>
      </trkpt>
      <trkpt lat="51.629790000" lon="6.982580000">
        <ele>35</ele>
        <time>2021-04-28T11:34:33Z</time>
      </trkpt>
      <trkpt lat="51.629690000" lon="6.982610000">
        <ele>35</ele>
        <time>2021-04-28T11:34:34Z</time>
      </trkpt>
      <trkpt lat="51.629560000" lon="6.982670000">
        <ele>35</ele>
        <time>2021-04-28T11:34:37Z</time>
      </trkpt>
      <trkpt lat="51.629450000" lon="6.982710000">
        <ele>35</ele>
        <time>2021-04-28T11:34:39Z</time>
      </trkpt>
      <trkpt lat="51.629340000" lon="6.982760000">
        <ele>39</ele>
        <time>2021-04-28T11:34:41Z</time>
      </trkpt>
      <trkpt lat="51.629280000" lon="6.982780000">
        <ele>39</ele>
        <time>2021-04-28T11:34:42Z</time>
      </trkpt>
      <trkpt lat="51.629160000" lon="6.982830000">
        <ele>39</ele>
        <time>2021-04-28T11:34:44Z</time>
      </trkpt>
      <trkpt lat="51.629050000" lon="6.982870000">
        <ele>39</ele>
        <time>2021-04-28T11:34:46Z</time>
      </trkpt>
      <trkpt lat="51.628930000" lon="6.982910000">
        <ele>39</ele>
        <time>2021-04-28T11:34:48Z</time>
      </trkpt>
      <trkpt lat="51.628810000" lon="6.982960000">
        <ele>39</ele>
        <time>2021-04-28T11:34:50Z</time>
      </trkpt>
      <trkpt lat="51.628700000" lon="6.983000000">
        <ele>39</ele>
        <time>2021-04-28T11:34:52Z</time>
      </trkpt>
      <trkpt lat="51.628580000" lon="6.983060000">
        <ele>39</ele>
        <time>2021-04-28T11:34:54Z</time>
      </trkpt>
      <trkpt lat="51.628480000" lon="6.983100000">
        <ele>39</ele>
        <time>2021-04-28T11:34:55Z</time>
      </trkpt>
      <trkpt lat="51.628350000" lon="6.983150000">
        <ele>39</ele>
        <time>2021-04-28T11:34:58Z</time>
      </trkpt>
      <trkpt lat="51.628240000" lon="6.983180000">
        <ele>39</ele>
        <time>2021-04-28T11:35:00Z</time>
      </trkpt>
      <trkpt lat="51.628130000" lon="6.983230000">
        <ele>39</ele>
        <time>2021-04-28T11:35:02Z</time>
      </trkpt>
      <trkpt lat="51.628080000" lon="6.983250000">
        <ele>39</ele>
        <time>2021-04-28T11:35:03Z</time>
      </trkpt>
      <trkpt lat="51.627970000" lon="6.983290000">
        <ele>39</ele>
        <time>2021-04-28T11:35:05Z</time>
      </trkpt>
      <trkpt lat="51.627850000" lon="6.983340000">
        <ele>36</ele>
        <time>2021-04-28T11:35:07Z</time>
      </trkpt>
      <trkpt lat="51.627810000" lon="6.983360000">
        <ele>36</ele>
        <time>2021-04-28T11:35:08Z</time>
      </trkpt>
      <trkpt lat="51.627700000" lon="6.983400000">
        <ele>36</ele>
        <time>2021-04-28T11:35:10Z</time>
      </trkpt>
      <trkpt lat="51.627600000" lon="6.983490000">
        <ele>36</ele>
        <time>2021-04-28T11:35:12Z</time>
      </trkpt>
      <trkpt lat="51.627510000" lon="6.983620000">
        <ele>36</ele>
        <time>2021-04-28T11:35:14Z</time>
      </trkpt>
      <trkpt lat="51.627450000" lon="6.983750000">
        <ele>36</ele>
        <time>2021-04-28T11:35:15Z</time>
      </trkpt>
      <trkpt lat="51.627360000" lon="6.983940000">
        <ele>36</ele>
        <time>2021-04-28T11:35:18Z</time>
      </trkpt>
      <trkpt lat="51.627300000" lon="6.984080000">
        <ele>36</ele>
        <time>2021-04-28T11:35:20Z</time>
      </trkpt>
      <trkpt lat="51.627230000" lon="6.984250000">
        <ele>36</ele>
        <time>2021-04-28T11:35:22Z</time>
      </trkpt>
      <trkpt lat="51.627190000" lon="6.984330000">
        <ele>36</ele>
        <time>2021-04-28T11:35:23Z</time>
      </trkpt>
      <trkpt lat="51.627120000" lon="6.984490000">
        <ele>36</ele>
        <time>2021-04-28T11:35:25Z</time>
      </trkpt>
      <trkpt lat="51.627070000" lon="6.984620000">
        <ele>36</ele>
        <time>2021-04-28T11:35:26Z</time>
      </trkpt>
      <trkpt lat="51.627020000" lon="6.984720000">
        <ele>36</ele>
        <time>2021-04-28T11:35:28Z</time>
      </trkpt>
      <trkpt lat="51.626990000" lon="6.984790000">
        <ele>36</ele>
        <time>2021-04-28T11:35:29Z</time>
      </trkpt>
      <trkpt lat="51.626940000" lon="6.984920000">
        <ele>39</ele>
        <time>2021-04-28T11:35:30Z</time>
      </trkpt>
      <trkpt lat="51.626900000" lon="6.985020000">
        <ele>39</ele>
        <time>2021-04-28T11:35:32Z</time>
      </trkpt>
      <trkpt lat="51.626840000" lon="6.985140000">
        <ele>39</ele>
        <time>2021-04-28T11:35:33Z</time>
      </trkpt>
      <trkpt lat="51.626810000" lon="6.985230000">
        <ele>39</ele>
        <time>2021-04-28T11:35:34Z</time>
      </trkpt>
      <trkpt lat="51.626730000" lon="6.985390000">
        <ele>39</ele>
        <time>2021-04-28T11:35:36Z</time>
      </trkpt>
      <trkpt lat="51.626680000" lon="6.985530000">
        <ele>39</ele>
        <time>2021-04-28T11:35:38Z</time>
      </trkpt>
      <trkpt lat="51.626640000" lon="6.985630000">
        <ele>39</ele>
        <time>2021-04-28T11:35:40Z</time>
      </trkpt>
      <trkpt lat="51.626580000" lon="6.985790000">
        <ele>39</ele>
        <time>2021-04-28T11:35:42Z</time>
      </trkpt>
      <trkpt lat="51.626510000" lon="6.985940000">
        <ele>39</ele>
        <time>2021-04-28T11:35:44Z</time>
      </trkpt>
      <trkpt lat="51.626460000" lon="6.986080000">
        <ele>39</ele>
        <time>2021-04-28T11:35:45Z</time>
      </trkpt>
      <trkpt lat="51.626420000" lon="6.986160000">
        <ele>39</ele>
        <time>2021-04-28T11:35:47Z</time>
      </trkpt>
      <trkpt lat="51.626390000" lon="6.986230000">
        <ele>39</ele>
        <time>2021-04-28T11:35:48Z</time>
      </trkpt>
      <trkpt lat="51.626320000" lon="6.986390000">
        <ele>39</ele>
        <time>2021-04-28T11:35:50Z</time>
      </trkpt>
      <trkpt lat="51.626280000" lon="6.986460000">
        <ele>39</ele>
        <time>2021-04-28T11:35:51Z</time>
      </trkpt>
      <trkpt lat="51.626200000" lon="6.986610000">
        <ele>39</ele>
        <time>2021-04-28T11:35:53Z</time>
      </trkpt>
      <trkpt lat="51.626110000" lon="6.986720000">
        <ele>39</ele>
        <time>2021-04-28T11:35:55Z</time>
      </trkpt>
      <trkpt lat="51.626030000" lon="6.986840000">
        <ele>39</ele>
        <time>2021-04-28T11:35:56Z</time>
      </trkpt>
      <trkpt lat="51.625950000" lon="6.986970000">
        <ele>39</ele>
        <time>2021-04-28T11:35:58Z</time>
      </trkpt>
      <trkpt lat="51.625890000" lon="6.987040000">
        <ele>39</ele>
        <time>2021-04-28T11:36:00Z</time>
      </trkpt>
      <trkpt lat="51.625830000" lon="6.987160000">
        <ele>39</ele>
        <time>2021-04-28T11:36:02Z</time>
      </trkpt>
      <trkpt lat="51.625790000" lon="6.987220000">
        <ele>39</ele>
        <time>2021-04-28T11:36:03Z</time>
      </trkpt>
      <trkpt lat="51.625710000" lon="6.987350000">
        <ele>39</ele>
        <time>2021-04-28T11:36:05Z</time>
      </trkpt>
      <trkpt lat="51.625650000" lon="6.987450000">
        <ele>39</ele>
        <time>2021-04-28T11:36:06Z</time>
      </trkpt>
      <trkpt lat="51.625590000" lon="6.987540000">
        <ele>39</ele>
        <time>2021-04-28T11:36:08Z</time>
      </trkpt>
      <trkpt lat="51.625490000" lon="6.987660000">
        <ele>39</ele>
        <time>2021-04-28T11:36:10Z</time>
      </trkpt>
      <trkpt lat="51.625410000" lon="6.987760000">
        <ele>39</ele>
        <time>2021-04-28T11:36:12Z</time>
      </trkpt>
      <trkpt lat="51.625320000" lon="6.987890000">
        <ele>44</ele>
        <time>2021-04-28T11:36:14Z</time>
      </trkpt>
      <trkpt lat="51.625270000" lon="6.987950000">
        <ele>44</ele>
        <time>2021-04-28T11:36:15Z</time>
      </trkpt>
      <trkpt lat="51.625180000" lon="6.988080000">
        <ele>44</ele>
        <time>2021-04-28T11:36:17Z</time>
      </trkpt>
      <trkpt lat="51.625110000" lon="6.988180000">
        <ele>44</ele>
        <time>2021-04-28T11:36:18Z</time>
      </trkpt>
      <trkpt lat="51.625060000" lon="6.988240000">
        <ele>44</ele>
        <time>2021-04-28T11:36:19Z</time>
      </trkpt>
      <trkpt lat="51.625000000" lon="6.988320000">
        <ele>44</ele>
        <time>2021-04-28T11:36:21Z</time>
      </trkpt>
      <trkpt lat="51.624920000" lon="6.988430000">
        <ele>44</ele>
        <time>2021-04-28T11:36:23Z</time>
      </trkpt>
      <trkpt lat="51.624830000" lon="6.988540000">
        <ele>44</ele>
        <time>2021-04-28T11:36:25Z</time>
      </trkpt>
      <trkpt lat="51.624750000" lon="6.988660000">
        <ele>44</ele>
        <time>2021-04-28T11:36:26Z</time>
      </trkpt>
      <trkpt lat="51.624720000" lon="6.988730000">
        <ele>44</ele>
        <time>2021-04-28T11:36:28Z</time>
      </trkpt>
      <trkpt lat="51.624660000" lon="6.988790000">
        <ele>44</ele>
        <time>2021-04-28T11:36:29Z</time>
      </trkpt>
      <trkpt lat="51.624580000" lon="6.988870000">
        <ele>44</ele>
        <time>2021-04-28T11:36:30Z</time>
      </trkpt>
      <trkpt lat="51.624530000" lon="6.988920000">
        <ele>44</ele>
        <time>2021-04-28T11:36:32Z</time>
      </trkpt>
      <trkpt lat="51.624430000" lon="6.989050000">
        <ele>44</ele>
        <time>2021-04-28T11:36:34Z</time>
      </trkpt>
      <trkpt lat="51.624330000" lon="6.989190000">
        <ele>47</ele>
        <time>2021-04-28T11:36:36Z</time>
      </trkpt>
      <trkpt lat="51.624250000" lon="6.989310000">
        <ele>47</ele>
        <time>2021-04-28T11:36:37Z</time>
      </trkpt>
      <trkpt lat="51.624140000" lon="6.989450000">
        <ele>47</ele>
        <time>2021-04-28T11:36:39Z</time>
      </trkpt>
      <trkpt lat="51.624080000" lon="6.989520000">
        <ele>47</ele>
        <time>2021-04-28T11:36:41Z</time>
      </trkpt>
      <trkpt lat="51.623970000" lon="6.989680000">
        <ele>47</ele>
        <time>2021-04-28T11:36:44Z</time>
      </trkpt>
      <trkpt lat="51.623920000" lon="6.989750000">
        <ele>47</ele>
        <time>2021-04-28T11:36:45Z</time>
      </trkpt>
      <trkpt lat="51.623830000" lon="6.989880000">
        <ele>47</ele>
        <time>2021-04-28T11:36:47Z</time>
      </trkpt>
      <trkpt lat="51.623740000" lon="6.990010000">
        <ele>47</ele>
        <time>2021-04-28T11:36:49Z</time>
      </trkpt>
      <trkpt lat="51.623690000" lon="6.990070000">
        <ele>47</ele>
        <time>2021-04-28T11:36:50Z</time>
      </trkpt>
      <trkpt lat="51.623620000" lon="6.990190000">
        <ele>47</ele>
        <time>2021-04-28T11:36:52Z</time>
      </trkpt>
      <trkpt lat="51.623570000" lon="6.990250000">
        <ele>47</ele>
        <time>2021-04-28T11:36:53Z</time>
      </trkpt>
      <trkpt lat="51.623530000" lon="6.990300000">
        <ele>47</ele>
        <time>2021-04-28T11:36:54Z</time>
      </trkpt>
      <trkpt lat="51.623450000" lon="6.990440000">
        <ele>47</ele>
        <time>2021-04-28T11:36:56Z</time>
      </trkpt>
      <trkpt lat="51.623410000" lon="6.990510000">
        <ele>47</ele>
        <time>2021-04-28T11:36:57Z</time>
      </trkpt>
      <trkpt lat="51.623330000" lon="6.990620000">
        <ele>42</ele>
        <time>2021-04-28T11:36:58Z</time>
      </trkpt>
      <trkpt lat="51.623240000" lon="6.990750000">
        <ele>42</ele>
        <time>2021-04-28T11:37:00Z</time>
      </trkpt>
      <trkpt lat="51.623200000" lon="6.990830000">
        <ele>42</ele>
        <time>2021-04-28T11:37:02Z</time>
      </trkpt>
      <trkpt lat="51.623140000" lon="6.990960000">
        <ele>42</ele>
        <time>2021-04-28T11:37:03Z</time>
      </trkpt>
      <trkpt lat="51.623100000" lon="6.991040000">
        <ele>42</ele>
        <time>2021-04-28T11:37:05Z</time>
      </trkpt>
      <trkpt lat="51.623020000" lon="6.991220000">
        <ele>42</ele>
        <time>2021-04-28T11:37:07Z</time>
      </trkpt>
      <trkpt lat="51.622980000" lon="6.991360000">
        <ele>42</ele>
        <time>2021-04-28T11:37:09Z</time>
      </trkpt>
      <trkpt lat="51.622920000" lon="6.991530000">
        <ele>42</ele>
        <time>2021-04-28T11:37:11Z</time>
      </trkpt>
      <trkpt lat="51.622860000" lon="6.991660000">
        <ele>42</ele>
        <time>2021-04-28T11:37:12Z</time>
      </trkpt>
      <trkpt lat="51.622810000" lon="6.991760000">
        <ele>42</ele>
        <time>2021-04-28T11:37:14Z</time>
      </trkpt>
      <trkpt lat="51.622770000" lon="6.991850000">
        <ele>42</ele>
        <time>2021-04-28T11:37:15Z</time>
      </trkpt>
      <trkpt lat="51.622710000" lon="6.992030000">
        <ele>42</ele>
        <time>2021-04-28T11:37:17Z</time>
      </trkpt>
      <trkpt lat="51.622660000" lon="6.992200000">
        <ele>46</ele>
        <time>2021-04-28T11:37:18Z</time>
      </trkpt>
      <trkpt lat="51.622630000" lon="6.992360000">
        <ele>46</ele>
        <time>2021-04-28T11:37:20Z</time>
      </trkpt>
      <trkpt lat="51.622610000" lon="6.992490000">
        <ele>46</ele>
        <time>2021-04-28T11:37:22Z</time>
      </trkpt>
      <trkpt lat="51.622590000" lon="6.992570000">
        <ele>46</ele>
        <time>2021-04-28T11:37:23Z</time>
      </trkpt>
      <trkpt lat="51.622550000" lon="6.992740000">
        <ele>46</ele>
        <time>2021-04-28T11:37:25Z</time>
      </trkpt>
      <trkpt lat="51.622510000" lon="6.992930000">
        <ele>46</ele>
        <time>2021-04-28T11:37:27Z</time>
      </trkpt>
      <trkpt lat="51.622470000" lon="6.993120000">
        <ele>46</ele>
        <time>2021-04-28T11:37:29Z</time>
      </trkpt>
      <trkpt lat="51.622430000" lon="6.993290000">
        <ele>46</ele>
        <time>2021-04-28T11:37:31Z</time>
      </trkpt>
      <trkpt lat="51.622410000" lon="6.993370000">
        <ele>46</ele>
        <time>2021-04-28T11:37:32Z</time>
      </trkpt>
      <trkpt lat="51.622380000" lon="6.993460000">
        <ele>46</ele>
        <time>2021-04-28T11:37:33Z</time>
      </trkpt>
      <trkpt lat="51.622330000" lon="6.993630000">
        <ele>46</ele>
        <time>2021-04-28T11:37:35Z</time>
      </trkpt>
      <trkpt lat="51.622290000" lon="6.993810000">
        <ele>46</ele>
        <time>2021-04-28T11:37:37Z</time>
      </trkpt>
      <trkpt lat="51.622230000" lon="6.993960000">
        <ele>46</ele>
        <time>2021-04-28T11:37:39Z</time>
      </trkpt>
      <trkpt lat="51.622180000" lon="6.994080000">
        <ele>46</ele>
        <time>2021-04-28T11:37:40Z</time>
      </trkpt>
      <trkpt lat="51.622140000" lon="6.994160000">
        <ele>46</ele>
        <time>2021-04-28T11:37:41Z</time>
      </trkpt>
      <trkpt lat="51.622090000" lon="6.994260000">
        <ele>45</ele>
        <time>2021-04-28T11:37:43Z</time>
      </trkpt>
      <trkpt lat="51.622000000" lon="6.994400000">
        <ele>45</ele>
        <time>2021-04-28T11:37:45Z</time>
      </trkpt>
      <trkpt lat="51.621970000" lon="6.994470000">
        <ele>45</ele>
        <time>2021-04-28T11:37:46Z</time>
      </trkpt>
      <trkpt lat="51.621940000" lon="6.994540000">
        <ele>45</ele>
        <time>2021-04-28T11:37:47Z</time>
      </trkpt>
      <trkpt lat="51.621910000" lon="6.994620000">
        <ele>45</ele>
        <time>2021-04-28T11:37:48Z</time>
      </trkpt>
      <trkpt lat="51.621860000" lon="6.994800000">
        <ele>45</ele>
        <time>2021-04-28T11:37:50Z</time>
      </trkpt>
      <trkpt lat="51.621810000" lon="6.994950000">
        <ele>45</ele>
        <time>2021-04-28T11:37:52Z</time>
      </trkpt>
      <trkpt lat="51.621760000" lon="6.995040000">
        <ele>45</ele>
        <time>2021-04-28T11:37:53Z</time>
      </trkpt>
      <trkpt lat="51.621720000" lon="6.995200000">
        <ele>45</ele>
        <time>2021-04-28T11:37:55Z</time>
      </trkpt>
      <trkpt lat="51.621670000" lon="6.995380000">
        <ele>45</ele>
        <time>2021-04-28T11:37:57Z</time>
      </trkpt>
      <trkpt lat="51.621650000" lon="6.995470000">
        <ele>45</ele>
        <time>2021-04-28T11:37:58Z</time>
      </trkpt>
      <trkpt lat="51.621610000" lon="6.995650000">
        <ele>45</ele>
        <time>2021-04-28T11:38:00Z</time>
      </trkpt>
      <trkpt lat="51.621550000" lon="6.995790000">
        <ele>50</ele>
        <time>2021-04-28T11:38:01Z</time>
      </trkpt>
      <trkpt lat="51.621450000" lon="6.995980000">
        <ele>50</ele>
        <time>2021-04-28T11:38:04Z</time>
      </trkpt>
      <trkpt lat="51.621370000" lon="6.996120000">
        <ele>50</ele>
        <time>2021-04-28T11:38:06Z</time>
      </trkpt>
      <trkpt lat="51.621300000" lon="6.996290000">
        <ele>50</ele>
        <time>2021-04-28T11:38:08Z</time>
      </trkpt>
      <trkpt lat="51.621250000" lon="6.996430000">
        <ele>50</ele>
        <time>2021-04-28T11:38:10Z</time>
      </trkpt>
      <trkpt lat="51.621210000" lon="6.996510000">
        <ele>50</ele>
        <time>2021-04-28T11:38:11Z</time>
      </trkpt>
      <trkpt lat="51.621140000" lon="6.996670000">
        <ele>50</ele>
        <time>2021-04-28T11:38:13Z</time>
      </trkpt>
      <trkpt lat="51.621070000" lon="6.996810000">
        <ele>50</ele>
        <time>2021-04-28T11:38:15Z</time>
      </trkpt>
      <trkpt lat="51.620990000" lon="6.996940000">
        <ele>50</ele>
        <time>2021-04-28T11:38:17Z</time>
      </trkpt>
      <trkpt lat="51.620900000" lon="6.997040000">
        <ele>50</ele>
        <time>2021-04-28T11:38:19Z</time>
      </trkpt>
      <trkpt lat="51.620810000" lon="6.997120000">
        <ele>50</ele>
        <time>2021-04-28T11:38:20Z</time>
      </trkpt>
      <trkpt lat="51.620710000" lon="6.997210000">
        <ele>50</ele>
        <time>2021-04-28T11:38:22Z</time>
      </trkpt>
      <trkpt lat="51.620650000" lon="6.997260000">
        <ele>50</ele>
        <time>2021-04-28T11:38:24Z</time>
      </trkpt>
      <trkpt lat="51.620600000" lon="6.997300000">
        <ele>50</ele>
        <time>2021-04-28T11:38:25Z</time>
      </trkpt>
      <trkpt lat="51.620520000" lon="6.997390000">
        <ele>43</ele>
        <time>2021-04-28T11:38:27Z</time>
      </trkpt>
      <trkpt lat="51.620410000" lon="6.997490000">
        <ele>43</ele>
        <time>2021-04-28T11:38:29Z</time>
      </trkpt>
      <trkpt lat="51.620350000" lon="6.997540000">
        <ele>43</ele>
        <time>2021-04-28T11:38:30Z</time>
      </trkpt>
      <trkpt lat="51.620300000" lon="6.997590000">
        <ele>43</ele>
        <time>2021-04-28T11:38:31Z</time>
      </trkpt>
      <trkpt lat="51.620200000" lon="6.997670000">
        <ele>43</ele>
        <time>2021-04-28T11:38:33Z</time>
      </trkpt>
      <trkpt lat="51.620090000" lon="6.997770000">
        <ele>43</ele>
        <time>2021-04-28T11:38:34Z</time>
      </trkpt>
      <trkpt lat="51.620030000" lon="6.997810000">
        <ele>43</ele>
        <time>2021-04-28T11:38:36Z</time>
      </trkpt>
      <trkpt lat="51.619940000" lon="6.997870000">
        <ele>43</ele>
        <time>2021-04-28T11:38:38Z</time>
      </trkpt>
      <trkpt lat="51.619840000" lon="6.997880000">
        <ele>43</ele>
        <time>2021-04-28T11:38:40Z</time>
      </trkpt>
      <trkpt lat="51.619740000" lon="6.997850000">
        <ele>43</ele>
        <time>2021-04-28T11:38:41Z</time>
      </trkpt>
      <trkpt lat="51.619640000" lon="6.997810000">
        <ele>43</ele>
        <time>2021-04-28T11:38:43Z</time>
      </trkpt>
      <trkpt lat="51.619580000" lon="6.997790000">
        <ele>43</ele>
        <time>2021-04-28T11:38:44Z</time>
      </trkpt>
      <trkpt lat="51.619510000" lon="6.997770000">
        <ele>43</ele>
        <time>2021-04-28T11:38:46Z</time>
      </trkpt>
      <trkpt lat="51.619460000" lon="6.997750000">
        <ele>43</ele>
        <time>2021-04-28T11:38:47Z</time>
      </trkpt>
      <trkpt lat="51.619400000" lon="6.997740000">
        <ele>43</ele>
        <time>2021-04-28T11:38:48Z</time>
      </trkpt>
      <trkpt lat="51.619350000" lon="6.997710000">
        <ele>37</ele>
        <time>2021-04-28T11:38:49Z</time>
      </trkpt>
      <trkpt lat="51.619250000" lon="6.997670000">
        <ele>37</ele>
        <time>2021-04-28T11:38:50Z</time>
      </trkpt>
      <trkpt lat="51.619190000" lon="6.997650000">
        <ele>37</ele>
        <time>2021-04-28T11:38:52Z</time>
      </trkpt>
      <trkpt lat="51.619130000" lon="6.997640000">
        <ele>37</ele>
        <time>2021-04-28T11:38:53Z</time>
      </trkpt>
      <trkpt lat="51.619030000" lon="6.997580000">
        <ele>37</ele>
        <time>2021-04-28T11:38:55Z</time>
      </trkpt>
      <trkpt lat="51.618930000" lon="6.997520000">
        <ele>37</ele>
        <time>2021-04-28T11:38:57Z</time>
      </trkpt>
      <trkpt lat="51.618850000" lon="6.997470000">
        <ele>37</ele>
        <time>2021-04-28T11:38:58Z</time>
      </trkpt>
      <trkpt lat="51.618790000" lon="6.997430000">
        <ele>37</ele>
        <time>2021-04-28T11:39:00Z</time>
      </trkpt>
      <trkpt lat="51.618690000" lon="6.997370000">
        <ele>37</ele>
        <time>2021-04-28T11:39:02Z</time>
      </trkpt>
      <trkpt lat="51.618590000" lon="6.997290000">
        <ele>37</ele>
        <time>2021-04-28T11:39:03Z</time>
      </trkpt>
      <trkpt lat="51.618520000" lon="6.997220000">
        <ele>37</ele>
        <time>2021-04-28T11:39:04Z</time>
      </trkpt>
      <trkpt lat="51.618460000" lon="6.997160000">
        <ele>37</ele>
        <time>2021-04-28T11:39:06Z</time>
      </trkpt>
      <trkpt lat="51.618350000" lon="6.997070000">
        <ele>52</ele>
        <time>2021-04-28T11:39:08Z</time>
      </trkpt>
      <trkpt lat="51.618260000" lon="6.997030000">
        <ele>52</ele>
        <time>2021-04-28T11:39:10Z</time>
      </trkpt>
      <trkpt lat="51.618160000" lon="6.997030000">
        <ele>52</ele>
        <time>2021-04-28T11:39:12Z</time>
      </trkpt>
      <trkpt lat="51.618060000" lon="6.997020000">
        <ele>52</ele>
        <time>2021-04-28T11:39:14Z</time>
      </trkpt>
      <trkpt lat="51.618010000" lon="6.997030000">
        <ele>52</ele>
        <time>2021-04-28T11:39:15Z</time>
      </trkpt>
      <trkpt lat="51.617920000" lon="6.997030000">
        <ele>52</ele>
        <time>2021-04-28T11:39:17Z</time>
      </trkpt>
      <trkpt lat="51.617790000" lon="6.997040000">
        <ele>52</ele>
        <time>2021-04-28T11:39:19Z</time>
      </trkpt>
      <trkpt lat="51.617680000" lon="6.997060000">
        <ele>52</ele>
        <time>2021-04-28T11:39:21Z</time>
      </trkpt>
      <trkpt lat="51.617540000" lon="6.997070000">
        <ele>52</ele>
        <time>2021-04-28T11:39:23Z</time>
      </trkpt>
      <trkpt lat="51.617440000" lon="6.997080000">
        <ele>52</ele>
        <time>2021-04-28T11:39:24Z</time>
      </trkpt>
      <trkpt lat="51.617350000" lon="6.997100000">
        <ele>52</ele>
        <time>2021-04-28T11:39:25Z</time>
      </trkpt>
      <trkpt lat="51.617260000" lon="6.997110000">
        <ele>52</ele>
        <time>2021-04-28T11:39:27Z</time>
      </trkpt>
      <trkpt lat="51.617160000" lon="6.997110000">
        <ele>52</ele>
        <time>2021-04-28T11:39:28Z</time>
      </trkpt>
      <trkpt lat="51.617080000" lon="6.997090000">
        <ele>52</ele>
        <time>2021-04-28T11:39:30Z</time>
      </trkpt>
      <trkpt lat="51.616950000" lon="6.997040000">
        <ele>52</ele>
        <time>2021-04-28T11:39:32Z</time>
      </trkpt>
      <trkpt lat="51.616840000" lon="6.996970000">
        <ele>52</ele>
        <time>2021-04-28T11:39:34Z</time>
      </trkpt>
      <trkpt lat="51.616740000" lon="6.996890000">
        <ele>52</ele>
        <time>2021-04-28T11:39:36Z</time>
      </trkpt>
      <trkpt lat="51.616630000" lon="6.996830000">
        <ele>52</ele>
        <time>2021-04-28T11:39:37Z</time>
      </trkpt>
      <trkpt lat="51.616550000" lon="6.996790000">
        <ele>52</ele>
        <time>2021-04-28T11:39:39Z</time>
      </trkpt>
      <trkpt lat="51.616420000" lon="6.996760000">
        <ele>52</ele>
        <time>2021-04-28T11:39:41Z</time>
      </trkpt>
      <trkpt lat="51.616370000" lon="6.996750000">
        <ele>52</ele>
        <time>2021-04-28T11:39:42Z</time>
      </trkpt>
      <trkpt lat="51.616310000" lon="6.996750000">
        <ele>52</ele>
        <time>2021-04-28T11:39:43Z</time>
      </trkpt>
      <trkpt lat="51.616210000" lon="6.996740000">
        <ele>52</ele>
        <time>2021-04-28T11:39:44Z</time>
      </trkpt>
      <trkpt lat="51.616150000" lon="6.996730000">
        <ele>52</ele>
        <time>2021-04-28T11:39:45Z</time>
      </trkpt>
      <trkpt lat="51.616080000" lon="6.996730000">
        <ele>52</ele>
        <time>2021-04-28T11:39:47Z</time>
      </trkpt>
      <trkpt lat="51.615970000" lon="6.996720000">
        <ele>52</ele>
        <time>2021-04-28T11:39:49Z</time>
      </trkpt>
      <trkpt lat="51.615870000" lon="6.996720000">
        <ele>52</ele>
        <time>2021-04-28T11:39:51Z</time>
      </trkpt>
      <trkpt lat="51.615760000" lon="6.996740000">
        <ele>53</ele>
        <time>2021-04-28T11:39:53Z</time>
      </trkpt>
      <trkpt lat="51.615640000" lon="6.996740000">
        <ele>53</ele>
        <time>2021-04-28T11:39:55Z</time>
      </trkpt>
      <trkpt lat="51.615530000" lon="6.996750000">
        <ele>53</ele>
        <time>2021-04-28T11:39:57Z</time>
      </trkpt>
      <trkpt lat="51.615430000" lon="6.996780000">
        <ele>53</ele>
        <time>2021-04-28T11:39:58Z</time>
      </trkpt>
      <trkpt lat="51.615280000" lon="6.996810000">
        <ele>53</ele>
        <time>2021-04-28T11:40:01Z</time>
      </trkpt>
      <trkpt lat="51.615230000" lon="6.996810000">
        <ele>53</ele>
        <time>2021-04-28T11:40:02Z</time>
      </trkpt>
      <trkpt lat="51.615120000" lon="6.996830000">
        <ele>53</ele>
        <time>2021-04-28T11:40:04Z</time>
      </trkpt>
      <trkpt lat="51.615020000" lon="6.996850000">
        <ele>53</ele>
        <time>2021-04-28T11:40:05Z</time>
      </trkpt>
      <trkpt lat="51.614960000" lon="6.996870000">
        <ele>53</ele>
        <time>2021-04-28T11:40:06Z</time>
      </trkpt>
      <trkpt lat="51.614890000" lon="6.996890000">
        <ele>53</ele>
        <time>2021-04-28T11:40:08Z</time>
      </trkpt>
      <trkpt lat="51.614780000" lon="6.996890000">
        <ele>53</ele>
        <time>2021-04-28T11:40:10Z</time>
      </trkpt>
      <trkpt lat="51.614650000" lon="6.996880000">
        <ele>53</ele>
        <time>2021-04-28T11:40:12Z</time>
      </trkpt>
      <trkpt lat="51.614580000" lon="6.996880000">
        <ele>53</ele>
        <time>2021-04-28T11:40:14Z</time>
      </trkpt>
      <trkpt lat="51.614520000" lon="6.996910000">
        <ele>52</ele>
        <time>2021-04-28T11:40:15Z</time>
      </trkpt>
      <trkpt lat="51.614350000" lon="6.996980000">
        <ele>52</ele>
        <time>2021-04-28T11:40:17Z</time>
      </trkpt>
      <trkpt lat="51.614240000" lon="6.997040000">
        <ele>52</ele>
        <time>2021-04-28T11:40:19Z</time>
      </trkpt>
      <trkpt lat="51.614170000" lon="6.997070000">
        <ele>52</ele>
        <time>2021-04-28T11:40:20Z</time>
      </trkpt>
      <trkpt lat="51.614060000" lon="6.997120000">
        <ele>52</ele>
        <time>2021-04-28T11:40:22Z</time>
      </trkpt>
      <trkpt lat="51.613950000" lon="6.997180000">
        <ele>52</ele>
        <time>2021-04-28T11:40:24Z</time>
      </trkpt>
      <trkpt lat="51.613850000" lon="6.997230000">
        <ele>52</ele>
        <time>2021-04-28T11:40:25Z</time>
      </trkpt>
      <trkpt lat="51.613790000" lon="6.997260000">
        <ele>52</ele>
        <time>2021-04-28T11:40:26Z</time>
      </trkpt>
      <trkpt lat="51.613740000" lon="6.997290000">
        <ele>52</ele>
        <time>2021-04-28T11:40:27Z</time>
      </trkpt>
      <trkpt lat="51.613680000" lon="6.997330000">
        <ele>52</ele>
        <time>2021-04-28T11:40:28Z</time>
      </trkpt>
      <trkpt lat="51.613580000" lon="6.997420000">
        <ele>52</ele>
        <time>2021-04-28T11:40:30Z</time>
      </trkpt>
      <trkpt lat="51.613520000" lon="6.997470000">
        <ele>52</ele>
        <time>2021-04-28T11:40:31Z</time>
      </trkpt>
      <trkpt lat="51.613470000" lon="6.997520000">
        <ele>52</ele>
        <time>2021-04-28T11:40:32Z</time>
      </trkpt>
      <trkpt lat="51.613370000" lon="6.997630000">
        <ele>52</ele>
        <time>2021-04-28T11:40:34Z</time>
      </trkpt>
      <trkpt lat="51.613310000" lon="6.997690000">
        <ele>52</ele>
        <time>2021-04-28T11:40:35Z</time>
      </trkpt>
      <trkpt lat="51.613220000" lon="6.997810000">
        <ele>51</ele>
        <time>2021-04-28T11:40:37Z</time>
      </trkpt>
      <trkpt lat="51.613180000" lon="6.997880000">
        <ele>51</ele>
        <time>2021-04-28T11:40:38Z</time>
      </trkpt>
      <trkpt lat="51.613090000" lon="6.998010000">
        <ele>51</ele>
        <time>2021-04-28T11:40:40Z</time>
      </trkpt>
      <trkpt lat="51.613000000" lon="6.998140000">
        <ele>51</ele>
        <time>2021-04-28T11:40:42Z</time>
      </trkpt>
      <trkpt lat="51.612960000" lon="6.998200000">
        <ele>51</ele>
        <time>2021-04-28T11:40:43Z</time>
      </trkpt>
      <trkpt lat="51.612920000" lon="6.998270000">
        <ele>51</ele>
        <time>2021-04-28T11:40:44Z</time>
      </trkpt>
      <trkpt lat="51.612880000" lon="6.998340000">
        <ele>51</ele>
        <time>2021-04-28T11:40:45Z</time>
      </trkpt>
      <trkpt lat="51.612790000" lon="6.998460000">
        <ele>51</ele>
        <time>2021-04-28T11:40:47Z</time>
      </trkpt>
      <trkpt lat="51.612740000" lon="6.998520000">
        <ele>51</ele>
        <time>2021-04-28T11:40:48Z</time>
      </trkpt>
      <trkpt lat="51.612670000" lon="6.998620000">
        <ele>51</ele>
        <time>2021-04-28T11:40:50Z</time>
      </trkpt>
      <trkpt lat="51.612530000" lon="6.998750000">
        <ele>51</ele>
        <time>2021-04-28T11:40:53Z</time>
      </trkpt>
      <trkpt lat="51.612420000" lon="6.998810000">
        <ele>51</ele>
        <time>2021-04-28T11:40:55Z</time>
      </trkpt>
      <trkpt lat="51.612360000" lon="6.998840000">
        <ele>49</ele>
        <time>2021-04-28T11:40:56Z</time>
      </trkpt>
      <trkpt lat="51.612260000" lon="6.998900000">
        <ele>49</ele>
        <time>2021-04-28T11:40:58Z</time>
      </trkpt>
      <trkpt lat="51.612210000" lon="6.998920000">
        <ele>49</ele>
        <time>2021-04-28T11:40:59Z</time>
      </trkpt>
      <trkpt lat="51.612150000" lon="6.998950000">
        <ele>49</ele>
        <time>2021-04-28T11:41:00Z</time>
      </trkpt>
      <trkpt lat="51.612040000" lon="6.999020000">
        <ele>49</ele>
        <time>2021-04-28T11:41:02Z</time>
      </trkpt>
      <trkpt lat="51.611990000" lon="6.999050000">
        <ele>49</ele>
        <time>2021-04-28T11:41:03Z</time>
      </trkpt>
      <trkpt lat="51.611940000" lon="6.999090000">
        <ele>49</ele>
        <time>2021-04-28T11:41:04Z</time>
      </trkpt>
      <trkpt lat="51.611880000" lon="6.999120000">
        <ele>49</ele>
        <time>2021-04-28T11:41:05Z</time>
      </trkpt>
      <trkpt lat="51.611780000" lon="6.999170000">
        <ele>49</ele>
        <time>2021-04-28T11:41:07Z</time>
      </trkpt>
      <trkpt lat="51.611670000" lon="6.999210000">
        <ele>49</ele>
        <time>2021-04-28T11:41:09Z</time>
      </trkpt>
      <trkpt lat="51.611560000" lon="6.999230000">
        <ele>49</ele>
        <time>2021-04-28T11:41:11Z</time>
      </trkpt>
      <trkpt lat="51.611500000" lon="6.999230000">
        <ele>49</ele>
        <time>2021-04-28T11:41:12Z</time>
      </trkpt>
      <trkpt lat="51.611390000" lon="6.999250000">
        <ele>49</ele>
        <time>2021-04-28T11:41:14Z</time>
      </trkpt>
      <trkpt lat="51.611340000" lon="6.999240000">
        <ele>49</ele>
        <time>2021-04-28T11:41:15Z</time>
      </trkpt>
      <trkpt lat="51.611270000" lon="6.999240000">
        <ele>49</ele>
        <time>2021-04-28T11:41:16Z</time>
      </trkpt>
      <trkpt lat="51.611210000" lon="6.999250000">
        <ele>49</ele>
        <time>2021-04-28T11:41:17Z</time>
      </trkpt>
      <trkpt lat="51.611100000" lon="6.999250000">
        <ele>49</ele>
        <time>2021-04-28T11:41:19Z</time>
      </trkpt>
      <trkpt lat="51.610990000" lon="6.999240000">
        <ele>49</ele>
        <time>2021-04-28T11:41:21Z</time>
      </trkpt>
      <trkpt lat="51.610940000" lon="6.999250000">
        <ele>49</ele>
        <time>2021-04-28T11:41:22Z</time>
      </trkpt>
      <trkpt lat="51.610840000" lon="6.999260000">
        <ele>49</ele>
        <time>2021-04-28T11:41:24Z</time>
      </trkpt>
      <trkpt lat="51.610720000" lon="6.999240000">
        <ele>49</ele>
        <time>2021-04-28T11:41:26Z</time>
      </trkpt>
      <trkpt lat="51.610660000" lon="6.999240000">
        <ele>49</ele>
        <time>2021-04-28T11:41:27Z</time>
      </trkpt>
      <trkpt lat="51.610550000" lon="6.999240000">
        <ele>49</ele>
        <time>2021-04-28T11:41:29Z</time>
      </trkpt>
      <trkpt lat="51.610480000" lon="6.999230000">
        <ele>49</ele>
        <time>2021-04-28T11:41:31Z</time>
      </trkpt>
      <trkpt lat="51.610380000" lon="6.999210000">
        <ele>49</ele>
        <time>2021-04-28T11:41:33Z</time>
      </trkpt>
      <trkpt lat="51.610320000" lon="6.999210000">
        <ele>49</ele>
        <time>2021-04-28T11:41:34Z</time>
      </trkpt>
      <trkpt lat="51.610200000" lon="6.999210000">
        <ele>49</ele>
        <time>2021-04-28T11:41:36Z</time>
      </trkpt>
      <trkpt lat="51.610140000" lon="6.999210000">
        <ele>59</ele>
        <time>2021-04-28T11:41:37Z</time>
      </trkpt>
      <trkpt lat="51.610020000" lon="6.999200000">
        <ele>59</ele>
        <time>2021-04-28T11:41:39Z</time>
      </trkpt>
      <trkpt lat="51.609950000" lon="6.999210000">
        <ele>59</ele>
        <time>2021-04-28T11:41:40Z</time>
      </trkpt>
      <trkpt lat="51.609830000" lon="6.999200000">
        <ele>59</ele>
        <time>2021-04-28T11:41:41Z</time>
      </trkpt>
      <trkpt lat="51.609760000" lon="6.999200000">
        <ele>59</ele>
        <time>2021-04-28T11:41:43Z</time>
      </trkpt>
      <trkpt lat="51.609650000" lon="6.999190000">
        <ele>59</ele>
        <time>2021-04-28T11:41:45Z</time>
      </trkpt>
      <trkpt lat="51.609590000" lon="6.999190000">
        <ele>59</ele>
        <time>2021-04-28T11:41:46Z</time>
      </trkpt>
      <trkpt lat="51.609490000" lon="6.999190000">
        <ele>59</ele>
        <time>2021-04-28T11:41:47Z</time>
      </trkpt>
      <trkpt lat="51.609360000" lon="6.999190000">
        <ele>59</ele>
        <time>2021-04-28T11:41:49Z</time>
      </trkpt>
      <trkpt lat="51.609290000" lon="6.999190000">
        <ele>59</ele>
        <time>2021-04-28T11:41:51Z</time>
      </trkpt>
      <trkpt lat="51.609180000" lon="6.999190000">
        <ele>59</ele>
        <time>2021-04-28T11:41:53Z</time>
      </trkpt>
      <trkpt lat="51.609120000" lon="6.999180000">
        <ele>59</ele>
        <time>2021-04-28T11:41:54Z</time>
      </trkpt>
      <trkpt lat="51.609020000" lon="6.999170000">
        <ele>59</ele>
        <time>2021-04-28T11:41:56Z</time>
      </trkpt>
      <trkpt lat="51.608960000" lon="6.999180000">
        <ele>60</ele>
        <time>2021-04-28T11:41:57Z</time>
      </trkpt>
      <trkpt lat="51.608860000" lon="6.999170000">
        <ele>60</ele>
        <time>2021-04-28T11:41:59Z</time>
      </trkpt>
      <trkpt lat="51.608810000" lon="6.999160000">
        <ele>60</ele>
        <time>2021-04-28T11:42:01Z</time>
      </trkpt>
      <trkpt lat="51.608770000" lon="6.999140000">
        <ele>60</ele>
        <time>2021-04-28T11:42:08Z</time>
      </trkpt>
      <trkpt lat="51.608700000" lon="6.999150000">
        <ele>60</ele>
        <time>2021-04-28T11:42:09Z</time>
      </trkpt>
      <trkpt lat="51.608650000" lon="6.999150000">
        <ele>60</ele>
        <time>2021-04-28T11:42:11Z</time>
      </trkpt>
      <trkpt lat="51.608540000" lon="6.999150000">
        <ele>60</ele>
        <time>2021-04-28T11:42:13Z</time>
      </trkpt>
      <trkpt lat="51.608450000" lon="6.999140000">
        <ele>60</ele>
        <time>2021-04-28T11:42:14Z</time>
      </trkpt>
      <trkpt lat="51.608320000" lon="6.999140000">
        <ele>60</ele>
        <time>2021-04-28T11:42:17Z</time>
      </trkpt>
      <trkpt lat="51.608240000" lon="6.999150000">
        <ele>60</ele>
        <time>2021-04-28T11:42:18Z</time>
      </trkpt>
      <trkpt lat="51.608130000" lon="6.999160000">
        <ele>60</ele>
        <time>2021-04-28T11:42:21Z</time>
      </trkpt>
      <trkpt lat="51.608050000" lon="6.999180000">
        <ele>60</ele>
        <time>2021-04-28T11:42:22Z</time>
      </trkpt>
      <trkpt lat="51.607980000" lon="6.999210000">
        <ele>60</ele>
        <time>2021-04-28T11:42:23Z</time>
      </trkpt>
      <trkpt lat="51.607840000" lon="6.999270000">
        <ele>60</ele>
        <time>2021-04-28T11:42:25Z</time>
      </trkpt>
      <trkpt lat="51.607770000" lon="6.999330000">
        <ele>60</ele>
        <time>2021-04-28T11:42:27Z</time>
      </trkpt>
      <trkpt lat="51.607680000" lon="6.999370000">
        <ele>65</ele>
        <time>2021-04-28T11:42:28Z</time>
      </trkpt>
      <trkpt lat="51.607560000" lon="6.999440000">
        <ele>65</ele>
        <time>2021-04-28T11:42:30Z</time>
      </trkpt>
      <trkpt lat="51.607480000" lon="6.999480000">
        <ele>65</ele>
        <time>2021-04-28T11:42:32Z</time>
      </trkpt>
      <trkpt lat="51.607430000" lon="6.999510000">
        <ele>65</ele>
        <time>2021-04-28T11:42:33Z</time>
      </trkpt>
      <trkpt lat="51.607360000" lon="6.999550000">
        <ele>65</ele>
        <time>2021-04-28T11:42:34Z</time>
      </trkpt>
      <trkpt lat="51.607230000" lon="6.999610000">
        <ele>65</ele>
        <time>2021-04-28T11:42:36Z</time>
      </trkpt>
      <trkpt lat="51.607140000" lon="6.999670000">
        <ele>65</ele>
        <time>2021-04-28T11:42:38Z</time>
      </trkpt>
      <trkpt lat="51.607070000" lon="6.999690000">
        <ele>65</ele>
        <time>2021-04-28T11:42:39Z</time>
      </trkpt>
      <trkpt lat="51.606940000" lon="6.999760000">
        <ele>65</ele>
        <time>2021-04-28T11:42:41Z</time>
      </trkpt>
      <trkpt lat="51.606810000" lon="6.999820000">
        <ele>65</ele>
        <time>2021-04-28T11:42:43Z</time>
      </trkpt>
      <trkpt lat="51.606720000" lon="6.999900000">
        <ele>65</ele>
        <time>2021-04-28T11:42:44Z</time>
      </trkpt>
      <trkpt lat="51.606640000" lon="6.999940000">
        <ele>66</ele>
        <time>2021-04-28T11:42:46Z</time>
      </trkpt>
      <trkpt lat="51.606530000" lon="6.999990000">
        <ele>66</ele>
        <time>2021-04-28T11:42:48Z</time>
      </trkpt>
      <trkpt lat="51.606440000" lon="7.000050000">
        <ele>66</ele>
        <time>2021-04-28T11:42:49Z</time>
      </trkpt>
      <trkpt lat="51.606340000" lon="7.000110000">
        <ele>66</ele>
        <time>2021-04-28T11:42:51Z</time>
      </trkpt>
      <trkpt lat="51.606260000" lon="7.000150000">
        <ele>66</ele>
        <time>2021-04-28T11:42:52Z</time>
      </trkpt>
      <trkpt lat="51.606200000" lon="7.000180000">
        <ele>66</ele>
        <time>2021-04-28T11:42:54Z</time>
      </trkpt>
      <trkpt lat="51.606100000" lon="7.000240000">
        <ele>66</ele>
        <time>2021-04-28T11:42:55Z</time>
      </trkpt>
      <trkpt lat="51.606030000" lon="7.000280000">
        <ele>66</ele>
        <time>2021-04-28T11:42:56Z</time>
      </trkpt>
      <trkpt lat="51.605930000" lon="7.000360000">
        <ele>66</ele>
        <time>2021-04-28T11:42:58Z</time>
      </trkpt>
      <trkpt lat="51.605880000" lon="7.000380000">
        <ele>66</ele>
        <time>2021-04-28T11:42:59Z</time>
      </trkpt>
      <trkpt lat="51.605820000" lon="7.000410000">
        <ele>66</ele>
        <time>2021-04-28T11:43:00Z</time>
      </trkpt>
      <trkpt lat="51.605700000" lon="7.000460000">
        <ele>66</ele>
        <time>2021-04-28T11:43:02Z</time>
      </trkpt>
      <trkpt lat="51.605660000" lon="7.000480000">
        <ele>66</ele>
        <time>2021-04-28T11:43:03Z</time>
      </trkpt>
      <trkpt lat="51.605530000" lon="7.000580000">
        <ele>66</ele>
        <time>2021-04-28T11:43:06Z</time>
      </trkpt>
      <trkpt lat="51.605480000" lon="7.000620000">
        <ele>66</ele>
        <time>2021-04-28T11:43:07Z</time>
      </trkpt>
      <trkpt lat="51.605420000" lon="7.000680000">
        <ele>66</ele>
        <time>2021-04-28T11:43:09Z</time>
      </trkpt>
      <trkpt lat="51.605280000" lon="7.000740000">
        <ele>60</ele>
        <time>2021-04-28T11:43:12Z</time>
      </trkpt>
      <trkpt lat="51.605220000" lon="7.000740000">
        <ele>60</ele>
        <time>2021-04-28T11:43:13Z</time>
      </trkpt>
      <trkpt lat="51.605180000" lon="7.000750000">
        <ele>60</ele>
        <time>2021-04-28T11:43:14Z</time>
      </trkpt>
      <trkpt lat="51.605100000" lon="7.000760000">
        <ele>60</ele>
        <time>2021-04-28T11:43:16Z</time>
      </trkpt>
      <trkpt lat="51.605040000" lon="7.000760000">
        <ele>60</ele>
        <time>2021-04-28T11:43:17Z</time>
      </trkpt>
      <trkpt lat="51.604920000" lon="7.000740000">
        <ele>60</ele>
        <time>2021-04-28T11:43:19Z</time>
      </trkpt>
      <trkpt lat="51.604800000" lon="7.000710000">
        <ele>60</ele>
        <time>2021-04-28T11:43:21Z</time>
      </trkpt>
      <trkpt lat="51.604730000" lon="7.000700000">
        <ele>60</ele>
        <time>2021-04-28T11:43:22Z</time>
      </trkpt>
      <trkpt lat="51.604590000" lon="7.000660000">
        <ele>60</ele>
        <time>2021-04-28T11:43:24Z</time>
      </trkpt>
      <trkpt lat="51.604510000" lon="7.000640000">
        <ele>60</ele>
        <time>2021-04-28T11:43:25Z</time>
      </trkpt>
      <trkpt lat="51.604330000" lon="7.000590000">
        <ele>60</ele>
        <time>2021-04-28T11:43:27Z</time>
      </trkpt>
      <trkpt lat="51.604180000" lon="7.000560000">
        <ele>58</ele>
        <time>2021-04-28T11:43:29Z</time>
      </trkpt>
      <trkpt lat="51.604120000" lon="7.000550000">
        <ele>58</ele>
        <time>2021-04-28T11:43:30Z</time>
      </trkpt>
      <trkpt lat="51.604060000" lon="7.000530000">
        <ele>58</ele>
        <time>2021-04-28T11:43:31Z</time>
      </trkpt>
      <trkpt lat="51.604000000" lon="7.000510000">
        <ele>58</ele>
        <time>2021-04-28T11:43:32Z</time>
      </trkpt>
      <trkpt lat="51.603940000" lon="7.000500000">
        <ele>58</ele>
        <time>2021-04-28T11:43:33Z</time>
      </trkpt>
      <trkpt lat="51.603870000" lon="7.000500000">
        <ele>58</ele>
        <time>2021-04-28T11:43:34Z</time>
      </trkpt>
      <trkpt lat="51.603800000" lon="7.000500000">
        <ele>58</ele>
        <time>2021-04-28T11:43:35Z</time>
      </trkpt>
      <trkpt lat="51.603680000" lon="7.000490000">
        <ele>58</ele>
        <time>2021-04-28T11:43:37Z</time>
      </trkpt>
      <trkpt lat="51.603620000" lon="7.000470000">
        <ele>58</ele>
        <time>2021-04-28T11:43:38Z</time>
      </trkpt>
      <trkpt lat="51.603550000" lon="7.000450000">
        <ele>58</ele>
        <time>2021-04-28T11:43:39Z</time>
      </trkpt>
      <trkpt lat="51.603420000" lon="7.000420000">
        <ele>58</ele>
        <time>2021-04-28T11:43:41Z</time>
      </trkpt>
      <trkpt lat="51.603350000" lon="7.000400000">
        <ele>58</ele>
        <time>2021-04-28T11:43:42Z</time>
      </trkpt>
      <trkpt lat="51.603240000" lon="7.000370000">
        <ele>58</ele>
        <time>2021-04-28T11:43:44Z</time>
      </trkpt>
      <trkpt lat="51.603190000" lon="7.000350000">
        <ele>58</ele>
        <time>2021-04-28T11:43:45Z</time>
      </trkpt>
      <trkpt lat="51.603070000" lon="7.000320000">
        <ele>58</ele>
        <time>2021-04-28T11:43:47Z</time>
      </trkpt>
      <trkpt lat="51.603020000" lon="7.000320000">
        <ele>58</ele>
        <time>2021-04-28T11:43:48Z</time>
      </trkpt>
      <trkpt lat="51.602910000" lon="7.000300000">
        <ele>62</ele>
        <time>2021-04-28T11:43:50Z</time>
      </trkpt>
      <trkpt lat="51.602790000" lon="7.000280000">
        <ele>62</ele>
        <time>2021-04-28T11:43:52Z</time>
      </trkpt>
      <trkpt lat="51.602730000" lon="7.000270000">
        <ele>62</ele>
        <time>2021-04-28T11:43:53Z</time>
      </trkpt>
      <trkpt lat="51.602610000" lon="7.000250000">
        <ele>62</ele>
        <time>2021-04-28T11:43:55Z</time>
      </trkpt>
      <trkpt lat="51.602550000" lon="7.000230000">
        <ele>62</ele>
        <time>2021-04-28T11:43:56Z</time>
      </trkpt>
      <trkpt lat="51.602430000" lon="7.000200000">
        <ele>62</ele>
        <time>2021-04-28T11:43:58Z</time>
      </trkpt>
      <trkpt lat="51.602300000" lon="7.000190000">
        <ele>62</ele>
        <time>2021-04-28T11:44:00Z</time>
      </trkpt>
      <trkpt lat="51.602250000" lon="7.000190000">
        <ele>62</ele>
        <time>2021-04-28T11:44:01Z</time>
      </trkpt>
      <trkpt lat="51.602150000" lon="7.000170000">
        <ele>62</ele>
        <time>2021-04-28T11:44:03Z</time>
      </trkpt>
      <trkpt lat="51.602070000" lon="7.000140000">
        <ele>62</ele>
        <time>2021-04-28T11:44:05Z</time>
      </trkpt>
      <trkpt lat="51.601980000" lon="7.000140000">
        <ele>62</ele>
        <time>2021-04-28T11:44:07Z</time>
      </trkpt>
      <trkpt lat="51.601920000" lon="7.000110000">
        <ele>62</ele>
        <time>2021-04-28T11:44:08Z</time>
      </trkpt>
      <trkpt lat="51.601780000" lon="7.000050000">
        <ele>63</ele>
        <time>2021-04-28T11:44:10Z</time>
      </trkpt>
      <trkpt lat="51.601660000" lon="7.000010000">
        <ele>63</ele>
        <time>2021-04-28T11:44:12Z</time>
      </trkpt>
      <trkpt lat="51.601600000" lon="7.000000000">
        <ele>63</ele>
        <time>2021-04-28T11:44:13Z</time>
      </trkpt>
      <trkpt lat="51.601480000" lon="6.999970000">
        <ele>63</ele>
        <time>2021-04-28T11:44:15Z</time>
      </trkpt>
      <trkpt lat="51.601430000" lon="6.999950000">
        <ele>63</ele>
        <time>2021-04-28T11:44:16Z</time>
      </trkpt>
      <trkpt lat="51.601380000" lon="6.999930000">
        <ele>63</ele>
        <time>2021-04-28T11:44:17Z</time>
      </trkpt>
      <trkpt lat="51.601330000" lon="6.999910000">
        <ele>63</ele>
        <time>2021-04-28T11:44:18Z</time>
      </trkpt>
      <trkpt lat="51.601270000" lon="6.999900000">
        <ele>63</ele>
        <time>2021-04-28T11:44:19Z</time>
      </trkpt>
      <trkpt lat="51.601140000" lon="6.999870000">
        <ele>63</ele>
        <time>2021-04-28T11:44:22Z</time>
      </trkpt>
      <trkpt lat="51.601020000" lon="6.999850000">
        <ele>63</ele>
        <time>2021-04-28T11:44:24Z</time>
      </trkpt>
      <trkpt lat="51.600900000" lon="6.999800000">
        <ele>63</ele>
        <time>2021-04-28T11:44:26Z</time>
      </trkpt>
      <trkpt lat="51.600850000" lon="6.999780000">
        <ele>63</ele>
        <time>2021-04-28T11:44:27Z</time>
      </trkpt>
      <trkpt lat="51.600750000" lon="6.999720000">
        <ele>63</ele>
        <time>2021-04-28T11:44:29Z</time>
      </trkpt>
      <trkpt lat="51.600700000" lon="6.999680000">
        <ele>63</ele>
        <time>2021-04-28T11:44:30Z</time>
      </trkpt>
      <trkpt lat="51.600600000" lon="6.999590000">
        <ele>70</ele>
        <time>2021-04-28T11:44:32Z</time>
      </trkpt>
      <trkpt lat="51.600490000" lon="6.999490000">
        <ele>70</ele>
        <time>2021-04-28T11:44:33Z</time>
      </trkpt>
      <trkpt lat="51.600370000" lon="6.999380000">
        <ele>70</ele>
        <time>2021-04-28T11:44:35Z</time>
      </trkpt>
      <trkpt lat="51.600320000" lon="6.999330000">
        <ele>70</ele>
        <time>2021-04-28T11:44:37Z</time>
      </trkpt>
      <trkpt lat="51.600280000" lon="6.999290000">
        <ele>70</ele>
        <time>2021-04-28T11:44:38Z</time>
      </trkpt>
      <trkpt lat="51.600240000" lon="6.999250000">
        <ele>70</ele>
        <time>2021-04-28T11:44:39Z</time>
      </trkpt>
      <trkpt lat="51.600130000" lon="6.999180000">
        <ele>70</ele>
        <time>2021-04-28T11:44:41Z</time>
      </trkpt>
      <trkpt lat="51.600030000" lon="6.999080000">
        <ele>70</ele>
        <time>2021-04-28T11:44:43Z</time>
      </trkpt>
      <trkpt lat="51.599920000" lon="6.998990000">
        <ele>70</ele>
        <time>2021-04-28T11:44:45Z</time>
      </trkpt>
      <trkpt lat="51.599800000" lon="6.998960000">
        <ele>70</ele>
        <time>2021-04-28T11:44:47Z</time>
      </trkpt>
      <trkpt lat="51.599690000" lon="6.998980000">
        <ele>70</ele>
        <time>2021-04-28T11:44:49Z</time>
      </trkpt>
      <trkpt lat="51.599570000" lon="6.998990000">
        <ele>70</ele>
        <time>2021-04-28T11:44:51Z</time>
      </trkpt>
      <trkpt lat="51.599510000" lon="6.999010000">
        <ele>74</ele>
        <time>2021-04-28T11:44:52Z</time>
      </trkpt>
      <trkpt lat="51.599440000" lon="6.999050000">
        <ele>74</ele>
        <time>2021-04-28T11:44:54Z</time>
      </trkpt>
      <trkpt lat="51.599350000" lon="6.999070000">
        <ele>74</ele>
        <time>2021-04-28T11:44:55Z</time>
      </trkpt>
      <trkpt lat="51.599300000" lon="6.999080000">
        <ele>74</ele>
        <time>2021-04-28T11:44:56Z</time>
      </trkpt>
      <trkpt lat="51.599230000" lon="6.999080000">
        <ele>74</ele>
        <time>2021-04-28T11:44:58Z</time>
      </trkpt>
      <trkpt lat="51.599140000" lon="6.999090000">
        <ele>74</ele>
        <time>2021-04-28T11:45:00Z</time>
      </trkpt>
      <trkpt lat="51.599030000" lon="6.999080000">
        <ele>74</ele>
        <time>2021-04-28T11:45:03Z</time>
      </trkpt>
      <trkpt lat="51.598910000" lon="6.999090000">
        <ele>74</ele>
        <time>2021-04-28T11:45:05Z</time>
      </trkpt>
      <trkpt lat="51.598730000" lon="6.999100000">
        <ele>74</ele>
        <time>2021-04-28T11:45:07Z</time>
      </trkpt>
      <trkpt lat="51.598620000" lon="6.999130000">
        <ele>74</ele>
        <time>2021-04-28T11:45:09Z</time>
      </trkpt>
      <trkpt lat="51.598470000" lon="6.999180000">
        <ele>74</ele>
        <time>2021-04-28T11:45:11Z</time>
      </trkpt>
      <trkpt lat="51.598340000" lon="6.999210000">
        <ele>74</ele>
        <time>2021-04-28T11:45:13Z</time>
      </trkpt>
      <trkpt lat="51.598220000" lon="6.999220000">
        <ele>58</ele>
        <time>2021-04-28T11:45:15Z</time>
      </trkpt>
      <trkpt lat="51.598150000" lon="6.999230000">
        <ele>58</ele>
        <time>2021-04-28T11:45:16Z</time>
      </trkpt>
      <trkpt lat="51.598090000" lon="6.999260000">
        <ele>58</ele>
        <time>2021-04-28T11:45:17Z</time>
      </trkpt>
      <trkpt lat="51.598020000" lon="6.999280000">
        <ele>58</ele>
        <time>2021-04-28T11:45:18Z</time>
      </trkpt>
      <trkpt lat="51.597950000" lon="6.999300000">
        <ele>58</ele>
        <time>2021-04-28T11:45:20Z</time>
      </trkpt>
      <trkpt lat="51.597830000" lon="6.999350000">
        <ele>58</ele>
        <time>2021-04-28T11:45:23Z</time>
      </trkpt>
      <trkpt lat="51.597760000" lon="6.999370000">
        <ele>58</ele>
        <time>2021-04-28T11:45:24Z</time>
      </trkpt>
      <trkpt lat="51.597670000" lon="6.999410000">
        <ele>58</ele>
        <time>2021-04-28T11:45:26Z</time>
      </trkpt>
      <trkpt lat="51.597610000" lon="6.999430000">
        <ele>58</ele>
        <time>2021-04-28T11:45:28Z</time>
      </trkpt>
      <trkpt lat="51.597470000" lon="6.999480000">
        <ele>58</ele>
        <time>2021-04-28T11:45:31Z</time>
      </trkpt>
      <trkpt lat="51.597370000" lon="6.999520000">
        <ele>58</ele>
        <time>2021-04-28T11:45:33Z</time>
      </trkpt>
      <trkpt lat="51.597190000" lon="6.999550000">
        <ele>58</ele>
        <time>2021-04-28T11:45:35Z</time>
      </trkpt>
      <trkpt lat="51.597070000" lon="6.999570000">
        <ele>58</ele>
        <time>2021-04-28T11:45:36Z</time>
      </trkpt>
      <trkpt lat="51.596880000" lon="6.999600000">
        <ele>79</ele>
        <time>2021-04-28T11:45:39Z</time>
      </trkpt>
      <trkpt lat="51.596820000" lon="6.999620000">
        <ele>79</ele>
        <time>2021-04-28T11:45:40Z</time>
      </trkpt>
      <trkpt lat="51.596700000" lon="6.999670000">
        <ele>79</ele>
        <time>2021-04-28T11:45:42Z</time>
      </trkpt>
      <trkpt lat="51.596580000" lon="6.999700000">
        <ele>79</ele>
        <time>2021-04-28T11:45:44Z</time>
      </trkpt>
      <trkpt lat="51.596470000" lon="6.999720000">
        <ele>79</ele>
        <time>2021-04-28T11:45:46Z</time>
      </trkpt>
      <trkpt lat="51.596330000" lon="6.999740000">
        <ele>79</ele>
        <time>2021-04-28T11:45:48Z</time>
      </trkpt>
      <trkpt lat="51.596190000" lon="6.999760000">
        <ele>79</ele>
        <time>2021-04-28T11:45:50Z</time>
      </trkpt>
      <trkpt lat="51.596060000" lon="6.999790000">
        <ele>79</ele>
        <time>2021-04-28T11:45:52Z</time>
      </trkpt>
      <trkpt lat="51.595930000" lon="6.999850000">
        <ele>79</ele>
        <time>2021-04-28T11:45:54Z</time>
      </trkpt>
      <trkpt lat="51.595780000" lon="6.999890000">
        <ele>79</ele>
        <time>2021-04-28T11:45:56Z</time>
      </trkpt>
      <trkpt lat="51.595670000" lon="6.999920000">
        <ele>79</ele>
        <time>2021-04-28T11:45:57Z</time>
      </trkpt>
      <trkpt lat="51.595600000" lon="6.999950000">
        <ele>79</ele>
        <time>2021-04-28T11:45:58Z</time>
      </trkpt>
      <trkpt lat="51.595530000" lon="6.999970000">
        <ele>73</ele>
        <time>2021-04-28T11:45:59Z</time>
      </trkpt>
      <trkpt lat="51.595470000" lon="6.999980000">
        <ele>73</ele>
        <time>2021-04-28T11:46:00Z</time>
      </trkpt>
      <trkpt lat="51.595410000" lon="6.999990000">
        <ele>73</ele>
        <time>2021-04-28T11:46:01Z</time>
      </trkpt>
      <trkpt lat="51.595300000" lon="7.000030000">
        <ele>73</ele>
        <time>2021-04-28T11:46:03Z</time>
      </trkpt>
      <trkpt lat="51.595240000" lon="7.000050000">
        <ele>73</ele>
        <time>2021-04-28T11:46:04Z</time>
      </trkpt>
      <trkpt lat="51.595130000" lon="7.000080000">
        <ele>73</ele>
        <time>2021-04-28T11:46:06Z</time>
      </trkpt>
      <trkpt lat="51.595010000" lon="7.000120000">
        <ele>73</ele>
        <time>2021-04-28T11:46:08Z</time>
      </trkpt>
      <trkpt lat="51.594900000" lon="7.000160000">
        <ele>73</ele>
        <time>2021-04-28T11:46:10Z</time>
      </trkpt>
      <trkpt lat="51.594840000" lon="7.000180000">
        <ele>73</ele>
        <time>2021-04-28T11:46:11Z</time>
      </trkpt>
      <trkpt lat="51.594780000" lon="7.000200000">
        <ele>73</ele>
        <time>2021-04-28T11:46:12Z</time>
      </trkpt>
      <trkpt lat="51.594640000" lon="7.000230000">
        <ele>73</ele>
        <time>2021-04-28T11:46:14Z</time>
      </trkpt>
      <trkpt lat="51.594520000" lon="7.000240000">
        <ele>73</ele>
        <time>2021-04-28T11:46:16Z</time>
      </trkpt>
      <trkpt lat="51.594390000" lon="7.000270000">
        <ele>73</ele>
        <time>2021-04-28T11:46:18Z</time>
      </trkpt>
      <trkpt lat="51.594260000" lon="7.000270000">
        <ele>73</ele>
        <time>2021-04-28T11:46:20Z</time>
      </trkpt>
      <trkpt lat="51.594200000" lon="7.000280000">
        <ele>73</ele>
        <time>2021-04-28T11:46:21Z</time>
      </trkpt>
      <trkpt lat="51.594080000" lon="7.000280000">
        <ele>73</ele>
        <time>2021-04-28T11:46:23Z</time>
      </trkpt>
      <trkpt lat="51.594030000" lon="7.000270000">
        <ele>73</ele>
        <time>2021-04-28T11:46:24Z</time>
      </trkpt>
      <trkpt lat="51.593960000" lon="7.000250000">
        <ele>73</ele>
        <time>2021-04-28T11:46:25Z</time>
      </trkpt>
      <trkpt lat="51.593880000" lon="7.000220000">
        <ele>80</ele>
        <time>2021-04-28T11:46:27Z</time>
      </trkpt>
      <trkpt lat="51.593790000" lon="7.000170000">
        <ele>80</ele>
        <time>2021-04-28T11:46:28Z</time>
      </trkpt>
      <trkpt lat="51.593730000" lon="7.000140000">
        <ele>80</ele>
        <time>2021-04-28T11:46:29Z</time>
      </trkpt>
      <trkpt lat="51.593620000" lon="7.000060000">
        <ele>80</ele>
        <time>2021-04-28T11:46:31Z</time>
      </trkpt>
      <trkpt lat="51.593560000" lon="7.000030000">
        <ele>80</ele>
        <time>2021-04-28T11:46:32Z</time>
      </trkpt>
      <trkpt lat="51.593440000" lon="6.999950000">
        <ele>80</ele>
        <time>2021-04-28T11:46:34Z</time>
      </trkpt>
      <trkpt lat="51.593310000" lon="6.999880000">
        <ele>80</ele>
        <time>2021-04-28T11:46:36Z</time>
      </trkpt>
      <trkpt lat="51.593250000" lon="6.999840000">
        <ele>80</ele>
        <time>2021-04-28T11:46:37Z</time>
      </trkpt>
      <trkpt lat="51.593130000" lon="6.999770000">
        <ele>80</ele>
        <time>2021-04-28T11:46:39Z</time>
      </trkpt>
      <trkpt lat="51.593070000" lon="6.999730000">
        <ele>80</ele>
        <time>2021-04-28T11:46:40Z</time>
      </trkpt>
      <trkpt lat="51.593010000" lon="6.999700000">
        <ele>80</ele>
        <time>2021-04-28T11:46:41Z</time>
      </trkpt>
      <trkpt lat="51.592960000" lon="6.999660000">
        <ele>80</ele>
        <time>2021-04-28T11:46:42Z</time>
      </trkpt>
      <trkpt lat="51.592860000" lon="6.999590000">
        <ele>80</ele>
        <time>2021-04-28T11:46:44Z</time>
      </trkpt>
      <trkpt lat="51.592770000" lon="6.999510000">
        <ele>80</ele>
        <time>2021-04-28T11:46:46Z</time>
      </trkpt>
      <trkpt lat="51.592720000" lon="6.999470000">
        <ele>80</ele>
        <time>2021-04-28T11:46:47Z</time>
      </trkpt>
      <trkpt lat="51.592650000" lon="6.999410000">
        <ele>75</ele>
        <time>2021-04-28T11:46:49Z</time>
      </trkpt>
      <trkpt lat="51.592610000" lon="6.999350000">
        <ele>75</ele>
        <time>2021-04-28T11:46:54Z</time>
      </trkpt>
      <trkpt lat="51.592530000" lon="6.999400000">
        <ele>75</ele>
        <time>2021-04-28T11:46:56Z</time>
      </trkpt>
      <trkpt lat="51.592470000" lon="6.999520000">
        <ele>75</ele>
        <time>2021-04-28T11:46:58Z</time>
      </trkpt>
      <trkpt lat="51.592440000" lon="6.999600000">
        <ele>75</ele>
        <time>2021-04-28T11:46:59Z</time>
      </trkpt>
      <trkpt lat="51.592410000" lon="6.999680000">
        <ele>75</ele>
        <time>2021-04-28T11:47:00Z</time>
      </trkpt>
      <trkpt lat="51.592340000" lon="6.999850000">
        <ele>75</ele>
        <time>2021-04-28T11:47:02Z</time>
      </trkpt>
      <trkpt lat="51.592310000" lon="6.999940000">
        <ele>75</ele>
        <time>2021-04-28T11:47:03Z</time>
      </trkpt>
      <trkpt lat="51.592240000" lon="7.000100000">
        <ele>75</ele>
        <time>2021-04-28T11:47:05Z</time>
      </trkpt>
      <trkpt lat="51.592170000" lon="7.000280000">
        <ele>75</ele>
        <time>2021-04-28T11:47:07Z</time>
      </trkpt>
      <trkpt lat="51.592130000" lon="7.000370000">
        <ele>75</ele>
        <time>2021-04-28T11:47:08Z</time>
      </trkpt>
      <trkpt lat="51.592070000" lon="7.000540000">
        <ele>75</ele>
        <time>2021-04-28T11:47:10Z</time>
      </trkpt>
      <trkpt lat="51.592030000" lon="7.000630000">
        <ele>75</ele>
        <time>2021-04-28T11:47:11Z</time>
      </trkpt>
      <trkpt lat="51.591950000" lon="7.000810000">
        <ele>80</ele>
        <time>2021-04-28T11:47:13Z</time>
      </trkpt>
      <trkpt lat="51.591900000" lon="7.000890000">
        <ele>80</ele>
        <time>2021-04-28T11:47:14Z</time>
      </trkpt>
      <trkpt lat="51.591860000" lon="7.000980000">
        <ele>80</ele>
        <time>2021-04-28T11:47:15Z</time>
      </trkpt>
      <trkpt lat="51.591820000" lon="7.001140000">
        <ele>80</ele>
        <time>2021-04-28T11:47:17Z</time>
      </trkpt>
      <trkpt lat="51.591770000" lon="7.001320000">
        <ele>80</ele>
        <time>2021-04-28T11:47:19Z</time>
      </trkpt>
      <trkpt lat="51.591740000" lon="7.001400000">
        <ele>80</ele>
        <time>2021-04-28T11:47:20Z</time>
      </trkpt>
      <trkpt lat="51.591720000" lon="7.001480000">
        <ele>80</ele>
        <time>2021-04-28T11:47:21Z</time>
      </trkpt>
      <trkpt lat="51.591650000" lon="7.001640000">
        <ele>80</ele>
        <time>2021-04-28T11:47:23Z</time>
      </trkpt>
      <trkpt lat="51.591620000" lon="7.001720000">
        <ele>80</ele>
        <time>2021-04-28T11:47:24Z</time>
      </trkpt>
      <trkpt lat="51.591570000" lon="7.001890000">
        <ele>80</ele>
        <time>2021-04-28T11:47:26Z</time>
      </trkpt>
      <trkpt lat="51.591550000" lon="7.001970000">
        <ele>80</ele>
        <time>2021-04-28T11:47:27Z</time>
      </trkpt>
      <trkpt lat="51.591520000" lon="7.002050000">
        <ele>75</ele>
        <time>2021-04-28T11:47:28Z</time>
      </trkpt>
      <trkpt lat="51.591460000" lon="7.002210000">
        <ele>75</ele>
        <time>2021-04-28T11:47:30Z</time>
      </trkpt>
      <trkpt lat="51.591430000" lon="7.002290000">
        <ele>75</ele>
        <time>2021-04-28T11:47:31Z</time>
      </trkpt>
      <trkpt lat="51.591400000" lon="7.002370000">
        <ele>75</ele>
        <time>2021-04-28T11:47:32Z</time>
      </trkpt>
      <trkpt lat="51.591360000" lon="7.002460000">
        <ele>75</ele>
        <time>2021-04-28T11:47:33Z</time>
      </trkpt>
      <trkpt lat="51.591300000" lon="7.002620000">
        <ele>75</ele>
        <time>2021-04-28T11:47:35Z</time>
      </trkpt>
      <trkpt lat="51.591240000" lon="7.002790000">
        <ele>75</ele>
        <time>2021-04-28T11:47:37Z</time>
      </trkpt>
      <trkpt lat="51.591160000" lon="7.002940000">
        <ele>75</ele>
        <time>2021-04-28T11:47:39Z</time>
      </trkpt>
      <trkpt lat="51.591130000" lon="7.003010000">
        <ele>75</ele>
        <time>2021-04-28T11:47:40Z</time>
      </trkpt>
      <trkpt lat="51.591090000" lon="7.003190000">
        <ele>75</ele>
        <time>2021-04-28T11:47:42Z</time>
      </trkpt>
      <trkpt lat="51.591060000" lon="7.003270000">
        <ele>75</ele>
        <time>2021-04-28T11:47:43Z</time>
      </trkpt>
      <trkpt lat="51.590990000" lon="7.003440000">
        <ele>75</ele>
        <time>2021-04-28T11:47:45Z</time>
      </trkpt>
      <trkpt lat="51.590960000" lon="7.003530000">
        <ele>75</ele>
        <time>2021-04-28T11:47:46Z</time>
      </trkpt>
      <trkpt lat="51.590930000" lon="7.003620000">
        <ele>75</ele>
        <time>2021-04-28T11:47:47Z</time>
      </trkpt>
      <trkpt lat="51.590870000" lon="7.003800000">
        <ele>75</ele>
        <time>2021-04-28T11:47:49Z</time>
      </trkpt>
      <trkpt lat="51.590840000" lon="7.003880000">
        <ele>76</ele>
        <time>2021-04-28T11:47:50Z</time>
      </trkpt>
      <trkpt lat="51.590820000" lon="7.003950000">
        <ele>76</ele>
        <time>2021-04-28T11:47:51Z</time>
      </trkpt>
      <trkpt lat="51.590780000" lon="7.004090000">
        <ele>76</ele>
        <time>2021-04-28T11:47:53Z</time>
      </trkpt>
      <trkpt lat="51.590740000" lon="7.004230000">
        <ele>76</ele>
        <time>2021-04-28T11:47:55Z</time>
      </trkpt>
      <trkpt lat="51.590700000" lon="7.004350000">
        <ele>76</ele>
        <time>2021-04-28T11:47:57Z</time>
      </trkpt>
      <trkpt lat="51.590660000" lon="7.004440000">
        <ele>76</ele>
        <time>2021-04-28T11:47:59Z</time>
      </trkpt>
      <trkpt lat="51.590620000" lon="7.004550000">
        <ele>76</ele>
        <time>2021-04-28T11:48:01Z</time>
      </trkpt>
      <trkpt lat="51.590570000" lon="7.004660000">
        <ele>76</ele>
        <time>2021-04-28T11:48:03Z</time>
      </trkpt>
      <trkpt lat="51.590550000" lon="7.004730000">
        <ele>76</ele>
        <time>2021-04-28T11:48:04Z</time>
      </trkpt>
      <trkpt lat="51.590500000" lon="7.004870000">
        <ele>76</ele>
        <time>2021-04-28T11:48:06Z</time>
      </trkpt>
      <trkpt lat="51.590450000" lon="7.004980000">
        <ele>76</ele>
        <time>2021-04-28T11:48:08Z</time>
      </trkpt>
      <trkpt lat="51.590400000" lon="7.005090000">
        <ele>76</ele>
        <time>2021-04-28T11:48:10Z</time>
      </trkpt>
      <trkpt lat="51.590340000" lon="7.005210000">
        <ele>76</ele>
        <time>2021-04-28T11:48:13Z</time>
      </trkpt>
      <trkpt lat="51.590320000" lon="7.005280000">
        <ele>76</ele>
        <time>2021-04-28T11:48:15Z</time>
      </trkpt>
      <trkpt lat="51.590280000" lon="7.005340000">
        <ele>76</ele>
        <time>2021-04-28T11:48:18Z</time>
      </trkpt>
      <trkpt lat="51.590230000" lon="7.005410000">
        <ele>75</ele>
        <time>2021-04-28T11:48:25Z</time>
      </trkpt>
      <trkpt lat="51.590200000" lon="7.005470000">
        <ele>75</ele>
        <time>2021-04-28T11:48:27Z</time>
      </trkpt>
      <trkpt lat="51.590170000" lon="7.005560000">
        <ele>75</ele>
        <time>2021-04-28T11:48:29Z</time>
      </trkpt>
      <trkpt lat="51.590110000" lon="7.005690000">
        <ele>75</ele>
        <time>2021-04-28T11:48:31Z</time>
      </trkpt>
      <trkpt lat="51.590040000" lon="7.005840000">
        <ele>75</ele>
        <time>2021-04-28T11:48:33Z</time>
      </trkpt>
      <trkpt lat="51.589970000" lon="7.006010000">
        <ele>75</ele>
        <time>2021-04-28T11:48:35Z</time>
      </trkpt>
      <trkpt lat="51.589910000" lon="7.006190000">
        <ele>75</ele>
        <time>2021-04-28T11:48:37Z</time>
      </trkpt>
      <trkpt lat="51.589870000" lon="7.006380000">
        <ele>75</ele>
        <time>2021-04-28T11:48:39Z</time>
      </trkpt>
      <trkpt lat="51.589850000" lon="7.006470000">
        <ele>75</ele>
        <time>2021-04-28T11:48:40Z</time>
      </trkpt>
      <trkpt lat="51.589800000" lon="7.006660000">
        <ele>75</ele>
        <time>2021-04-28T11:48:42Z</time>
      </trkpt>
      <trkpt lat="51.589740000" lon="7.006840000">
        <ele>75</ele>
        <time>2021-04-28T11:48:44Z</time>
      </trkpt>
      <trkpt lat="51.589700000" lon="7.007020000">
        <ele>79</ele>
        <time>2021-04-28T11:48:46Z</time>
      </trkpt>
      <trkpt lat="51.589650000" lon="7.007200000">
        <ele>79</ele>
        <time>2021-04-28T11:48:48Z</time>
      </trkpt>
      <trkpt lat="51.589600000" lon="7.007370000">
        <ele>79</ele>
        <time>2021-04-28T11:48:50Z</time>
      </trkpt>
      <trkpt lat="51.589560000" lon="7.007540000">
        <ele>79</ele>
        <time>2021-04-28T11:48:52Z</time>
      </trkpt>
      <trkpt lat="51.589530000" lon="7.007630000">
        <ele>79</ele>
        <time>2021-04-28T11:48:53Z</time>
      </trkpt>
      <trkpt lat="51.589460000" lon="7.007800000">
        <ele>79</ele>
        <time>2021-04-28T11:48:55Z</time>
      </trkpt>
      <trkpt lat="51.589400000" lon="7.007970000">
        <ele>79</ele>
        <time>2021-04-28T11:48:57Z</time>
      </trkpt>
      <trkpt lat="51.589380000" lon="7.008060000">
        <ele>79</ele>
        <time>2021-04-28T11:48:58Z</time>
      </trkpt>
      <trkpt lat="51.589360000" lon="7.008150000">
        <ele>79</ele>
        <time>2021-04-28T11:48:59Z</time>
      </trkpt>
      <trkpt lat="51.589300000" lon="7.008310000">
        <ele>79</ele>
        <time>2021-04-28T11:49:01Z</time>
      </trkpt>
      <trkpt lat="51.589250000" lon="7.008490000">
        <ele>81</ele>
        <time>2021-04-28T11:49:04Z</time>
      </trkpt>
      <trkpt lat="51.589210000" lon="7.008650000">
        <ele>81</ele>
        <time>2021-04-28T11:49:05Z</time>
      </trkpt>
      <trkpt lat="51.589150000" lon="7.008820000">
        <ele>81</ele>
        <time>2021-04-28T11:49:07Z</time>
      </trkpt>
      <trkpt lat="51.589110000" lon="7.008930000">
        <ele>81</ele>
        <time>2021-04-28T11:49:09Z</time>
      </trkpt>
      <trkpt lat="51.589060000" lon="7.009080000">
        <ele>81</ele>
        <time>2021-04-28T11:49:10Z</time>
      </trkpt>
      <trkpt lat="51.588990000" lon="7.009220000">
        <ele>81</ele>
        <time>2021-04-28T11:49:12Z</time>
      </trkpt>
      <trkpt lat="51.588950000" lon="7.009290000">
        <ele>81</ele>
        <time>2021-04-28T11:49:13Z</time>
      </trkpt>
      <trkpt lat="51.588860000" lon="7.009440000">
        <ele>81</ele>
        <time>2021-04-28T11:49:16Z</time>
      </trkpt>
      <trkpt lat="51.588820000" lon="7.009500000">
        <ele>81</ele>
        <time>2021-04-28T11:49:17Z</time>
      </trkpt>
      <trkpt lat="51.588730000" lon="7.009640000">
        <ele>81</ele>
        <time>2021-04-28T11:49:19Z</time>
      </trkpt>
      <trkpt lat="51.588660000" lon="7.009800000">
        <ele>81</ele>
        <time>2021-04-28T11:49:21Z</time>
      </trkpt>
      <trkpt lat="51.588600000" lon="7.009970000">
        <ele>81</ele>
        <time>2021-04-28T11:49:23Z</time>
      </trkpt>
      <trkpt lat="51.588530000" lon="7.010130000">
        <ele>81</ele>
        <time>2021-04-28T11:49:25Z</time>
      </trkpt>
      <trkpt lat="51.588470000" lon="7.010300000">
        <ele>81</ele>
        <time>2021-04-28T11:49:26Z</time>
      </trkpt>
      <trkpt lat="51.588390000" lon="7.010460000">
        <ele>72</ele>
        <time>2021-04-28T11:49:28Z</time>
      </trkpt>
      <trkpt lat="51.588340000" lon="7.010540000">
        <ele>72</ele>
        <time>2021-04-28T11:49:30Z</time>
      </trkpt>
      <trkpt lat="51.588300000" lon="7.010600000">
        <ele>72</ele>
        <time>2021-04-28T11:49:31Z</time>
      </trkpt>
      <trkpt lat="51.588190000" lon="7.010680000">
        <ele>72</ele>
        <time>2021-04-28T11:49:33Z</time>
      </trkpt>
      <trkpt lat="51.588080000" lon="7.010780000">
        <ele>72</ele>
        <time>2021-04-28T11:49:35Z</time>
      </trkpt>
      <trkpt lat="51.588040000" lon="7.010850000">
        <ele>72</ele>
        <time>2021-04-28T11:49:36Z</time>
      </trkpt>
      <trkpt lat="51.587990000" lon="7.011000000">
        <ele>72</ele>
        <time>2021-04-28T11:49:38Z</time>
      </trkpt>
      <trkpt lat="51.587950000" lon="7.011080000">
        <ele>72</ele>
        <time>2021-04-28T11:49:39Z</time>
      </trkpt>
      <trkpt lat="51.587860000" lon="7.011240000">
        <ele>72</ele>
        <time>2021-04-28T11:49:41Z</time>
      </trkpt>
      <trkpt lat="51.587830000" lon="7.011310000">
        <ele>72</ele>
        <time>2021-04-28T11:49:42Z</time>
      </trkpt>
      <trkpt lat="51.587750000" lon="7.011450000">
        <ele>72</ele>
        <time>2021-04-28T11:49:44Z</time>
      </trkpt>
      <trkpt lat="51.587680000" lon="7.011580000">
        <ele>72</ele>
        <time>2021-04-28T11:49:46Z</time>
      </trkpt>
      <trkpt lat="51.587610000" lon="7.011690000">
        <ele>72</ele>
        <time>2021-04-28T11:49:47Z</time>
      </trkpt>
      <trkpt lat="51.587560000" lon="7.011770000">
        <ele>72</ele>
        <time>2021-04-28T11:49:48Z</time>
      </trkpt>
      <trkpt lat="51.587520000" lon="7.011870000">
        <ele>75</ele>
        <time>2021-04-28T11:49:50Z</time>
      </trkpt>
      <trkpt lat="51.587460000" lon="7.012010000">
        <ele>75</ele>
        <time>2021-04-28T11:49:52Z</time>
      </trkpt>
      <trkpt lat="51.587430000" lon="7.012070000">
        <ele>75</ele>
        <time>2021-04-28T11:49:53Z</time>
      </trkpt>
      <trkpt lat="51.587350000" lon="7.012210000">
        <ele>75</ele>
        <time>2021-04-28T11:49:55Z</time>
      </trkpt>
      <trkpt lat="51.587310000" lon="7.012290000">
        <ele>75</ele>
        <time>2021-04-28T11:49:56Z</time>
      </trkpt>
      <trkpt lat="51.587250000" lon="7.012430000">
        <ele>75</ele>
        <time>2021-04-28T11:49:58Z</time>
      </trkpt>
      <trkpt lat="51.587190000" lon="7.012580000">
        <ele>75</ele>
        <time>2021-04-28T11:50:00Z</time>
      </trkpt>
      <trkpt lat="51.587170000" lon="7.012640000">
        <ele>75</ele>
        <time>2021-04-28T11:50:01Z</time>
      </trkpt>
      <trkpt lat="51.587100000" lon="7.012790000">
        <ele>75</ele>
        <time>2021-04-28T11:50:03Z</time>
      </trkpt>
      <trkpt lat="51.587050000" lon="7.012910000">
        <ele>75</ele>
        <time>2021-04-28T11:50:04Z</time>
      </trkpt>
      <trkpt lat="51.587000000" lon="7.013020000">
        <ele>75</ele>
        <time>2021-04-28T11:50:06Z</time>
      </trkpt>
      <trkpt lat="51.586970000" lon="7.013090000">
        <ele>75</ele>
        <time>2021-04-28T11:50:07Z</time>
      </trkpt>
      <trkpt lat="51.586910000" lon="7.013220000">
        <ele>75</ele>
        <time>2021-04-28T11:50:09Z</time>
      </trkpt>
      <trkpt lat="51.586860000" lon="7.013300000">
        <ele>75</ele>
        <time>2021-04-28T11:50:11Z</time>
      </trkpt>
      <trkpt lat="51.586750000" lon="7.013360000">
        <ele>75</ele>
        <time>2021-04-28T11:50:13Z</time>
      </trkpt>
      <trkpt lat="51.586650000" lon="7.013400000">
        <ele>76</ele>
        <time>2021-04-28T11:50:15Z</time>
      </trkpt>
      <trkpt lat="51.586610000" lon="7.013430000">
        <ele>76</ele>
        <time>2021-04-28T11:50:16Z</time>
      </trkpt>
      <trkpt lat="51.586590000" lon="7.013500000">
        <ele>76</ele>
        <time>2021-04-28T11:50:17Z</time>
      </trkpt>
      <trkpt lat="51.586570000" lon="7.013640000">
        <ele>76</ele>
        <time>2021-04-28T11:50:18Z</time>
      </trkpt>
      <trkpt lat="51.586550000" lon="7.013750000">
        <ele>76</ele>
        <time>2021-04-28T11:50:20Z</time>
      </trkpt>
      <trkpt lat="51.586530000" lon="7.013920000">
        <ele>76</ele>
        <time>2021-04-28T11:50:22Z</time>
      </trkpt>
      <trkpt lat="51.586460000" lon="7.013970000">
        <ele>76</ele>
        <time>2021-04-28T11:50:23Z</time>
      </trkpt>
      <trkpt lat="51.586400000" lon="7.013980000">
        <ele>76</ele>
        <time>2021-04-28T11:50:25Z</time>
      </trkpt>
      <trkpt lat="51.586320000" lon="7.013930000">
        <ele>76</ele>
        <time>2021-04-28T11:50:27Z</time>
      </trkpt>
      <trkpt lat="51.586230000" lon="7.013880000">
        <ele>76</ele>
        <time>2021-04-28T11:50:28Z</time>
      </trkpt>
      <trkpt lat="51.586130000" lon="7.013820000">
        <ele>76</ele>
        <time>2021-04-28T11:50:30Z</time>
      </trkpt>
      <trkpt lat="51.586060000" lon="7.013820000">
        <ele>76</ele>
        <time>2021-04-28T11:50:32Z</time>
      </trkpt>
      <trkpt lat="51.585980000" lon="7.013880000">
        <ele>76</ele>
        <time>2021-04-28T11:50:33Z</time>
      </trkpt>
      <trkpt lat="51.585930000" lon="7.013940000">
        <ele>76</ele>
        <time>2021-04-28T11:50:34Z</time>
      </trkpt>
      <trkpt lat="51.585880000" lon="7.014000000">
        <ele>76</ele>
        <time>2021-04-28T11:50:36Z</time>
      </trkpt>
      <trkpt lat="51.585820000" lon="7.014050000">
        <ele>76</ele>
        <time>2021-04-28T11:50:38Z</time>
      </trkpt>
      <trkpt lat="51.585740000" lon="7.014120000">
        <ele>76</ele>
        <time>2021-04-28T11:50:40Z</time>
      </trkpt>
      <trkpt lat="51.585650000" lon="7.014160000">
        <ele>79</ele>
        <time>2021-04-28T11:50:42Z</time>
      </trkpt>
      <trkpt lat="51.585600000" lon="7.014170000">
        <ele>79</ele>
        <time>2021-04-28T11:50:43Z</time>
      </trkpt>
      <trkpt lat="51.585500000" lon="7.014220000">
        <ele>79</ele>
        <time>2021-04-28T11:50:45Z</time>
      </trkpt>
      <trkpt lat="51.585450000" lon="7.014240000">
        <ele>79</ele>
        <time>2021-04-28T11:50:46Z</time>
      </trkpt>
      <trkpt lat="51.585350000" lon="7.014300000">
        <ele>79</ele>
        <time>2021-04-28T11:50:48Z</time>
      </trkpt>
      <trkpt lat="51.585260000" lon="7.014350000">
        <ele>79</ele>
        <time>2021-04-28T11:50:49Z</time>
      </trkpt>
      <trkpt lat="51.585150000" lon="7.014390000">
        <ele>79</ele>
        <time>2021-04-28T11:50:51Z</time>
      </trkpt>
      <trkpt lat="51.585100000" lon="7.014410000">
        <ele>79</ele>
        <time>2021-04-28T11:50:52Z</time>
      </trkpt>
      <trkpt lat="51.585050000" lon="7.014430000">
        <ele>79</ele>
        <time>2021-04-28T11:50:53Z</time>
      </trkpt>
      <trkpt lat="51.585000000" lon="7.014450000">
        <ele>79</ele>
        <time>2021-04-28T11:50:54Z</time>
      </trkpt>
      <trkpt lat="51.584890000" lon="7.014480000">
        <ele>79</ele>
        <time>2021-04-28T11:50:56Z</time>
      </trkpt>
      <trkpt lat="51.584830000" lon="7.014500000">
        <ele>79</ele>
        <time>2021-04-28T11:50:58Z</time>
      </trkpt>
      <trkpt lat="51.584730000" lon="7.014530000">
        <ele>72</ele>
        <time>2021-04-28T11:51:00Z</time>
      </trkpt>
      <trkpt lat="51.584610000" lon="7.014560000">
        <ele>72</ele>
        <time>2021-04-28T11:51:02Z</time>
      </trkpt>
      <trkpt lat="51.584550000" lon="7.014580000">
        <ele>72</ele>
        <time>2021-04-28T11:51:03Z</time>
      </trkpt>
      <trkpt lat="51.584450000" lon="7.014610000">
        <ele>72</ele>
        <time>2021-04-28T11:51:04Z</time>
      </trkpt>
      <trkpt lat="51.584380000" lon="7.014630000">
        <ele>72</ele>
        <time>2021-04-28T11:51:05Z</time>
      </trkpt>
      <trkpt lat="51.584320000" lon="7.014660000">
        <ele>72</ele>
        <time>2021-04-28T11:51:06Z</time>
      </trkpt>
      <trkpt lat="51.584210000" lon="7.014690000">
        <ele>72</ele>
        <time>2021-04-28T11:51:08Z</time>
      </trkpt>
      <trkpt lat="51.584100000" lon="7.014720000">
        <ele>72</ele>
        <time>2021-04-28T11:51:10Z</time>
      </trkpt>
      <trkpt lat="51.583990000" lon="7.014740000">
        <ele>72</ele>
        <time>2021-04-28T11:51:12Z</time>
      </trkpt>
      <trkpt lat="51.583930000" lon="7.014760000">
        <ele>72</ele>
        <time>2021-04-28T11:51:13Z</time>
      </trkpt>
      <trkpt lat="51.583890000" lon="7.014780000">
        <ele>72</ele>
        <time>2021-04-28T11:51:14Z</time>
      </trkpt>
      <trkpt lat="51.583830000" lon="7.014800000">
        <ele>72</ele>
        <time>2021-04-28T11:51:15Z</time>
      </trkpt>
      <trkpt lat="51.583720000" lon="7.014850000">
        <ele>80</ele>
        <time>2021-04-28T11:51:17Z</time>
      </trkpt>
      <trkpt lat="51.583610000" lon="7.014930000">
        <ele>80</ele>
        <time>2021-04-28T11:51:19Z</time>
      </trkpt>
      <trkpt lat="51.583570000" lon="7.014990000">
        <ele>80</ele>
        <time>2021-04-28T11:51:20Z</time>
      </trkpt>
      <trkpt lat="51.583540000" lon="7.015170000">
        <ele>80</ele>
        <time>2021-04-28T11:51:22Z</time>
      </trkpt>
      <trkpt lat="51.583540000" lon="7.015260000">
        <ele>80</ele>
        <time>2021-04-28T11:51:23Z</time>
      </trkpt>
      <trkpt lat="51.583540000" lon="7.015360000">
        <ele>80</ele>
        <time>2021-04-28T11:51:24Z</time>
      </trkpt>
      <trkpt lat="51.583540000" lon="7.015560000">
        <ele>80</ele>
        <time>2021-04-28T11:51:26Z</time>
      </trkpt>
      <trkpt lat="51.583540000" lon="7.015660000">
        <ele>80</ele>
        <time>2021-04-28T11:51:27Z</time>
      </trkpt>
      <trkpt lat="51.583530000" lon="7.015860000">
        <ele>80</ele>
        <time>2021-04-28T11:51:29Z</time>
      </trkpt>
      <trkpt lat="51.583520000" lon="7.016060000">
        <ele>80</ele>
        <time>2021-04-28T11:51:31Z</time>
      </trkpt>
      <trkpt lat="51.583530000" lon="7.016260000">
        <ele>80</ele>
        <time>2021-04-28T11:51:33Z</time>
      </trkpt>
      <trkpt lat="51.583540000" lon="7.016460000">
        <ele>80</ele>
        <time>2021-04-28T11:51:35Z</time>
      </trkpt>
      <trkpt lat="51.583550000" lon="7.016660000">
        <ele>80</ele>
        <time>2021-04-28T11:51:37Z</time>
      </trkpt>
      <trkpt lat="51.583560000" lon="7.016760000">
        <ele>80</ele>
        <time>2021-04-28T11:51:38Z</time>
      </trkpt>
      <trkpt lat="51.583590000" lon="7.016940000">
        <ele>80</ele>
        <time>2021-04-28T11:51:40Z</time>
      </trkpt>
      <trkpt lat="51.583600000" lon="7.017130000">
        <ele>80</ele>
        <time>2021-04-28T11:51:42Z</time>
      </trkpt>
      <trkpt lat="51.583630000" lon="7.017350000">
        <ele>80</ele>
        <time>2021-04-28T11:51:44Z</time>
      </trkpt>
      <trkpt lat="51.583640000" lon="7.017450000">
        <ele>80</ele>
        <time>2021-04-28T11:51:45Z</time>
      </trkpt>
      <trkpt lat="51.583650000" lon="7.017540000">
        <ele>80</ele>
        <time>2021-04-28T11:51:46Z</time>
      </trkpt>
      <trkpt lat="51.583660000" lon="7.017730000">
        <ele>80</ele>
        <time>2021-04-28T11:51:48Z</time>
      </trkpt>
      <trkpt lat="51.583680000" lon="7.017840000">
        <ele>80</ele>
        <time>2021-04-28T11:51:49Z</time>
      </trkpt>
      <trkpt lat="51.583700000" lon="7.018040000">
        <ele>80</ele>
        <time>2021-04-28T11:51:51Z</time>
      </trkpt>
      <trkpt lat="51.583730000" lon="7.018250000">
        <ele>79</ele>
        <time>2021-04-28T11:51:53Z</time>
      </trkpt>
      <trkpt lat="51.583740000" lon="7.018350000">
        <ele>79</ele>
        <time>2021-04-28T11:51:54Z</time>
      </trkpt>
      <trkpt lat="51.583760000" lon="7.018560000">
        <ele>79</ele>
        <time>2021-04-28T11:51:56Z</time>
      </trkpt>
      <trkpt lat="51.583780000" lon="7.018760000">
        <ele>79</ele>
        <time>2021-04-28T11:51:58Z</time>
      </trkpt>
      <trkpt lat="51.583800000" lon="7.018970000">
        <ele>79</ele>
        <time>2021-04-28T11:52:00Z</time>
      </trkpt>
      <trkpt lat="51.583810000" lon="7.019070000">
        <ele>79</ele>
        <time>2021-04-28T11:52:01Z</time>
      </trkpt>
      <trkpt lat="51.583820000" lon="7.019170000">
        <ele>79</ele>
        <time>2021-04-28T11:52:02Z</time>
      </trkpt>
      <trkpt lat="51.583830000" lon="7.019280000">
        <ele>79</ele>
        <time>2021-04-28T11:52:03Z</time>
      </trkpt>
      <trkpt lat="51.583850000" lon="7.019480000">
        <ele>79</ele>
        <time>2021-04-28T11:52:05Z</time>
      </trkpt>
      <trkpt lat="51.583870000" lon="7.019670000">
        <ele>79</ele>
        <time>2021-04-28T11:52:07Z</time>
      </trkpt>
      <trkpt lat="51.583880000" lon="7.019770000">
        <ele>79</ele>
        <time>2021-04-28T11:52:08Z</time>
      </trkpt>
      <trkpt lat="51.583890000" lon="7.019960000">
        <ele>79</ele>
        <time>2021-04-28T11:52:10Z</time>
      </trkpt>
      <trkpt lat="51.583880000" lon="7.020150000">
        <ele>79</ele>
        <time>2021-04-28T11:52:12Z</time>
      </trkpt>
      <trkpt lat="51.583870000" lon="7.020230000">
        <ele>79</ele>
        <time>2021-04-28T11:52:13Z</time>
      </trkpt>
      <trkpt lat="51.583800000" lon="7.020270000">
        <ele>79</ele>
        <time>2021-04-28T11:52:14Z</time>
      </trkpt>
      <trkpt lat="51.583740000" lon="7.020280000">
        <ele>81</ele>
        <time>2021-04-28T11:52:15Z</time>
      </trkpt>
      <trkpt lat="51.583670000" lon="7.020310000">
        <ele>81</ele>
        <time>2021-04-28T11:52:16Z</time>
      </trkpt>
      <trkpt lat="51.583550000" lon="7.020360000">
        <ele>81</ele>
        <time>2021-04-28T11:52:18Z</time>
      </trkpt>
      <trkpt lat="51.583500000" lon="7.020380000">
        <ele>81</ele>
        <time>2021-04-28T11:52:19Z</time>
      </trkpt>
      <trkpt lat="51.583370000" lon="7.020450000">
        <ele>81</ele>
        <time>2021-04-28T11:52:21Z</time>
      </trkpt>
      <trkpt lat="51.583240000" lon="7.020520000">
        <ele>81</ele>
        <time>2021-04-28T11:52:23Z</time>
      </trkpt>
      <trkpt lat="51.583180000" lon="7.020550000">
        <ele>81</ele>
        <time>2021-04-28T11:52:24Z</time>
      </trkpt>
      <trkpt lat="51.583100000" lon="7.020580000">
        <ele>81</ele>
        <time>2021-04-28T11:52:26Z</time>
      </trkpt>
      <trkpt lat="51.582980000" lon="7.020600000">
        <ele>81</ele>
        <time>2021-04-28T11:52:28Z</time>
      </trkpt>
      <trkpt lat="51.582860000" lon="7.020600000">
        <ele>81</ele>
        <time>2021-04-28T11:52:30Z</time>
      </trkpt>
      <trkpt lat="51.582800000" lon="7.020600000">
        <ele>81</ele>
        <time>2021-04-28T11:52:31Z</time>
      </trkpt>
      <trkpt lat="51.582680000" lon="7.020600000">
        <ele>81</ele>
        <time>2021-04-28T11:52:32Z</time>
      </trkpt>
      <trkpt lat="51.582570000" lon="7.020580000">
        <ele>81</ele>
        <time>2021-04-28T11:52:34Z</time>
      </trkpt>
      <trkpt lat="51.582500000" lon="7.020560000">
        <ele>81</ele>
        <time>2021-04-28T11:52:35Z</time>
      </trkpt>
      <trkpt lat="51.582440000" lon="7.020540000">
        <ele>81</ele>
        <time>2021-04-28T11:52:36Z</time>
      </trkpt>
      <trkpt lat="51.582330000" lon="7.020480000">
        <ele>81</ele>
        <time>2021-04-28T11:52:38Z</time>
      </trkpt>
      <trkpt lat="51.582280000" lon="7.020460000">
        <ele>81</ele>
        <time>2021-04-28T11:52:39Z</time>
      </trkpt>
      <trkpt lat="51.582230000" lon="7.020440000">
        <ele>81</ele>
        <time>2021-04-28T11:52:40Z</time>
      </trkpt>
      <trkpt lat="51.582120000" lon="7.020380000">
        <ele>81</ele>
        <time>2021-04-28T11:52:42Z</time>
      </trkpt>
      <trkpt lat="51.582060000" lon="7.020360000">
        <ele>81</ele>
        <time>2021-04-28T11:52:43Z</time>
      </trkpt>
      <trkpt lat="51.581940000" lon="7.020320000">
        <ele>81</ele>
        <time>2021-04-28T11:52:45Z</time>
      </trkpt>
      <trkpt lat="51.581880000" lon="7.020310000">
        <ele>81</ele>
        <time>2021-04-28T11:52:46Z</time>
      </trkpt>
      <trkpt lat="51.581750000" lon="7.020260000">
        <ele>81</ele>
        <time>2021-04-28T11:52:48Z</time>
      </trkpt>
      <trkpt lat="51.581700000" lon="7.020240000">
        <ele>81</ele>
        <time>2021-04-28T11:52:49Z</time>
      </trkpt>
      <trkpt lat="51.581650000" lon="7.020210000">
        <ele>81</ele>
        <time>2021-04-28T11:52:50Z</time>
      </trkpt>
      <trkpt lat="51.581600000" lon="7.020170000">
        <ele>81</ele>
        <time>2021-04-28T11:52:51Z</time>
      </trkpt>
      <trkpt lat="51.581570000" lon="7.020120000">
        <ele>77</ele>
        <time>2021-04-28T11:52:52Z</time>
      </trkpt>
      <trkpt lat="51.581540000" lon="7.019990000">
        <ele>77</ele>
        <time>2021-04-28T11:52:54Z</time>
      </trkpt>
      <trkpt lat="51.581560000" lon="7.019920000">
        <ele>77</ele>
        <time>2021-04-28T11:52:55Z</time>
      </trkpt>
      <trkpt lat="51.581610000" lon="7.019770000">
        <ele>77</ele>
        <time>2021-04-28T11:52:57Z</time>
      </trkpt>
      <trkpt lat="51.581630000" lon="7.019690000">
        <ele>77</ele>
        <time>2021-04-28T11:52:58Z</time>
      </trkpt>
      <trkpt lat="51.581650000" lon="7.019600000">
        <ele>77</ele>
        <time>2021-04-28T11:52:59Z</time>
      </trkpt>
      <trkpt lat="51.581690000" lon="7.019400000">
        <ele>77</ele>
        <time>2021-04-28T11:53:01Z</time>
      </trkpt>
      <trkpt lat="51.581720000" lon="7.019240000">
        <ele>77</ele>
        <time>2021-04-28T11:53:03Z</time>
      </trkpt>
      <trkpt lat="51.581730000" lon="7.019170000">
        <ele>77</ele>
        <time>2021-04-28T11:53:04Z</time>
      </trkpt>
      <trkpt lat="51.581750000" lon="7.019090000">
        <ele>77</ele>
        <time>2021-04-28T11:53:05Z</time>
      </trkpt>
      <trkpt lat="51.581780000" lon="7.018900000">
        <ele>77</ele>
        <time>2021-04-28T11:53:07Z</time>
      </trkpt>
      <trkpt lat="51.581790000" lon="7.018800000">
        <ele>77</ele>
        <time>2021-04-28T11:53:08Z</time>
      </trkpt>
      <trkpt lat="51.581800000" lon="7.018720000">
        <ele>77</ele>
        <time>2021-04-28T11:53:09Z</time>
      </trkpt>
      <trkpt lat="51.581780000" lon="7.018580000">
        <ele>77</ele>
        <time>2021-04-28T11:53:11Z</time>
      </trkpt>
      <trkpt lat="51.581750000" lon="7.018530000">
        <ele>77</ele>
        <time>2021-04-28T11:53:12Z</time>
      </trkpt>
      <trkpt lat="51.581700000" lon="7.018510000">
        <ele>77</ele>
        <time>2021-04-28T11:53:13Z</time>
      </trkpt>
      <trkpt lat="51.581590000" lon="7.018480000">
        <ele>80</ele>
        <time>2021-04-28T11:53:15Z</time>
      </trkpt>
      <trkpt lat="51.581460000" lon="7.018480000">
        <ele>80</ele>
        <time>2021-04-28T11:53:17Z</time>
      </trkpt>
      <trkpt lat="51.581400000" lon="7.018500000">
        <ele>80</ele>
        <time>2021-04-28T11:53:18Z</time>
      </trkpt>
      <trkpt lat="51.581300000" lon="7.018550000">
        <ele>80</ele>
        <time>2021-04-28T11:53:20Z</time>
      </trkpt>
      <trkpt lat="51.581200000" lon="7.018570000">
        <ele>80</ele>
        <time>2021-04-28T11:53:22Z</time>
      </trkpt>
      <trkpt lat="51.581080000" lon="7.018600000">
        <ele>80</ele>
        <time>2021-04-28T11:53:24Z</time>
      </trkpt>
      <trkpt lat="51.581020000" lon="7.018610000">
        <ele>80</ele>
        <time>2021-04-28T11:53:25Z</time>
      </trkpt>
      <trkpt lat="51.580960000" lon="7.018620000">
        <ele>80</ele>
        <time>2021-04-28T11:53:26Z</time>
      </trkpt>
      <trkpt lat="51.580850000" lon="7.018640000">
        <ele>80</ele>
        <time>2021-04-28T11:53:28Z</time>
      </trkpt>
      <trkpt lat="51.580720000" lon="7.018670000">
        <ele>79</ele>
        <time>2021-04-28T11:53:30Z</time>
      </trkpt>
      <trkpt lat="51.580610000" lon="7.018750000">
        <ele>79</ele>
        <time>2021-04-28T11:53:32Z</time>
      </trkpt>
      <trkpt lat="51.580570000" lon="7.018810000">
        <ele>79</ele>
        <time>2021-04-28T11:53:33Z</time>
      </trkpt>
      <trkpt lat="51.580520000" lon="7.018880000">
        <ele>79</ele>
        <time>2021-04-28T11:53:35Z</time>
      </trkpt>
      <trkpt lat="51.580430000" lon="7.018970000">
        <ele>79</ele>
        <time>2021-04-28T11:53:38Z</time>
      </trkpt>
      <trkpt lat="51.580320000" lon="7.018930000">
        <ele>79</ele>
        <time>2021-04-28T11:53:39Z</time>
      </trkpt>
      <trkpt lat="51.580270000" lon="7.018890000">
        <ele>79</ele>
        <time>2021-04-28T11:53:40Z</time>
      </trkpt>
      <trkpt lat="51.580200000" lon="7.018840000">
        <ele>79</ele>
        <time>2021-04-28T11:53:42Z</time>
      </trkpt>
      <trkpt lat="51.580110000" lon="7.018730000">
        <ele>77</ele>
        <time>2021-04-28T11:53:44Z</time>
      </trkpt>
      <trkpt lat="51.580010000" lon="7.018590000">
        <ele>77</ele>
        <time>2021-04-28T11:53:46Z</time>
      </trkpt>
      <trkpt lat="51.579920000" lon="7.018560000">
        <ele>77</ele>
        <time>2021-04-28T11:53:48Z</time>
      </trkpt>
      <trkpt lat="51.579830000" lon="7.018500000">
        <ele>77</ele>
        <time>2021-04-28T11:53:51Z</time>
      </trkpt>
      <trkpt lat="51.579800000" lon="7.018430000">
        <ele>77</ele>
        <time>2021-04-28T11:53:53Z</time>
      </trkpt>
      <trkpt lat="51.579760000" lon="7.018390000">
        <ele>77</ele>
        <time>2021-04-28T11:54:05Z</time>
      </trkpt>
      <trkpt lat="51.579720000" lon="7.018390000">
        <ele>77</ele>
        <time>2021-04-28T11:54:11Z</time>
      </trkpt>
      <trkpt lat="51.579660000" lon="7.018380000">
        <ele>77</ele>
        <time>2021-04-28T11:54:17Z</time>
      </trkpt>
      <trkpt lat="51.579600000" lon="7.018380000">
        <ele>77</ele>
        <time>2021-04-28T11:54:24Z</time>
      </trkpt>
      <trkpt lat="51.579530000" lon="7.018320000">
        <ele>77</ele>
        <time>2021-04-28T11:54:28Z</time>
      </trkpt>
      <trkpt lat="51.579490000" lon="7.018230000">
        <ele>77</ele>
        <time>2021-04-28T11:54:30Z</time>
      </trkpt>
      <trkpt lat="51.579410000" lon="7.018170000">
        <ele>77</ele>
        <time>2021-04-28T11:54:32Z</time>
      </trkpt>
      <trkpt lat="51.579300000" lon="7.018210000">
        <ele>77</ele>
        <time>2021-04-28T11:54:34Z</time>
      </trkpt>
      <trkpt lat="51.579230000" lon="7.018230000">
        <ele>77</ele>
        <time>2021-04-28T11:54:35Z</time>
      </trkpt>
      <trkpt lat="51.579170000" lon="7.018250000">
        <ele>77</ele>
        <time>2021-04-28T11:54:36Z</time>
      </trkpt>
      <trkpt lat="51.579090000" lon="7.018320000">
        <ele>77</ele>
        <time>2021-04-28T11:54:38Z</time>
      </trkpt>
      <trkpt lat="51.578980000" lon="7.018370000">
        <ele>80</ele>
        <time>2021-04-28T11:54:40Z</time>
      </trkpt>
      <trkpt lat="51.578860000" lon="7.018420000">
        <ele>80</ele>
        <time>2021-04-28T11:54:41Z</time>
      </trkpt>
      <trkpt lat="51.578700000" lon="7.018470000">
        <ele>80</ele>
        <time>2021-04-28T11:54:44Z</time>
      </trkpt>
      <trkpt lat="51.578640000" lon="7.018480000">
        <ele>80</ele>
        <time>2021-04-28T11:54:45Z</time>
      </trkpt>
      <trkpt lat="51.578520000" lon="7.018540000">
        <ele>80</ele>
        <time>2021-04-28T11:54:47Z</time>
      </trkpt>
      <trkpt lat="51.578400000" lon="7.018610000">
        <ele>80</ele>
        <time>2021-04-28T11:54:49Z</time>
      </trkpt>
      <trkpt lat="51.578280000" lon="7.018660000">
        <ele>80</ele>
        <time>2021-04-28T11:54:51Z</time>
      </trkpt>
      <trkpt lat="51.578220000" lon="7.018700000">
        <ele>80</ele>
        <time>2021-04-28T11:54:52Z</time>
      </trkpt>
      <trkpt lat="51.578080000" lon="7.018750000">
        <ele>88</ele>
        <time>2021-04-28T11:54:54Z</time>
      </trkpt>
      <trkpt lat="51.577900000" lon="7.018800000">
        <ele>88</ele>
        <time>2021-04-28T11:54:56Z</time>
      </trkpt>
      <trkpt lat="51.577740000" lon="7.018830000">
        <ele>88</ele>
        <time>2021-04-28T11:54:58Z</time>
      </trkpt>
      <trkpt lat="51.577600000" lon="7.018860000">
        <ele>88</ele>
        <time>2021-04-28T11:55:00Z</time>
      </trkpt>
      <trkpt lat="51.577520000" lon="7.018890000">
        <ele>88</ele>
        <time>2021-04-28T11:55:01Z</time>
      </trkpt>
      <trkpt lat="51.577360000" lon="7.018930000">
        <ele>88</ele>
        <time>2021-04-28T11:55:02Z</time>
      </trkpt>
      <trkpt lat="51.577150000" lon="7.018970000">
        <ele>88</ele>
        <time>2021-04-28T11:55:05Z</time>
      </trkpt>
      <trkpt lat="51.577080000" lon="7.018990000">
        <ele>88</ele>
        <time>2021-04-28T11:55:06Z</time>
      </trkpt>
      <trkpt lat="51.576950000" lon="7.019020000">
        <ele>88</ele>
        <time>2021-04-28T11:55:08Z</time>
      </trkpt>
      <trkpt lat="51.576790000" lon="7.019070000">
        <ele>88</ele>
        <time>2021-04-28T11:55:10Z</time>
      </trkpt>
      <trkpt lat="51.576700000" lon="7.019090000">
        <ele>83</ele>
        <time>2021-04-28T11:55:11Z</time>
      </trkpt>
      <trkpt lat="51.576550000" lon="7.019120000">
        <ele>83</ele>
        <time>2021-04-28T11:55:13Z</time>
      </trkpt>
      <trkpt lat="51.576400000" lon="7.019190000">
        <ele>83</ele>
        <time>2021-04-28T11:55:15Z</time>
      </trkpt>
      <trkpt lat="51.576330000" lon="7.019210000">
        <ele>83</ele>
        <time>2021-04-28T11:55:16Z</time>
      </trkpt>
      <trkpt lat="51.576210000" lon="7.019220000">
        <ele>83</ele>
        <time>2021-04-28T11:55:18Z</time>
      </trkpt>
      <trkpt lat="51.576150000" lon="7.019100000">
        <ele>83</ele>
        <time>2021-04-28T11:55:20Z</time>
      </trkpt>
      <trkpt lat="51.576150000" lon="7.018940000">
        <ele>83</ele>
        <time>2021-04-28T11:55:22Z</time>
      </trkpt>
      <trkpt lat="51.576150000" lon="7.018760000">
        <ele>83</ele>
        <time>2021-04-28T11:55:23Z</time>
      </trkpt>
      <trkpt lat="51.576150000" lon="7.018480000">
        <ele>83</ele>
        <time>2021-04-28T11:55:26Z</time>
      </trkpt>
      <trkpt lat="51.576160000" lon="7.018300000">
        <ele>83</ele>
        <time>2021-04-28T11:55:27Z</time>
      </trkpt>
      <trkpt lat="51.576160000" lon="7.018180000">
        <ele>83</ele>
        <time>2021-04-28T11:55:28Z</time>
      </trkpt>
      <trkpt lat="51.576160000" lon="7.018080000">
        <ele>83</ele>
        <time>2021-04-28T11:55:29Z</time>
      </trkpt>
      <trkpt lat="51.576160000" lon="7.017950000">
        <ele>83</ele>
        <time>2021-04-28T11:55:31Z</time>
      </trkpt>
      <trkpt lat="51.576160000" lon="7.017790000">
        <ele>83</ele>
        <time>2021-04-28T11:55:32Z</time>
      </trkpt>
      <trkpt lat="51.576170000" lon="7.017640000">
        <ele>83</ele>
        <time>2021-04-28T11:55:34Z</time>
      </trkpt>
      <trkpt lat="51.576160000" lon="7.017420000">
        <ele>83</ele>
        <time>2021-04-28T11:55:36Z</time>
      </trkpt>
      <trkpt lat="51.576150000" lon="7.017240000">
        <ele>83</ele>
        <time>2021-04-28T11:55:37Z</time>
      </trkpt>
      <trkpt lat="51.576150000" lon="7.017100000">
        <ele>83</ele>
        <time>2021-04-28T11:55:39Z</time>
      </trkpt>
      <trkpt lat="51.576150000" lon="7.016910000">
        <ele>72</ele>
        <time>2021-04-28T11:55:41Z</time>
      </trkpt>
      <trkpt lat="51.576150000" lon="7.016720000">
        <ele>72</ele>
        <time>2021-04-28T11:55:42Z</time>
      </trkpt>
      <trkpt lat="51.576160000" lon="7.016520000">
        <ele>72</ele>
        <time>2021-04-28T11:55:44Z</time>
      </trkpt>
      <trkpt lat="51.576160000" lon="7.016390000">
        <ele>72</ele>
        <time>2021-04-28T11:55:46Z</time>
      </trkpt>
      <trkpt lat="51.576160000" lon="7.016210000">
        <ele>72</ele>
        <time>2021-04-28T11:55:48Z</time>
      </trkpt>
      <trkpt lat="51.576180000" lon="7.016010000">
        <ele>72</ele>
        <time>2021-04-28T11:55:50Z</time>
      </trkpt>
      <trkpt lat="51.576180000" lon="7.015820000">
        <ele>72</ele>
        <time>2021-04-28T11:55:52Z</time>
      </trkpt>
      <trkpt lat="51.576190000" lon="7.015720000">
        <ele>72</ele>
        <time>2021-04-28T11:55:53Z</time>
      </trkpt>
      <trkpt lat="51.576190000" lon="7.015630000">
        <ele>72</ele>
        <time>2021-04-28T11:55:54Z</time>
      </trkpt>
      <trkpt lat="51.576190000" lon="7.015470000">
        <ele>72</ele>
        <time>2021-04-28T11:55:55Z</time>
      </trkpt>
      <trkpt lat="51.576200000" lon="7.015340000">
        <ele>72</ele>
        <time>2021-04-28T11:55:57Z</time>
      </trkpt>
      <trkpt lat="51.576190000" lon="7.015220000">
        <ele>72</ele>
        <time>2021-04-28T11:55:59Z</time>
      </trkpt>
      <trkpt lat="51.576160000" lon="7.015140000">
        <ele>70</ele>
        <time>2021-04-28T11:56:01Z</time>
      </trkpt>
      <trkpt lat="51.576100000" lon="7.015130000">
        <ele>70</ele>
        <time>2021-04-28T11:56:02Z</time>
      </trkpt>
      <trkpt lat="51.575990000" lon="7.015140000">
        <ele>70</ele>
        <time>2021-04-28T11:56:04Z</time>
      </trkpt>
      <trkpt lat="51.575950000" lon="7.015160000">
        <ele>70</ele>
        <time>2021-04-28T11:56:05Z</time>
      </trkpt>
      <trkpt lat="51.575890000" lon="7.015190000">
        <ele>70</ele>
        <time>2021-04-28T11:56:07Z</time>
      </trkpt>
      <trkpt lat="51.575780000" lon="7.015210000">
        <ele>70</ele>
        <time>2021-04-28T11:56:09Z</time>
      </trkpt>
      <trkpt lat="51.575710000" lon="7.015200000">
        <ele>70</ele>
        <time>2021-04-28T11:56:10Z</time>
      </trkpt>
      <trkpt lat="51.575560000" lon="7.015240000">
        <ele>70</ele>
        <time>2021-04-28T11:56:12Z</time>
      </trkpt>
      <trkpt lat="51.575440000" lon="7.015270000">
        <ele>70</ele>
        <time>2021-04-28T11:56:14Z</time>
      </trkpt>
      <trkpt lat="51.575330000" lon="7.015290000">
        <ele>70</ele>
        <time>2021-04-28T11:56:16Z</time>
      </trkpt>
      <trkpt lat="51.575280000" lon="7.015280000">
        <ele>70</ele>
        <time>2021-04-28T11:56:17Z</time>
      </trkpt>
      <trkpt lat="51.575230000" lon="7.015260000">
        <ele>70</ele>
        <time>2021-04-28T11:56:18Z</time>
      </trkpt>
      <trkpt lat="51.575190000" lon="7.015240000">
        <ele>70</ele>
        <time>2021-04-28T11:56:19Z</time>
      </trkpt>
      <trkpt lat="51.575100000" lon="7.015130000">
        <ele>70</ele>
        <time>2021-04-28T11:56:21Z</time>
      </trkpt>
      <trkpt lat="51.575040000" lon="7.015000000">
        <ele>70</ele>
        <time>2021-04-28T11:56:23Z</time>
      </trkpt>
      <trkpt lat="51.575000000" lon="7.014930000">
        <ele>70</ele>
        <time>2021-04-28T11:56:24Z</time>
      </trkpt>
      <trkpt lat="51.574950000" lon="7.014830000">
        <ele>65</ele>
        <time>2021-04-28T11:56:25Z</time>
      </trkpt>
      <trkpt lat="51.574820000" lon="7.014670000">
        <ele>65</ele>
        <time>2021-04-28T11:56:28Z</time>
      </trkpt>
      <trkpt lat="51.574750000" lon="7.014590000">
        <ele>65</ele>
        <time>2021-04-28T11:56:29Z</time>
      </trkpt>
      <trkpt lat="51.574690000" lon="7.014520000">
        <ele>65</ele>
        <time>2021-04-28T11:56:31Z</time>
      </trkpt>
      <trkpt lat="51.574610000" lon="7.014400000">
        <ele>65</ele>
        <time>2021-04-28T11:56:33Z</time>
      </trkpt>
      <trkpt lat="51.574560000" lon="7.014220000">
        <ele>65</ele>
        <time>2021-04-28T11:56:35Z</time>
      </trkpt>
      <trkpt lat="51.574530000" lon="7.014050000">
        <ele>65</ele>
        <time>2021-04-28T11:56:36Z</time>
      </trkpt>
      <trkpt lat="51.574510000" lon="7.013910000">
        <ele>65</ele>
        <time>2021-04-28T11:56:38Z</time>
      </trkpt>
      <trkpt lat="51.574510000" lon="7.013730000">
        <ele>65</ele>
        <time>2021-04-28T11:56:40Z</time>
      </trkpt>
      <trkpt lat="51.574510000" lon="7.013640000">
        <ele>65</ele>
        <time>2021-04-28T11:56:41Z</time>
      </trkpt>
      <trkpt lat="51.574490000" lon="7.013460000">
        <ele>69</ele>
        <time>2021-04-28T11:56:43Z</time>
      </trkpt>
      <trkpt lat="51.574470000" lon="7.013270000">
        <ele>69</ele>
        <time>2021-04-28T11:56:44Z</time>
      </trkpt>
      <trkpt lat="51.574470000" lon="7.013090000">
        <ele>69</ele>
        <time>2021-04-28T11:56:46Z</time>
      </trkpt>
      <trkpt lat="51.574480000" lon="7.012940000">
        <ele>69</ele>
        <time>2021-04-28T11:56:48Z</time>
      </trkpt>
      <trkpt lat="51.574530000" lon="7.012760000">
        <ele>69</ele>
        <time>2021-04-28T11:56:50Z</time>
      </trkpt>
      <trkpt lat="51.574540000" lon="7.012600000">
        <ele>69</ele>
        <time>2021-04-28T11:56:51Z</time>
      </trkpt>
      <trkpt lat="51.574560000" lon="7.012470000">
        <ele>69</ele>
        <time>2021-04-28T11:56:53Z</time>
      </trkpt>
      <trkpt lat="51.574580000" lon="7.012390000">
        <ele>69</ele>
        <time>2021-04-28T11:56:54Z</time>
      </trkpt>
      <trkpt lat="51.574590000" lon="7.012200000">
        <ele>69</ele>
        <time>2021-04-28T11:56:56Z</time>
      </trkpt>
      <trkpt lat="51.574560000" lon="7.011990000">
        <ele>69</ele>
        <time>2021-04-28T11:56:58Z</time>
      </trkpt>
      <trkpt lat="51.574520000" lon="7.011790000">
        <ele>69</ele>
        <time>2021-04-28T11:57:00Z</time>
      </trkpt>
      <trkpt lat="51.574480000" lon="7.011590000">
        <ele>71</ele>
        <time>2021-04-28T11:57:02Z</time>
      </trkpt>
      <trkpt lat="51.574450000" lon="7.011410000">
        <ele>71</ele>
        <time>2021-04-28T11:57:03Z</time>
      </trkpt>
      <trkpt lat="51.574420000" lon="7.011280000">
        <ele>71</ele>
        <time>2021-04-28T11:57:05Z</time>
      </trkpt>
      <trkpt lat="51.574390000" lon="7.011170000">
        <ele>71</ele>
        <time>2021-04-28T11:57:06Z</time>
      </trkpt>
      <trkpt lat="51.574340000" lon="7.011070000">
        <ele>71</ele>
        <time>2021-04-28T11:57:09Z</time>
      </trkpt>
      <trkpt lat="51.574310000" lon="7.011010000">
        <ele>71</ele>
        <time>2021-04-28T11:57:10Z</time>
      </trkpt>
      <trkpt lat="51.574200000" lon="7.010850000">
        <ele>71</ele>
        <time>2021-04-28T11:57:12Z</time>
      </trkpt>
      <trkpt lat="51.574090000" lon="7.010660000">
        <ele>71</ele>
        <time>2021-04-28T11:57:14Z</time>
      </trkpt>
      <trkpt lat="51.574000000" lon="7.010470000">
        <ele>71</ele>
        <time>2021-04-28T11:57:16Z</time>
      </trkpt>
      <trkpt lat="51.573950000" lon="7.010380000">
        <ele>71</ele>
        <time>2021-04-28T11:57:17Z</time>
      </trkpt>
      <trkpt lat="51.573890000" lon="7.010220000">
        <ele>71</ele>
        <time>2021-04-28T11:57:19Z</time>
      </trkpt>
      <trkpt lat="51.573820000" lon="7.010080000">
        <ele>71</ele>
        <time>2021-04-28T11:57:20Z</time>
      </trkpt>
      <trkpt lat="51.573770000" lon="7.009980000">
        <ele>71</ele>
        <time>2021-04-28T11:57:22Z</time>
      </trkpt>
      <trkpt lat="51.573690000" lon="7.009850000">
        <ele>71</ele>
        <time>2021-04-28T11:57:24Z</time>
      </trkpt>
      <trkpt lat="51.573630000" lon="7.009700000">
        <ele>76</ele>
        <time>2021-04-28T11:57:25Z</time>
      </trkpt>
      <trkpt lat="51.573550000" lon="7.009550000">
        <ele>76</ele>
        <time>2021-04-28T11:57:27Z</time>
      </trkpt>
      <trkpt lat="51.573510000" lon="7.009450000">
        <ele>76</ele>
        <time>2021-04-28T11:57:29Z</time>
      </trkpt>
      <trkpt lat="51.573440000" lon="7.009270000">
        <ele>76</ele>
        <time>2021-04-28T11:57:31Z</time>
      </trkpt>
      <trkpt lat="51.573410000" lon="7.009170000">
        <ele>76</ele>
        <time>2021-04-28T11:57:32Z</time>
      </trkpt>
      <trkpt lat="51.573360000" lon="7.008970000">
        <ele>76</ele>
        <time>2021-04-28T11:57:34Z</time>
      </trkpt>
      <trkpt lat="51.573340000" lon="7.008770000">
        <ele>76</ele>
        <time>2021-04-28T11:57:36Z</time>
      </trkpt>
      <trkpt lat="51.573330000" lon="7.008550000">
        <ele>76</ele>
        <time>2021-04-28T11:57:38Z</time>
      </trkpt>
      <trkpt lat="51.573280000" lon="7.008370000">
        <ele>76</ele>
        <time>2021-04-28T11:57:39Z</time>
      </trkpt>
      <trkpt lat="51.573180000" lon="7.008150000">
        <ele>76</ele>
        <time>2021-04-28T11:57:42Z</time>
      </trkpt>
      <trkpt lat="51.573150000" lon="7.008060000">
        <ele>76</ele>
        <time>2021-04-28T11:57:43Z</time>
      </trkpt>
      <trkpt lat="51.573110000" lon="7.007970000">
        <ele>76</ele>
        <time>2021-04-28T11:57:44Z</time>
      </trkpt>
      <trkpt lat="51.573070000" lon="7.007880000">
        <ele>76</ele>
        <time>2021-04-28T11:57:45Z</time>
      </trkpt>
      <trkpt lat="51.573030000" lon="7.007780000">
        <ele>69</ele>
        <time>2021-04-28T11:57:46Z</time>
      </trkpt>
      <trkpt lat="51.572950000" lon="7.007610000">
        <ele>69</ele>
        <time>2021-04-28T11:57:47Z</time>
      </trkpt>
      <trkpt lat="51.572900000" lon="7.007500000">
        <ele>69</ele>
        <time>2021-04-28T11:57:48Z</time>
      </trkpt>
      <trkpt lat="51.572860000" lon="7.007370000">
        <ele>69</ele>
        <time>2021-04-28T11:57:50Z</time>
      </trkpt>
      <trkpt lat="51.572820000" lon="7.007290000">
        <ele>69</ele>
        <time>2021-04-28T11:57:51Z</time>
      </trkpt>
      <trkpt lat="51.572780000" lon="7.007130000">
        <ele>69</ele>
        <time>2021-04-28T11:57:52Z</time>
      </trkpt>
      <trkpt lat="51.572720000" lon="7.006910000">
        <ele>69</ele>
        <time>2021-04-28T11:57:55Z</time>
      </trkpt>
      <trkpt lat="51.572650000" lon="7.006750000">
        <ele>69</ele>
        <time>2021-04-28T11:57:57Z</time>
      </trkpt>
      <trkpt lat="51.572570000" lon="7.006570000">
        <ele>69</ele>
        <time>2021-04-28T11:57:59Z</time>
      </trkpt>
      <trkpt lat="51.572500000" lon="7.006380000">
        <ele>69</ele>
        <time>2021-04-28T11:58:01Z</time>
      </trkpt>
      <trkpt lat="51.572460000" lon="7.006220000">
        <ele>69</ele>
        <time>2021-04-28T11:58:03Z</time>
      </trkpt>
      <trkpt lat="51.572380000" lon="7.006090000">
        <ele>69</ele>
        <time>2021-04-28T11:58:05Z</time>
      </trkpt>
      <trkpt lat="51.572310000" lon="7.006040000">
        <ele>69</ele>
        <time>2021-04-28T11:58:07Z</time>
      </trkpt>
      <trkpt lat="51.572260000" lon="7.006030000">
        <ele>69</ele>
        <time>2021-04-28T11:58:13Z</time>
      </trkpt>
      <trkpt lat="51.572160000" lon="7.006010000">
        <ele>70</ele>
        <time>2021-04-28T11:58:16Z</time>
      </trkpt>
      <trkpt lat="51.572080000" lon="7.006090000">
        <ele>70</ele>
        <time>2021-04-28T11:58:19Z</time>
      </trkpt>
      <trkpt lat="51.572060000" lon="7.006160000">
        <ele>70</ele>
        <time>2021-04-28T11:58:23Z</time>
      </trkpt>
      <trkpt lat="51.572010000" lon="7.006140000">
        <ele>70</ele>
        <time>2021-04-28T11:58:26Z</time>
      </trkpt>
      <trkpt lat="51.572030000" lon="7.005980000">
        <ele>70</ele>
        <time>2021-04-28T11:58:29Z</time>
      </trkpt>
      <trkpt lat="51.572090000" lon="7.005970000">
        <ele>70</ele>
        <time>2021-04-28T11:58:31Z</time>
      </trkpt>
      <trkpt lat="51.572110000" lon="7.006070000">
        <ele>70</ele>
        <time>2021-04-28T11:58:33Z</time>
      </trkpt>
      <trkpt lat="51.572070000" lon="7.006150000">
        <ele>70</ele>
        <time>2021-04-28T11:58:35Z</time>
      </trkpt>
      <trkpt lat="51.571990000" lon="7.006210000">
        <ele>70</ele>
        <time>2021-04-28T11:58:37Z</time>
      </trkpt>
      <trkpt lat="51.571950000" lon="7.006240000">
        <ele>70</ele>
        <time>2021-04-28T11:58:38Z</time>
      </trkpt>
      <trkpt lat="51.571850000" lon="7.006310000">
        <ele>70</ele>
        <time>2021-04-28T11:58:40Z</time>
      </trkpt>
      <trkpt lat="51.571800000" lon="7.006360000">
        <ele>70</ele>
        <time>2021-04-28T11:58:41Z</time>
      </trkpt>
      <trkpt lat="51.571760000" lon="7.006400000">
        <ele>70</ele>
        <time>2021-04-28T11:58:42Z</time>
      </trkpt>
      <trkpt lat="51.571710000" lon="7.006440000">
        <ele>70</ele>
        <time>2021-04-28T11:58:43Z</time>
      </trkpt>
      <trkpt lat="51.571670000" lon="7.006490000">
        <ele>70</ele>
        <time>2021-04-28T11:58:44Z</time>
      </trkpt>
      <trkpt lat="51.571620000" lon="7.006540000">
        <ele>70</ele>
        <time>2021-04-28T11:58:45Z</time>
      </trkpt>
      <trkpt lat="51.571560000" lon="7.006590000">
        <ele>70</ele>
        <time>2021-04-28T11:58:46Z</time>
      </trkpt>
      <trkpt lat="51.571450000" lon="7.006710000">
        <ele>70</ele>
        <time>2021-04-28T11:58:48Z</time>
      </trkpt>
      <trkpt lat="51.571390000" lon="7.006760000">
        <ele>70</ele>
        <time>2021-04-28T11:58:49Z</time>
      </trkpt>
      <trkpt lat="51.571330000" lon="7.006820000">
        <ele>66</ele>
        <time>2021-04-28T11:58:51Z</time>
      </trkpt>
      <trkpt lat="51.571260000" lon="7.006800000">
        <ele>66</ele>
        <time>2021-04-28T11:58:54Z</time>
      </trkpt>
      <trkpt lat="51.571210000" lon="7.006770000">
        <ele>66</ele>
        <time>2021-04-28T11:58:57Z</time>
      </trkpt>
      <trkpt lat="51.571150000" lon="7.006760000">
        <ele>66</ele>
        <time>2021-04-28T11:58:59Z</time>
      </trkpt>
      <trkpt lat="51.571090000" lon="7.006850000">
        <ele>66</ele>
        <time>2021-04-28T11:59:01Z</time>
      </trkpt>
      <trkpt lat="51.571080000" lon="7.006920000">
        <ele>66</ele>
        <time>2021-04-28T11:59:02Z</time>
      </trkpt>
      <trkpt lat="51.571030000" lon="7.007070000">
        <ele>66</ele>
        <time>2021-04-28T11:59:04Z</time>
      </trkpt>
      <trkpt lat="51.570970000" lon="7.007220000">
        <ele>66</ele>
        <time>2021-04-28T11:59:06Z</time>
      </trkpt>
      <trkpt lat="51.570940000" lon="7.007280000">
        <ele>70</ele>
        <time>2021-04-28T11:59:07Z</time>
      </trkpt>
      <trkpt lat="51.570900000" lon="7.007330000">
        <ele>70</ele>
        <time>2021-04-28T11:59:08Z</time>
      </trkpt>
      <trkpt lat="51.570840000" lon="7.007420000">
        <ele>70</ele>
        <time>2021-04-28T11:59:10Z</time>
      </trkpt>
      <trkpt lat="51.570790000" lon="7.007480000">
        <ele>70</ele>
        <time>2021-04-28T11:59:19Z</time>
      </trkpt>
      <trkpt lat="51.570700000" lon="7.007610000">
        <ele>70</ele>
        <time>2021-04-28T11:59:22Z</time>
      </trkpt>
      <trkpt lat="51.570660000" lon="7.007660000">
        <ele>70</ele>
        <time>2021-04-28T11:59:23Z</time>
      </trkpt>
      <trkpt lat="51.570620000" lon="7.007730000">
        <ele>70</ele>
        <time>2021-04-28T11:59:25Z</time>
      </trkpt>
      <trkpt lat="51.570520000" lon="7.007850000">
        <ele>70</ele>
        <time>2021-04-28T11:59:27Z</time>
      </trkpt>
      <trkpt lat="51.570430000" lon="7.007970000">
        <ele>70</ele>
        <time>2021-04-28T11:59:28Z</time>
      </trkpt>
      <trkpt lat="51.570360000" lon="7.008070000">
        <ele>70</ele>
        <time>2021-04-28T11:59:29Z</time>
      </trkpt>
      <trkpt lat="51.570270000" lon="7.008190000">
        <ele>65</ele>
        <time>2021-04-28T11:59:31Z</time>
      </trkpt>
      <trkpt lat="51.570210000" lon="7.008270000">
        <ele>65</ele>
        <time>2021-04-28T11:59:33Z</time>
      </trkpt>
      <trkpt lat="51.570120000" lon="7.008400000">
        <ele>65</ele>
        <time>2021-04-28T11:59:35Z</time>
      </trkpt>
      <trkpt lat="51.570010000" lon="7.008560000">
        <ele>65</ele>
        <time>2021-04-28T11:59:37Z</time>
      </trkpt>
      <trkpt lat="51.569950000" lon="7.008630000">
        <ele>65</ele>
        <time>2021-04-28T11:59:38Z</time>
      </trkpt>
      <trkpt lat="51.569860000" lon="7.008760000">
        <ele>65</ele>
        <time>2021-04-28T11:59:39Z</time>
      </trkpt>
      <trkpt lat="51.569810000" lon="7.008830000">
        <ele>65</ele>
        <time>2021-04-28T11:59:40Z</time>
      </trkpt>
      <trkpt lat="51.569760000" lon="7.008910000">
        <ele>65</ele>
        <time>2021-04-28T11:59:42Z</time>
      </trkpt>
      <trkpt lat="51.569690000" lon="7.009030000">
        <ele>65</ele>
        <time>2021-04-28T11:59:44Z</time>
      </trkpt>
      <trkpt lat="51.569590000" lon="7.009170000">
        <ele>65</ele>
        <time>2021-04-28T11:59:46Z</time>
      </trkpt>
      <trkpt lat="51.569540000" lon="7.009240000">
        <ele>65</ele>
        <time>2021-04-28T11:59:47Z</time>
      </trkpt>
      <trkpt lat="51.569460000" lon="7.009370000">
        <ele>65</ele>
        <time>2021-04-28T11:59:49Z</time>
      </trkpt>
      <trkpt lat="51.569410000" lon="7.009440000">
        <ele>65</ele>
        <time>2021-04-28T11:59:50Z</time>
      </trkpt>
      <trkpt lat="51.569330000" lon="7.009550000">
        <ele>65</ele>
        <time>2021-04-28T11:59:51Z</time>
      </trkpt>
      <trkpt lat="51.569210000" lon="7.009720000">
        <ele>65</ele>
        <time>2021-04-28T11:59:54Z</time>
      </trkpt>
      <trkpt lat="51.569130000" lon="7.009850000">
        <ele>65</ele>
        <time>2021-04-28T11:59:55Z</time>
      </trkpt>
      <trkpt lat="51.569060000" lon="7.009950000">
        <ele>65</ele>
        <time>2021-04-28T11:59:57Z</time>
      </trkpt>
      <trkpt lat="51.568960000" lon="7.010050000">
        <ele>65</ele>
        <time>2021-04-28T11:59:59Z</time>
      </trkpt>
      <trkpt lat="51.568880000" lon="7.010120000">
        <ele>65</ele>
        <time>2021-04-28T12:00:01Z</time>
      </trkpt>
      <trkpt lat="51.568830000" lon="7.010180000">
        <ele>65</ele>
        <time>2021-04-28T12:00:03Z</time>
      </trkpt>
      <trkpt lat="51.568800000" lon="7.010230000">
        <ele>65</ele>
        <time>2021-04-28T12:00:06Z</time>
      </trkpt>
      <trkpt lat="51.568740000" lon="7.010300000">
        <ele>65</ele>
        <time>2021-04-28T12:00:12Z</time>
      </trkpt>
      <trkpt lat="51.568690000" lon="7.010390000">
        <ele>65</ele>
        <time>2021-04-28T12:00:15Z</time>
      </trkpt>
      <trkpt lat="51.568640000" lon="7.010450000">
        <ele>65</ele>
        <time>2021-04-28T12:00:17Z</time>
      </trkpt>
      <trkpt lat="51.568590000" lon="7.010510000">
        <ele>65</ele>
        <time>2021-04-28T12:00:19Z</time>
      </trkpt>
      <trkpt lat="51.568500000" lon="7.010540000">
        <ele>65</ele>
        <time>2021-04-28T12:00:21Z</time>
      </trkpt>
      <trkpt lat="51.568450000" lon="7.010480000">
        <ele>65</ele>
        <time>2021-04-28T12:00:22Z</time>
      </trkpt>
      <trkpt lat="51.568400000" lon="7.010410000">
        <ele>65</ele>
        <time>2021-04-28T12:00:23Z</time>
      </trkpt>
      <trkpt lat="51.568360000" lon="7.010320000">
        <ele>66</ele>
        <time>2021-04-28T12:00:24Z</time>
      </trkpt>
      <trkpt lat="51.568310000" lon="7.010240000">
        <ele>66</ele>
        <time>2021-04-28T12:00:25Z</time>
      </trkpt>
      <trkpt lat="51.568230000" lon="7.010080000">
        <ele>66</ele>
        <time>2021-04-28T12:00:27Z</time>
      </trkpt>
      <trkpt lat="51.568180000" lon="7.010000000">
        <ele>66</ele>
        <time>2021-04-28T12:00:28Z</time>
      </trkpt>
      <trkpt lat="51.568080000" lon="7.009840000">
        <ele>66</ele>
        <time>2021-04-28T12:00:30Z</time>
      </trkpt>
      <trkpt lat="51.567990000" lon="7.009660000">
        <ele>66</ele>
        <time>2021-04-28T12:00:32Z</time>
      </trkpt>
      <trkpt lat="51.567910000" lon="7.009510000">
        <ele>66</ele>
        <time>2021-04-28T12:00:33Z</time>
      </trkpt>
      <trkpt lat="51.567850000" lon="7.009420000">
        <ele>66</ele>
        <time>2021-04-28T12:00:35Z</time>
      </trkpt>
      <trkpt lat="51.567810000" lon="7.009350000">
        <ele>66</ele>
        <time>2021-04-28T12:00:36Z</time>
      </trkpt>
      <trkpt lat="51.567720000" lon="7.009190000">
        <ele>66</ele>
        <time>2021-04-28T12:00:38Z</time>
      </trkpt>
      <trkpt lat="51.567640000" lon="7.009040000">
        <ele>62</ele>
        <time>2021-04-28T12:00:40Z</time>
      </trkpt>
      <trkpt lat="51.567550000" lon="7.008880000">
        <ele>62</ele>
        <time>2021-04-28T12:00:42Z</time>
      </trkpt>
      <trkpt lat="51.567460000" lon="7.008720000">
        <ele>62</ele>
        <time>2021-04-28T12:00:44Z</time>
      </trkpt>
      <trkpt lat="51.567420000" lon="7.008640000">
        <ele>62</ele>
        <time>2021-04-28T12:00:45Z</time>
      </trkpt>
      <trkpt lat="51.567340000" lon="7.008490000">
        <ele>62</ele>
        <time>2021-04-28T12:00:47Z</time>
      </trkpt>
      <trkpt lat="51.567250000" lon="7.008340000">
        <ele>62</ele>
        <time>2021-04-28T12:00:49Z</time>
      </trkpt>
      <trkpt lat="51.567160000" lon="7.008190000">
        <ele>62</ele>
        <time>2021-04-28T12:00:51Z</time>
      </trkpt>
      <trkpt lat="51.567080000" lon="7.008060000">
        <ele>62</ele>
        <time>2021-04-28T12:00:52Z</time>
      </trkpt>
      <trkpt lat="51.567000000" lon="7.007910000">
        <ele>62</ele>
        <time>2021-04-28T12:00:54Z</time>
      </trkpt>
      <trkpt lat="51.566940000" lon="7.007820000">
        <ele>62</ele>
        <time>2021-04-28T12:00:56Z</time>
      </trkpt>
      <trkpt lat="51.566860000" lon="7.007680000">
        <ele>62</ele>
        <time>2021-04-28T12:00:58Z</time>
      </trkpt>
      <trkpt lat="51.566780000" lon="7.007540000">
        <ele>62</ele>
        <time>2021-04-28T12:01:00Z</time>
      </trkpt>
      <trkpt lat="51.566730000" lon="7.007460000">
        <ele>62</ele>
        <time>2021-04-28T12:01:01Z</time>
      </trkpt>
      <trkpt lat="51.566650000" lon="7.007300000">
        <ele>58</ele>
        <time>2021-04-28T12:01:03Z</time>
      </trkpt>
      <trkpt lat="51.566560000" lon="7.007150000">
        <ele>58</ele>
        <time>2021-04-28T12:01:05Z</time>
      </trkpt>
      <trkpt lat="51.566460000" lon="7.007010000">
        <ele>58</ele>
        <time>2021-04-28T12:01:07Z</time>
      </trkpt>
      <trkpt lat="51.566380000" lon="7.006860000">
        <ele>58</ele>
        <time>2021-04-28T12:01:09Z</time>
      </trkpt>
      <trkpt lat="51.566340000" lon="7.006800000">
        <ele>58</ele>
        <time>2021-04-28T12:01:10Z</time>
      </trkpt>
      <trkpt lat="51.566280000" lon="7.006780000">
        <ele>58</ele>
        <time>2021-04-28T12:01:11Z</time>
      </trkpt>
      <trkpt lat="51.566160000" lon="7.006870000">
        <ele>58</ele>
        <time>2021-04-28T12:01:13Z</time>
      </trkpt>
      <trkpt lat="51.566070000" lon="7.007020000">
        <ele>58</ele>
        <time>2021-04-28T12:01:14Z</time>
      </trkpt>
      <trkpt lat="51.566010000" lon="7.007110000">
        <ele>58</ele>
        <time>2021-04-28T12:01:15Z</time>
      </trkpt>
      <trkpt lat="51.565950000" lon="7.007200000">
        <ele>58</ele>
        <time>2021-04-28T12:01:17Z</time>
      </trkpt>
      <trkpt lat="51.565860000" lon="7.007340000">
        <ele>58</ele>
        <time>2021-04-28T12:01:19Z</time>
      </trkpt>
      <trkpt lat="51.565750000" lon="7.007490000">
        <ele>58</ele>
        <time>2021-04-28T12:01:21Z</time>
      </trkpt>
      <trkpt lat="51.565700000" lon="7.007560000">
        <ele>58</ele>
        <time>2021-04-28T12:01:22Z</time>
      </trkpt>
      <trkpt lat="51.565600000" lon="7.007730000">
        <ele>58</ele>
        <time>2021-04-28T12:01:24Z</time>
      </trkpt>
      <trkpt lat="51.565500000" lon="7.007890000">
        <ele>59</ele>
        <time>2021-04-28T12:01:26Z</time>
      </trkpt>
      <trkpt lat="51.565450000" lon="7.007970000">
        <ele>59</ele>
        <time>2021-04-28T12:01:27Z</time>
      </trkpt>
      <trkpt lat="51.565340000" lon="7.008140000">
        <ele>59</ele>
        <time>2021-04-28T12:01:29Z</time>
      </trkpt>
      <trkpt lat="51.565290000" lon="7.008220000">
        <ele>59</ele>
        <time>2021-04-28T12:01:30Z</time>
      </trkpt>
      <trkpt lat="51.565230000" lon="7.008300000">
        <ele>59</ele>
        <time>2021-04-28T12:01:31Z</time>
      </trkpt>
      <trkpt lat="51.565120000" lon="7.008480000">
        <ele>59</ele>
        <time>2021-04-28T12:01:33Z</time>
      </trkpt>
      <trkpt lat="51.565010000" lon="7.008630000">
        <ele>59</ele>
        <time>2021-04-28T12:01:34Z</time>
      </trkpt>
      <trkpt lat="51.564860000" lon="7.008840000">
        <ele>59</ele>
        <time>2021-04-28T12:01:37Z</time>
      </trkpt>
      <trkpt lat="51.564800000" lon="7.008920000">
        <ele>59</ele>
        <time>2021-04-28T12:01:38Z</time>
      </trkpt>
      <trkpt lat="51.564670000" lon="7.009120000">
        <ele>55</ele>
        <time>2021-04-28T12:01:40Z</time>
      </trkpt>
      <trkpt lat="51.564550000" lon="7.009320000">
        <ele>55</ele>
        <time>2021-04-28T12:01:42Z</time>
      </trkpt>
      <trkpt lat="51.564400000" lon="7.009540000">
        <ele>55</ele>
        <time>2021-04-28T12:01:44Z</time>
      </trkpt>
      <trkpt lat="51.564330000" lon="7.009630000">
        <ele>55</ele>
        <time>2021-04-28T12:01:45Z</time>
      </trkpt>
      <trkpt lat="51.564260000" lon="7.009730000">
        <ele>55</ele>
        <time>2021-04-28T12:01:46Z</time>
      </trkpt>
      <trkpt lat="51.564140000" lon="7.009930000">
        <ele>55</ele>
        <time>2021-04-28T12:01:48Z</time>
      </trkpt>
      <trkpt lat="51.564020000" lon="7.010120000">
        <ele>55</ele>
        <time>2021-04-28T12:01:50Z</time>
      </trkpt>
      <trkpt lat="51.563910000" lon="7.010300000">
        <ele>55</ele>
        <time>2021-04-28T12:01:52Z</time>
      </trkpt>
      <trkpt lat="51.563810000" lon="7.010470000">
        <ele>55</ele>
        <time>2021-04-28T12:01:54Z</time>
      </trkpt>
      <trkpt lat="51.563720000" lon="7.010630000">
        <ele>55</ele>
        <time>2021-04-28T12:01:55Z</time>
      </trkpt>
      <trkpt lat="51.563600000" lon="7.010840000">
        <ele>55</ele>
        <time>2021-04-28T12:01:58Z</time>
      </trkpt>
      <trkpt lat="51.563550000" lon="7.010920000">
        <ele>55</ele>
        <time>2021-04-28T12:01:59Z</time>
      </trkpt>
      <trkpt lat="51.563460000" lon="7.011060000">
        <ele>52</ele>
        <time>2021-04-28T12:02:01Z</time>
      </trkpt>
      <trkpt lat="51.563360000" lon="7.011190000">
        <ele>52</ele>
        <time>2021-04-28T12:02:02Z</time>
      </trkpt>
      <trkpt lat="51.563280000" lon="7.011260000">
        <ele>52</ele>
        <time>2021-04-28T12:02:03Z</time>
      </trkpt>
      <trkpt lat="51.563200000" lon="7.011320000">
        <ele>52</ele>
        <time>2021-04-28T12:02:05Z</time>
      </trkpt>
      <trkpt lat="51.563130000" lon="7.011390000">
        <ele>52</ele>
        <time>2021-04-28T12:02:07Z</time>
      </trkpt>
      <trkpt lat="51.563010000" lon="7.011520000">
        <ele>52</ele>
        <time>2021-04-28T12:02:10Z</time>
      </trkpt>
      <trkpt lat="51.562920000" lon="7.011610000">
        <ele>52</ele>
        <time>2021-04-28T12:02:11Z</time>
      </trkpt>
      <trkpt lat="51.562840000" lon="7.011680000">
        <ele>52</ele>
        <time>2021-04-28T12:02:13Z</time>
      </trkpt>
      <trkpt lat="51.562750000" lon="7.011770000">
        <ele>52</ele>
        <time>2021-04-28T12:02:14Z</time>
      </trkpt>
      <trkpt lat="51.562680000" lon="7.011830000">
        <ele>52</ele>
        <time>2021-04-28T12:02:15Z</time>
      </trkpt>
      <trkpt lat="51.562550000" lon="7.011960000">
        <ele>52</ele>
        <time>2021-04-28T12:02:18Z</time>
      </trkpt>
      <trkpt lat="51.562440000" lon="7.012060000">
        <ele>52</ele>
        <time>2021-04-28T12:02:20Z</time>
      </trkpt>
      <trkpt lat="51.562330000" lon="7.012130000">
        <ele>52</ele>
        <time>2021-04-28T12:02:22Z</time>
      </trkpt>
      <trkpt lat="51.562240000" lon="7.012210000">
        <ele>52</ele>
        <time>2021-04-28T12:02:24Z</time>
      </trkpt>
      <trkpt lat="51.562170000" lon="7.012280000">
        <ele>52</ele>
        <time>2021-04-28T12:02:27Z</time>
      </trkpt>
      <trkpt lat="51.562070000" lon="7.012370000">
        <ele>52</ele>
        <time>2021-04-28T12:02:31Z</time>
      </trkpt>
      <trkpt lat="51.562020000" lon="7.012390000">
        <ele>52</ele>
        <time>2021-04-28T12:02:32Z</time>
      </trkpt>
      <trkpt lat="51.561920000" lon="7.012290000">
        <ele>50</ele>
        <time>2021-04-28T12:02:34Z</time>
      </trkpt>
      <trkpt lat="51.561880000" lon="7.012210000">
        <ele>50</ele>
        <time>2021-04-28T12:02:35Z</time>
      </trkpt>
      <trkpt lat="51.561820000" lon="7.012060000">
        <ele>50</ele>
        <time>2021-04-28T12:02:36Z</time>
      </trkpt>
      <trkpt lat="51.561770000" lon="7.011970000">
        <ele>50</ele>
        <time>2021-04-28T12:02:37Z</time>
      </trkpt>
      <trkpt lat="51.561670000" lon="7.011790000">
        <ele>50</ele>
        <time>2021-04-28T12:02:40Z</time>
      </trkpt>
      <trkpt lat="51.561590000" lon="7.011640000">
        <ele>50</ele>
        <time>2021-04-28T12:02:42Z</time>
      </trkpt>
      <trkpt lat="51.561550000" lon="7.011560000">
        <ele>50</ele>
        <time>2021-04-28T12:02:43Z</time>
      </trkpt>
      <trkpt lat="51.561470000" lon="7.011400000">
        <ele>50</ele>
        <time>2021-04-28T12:02:45Z</time>
      </trkpt>
      <trkpt lat="51.561390000" lon="7.011230000">
        <ele>50</ele>
        <time>2021-04-28T12:02:47Z</time>
      </trkpt>
      <trkpt lat="51.561360000" lon="7.011160000">
        <ele>50</ele>
        <time>2021-04-28T12:02:48Z</time>
      </trkpt>
      <trkpt lat="51.561270000" lon="7.011010000">
        <ele>50</ele>
        <time>2021-04-28T12:02:50Z</time>
      </trkpt>
      <trkpt lat="51.561190000" lon="7.010920000">
        <ele>50</ele>
        <time>2021-04-28T12:02:51Z</time>
      </trkpt>
      <trkpt lat="51.561120000" lon="7.010890000">
        <ele>50</ele>
        <time>2021-04-28T12:02:53Z</time>
      </trkpt>
      <trkpt lat="51.561030000" lon="7.010970000">
        <ele>48</ele>
        <time>2021-04-28T12:02:55Z</time>
      </trkpt>
      <trkpt lat="51.560990000" lon="7.011020000">
        <ele>48</ele>
        <time>2021-04-28T12:02:56Z</time>
      </trkpt>
      <trkpt lat="51.560910000" lon="7.011160000">
        <ele>48</ele>
        <time>2021-04-28T12:02:58Z</time>
      </trkpt>
      <trkpt lat="51.560830000" lon="7.011300000">
        <ele>48</ele>
        <time>2021-04-28T12:02:59Z</time>
      </trkpt>
      <trkpt lat="51.560750000" lon="7.011440000">
        <ele>48</ele>
        <time>2021-04-28T12:03:01Z</time>
      </trkpt>
      <trkpt lat="51.560700000" lon="7.011520000">
        <ele>48</ele>
        <time>2021-04-28T12:03:03Z</time>
      </trkpt>
      <trkpt lat="51.560620000" lon="7.011640000">
        <ele>48</ele>
        <time>2021-04-28T12:03:05Z</time>
      </trkpt>
      <trkpt lat="51.560530000" lon="7.011780000">
        <ele>48</ele>
        <time>2021-04-28T12:03:07Z</time>
      </trkpt>
      <trkpt lat="51.560490000" lon="7.011840000">
        <ele>48</ele>
        <time>2021-04-28T12:03:08Z</time>
      </trkpt>
      <trkpt lat="51.560450000" lon="7.011900000">
        <ele>48</ele>
        <time>2021-04-28T12:03:09Z</time>
      </trkpt>
      <trkpt lat="51.560360000" lon="7.012030000">
        <ele>48</ele>
        <time>2021-04-28T12:03:11Z</time>
      </trkpt>
      <trkpt lat="51.560280000" lon="7.012140000">
        <ele>48</ele>
        <time>2021-04-28T12:03:13Z</time>
      </trkpt>
      <trkpt lat="51.560200000" lon="7.012250000">
        <ele>43</ele>
        <time>2021-04-28T12:03:15Z</time>
      </trkpt>
      <trkpt lat="51.560160000" lon="7.012310000">
        <ele>43</ele>
        <time>2021-04-28T12:03:16Z</time>
      </trkpt>
      <trkpt lat="51.560080000" lon="7.012440000">
        <ele>43</ele>
        <time>2021-04-28T12:03:18Z</time>
      </trkpt>
      <trkpt lat="51.560030000" lon="7.012500000">
        <ele>43</ele>
        <time>2021-04-28T12:03:19Z</time>
      </trkpt>
      <trkpt lat="51.559940000" lon="7.012620000">
        <ele>43</ele>
        <time>2021-04-28T12:03:20Z</time>
      </trkpt>
      <trkpt lat="51.559840000" lon="7.012770000">
        <ele>43</ele>
        <time>2021-04-28T12:03:22Z</time>
      </trkpt>
      <trkpt lat="51.559800000" lon="7.012820000">
        <ele>43</ele>
        <time>2021-04-28T12:03:24Z</time>
      </trkpt>
      <trkpt lat="51.559770000" lon="7.012880000">
        <ele>43</ele>
        <time>2021-04-28T12:03:25Z</time>
      </trkpt>
      <trkpt lat="51.559680000" lon="7.013010000">
        <ele>43</ele>
        <time>2021-04-28T12:03:27Z</time>
      </trkpt>
      <trkpt lat="51.559600000" lon="7.013130000">
        <ele>43</ele>
        <time>2021-04-28T12:03:29Z</time>
      </trkpt>
      <trkpt lat="51.559510000" lon="7.013270000">
        <ele>43</ele>
        <time>2021-04-28T12:03:31Z</time>
      </trkpt>
      <trkpt lat="51.559470000" lon="7.013330000">
        <ele>43</ele>
        <time>2021-04-28T12:03:32Z</time>
      </trkpt>
      <trkpt lat="51.559390000" lon="7.013460000">
        <ele>43</ele>
        <time>2021-04-28T12:03:34Z</time>
      </trkpt>
      <trkpt lat="51.559310000" lon="7.013590000">
        <ele>43</ele>
        <time>2021-04-28T12:03:36Z</time>
      </trkpt>
      <trkpt lat="51.559250000" lon="7.013700000">
        <ele>44</ele>
        <time>2021-04-28T12:03:38Z</time>
      </trkpt>
      <trkpt lat="51.559180000" lon="7.013810000">
        <ele>44</ele>
        <time>2021-04-28T12:03:40Z</time>
      </trkpt>
      <trkpt lat="51.559110000" lon="7.013880000">
        <ele>44</ele>
        <time>2021-04-28T12:03:41Z</time>
      </trkpt>
      <trkpt lat="51.559060000" lon="7.013900000">
        <ele>44</ele>
        <time>2021-04-28T12:03:42Z</time>
      </trkpt>
      <trkpt lat="51.559000000" lon="7.013900000">
        <ele>44</ele>
        <time>2021-04-28T12:03:44Z</time>
      </trkpt>
      <trkpt lat="51.558920000" lon="7.013890000">
        <ele>44</ele>
        <time>2021-04-28T12:03:46Z</time>
      </trkpt>
      <trkpt lat="51.558820000" lon="7.013870000">
        <ele>44</ele>
        <time>2021-04-28T12:03:48Z</time>
      </trkpt>
      <trkpt lat="51.558730000" lon="7.013840000">
        <ele>44</ele>
        <time>2021-04-28T12:03:50Z</time>
      </trkpt>
      <trkpt lat="51.558630000" lon="7.013820000">
        <ele>44</ele>
        <time>2021-04-28T12:03:52Z</time>
      </trkpt>
      <trkpt lat="51.558510000" lon="7.013810000">
        <ele>44</ele>
        <time>2021-04-28T12:03:54Z</time>
      </trkpt>
      <trkpt lat="51.558390000" lon="7.013780000">
        <ele>44</ele>
        <time>2021-04-28T12:03:56Z</time>
      </trkpt>
      <trkpt lat="51.558260000" lon="7.013750000">
        <ele>44</ele>
        <time>2021-04-28T12:03:58Z</time>
      </trkpt>
      <trkpt lat="51.558160000" lon="7.013730000">
        <ele>44</ele>
        <time>2021-04-28T12:04:00Z</time>
      </trkpt>
      <trkpt lat="51.558100000" lon="7.013710000">
        <ele>44</ele>
        <time>2021-04-28T12:04:01Z</time>
      </trkpt>
      <trkpt lat="51.557980000" lon="7.013660000">
        <ele>49</ele>
        <time>2021-04-28T12:04:02Z</time>
      </trkpt>
      <trkpt lat="51.557910000" lon="7.013630000">
        <ele>49</ele>
        <time>2021-04-28T12:04:03Z</time>
      </trkpt>
      <trkpt lat="51.557830000" lon="7.013610000">
        <ele>49</ele>
        <time>2021-04-28T12:04:05Z</time>
      </trkpt>
      <trkpt lat="51.557690000" lon="7.013560000">
        <ele>49</ele>
        <time>2021-04-28T12:04:07Z</time>
      </trkpt>
      <trkpt lat="51.557530000" lon="7.013510000">
        <ele>49</ele>
        <time>2021-04-28T12:04:09Z</time>
      </trkpt>
      <trkpt lat="51.557400000" lon="7.013470000">
        <ele>49</ele>
        <time>2021-04-28T12:04:11Z</time>
      </trkpt>
      <trkpt lat="51.557250000" lon="7.013430000">
        <ele>49</ele>
        <time>2021-04-28T12:04:13Z</time>
      </trkpt>
      <trkpt lat="51.557090000" lon="7.013370000">
        <ele>49</ele>
        <time>2021-04-28T12:04:15Z</time>
      </trkpt>
      <trkpt lat="51.556920000" lon="7.013320000">
        <ele>49</ele>
        <time>2021-04-28T12:04:17Z</time>
      </trkpt>
      <trkpt lat="51.556770000" lon="7.013280000">
        <ele>48</ele>
        <time>2021-04-28T12:04:19Z</time>
      </trkpt>
      <trkpt lat="51.556610000" lon="7.013240000">
        <ele>48</ele>
        <time>2021-04-28T12:04:21Z</time>
      </trkpt>
      <trkpt lat="51.556540000" lon="7.013210000">
        <ele>48</ele>
        <time>2021-04-28T12:04:22Z</time>
      </trkpt>
      <trkpt lat="51.556410000" lon="7.013170000">
        <ele>48</ele>
        <time>2021-04-28T12:04:23Z</time>
      </trkpt>
      <trkpt lat="51.556320000" lon="7.013160000">
        <ele>48</ele>
        <time>2021-04-28T12:04:24Z</time>
      </trkpt>
      <trkpt lat="51.556220000" lon="7.013130000">
        <ele>48</ele>
        <time>2021-04-28T12:04:26Z</time>
      </trkpt>
      <trkpt lat="51.556150000" lon="7.013110000">
        <ele>48</ele>
        <time>2021-04-28T12:04:27Z</time>
      </trkpt>
      <trkpt lat="51.556010000" lon="7.013090000">
        <ele>48</ele>
        <time>2021-04-28T12:04:29Z</time>
      </trkpt>
      <trkpt lat="51.555950000" lon="7.013100000">
        <ele>48</ele>
        <time>2021-04-28T12:04:30Z</time>
      </trkpt>
      <trkpt lat="51.555850000" lon="7.013130000">
        <ele>48</ele>
        <time>2021-04-28T12:04:32Z</time>
      </trkpt>
      <trkpt lat="51.555770000" lon="7.013190000">
        <ele>48</ele>
        <time>2021-04-28T12:04:34Z</time>
      </trkpt>
      <trkpt lat="51.555690000" lon="7.013260000">
        <ele>48</ele>
        <time>2021-04-28T12:04:35Z</time>
      </trkpt>
      <trkpt lat="51.555630000" lon="7.013320000">
        <ele>48</ele>
        <time>2021-04-28T12:04:37Z</time>
      </trkpt>
      <trkpt lat="51.555530000" lon="7.013400000">
        <ele>48</ele>
        <time>2021-04-28T12:04:39Z</time>
      </trkpt>
      <trkpt lat="51.555480000" lon="7.013440000">
        <ele>48</ele>
        <time>2021-04-28T12:04:40Z</time>
      </trkpt>
      <trkpt lat="51.555400000" lon="7.013510000">
        <ele>48</ele>
        <time>2021-04-28T12:04:42Z</time>
      </trkpt>
      <trkpt lat="51.555300000" lon="7.013480000">
        <ele>48</ele>
        <time>2021-04-28T12:04:43Z</time>
      </trkpt>
      <trkpt lat="51.555210000" lon="7.013400000">
        <ele>48</ele>
        <time>2021-04-28T12:04:45Z</time>
      </trkpt>
      <trkpt lat="51.555140000" lon="7.013350000">
        <ele>48</ele>
        <time>2021-04-28T12:04:47Z</time>
      </trkpt>
      <trkpt lat="51.555030000" lon="7.013280000">
        <ele>39</ele>
        <time>2021-04-28T12:04:49Z</time>
      </trkpt>
      <trkpt lat="51.554970000" lon="7.013250000">
        <ele>39</ele>
        <time>2021-04-28T12:04:50Z</time>
      </trkpt>
      <trkpt lat="51.554860000" lon="7.013170000">
        <ele>39</ele>
        <time>2021-04-28T12:04:52Z</time>
      </trkpt>
      <trkpt lat="51.554810000" lon="7.013140000">
        <ele>39</ele>
        <time>2021-04-28T12:04:53Z</time>
      </trkpt>
      <trkpt lat="51.554700000" lon="7.013080000">
        <ele>39</ele>
        <time>2021-04-28T12:04:55Z</time>
      </trkpt>
      <trkpt lat="51.554650000" lon="7.013050000">
        <ele>39</ele>
        <time>2021-04-28T12:04:56Z</time>
      </trkpt>
      <trkpt lat="51.554560000" lon="7.013010000">
        <ele>39</ele>
        <time>2021-04-28T12:04:57Z</time>
      </trkpt>
      <trkpt lat="51.554480000" lon="7.012980000">
        <ele>39</ele>
        <time>2021-04-28T12:04:59Z</time>
      </trkpt>
      <trkpt lat="51.554370000" lon="7.012960000">
        <ele>39</ele>
        <time>2021-04-28T12:05:01Z</time>
      </trkpt>
      <trkpt lat="51.554250000" lon="7.012940000">
        <ele>39</ele>
        <time>2021-04-28T12:05:03Z</time>
      </trkpt>
      <trkpt lat="51.554160000" lon="7.012930000">
        <ele>39</ele>
        <time>2021-04-28T12:05:04Z</time>
      </trkpt>
      <trkpt lat="51.554100000" lon="7.012930000">
        <ele>39</ele>
        <time>2021-04-28T12:05:05Z</time>
      </trkpt>
      <trkpt lat="51.554050000" lon="7.012930000">
        <ele>39</ele>
        <time>2021-04-28T12:05:07Z</time>
      </trkpt>
      <trkpt lat="51.553950000" lon="7.012930000">
        <ele>42</ele>
        <time>2021-04-28T12:05:09Z</time>
      </trkpt>
      <trkpt lat="51.553870000" lon="7.012940000">
        <ele>42</ele>
        <time>2021-04-28T12:05:11Z</time>
      </trkpt>
      <trkpt lat="51.553770000" lon="7.012960000">
        <ele>42</ele>
        <time>2021-04-28T12:05:13Z</time>
      </trkpt>
      <trkpt lat="51.553690000" lon="7.012990000">
        <ele>42</ele>
        <time>2021-04-28T12:05:14Z</time>
      </trkpt>
      <trkpt lat="51.553630000" lon="7.013010000">
        <ele>42</ele>
        <time>2021-04-28T12:05:16Z</time>
      </trkpt>
      <trkpt lat="51.553560000" lon="7.013010000">
        <ele>42</ele>
        <time>2021-04-28T12:05:18Z</time>
      </trkpt>
      <trkpt lat="51.553500000" lon="7.013010000">
        <ele>42</ele>
        <time>2021-04-28T12:05:20Z</time>
      </trkpt>
      <trkpt lat="51.553450000" lon="7.013070000">
        <ele>42</ele>
        <time>2021-04-28T12:05:48Z</time>
      </trkpt>
      <trkpt lat="51.553360000" lon="7.013080000">
        <ele>42</ele>
        <time>2021-04-28T12:05:51Z</time>
      </trkpt>
      <trkpt lat="51.553270000" lon="7.013110000">
        <ele>42</ele>
        <time>2021-04-28T12:05:53Z</time>
      </trkpt>
      <trkpt lat="51.553170000" lon="7.013150000">
        <ele>42</ele>
        <time>2021-04-28T12:05:55Z</time>
      </trkpt>
      <trkpt lat="51.553120000" lon="7.013160000">
        <ele>42</ele>
        <time>2021-04-28T12:05:56Z</time>
      </trkpt>
      <trkpt lat="51.553010000" lon="7.013210000">
        <ele>42</ele>
        <time>2021-04-28T12:05:58Z</time>
      </trkpt>
      <trkpt lat="51.552900000" lon="7.013250000">
        <ele>42</ele>
        <time>2021-04-28T12:06:00Z</time>
      </trkpt>
      <trkpt lat="51.552840000" lon="7.013270000">
        <ele>40</ele>
        <time>2021-04-28T12:06:01Z</time>
      </trkpt>
      <trkpt lat="51.552750000" lon="7.013310000">
        <ele>40</ele>
        <time>2021-04-28T12:06:03Z</time>
      </trkpt>
      <trkpt lat="51.552650000" lon="7.013360000">
        <ele>40</ele>
        <time>2021-04-28T12:06:05Z</time>
      </trkpt>
      <trkpt lat="51.552570000" lon="7.013410000">
        <ele>40</ele>
        <time>2021-04-28T12:06:06Z</time>
      </trkpt>
      <trkpt lat="51.552510000" lon="7.013450000">
        <ele>40</ele>
        <time>2021-04-28T12:06:07Z</time>
      </trkpt>
      <trkpt lat="51.552440000" lon="7.013480000">
        <ele>40</ele>
        <time>2021-04-28T12:06:09Z</time>
      </trkpt>
      <trkpt lat="51.552400000" lon="7.013520000">
        <ele>40</ele>
        <time>2021-04-28T12:06:10Z</time>
      </trkpt>
      <trkpt lat="51.552360000" lon="7.013560000">
        <ele>40</ele>
        <time>2021-04-28T12:06:11Z</time>
      </trkpt>
      <trkpt lat="51.552260000" lon="7.013630000">
        <ele>40</ele>
        <time>2021-04-28T12:06:13Z</time>
      </trkpt>
      <trkpt lat="51.552160000" lon="7.013730000">
        <ele>40</ele>
        <time>2021-04-28T12:06:15Z</time>
      </trkpt>
      <trkpt lat="51.552110000" lon="7.013780000">
        <ele>40</ele>
        <time>2021-04-28T12:06:16Z</time>
      </trkpt>
      <trkpt lat="51.552060000" lon="7.013840000">
        <ele>40</ele>
        <time>2021-04-28T12:06:17Z</time>
      </trkpt>
      <trkpt lat="51.551950000" lon="7.013940000">
        <ele>40</ele>
        <time>2021-04-28T12:06:19Z</time>
      </trkpt>
      <trkpt lat="51.551890000" lon="7.013950000">
        <ele>36</ele>
        <time>2021-04-28T12:06:20Z</time>
      </trkpt>
      <trkpt lat="51.551790000" lon="7.014060000">
        <ele>36</ele>
        <time>2021-04-28T12:06:22Z</time>
      </trkpt>
      <trkpt lat="51.551700000" lon="7.014120000">
        <ele>36</ele>
        <time>2021-04-28T12:06:24Z</time>
      </trkpt>
      <trkpt lat="51.551650000" lon="7.014120000">
        <ele>36</ele>
        <time>2021-04-28T12:06:25Z</time>
      </trkpt>
      <trkpt lat="51.551590000" lon="7.014030000">
        <ele>36</ele>
        <time>2021-04-28T12:06:26Z</time>
      </trkpt>
      <trkpt lat="51.551560000" lon="7.013950000">
        <ele>36</ele>
        <time>2021-04-28T12:06:27Z</time>
      </trkpt>
      <trkpt lat="51.551540000" lon="7.013860000">
        <ele>36</ele>
        <time>2021-04-28T12:06:28Z</time>
      </trkpt>
      <trkpt lat="51.551500000" lon="7.013780000">
        <ele>36</ele>
        <time>2021-04-28T12:06:29Z</time>
      </trkpt>
      <trkpt lat="51.551430000" lon="7.013620000">
        <ele>36</ele>
        <time>2021-04-28T12:06:31Z</time>
      </trkpt>
      <trkpt lat="51.551400000" lon="7.013530000">
        <ele>36</ele>
        <time>2021-04-28T12:06:32Z</time>
      </trkpt>
      <trkpt lat="51.551370000" lon="7.013450000">
        <ele>36</ele>
        <time>2021-04-28T12:06:33Z</time>
      </trkpt>
      <trkpt lat="51.551330000" lon="7.013370000">
        <ele>36</ele>
        <time>2021-04-28T12:06:34Z</time>
      </trkpt>
      <trkpt lat="51.551250000" lon="7.013200000">
        <ele>36</ele>
        <time>2021-04-28T12:06:36Z</time>
      </trkpt>
      <trkpt lat="51.551220000" lon="7.013120000">
        <ele>36</ele>
        <time>2021-04-28T12:06:37Z</time>
      </trkpt>
      <trkpt lat="51.551190000" lon="7.013040000">
        <ele>36</ele>
        <time>2021-04-28T12:06:38Z</time>
      </trkpt>
      <trkpt lat="51.551110000" lon="7.012860000">
        <ele>33</ele>
        <time>2021-04-28T12:06:40Z</time>
      </trkpt>
      <trkpt lat="51.551080000" lon="7.012770000">
        <ele>33</ele>
        <time>2021-04-28T12:06:41Z</time>
      </trkpt>
      <trkpt lat="51.551040000" lon="7.012680000">
        <ele>33</ele>
        <time>2021-04-28T12:06:42Z</time>
      </trkpt>
      <trkpt lat="51.550960000" lon="7.012520000">
        <ele>33</ele>
        <time>2021-04-28T12:06:44Z</time>
      </trkpt>
      <trkpt lat="51.550920000" lon="7.012460000">
        <ele>33</ele>
        <time>2021-04-28T12:06:45Z</time>
      </trkpt>
      <trkpt lat="51.550840000" lon="7.012310000">
        <ele>33</ele>
        <time>2021-04-28T12:06:47Z</time>
      </trkpt>
      <trkpt lat="51.550770000" lon="7.012150000">
        <ele>33</ele>
        <time>2021-04-28T12:06:49Z</time>
      </trkpt>
      <trkpt lat="51.550740000" lon="7.012080000">
        <ele>33</ele>
        <time>2021-04-28T12:06:50Z</time>
      </trkpt>
      <trkpt lat="51.550670000" lon="7.011960000">
        <ele>41</ele>
        <time>2021-04-28T12:06:52Z</time>
      </trkpt>
      <trkpt lat="51.550630000" lon="7.011870000">
        <ele>41</ele>
        <time>2021-04-28T12:06:53Z</time>
      </trkpt>
      <trkpt lat="51.550580000" lon="7.011780000">
        <ele>41</ele>
        <time>2021-04-28T12:06:54Z</time>
      </trkpt>
      <trkpt lat="51.550540000" lon="7.011700000">
        <ele>41</ele>
        <time>2021-04-28T12:06:55Z</time>
      </trkpt>
      <trkpt lat="51.550500000" lon="7.011630000">
        <ele>41</ele>
        <time>2021-04-28T12:06:56Z</time>
      </trkpt>
      <trkpt lat="51.550410000" lon="7.011490000">
        <ele>41</ele>
        <time>2021-04-28T12:06:58Z</time>
      </trkpt>
      <trkpt lat="51.550370000" lon="7.011420000">
        <ele>41</ele>
        <time>2021-04-28T12:06:59Z</time>
      </trkpt>
      <trkpt lat="51.550280000" lon="7.011270000">
        <ele>41</ele>
        <time>2021-04-28T12:07:01Z</time>
      </trkpt>
      <trkpt lat="51.550250000" lon="7.011230000">
        <ele>41</ele>
        <time>2021-04-28T12:07:02Z</time>
      </trkpt>
      <trkpt lat="51.550190000" lon="7.011180000">
        <ele>41</ele>
        <time>2021-04-28T12:07:07Z</time>
      </trkpt>
      <trkpt lat="51.550150000" lon="7.011240000">
        <ele>41</ele>
        <time>2021-04-28T12:07:09Z</time>
      </trkpt>
      <trkpt lat="51.550100000" lon="7.011340000">
        <ele>41</ele>
        <time>2021-04-28T12:07:11Z</time>
      </trkpt>
      <trkpt lat="51.550050000" lon="7.011470000">
        <ele>41</ele>
        <time>2021-04-28T12:07:13Z</time>
      </trkpt>
      <trkpt lat="51.550020000" lon="7.011610000">
        <ele>41</ele>
        <time>2021-04-28T12:07:15Z</time>
      </trkpt>
      <trkpt lat="51.550000000" lon="7.011680000">
        <ele>41</ele>
        <time>2021-04-28T12:07:16Z</time>
      </trkpt>
      <trkpt lat="51.549960000" lon="7.011820000">
        <ele>41</ele>
        <time>2021-04-28T12:07:18Z</time>
      </trkpt>
      <trkpt lat="51.549950000" lon="7.011890000">
        <ele>39</ele>
        <time>2021-04-28T12:07:19Z</time>
      </trkpt>
      <trkpt lat="51.549930000" lon="7.012040000">
        <ele>39</ele>
        <time>2021-04-28T12:07:21Z</time>
      </trkpt>
      <trkpt lat="51.549910000" lon="7.012120000">
        <ele>39</ele>
        <time>2021-04-28T12:07:22Z</time>
      </trkpt>
      <trkpt lat="51.549890000" lon="7.012260000">
        <ele>39</ele>
        <time>2021-04-28T12:07:24Z</time>
      </trkpt>
      <trkpt lat="51.549870000" lon="7.012340000">
        <ele>39</ele>
        <time>2021-04-28T12:07:25Z</time>
      </trkpt>
      <trkpt lat="51.549860000" lon="7.012430000">
        <ele>39</ele>
        <time>2021-04-28T12:07:26Z</time>
      </trkpt>
      <trkpt lat="51.549840000" lon="7.012610000">
        <ele>39</ele>
        <time>2021-04-28T12:07:28Z</time>
      </trkpt>
      <trkpt lat="51.549810000" lon="7.012810000">
        <ele>39</ele>
        <time>2021-04-28T12:07:31Z</time>
      </trkpt>
      <trkpt lat="51.549790000" lon="7.012990000">
        <ele>39</ele>
        <time>2021-04-28T12:07:33Z</time>
      </trkpt>
      <trkpt lat="51.549780000" lon="7.013170000">
        <ele>38</ele>
        <time>2021-04-28T12:07:35Z</time>
      </trkpt>
      <trkpt lat="51.549770000" lon="7.013270000">
        <ele>38</ele>
        <time>2021-04-28T12:07:36Z</time>
      </trkpt>
      <trkpt lat="51.549740000" lon="7.013420000">
        <ele>38</ele>
        <time>2021-04-28T12:07:37Z</time>
      </trkpt>
      <trkpt lat="51.549730000" lon="7.013540000">
        <ele>38</ele>
        <time>2021-04-28T12:07:39Z</time>
      </trkpt>
      <trkpt lat="51.549700000" lon="7.013710000">
        <ele>38</ele>
        <time>2021-04-28T12:07:41Z</time>
      </trkpt>
      <trkpt lat="51.549680000" lon="7.013780000">
        <ele>38</ele>
        <time>2021-04-28T12:07:42Z</time>
      </trkpt>
      <trkpt lat="51.549650000" lon="7.013930000">
        <ele>38</ele>
        <time>2021-04-28T12:07:44Z</time>
      </trkpt>
      <trkpt lat="51.549620000" lon="7.014090000">
        <ele>38</ele>
        <time>2021-04-28T12:07:46Z</time>
      </trkpt>
      <trkpt lat="51.549590000" lon="7.014260000">
        <ele>38</ele>
        <time>2021-04-28T12:07:48Z</time>
      </trkpt>
      <trkpt lat="51.549560000" lon="7.014420000">
        <ele>38</ele>
        <time>2021-04-28T12:07:49Z</time>
      </trkpt>
      <trkpt lat="51.549540000" lon="7.014510000">
        <ele>38</ele>
        <time>2021-04-28T12:07:50Z</time>
      </trkpt>
      <trkpt lat="51.549510000" lon="7.014620000">
        <ele>38</ele>
        <time>2021-04-28T12:07:52Z</time>
      </trkpt>
      <trkpt lat="51.549500000" lon="7.014700000">
        <ele>38</ele>
        <time>2021-04-28T12:07:53Z</time>
      </trkpt>
      <trkpt lat="51.549480000" lon="7.014790000">
        <ele>38</ele>
        <time>2021-04-28T12:07:54Z</time>
      </trkpt>
      <trkpt lat="51.549450000" lon="7.014870000">
        <ele>38</ele>
        <time>2021-04-28T12:07:55Z</time>
      </trkpt>
      <trkpt lat="51.549410000" lon="7.015040000">
        <ele>38</ele>
        <time>2021-04-28T12:07:57Z</time>
      </trkpt>
      <trkpt lat="51.549390000" lon="7.015140000">
        <ele>38</ele>
        <time>2021-04-28T12:07:58Z</time>
      </trkpt>
      <trkpt lat="51.549360000" lon="7.015220000">
        <ele>38</ele>
        <time>2021-04-28T12:07:59Z</time>
      </trkpt>
      <trkpt lat="51.549310000" lon="7.015390000">
        <ele>38</ele>
        <time>2021-04-28T12:08:01Z</time>
      </trkpt>
      <trkpt lat="51.549250000" lon="7.015560000">
        <ele>38</ele>
        <time>2021-04-28T12:08:03Z</time>
      </trkpt>
      <trkpt lat="51.549230000" lon="7.015640000">
        <ele>38</ele>
        <time>2021-04-28T12:08:04Z</time>
      </trkpt>
      <trkpt lat="51.549170000" lon="7.015790000">
        <ele>38</ele>
        <time>2021-04-28T12:08:06Z</time>
      </trkpt>
      <trkpt lat="51.549140000" lon="7.015860000">
        <ele>38</ele>
        <time>2021-04-28T12:08:07Z</time>
      </trkpt>
      <trkpt lat="51.549080000" lon="7.016010000">
        <ele>38</ele>
        <time>2021-04-28T12:08:09Z</time>
      </trkpt>
      <trkpt lat="51.549030000" lon="7.016150000">
        <ele>38</ele>
        <time>2021-04-28T12:08:10Z</time>
      </trkpt>
      <trkpt lat="51.548970000" lon="7.016290000">
        <ele>36</ele>
        <time>2021-04-28T12:08:12Z</time>
      </trkpt>
      <trkpt lat="51.548930000" lon="7.016370000">
        <ele>36</ele>
        <time>2021-04-28T12:08:14Z</time>
      </trkpt>
      <trkpt lat="51.548890000" lon="7.016470000">
        <ele>36</ele>
        <time>2021-04-28T12:08:15Z</time>
      </trkpt>
      <trkpt lat="51.548850000" lon="7.016560000">
        <ele>36</ele>
        <time>2021-04-28T12:08:17Z</time>
      </trkpt>
      <trkpt lat="51.548820000" lon="7.016620000">
        <ele>36</ele>
        <time>2021-04-28T12:08:18Z</time>
      </trkpt>
      <trkpt lat="51.548770000" lon="7.016710000">
        <ele>36</ele>
        <time>2021-04-28T12:08:20Z</time>
      </trkpt>
      <trkpt lat="51.548730000" lon="7.016770000">
        <ele>36</ele>
        <time>2021-04-28T12:08:24Z</time>
      </trkpt>
      <trkpt lat="51.548680000" lon="7.016850000">
        <ele>36</ele>
        <time>2021-04-28T12:08:28Z</time>
      </trkpt>
      <trkpt lat="51.548600000" lon="7.016990000">
        <ele>36</ele>
        <time>2021-04-28T12:08:30Z</time>
      </trkpt>
      <trkpt lat="51.548570000" lon="7.017050000">
        <ele>36</ele>
        <time>2021-04-28T12:08:31Z</time>
      </trkpt>
      <trkpt lat="51.548540000" lon="7.017110000">
        <ele>36</ele>
        <time>2021-04-28T12:08:33Z</time>
      </trkpt>
      <trkpt lat="51.548480000" lon="7.017210000">
        <ele>36</ele>
        <time>2021-04-28T12:08:35Z</time>
      </trkpt>
      <trkpt lat="51.548430000" lon="7.017320000">
        <ele>36</ele>
        <time>2021-04-28T12:08:37Z</time>
      </trkpt>
      <trkpt lat="51.548360000" lon="7.017440000">
        <ele>36</ele>
        <time>2021-04-28T12:08:39Z</time>
      </trkpt>
      <trkpt lat="51.548330000" lon="7.017490000">
        <ele>36</ele>
        <time>2021-04-28T12:08:40Z</time>
      </trkpt>
      <trkpt lat="51.548290000" lon="7.017540000">
        <ele>36</ele>
        <time>2021-04-28T12:08:41Z</time>
      </trkpt>
      <trkpt lat="51.548240000" lon="7.017650000">
        <ele>36</ele>
        <time>2021-04-28T12:08:42Z</time>
      </trkpt>
      <trkpt lat="51.548190000" lon="7.017750000">
        <ele>34</ele>
        <time>2021-04-28T12:08:44Z</time>
      </trkpt>
      <trkpt lat="51.548130000" lon="7.017850000">
        <ele>34</ele>
        <time>2021-04-28T12:08:46Z</time>
      </trkpt>
      <trkpt lat="51.548070000" lon="7.017980000">
        <ele>34</ele>
        <time>2021-04-28T12:08:48Z</time>
      </trkpt>
      <trkpt lat="51.548010000" lon="7.018100000">
        <ele>34</ele>
        <time>2021-04-28T12:08:50Z</time>
      </trkpt>
      <trkpt lat="51.547960000" lon="7.018220000">
        <ele>34</ele>
        <time>2021-04-28T12:08:51Z</time>
      </trkpt>
      <trkpt lat="51.547930000" lon="7.018290000">
        <ele>34</ele>
        <time>2021-04-28T12:08:52Z</time>
      </trkpt>
      <trkpt lat="51.547890000" lon="7.018380000">
        <ele>34</ele>
        <time>2021-04-28T12:08:54Z</time>
      </trkpt>
      <trkpt lat="51.547830000" lon="7.018510000">
        <ele>34</ele>
        <time>2021-04-28T12:08:56Z</time>
      </trkpt>
      <trkpt lat="51.547760000" lon="7.018640000">
        <ele>34</ele>
        <time>2021-04-28T12:08:58Z</time>
      </trkpt>
      <trkpt lat="51.547720000" lon="7.018710000">
        <ele>34</ele>
        <time>2021-04-28T12:08:59Z</time>
      </trkpt>
      <trkpt lat="51.547690000" lon="7.018780000">
        <ele>34</ele>
        <time>2021-04-28T12:09:00Z</time>
      </trkpt>
      <trkpt lat="51.547610000" lon="7.018940000">
        <ele>36</ele>
        <time>2021-04-28T12:09:02Z</time>
      </trkpt>
      <trkpt lat="51.547540000" lon="7.019080000">
        <ele>36</ele>
        <time>2021-04-28T12:09:04Z</time>
      </trkpt>
      <trkpt lat="51.547500000" lon="7.019160000">
        <ele>36</ele>
        <time>2021-04-28T12:09:05Z</time>
      </trkpt>
      <trkpt lat="51.547460000" lon="7.019240000">
        <ele>36</ele>
        <time>2021-04-28T12:09:06Z</time>
      </trkpt>
      <trkpt lat="51.547390000" lon="7.019390000">
        <ele>36</ele>
        <time>2021-04-28T12:09:08Z</time>
      </trkpt>
      <trkpt lat="51.547340000" lon="7.019530000">
        <ele>36</ele>
        <time>2021-04-28T12:09:09Z</time>
      </trkpt>
      <trkpt lat="51.547300000" lon="7.019630000">
        <ele>36</ele>
        <time>2021-04-28T12:09:11Z</time>
      </trkpt>
      <trkpt lat="51.547250000" lon="7.019760000">
        <ele>36</ele>
        <time>2021-04-28T12:09:12Z</time>
      </trkpt>
      <trkpt lat="51.547210000" lon="7.019850000">
        <ele>36</ele>
        <time>2021-04-28T12:09:13Z</time>
      </trkpt>
      <trkpt lat="51.547180000" lon="7.019960000">
        <ele>36</ele>
        <time>2021-04-28T12:09:15Z</time>
      </trkpt>
      <trkpt lat="51.547140000" lon="7.020100000">
        <ele>36</ele>
        <time>2021-04-28T12:09:16Z</time>
      </trkpt>
      <trkpt lat="51.547130000" lon="7.020220000">
        <ele>36</ele>
        <time>2021-04-28T12:09:18Z</time>
      </trkpt>
      <trkpt lat="51.547120000" lon="7.020310000">
        <ele>36</ele>
        <time>2021-04-28T12:09:19Z</time>
      </trkpt>
      <trkpt lat="51.547090000" lon="7.020470000">
        <ele>36</ele>
        <time>2021-04-28T12:09:20Z</time>
      </trkpt>
      <trkpt lat="51.547070000" lon="7.020590000">
        <ele>36</ele>
        <time>2021-04-28T12:09:22Z</time>
      </trkpt>
      <trkpt lat="51.547060000" lon="7.020670000">
        <ele>36</ele>
        <time>2021-04-28T12:09:23Z</time>
      </trkpt>
      <trkpt lat="51.547050000" lon="7.020860000">
        <ele>36</ele>
        <time>2021-04-28T12:09:25Z</time>
      </trkpt>
      <trkpt lat="51.547060000" lon="7.021030000">
        <ele>36</ele>
        <time>2021-04-28T12:09:27Z</time>
      </trkpt>
      <trkpt lat="51.547070000" lon="7.021110000">
        <ele>36</ele>
        <time>2021-04-28T12:09:28Z</time>
      </trkpt>
      <trkpt lat="51.547140000" lon="7.021180000">
        <ele>36</ele>
        <time>2021-04-28T12:09:30Z</time>
      </trkpt>
      <trkpt lat="51.547190000" lon="7.021030000">
        <ele>36</ele>
        <time>2021-04-28T12:09:32Z</time>
      </trkpt>
      <trkpt lat="51.547220000" lon="7.020910000">
        <ele>36</ele>
        <time>2021-04-28T12:09:35Z</time>
      </trkpt>
      <trkpt lat="51.547260000" lon="7.020850000">
        <ele>36</ele>
        <time>2021-04-28T12:09:37Z</time>
      </trkpt>
      <trkpt lat="51.547290000" lon="7.020770000">
        <ele>36</ele>
        <time>2021-04-28T12:10:13Z</time>
      </trkpt>
      <trkpt lat="51.547260000" lon="7.020830000">
        <ele>36</ele>
        <time>2021-04-28T12:10:39Z</time>
      </trkpt>
      <trkpt lat="51.547270000" lon="7.020760000">
        <ele>36</ele>
        <time>2021-04-28T12:15:29Z</time>
      </trkpt>
      <trkpt lat="51.547240000" lon="7.020820000">
        <ele>36</ele>
        <time>2021-04-28T12:16:55Z</time>
      </trkpt>
      <trkpt lat="51.547210000" lon="7.020900000">
        <ele>36</ele>
        <time>2021-04-28T12:17:02Z</time>
      </trkpt>
      <trkpt lat="51.547190000" lon="7.021000000">
        <ele>36</ele>
        <time>2021-04-28T12:17:09Z</time>
      </trkpt>
      <trkpt lat="51.547150000" lon="7.021070000">
        <ele>36</ele>
        <time>2021-04-28T12:17:15Z</time>
      </trkpt>
      <trkpt lat="51.547120000" lon="7.021130000">
        <ele>44</ele>
        <time>2021-04-28T12:17:21Z</time>
      </trkpt>
      <trkpt lat="51.547090000" lon="7.021180000">
        <ele>44</ele>
        <time>2021-04-28T12:17:30Z</time>
      </trkpt>
      <trkpt lat="51.547090000" lon="7.021260000">
        <ele>44</ele>
        <time>2021-04-28T12:17:56Z</time>
      </trkpt>
      <trkpt lat="51.547060000" lon="7.021340000">
        <ele>44</ele>
        <time>2021-04-28T12:18:19Z</time>
      </trkpt>
      <trkpt lat="51.547050000" lon="7.021410000">
        <ele>44</ele>
        <time>2021-04-28T12:18:24Z</time>
      </trkpt>
      <trkpt lat="51.547030000" lon="7.021490000">
        <ele>49</ele>
        <time>2021-04-28T12:18:31Z</time>
      </trkpt>
      <trkpt lat="51.546990000" lon="7.021530000">
        <ele>49</ele>
        <time>2021-04-28T12:18:37Z</time>
      </trkpt>
      <trkpt lat="51.546960000" lon="7.021590000">
        <ele>49</ele>
        <time>2021-04-28T12:18:42Z</time>
      </trkpt>
      <trkpt lat="51.546970000" lon="7.021680000">
        <ele>49</ele>
        <time>2021-04-28T12:18:47Z</time>
      </trkpt>
      <trkpt lat="51.546980000" lon="7.021750000">
        <ele>49</ele>
        <time>2021-04-28T12:18:51Z</time>
      </trkpt>
      <trkpt lat="51.546970000" lon="7.021830000">
        <ele>49</ele>
        <time>2021-04-28T12:18:56Z</time>
      </trkpt>
      <trkpt lat="51.546990000" lon="7.021920000">
        <ele>49</ele>
        <time>2021-04-28T12:19:02Z</time>
      </trkpt>
      <trkpt lat="51.546990000" lon="7.022020000">
        <ele>49</ele>
        <time>2021-04-28T12:19:08Z</time>
      </trkpt>
      <trkpt lat="51.546990000" lon="7.022100000">
        <ele>49</ele>
        <time>2021-04-28T12:19:13Z</time>
      </trkpt>
      <trkpt lat="51.547000000" lon="7.022180000">
        <ele>49</ele>
        <time>2021-04-28T12:19:20Z</time>
      </trkpt>
      <trkpt lat="51.547020000" lon="7.022250000">
        <ele>49</ele>
        <time>2021-04-28T12:19:26Z</time>
      </trkpt>
      <trkpt lat="51.547040000" lon="7.022310000">
        <ele>49</ele>
        <time>2021-04-28T12:19:32Z</time>
      </trkpt>
      <trkpt lat="51.547050000" lon="7.022380000">
        <ele>49</ele>
        <time>2021-04-28T12:19:37Z</time>
      </trkpt>
      <trkpt lat="51.547070000" lon="7.022470000">
        <ele>50</ele>
        <time>2021-04-28T12:19:44Z</time>
      </trkpt>
      <trkpt lat="51.547070000" lon="7.022580000">
        <ele>50</ele>
        <time>2021-04-28T12:19:50Z</time>
      </trkpt>
      <trkpt lat="51.547070000" lon="7.022670000">
        <ele>50</ele>
        <time>2021-04-28T12:19:56Z</time>
      </trkpt>
      <trkpt lat="51.547030000" lon="7.022720000">
        <ele>50</ele>
        <time>2021-04-28T12:20:04Z</time>
      </trkpt>
      <trkpt lat="51.546980000" lon="7.022720000">
        <ele>50</ele>
        <time>2021-04-28T12:20:09Z</time>
      </trkpt>
      <trkpt lat="51.546910000" lon="7.022720000">
        <ele>50</ele>
        <time>2021-04-28T12:20:14Z</time>
      </trkpt>
      <trkpt lat="51.546870000" lon="7.022690000">
        <ele>50</ele>
        <time>2021-04-28T12:20:18Z</time>
      </trkpt>
      <trkpt lat="51.546830000" lon="7.022660000">
        <ele>50</ele>
        <time>2021-04-28T12:20:37Z</time>
      </trkpt>
      <trkpt lat="51.546790000" lon="7.022630000">
        <ele>50</ele>
        <time>2021-04-28T12:20:58Z</time>
      </trkpt>
      <trkpt lat="51.546830000" lon="7.022630000">
        <ele>50</ele>
        <time>2021-04-28T12:21:15Z</time>
      </trkpt>
      <trkpt lat="51.546790000" lon="7.022670000">
        <ele>50</ele>
        <time>2021-04-28T12:23:05Z</time>
      </trkpt>
      <trkpt lat="51.546840000" lon="7.022670000">
        <ele>50</ele>
        <time>2021-04-28T12:25:37Z</time>
      </trkpt>
      <trkpt lat="51.546800000" lon="7.022600000">
        <ele>50</ele>
        <time>2021-04-28T12:25:41Z</time>
      </trkpt>
    </trkseg>
  </trk>
</gpx>